<?xml version="1.0" encoding="UTF-8" standalone="no" ?>
<gpx xmlns="http://www.topografix.com/GPX/1/1" xmlns:xsi="http://www.w3.org/2001/XMLSchema-instance" xsi:schemaLocation="http://www.topografix.com/GPX/1/1 http://www.topografix.com/GPX/1/1/gpx.xsd" version="1.1" creator="VisuGPX - https://www.visugpx.com">
  <metadata>
    <name>Les Montées Paunatoises 2025</name>
  </metadata>
  <trk>
    <name><![CDATA[Les Montées Paunatoises 2025_1]]></name>
    <trkseg>
      <trkpt lat="44.90093" lon="0.85695">
        <ele>130.2</ele>
        <time>2025-05-10T07:43:50Z</time>
      </trkpt>
      <trkpt lat="44.90093" lon="0.85695">
        <ele>130.2</ele>
        <time>2025-05-10T07:43:51Z</time>
      </trkpt>
      <trkpt lat="44.90086" lon="0.85677">
        <ele>130.2</ele>
        <time>2025-05-10T07:44:01Z</time>
      </trkpt>
      <trkpt lat="44.90087" lon="0.85675">
        <ele>130.4</ele>
        <time>2025-05-10T07:44:02Z</time>
      </trkpt>
      <trkpt lat="44.90089" lon="0.85676">
        <ele>130.2</ele>
        <time>2025-05-10T07:44:03Z</time>
      </trkpt>
      <trkpt lat="44.90088" lon="0.85676">
        <ele>130.2</ele>
        <time>2025-05-10T07:44:04Z</time>
      </trkpt>
      <trkpt lat="44.90088" lon="0.85678">
        <ele>130.2</ele>
        <time>2025-05-10T07:44:05Z</time>
      </trkpt>
      <trkpt lat="44.90087" lon="0.85679">
        <ele>130.2</ele>
        <time>2025-05-10T07:44:06Z</time>
      </trkpt>
      <trkpt lat="44.90085" lon="0.85681">
        <ele>130.2</ele>
        <time>2025-05-10T07:44:07Z</time>
      </trkpt>
      <trkpt lat="44.90084" lon="0.85683">
        <ele>130.2</ele>
        <time>2025-05-10T07:44:08Z</time>
      </trkpt>
      <trkpt lat="44.9008" lon="0.85683">
        <ele>130.2</ele>
        <time>2025-05-10T07:44:09Z</time>
      </trkpt>
      <trkpt lat="44.90078" lon="0.85683">
        <ele>130.2</ele>
        <time>2025-05-10T07:44:10Z</time>
      </trkpt>
      <trkpt lat="44.90076" lon="0.85682">
        <ele>130.4</ele>
        <time>2025-05-10T07:44:11Z</time>
      </trkpt>
      <trkpt lat="44.90074" lon="0.8568">
        <ele>130.4</ele>
        <time>2025-05-10T07:44:12Z</time>
      </trkpt>
      <trkpt lat="44.90074" lon="0.85676">
        <ele>130.4</ele>
        <time>2025-05-10T07:44:13Z</time>
      </trkpt>
      <trkpt lat="44.90076" lon="0.85673">
        <ele>130.6</ele>
        <time>2025-05-10T07:44:14Z</time>
      </trkpt>
      <trkpt lat="44.90076" lon="0.8567">
        <ele>130.6</ele>
        <time>2025-05-10T07:44:15Z</time>
      </trkpt>
      <trkpt lat="44.90078" lon="0.85669">
        <ele>130.6</ele>
        <time>2025-05-10T07:44:16Z</time>
      </trkpt>
      <trkpt lat="44.90077" lon="0.85669">
        <ele>130.6</ele>
        <time>2025-05-10T07:44:17Z</time>
      </trkpt>
      <trkpt lat="44.90078" lon="0.8567">
        <ele>130.6</ele>
        <time>2025-05-10T07:44:18Z</time>
      </trkpt>
      <trkpt lat="44.90079" lon="0.85672">
        <ele>130.6</ele>
        <time>2025-05-10T07:44:19Z</time>
      </trkpt>
      <trkpt lat="44.90079" lon="0.85675">
        <ele>130.4</ele>
        <time>2025-05-10T07:44:20Z</time>
      </trkpt>
      <trkpt lat="44.9008" lon="0.85679">
        <ele>130.4</ele>
        <time>2025-05-10T07:44:21Z</time>
      </trkpt>
      <trkpt lat="44.9008" lon="0.85682">
        <ele>130.4</ele>
        <time>2025-05-10T07:44:22Z</time>
      </trkpt>
      <trkpt lat="44.90081" lon="0.85685">
        <ele>130.4</ele>
        <time>2025-05-10T07:44:23Z</time>
      </trkpt>
      <trkpt lat="44.90081" lon="0.85688">
        <ele>130.4</ele>
        <time>2025-05-10T07:44:24Z</time>
      </trkpt>
      <trkpt lat="44.90082" lon="0.85691">
        <ele>130.6</ele>
        <time>2025-05-10T07:44:25Z</time>
      </trkpt>
      <trkpt lat="44.90082" lon="0.85695">
        <ele>130.8</ele>
        <time>2025-05-10T07:44:26Z</time>
      </trkpt>
      <trkpt lat="44.90082" lon="0.85699">
        <ele>130.8</ele>
        <time>2025-05-10T07:44:27Z</time>
      </trkpt>
      <trkpt lat="44.90082" lon="0.85703">
        <ele>130.8</ele>
        <time>2025-05-10T07:44:28Z</time>
      </trkpt>
      <trkpt lat="44.90083" lon="0.85707">
        <ele>131</ele>
        <time>2025-05-10T07:44:29Z</time>
      </trkpt>
      <trkpt lat="44.90083" lon="0.85711">
        <ele>131</ele>
        <time>2025-05-10T07:44:30Z</time>
      </trkpt>
      <trkpt lat="44.90082" lon="0.85715">
        <ele>131</ele>
        <time>2025-05-10T07:44:31Z</time>
      </trkpt>
      <trkpt lat="44.9008" lon="0.85718">
        <ele>131</ele>
        <time>2025-05-10T07:44:32Z</time>
      </trkpt>
      <trkpt lat="44.90077" lon="0.85719">
        <ele>131</ele>
        <time>2025-05-10T07:44:33Z</time>
      </trkpt>
      <trkpt lat="44.90074" lon="0.8572">
        <ele>131</ele>
        <time>2025-05-10T07:44:34Z</time>
      </trkpt>
      <trkpt lat="44.90072" lon="0.8572">
        <ele>131</ele>
        <time>2025-05-10T07:44:35Z</time>
      </trkpt>
      <trkpt lat="44.90068" lon="0.8572">
        <ele>130.8</ele>
        <time>2025-05-10T07:44:36Z</time>
      </trkpt>
      <trkpt lat="44.90065" lon="0.85719">
        <ele>130.8</ele>
        <time>2025-05-10T07:44:37Z</time>
      </trkpt>
      <trkpt lat="44.90062" lon="0.85718">
        <ele>130.8</ele>
        <time>2025-05-10T07:44:38Z</time>
      </trkpt>
      <trkpt lat="44.90058" lon="0.85718">
        <ele>130.8</ele>
        <time>2025-05-10T07:44:39Z</time>
      </trkpt>
      <trkpt lat="44.90055" lon="0.85718">
        <ele>130.8</ele>
        <time>2025-05-10T07:44:40Z</time>
      </trkpt>
      <trkpt lat="44.90052" lon="0.85718">
        <ele>130.8</ele>
        <time>2025-05-10T07:44:41Z</time>
      </trkpt>
      <trkpt lat="44.90048" lon="0.85718">
        <ele>130.8</ele>
        <time>2025-05-10T07:44:42Z</time>
      </trkpt>
      <trkpt lat="44.90044" lon="0.85719">
        <ele>130.6</ele>
        <time>2025-05-10T07:44:43Z</time>
      </trkpt>
      <trkpt lat="44.90039" lon="0.85719">
        <ele>130.4</ele>
        <time>2025-05-10T07:44:44Z</time>
      </trkpt>
      <trkpt lat="44.90035" lon="0.85719">
        <ele>130.2</ele>
        <time>2025-05-10T07:44:45Z</time>
      </trkpt>
      <trkpt lat="44.9003" lon="0.85719">
        <ele>130</ele>
        <time>2025-05-10T07:44:46Z</time>
      </trkpt>
      <trkpt lat="44.90025" lon="0.85719">
        <ele>129.8</ele>
        <time>2025-05-10T07:44:47Z</time>
      </trkpt>
      <trkpt lat="44.9002" lon="0.8572">
        <ele>129.6</ele>
        <time>2025-05-10T07:44:48Z</time>
      </trkpt>
      <trkpt lat="44.90016" lon="0.8572">
        <ele>129.2</ele>
        <time>2025-05-10T07:44:49Z</time>
      </trkpt>
      <trkpt lat="44.90011" lon="0.8572">
        <ele>129.2</ele>
        <time>2025-05-10T07:44:50Z</time>
      </trkpt>
      <trkpt lat="44.90006" lon="0.85721">
        <ele>129.2</ele>
        <time>2025-05-10T07:44:51Z</time>
      </trkpt>
      <trkpt lat="44.90001" lon="0.85722">
        <ele>129</ele>
        <time>2025-05-10T07:44:52Z</time>
      </trkpt>
      <trkpt lat="44.89996" lon="0.85723">
        <ele>128.8</ele>
        <time>2025-05-10T07:44:53Z</time>
      </trkpt>
      <trkpt lat="44.89991" lon="0.85724">
        <ele>128.8</ele>
        <time>2025-05-10T07:44:54Z</time>
      </trkpt>
      <trkpt lat="44.89987" lon="0.85726">
        <ele>127.8</ele>
        <time>2025-05-10T07:44:55Z</time>
      </trkpt>
      <trkpt lat="44.89982" lon="0.85726">
        <ele>127.8</ele>
        <time>2025-05-10T07:44:56Z</time>
      </trkpt>
      <trkpt lat="44.89977" lon="0.85727">
        <ele>127.8</ele>
        <time>2025-05-10T07:44:57Z</time>
      </trkpt>
      <trkpt lat="44.89972" lon="0.85728">
        <ele>127.8</ele>
        <time>2025-05-10T07:44:58Z</time>
      </trkpt>
      <trkpt lat="44.89967" lon="0.85729">
        <ele>127.8</ele>
        <time>2025-05-10T07:44:59Z</time>
      </trkpt>
      <trkpt lat="44.89962" lon="0.8573">
        <ele>127.6</ele>
        <time>2025-05-10T07:45:00Z</time>
      </trkpt>
      <trkpt lat="44.89957" lon="0.8573">
        <ele>127.6</ele>
        <time>2025-05-10T07:45:01Z</time>
      </trkpt>
      <trkpt lat="44.89951" lon="0.85731">
        <ele>127.6</ele>
        <time>2025-05-10T07:45:02Z</time>
      </trkpt>
      <trkpt lat="44.89946" lon="0.85732">
        <ele>127.6</ele>
        <time>2025-05-10T07:45:03Z</time>
      </trkpt>
      <trkpt lat="44.89941" lon="0.85733">
        <ele>127.6</ele>
        <time>2025-05-10T07:45:04Z</time>
      </trkpt>
      <trkpt lat="44.89936" lon="0.85733">
        <ele>127.6</ele>
        <time>2025-05-10T07:45:05Z</time>
      </trkpt>
      <trkpt lat="44.89931" lon="0.85733">
        <ele>127.6</ele>
        <time>2025-05-10T07:45:06Z</time>
      </trkpt>
      <trkpt lat="44.89926" lon="0.85733">
        <ele>127.6</ele>
        <time>2025-05-10T07:45:07Z</time>
      </trkpt>
      <trkpt lat="44.89922" lon="0.85733">
        <ele>127.6</ele>
        <time>2025-05-10T07:45:08Z</time>
      </trkpt>
      <trkpt lat="44.89917" lon="0.85734">
        <ele>127.2</ele>
        <time>2025-05-10T07:45:09Z</time>
      </trkpt>
      <trkpt lat="44.89913" lon="0.85734">
        <ele>127.2</ele>
        <time>2025-05-10T07:45:10Z</time>
      </trkpt>
      <trkpt lat="44.89908" lon="0.85735">
        <ele>127.2</ele>
        <time>2025-05-10T07:45:11Z</time>
      </trkpt>
      <trkpt lat="44.89904" lon="0.85735">
        <ele>127.2</ele>
        <time>2025-05-10T07:45:12Z</time>
      </trkpt>
      <trkpt lat="44.89899" lon="0.85736">
        <ele>127.2</ele>
        <time>2025-05-10T07:45:13Z</time>
      </trkpt>
      <trkpt lat="44.89895" lon="0.85736">
        <ele>127.2</ele>
        <time>2025-05-10T07:45:14Z</time>
      </trkpt>
      <trkpt lat="44.8989" lon="0.85737">
        <ele>127.2</ele>
        <time>2025-05-10T07:45:15Z</time>
      </trkpt>
      <trkpt lat="44.89886" lon="0.85737">
        <ele>127.2</ele>
        <time>2025-05-10T07:45:16Z</time>
      </trkpt>
      <trkpt lat="44.89881" lon="0.85738">
        <ele>127.2</ele>
        <time>2025-05-10T07:45:17Z</time>
      </trkpt>
      <trkpt lat="44.89876" lon="0.85739">
        <ele>127.2</ele>
        <time>2025-05-10T07:45:18Z</time>
      </trkpt>
      <trkpt lat="44.89871" lon="0.8574">
        <ele>127.2</ele>
        <time>2025-05-10T07:45:19Z</time>
      </trkpt>
      <trkpt lat="44.89866" lon="0.85741">
        <ele>127.2</ele>
        <time>2025-05-10T07:45:20Z</time>
      </trkpt>
      <trkpt lat="44.89861" lon="0.85742">
        <ele>127.2</ele>
        <time>2025-05-10T07:45:21Z</time>
      </trkpt>
      <trkpt lat="44.89856" lon="0.85744">
        <ele>127</ele>
        <time>2025-05-10T07:45:22Z</time>
      </trkpt>
      <trkpt lat="44.89851" lon="0.85745">
        <ele>127</ele>
        <time>2025-05-10T07:45:23Z</time>
      </trkpt>
      <trkpt lat="44.89846" lon="0.85747">
        <ele>127</ele>
        <time>2025-05-10T07:45:24Z</time>
      </trkpt>
      <trkpt lat="44.89842" lon="0.85748">
        <ele>126.8</ele>
        <time>2025-05-10T07:45:25Z</time>
      </trkpt>
      <trkpt lat="44.89838" lon="0.85749">
        <ele>126.6</ele>
        <time>2025-05-10T07:45:26Z</time>
      </trkpt>
      <trkpt lat="44.89834" lon="0.85751">
        <ele>126.6</ele>
        <time>2025-05-10T07:45:27Z</time>
      </trkpt>
      <trkpt lat="44.8983" lon="0.85752">
        <ele>126.6</ele>
        <time>2025-05-10T07:45:28Z</time>
      </trkpt>
      <trkpt lat="44.89827" lon="0.85753">
        <ele>126.6</ele>
        <time>2025-05-10T07:45:29Z</time>
      </trkpt>
      <trkpt lat="44.89823" lon="0.85753">
        <ele>126.6</ele>
        <time>2025-05-10T07:45:30Z</time>
      </trkpt>
      <trkpt lat="44.89818" lon="0.85754">
        <ele>126.4</ele>
        <time>2025-05-10T07:45:31Z</time>
      </trkpt>
      <trkpt lat="44.89814" lon="0.85755">
        <ele>126.6</ele>
        <time>2025-05-10T07:45:32Z</time>
      </trkpt>
      <trkpt lat="44.89809" lon="0.85756">
        <ele>126.4</ele>
        <time>2025-05-10T07:45:33Z</time>
      </trkpt>
      <trkpt lat="44.89804" lon="0.85758">
        <ele>126.4</ele>
        <time>2025-05-10T07:45:34Z</time>
      </trkpt>
      <trkpt lat="44.89798" lon="0.85758">
        <ele>126.4</ele>
        <time>2025-05-10T07:45:35Z</time>
      </trkpt>
      <trkpt lat="44.89793" lon="0.85759">
        <ele>126.2</ele>
        <time>2025-05-10T07:45:36Z</time>
      </trkpt>
      <trkpt lat="44.89788" lon="0.8576">
        <ele>126</ele>
        <time>2025-05-10T07:45:37Z</time>
      </trkpt>
      <trkpt lat="44.89783" lon="0.85761">
        <ele>125.6</ele>
        <time>2025-05-10T07:45:38Z</time>
      </trkpt>
      <trkpt lat="44.89778" lon="0.85762">
        <ele>125.4</ele>
        <time>2025-05-10T07:45:39Z</time>
      </trkpt>
      <trkpt lat="44.89774" lon="0.85763">
        <ele>125.4</ele>
        <time>2025-05-10T07:45:40Z</time>
      </trkpt>
      <trkpt lat="44.89769" lon="0.85764">
        <ele>125.2</ele>
        <time>2025-05-10T07:45:41Z</time>
      </trkpt>
      <trkpt lat="44.89764" lon="0.85765">
        <ele>125.2</ele>
        <time>2025-05-10T07:45:42Z</time>
      </trkpt>
      <trkpt lat="44.89759" lon="0.85766">
        <ele>125</ele>
        <time>2025-05-10T07:45:43Z</time>
      </trkpt>
      <trkpt lat="44.89754" lon="0.85767">
        <ele>125</ele>
        <time>2025-05-10T07:45:44Z</time>
      </trkpt>
      <trkpt lat="44.89749" lon="0.85768">
        <ele>125</ele>
        <time>2025-05-10T07:45:45Z</time>
      </trkpt>
      <trkpt lat="44.89744" lon="0.8577">
        <ele>124.8</ele>
        <time>2025-05-10T07:45:46Z</time>
      </trkpt>
      <trkpt lat="44.89739" lon="0.85771">
        <ele>124.8</ele>
        <time>2025-05-10T07:45:47Z</time>
      </trkpt>
      <trkpt lat="44.89734" lon="0.85773">
        <ele>124.8</ele>
        <time>2025-05-10T07:45:48Z</time>
      </trkpt>
      <trkpt lat="44.89729" lon="0.85775">
        <ele>124.6</ele>
        <time>2025-05-10T07:45:49Z</time>
      </trkpt>
      <trkpt lat="44.89724" lon="0.85777">
        <ele>124.4</ele>
        <time>2025-05-10T07:45:50Z</time>
      </trkpt>
      <trkpt lat="44.89719" lon="0.85779">
        <ele>124.4</ele>
        <time>2025-05-10T07:45:51Z</time>
      </trkpt>
      <trkpt lat="44.89714" lon="0.85782">
        <ele>124.4</ele>
        <time>2025-05-10T07:45:52Z</time>
      </trkpt>
      <trkpt lat="44.89709" lon="0.85784">
        <ele>124.4</ele>
        <time>2025-05-10T07:45:53Z</time>
      </trkpt>
      <trkpt lat="44.89704" lon="0.85787">
        <ele>124.2</ele>
        <time>2025-05-10T07:45:54Z</time>
      </trkpt>
      <trkpt lat="44.89699" lon="0.85789">
        <ele>124</ele>
        <time>2025-05-10T07:45:55Z</time>
      </trkpt>
      <trkpt lat="44.89694" lon="0.85793">
        <ele>123.8</ele>
        <time>2025-05-10T07:45:56Z</time>
      </trkpt>
      <trkpt lat="44.89688" lon="0.85796">
        <ele>123.6</ele>
        <time>2025-05-10T07:45:57Z</time>
      </trkpt>
      <trkpt lat="44.89683" lon="0.85799">
        <ele>123.4</ele>
        <time>2025-05-10T07:45:58Z</time>
      </trkpt>
      <trkpt lat="44.89679" lon="0.85803">
        <ele>123.2</ele>
        <time>2025-05-10T07:45:59Z</time>
      </trkpt>
      <trkpt lat="44.89673" lon="0.85806">
        <ele>123</ele>
        <time>2025-05-10T07:46:00Z</time>
      </trkpt>
      <trkpt lat="44.89668" lon="0.85809">
        <ele>122.8</ele>
        <time>2025-05-10T07:46:01Z</time>
      </trkpt>
      <trkpt lat="44.89663" lon="0.85813">
        <ele>122.8</ele>
        <time>2025-05-10T07:46:02Z</time>
      </trkpt>
      <trkpt lat="44.89658" lon="0.85816">
        <ele>122.8</ele>
        <time>2025-05-10T07:46:03Z</time>
      </trkpt>
      <trkpt lat="44.89653" lon="0.85819">
        <ele>122.8</ele>
        <time>2025-05-10T07:46:04Z</time>
      </trkpt>
      <trkpt lat="44.89648" lon="0.85822">
        <ele>122.6</ele>
        <time>2025-05-10T07:46:05Z</time>
      </trkpt>
      <trkpt lat="44.89642" lon="0.85825">
        <ele>122.6</ele>
        <time>2025-05-10T07:46:06Z</time>
      </trkpt>
      <trkpt lat="44.89637" lon="0.85827">
        <ele>122.6</ele>
        <time>2025-05-10T07:46:07Z</time>
      </trkpt>
      <trkpt lat="44.89633" lon="0.8583">
        <ele>122.6</ele>
        <time>2025-05-10T07:46:08Z</time>
      </trkpt>
      <trkpt lat="44.89628" lon="0.85832">
        <ele>122.6</ele>
        <time>2025-05-10T07:46:09Z</time>
      </trkpt>
      <trkpt lat="44.89623" lon="0.85834">
        <ele>122.6</ele>
        <time>2025-05-10T07:46:10Z</time>
      </trkpt>
      <trkpt lat="44.89618" lon="0.85837">
        <ele>122.4</ele>
        <time>2025-05-10T07:46:11Z</time>
      </trkpt>
      <trkpt lat="44.89613" lon="0.85839">
        <ele>122.4</ele>
        <time>2025-05-10T07:46:12Z</time>
      </trkpt>
      <trkpt lat="44.89608" lon="0.85841">
        <ele>122.2</ele>
        <time>2025-05-10T07:46:13Z</time>
      </trkpt>
      <trkpt lat="44.89603" lon="0.85844">
        <ele>122.2</ele>
        <time>2025-05-10T07:46:14Z</time>
      </trkpt>
      <trkpt lat="44.89599" lon="0.85847">
        <ele>122.2</ele>
        <time>2025-05-10T07:46:15Z</time>
      </trkpt>
      <trkpt lat="44.89594" lon="0.8585">
        <ele>122.2</ele>
        <time>2025-05-10T07:46:16Z</time>
      </trkpt>
      <trkpt lat="44.89589" lon="0.85852">
        <ele>122.2</ele>
        <time>2025-05-10T07:46:17Z</time>
      </trkpt>
      <trkpt lat="44.89584" lon="0.85856">
        <ele>122.2</ele>
        <time>2025-05-10T07:46:18Z</time>
      </trkpt>
      <trkpt lat="44.89579" lon="0.85859">
        <ele>122.2</ele>
        <time>2025-05-10T07:46:19Z</time>
      </trkpt>
      <trkpt lat="44.89574" lon="0.85863">
        <ele>122</ele>
        <time>2025-05-10T07:46:20Z</time>
      </trkpt>
      <trkpt lat="44.89571" lon="0.85868">
        <ele>122</ele>
        <time>2025-05-10T07:46:21Z</time>
      </trkpt>
      <trkpt lat="44.89568" lon="0.85874">
        <ele>122</ele>
        <time>2025-05-10T07:46:22Z</time>
      </trkpt>
      <trkpt lat="44.89566" lon="0.85881">
        <ele>122</ele>
        <time>2025-05-10T07:46:23Z</time>
      </trkpt>
      <trkpt lat="44.89565" lon="0.85888">
        <ele>121.8</ele>
        <time>2025-05-10T07:46:24Z</time>
      </trkpt>
      <trkpt lat="44.89564" lon="0.85894">
        <ele>121.8</ele>
        <time>2025-05-10T07:46:25Z</time>
      </trkpt>
      <trkpt lat="44.89563" lon="0.85901">
        <ele>121.8</ele>
        <time>2025-05-10T07:46:26Z</time>
      </trkpt>
      <trkpt lat="44.89562" lon="0.85907">
        <ele>121.8</ele>
        <time>2025-05-10T07:46:27Z</time>
      </trkpt>
      <trkpt lat="44.8956" lon="0.85913">
        <ele>121.6</ele>
        <time>2025-05-10T07:46:28Z</time>
      </trkpt>
      <trkpt lat="44.89558" lon="0.8592">
        <ele>121.4</ele>
        <time>2025-05-10T07:46:29Z</time>
      </trkpt>
      <trkpt lat="44.89557" lon="0.85926">
        <ele>121.4</ele>
        <time>2025-05-10T07:46:30Z</time>
      </trkpt>
      <trkpt lat="44.89555" lon="0.85932">
        <ele>121</ele>
        <time>2025-05-10T07:46:31Z</time>
      </trkpt>
      <trkpt lat="44.89554" lon="0.85939">
        <ele>120.8</ele>
        <time>2025-05-10T07:46:32Z</time>
      </trkpt>
      <trkpt lat="44.89554" lon="0.85946">
        <ele>120.8</ele>
        <time>2025-05-10T07:46:33Z</time>
      </trkpt>
      <trkpt lat="44.89554" lon="0.85953">
        <ele>120.8</ele>
        <time>2025-05-10T07:46:34Z</time>
      </trkpt>
      <trkpt lat="44.89555" lon="0.8596">
        <ele>120.6</ele>
        <time>2025-05-10T07:46:35Z</time>
      </trkpt>
      <trkpt lat="44.89555" lon="0.85967">
        <ele>120.6</ele>
        <time>2025-05-10T07:46:36Z</time>
      </trkpt>
      <trkpt lat="44.89557" lon="0.85974">
        <ele>120</ele>
        <time>2025-05-10T07:46:37Z</time>
      </trkpt>
      <trkpt lat="44.89558" lon="0.85981">
        <ele>119.2</ele>
        <time>2025-05-10T07:46:38Z</time>
      </trkpt>
      <trkpt lat="44.8956" lon="0.85989">
        <ele>119.2</ele>
        <time>2025-05-10T07:46:39Z</time>
      </trkpt>
      <trkpt lat="44.89561" lon="0.85997">
        <ele>118.8</ele>
        <time>2025-05-10T07:46:40Z</time>
      </trkpt>
      <trkpt lat="44.89563" lon="0.86004">
        <ele>118.4</ele>
        <time>2025-05-10T07:46:41Z</time>
      </trkpt>
      <trkpt lat="44.89564" lon="0.86012">
        <ele>118</ele>
        <time>2025-05-10T07:46:42Z</time>
      </trkpt>
      <trkpt lat="44.89563" lon="0.86018">
        <ele>117.2</ele>
        <time>2025-05-10T07:46:43Z</time>
      </trkpt>
      <trkpt lat="44.89561" lon="0.86024">
        <ele>117</ele>
        <time>2025-05-10T07:46:44Z</time>
      </trkpt>
      <trkpt lat="44.89559" lon="0.8603">
        <ele>116.2</ele>
        <time>2025-05-10T07:46:45Z</time>
      </trkpt>
      <trkpt lat="44.89557" lon="0.86037">
        <ele>116</ele>
        <time>2025-05-10T07:46:46Z</time>
      </trkpt>
      <trkpt lat="44.89554" lon="0.86045">
        <ele>115.6</ele>
        <time>2025-05-10T07:46:47Z</time>
      </trkpt>
      <trkpt lat="44.89552" lon="0.86053">
        <ele>115.4</ele>
        <time>2025-05-10T07:46:48Z</time>
      </trkpt>
      <trkpt lat="44.8955" lon="0.86061">
        <ele>114.6</ele>
        <time>2025-05-10T07:46:49Z</time>
      </trkpt>
      <trkpt lat="44.89549" lon="0.86069">
        <ele>114.6</ele>
        <time>2025-05-10T07:46:50Z</time>
      </trkpt>
      <trkpt lat="44.89549" lon="0.86077">
        <ele>114</ele>
        <time>2025-05-10T07:46:51Z</time>
      </trkpt>
      <trkpt lat="44.8955" lon="0.86086">
        <ele>113.4</ele>
        <time>2025-05-10T07:46:52Z</time>
      </trkpt>
      <trkpt lat="44.8955" lon="0.86095">
        <ele>112.6</ele>
        <time>2025-05-10T07:46:53Z</time>
      </trkpt>
      <trkpt lat="44.8955" lon="0.86105">
        <ele>111.4</ele>
        <time>2025-05-10T07:46:54Z</time>
      </trkpt>
      <trkpt lat="44.89549" lon="0.86115">
        <ele>110.2</ele>
        <time>2025-05-10T07:46:55Z</time>
      </trkpt>
      <trkpt lat="44.89548" lon="0.86126">
        <ele>109</ele>
        <time>2025-05-10T07:46:56Z</time>
      </trkpt>
      <trkpt lat="44.89547" lon="0.86137">
        <ele>107.8</ele>
        <time>2025-05-10T07:46:57Z</time>
      </trkpt>
      <trkpt lat="44.89546" lon="0.86146">
        <ele>106.2</ele>
        <time>2025-05-10T07:46:58Z</time>
      </trkpt>
      <trkpt lat="44.89546" lon="0.86156">
        <ele>103.8</ele>
        <time>2025-05-10T07:46:59Z</time>
      </trkpt>
      <trkpt lat="44.89544" lon="0.86164">
        <ele>102</ele>
        <time>2025-05-10T07:47:00Z</time>
      </trkpt>
      <trkpt lat="44.89544" lon="0.8617">
        <ele>100</ele>
        <time>2025-05-10T07:47:01Z</time>
      </trkpt>
      <trkpt lat="44.89544" lon="0.86177">
        <ele>98.4</ele>
        <time>2025-05-10T07:47:02Z</time>
      </trkpt>
      <trkpt lat="44.89544" lon="0.86183">
        <ele>97.8</ele>
        <time>2025-05-10T07:47:03Z</time>
      </trkpt>
      <trkpt lat="44.89543" lon="0.86188">
        <ele>97.2</ele>
        <time>2025-05-10T07:47:04Z</time>
      </trkpt>
      <trkpt lat="44.89543" lon="0.86193">
        <ele>96.8</ele>
        <time>2025-05-10T07:47:05Z</time>
      </trkpt>
      <trkpt lat="44.89543" lon="0.862">
        <ele>95.8</ele>
        <time>2025-05-10T07:47:06Z</time>
      </trkpt>
      <trkpt lat="44.89543" lon="0.86207">
        <ele>95.4</ele>
        <time>2025-05-10T07:47:07Z</time>
      </trkpt>
      <trkpt lat="44.89542" lon="0.86215">
        <ele>94.8</ele>
        <time>2025-05-10T07:47:08Z</time>
      </trkpt>
      <trkpt lat="44.89541" lon="0.86223">
        <ele>94.2</ele>
        <time>2025-05-10T07:47:09Z</time>
      </trkpt>
      <trkpt lat="44.89541" lon="0.86233">
        <ele>93.2</ele>
        <time>2025-05-10T07:47:10Z</time>
      </trkpt>
      <trkpt lat="44.8954" lon="0.86242">
        <ele>92</ele>
        <time>2025-05-10T07:47:11Z</time>
      </trkpt>
      <trkpt lat="44.8954" lon="0.8625">
        <ele>90.6</ele>
        <time>2025-05-10T07:47:12Z</time>
      </trkpt>
      <trkpt lat="44.8954" lon="0.86257">
        <ele>89.2</ele>
        <time>2025-05-10T07:47:13Z</time>
      </trkpt>
      <trkpt lat="44.8954" lon="0.86264">
        <ele>87.6</ele>
        <time>2025-05-10T07:47:14Z</time>
      </trkpt>
      <trkpt lat="44.89541" lon="0.86271">
        <ele>87</ele>
        <time>2025-05-10T07:47:15Z</time>
      </trkpt>
      <trkpt lat="44.8954" lon="0.86277">
        <ele>85.8</ele>
        <time>2025-05-10T07:47:16Z</time>
      </trkpt>
      <trkpt lat="44.8954" lon="0.86284">
        <ele>85.4</ele>
        <time>2025-05-10T07:47:17Z</time>
      </trkpt>
      <trkpt lat="44.8954" lon="0.8629">
        <ele>84.2</ele>
        <time>2025-05-10T07:47:18Z</time>
      </trkpt>
      <trkpt lat="44.8954" lon="0.86295">
        <ele>83.4</ele>
        <time>2025-05-10T07:47:19Z</time>
      </trkpt>
      <trkpt lat="44.89539" lon="0.86301">
        <ele>82.2</ele>
        <time>2025-05-10T07:47:20Z</time>
      </trkpt>
      <trkpt lat="44.89539" lon="0.86306">
        <ele>81.8</ele>
        <time>2025-05-10T07:47:21Z</time>
      </trkpt>
      <trkpt lat="44.89539" lon="0.8631">
        <ele>81.2</ele>
        <time>2025-05-10T07:47:22Z</time>
      </trkpt>
      <trkpt lat="44.8954" lon="0.86313">
        <ele>80.2</ele>
        <time>2025-05-10T07:47:23Z</time>
      </trkpt>
      <trkpt lat="44.89542" lon="0.86313">
        <ele>79.6</ele>
        <time>2025-05-10T07:47:24Z</time>
      </trkpt>
      <trkpt lat="44.89543" lon="0.86311">
        <ele>79.4</ele>
        <time>2025-05-10T07:47:25Z</time>
      </trkpt>
      <trkpt lat="44.89545" lon="0.86308">
        <ele>79.2</ele>
        <time>2025-05-10T07:47:26Z</time>
      </trkpt>
      <trkpt lat="44.89546" lon="0.86304">
        <ele>78.8</ele>
        <time>2025-05-10T07:47:27Z</time>
      </trkpt>
      <trkpt lat="44.89548" lon="0.863">
        <ele>78.2</ele>
        <time>2025-05-10T07:47:28Z</time>
      </trkpt>
      <trkpt lat="44.8955" lon="0.86296">
        <ele>77.8</ele>
        <time>2025-05-10T07:47:29Z</time>
      </trkpt>
      <trkpt lat="44.89553" lon="0.86291">
        <ele>77.4</ele>
        <time>2025-05-10T07:47:30Z</time>
      </trkpt>
      <trkpt lat="44.89557" lon="0.86286">
        <ele>77</ele>
        <time>2025-05-10T07:47:31Z</time>
      </trkpt>
      <trkpt lat="44.89561" lon="0.86282">
        <ele>76.4</ele>
        <time>2025-05-10T07:47:32Z</time>
      </trkpt>
      <trkpt lat="44.89566" lon="0.86279">
        <ele>76</ele>
        <time>2025-05-10T07:47:33Z</time>
      </trkpt>
      <trkpt lat="44.89571" lon="0.86278">
        <ele>75.6</ele>
        <time>2025-05-10T07:47:34Z</time>
      </trkpt>
      <trkpt lat="44.89576" lon="0.86278">
        <ele>75</ele>
        <time>2025-05-10T07:47:35Z</time>
      </trkpt>
      <trkpt lat="44.89581" lon="0.86278">
        <ele>74.6</ele>
        <time>2025-05-10T07:47:36Z</time>
      </trkpt>
      <trkpt lat="44.89586" lon="0.86277">
        <ele>74</ele>
        <time>2025-05-10T07:47:37Z</time>
      </trkpt>
      <trkpt lat="44.8959" lon="0.86277">
        <ele>74</ele>
        <time>2025-05-10T07:47:38Z</time>
      </trkpt>
      <trkpt lat="44.89594" lon="0.86276">
        <ele>74</ele>
        <time>2025-05-10T07:47:39Z</time>
      </trkpt>
      <trkpt lat="44.89598" lon="0.86275">
        <ele>74</ele>
        <time>2025-05-10T07:47:40Z</time>
      </trkpt>
      <trkpt lat="44.89601" lon="0.86274">
        <ele>74.2</ele>
        <time>2025-05-10T07:47:41Z</time>
      </trkpt>
      <trkpt lat="44.89604" lon="0.86274">
        <ele>74.6</ele>
        <time>2025-05-10T07:47:42Z</time>
      </trkpt>
      <trkpt lat="44.89606" lon="0.86273">
        <ele>75</ele>
        <time>2025-05-10T07:47:43Z</time>
      </trkpt>
      <trkpt lat="44.89608" lon="0.86273">
        <ele>75.4</ele>
        <time>2025-05-10T07:47:44Z</time>
      </trkpt>
      <trkpt lat="44.8961" lon="0.86272">
        <ele>75.8</ele>
        <time>2025-05-10T07:47:45Z</time>
      </trkpt>
      <trkpt lat="44.89613" lon="0.86272">
        <ele>76.2</ele>
        <time>2025-05-10T07:47:46Z</time>
      </trkpt>
      <trkpt lat="44.89615" lon="0.86271">
        <ele>76.4</ele>
        <time>2025-05-10T07:47:47Z</time>
      </trkpt>
      <trkpt lat="44.89617" lon="0.86271">
        <ele>76.6</ele>
        <time>2025-05-10T07:47:48Z</time>
      </trkpt>
      <trkpt lat="44.89619" lon="0.86271">
        <ele>76.8</ele>
        <time>2025-05-10T07:47:49Z</time>
      </trkpt>
      <trkpt lat="44.8962" lon="0.86271">
        <ele>77.2</ele>
        <time>2025-05-10T07:47:50Z</time>
      </trkpt>
      <trkpt lat="44.89622" lon="0.86272">
        <ele>77.6</ele>
        <time>2025-05-10T07:47:51Z</time>
      </trkpt>
      <trkpt lat="44.89624" lon="0.86272">
        <ele>77.8</ele>
        <time>2025-05-10T07:47:52Z</time>
      </trkpt>
      <trkpt lat="44.89626" lon="0.86272">
        <ele>78</ele>
        <time>2025-05-10T07:47:53Z</time>
      </trkpt>
      <trkpt lat="44.89627" lon="0.86273">
        <ele>78.4</ele>
        <time>2025-05-10T07:47:54Z</time>
      </trkpt>
      <trkpt lat="44.89628" lon="0.86274">
        <ele>78.8</ele>
        <time>2025-05-10T07:47:55Z</time>
      </trkpt>
      <trkpt lat="44.89629" lon="0.86277">
        <ele>79</ele>
        <time>2025-05-10T07:47:56Z</time>
      </trkpt>
      <trkpt lat="44.89628" lon="0.8628">
        <ele>79.4</ele>
        <time>2025-05-10T07:47:57Z</time>
      </trkpt>
      <trkpt lat="44.89628" lon="0.86284">
        <ele>79.8</ele>
        <time>2025-05-10T07:47:58Z</time>
      </trkpt>
      <trkpt lat="44.89626" lon="0.86288">
        <ele>79.8</ele>
        <time>2025-05-10T07:47:59Z</time>
      </trkpt>
      <trkpt lat="44.89624" lon="0.86292">
        <ele>79.8</ele>
        <time>2025-05-10T07:48:00Z</time>
      </trkpt>
      <trkpt lat="44.89623" lon="0.86297">
        <ele>79.8</ele>
        <time>2025-05-10T07:48:01Z</time>
      </trkpt>
      <trkpt lat="44.89621" lon="0.86303">
        <ele>79.6</ele>
        <time>2025-05-10T07:48:02Z</time>
      </trkpt>
      <trkpt lat="44.8962" lon="0.86308">
        <ele>79.4</ele>
        <time>2025-05-10T07:48:03Z</time>
      </trkpt>
      <trkpt lat="44.89618" lon="0.86315">
        <ele>79</ele>
        <time>2025-05-10T07:48:04Z</time>
      </trkpt>
      <trkpt lat="44.89617" lon="0.86321">
        <ele>78.6</ele>
        <time>2025-05-10T07:48:05Z</time>
      </trkpt>
      <trkpt lat="44.89616" lon="0.86327">
        <ele>78.2</ele>
        <time>2025-05-10T07:48:06Z</time>
      </trkpt>
      <trkpt lat="44.89615" lon="0.86334">
        <ele>77.8</ele>
        <time>2025-05-10T07:48:07Z</time>
      </trkpt>
      <trkpt lat="44.89614" lon="0.86341">
        <ele>77.2</ele>
        <time>2025-05-10T07:48:08Z</time>
      </trkpt>
      <trkpt lat="44.89613" lon="0.86348">
        <ele>77</ele>
        <time>2025-05-10T07:48:09Z</time>
      </trkpt>
      <trkpt lat="44.89612" lon="0.86356">
        <ele>76.8</ele>
        <time>2025-05-10T07:48:10Z</time>
      </trkpt>
      <trkpt lat="44.89612" lon="0.86363">
        <ele>76.6</ele>
        <time>2025-05-10T07:48:11Z</time>
      </trkpt>
      <trkpt lat="44.89612" lon="0.86371">
        <ele>76</ele>
        <time>2025-05-10T07:48:12Z</time>
      </trkpt>
      <trkpt lat="44.89612" lon="0.86379">
        <ele>75.8</ele>
        <time>2025-05-10T07:48:13Z</time>
      </trkpt>
      <trkpt lat="44.89613" lon="0.86387">
        <ele>75.8</ele>
        <time>2025-05-10T07:48:14Z</time>
      </trkpt>
      <trkpt lat="44.89613" lon="0.86394">
        <ele>75.6</ele>
        <time>2025-05-10T07:48:15Z</time>
      </trkpt>
      <trkpt lat="44.89614" lon="0.86402">
        <ele>75.6</ele>
        <time>2025-05-10T07:48:16Z</time>
      </trkpt>
      <trkpt lat="44.89615" lon="0.8641">
        <ele>75.6</ele>
        <time>2025-05-10T07:48:17Z</time>
      </trkpt>
      <trkpt lat="44.89617" lon="0.86417">
        <ele>75.6</ele>
        <time>2025-05-10T07:48:18Z</time>
      </trkpt>
      <trkpt lat="44.89619" lon="0.86425">
        <ele>75.6</ele>
        <time>2025-05-10T07:48:19Z</time>
      </trkpt>
      <trkpt lat="44.89621" lon="0.86433">
        <ele>75.6</ele>
        <time>2025-05-10T07:48:20Z</time>
      </trkpt>
      <trkpt lat="44.89623" lon="0.86441">
        <ele>75.6</ele>
        <time>2025-05-10T07:48:21Z</time>
      </trkpt>
      <trkpt lat="44.89625" lon="0.86449">
        <ele>75.6</ele>
        <time>2025-05-10T07:48:22Z</time>
      </trkpt>
      <trkpt lat="44.89627" lon="0.86457">
        <ele>75.6</ele>
        <time>2025-05-10T07:48:23Z</time>
      </trkpt>
      <trkpt lat="44.89629" lon="0.86465">
        <ele>75.4</ele>
        <time>2025-05-10T07:48:24Z</time>
      </trkpt>
      <trkpt lat="44.89632" lon="0.86473">
        <ele>75</ele>
        <time>2025-05-10T07:48:25Z</time>
      </trkpt>
      <trkpt lat="44.89634" lon="0.86481">
        <ele>74.8</ele>
        <time>2025-05-10T07:48:26Z</time>
      </trkpt>
      <trkpt lat="44.89636" lon="0.86488">
        <ele>74.6</ele>
        <time>2025-05-10T07:48:27Z</time>
      </trkpt>
      <trkpt lat="44.89638" lon="0.86496">
        <ele>74.2</ele>
        <time>2025-05-10T07:48:28Z</time>
      </trkpt>
      <trkpt lat="44.89641" lon="0.86503">
        <ele>74</ele>
        <time>2025-05-10T07:48:29Z</time>
      </trkpt>
      <trkpt lat="44.89643" lon="0.86512">
        <ele>74</ele>
        <time>2025-05-10T07:48:30Z</time>
      </trkpt>
      <trkpt lat="44.89645" lon="0.8652">
        <ele>74</ele>
        <time>2025-05-10T07:48:31Z</time>
      </trkpt>
      <trkpt lat="44.89646" lon="0.86528">
        <ele>73.8</ele>
        <time>2025-05-10T07:48:32Z</time>
      </trkpt>
      <trkpt lat="44.89648" lon="0.86538">
        <ele>73.8</ele>
        <time>2025-05-10T07:48:33Z</time>
      </trkpt>
      <trkpt lat="44.89648" lon="0.86547">
        <ele>73.8</ele>
        <time>2025-05-10T07:48:34Z</time>
      </trkpt>
      <trkpt lat="44.89648" lon="0.86555">
        <ele>73.8</ele>
        <time>2025-05-10T07:48:35Z</time>
      </trkpt>
      <trkpt lat="44.89647" lon="0.86564">
        <ele>73.6</ele>
        <time>2025-05-10T07:48:36Z</time>
      </trkpt>
      <trkpt lat="44.89645" lon="0.86572">
        <ele>73.6</ele>
        <time>2025-05-10T07:48:37Z</time>
      </trkpt>
      <trkpt lat="44.89643" lon="0.8658">
        <ele>73.6</ele>
        <time>2025-05-10T07:48:38Z</time>
      </trkpt>
      <trkpt lat="44.89641" lon="0.86588">
        <ele>73.6</ele>
        <time>2025-05-10T07:48:39Z</time>
      </trkpt>
      <trkpt lat="44.8964" lon="0.86596">
        <ele>73.6</ele>
        <time>2025-05-10T07:48:40Z</time>
      </trkpt>
      <trkpt lat="44.8964" lon="0.86605">
        <ele>73.6</ele>
        <time>2025-05-10T07:48:41Z</time>
      </trkpt>
      <trkpt lat="44.89639" lon="0.86612">
        <ele>73.6</ele>
        <time>2025-05-10T07:48:42Z</time>
      </trkpt>
      <trkpt lat="44.89637" lon="0.86618">
        <ele>73.8</ele>
        <time>2025-05-10T07:48:43Z</time>
      </trkpt>
      <trkpt lat="44.89634" lon="0.86622">
        <ele>74.2</ele>
        <time>2025-05-10T07:48:44Z</time>
      </trkpt>
      <trkpt lat="44.89632" lon="0.86624">
        <ele>74.4</ele>
        <time>2025-05-10T07:48:45Z</time>
      </trkpt>
      <trkpt lat="44.8963" lon="0.86626">
        <ele>74.8</ele>
        <time>2025-05-10T07:48:46Z</time>
      </trkpt>
      <trkpt lat="44.89627" lon="0.86627">
        <ele>75.4</ele>
        <time>2025-05-10T07:48:47Z</time>
      </trkpt>
      <trkpt lat="44.89626" lon="0.86628">
        <ele>76</ele>
        <time>2025-05-10T07:48:48Z</time>
      </trkpt>
      <trkpt lat="44.89624" lon="0.8663">
        <ele>76.6</ele>
        <time>2025-05-10T07:48:49Z</time>
      </trkpt>
      <trkpt lat="44.89622" lon="0.86631">
        <ele>76.8</ele>
        <time>2025-05-10T07:48:50Z</time>
      </trkpt>
      <trkpt lat="44.8962" lon="0.86632">
        <ele>77.2</ele>
        <time>2025-05-10T07:48:51Z</time>
      </trkpt>
      <trkpt lat="44.89619" lon="0.86633">
        <ele>77.6</ele>
        <time>2025-05-10T07:48:52Z</time>
      </trkpt>
      <trkpt lat="44.89617" lon="0.86634">
        <ele>78</ele>
        <time>2025-05-10T07:48:53Z</time>
      </trkpt>
      <trkpt lat="44.89616" lon="0.86635">
        <ele>78.2</ele>
        <time>2025-05-10T07:48:54Z</time>
      </trkpt>
      <trkpt lat="44.89614" lon="0.86636">
        <ele>78.6</ele>
        <time>2025-05-10T07:48:55Z</time>
      </trkpt>
      <trkpt lat="44.89612" lon="0.86637">
        <ele>78.8</ele>
        <time>2025-05-10T07:48:56Z</time>
      </trkpt>
      <trkpt lat="44.8961" lon="0.86638">
        <ele>79.2</ele>
        <time>2025-05-10T07:48:57Z</time>
      </trkpt>
      <trkpt lat="44.89609" lon="0.86639">
        <ele>79.4</ele>
        <time>2025-05-10T07:48:58Z</time>
      </trkpt>
      <trkpt lat="44.89607" lon="0.8664">
        <ele>79.6</ele>
        <time>2025-05-10T07:48:59Z</time>
      </trkpt>
      <trkpt lat="44.89605" lon="0.86642">
        <ele>80</ele>
        <time>2025-05-10T07:49:00Z</time>
      </trkpt>
      <trkpt lat="44.89604" lon="0.86643">
        <ele>80.2</ele>
        <time>2025-05-10T07:49:01Z</time>
      </trkpt>
      <trkpt lat="44.89602" lon="0.86644">
        <ele>80.4</ele>
        <time>2025-05-10T07:49:02Z</time>
      </trkpt>
      <trkpt lat="44.89601" lon="0.86646">
        <ele>80.6</ele>
        <time>2025-05-10T07:49:03Z</time>
      </trkpt>
      <trkpt lat="44.89599" lon="0.86647">
        <ele>80.8</ele>
        <time>2025-05-10T07:49:04Z</time>
      </trkpt>
      <trkpt lat="44.89597" lon="0.86648">
        <ele>81</ele>
        <time>2025-05-10T07:49:05Z</time>
      </trkpt>
      <trkpt lat="44.89596" lon="0.8665">
        <ele>81.2</ele>
        <time>2025-05-10T07:49:06Z</time>
      </trkpt>
      <trkpt lat="44.89595" lon="0.86651">
        <ele>81.4</ele>
        <time>2025-05-10T07:49:07Z</time>
      </trkpt>
      <trkpt lat="44.89593" lon="0.86652">
        <ele>81.8</ele>
        <time>2025-05-10T07:49:08Z</time>
      </trkpt>
      <trkpt lat="44.89591" lon="0.86653">
        <ele>81.8</ele>
        <time>2025-05-10T07:49:09Z</time>
      </trkpt>
      <trkpt lat="44.8959" lon="0.86654">
        <ele>82.2</ele>
        <time>2025-05-10T07:49:10Z</time>
      </trkpt>
      <trkpt lat="44.89589" lon="0.86655">
        <ele>82.4</ele>
        <time>2025-05-10T07:49:11Z</time>
      </trkpt>
      <trkpt lat="44.89588" lon="0.86656">
        <ele>82.6</ele>
        <time>2025-05-10T07:49:12Z</time>
      </trkpt>
      <trkpt lat="44.89587" lon="0.86656">
        <ele>82.8</ele>
        <time>2025-05-10T07:49:13Z</time>
      </trkpt>
      <trkpt lat="44.89585" lon="0.86657">
        <ele>83</ele>
        <time>2025-05-10T07:49:14Z</time>
      </trkpt>
      <trkpt lat="44.89584" lon="0.86658">
        <ele>83.2</ele>
        <time>2025-05-10T07:49:15Z</time>
      </trkpt>
      <trkpt lat="44.89583" lon="0.86659">
        <ele>83.4</ele>
        <time>2025-05-10T07:49:16Z</time>
      </trkpt>
      <trkpt lat="44.89582" lon="0.8666">
        <ele>83.6</ele>
        <time>2025-05-10T07:49:17Z</time>
      </trkpt>
      <trkpt lat="44.89581" lon="0.8666">
        <ele>83.8</ele>
        <time>2025-05-10T07:49:18Z</time>
      </trkpt>
      <trkpt lat="44.8958" lon="0.86661">
        <ele>84</ele>
        <time>2025-05-10T07:49:19Z</time>
      </trkpt>
      <trkpt lat="44.89578" lon="0.86662">
        <ele>84.2</ele>
        <time>2025-05-10T07:49:20Z</time>
      </trkpt>
      <trkpt lat="44.89577" lon="0.86663">
        <ele>84.4</ele>
        <time>2025-05-10T07:49:21Z</time>
      </trkpt>
      <trkpt lat="44.89576" lon="0.86664">
        <ele>84.6</ele>
        <time>2025-05-10T07:49:22Z</time>
      </trkpt>
      <trkpt lat="44.89575" lon="0.86665">
        <ele>84.8</ele>
        <time>2025-05-10T07:49:23Z</time>
      </trkpt>
      <trkpt lat="44.89573" lon="0.86666">
        <ele>85</ele>
        <time>2025-05-10T07:49:24Z</time>
      </trkpt>
      <trkpt lat="44.89572" lon="0.86667">
        <ele>85.2</ele>
        <time>2025-05-10T07:49:25Z</time>
      </trkpt>
      <trkpt lat="44.89571" lon="0.86668">
        <ele>85.2</ele>
        <time>2025-05-10T07:49:26Z</time>
      </trkpt>
      <trkpt lat="44.8957" lon="0.86669">
        <ele>85.6</ele>
        <time>2025-05-10T07:49:27Z</time>
      </trkpt>
      <trkpt lat="44.89568" lon="0.8667">
        <ele>85.8</ele>
        <time>2025-05-10T07:49:28Z</time>
      </trkpt>
      <trkpt lat="44.89568" lon="0.86671">
        <ele>86</ele>
        <time>2025-05-10T07:49:29Z</time>
      </trkpt>
      <trkpt lat="44.89567" lon="0.86671">
        <ele>86.2</ele>
        <time>2025-05-10T07:49:30Z</time>
      </trkpt>
      <trkpt lat="44.89566" lon="0.86672">
        <ele>86.4</ele>
        <time>2025-05-10T07:49:31Z</time>
      </trkpt>
      <trkpt lat="44.89565" lon="0.86673">
        <ele>86.6</ele>
        <time>2025-05-10T07:49:32Z</time>
      </trkpt>
      <trkpt lat="44.89563" lon="0.86674">
        <ele>86.8</ele>
        <time>2025-05-10T07:49:33Z</time>
      </trkpt>
      <trkpt lat="44.89562" lon="0.86675">
        <ele>87.2</ele>
        <time>2025-05-10T07:49:34Z</time>
      </trkpt>
      <trkpt lat="44.89561" lon="0.86677">
        <ele>87.2</ele>
        <time>2025-05-10T07:49:35Z</time>
      </trkpt>
      <trkpt lat="44.8956" lon="0.86678">
        <ele>87.4</ele>
        <time>2025-05-10T07:49:36Z</time>
      </trkpt>
      <trkpt lat="44.89559" lon="0.86679">
        <ele>87.6</ele>
        <time>2025-05-10T07:49:37Z</time>
      </trkpt>
      <trkpt lat="44.89558" lon="0.8668">
        <ele>87.8</ele>
        <time>2025-05-10T07:49:38Z</time>
      </trkpt>
      <trkpt lat="44.89556" lon="0.8668">
        <ele>88</ele>
        <time>2025-05-10T07:49:39Z</time>
      </trkpt>
      <trkpt lat="44.89555" lon="0.86681">
        <ele>88.2</ele>
        <time>2025-05-10T07:49:40Z</time>
      </trkpt>
      <trkpt lat="44.89553" lon="0.86682">
        <ele>88.4</ele>
        <time>2025-05-10T07:49:41Z</time>
      </trkpt>
      <trkpt lat="44.89552" lon="0.86683">
        <ele>88.6</ele>
        <time>2025-05-10T07:49:42Z</time>
      </trkpt>
      <trkpt lat="44.89551" lon="0.86684">
        <ele>88.8</ele>
        <time>2025-05-10T07:49:43Z</time>
      </trkpt>
      <trkpt lat="44.8955" lon="0.86684">
        <ele>89</ele>
        <time>2025-05-10T07:49:44Z</time>
      </trkpt>
      <trkpt lat="44.89548" lon="0.86685">
        <ele>89.2</ele>
        <time>2025-05-10T07:49:45Z</time>
      </trkpt>
      <trkpt lat="44.89547" lon="0.86686">
        <ele>89.4</ele>
        <time>2025-05-10T07:49:46Z</time>
      </trkpt>
      <trkpt lat="44.89546" lon="0.86686">
        <ele>89.6</ele>
        <time>2025-05-10T07:49:47Z</time>
      </trkpt>
      <trkpt lat="44.89544" lon="0.86687">
        <ele>89.8</ele>
        <time>2025-05-10T07:49:48Z</time>
      </trkpt>
      <trkpt lat="44.89543" lon="0.86688">
        <ele>90</ele>
        <time>2025-05-10T07:49:49Z</time>
      </trkpt>
      <trkpt lat="44.89542" lon="0.86689">
        <ele>90.2</ele>
        <time>2025-05-10T07:49:50Z</time>
      </trkpt>
      <trkpt lat="44.89541" lon="0.8669">
        <ele>90.4</ele>
        <time>2025-05-10T07:49:51Z</time>
      </trkpt>
      <trkpt lat="44.8954" lon="0.8669">
        <ele>90.4</ele>
        <time>2025-05-10T07:49:52Z</time>
      </trkpt>
      <trkpt lat="44.89539" lon="0.86691">
        <ele>90.6</ele>
        <time>2025-05-10T07:49:53Z</time>
      </trkpt>
      <trkpt lat="44.89538" lon="0.86692">
        <ele>90.8</ele>
        <time>2025-05-10T07:49:54Z</time>
      </trkpt>
      <trkpt lat="44.89536" lon="0.86693">
        <ele>91</ele>
        <time>2025-05-10T07:49:55Z</time>
      </trkpt>
      <trkpt lat="44.89535" lon="0.86694">
        <ele>91.2</ele>
        <time>2025-05-10T07:49:56Z</time>
      </trkpt>
      <trkpt lat="44.89535" lon="0.86694">
        <ele>91.2</ele>
        <time>2025-05-10T07:49:57Z</time>
      </trkpt>
      <trkpt lat="44.89534" lon="0.86696">
        <ele>91.6</ele>
        <time>2025-05-10T07:49:58Z</time>
      </trkpt>
      <trkpt lat="44.89532" lon="0.86696">
        <ele>91.8</ele>
        <time>2025-05-10T07:49:59Z</time>
      </trkpt>
      <trkpt lat="44.89531" lon="0.86697">
        <ele>92</ele>
        <time>2025-05-10T07:50:00Z</time>
      </trkpt>
      <trkpt lat="44.8953" lon="0.86698">
        <ele>92</ele>
        <time>2025-05-10T07:50:01Z</time>
      </trkpt>
      <trkpt lat="44.89529" lon="0.86699">
        <ele>92.4</ele>
        <time>2025-05-10T07:50:02Z</time>
      </trkpt>
      <trkpt lat="44.89528" lon="0.86699">
        <ele>92.4</ele>
        <time>2025-05-10T07:50:03Z</time>
      </trkpt>
      <trkpt lat="44.89527" lon="0.86699">
        <ele>92.6</ele>
        <time>2025-05-10T07:50:04Z</time>
      </trkpt>
      <trkpt lat="44.89525" lon="0.867">
        <ele>92.8</ele>
        <time>2025-05-10T07:50:05Z</time>
      </trkpt>
      <trkpt lat="44.89524" lon="0.86701">
        <ele>92.8</ele>
        <time>2025-05-10T07:50:06Z</time>
      </trkpt>
      <trkpt lat="44.89523" lon="0.86702">
        <ele>93</ele>
        <time>2025-05-10T07:50:07Z</time>
      </trkpt>
      <trkpt lat="44.89522" lon="0.86703">
        <ele>93.2</ele>
        <time>2025-05-10T07:50:08Z</time>
      </trkpt>
      <trkpt lat="44.89521" lon="0.86703">
        <ele>93.2</ele>
        <time>2025-05-10T07:50:09Z</time>
      </trkpt>
      <trkpt lat="44.89519" lon="0.86705">
        <ele>93.4</ele>
        <time>2025-05-10T07:50:10Z</time>
      </trkpt>
      <trkpt lat="44.89518" lon="0.86706">
        <ele>93.6</ele>
        <time>2025-05-10T07:50:11Z</time>
      </trkpt>
      <trkpt lat="44.89518" lon="0.86707">
        <ele>94</ele>
        <time>2025-05-10T07:50:12Z</time>
      </trkpt>
      <trkpt lat="44.89516" lon="0.86708">
        <ele>94.2</ele>
        <time>2025-05-10T07:50:13Z</time>
      </trkpt>
      <trkpt lat="44.89515" lon="0.86709">
        <ele>94.4</ele>
        <time>2025-05-10T07:50:14Z</time>
      </trkpt>
      <trkpt lat="44.89513" lon="0.86709">
        <ele>94.6</ele>
        <time>2025-05-10T07:50:15Z</time>
      </trkpt>
      <trkpt lat="44.89512" lon="0.86709">
        <ele>94.8</ele>
        <time>2025-05-10T07:50:16Z</time>
      </trkpt>
      <trkpt lat="44.89511" lon="0.86709">
        <ele>95</ele>
        <time>2025-05-10T07:50:17Z</time>
      </trkpt>
      <trkpt lat="44.8951" lon="0.86709">
        <ele>95.2</ele>
        <time>2025-05-10T07:50:18Z</time>
      </trkpt>
      <trkpt lat="44.89509" lon="0.8671">
        <ele>95.2</ele>
        <time>2025-05-10T07:50:19Z</time>
      </trkpt>
      <trkpt lat="44.89508" lon="0.86711">
        <ele>95.4</ele>
        <time>2025-05-10T07:50:20Z</time>
      </trkpt>
      <trkpt lat="44.89506" lon="0.86712">
        <ele>95.6</ele>
        <time>2025-05-10T07:50:21Z</time>
      </trkpt>
      <trkpt lat="44.89505" lon="0.86713">
        <ele>95.8</ele>
        <time>2025-05-10T07:50:22Z</time>
      </trkpt>
      <trkpt lat="44.89504" lon="0.86714">
        <ele>96</ele>
        <time>2025-05-10T07:50:23Z</time>
      </trkpt>
      <trkpt lat="44.89502" lon="0.86715">
        <ele>96.2</ele>
        <time>2025-05-10T07:50:24Z</time>
      </trkpt>
      <trkpt lat="44.89501" lon="0.86715">
        <ele>96.4</ele>
        <time>2025-05-10T07:50:25Z</time>
      </trkpt>
      <trkpt lat="44.895" lon="0.86716">
        <ele>96.6</ele>
        <time>2025-05-10T07:50:26Z</time>
      </trkpt>
      <trkpt lat="44.89499" lon="0.86718">
        <ele>96.8</ele>
        <time>2025-05-10T07:50:27Z</time>
      </trkpt>
      <trkpt lat="44.89498" lon="0.86718">
        <ele>97</ele>
        <time>2025-05-10T07:50:28Z</time>
      </trkpt>
      <trkpt lat="44.89497" lon="0.86719">
        <ele>97</ele>
        <time>2025-05-10T07:50:29Z</time>
      </trkpt>
      <trkpt lat="44.89496" lon="0.8672">
        <ele>97.2</ele>
        <time>2025-05-10T07:50:30Z</time>
      </trkpt>
      <trkpt lat="44.89495" lon="0.86721">
        <ele>97.6</ele>
        <time>2025-05-10T07:50:31Z</time>
      </trkpt>
      <trkpt lat="44.89494" lon="0.86722">
        <ele>97.8</ele>
        <time>2025-05-10T07:50:32Z</time>
      </trkpt>
      <trkpt lat="44.89493" lon="0.86723">
        <ele>98</ele>
        <time>2025-05-10T07:50:33Z</time>
      </trkpt>
      <trkpt lat="44.89492" lon="0.86723">
        <ele>98.2</ele>
        <time>2025-05-10T07:50:34Z</time>
      </trkpt>
      <trkpt lat="44.89491" lon="0.86724">
        <ele>98.2</ele>
        <time>2025-05-10T07:50:35Z</time>
      </trkpt>
      <trkpt lat="44.8949" lon="0.86726">
        <ele>98.6</ele>
        <time>2025-05-10T07:50:36Z</time>
      </trkpt>
      <trkpt lat="44.89488" lon="0.86726">
        <ele>98.6</ele>
        <time>2025-05-10T07:50:37Z</time>
      </trkpt>
      <trkpt lat="44.89487" lon="0.86727">
        <ele>98.8</ele>
        <time>2025-05-10T07:50:38Z</time>
      </trkpt>
      <trkpt lat="44.89486" lon="0.86728">
        <ele>99</ele>
        <time>2025-05-10T07:50:39Z</time>
      </trkpt>
      <trkpt lat="44.89485" lon="0.86729">
        <ele>99.2</ele>
        <time>2025-05-10T07:50:40Z</time>
      </trkpt>
      <trkpt lat="44.89484" lon="0.8673">
        <ele>99.4</ele>
        <time>2025-05-10T07:50:41Z</time>
      </trkpt>
      <trkpt lat="44.89483" lon="0.86731">
        <ele>99.6</ele>
        <time>2025-05-10T07:50:42Z</time>
      </trkpt>
      <trkpt lat="44.89482" lon="0.86731">
        <ele>99.8</ele>
        <time>2025-05-10T07:50:43Z</time>
      </trkpt>
      <trkpt lat="44.89481" lon="0.86732">
        <ele>100</ele>
        <time>2025-05-10T07:50:44Z</time>
      </trkpt>
      <trkpt lat="44.89479" lon="0.86733">
        <ele>100.2</ele>
        <time>2025-05-10T07:50:45Z</time>
      </trkpt>
      <trkpt lat="44.89478" lon="0.86734">
        <ele>100.4</ele>
        <time>2025-05-10T07:50:46Z</time>
      </trkpt>
      <trkpt lat="44.89477" lon="0.86735">
        <ele>100.6</ele>
        <time>2025-05-10T07:50:47Z</time>
      </trkpt>
      <trkpt lat="44.89476" lon="0.86736">
        <ele>100.8</ele>
        <time>2025-05-10T07:50:48Z</time>
      </trkpt>
      <trkpt lat="44.89474" lon="0.86737">
        <ele>101.2</ele>
        <time>2025-05-10T07:50:49Z</time>
      </trkpt>
      <trkpt lat="44.89473" lon="0.86738">
        <ele>101.2</ele>
        <time>2025-05-10T07:50:50Z</time>
      </trkpt>
      <trkpt lat="44.89472" lon="0.86739">
        <ele>101.4</ele>
        <time>2025-05-10T07:50:51Z</time>
      </trkpt>
      <trkpt lat="44.89471" lon="0.8674">
        <ele>101.6</ele>
        <time>2025-05-10T07:50:52Z</time>
      </trkpt>
      <trkpt lat="44.8947" lon="0.8674">
        <ele>101.8</ele>
        <time>2025-05-10T07:50:53Z</time>
      </trkpt>
      <trkpt lat="44.89468" lon="0.86741">
        <ele>102</ele>
        <time>2025-05-10T07:50:54Z</time>
      </trkpt>
      <trkpt lat="44.89467" lon="0.86742">
        <ele>102.2</ele>
        <time>2025-05-10T07:50:55Z</time>
      </trkpt>
      <trkpt lat="44.89466" lon="0.86743">
        <ele>102.2</ele>
        <time>2025-05-10T07:50:56Z</time>
      </trkpt>
      <trkpt lat="44.89465" lon="0.86744">
        <ele>102.4</ele>
        <time>2025-05-10T07:50:57Z</time>
      </trkpt>
      <trkpt lat="44.89464" lon="0.86745">
        <ele>102.6</ele>
        <time>2025-05-10T07:50:58Z</time>
      </trkpt>
      <trkpt lat="44.89462" lon="0.86746">
        <ele>102.8</ele>
        <time>2025-05-10T07:50:59Z</time>
      </trkpt>
      <trkpt lat="44.89461" lon="0.86747">
        <ele>103</ele>
        <time>2025-05-10T07:51:00Z</time>
      </trkpt>
      <trkpt lat="44.89461" lon="0.86748">
        <ele>103.2</ele>
        <time>2025-05-10T07:51:01Z</time>
      </trkpt>
      <trkpt lat="44.8946" lon="0.8675">
        <ele>103.4</ele>
        <time>2025-05-10T07:51:02Z</time>
      </trkpt>
      <trkpt lat="44.89458" lon="0.86751">
        <ele>103.6</ele>
        <time>2025-05-10T07:51:03Z</time>
      </trkpt>
      <trkpt lat="44.89457" lon="0.86752">
        <ele>103.8</ele>
        <time>2025-05-10T07:51:04Z</time>
      </trkpt>
      <trkpt lat="44.89456" lon="0.86753">
        <ele>104</ele>
        <time>2025-05-10T07:51:05Z</time>
      </trkpt>
      <trkpt lat="44.89455" lon="0.86754">
        <ele>104.2</ele>
        <time>2025-05-10T07:51:06Z</time>
      </trkpt>
      <trkpt lat="44.89453" lon="0.86755">
        <ele>104.2</ele>
        <time>2025-05-10T07:51:07Z</time>
      </trkpt>
      <trkpt lat="44.89452" lon="0.86755">
        <ele>104.6</ele>
        <time>2025-05-10T07:51:08Z</time>
      </trkpt>
      <trkpt lat="44.89451" lon="0.86756">
        <ele>104.8</ele>
        <time>2025-05-10T07:51:09Z</time>
      </trkpt>
      <trkpt lat="44.8945" lon="0.86757">
        <ele>104.8</ele>
        <time>2025-05-10T07:51:10Z</time>
      </trkpt>
      <trkpt lat="44.89449" lon="0.86758">
        <ele>105</ele>
        <time>2025-05-10T07:51:11Z</time>
      </trkpt>
      <trkpt lat="44.89447" lon="0.86759">
        <ele>105.2</ele>
        <time>2025-05-10T07:51:12Z</time>
      </trkpt>
      <trkpt lat="44.89446" lon="0.8676">
        <ele>105.4</ele>
        <time>2025-05-10T07:51:13Z</time>
      </trkpt>
      <trkpt lat="44.89445" lon="0.8676">
        <ele>105.6</ele>
        <time>2025-05-10T07:51:14Z</time>
      </trkpt>
      <trkpt lat="44.89443" lon="0.86761">
        <ele>105.8</ele>
        <time>2025-05-10T07:51:15Z</time>
      </trkpt>
      <trkpt lat="44.89442" lon="0.86762">
        <ele>106</ele>
        <time>2025-05-10T07:51:16Z</time>
      </trkpt>
      <trkpt lat="44.89441" lon="0.86762">
        <ele>106</ele>
        <time>2025-05-10T07:51:17Z</time>
      </trkpt>
      <trkpt lat="44.89439" lon="0.86763">
        <ele>106.2</ele>
        <time>2025-05-10T07:51:18Z</time>
      </trkpt>
      <trkpt lat="44.89438" lon="0.86764">
        <ele>106.4</ele>
        <time>2025-05-10T07:51:19Z</time>
      </trkpt>
      <trkpt lat="44.89436" lon="0.86765">
        <ele>106.6</ele>
        <time>2025-05-10T07:51:20Z</time>
      </trkpt>
      <trkpt lat="44.89435" lon="0.86766">
        <ele>106.6</ele>
        <time>2025-05-10T07:51:21Z</time>
      </trkpt>
      <trkpt lat="44.89433" lon="0.86766">
        <ele>106.6</ele>
        <time>2025-05-10T07:51:22Z</time>
      </trkpt>
      <trkpt lat="44.89431" lon="0.86766">
        <ele>106.8</ele>
        <time>2025-05-10T07:51:23Z</time>
      </trkpt>
      <trkpt lat="44.8943" lon="0.86767">
        <ele>106.8</ele>
        <time>2025-05-10T07:51:24Z</time>
      </trkpt>
      <trkpt lat="44.89429" lon="0.86768">
        <ele>106.8</ele>
        <time>2025-05-10T07:51:25Z</time>
      </trkpt>
      <trkpt lat="44.89427" lon="0.86769">
        <ele>107</ele>
        <time>2025-05-10T07:51:26Z</time>
      </trkpt>
      <trkpt lat="44.89425" lon="0.8677">
        <ele>107</ele>
        <time>2025-05-10T07:51:27Z</time>
      </trkpt>
      <trkpt lat="44.89423" lon="0.86771">
        <ele>107</ele>
        <time>2025-05-10T07:51:28Z</time>
      </trkpt>
      <trkpt lat="44.89421" lon="0.86772">
        <ele>107.2</ele>
        <time>2025-05-10T07:51:29Z</time>
      </trkpt>
      <trkpt lat="44.89419" lon="0.86773">
        <ele>107.2</ele>
        <time>2025-05-10T07:51:30Z</time>
      </trkpt>
      <trkpt lat="44.89417" lon="0.86773">
        <ele>107.4</ele>
        <time>2025-05-10T07:51:31Z</time>
      </trkpt>
      <trkpt lat="44.89416" lon="0.86773">
        <ele>107.4</ele>
        <time>2025-05-10T07:51:32Z</time>
      </trkpt>
      <trkpt lat="44.89414" lon="0.86774">
        <ele>107.4</ele>
        <time>2025-05-10T07:51:33Z</time>
      </trkpt>
      <trkpt lat="44.89413" lon="0.86775">
        <ele>107.6</ele>
        <time>2025-05-10T07:51:34Z</time>
      </trkpt>
      <trkpt lat="44.89411" lon="0.86776">
        <ele>107.8</ele>
        <time>2025-05-10T07:51:35Z</time>
      </trkpt>
      <trkpt lat="44.89409" lon="0.86776">
        <ele>107.8</ele>
        <time>2025-05-10T07:51:36Z</time>
      </trkpt>
      <trkpt lat="44.89408" lon="0.86777">
        <ele>108</ele>
        <time>2025-05-10T07:51:37Z</time>
      </trkpt>
      <trkpt lat="44.89406" lon="0.86778">
        <ele>108.2</ele>
        <time>2025-05-10T07:51:38Z</time>
      </trkpt>
      <trkpt lat="44.89404" lon="0.86778">
        <ele>108.2</ele>
        <time>2025-05-10T07:51:39Z</time>
      </trkpt>
      <trkpt lat="44.89403" lon="0.86779">
        <ele>108.2</ele>
        <time>2025-05-10T07:51:40Z</time>
      </trkpt>
      <trkpt lat="44.89401" lon="0.86779">
        <ele>108.4</ele>
        <time>2025-05-10T07:51:41Z</time>
      </trkpt>
      <trkpt lat="44.89399" lon="0.86779">
        <ele>108.4</ele>
        <time>2025-05-10T07:51:42Z</time>
      </trkpt>
      <trkpt lat="44.89397" lon="0.86779">
        <ele>108.4</ele>
        <time>2025-05-10T07:51:43Z</time>
      </trkpt>
      <trkpt lat="44.89396" lon="0.8678">
        <ele>108.6</ele>
        <time>2025-05-10T07:51:44Z</time>
      </trkpt>
      <trkpt lat="44.89394" lon="0.86781">
        <ele>108.6</ele>
        <time>2025-05-10T07:51:45Z</time>
      </trkpt>
      <trkpt lat="44.89393" lon="0.86782">
        <ele>108.8</ele>
        <time>2025-05-10T07:51:46Z</time>
      </trkpt>
      <trkpt lat="44.89391" lon="0.86783">
        <ele>109</ele>
        <time>2025-05-10T07:51:47Z</time>
      </trkpt>
      <trkpt lat="44.8939" lon="0.86784">
        <ele>109</ele>
        <time>2025-05-10T07:51:48Z</time>
      </trkpt>
      <trkpt lat="44.89388" lon="0.86785">
        <ele>109.2</ele>
        <time>2025-05-10T07:51:49Z</time>
      </trkpt>
      <trkpt lat="44.89386" lon="0.86786">
        <ele>109.4</ele>
        <time>2025-05-10T07:51:50Z</time>
      </trkpt>
      <trkpt lat="44.89385" lon="0.86787">
        <ele>109.6</ele>
        <time>2025-05-10T07:51:51Z</time>
      </trkpt>
      <trkpt lat="44.89383" lon="0.86788">
        <ele>109.8</ele>
        <time>2025-05-10T07:51:52Z</time>
      </trkpt>
      <trkpt lat="44.89382" lon="0.86789">
        <ele>110</ele>
        <time>2025-05-10T07:51:53Z</time>
      </trkpt>
      <trkpt lat="44.8938" lon="0.8679">
        <ele>110.2</ele>
        <time>2025-05-10T07:51:54Z</time>
      </trkpt>
      <trkpt lat="44.89379" lon="0.86791">
        <ele>110.4</ele>
        <time>2025-05-10T07:51:55Z</time>
      </trkpt>
      <trkpt lat="44.89377" lon="0.86791">
        <ele>110.6</ele>
        <time>2025-05-10T07:51:56Z</time>
      </trkpt>
      <trkpt lat="44.89376" lon="0.86792">
        <ele>110.6</ele>
        <time>2025-05-10T07:51:57Z</time>
      </trkpt>
      <trkpt lat="44.89374" lon="0.86794">
        <ele>110.8</ele>
        <time>2025-05-10T07:51:58Z</time>
      </trkpt>
      <trkpt lat="44.89372" lon="0.86795">
        <ele>111.2</ele>
        <time>2025-05-10T07:51:59Z</time>
      </trkpt>
      <trkpt lat="44.89371" lon="0.86796">
        <ele>111.2</ele>
        <time>2025-05-10T07:52:00Z</time>
      </trkpt>
      <trkpt lat="44.89369" lon="0.86796">
        <ele>111.6</ele>
        <time>2025-05-10T07:52:01Z</time>
      </trkpt>
      <trkpt lat="44.89368" lon="0.86797">
        <ele>111.6</ele>
        <time>2025-05-10T07:52:02Z</time>
      </trkpt>
      <trkpt lat="44.89366" lon="0.86798">
        <ele>111.8</ele>
        <time>2025-05-10T07:52:03Z</time>
      </trkpt>
      <trkpt lat="44.89364" lon="0.86799">
        <ele>112</ele>
        <time>2025-05-10T07:52:04Z</time>
      </trkpt>
      <trkpt lat="44.89363" lon="0.868">
        <ele>112.2</ele>
        <time>2025-05-10T07:52:05Z</time>
      </trkpt>
      <trkpt lat="44.89361" lon="0.86801">
        <ele>112.4</ele>
        <time>2025-05-10T07:52:06Z</time>
      </trkpt>
      <trkpt lat="44.8936" lon="0.86802">
        <ele>112.6</ele>
        <time>2025-05-10T07:52:07Z</time>
      </trkpt>
      <trkpt lat="44.89358" lon="0.86803">
        <ele>112.8</ele>
        <time>2025-05-10T07:52:08Z</time>
      </trkpt>
      <trkpt lat="44.89357" lon="0.86804">
        <ele>113</ele>
        <time>2025-05-10T07:52:09Z</time>
      </trkpt>
      <trkpt lat="44.89355" lon="0.86805">
        <ele>113.2</ele>
        <time>2025-05-10T07:52:10Z</time>
      </trkpt>
      <trkpt lat="44.89354" lon="0.86806">
        <ele>113.2</ele>
        <time>2025-05-10T07:52:11Z</time>
      </trkpt>
      <trkpt lat="44.89352" lon="0.86807">
        <ele>113.6</ele>
        <time>2025-05-10T07:52:12Z</time>
      </trkpt>
      <trkpt lat="44.8935" lon="0.86807">
        <ele>113.8</ele>
        <time>2025-05-10T07:52:13Z</time>
      </trkpt>
      <trkpt lat="44.89349" lon="0.86808">
        <ele>114</ele>
        <time>2025-05-10T07:52:14Z</time>
      </trkpt>
      <trkpt lat="44.89347" lon="0.86809">
        <ele>114</ele>
        <time>2025-05-10T07:52:15Z</time>
      </trkpt>
      <trkpt lat="44.89346" lon="0.86811">
        <ele>114.4</ele>
        <time>2025-05-10T07:52:16Z</time>
      </trkpt>
      <trkpt lat="44.89345" lon="0.86812">
        <ele>114.6</ele>
        <time>2025-05-10T07:52:17Z</time>
      </trkpt>
      <trkpt lat="44.89343" lon="0.86812">
        <ele>114.8</ele>
        <time>2025-05-10T07:52:18Z</time>
      </trkpt>
      <trkpt lat="44.89342" lon="0.86813">
        <ele>115</ele>
        <time>2025-05-10T07:52:19Z</time>
      </trkpt>
      <trkpt lat="44.8934" lon="0.86814">
        <ele>115.2</ele>
        <time>2025-05-10T07:52:20Z</time>
      </trkpt>
      <trkpt lat="44.89338" lon="0.86815">
        <ele>115.4</ele>
        <time>2025-05-10T07:52:21Z</time>
      </trkpt>
      <trkpt lat="44.89337" lon="0.86816">
        <ele>115.6</ele>
        <time>2025-05-10T07:52:22Z</time>
      </trkpt>
      <trkpt lat="44.89335" lon="0.86816">
        <ele>115.8</ele>
        <time>2025-05-10T07:52:23Z</time>
      </trkpt>
      <trkpt lat="44.89333" lon="0.86817">
        <ele>116</ele>
        <time>2025-05-10T07:52:24Z</time>
      </trkpt>
      <trkpt lat="44.89332" lon="0.86818">
        <ele>116.2</ele>
        <time>2025-05-10T07:52:25Z</time>
      </trkpt>
      <trkpt lat="44.8933" lon="0.86819">
        <ele>116.4</ele>
        <time>2025-05-10T07:52:26Z</time>
      </trkpt>
      <trkpt lat="44.89329" lon="0.8682">
        <ele>116.6</ele>
        <time>2025-05-10T07:52:27Z</time>
      </trkpt>
      <trkpt lat="44.89328" lon="0.86821">
        <ele>116.8</ele>
        <time>2025-05-10T07:52:28Z</time>
      </trkpt>
      <trkpt lat="44.89326" lon="0.86822">
        <ele>117</ele>
        <time>2025-05-10T07:52:29Z</time>
      </trkpt>
      <trkpt lat="44.89325" lon="0.86823">
        <ele>117.2</ele>
        <time>2025-05-10T07:52:30Z</time>
      </trkpt>
      <trkpt lat="44.89323" lon="0.86824">
        <ele>117.2</ele>
        <time>2025-05-10T07:52:31Z</time>
      </trkpt>
      <trkpt lat="44.89322" lon="0.86825">
        <ele>117.4</ele>
        <time>2025-05-10T07:52:32Z</time>
      </trkpt>
      <trkpt lat="44.89321" lon="0.86826">
        <ele>117.6</ele>
        <time>2025-05-10T07:52:33Z</time>
      </trkpt>
      <trkpt lat="44.89319" lon="0.86827">
        <ele>118</ele>
        <time>2025-05-10T07:52:34Z</time>
      </trkpt>
      <trkpt lat="44.89317" lon="0.86828">
        <ele>118</ele>
        <time>2025-05-10T07:52:35Z</time>
      </trkpt>
      <trkpt lat="44.89316" lon="0.86828">
        <ele>118.4</ele>
        <time>2025-05-10T07:52:36Z</time>
      </trkpt>
      <trkpt lat="44.89314" lon="0.86829">
        <ele>118.6</ele>
        <time>2025-05-10T07:52:37Z</time>
      </trkpt>
      <trkpt lat="44.89313" lon="0.86831">
        <ele>118.8</ele>
        <time>2025-05-10T07:52:38Z</time>
      </trkpt>
      <trkpt lat="44.89311" lon="0.86832">
        <ele>119.2</ele>
        <time>2025-05-10T07:52:39Z</time>
      </trkpt>
      <trkpt lat="44.8931" lon="0.86833">
        <ele>119.2</ele>
        <time>2025-05-10T07:52:40Z</time>
      </trkpt>
      <trkpt lat="44.89308" lon="0.86834">
        <ele>119.4</ele>
        <time>2025-05-10T07:52:41Z</time>
      </trkpt>
      <trkpt lat="44.89307" lon="0.86836">
        <ele>119.6</ele>
        <time>2025-05-10T07:52:42Z</time>
      </trkpt>
      <trkpt lat="44.89306" lon="0.86837">
        <ele>119.8</ele>
        <time>2025-05-10T07:52:43Z</time>
      </trkpt>
      <trkpt lat="44.89305" lon="0.86839">
        <ele>120</ele>
        <time>2025-05-10T07:52:44Z</time>
      </trkpt>
      <trkpt lat="44.89303" lon="0.8684">
        <ele>120.2</ele>
        <time>2025-05-10T07:52:45Z</time>
      </trkpt>
      <trkpt lat="44.89302" lon="0.86842">
        <ele>120.4</ele>
        <time>2025-05-10T07:52:46Z</time>
      </trkpt>
      <trkpt lat="44.893" lon="0.86844">
        <ele>120.6</ele>
        <time>2025-05-10T07:52:47Z</time>
      </trkpt>
      <trkpt lat="44.89299" lon="0.86845">
        <ele>120.8</ele>
        <time>2025-05-10T07:52:48Z</time>
      </trkpt>
      <trkpt lat="44.89298" lon="0.86848">
        <ele>121</ele>
        <time>2025-05-10T07:52:49Z</time>
      </trkpt>
      <trkpt lat="44.89297" lon="0.86849">
        <ele>121.2</ele>
        <time>2025-05-10T07:52:50Z</time>
      </trkpt>
      <trkpt lat="44.89297" lon="0.86851">
        <ele>121.2</ele>
        <time>2025-05-10T07:52:51Z</time>
      </trkpt>
      <trkpt lat="44.89295" lon="0.86853">
        <ele>121.4</ele>
        <time>2025-05-10T07:52:52Z</time>
      </trkpt>
      <trkpt lat="44.89294" lon="0.86855">
        <ele>121.6</ele>
        <time>2025-05-10T07:52:53Z</time>
      </trkpt>
      <trkpt lat="44.89293" lon="0.86857">
        <ele>121.8</ele>
        <time>2025-05-10T07:52:54Z</time>
      </trkpt>
      <trkpt lat="44.89292" lon="0.86859">
        <ele>122</ele>
        <time>2025-05-10T07:52:55Z</time>
      </trkpt>
      <trkpt lat="44.89291" lon="0.86861">
        <ele>122.4</ele>
        <time>2025-05-10T07:52:56Z</time>
      </trkpt>
      <trkpt lat="44.8929" lon="0.86863">
        <ele>122.6</ele>
        <time>2025-05-10T07:52:57Z</time>
      </trkpt>
      <trkpt lat="44.89289" lon="0.86865">
        <ele>122.6</ele>
        <time>2025-05-10T07:52:58Z</time>
      </trkpt>
      <trkpt lat="44.89288" lon="0.86866">
        <ele>122.8</ele>
        <time>2025-05-10T07:52:59Z</time>
      </trkpt>
      <trkpt lat="44.89287" lon="0.86868">
        <ele>123</ele>
        <time>2025-05-10T07:53:00Z</time>
      </trkpt>
      <trkpt lat="44.89286" lon="0.86869">
        <ele>123.4</ele>
        <time>2025-05-10T07:53:01Z</time>
      </trkpt>
      <trkpt lat="44.89285" lon="0.86871">
        <ele>123.6</ele>
        <time>2025-05-10T07:53:02Z</time>
      </trkpt>
      <trkpt lat="44.89285" lon="0.86874">
        <ele>123.8</ele>
        <time>2025-05-10T07:53:03Z</time>
      </trkpt>
      <trkpt lat="44.89284" lon="0.86876">
        <ele>123.8</ele>
        <time>2025-05-10T07:53:04Z</time>
      </trkpt>
      <trkpt lat="44.89284" lon="0.86879">
        <ele>124</ele>
        <time>2025-05-10T07:53:05Z</time>
      </trkpt>
      <trkpt lat="44.89284" lon="0.86881">
        <ele>124.2</ele>
        <time>2025-05-10T07:53:06Z</time>
      </trkpt>
      <trkpt lat="44.89283" lon="0.86883">
        <ele>124.4</ele>
        <time>2025-05-10T07:53:07Z</time>
      </trkpt>
      <trkpt lat="44.89283" lon="0.86885">
        <ele>124.6</ele>
        <time>2025-05-10T07:53:08Z</time>
      </trkpt>
      <trkpt lat="44.89283" lon="0.86888">
        <ele>124.8</ele>
        <time>2025-05-10T07:53:09Z</time>
      </trkpt>
      <trkpt lat="44.89282" lon="0.86891">
        <ele>124.8</ele>
        <time>2025-05-10T07:53:10Z</time>
      </trkpt>
      <trkpt lat="44.89282" lon="0.86893">
        <ele>125</ele>
        <time>2025-05-10T07:53:11Z</time>
      </trkpt>
      <trkpt lat="44.89282" lon="0.86895">
        <ele>125.2</ele>
        <time>2025-05-10T07:53:12Z</time>
      </trkpt>
      <trkpt lat="44.89281" lon="0.86898">
        <ele>125.2</ele>
        <time>2025-05-10T07:53:13Z</time>
      </trkpt>
      <trkpt lat="44.89281" lon="0.869">
        <ele>125.4</ele>
        <time>2025-05-10T07:53:14Z</time>
      </trkpt>
      <trkpt lat="44.89281" lon="0.86903">
        <ele>125.6</ele>
        <time>2025-05-10T07:53:15Z</time>
      </trkpt>
      <trkpt lat="44.89281" lon="0.86905">
        <ele>125.6</ele>
        <time>2025-05-10T07:53:16Z</time>
      </trkpt>
      <trkpt lat="44.8928" lon="0.86907">
        <ele>125.8</ele>
        <time>2025-05-10T07:53:17Z</time>
      </trkpt>
      <trkpt lat="44.8928" lon="0.8691">
        <ele>126.2</ele>
        <time>2025-05-10T07:53:18Z</time>
      </trkpt>
      <trkpt lat="44.89279" lon="0.86912">
        <ele>126.6</ele>
        <time>2025-05-10T07:53:19Z</time>
      </trkpt>
      <trkpt lat="44.89278" lon="0.86915">
        <ele>126.8</ele>
        <time>2025-05-10T07:53:20Z</time>
      </trkpt>
      <trkpt lat="44.89278" lon="0.86917">
        <ele>127</ele>
        <time>2025-05-10T07:53:21Z</time>
      </trkpt>
      <trkpt lat="44.89277" lon="0.8692">
        <ele>127</ele>
        <time>2025-05-10T07:53:22Z</time>
      </trkpt>
      <trkpt lat="44.89277" lon="0.86923">
        <ele>127.2</ele>
        <time>2025-05-10T07:53:23Z</time>
      </trkpt>
      <trkpt lat="44.89276" lon="0.86926">
        <ele>127.4</ele>
        <time>2025-05-10T07:53:24Z</time>
      </trkpt>
      <trkpt lat="44.89275" lon="0.86929">
        <ele>127.4</ele>
        <time>2025-05-10T07:53:25Z</time>
      </trkpt>
      <trkpt lat="44.89274" lon="0.86932">
        <ele>127.4</ele>
        <time>2025-05-10T07:53:26Z</time>
      </trkpt>
      <trkpt lat="44.89274" lon="0.86935">
        <ele>127.4</ele>
        <time>2025-05-10T07:53:27Z</time>
      </trkpt>
      <trkpt lat="44.89273" lon="0.86938">
        <ele>127.4</ele>
        <time>2025-05-10T07:53:28Z</time>
      </trkpt>
      <trkpt lat="44.89272" lon="0.86941">
        <ele>127.4</ele>
        <time>2025-05-10T07:53:29Z</time>
      </trkpt>
      <trkpt lat="44.89271" lon="0.86944">
        <ele>127.4</ele>
        <time>2025-05-10T07:53:30Z</time>
      </trkpt>
      <trkpt lat="44.8927" lon="0.86947">
        <ele>127.4</ele>
        <time>2025-05-10T07:53:31Z</time>
      </trkpt>
      <trkpt lat="44.89269" lon="0.8695">
        <ele>127.4</ele>
        <time>2025-05-10T07:53:32Z</time>
      </trkpt>
      <trkpt lat="44.89268" lon="0.86954">
        <ele>127.4</ele>
        <time>2025-05-10T07:53:33Z</time>
      </trkpt>
      <trkpt lat="44.89266" lon="0.86958">
        <ele>127.6</ele>
        <time>2025-05-10T07:53:34Z</time>
      </trkpt>
      <trkpt lat="44.89265" lon="0.86961">
        <ele>127.6</ele>
        <time>2025-05-10T07:53:35Z</time>
      </trkpt>
      <trkpt lat="44.89264" lon="0.86966">
        <ele>127.8</ele>
        <time>2025-05-10T07:53:36Z</time>
      </trkpt>
      <trkpt lat="44.89263" lon="0.8697">
        <ele>127.8</ele>
        <time>2025-05-10T07:53:37Z</time>
      </trkpt>
      <trkpt lat="44.89262" lon="0.86974">
        <ele>127.8</ele>
        <time>2025-05-10T07:53:38Z</time>
      </trkpt>
      <trkpt lat="44.89261" lon="0.86979">
        <ele>127.8</ele>
        <time>2025-05-10T07:53:39Z</time>
      </trkpt>
      <trkpt lat="44.89261" lon="0.86982">
        <ele>127.8</ele>
        <time>2025-05-10T07:53:40Z</time>
      </trkpt>
      <trkpt lat="44.89259" lon="0.86986">
        <ele>127.8</ele>
        <time>2025-05-10T07:53:41Z</time>
      </trkpt>
      <trkpt lat="44.89258" lon="0.8699">
        <ele>127.8</ele>
        <time>2025-05-10T07:53:42Z</time>
      </trkpt>
      <trkpt lat="44.89257" lon="0.86995">
        <ele>128</ele>
        <time>2025-05-10T07:53:43Z</time>
      </trkpt>
      <trkpt lat="44.89255" lon="0.87">
        <ele>128</ele>
        <time>2025-05-10T07:53:44Z</time>
      </trkpt>
      <trkpt lat="44.89254" lon="0.87005">
        <ele>128.2</ele>
        <time>2025-05-10T07:53:45Z</time>
      </trkpt>
      <trkpt lat="44.89252" lon="0.87009">
        <ele>128.2</ele>
        <time>2025-05-10T07:53:46Z</time>
      </trkpt>
      <trkpt lat="44.8925" lon="0.87013">
        <ele>128.2</ele>
        <time>2025-05-10T07:53:47Z</time>
      </trkpt>
      <trkpt lat="44.89248" lon="0.87018">
        <ele>128.2</ele>
        <time>2025-05-10T07:53:48Z</time>
      </trkpt>
      <trkpt lat="44.89246" lon="0.87022">
        <ele>128.2</ele>
        <time>2025-05-10T07:53:49Z</time>
      </trkpt>
      <trkpt lat="44.89244" lon="0.87026">
        <ele>128.2</ele>
        <time>2025-05-10T07:53:50Z</time>
      </trkpt>
      <trkpt lat="44.89242" lon="0.8703">
        <ele>128.2</ele>
        <time>2025-05-10T07:53:51Z</time>
      </trkpt>
      <trkpt lat="44.8924" lon="0.87034">
        <ele>128.2</ele>
        <time>2025-05-10T07:53:52Z</time>
      </trkpt>
      <trkpt lat="44.89237" lon="0.87038">
        <ele>128.4</ele>
        <time>2025-05-10T07:53:53Z</time>
      </trkpt>
      <trkpt lat="44.89235" lon="0.87042">
        <ele>128.4</ele>
        <time>2025-05-10T07:53:54Z</time>
      </trkpt>
      <trkpt lat="44.89233" lon="0.87046">
        <ele>128.4</ele>
        <time>2025-05-10T07:53:55Z</time>
      </trkpt>
      <trkpt lat="44.89231" lon="0.87049">
        <ele>128.6</ele>
        <time>2025-05-10T07:53:56Z</time>
      </trkpt>
      <trkpt lat="44.89228" lon="0.87053">
        <ele>128.6</ele>
        <time>2025-05-10T07:53:57Z</time>
      </trkpt>
      <trkpt lat="44.89227" lon="0.87056">
        <ele>128.6</ele>
        <time>2025-05-10T07:53:58Z</time>
      </trkpt>
      <trkpt lat="44.89225" lon="0.8706">
        <ele>128.6</ele>
        <time>2025-05-10T07:53:59Z</time>
      </trkpt>
      <trkpt lat="44.89222" lon="0.87064">
        <ele>128.8</ele>
        <time>2025-05-10T07:54:00Z</time>
      </trkpt>
      <trkpt lat="44.8922" lon="0.87069">
        <ele>128.8</ele>
        <time>2025-05-10T07:54:01Z</time>
      </trkpt>
      <trkpt lat="44.89218" lon="0.87073">
        <ele>129</ele>
        <time>2025-05-10T07:54:02Z</time>
      </trkpt>
      <trkpt lat="44.89215" lon="0.87077">
        <ele>129</ele>
        <time>2025-05-10T07:54:03Z</time>
      </trkpt>
      <trkpt lat="44.89213" lon="0.87082">
        <ele>129.2</ele>
        <time>2025-05-10T07:54:04Z</time>
      </trkpt>
      <trkpt lat="44.89211" lon="0.87086">
        <ele>129.2</ele>
        <time>2025-05-10T07:54:05Z</time>
      </trkpt>
      <trkpt lat="44.89209" lon="0.8709">
        <ele>129.2</ele>
        <time>2025-05-10T07:54:06Z</time>
      </trkpt>
      <trkpt lat="44.89207" lon="0.87094">
        <ele>129.2</ele>
        <time>2025-05-10T07:54:07Z</time>
      </trkpt>
      <trkpt lat="44.89205" lon="0.87098">
        <ele>129.4</ele>
        <time>2025-05-10T07:54:08Z</time>
      </trkpt>
      <trkpt lat="44.89202" lon="0.87101">
        <ele>129.4</ele>
        <time>2025-05-10T07:54:09Z</time>
      </trkpt>
      <trkpt lat="44.892" lon="0.87105">
        <ele>129.6</ele>
        <time>2025-05-10T07:54:10Z</time>
      </trkpt>
      <trkpt lat="44.89199" lon="0.87109">
        <ele>129.6</ele>
        <time>2025-05-10T07:54:11Z</time>
      </trkpt>
      <trkpt lat="44.89197" lon="0.87113">
        <ele>129.8</ele>
        <time>2025-05-10T07:54:12Z</time>
      </trkpt>
      <trkpt lat="44.89195" lon="0.87117">
        <ele>130</ele>
        <time>2025-05-10T07:54:13Z</time>
      </trkpt>
      <trkpt lat="44.89193" lon="0.87121">
        <ele>130</ele>
        <time>2025-05-10T07:54:14Z</time>
      </trkpt>
      <trkpt lat="44.89192" lon="0.87124">
        <ele>130</ele>
        <time>2025-05-10T07:54:15Z</time>
      </trkpt>
      <trkpt lat="44.8919" lon="0.87128">
        <ele>130</ele>
        <time>2025-05-10T07:54:16Z</time>
      </trkpt>
      <trkpt lat="44.89189" lon="0.87132">
        <ele>130.2</ele>
        <time>2025-05-10T07:54:17Z</time>
      </trkpt>
      <trkpt lat="44.89187" lon="0.87135">
        <ele>130.4</ele>
        <time>2025-05-10T07:54:18Z</time>
      </trkpt>
      <trkpt lat="44.89186" lon="0.87139">
        <ele>130.8</ele>
        <time>2025-05-10T07:54:19Z</time>
      </trkpt>
      <trkpt lat="44.89184" lon="0.87143">
        <ele>131</ele>
        <time>2025-05-10T07:54:20Z</time>
      </trkpt>
      <trkpt lat="44.89183" lon="0.87147">
        <ele>131.2</ele>
        <time>2025-05-10T07:54:21Z</time>
      </trkpt>
      <trkpt lat="44.89181" lon="0.87151">
        <ele>131.2</ele>
        <time>2025-05-10T07:54:22Z</time>
      </trkpt>
      <trkpt lat="44.8918" lon="0.87155">
        <ele>131.2</ele>
        <time>2025-05-10T07:54:23Z</time>
      </trkpt>
      <trkpt lat="44.89179" lon="0.87159">
        <ele>131.4</ele>
        <time>2025-05-10T07:54:24Z</time>
      </trkpt>
      <trkpt lat="44.89178" lon="0.87164">
        <ele>131.4</ele>
        <time>2025-05-10T07:54:25Z</time>
      </trkpt>
      <trkpt lat="44.89176" lon="0.87168">
        <ele>131.4</ele>
        <time>2025-05-10T07:54:26Z</time>
      </trkpt>
      <trkpt lat="44.89175" lon="0.87172">
        <ele>131.4</ele>
        <time>2025-05-10T07:54:27Z</time>
      </trkpt>
      <trkpt lat="44.89174" lon="0.87176">
        <ele>131.4</ele>
        <time>2025-05-10T07:54:28Z</time>
      </trkpt>
      <trkpt lat="44.89173" lon="0.8718">
        <ele>131.4</ele>
        <time>2025-05-10T07:54:29Z</time>
      </trkpt>
      <trkpt lat="44.89171" lon="0.87185">
        <ele>131.6</ele>
        <time>2025-05-10T07:54:30Z</time>
      </trkpt>
      <trkpt lat="44.8917" lon="0.8719">
        <ele>131.6</ele>
        <time>2025-05-10T07:54:31Z</time>
      </trkpt>
      <trkpt lat="44.89168" lon="0.87195">
        <ele>131.6</ele>
        <time>2025-05-10T07:54:32Z</time>
      </trkpt>
      <trkpt lat="44.89167" lon="0.872">
        <ele>131.6</ele>
        <time>2025-05-10T07:54:33Z</time>
      </trkpt>
      <trkpt lat="44.89165" lon="0.87206">
        <ele>131.4</ele>
        <time>2025-05-10T07:54:34Z</time>
      </trkpt>
      <trkpt lat="44.89164" lon="0.8721">
        <ele>131.4</ele>
        <time>2025-05-10T07:54:35Z</time>
      </trkpt>
      <trkpt lat="44.89163" lon="0.87216">
        <ele>131</ele>
        <time>2025-05-10T07:54:36Z</time>
      </trkpt>
      <trkpt lat="44.89161" lon="0.87221">
        <ele>131</ele>
        <time>2025-05-10T07:54:37Z</time>
      </trkpt>
      <trkpt lat="44.8916" lon="0.87226">
        <ele>130.8</ele>
        <time>2025-05-10T07:54:38Z</time>
      </trkpt>
      <trkpt lat="44.89159" lon="0.87232">
        <ele>130.8</ele>
        <time>2025-05-10T07:54:39Z</time>
      </trkpt>
      <trkpt lat="44.89158" lon="0.87237">
        <ele>130.8</ele>
        <time>2025-05-10T07:54:40Z</time>
      </trkpt>
      <trkpt lat="44.89157" lon="0.87243">
        <ele>130.8</ele>
        <time>2025-05-10T07:54:41Z</time>
      </trkpt>
      <trkpt lat="44.89155" lon="0.87248">
        <ele>130.6</ele>
        <time>2025-05-10T07:54:42Z</time>
      </trkpt>
      <trkpt lat="44.89154" lon="0.87254">
        <ele>130.6</ele>
        <time>2025-05-10T07:54:43Z</time>
      </trkpt>
      <trkpt lat="44.89152" lon="0.87259">
        <ele>130.4</ele>
        <time>2025-05-10T07:54:44Z</time>
      </trkpt>
      <trkpt lat="44.89151" lon="0.87264">
        <ele>130.4</ele>
        <time>2025-05-10T07:54:45Z</time>
      </trkpt>
      <trkpt lat="44.89149" lon="0.87269">
        <ele>130.4</ele>
        <time>2025-05-10T07:54:46Z</time>
      </trkpt>
      <trkpt lat="44.89147" lon="0.87275">
        <ele>130.4</ele>
        <time>2025-05-10T07:54:47Z</time>
      </trkpt>
      <trkpt lat="44.89146" lon="0.8728">
        <ele>130.6</ele>
        <time>2025-05-10T07:54:48Z</time>
      </trkpt>
      <trkpt lat="44.89145" lon="0.87285">
        <ele>130.6</ele>
        <time>2025-05-10T07:54:49Z</time>
      </trkpt>
      <trkpt lat="44.89143" lon="0.8729">
        <ele>130.8</ele>
        <time>2025-05-10T07:54:50Z</time>
      </trkpt>
      <trkpt lat="44.89141" lon="0.87295">
        <ele>130.8</ele>
        <time>2025-05-10T07:54:51Z</time>
      </trkpt>
      <trkpt lat="44.89139" lon="0.873">
        <ele>130.8</ele>
        <time>2025-05-10T07:54:52Z</time>
      </trkpt>
      <trkpt lat="44.89138" lon="0.87305">
        <ele>131</ele>
        <time>2025-05-10T07:54:53Z</time>
      </trkpt>
      <trkpt lat="44.89136" lon="0.87311">
        <ele>131</ele>
        <time>2025-05-10T07:54:54Z</time>
      </trkpt>
      <trkpt lat="44.89135" lon="0.87316">
        <ele>131</ele>
        <time>2025-05-10T07:54:55Z</time>
      </trkpt>
      <trkpt lat="44.89133" lon="0.87321">
        <ele>131.2</ele>
        <time>2025-05-10T07:54:56Z</time>
      </trkpt>
      <trkpt lat="44.89132" lon="0.87327">
        <ele>131.2</ele>
        <time>2025-05-10T07:54:57Z</time>
      </trkpt>
      <trkpt lat="44.8913" lon="0.87332">
        <ele>131.2</ele>
        <time>2025-05-10T07:54:58Z</time>
      </trkpt>
      <trkpt lat="44.89126" lon="0.87336">
        <ele>131.2</ele>
        <time>2025-05-10T07:54:59Z</time>
      </trkpt>
      <trkpt lat="44.89122" lon="0.87341">
        <ele>131</ele>
        <time>2025-05-10T07:55:00Z</time>
      </trkpt>
      <trkpt lat="44.89116" lon="0.87345">
        <ele>131</ele>
        <time>2025-05-10T07:55:01Z</time>
      </trkpt>
      <trkpt lat="44.89111" lon="0.87348">
        <ele>130.6</ele>
        <time>2025-05-10T07:55:02Z</time>
      </trkpt>
      <trkpt lat="44.89105" lon="0.87352">
        <ele>130</ele>
        <time>2025-05-10T07:55:03Z</time>
      </trkpt>
      <trkpt lat="44.891" lon="0.87356">
        <ele>129.4</ele>
        <time>2025-05-10T07:55:04Z</time>
      </trkpt>
      <trkpt lat="44.89095" lon="0.87359">
        <ele>128.6</ele>
        <time>2025-05-10T07:55:05Z</time>
      </trkpt>
      <trkpt lat="44.89092" lon="0.87361">
        <ele>127.6</ele>
        <time>2025-05-10T07:55:06Z</time>
      </trkpt>
      <trkpt lat="44.8909" lon="0.87363">
        <ele>127.2</ele>
        <time>2025-05-10T07:55:07Z</time>
      </trkpt>
      <trkpt lat="44.89088" lon="0.87364">
        <ele>127</ele>
        <time>2025-05-10T07:55:08Z</time>
      </trkpt>
      <trkpt lat="44.89086" lon="0.87366">
        <ele>127</ele>
        <time>2025-05-10T07:55:09Z</time>
      </trkpt>
      <trkpt lat="44.89084" lon="0.87368">
        <ele>127</ele>
        <time>2025-05-10T07:55:10Z</time>
      </trkpt>
      <trkpt lat="44.89081" lon="0.87371">
        <ele>126.8</ele>
        <time>2025-05-10T07:55:11Z</time>
      </trkpt>
      <trkpt lat="44.8908" lon="0.87375">
        <ele>126.8</ele>
        <time>2025-05-10T07:55:12Z</time>
      </trkpt>
      <trkpt lat="44.89079" lon="0.8738">
        <ele>126.8</ele>
        <time>2025-05-10T07:55:13Z</time>
      </trkpt>
      <trkpt lat="44.89078" lon="0.87383">
        <ele>126.8</ele>
        <time>2025-05-10T07:55:14Z</time>
      </trkpt>
      <trkpt lat="44.89077" lon="0.87387">
        <ele>126.8</ele>
        <time>2025-05-10T07:55:15Z</time>
      </trkpt>
      <trkpt lat="44.89076" lon="0.87391">
        <ele>126.8</ele>
        <time>2025-05-10T07:55:16Z</time>
      </trkpt>
      <trkpt lat="44.89075" lon="0.87394">
        <ele>127</ele>
        <time>2025-05-10T07:55:17Z</time>
      </trkpt>
      <trkpt lat="44.89074" lon="0.87398">
        <ele>127.2</ele>
        <time>2025-05-10T07:55:18Z</time>
      </trkpt>
      <trkpt lat="44.89073" lon="0.87401">
        <ele>127.6</ele>
        <time>2025-05-10T07:55:19Z</time>
      </trkpt>
      <trkpt lat="44.89072" lon="0.87405">
        <ele>127.6</ele>
        <time>2025-05-10T07:55:20Z</time>
      </trkpt>
      <trkpt lat="44.89071" lon="0.87408">
        <ele>127.8</ele>
        <time>2025-05-10T07:55:21Z</time>
      </trkpt>
      <trkpt lat="44.8907" lon="0.87412">
        <ele>128</ele>
        <time>2025-05-10T07:55:22Z</time>
      </trkpt>
      <trkpt lat="44.89069" lon="0.87415">
        <ele>128.2</ele>
        <time>2025-05-10T07:55:23Z</time>
      </trkpt>
      <trkpt lat="44.89068" lon="0.87419">
        <ele>128.2</ele>
        <time>2025-05-10T07:55:24Z</time>
      </trkpt>
      <trkpt lat="44.89067" lon="0.87422">
        <ele>128.4</ele>
        <time>2025-05-10T07:55:25Z</time>
      </trkpt>
      <trkpt lat="44.89066" lon="0.87426">
        <ele>128.6</ele>
        <time>2025-05-10T07:55:26Z</time>
      </trkpt>
      <trkpt lat="44.89064" lon="0.87429">
        <ele>128.8</ele>
        <time>2025-05-10T07:55:27Z</time>
      </trkpt>
      <trkpt lat="44.89063" lon="0.87432">
        <ele>128.8</ele>
        <time>2025-05-10T07:55:28Z</time>
      </trkpt>
      <trkpt lat="44.89062" lon="0.87435">
        <ele>129.2</ele>
        <time>2025-05-10T07:55:29Z</time>
      </trkpt>
      <trkpt lat="44.89061" lon="0.87438">
        <ele>129.4</ele>
        <time>2025-05-10T07:55:30Z</time>
      </trkpt>
      <trkpt lat="44.89059" lon="0.87441">
        <ele>129.6</ele>
        <time>2025-05-10T07:55:31Z</time>
      </trkpt>
      <trkpt lat="44.89058" lon="0.87444">
        <ele>129.6</ele>
        <time>2025-05-10T07:55:32Z</time>
      </trkpt>
      <trkpt lat="44.89057" lon="0.87447">
        <ele>129.6</ele>
        <time>2025-05-10T07:55:33Z</time>
      </trkpt>
      <trkpt lat="44.89056" lon="0.8745">
        <ele>129.8</ele>
        <time>2025-05-10T07:55:34Z</time>
      </trkpt>
      <trkpt lat="44.89054" lon="0.87454">
        <ele>129.8</ele>
        <time>2025-05-10T07:55:35Z</time>
      </trkpt>
      <trkpt lat="44.89053" lon="0.87456">
        <ele>129.8</ele>
        <time>2025-05-10T07:55:36Z</time>
      </trkpt>
      <trkpt lat="44.89051" lon="0.8746">
        <ele>130</ele>
        <time>2025-05-10T07:55:37Z</time>
      </trkpt>
      <trkpt lat="44.8905" lon="0.87463">
        <ele>130.2</ele>
        <time>2025-05-10T07:55:38Z</time>
      </trkpt>
      <trkpt lat="44.89049" lon="0.87466">
        <ele>130.4</ele>
        <time>2025-05-10T07:55:39Z</time>
      </trkpt>
      <trkpt lat="44.89047" lon="0.87468">
        <ele>130.6</ele>
        <time>2025-05-10T07:55:40Z</time>
      </trkpt>
      <trkpt lat="44.89046" lon="0.87471">
        <ele>131</ele>
        <time>2025-05-10T07:55:41Z</time>
      </trkpt>
      <trkpt lat="44.89045" lon="0.87474">
        <ele>131.2</ele>
        <time>2025-05-10T07:55:42Z</time>
      </trkpt>
      <trkpt lat="44.89044" lon="0.87477">
        <ele>131.4</ele>
        <time>2025-05-10T07:55:43Z</time>
      </trkpt>
      <trkpt lat="44.89042" lon="0.8748">
        <ele>131.4</ele>
        <time>2025-05-10T07:55:44Z</time>
      </trkpt>
      <trkpt lat="44.89041" lon="0.87483">
        <ele>131.6</ele>
        <time>2025-05-10T07:55:45Z</time>
      </trkpt>
      <trkpt lat="44.89039" lon="0.87486">
        <ele>131.8</ele>
        <time>2025-05-10T07:55:46Z</time>
      </trkpt>
      <trkpt lat="44.89038" lon="0.87489">
        <ele>131.8</ele>
        <time>2025-05-10T07:55:47Z</time>
      </trkpt>
      <trkpt lat="44.89036" lon="0.87492">
        <ele>131.8</ele>
        <time>2025-05-10T07:55:48Z</time>
      </trkpt>
      <trkpt lat="44.89035" lon="0.87494">
        <ele>131.8</ele>
        <time>2025-05-10T07:55:49Z</time>
      </trkpt>
      <trkpt lat="44.89033" lon="0.87497">
        <ele>132</ele>
        <time>2025-05-10T07:55:50Z</time>
      </trkpt>
      <trkpt lat="44.89032" lon="0.875">
        <ele>132.4</ele>
        <time>2025-05-10T07:55:51Z</time>
      </trkpt>
      <trkpt lat="44.8903" lon="0.87502">
        <ele>132.6</ele>
        <time>2025-05-10T07:55:52Z</time>
      </trkpt>
      <trkpt lat="44.89029" lon="0.87506">
        <ele>132.8</ele>
        <time>2025-05-10T07:55:53Z</time>
      </trkpt>
      <trkpt lat="44.89029" lon="0.87509">
        <ele>132.8</ele>
        <time>2025-05-10T07:55:54Z</time>
      </trkpt>
      <trkpt lat="44.89027" lon="0.87513">
        <ele>133</ele>
        <time>2025-05-10T07:55:55Z</time>
      </trkpt>
      <trkpt lat="44.89026" lon="0.87516">
        <ele>133.2</ele>
        <time>2025-05-10T07:55:56Z</time>
      </trkpt>
      <trkpt lat="44.89026" lon="0.87519">
        <ele>133.2</ele>
        <time>2025-05-10T07:55:57Z</time>
      </trkpt>
      <trkpt lat="44.89025" lon="0.87523">
        <ele>133.2</ele>
        <time>2025-05-10T07:55:58Z</time>
      </trkpt>
      <trkpt lat="44.89024" lon="0.87526">
        <ele>133.2</ele>
        <time>2025-05-10T07:55:59Z</time>
      </trkpt>
      <trkpt lat="44.89023" lon="0.8753">
        <ele>133.4</ele>
        <time>2025-05-10T07:56:00Z</time>
      </trkpt>
      <trkpt lat="44.89022" lon="0.87533">
        <ele>133.4</ele>
        <time>2025-05-10T07:56:01Z</time>
      </trkpt>
      <trkpt lat="44.89021" lon="0.87537">
        <ele>133.6</ele>
        <time>2025-05-10T07:56:02Z</time>
      </trkpt>
      <trkpt lat="44.8902" lon="0.87541">
        <ele>133.8</ele>
        <time>2025-05-10T07:56:03Z</time>
      </trkpt>
      <trkpt lat="44.89019" lon="0.87545">
        <ele>134</ele>
        <time>2025-05-10T07:56:04Z</time>
      </trkpt>
      <trkpt lat="44.89019" lon="0.8755">
        <ele>134</ele>
        <time>2025-05-10T07:56:05Z</time>
      </trkpt>
      <trkpt lat="44.89018" lon="0.87554">
        <ele>134</ele>
        <time>2025-05-10T07:56:06Z</time>
      </trkpt>
      <trkpt lat="44.89017" lon="0.87559">
        <ele>134</ele>
        <time>2025-05-10T07:56:07Z</time>
      </trkpt>
      <trkpt lat="44.89017" lon="0.87564">
        <ele>133.8</ele>
        <time>2025-05-10T07:56:08Z</time>
      </trkpt>
      <trkpt lat="44.89017" lon="0.8757">
        <ele>133.6</ele>
        <time>2025-05-10T07:56:09Z</time>
      </trkpt>
      <trkpt lat="44.89017" lon="0.87577">
        <ele>133.4</ele>
        <time>2025-05-10T07:56:10Z</time>
      </trkpt>
      <trkpt lat="44.89017" lon="0.87584">
        <ele>133.4</ele>
        <time>2025-05-10T07:56:11Z</time>
      </trkpt>
      <trkpt lat="44.89017" lon="0.8759">
        <ele>133.4</ele>
        <time>2025-05-10T07:56:12Z</time>
      </trkpt>
      <trkpt lat="44.89018" lon="0.87598">
        <ele>133.2</ele>
        <time>2025-05-10T07:56:13Z</time>
      </trkpt>
      <trkpt lat="44.89019" lon="0.87605">
        <ele>132.8</ele>
        <time>2025-05-10T07:56:14Z</time>
      </trkpt>
      <trkpt lat="44.8902" lon="0.87613">
        <ele>132.6</ele>
        <time>2025-05-10T07:56:15Z</time>
      </trkpt>
      <trkpt lat="44.89021" lon="0.87621">
        <ele>132.4</ele>
        <time>2025-05-10T07:56:16Z</time>
      </trkpt>
      <trkpt lat="44.89022" lon="0.87629">
        <ele>132</ele>
        <time>2025-05-10T07:56:17Z</time>
      </trkpt>
      <trkpt lat="44.89023" lon="0.87637">
        <ele>131.8</ele>
        <time>2025-05-10T07:56:18Z</time>
      </trkpt>
      <trkpt lat="44.89024" lon="0.87643">
        <ele>131.8</ele>
        <time>2025-05-10T07:56:19Z</time>
      </trkpt>
      <trkpt lat="44.89025" lon="0.87647">
        <ele>131.2</ele>
        <time>2025-05-10T07:56:20Z</time>
      </trkpt>
      <trkpt lat="44.89025" lon="0.87652">
        <ele>131.2</ele>
        <time>2025-05-10T07:56:21Z</time>
      </trkpt>
      <trkpt lat="44.89023" lon="0.87655">
        <ele>131.2</ele>
        <time>2025-05-10T07:56:22Z</time>
      </trkpt>
      <trkpt lat="44.8902" lon="0.87657">
        <ele>131</ele>
        <time>2025-05-10T07:56:23Z</time>
      </trkpt>
      <trkpt lat="44.89015" lon="0.87656">
        <ele>131</ele>
        <time>2025-05-10T07:56:24Z</time>
      </trkpt>
      <trkpt lat="44.8901" lon="0.87655">
        <ele>131</ele>
        <time>2025-05-10T07:56:25Z</time>
      </trkpt>
      <trkpt lat="44.89006" lon="0.87656">
        <ele>130.8</ele>
        <time>2025-05-10T07:56:26Z</time>
      </trkpt>
      <trkpt lat="44.89003" lon="0.87659">
        <ele>130.4</ele>
        <time>2025-05-10T07:56:27Z</time>
      </trkpt>
      <trkpt lat="44.89002" lon="0.87664">
        <ele>129.6</ele>
        <time>2025-05-10T07:56:28Z</time>
      </trkpt>
      <trkpt lat="44.89002" lon="0.87669">
        <ele>129</ele>
        <time>2025-05-10T07:56:29Z</time>
      </trkpt>
      <trkpt lat="44.89001" lon="0.87675">
        <ele>128.6</ele>
        <time>2025-05-10T07:56:30Z</time>
      </trkpt>
      <trkpt lat="44.89001" lon="0.87682">
        <ele>128.2</ele>
        <time>2025-05-10T07:56:31Z</time>
      </trkpt>
      <trkpt lat="44.89" lon="0.8769">
        <ele>127.8</ele>
        <time>2025-05-10T07:56:32Z</time>
      </trkpt>
      <trkpt lat="44.89" lon="0.87698">
        <ele>127.4</ele>
        <time>2025-05-10T07:56:33Z</time>
      </trkpt>
      <trkpt lat="44.89" lon="0.87706">
        <ele>127</ele>
        <time>2025-05-10T07:56:34Z</time>
      </trkpt>
      <trkpt lat="44.89001" lon="0.87713">
        <ele>126.4</ele>
        <time>2025-05-10T07:56:35Z</time>
      </trkpt>
      <trkpt lat="44.89002" lon="0.87718">
        <ele>125.8</ele>
        <time>2025-05-10T07:56:36Z</time>
      </trkpt>
      <trkpt lat="44.89002" lon="0.87722">
        <ele>125.6</ele>
        <time>2025-05-10T07:56:37Z</time>
      </trkpt>
      <trkpt lat="44.89002" lon="0.87727">
        <ele>125.6</ele>
        <time>2025-05-10T07:56:38Z</time>
      </trkpt>
      <trkpt lat="44.89002" lon="0.87731">
        <ele>125.6</ele>
        <time>2025-05-10T07:56:39Z</time>
      </trkpt>
      <trkpt lat="44.89001" lon="0.87735">
        <ele>125.6</ele>
        <time>2025-05-10T07:56:40Z</time>
      </trkpt>
      <trkpt lat="44.89001" lon="0.8774">
        <ele>125.6</ele>
        <time>2025-05-10T07:56:41Z</time>
      </trkpt>
      <trkpt lat="44.89001" lon="0.87745">
        <ele>125.6</ele>
        <time>2025-05-10T07:56:42Z</time>
      </trkpt>
      <trkpt lat="44.89" lon="0.87751">
        <ele>125.6</ele>
        <time>2025-05-10T07:56:43Z</time>
      </trkpt>
      <trkpt lat="44.88999" lon="0.87756">
        <ele>125.6</ele>
        <time>2025-05-10T07:56:44Z</time>
      </trkpt>
      <trkpt lat="44.88999" lon="0.87762">
        <ele>125.6</ele>
        <time>2025-05-10T07:56:45Z</time>
      </trkpt>
      <trkpt lat="44.88997" lon="0.87768">
        <ele>125.4</ele>
        <time>2025-05-10T07:56:46Z</time>
      </trkpt>
      <trkpt lat="44.88996" lon="0.87773">
        <ele>125.4</ele>
        <time>2025-05-10T07:56:47Z</time>
      </trkpt>
      <trkpt lat="44.88995" lon="0.8778">
        <ele>125.2</ele>
        <time>2025-05-10T07:56:48Z</time>
      </trkpt>
      <trkpt lat="44.88994" lon="0.87788">
        <ele>125.2</ele>
        <time>2025-05-10T07:56:49Z</time>
      </trkpt>
      <trkpt lat="44.88992" lon="0.87795">
        <ele>125</ele>
        <time>2025-05-10T07:56:50Z</time>
      </trkpt>
      <trkpt lat="44.88989" lon="0.87802">
        <ele>124.8</ele>
        <time>2025-05-10T07:56:51Z</time>
      </trkpt>
      <trkpt lat="44.88986" lon="0.8781">
        <ele>124.2</ele>
        <time>2025-05-10T07:56:52Z</time>
      </trkpt>
      <trkpt lat="44.88982" lon="0.87818">
        <ele>123.6</ele>
        <time>2025-05-10T07:56:53Z</time>
      </trkpt>
      <trkpt lat="44.88981" lon="0.87828">
        <ele>123</ele>
        <time>2025-05-10T07:56:54Z</time>
      </trkpt>
      <trkpt lat="44.88978" lon="0.87837">
        <ele>122.6</ele>
        <time>2025-05-10T07:56:55Z</time>
      </trkpt>
      <trkpt lat="44.88976" lon="0.87847">
        <ele>121.2</ele>
        <time>2025-05-10T07:56:56Z</time>
      </trkpt>
      <trkpt lat="44.88975" lon="0.87857">
        <ele>120.6</ele>
        <time>2025-05-10T07:56:57Z</time>
      </trkpt>
      <trkpt lat="44.88973" lon="0.87866">
        <ele>120</ele>
        <time>2025-05-10T07:56:58Z</time>
      </trkpt>
      <trkpt lat="44.88971" lon="0.87874">
        <ele>119.6</ele>
        <time>2025-05-10T07:56:59Z</time>
      </trkpt>
      <trkpt lat="44.8897" lon="0.8788">
        <ele>119.6</ele>
        <time>2025-05-10T07:57:00Z</time>
      </trkpt>
      <trkpt lat="44.88969" lon="0.87885">
        <ele>119.6</ele>
        <time>2025-05-10T07:57:01Z</time>
      </trkpt>
      <trkpt lat="44.88968" lon="0.8789">
        <ele>119.6</ele>
        <time>2025-05-10T07:57:02Z</time>
      </trkpt>
      <trkpt lat="44.88967" lon="0.87896">
        <ele>119.6</ele>
        <time>2025-05-10T07:57:03Z</time>
      </trkpt>
      <trkpt lat="44.88966" lon="0.87899">
        <ele>119.8</ele>
        <time>2025-05-10T07:57:04Z</time>
      </trkpt>
      <trkpt lat="44.88965" lon="0.87903">
        <ele>120</ele>
        <time>2025-05-10T07:57:05Z</time>
      </trkpt>
      <trkpt lat="44.88965" lon="0.87907">
        <ele>120.2</ele>
        <time>2025-05-10T07:57:06Z</time>
      </trkpt>
      <trkpt lat="44.88964" lon="0.8791">
        <ele>120.8</ele>
        <time>2025-05-10T07:57:07Z</time>
      </trkpt>
      <trkpt lat="44.88964" lon="0.87913">
        <ele>121</ele>
        <time>2025-05-10T07:57:08Z</time>
      </trkpt>
      <trkpt lat="44.88963" lon="0.87916">
        <ele>121.2</ele>
        <time>2025-05-10T07:57:09Z</time>
      </trkpt>
      <trkpt lat="44.88963" lon="0.8792">
        <ele>121.4</ele>
        <time>2025-05-10T07:57:10Z</time>
      </trkpt>
      <trkpt lat="44.88962" lon="0.87923">
        <ele>121.8</ele>
        <time>2025-05-10T07:57:11Z</time>
      </trkpt>
      <trkpt lat="44.88961" lon="0.87925">
        <ele>122</ele>
        <time>2025-05-10T07:57:12Z</time>
      </trkpt>
      <trkpt lat="44.8896" lon="0.87929">
        <ele>122.2</ele>
        <time>2025-05-10T07:57:13Z</time>
      </trkpt>
      <trkpt lat="44.8896" lon="0.87931">
        <ele>122.4</ele>
        <time>2025-05-10T07:57:14Z</time>
      </trkpt>
      <trkpt lat="44.88959" lon="0.87935">
        <ele>122.6</ele>
        <time>2025-05-10T07:57:15Z</time>
      </trkpt>
      <trkpt lat="44.88959" lon="0.87938">
        <ele>122.8</ele>
        <time>2025-05-10T07:57:16Z</time>
      </trkpt>
      <trkpt lat="44.88959" lon="0.87941">
        <ele>123.2</ele>
        <time>2025-05-10T07:57:17Z</time>
      </trkpt>
      <trkpt lat="44.88958" lon="0.87944">
        <ele>123.4</ele>
        <time>2025-05-10T07:57:18Z</time>
      </trkpt>
      <trkpt lat="44.88958" lon="0.87946">
        <ele>123.6</ele>
        <time>2025-05-10T07:57:19Z</time>
      </trkpt>
      <trkpt lat="44.88958" lon="0.8795">
        <ele>124</ele>
        <time>2025-05-10T07:57:20Z</time>
      </trkpt>
      <trkpt lat="44.88957" lon="0.87953">
        <ele>124.2</ele>
        <time>2025-05-10T07:57:21Z</time>
      </trkpt>
      <trkpt lat="44.88957" lon="0.87956">
        <ele>124.4</ele>
        <time>2025-05-10T07:57:22Z</time>
      </trkpt>
      <trkpt lat="44.88957" lon="0.8796">
        <ele>124.6</ele>
        <time>2025-05-10T07:57:23Z</time>
      </trkpt>
      <trkpt lat="44.88956" lon="0.87964">
        <ele>124.8</ele>
        <time>2025-05-10T07:57:24Z</time>
      </trkpt>
      <trkpt lat="44.88956" lon="0.87968">
        <ele>124.8</ele>
        <time>2025-05-10T07:57:25Z</time>
      </trkpt>
      <trkpt lat="44.88956" lon="0.87972">
        <ele>125</ele>
        <time>2025-05-10T07:57:26Z</time>
      </trkpt>
      <trkpt lat="44.88956" lon="0.87976">
        <ele>125</ele>
        <time>2025-05-10T07:57:27Z</time>
      </trkpt>
      <trkpt lat="44.88955" lon="0.8798">
        <ele>125</ele>
        <time>2025-05-10T07:57:28Z</time>
      </trkpt>
      <trkpt lat="44.88954" lon="0.87985">
        <ele>125</ele>
        <time>2025-05-10T07:57:29Z</time>
      </trkpt>
      <trkpt lat="44.88954" lon="0.87989">
        <ele>125</ele>
        <time>2025-05-10T07:57:30Z</time>
      </trkpt>
      <trkpt lat="44.88954" lon="0.87993">
        <ele>125.2</ele>
        <time>2025-05-10T07:57:31Z</time>
      </trkpt>
      <trkpt lat="44.88954" lon="0.87997">
        <ele>125.2</ele>
        <time>2025-05-10T07:57:32Z</time>
      </trkpt>
      <trkpt lat="44.88953" lon="0.88002">
        <ele>125.2</ele>
        <time>2025-05-10T07:57:33Z</time>
      </trkpt>
      <trkpt lat="44.88953" lon="0.88006">
        <ele>125.2</ele>
        <time>2025-05-10T07:57:34Z</time>
      </trkpt>
      <trkpt lat="44.88952" lon="0.88011">
        <ele>125.4</ele>
        <time>2025-05-10T07:57:35Z</time>
      </trkpt>
      <trkpt lat="44.88952" lon="0.88015">
        <ele>125.4</ele>
        <time>2025-05-10T07:57:36Z</time>
      </trkpt>
      <trkpt lat="44.88952" lon="0.8802">
        <ele>125.8</ele>
        <time>2025-05-10T07:57:37Z</time>
      </trkpt>
      <trkpt lat="44.88951" lon="0.88025">
        <ele>125.8</ele>
        <time>2025-05-10T07:57:38Z</time>
      </trkpt>
      <trkpt lat="44.88951" lon="0.8803">
        <ele>126</ele>
        <time>2025-05-10T07:57:39Z</time>
      </trkpt>
      <trkpt lat="44.8895" lon="0.88034">
        <ele>126</ele>
        <time>2025-05-10T07:57:40Z</time>
      </trkpt>
      <trkpt lat="44.8895" lon="0.88039">
        <ele>126.2</ele>
        <time>2025-05-10T07:57:41Z</time>
      </trkpt>
      <trkpt lat="44.88949" lon="0.88044">
        <ele>126.2</ele>
        <time>2025-05-10T07:57:42Z</time>
      </trkpt>
      <trkpt lat="44.88949" lon="0.88049">
        <ele>126.2</ele>
        <time>2025-05-10T07:57:43Z</time>
      </trkpt>
      <trkpt lat="44.88948" lon="0.88054">
        <ele>126</ele>
        <time>2025-05-10T07:57:44Z</time>
      </trkpt>
      <trkpt lat="44.88948" lon="0.88059">
        <ele>126</ele>
        <time>2025-05-10T07:57:45Z</time>
      </trkpt>
      <trkpt lat="44.88947" lon="0.88064">
        <ele>126</ele>
        <time>2025-05-10T07:57:46Z</time>
      </trkpt>
      <trkpt lat="44.88946" lon="0.88068">
        <ele>126</ele>
        <time>2025-05-10T07:57:47Z</time>
      </trkpt>
      <trkpt lat="44.88944" lon="0.88071">
        <ele>125.8</ele>
        <time>2025-05-10T07:57:48Z</time>
      </trkpt>
      <trkpt lat="44.88944" lon="0.88074">
        <ele>125.8</ele>
        <time>2025-05-10T07:57:49Z</time>
      </trkpt>
      <trkpt lat="44.88943" lon="0.88079">
        <ele>125.6</ele>
        <time>2025-05-10T07:57:50Z</time>
      </trkpt>
      <trkpt lat="44.88944" lon="0.88084">
        <ele>125.4</ele>
        <time>2025-05-10T07:57:51Z</time>
      </trkpt>
      <trkpt lat="44.88945" lon="0.8809">
        <ele>125.2</ele>
        <time>2025-05-10T07:57:52Z</time>
      </trkpt>
      <trkpt lat="44.88946" lon="0.88096">
        <ele>125</ele>
        <time>2025-05-10T07:57:53Z</time>
      </trkpt>
      <trkpt lat="44.88948" lon="0.88102">
        <ele>124.8</ele>
        <time>2025-05-10T07:57:54Z</time>
      </trkpt>
      <trkpt lat="44.88949" lon="0.88108">
        <ele>124.6</ele>
        <time>2025-05-10T07:57:55Z</time>
      </trkpt>
      <trkpt lat="44.88951" lon="0.88115">
        <ele>124.2</ele>
        <time>2025-05-10T07:57:56Z</time>
      </trkpt>
      <trkpt lat="44.88953" lon="0.88121">
        <ele>123.6</ele>
        <time>2025-05-10T07:57:57Z</time>
      </trkpt>
      <trkpt lat="44.88954" lon="0.88128">
        <ele>123.4</ele>
        <time>2025-05-10T07:57:58Z</time>
      </trkpt>
      <trkpt lat="44.88956" lon="0.88135">
        <ele>123</ele>
        <time>2025-05-10T07:57:59Z</time>
      </trkpt>
      <trkpt lat="44.88959" lon="0.88142">
        <ele>122.6</ele>
        <time>2025-05-10T07:58:00Z</time>
      </trkpt>
      <trkpt lat="44.88961" lon="0.8815">
        <ele>122.2</ele>
        <time>2025-05-10T07:58:01Z</time>
      </trkpt>
      <trkpt lat="44.88964" lon="0.88158">
        <ele>122</ele>
        <time>2025-05-10T07:58:02Z</time>
      </trkpt>
      <trkpt lat="44.88966" lon="0.88166">
        <ele>121.4</ele>
        <time>2025-05-10T07:58:03Z</time>
      </trkpt>
      <trkpt lat="44.88969" lon="0.88175">
        <ele>120.8</ele>
        <time>2025-05-10T07:58:04Z</time>
      </trkpt>
      <trkpt lat="44.88973" lon="0.88185">
        <ele>120.2</ele>
        <time>2025-05-10T07:58:05Z</time>
      </trkpt>
      <trkpt lat="44.88976" lon="0.88195">
        <ele>119.4</ele>
        <time>2025-05-10T07:58:06Z</time>
      </trkpt>
      <trkpt lat="44.8898" lon="0.88205">
        <ele>119.2</ele>
        <time>2025-05-10T07:58:07Z</time>
      </trkpt>
      <trkpt lat="44.88982" lon="0.88214">
        <ele>118.4</ele>
        <time>2025-05-10T07:58:08Z</time>
      </trkpt>
      <trkpt lat="44.88985" lon="0.88221">
        <ele>118</ele>
        <time>2025-05-10T07:58:09Z</time>
      </trkpt>
      <trkpt lat="44.88987" lon="0.88225">
        <ele>117</ele>
        <time>2025-05-10T07:58:10Z</time>
      </trkpt>
      <trkpt lat="44.88989" lon="0.88229">
        <ele>117</ele>
        <time>2025-05-10T07:58:11Z</time>
      </trkpt>
      <trkpt lat="44.88988" lon="0.88234">
        <ele>116.8</ele>
        <time>2025-05-10T07:58:12Z</time>
      </trkpt>
      <trkpt lat="44.88987" lon="0.88239">
        <ele>116.8</ele>
        <time>2025-05-10T07:58:13Z</time>
      </trkpt>
      <trkpt lat="44.88985" lon="0.88244">
        <ele>116.8</ele>
        <time>2025-05-10T07:58:14Z</time>
      </trkpt>
      <trkpt lat="44.88983" lon="0.8825">
        <ele>116.8</ele>
        <time>2025-05-10T07:58:15Z</time>
      </trkpt>
      <trkpt lat="44.8898" lon="0.88257">
        <ele>116.6</ele>
        <time>2025-05-10T07:58:16Z</time>
      </trkpt>
      <trkpt lat="44.88978" lon="0.88264">
        <ele>116.4</ele>
        <time>2025-05-10T07:58:17Z</time>
      </trkpt>
      <trkpt lat="44.88975" lon="0.88271">
        <ele>115.8</ele>
        <time>2025-05-10T07:58:18Z</time>
      </trkpt>
      <trkpt lat="44.88972" lon="0.88279">
        <ele>115.2</ele>
        <time>2025-05-10T07:58:19Z</time>
      </trkpt>
      <trkpt lat="44.88969" lon="0.88288">
        <ele>114.8</ele>
        <time>2025-05-10T07:58:20Z</time>
      </trkpt>
      <trkpt lat="44.88966" lon="0.88296">
        <ele>114.2</ele>
        <time>2025-05-10T07:58:21Z</time>
      </trkpt>
      <trkpt lat="44.88963" lon="0.88305">
        <ele>113.6</ele>
        <time>2025-05-10T07:58:22Z</time>
      </trkpt>
      <trkpt lat="44.88959" lon="0.88314">
        <ele>113</ele>
        <time>2025-05-10T07:58:23Z</time>
      </trkpt>
      <trkpt lat="44.88956" lon="0.88323">
        <ele>112.6</ele>
        <time>2025-05-10T07:58:24Z</time>
      </trkpt>
      <trkpt lat="44.88953" lon="0.88332">
        <ele>111.6</ele>
        <time>2025-05-10T07:58:25Z</time>
      </trkpt>
      <trkpt lat="44.8895" lon="0.88341">
        <ele>111</ele>
        <time>2025-05-10T07:58:26Z</time>
      </trkpt>
      <trkpt lat="44.88947" lon="0.8835">
        <ele>110</ele>
        <time>2025-05-10T07:58:27Z</time>
      </trkpt>
      <trkpt lat="44.88944" lon="0.88359">
        <ele>109.2</ele>
        <time>2025-05-10T07:58:28Z</time>
      </trkpt>
      <trkpt lat="44.88941" lon="0.8837">
        <ele>108.8</ele>
        <time>2025-05-10T07:58:29Z</time>
      </trkpt>
      <trkpt lat="44.88937" lon="0.88381">
        <ele>108.6</ele>
        <time>2025-05-10T07:58:30Z</time>
      </trkpt>
      <trkpt lat="44.88934" lon="0.88392">
        <ele>108.4</ele>
        <time>2025-05-10T07:58:31Z</time>
      </trkpt>
      <trkpt lat="44.8893" lon="0.88403">
        <ele>107.6</ele>
        <time>2025-05-10T07:58:32Z</time>
      </trkpt>
      <trkpt lat="44.88925" lon="0.88414">
        <ele>106.4</ele>
        <time>2025-05-10T07:58:33Z</time>
      </trkpt>
      <trkpt lat="44.8892" lon="0.88424">
        <ele>105.4</ele>
        <time>2025-05-10T07:58:34Z</time>
      </trkpt>
      <trkpt lat="44.88915" lon="0.88432">
        <ele>104.6</ele>
        <time>2025-05-10T07:58:35Z</time>
      </trkpt>
      <trkpt lat="44.8891" lon="0.88437">
        <ele>104</ele>
        <time>2025-05-10T07:58:36Z</time>
      </trkpt>
      <trkpt lat="44.88907" lon="0.88438">
        <ele>102.8</ele>
        <time>2025-05-10T07:58:37Z</time>
      </trkpt>
      <trkpt lat="44.88904" lon="0.88439">
        <ele>102.2</ele>
        <time>2025-05-10T07:58:38Z</time>
      </trkpt>
      <trkpt lat="44.88902" lon="0.88441">
        <ele>102.2</ele>
        <time>2025-05-10T07:58:39Z</time>
      </trkpt>
      <trkpt lat="44.88902" lon="0.88445">
        <ele>102.2</ele>
        <time>2025-05-10T07:58:40Z</time>
      </trkpt>
      <trkpt lat="44.88901" lon="0.88448">
        <ele>102.2</ele>
        <time>2025-05-10T07:58:41Z</time>
      </trkpt>
      <trkpt lat="44.88899" lon="0.88452">
        <ele>102.2</ele>
        <time>2025-05-10T07:58:42Z</time>
      </trkpt>
      <trkpt lat="44.88895" lon="0.88455">
        <ele>102.2</ele>
        <time>2025-05-10T07:58:43Z</time>
      </trkpt>
      <trkpt lat="44.8889" lon="0.88458">
        <ele>102.2</ele>
        <time>2025-05-10T07:58:44Z</time>
      </trkpt>
      <trkpt lat="44.88886" lon="0.88461">
        <ele>101.8</ele>
        <time>2025-05-10T07:58:45Z</time>
      </trkpt>
      <trkpt lat="44.88881" lon="0.88466">
        <ele>101</ele>
        <time>2025-05-10T07:58:46Z</time>
      </trkpt>
      <trkpt lat="44.88875" lon="0.88471">
        <ele>100.4</ele>
        <time>2025-05-10T07:58:47Z</time>
      </trkpt>
      <trkpt lat="44.8887" lon="0.88478">
        <ele>99</ele>
        <time>2025-05-10T07:58:48Z</time>
      </trkpt>
      <trkpt lat="44.88864" lon="0.88486">
        <ele>97.8</ele>
        <time>2025-05-10T07:58:49Z</time>
      </trkpt>
      <trkpt lat="44.88859" lon="0.88496">
        <ele>96.6</ele>
        <time>2025-05-10T07:58:50Z</time>
      </trkpt>
      <trkpt lat="44.88854" lon="0.88506">
        <ele>95.4</ele>
        <time>2025-05-10T07:58:51Z</time>
      </trkpt>
      <trkpt lat="44.88848" lon="0.88518">
        <ele>94.4</ele>
        <time>2025-05-10T07:58:52Z</time>
      </trkpt>
      <trkpt lat="44.88843" lon="0.88529">
        <ele>92.4</ele>
        <time>2025-05-10T07:58:53Z</time>
      </trkpt>
      <trkpt lat="44.88837" lon="0.88541">
        <ele>92</ele>
        <time>2025-05-10T07:58:54Z</time>
      </trkpt>
      <trkpt lat="44.88832" lon="0.88552">
        <ele>90.6</ele>
        <time>2025-05-10T07:58:55Z</time>
      </trkpt>
      <trkpt lat="44.88827" lon="0.88562">
        <ele>88.8</ele>
        <time>2025-05-10T07:58:56Z</time>
      </trkpt>
      <trkpt lat="44.88823" lon="0.8857">
        <ele>87.4</ele>
        <time>2025-05-10T07:58:57Z</time>
      </trkpt>
      <trkpt lat="44.88819" lon="0.88577">
        <ele>86.2</ele>
        <time>2025-05-10T07:58:58Z</time>
      </trkpt>
      <trkpt lat="44.88815" lon="0.88586">
        <ele>84.8</ele>
        <time>2025-05-10T07:58:59Z</time>
      </trkpt>
      <trkpt lat="44.8881" lon="0.88595">
        <ele>83.6</ele>
        <time>2025-05-10T07:59:00Z</time>
      </trkpt>
      <trkpt lat="44.88805" lon="0.88605">
        <ele>83.2</ele>
        <time>2025-05-10T07:59:01Z</time>
      </trkpt>
      <trkpt lat="44.88801" lon="0.88616">
        <ele>82.8</ele>
        <time>2025-05-10T07:59:02Z</time>
      </trkpt>
      <trkpt lat="44.88796" lon="0.88628">
        <ele>80.8</ele>
        <time>2025-05-10T07:59:03Z</time>
      </trkpt>
      <trkpt lat="44.8879" lon="0.8864">
        <ele>79.4</ele>
        <time>2025-05-10T07:59:04Z</time>
      </trkpt>
      <trkpt lat="44.88784" lon="0.88652">
        <ele>77.4</ele>
        <time>2025-05-10T07:59:05Z</time>
      </trkpt>
      <trkpt lat="44.88778" lon="0.88663">
        <ele>75.8</ele>
        <time>2025-05-10T07:59:06Z</time>
      </trkpt>
      <trkpt lat="44.88773" lon="0.88674">
        <ele>73.8</ele>
        <time>2025-05-10T07:59:07Z</time>
      </trkpt>
      <trkpt lat="44.88767" lon="0.88684">
        <ele>73</ele>
        <time>2025-05-10T07:59:08Z</time>
      </trkpt>
      <trkpt lat="44.88762" lon="0.88693">
        <ele>71.2</ele>
        <time>2025-05-10T07:59:09Z</time>
      </trkpt>
      <trkpt lat="44.88758" lon="0.88701">
        <ele>69.8</ele>
        <time>2025-05-10T07:59:10Z</time>
      </trkpt>
      <trkpt lat="44.88754" lon="0.88708">
        <ele>69.2</ele>
        <time>2025-05-10T07:59:11Z</time>
      </trkpt>
      <trkpt lat="44.88751" lon="0.88714">
        <ele>69.2</ele>
        <time>2025-05-10T07:59:12Z</time>
      </trkpt>
      <trkpt lat="44.88748" lon="0.88721">
        <ele>69.2</ele>
        <time>2025-05-10T07:59:13Z</time>
      </trkpt>
      <trkpt lat="44.88747" lon="0.8873">
        <ele>69</ele>
        <time>2025-05-10T07:59:14Z</time>
      </trkpt>
      <trkpt lat="44.88746" lon="0.8874">
        <ele>69</ele>
        <time>2025-05-10T07:59:15Z</time>
      </trkpt>
      <trkpt lat="44.88745" lon="0.88749">
        <ele>68.8</ele>
        <time>2025-05-10T07:59:16Z</time>
      </trkpt>
      <trkpt lat="44.88745" lon="0.88759">
        <ele>68.2</ele>
        <time>2025-05-10T07:59:17Z</time>
      </trkpt>
      <trkpt lat="44.88744" lon="0.88769">
        <ele>67.2</ele>
        <time>2025-05-10T07:59:18Z</time>
      </trkpt>
      <trkpt lat="44.88743" lon="0.88778">
        <ele>66.8</ele>
        <time>2025-05-10T07:59:19Z</time>
      </trkpt>
      <trkpt lat="44.88742" lon="0.88789">
        <ele>66.2</ele>
        <time>2025-05-10T07:59:20Z</time>
      </trkpt>
      <trkpt lat="44.88741" lon="0.88799">
        <ele>65.6</ele>
        <time>2025-05-10T07:59:21Z</time>
      </trkpt>
      <trkpt lat="44.8874" lon="0.88809">
        <ele>65.4</ele>
        <time>2025-05-10T07:59:22Z</time>
      </trkpt>
      <trkpt lat="44.88739" lon="0.88819">
        <ele>65.4</ele>
        <time>2025-05-10T07:59:23Z</time>
      </trkpt>
      <trkpt lat="44.88739" lon="0.88828">
        <ele>65.2</ele>
        <time>2025-05-10T07:59:24Z</time>
      </trkpt>
      <trkpt lat="44.88738" lon="0.88835">
        <ele>65.2</ele>
        <time>2025-05-10T07:59:25Z</time>
      </trkpt>
      <trkpt lat="44.88737" lon="0.88842">
        <ele>65.2</ele>
        <time>2025-05-10T07:59:26Z</time>
      </trkpt>
      <trkpt lat="44.88736" lon="0.8885">
        <ele>65.4</ele>
        <time>2025-05-10T07:59:27Z</time>
      </trkpt>
      <trkpt lat="44.88734" lon="0.88856">
        <ele>65.6</ele>
        <time>2025-05-10T07:59:28Z</time>
      </trkpt>
      <trkpt lat="44.88732" lon="0.88863">
        <ele>65.8</ele>
        <time>2025-05-10T07:59:29Z</time>
      </trkpt>
      <trkpt lat="44.8873" lon="0.88868">
        <ele>66</ele>
        <time>2025-05-10T07:59:30Z</time>
      </trkpt>
      <trkpt lat="44.88728" lon="0.88873">
        <ele>66.4</ele>
        <time>2025-05-10T07:59:31Z</time>
      </trkpt>
      <trkpt lat="44.88725" lon="0.88876">
        <ele>66.8</ele>
        <time>2025-05-10T07:59:32Z</time>
      </trkpt>
      <trkpt lat="44.88723" lon="0.88879">
        <ele>67</ele>
        <time>2025-05-10T07:59:33Z</time>
      </trkpt>
      <trkpt lat="44.88722" lon="0.88882">
        <ele>67.8</ele>
        <time>2025-05-10T07:59:34Z</time>
      </trkpt>
      <trkpt lat="44.88721" lon="0.88884">
        <ele>68.2</ele>
        <time>2025-05-10T07:59:35Z</time>
      </trkpt>
      <trkpt lat="44.88719" lon="0.88885">
        <ele>68.8</ele>
        <time>2025-05-10T07:59:36Z</time>
      </trkpt>
      <trkpt lat="44.88718" lon="0.88885">
        <ele>69.4</ele>
        <time>2025-05-10T07:59:37Z</time>
      </trkpt>
      <trkpt lat="44.88716" lon="0.88886">
        <ele>69.8</ele>
        <time>2025-05-10T07:59:38Z</time>
      </trkpt>
      <trkpt lat="44.88715" lon="0.88887">
        <ele>70.4</ele>
        <time>2025-05-10T07:59:39Z</time>
      </trkpt>
      <trkpt lat="44.88713" lon="0.88888">
        <ele>70.8</ele>
        <time>2025-05-10T07:59:40Z</time>
      </trkpt>
      <trkpt lat="44.88712" lon="0.88888">
        <ele>71.2</ele>
        <time>2025-05-10T07:59:41Z</time>
      </trkpt>
      <trkpt lat="44.8871" lon="0.88889">
        <ele>71.4</ele>
        <time>2025-05-10T07:59:42Z</time>
      </trkpt>
      <trkpt lat="44.88709" lon="0.8889">
        <ele>71.6</ele>
        <time>2025-05-10T07:59:43Z</time>
      </trkpt>
      <trkpt lat="44.88707" lon="0.88891">
        <ele>72</ele>
        <time>2025-05-10T07:59:44Z</time>
      </trkpt>
      <trkpt lat="44.88705" lon="0.88891">
        <ele>72.2</ele>
        <time>2025-05-10T07:59:45Z</time>
      </trkpt>
      <trkpt lat="44.88703" lon="0.88892">
        <ele>72.4</ele>
        <time>2025-05-10T07:59:46Z</time>
      </trkpt>
      <trkpt lat="44.88702" lon="0.88892">
        <ele>72.8</ele>
        <time>2025-05-10T07:59:47Z</time>
      </trkpt>
      <trkpt lat="44.88701" lon="0.88893">
        <ele>73</ele>
        <time>2025-05-10T07:59:48Z</time>
      </trkpt>
      <trkpt lat="44.88699" lon="0.88894">
        <ele>73.4</ele>
        <time>2025-05-10T07:59:49Z</time>
      </trkpt>
      <trkpt lat="44.88698" lon="0.88895">
        <ele>73.6</ele>
        <time>2025-05-10T07:59:50Z</time>
      </trkpt>
      <trkpt lat="44.88696" lon="0.88895">
        <ele>73.8</ele>
        <time>2025-05-10T07:59:51Z</time>
      </trkpt>
      <trkpt lat="44.88694" lon="0.88896">
        <ele>74</ele>
        <time>2025-05-10T07:59:52Z</time>
      </trkpt>
      <trkpt lat="44.88693" lon="0.88896">
        <ele>74.2</ele>
        <time>2025-05-10T07:59:53Z</time>
      </trkpt>
      <trkpt lat="44.88691" lon="0.88897">
        <ele>74.6</ele>
        <time>2025-05-10T07:59:54Z</time>
      </trkpt>
      <trkpt lat="44.88689" lon="0.88897">
        <ele>74.8</ele>
        <time>2025-05-10T07:59:55Z</time>
      </trkpt>
      <trkpt lat="44.88688" lon="0.88898">
        <ele>75.2</ele>
        <time>2025-05-10T07:59:56Z</time>
      </trkpt>
      <trkpt lat="44.88686" lon="0.88898">
        <ele>75.4</ele>
        <time>2025-05-10T07:59:57Z</time>
      </trkpt>
      <trkpt lat="44.88685" lon="0.88898">
        <ele>75.6</ele>
        <time>2025-05-10T07:59:58Z</time>
      </trkpt>
      <trkpt lat="44.88683" lon="0.88899">
        <ele>75.8</ele>
        <time>2025-05-10T07:59:59Z</time>
      </trkpt>
      <trkpt lat="44.88682" lon="0.88899">
        <ele>76.2</ele>
        <time>2025-05-10T08:00:00Z</time>
      </trkpt>
      <trkpt lat="44.88681" lon="0.889">
        <ele>76.6</ele>
        <time>2025-05-10T08:00:01Z</time>
      </trkpt>
      <trkpt lat="44.88679" lon="0.889">
        <ele>76.8</ele>
        <time>2025-05-10T08:00:02Z</time>
      </trkpt>
      <trkpt lat="44.88678" lon="0.88901">
        <ele>77</ele>
        <time>2025-05-10T08:00:03Z</time>
      </trkpt>
      <trkpt lat="44.88677" lon="0.88901">
        <ele>77.2</ele>
        <time>2025-05-10T08:00:04Z</time>
      </trkpt>
      <trkpt lat="44.88676" lon="0.88902">
        <ele>77.4</ele>
        <time>2025-05-10T08:00:05Z</time>
      </trkpt>
      <trkpt lat="44.88674" lon="0.88903">
        <ele>77.6</ele>
        <time>2025-05-10T08:00:06Z</time>
      </trkpt>
      <trkpt lat="44.88673" lon="0.88904">
        <ele>77.8</ele>
        <time>2025-05-10T08:00:07Z</time>
      </trkpt>
      <trkpt lat="44.88672" lon="0.88904">
        <ele>78</ele>
        <time>2025-05-10T08:00:08Z</time>
      </trkpt>
      <trkpt lat="44.88671" lon="0.88906">
        <ele>78.2</ele>
        <time>2025-05-10T08:00:09Z</time>
      </trkpt>
      <trkpt lat="44.8867" lon="0.88906">
        <ele>78.4</ele>
        <time>2025-05-10T08:00:10Z</time>
      </trkpt>
      <trkpt lat="44.88669" lon="0.88907">
        <ele>78.6</ele>
        <time>2025-05-10T08:00:11Z</time>
      </trkpt>
      <trkpt lat="44.88668" lon="0.88908">
        <ele>78.8</ele>
        <time>2025-05-10T08:00:12Z</time>
      </trkpt>
      <trkpt lat="44.88667" lon="0.88908">
        <ele>79</ele>
        <time>2025-05-10T08:00:13Z</time>
      </trkpt>
      <trkpt lat="44.88666" lon="0.88909">
        <ele>79.2</ele>
        <time>2025-05-10T08:00:14Z</time>
      </trkpt>
      <trkpt lat="44.88665" lon="0.8891">
        <ele>79.4</ele>
        <time>2025-05-10T08:00:15Z</time>
      </trkpt>
      <trkpt lat="44.88664" lon="0.88911">
        <ele>79.6</ele>
        <time>2025-05-10T08:00:16Z</time>
      </trkpt>
      <trkpt lat="44.88663" lon="0.88913">
        <ele>79.8</ele>
        <time>2025-05-10T08:00:17Z</time>
      </trkpt>
      <trkpt lat="44.88662" lon="0.88913">
        <ele>80</ele>
        <time>2025-05-10T08:00:18Z</time>
      </trkpt>
      <trkpt lat="44.88661" lon="0.88914">
        <ele>80.2</ele>
        <time>2025-05-10T08:00:19Z</time>
      </trkpt>
      <trkpt lat="44.8866" lon="0.88915">
        <ele>80.2</ele>
        <time>2025-05-10T08:00:20Z</time>
      </trkpt>
      <trkpt lat="44.88658" lon="0.88916">
        <ele>80.6</ele>
        <time>2025-05-10T08:00:21Z</time>
      </trkpt>
      <trkpt lat="44.88657" lon="0.88917">
        <ele>80.8</ele>
        <time>2025-05-10T08:00:22Z</time>
      </trkpt>
      <trkpt lat="44.88656" lon="0.88918">
        <ele>81.2</ele>
        <time>2025-05-10T08:00:23Z</time>
      </trkpt>
      <trkpt lat="44.88654" lon="0.88919">
        <ele>81.2</ele>
        <time>2025-05-10T08:00:24Z</time>
      </trkpt>
      <trkpt lat="44.88653" lon="0.88919">
        <ele>81.2</ele>
        <time>2025-05-10T08:00:25Z</time>
      </trkpt>
      <trkpt lat="44.88652" lon="0.8892">
        <ele>81.6</ele>
        <time>2025-05-10T08:00:26Z</time>
      </trkpt>
      <trkpt lat="44.88651" lon="0.88921">
        <ele>81.8</ele>
        <time>2025-05-10T08:00:27Z</time>
      </trkpt>
      <trkpt lat="44.8865" lon="0.88922">
        <ele>82</ele>
        <time>2025-05-10T08:00:28Z</time>
      </trkpt>
      <trkpt lat="44.88649" lon="0.88922">
        <ele>82.4</ele>
        <time>2025-05-10T08:00:29Z</time>
      </trkpt>
      <trkpt lat="44.88648" lon="0.88924">
        <ele>82.6</ele>
        <time>2025-05-10T08:00:30Z</time>
      </trkpt>
      <trkpt lat="44.88647" lon="0.88925">
        <ele>82.8</ele>
        <time>2025-05-10T08:00:31Z</time>
      </trkpt>
      <trkpt lat="44.88646" lon="0.88926">
        <ele>83.2</ele>
        <time>2025-05-10T08:00:32Z</time>
      </trkpt>
      <trkpt lat="44.88644" lon="0.88927">
        <ele>83.6</ele>
        <time>2025-05-10T08:00:33Z</time>
      </trkpt>
      <trkpt lat="44.88643" lon="0.88928">
        <ele>83.8</ele>
        <time>2025-05-10T08:00:34Z</time>
      </trkpt>
      <trkpt lat="44.88642" lon="0.88929">
        <ele>84</ele>
        <time>2025-05-10T08:00:35Z</time>
      </trkpt>
      <trkpt lat="44.88641" lon="0.8893">
        <ele>84.2</ele>
        <time>2025-05-10T08:00:36Z</time>
      </trkpt>
      <trkpt lat="44.8864" lon="0.88931">
        <ele>84.6</ele>
        <time>2025-05-10T08:00:37Z</time>
      </trkpt>
      <trkpt lat="44.88639" lon="0.88933">
        <ele>84.8</ele>
        <time>2025-05-10T08:00:38Z</time>
      </trkpt>
      <trkpt lat="44.88638" lon="0.88933">
        <ele>85</ele>
        <time>2025-05-10T08:00:39Z</time>
      </trkpt>
      <trkpt lat="44.88637" lon="0.88934">
        <ele>85.4</ele>
        <time>2025-05-10T08:00:40Z</time>
      </trkpt>
      <trkpt lat="44.88636" lon="0.88935">
        <ele>85.6</ele>
        <time>2025-05-10T08:00:41Z</time>
      </trkpt>
      <trkpt lat="44.88635" lon="0.88935">
        <ele>85.8</ele>
        <time>2025-05-10T08:00:42Z</time>
      </trkpt>
      <trkpt lat="44.88634" lon="0.88936">
        <ele>86</ele>
        <time>2025-05-10T08:00:43Z</time>
      </trkpt>
      <trkpt lat="44.88633" lon="0.88937">
        <ele>86.4</ele>
        <time>2025-05-10T08:00:44Z</time>
      </trkpt>
      <trkpt lat="44.88632" lon="0.88936">
        <ele>86.6</ele>
        <time>2025-05-10T08:00:45Z</time>
      </trkpt>
      <trkpt lat="44.8863" lon="0.88935">
        <ele>86.8</ele>
        <time>2025-05-10T08:00:46Z</time>
      </trkpt>
      <trkpt lat="44.88628" lon="0.88933">
        <ele>86.8</ele>
        <time>2025-05-10T08:00:47Z</time>
      </trkpt>
      <trkpt lat="44.88624" lon="0.8893">
        <ele>86.8</ele>
        <time>2025-05-10T08:00:48Z</time>
      </trkpt>
      <trkpt lat="44.8862" lon="0.88927">
        <ele>86.8</ele>
        <time>2025-05-10T08:00:49Z</time>
      </trkpt>
      <trkpt lat="44.88615" lon="0.88923">
        <ele>86.8</ele>
        <time>2025-05-10T08:00:50Z</time>
      </trkpt>
      <trkpt lat="44.8861" lon="0.8892">
        <ele>86</ele>
        <time>2025-05-10T08:00:51Z</time>
      </trkpt>
      <trkpt lat="44.88604" lon="0.88916">
        <ele>85.4</ele>
        <time>2025-05-10T08:00:52Z</time>
      </trkpt>
      <trkpt lat="44.88599" lon="0.88913">
        <ele>84.6</ele>
        <time>2025-05-10T08:00:53Z</time>
      </trkpt>
      <trkpt lat="44.88593" lon="0.8891">
        <ele>83.8</ele>
        <time>2025-05-10T08:00:54Z</time>
      </trkpt>
      <trkpt lat="44.88586" lon="0.88907">
        <ele>83.2</ele>
        <time>2025-05-10T08:00:55Z</time>
      </trkpt>
      <trkpt lat="44.88581" lon="0.88905">
        <ele>82.8</ele>
        <time>2025-05-10T08:00:56Z</time>
      </trkpt>
      <trkpt lat="44.88575" lon="0.88902">
        <ele>82.2</ele>
        <time>2025-05-10T08:00:57Z</time>
      </trkpt>
      <trkpt lat="44.88569" lon="0.889">
        <ele>81.6</ele>
        <time>2025-05-10T08:00:58Z</time>
      </trkpt>
      <trkpt lat="44.88563" lon="0.88899">
        <ele>81.6</ele>
        <time>2025-05-10T08:00:59Z</time>
      </trkpt>
      <trkpt lat="44.88558" lon="0.88897">
        <ele>81.6</ele>
        <time>2025-05-10T08:01:00Z</time>
      </trkpt>
      <trkpt lat="44.88554" lon="0.88895">
        <ele>81.6</ele>
        <time>2025-05-10T08:01:01Z</time>
      </trkpt>
      <trkpt lat="44.88551" lon="0.88893">
        <ele>81.8</ele>
        <time>2025-05-10T08:01:02Z</time>
      </trkpt>
      <trkpt lat="44.88549" lon="0.88892">
        <ele>82</ele>
        <time>2025-05-10T08:01:03Z</time>
      </trkpt>
      <trkpt lat="44.88548" lon="0.88891">
        <ele>82.4</ele>
        <time>2025-05-10T08:01:04Z</time>
      </trkpt>
      <trkpt lat="44.88548" lon="0.88891">
        <ele>82.8</ele>
        <time>2025-05-10T08:01:05Z</time>
      </trkpt>
      <trkpt lat="44.88547" lon="0.88901">
        <ele>84</ele>
        <time>2025-05-10T08:01:43Z</time>
      </trkpt>
      <trkpt lat="44.88548" lon="0.88903">
        <ele>84</ele>
        <time>2025-05-10T08:01:44Z</time>
      </trkpt>
      <trkpt lat="44.88549" lon="0.88904">
        <ele>84</ele>
        <time>2025-05-10T08:01:45Z</time>
      </trkpt>
      <trkpt lat="44.8855" lon="0.88906">
        <ele>84.2</ele>
        <time>2025-05-10T08:01:46Z</time>
      </trkpt>
      <trkpt lat="44.88551" lon="0.88908">
        <ele>84.6</ele>
        <time>2025-05-10T08:01:47Z</time>
      </trkpt>
      <trkpt lat="44.88552" lon="0.8891">
        <ele>84.8</ele>
        <time>2025-05-10T08:01:48Z</time>
      </trkpt>
      <trkpt lat="44.88553" lon="0.88911">
        <ele>85.2</ele>
        <time>2025-05-10T08:01:49Z</time>
      </trkpt>
      <trkpt lat="44.88554" lon="0.88913">
        <ele>85.4</ele>
        <time>2025-05-10T08:01:50Z</time>
      </trkpt>
      <trkpt lat="44.88554" lon="0.88915">
        <ele>85.8</ele>
        <time>2025-05-10T08:01:51Z</time>
      </trkpt>
      <trkpt lat="44.88555" lon="0.88917">
        <ele>86</ele>
        <time>2025-05-10T08:01:52Z</time>
      </trkpt>
      <trkpt lat="44.88555" lon="0.88919">
        <ele>86.2</ele>
        <time>2025-05-10T08:01:53Z</time>
      </trkpt>
      <trkpt lat="44.88555" lon="0.88921">
        <ele>86.4</ele>
        <time>2025-05-10T08:01:54Z</time>
      </trkpt>
      <trkpt lat="44.88556" lon="0.88922">
        <ele>86.6</ele>
        <time>2025-05-10T08:01:55Z</time>
      </trkpt>
      <trkpt lat="44.88556" lon="0.88924">
        <ele>86.8</ele>
        <time>2025-05-10T08:01:56Z</time>
      </trkpt>
      <trkpt lat="44.88557" lon="0.88926">
        <ele>87</ele>
        <time>2025-05-10T08:01:57Z</time>
      </trkpt>
      <trkpt lat="44.88557" lon="0.88928">
        <ele>87.2</ele>
        <time>2025-05-10T08:01:58Z</time>
      </trkpt>
      <trkpt lat="44.88557" lon="0.88929">
        <ele>87.6</ele>
        <time>2025-05-10T08:01:59Z</time>
      </trkpt>
      <trkpt lat="44.88558" lon="0.88931">
        <ele>87.6</ele>
        <time>2025-05-10T08:02:00Z</time>
      </trkpt>
      <trkpt lat="44.88559" lon="0.88933">
        <ele>88</ele>
        <time>2025-05-10T08:02:01Z</time>
      </trkpt>
      <trkpt lat="44.88559" lon="0.88935">
        <ele>88.2</ele>
        <time>2025-05-10T08:02:02Z</time>
      </trkpt>
      <trkpt lat="44.88559" lon="0.88937">
        <ele>88.4</ele>
        <time>2025-05-10T08:02:03Z</time>
      </trkpt>
      <trkpt lat="44.8856" lon="0.88939">
        <ele>88.6</ele>
        <time>2025-05-10T08:02:04Z</time>
      </trkpt>
      <trkpt lat="44.8856" lon="0.88941">
        <ele>88.6</ele>
        <time>2025-05-10T08:02:05Z</time>
      </trkpt>
      <trkpt lat="44.8856" lon="0.88943">
        <ele>89</ele>
        <time>2025-05-10T08:02:06Z</time>
      </trkpt>
      <trkpt lat="44.8856" lon="0.88945">
        <ele>89.6</ele>
        <time>2025-05-10T08:02:07Z</time>
      </trkpt>
      <trkpt lat="44.88561" lon="0.88946">
        <ele>89.6</ele>
        <time>2025-05-10T08:02:08Z</time>
      </trkpt>
      <trkpt lat="44.88561" lon="0.88948">
        <ele>89.8</ele>
        <time>2025-05-10T08:02:09Z</time>
      </trkpt>
      <trkpt lat="44.88561" lon="0.8895">
        <ele>89.8</ele>
        <time>2025-05-10T08:02:10Z</time>
      </trkpt>
      <trkpt lat="44.88562" lon="0.88952">
        <ele>90</ele>
        <time>2025-05-10T08:02:11Z</time>
      </trkpt>
      <trkpt lat="44.88562" lon="0.88954">
        <ele>90.2</ele>
        <time>2025-05-10T08:02:12Z</time>
      </trkpt>
      <trkpt lat="44.88562" lon="0.88956">
        <ele>90.4</ele>
        <time>2025-05-10T08:02:13Z</time>
      </trkpt>
      <trkpt lat="44.88563" lon="0.88958">
        <ele>90.8</ele>
        <time>2025-05-10T08:02:14Z</time>
      </trkpt>
      <trkpt lat="44.88563" lon="0.8896">
        <ele>91</ele>
        <time>2025-05-10T08:02:15Z</time>
      </trkpt>
      <trkpt lat="44.88563" lon="0.88962">
        <ele>91.2</ele>
        <time>2025-05-10T08:02:16Z</time>
      </trkpt>
      <trkpt lat="44.88563" lon="0.88964">
        <ele>91.6</ele>
        <time>2025-05-10T08:02:17Z</time>
      </trkpt>
      <trkpt lat="44.88564" lon="0.88966">
        <ele>91.6</ele>
        <time>2025-05-10T08:02:18Z</time>
      </trkpt>
      <trkpt lat="44.88565" lon="0.88968">
        <ele>92</ele>
        <time>2025-05-10T08:02:19Z</time>
      </trkpt>
      <trkpt lat="44.88565" lon="0.8897">
        <ele>92.2</ele>
        <time>2025-05-10T08:02:20Z</time>
      </trkpt>
      <trkpt lat="44.88565" lon="0.88972">
        <ele>92.4</ele>
        <time>2025-05-10T08:02:21Z</time>
      </trkpt>
      <trkpt lat="44.88565" lon="0.88974">
        <ele>92.6</ele>
        <time>2025-05-10T08:02:22Z</time>
      </trkpt>
      <trkpt lat="44.88565" lon="0.88976">
        <ele>92.6</ele>
        <time>2025-05-10T08:02:23Z</time>
      </trkpt>
      <trkpt lat="44.88565" lon="0.88979">
        <ele>92.8</ele>
        <time>2025-05-10T08:02:24Z</time>
      </trkpt>
      <trkpt lat="44.88565" lon="0.88981">
        <ele>93</ele>
        <time>2025-05-10T08:02:25Z</time>
      </trkpt>
      <trkpt lat="44.88564" lon="0.88983">
        <ele>93.2</ele>
        <time>2025-05-10T08:02:26Z</time>
      </trkpt>
      <trkpt lat="44.88564" lon="0.88985">
        <ele>93.4</ele>
        <time>2025-05-10T08:02:27Z</time>
      </trkpt>
      <trkpt lat="44.88563" lon="0.88987">
        <ele>93.6</ele>
        <time>2025-05-10T08:02:28Z</time>
      </trkpt>
      <trkpt lat="44.88563" lon="0.8899">
        <ele>93.6</ele>
        <time>2025-05-10T08:02:29Z</time>
      </trkpt>
      <trkpt lat="44.88563" lon="0.88992">
        <ele>93.6</ele>
        <time>2025-05-10T08:02:30Z</time>
      </trkpt>
      <trkpt lat="44.88562" lon="0.88995">
        <ele>93.8</ele>
        <time>2025-05-10T08:02:31Z</time>
      </trkpt>
      <trkpt lat="44.88561" lon="0.88997">
        <ele>93.8</ele>
        <time>2025-05-10T08:02:32Z</time>
      </trkpt>
      <trkpt lat="44.8856" lon="0.88999">
        <ele>93.8</ele>
        <time>2025-05-10T08:02:33Z</time>
      </trkpt>
      <trkpt lat="44.88559" lon="0.89002">
        <ele>94</ele>
        <time>2025-05-10T08:02:34Z</time>
      </trkpt>
      <trkpt lat="44.88558" lon="0.89004">
        <ele>94</ele>
        <time>2025-05-10T08:02:35Z</time>
      </trkpt>
      <trkpt lat="44.88557" lon="0.89007">
        <ele>94</ele>
        <time>2025-05-10T08:02:36Z</time>
      </trkpt>
      <trkpt lat="44.88556" lon="0.89009">
        <ele>94</ele>
        <time>2025-05-10T08:02:37Z</time>
      </trkpt>
      <trkpt lat="44.88555" lon="0.89011">
        <ele>94</ele>
        <time>2025-05-10T08:02:38Z</time>
      </trkpt>
      <trkpt lat="44.88553" lon="0.89013">
        <ele>94</ele>
        <time>2025-05-10T08:02:39Z</time>
      </trkpt>
      <trkpt lat="44.88552" lon="0.89013">
        <ele>94</ele>
        <time>2025-05-10T08:02:40Z</time>
      </trkpt>
      <trkpt lat="44.88551" lon="0.89015">
        <ele>94</ele>
        <time>2025-05-10T08:02:41Z</time>
      </trkpt>
      <trkpt lat="44.8855" lon="0.89016">
        <ele>94.2</ele>
        <time>2025-05-10T08:02:42Z</time>
      </trkpt>
      <trkpt lat="44.88549" lon="0.89017">
        <ele>94.4</ele>
        <time>2025-05-10T08:02:43Z</time>
      </trkpt>
      <trkpt lat="44.88549" lon="0.89018">
        <ele>94.6</ele>
        <time>2025-05-10T08:02:44Z</time>
      </trkpt>
      <trkpt lat="44.88548" lon="0.89018">
        <ele>94.8</ele>
        <time>2025-05-10T08:02:45Z</time>
      </trkpt>
      <trkpt lat="44.88547" lon="0.89018">
        <ele>94.8</ele>
        <time>2025-05-10T08:02:46Z</time>
      </trkpt>
      <trkpt lat="44.88546" lon="0.89018">
        <ele>95.2</ele>
        <time>2025-05-10T08:02:47Z</time>
      </trkpt>
      <trkpt lat="44.88545" lon="0.89018">
        <ele>95.4</ele>
        <time>2025-05-10T08:02:48Z</time>
      </trkpt>
      <trkpt lat="44.88544" lon="0.89018">
        <ele>95.6</ele>
        <time>2025-05-10T08:02:49Z</time>
      </trkpt>
      <trkpt lat="44.88543" lon="0.89017">
        <ele>95.8</ele>
        <time>2025-05-10T08:02:50Z</time>
      </trkpt>
      <trkpt lat="44.88541" lon="0.89016">
        <ele>95.8</ele>
        <time>2025-05-10T08:02:51Z</time>
      </trkpt>
      <trkpt lat="44.8854" lon="0.89016">
        <ele>96</ele>
        <time>2025-05-10T08:02:52Z</time>
      </trkpt>
      <trkpt lat="44.88538" lon="0.89016">
        <ele>96.2</ele>
        <time>2025-05-10T08:02:53Z</time>
      </trkpt>
      <trkpt lat="44.88537" lon="0.89016">
        <ele>96.4</ele>
        <time>2025-05-10T08:02:54Z</time>
      </trkpt>
      <trkpt lat="44.88536" lon="0.89015">
        <ele>96.6</ele>
        <time>2025-05-10T08:02:55Z</time>
      </trkpt>
      <trkpt lat="44.88535" lon="0.89014">
        <ele>96.8</ele>
        <time>2025-05-10T08:02:56Z</time>
      </trkpt>
      <trkpt lat="44.88534" lon="0.89012">
        <ele>97</ele>
        <time>2025-05-10T08:02:57Z</time>
      </trkpt>
      <trkpt lat="44.88535" lon="0.89011">
        <ele>97</ele>
        <time>2025-05-10T08:02:58Z</time>
      </trkpt>
      <trkpt lat="44.88536" lon="0.89012">
        <ele>97.4</ele>
        <time>2025-05-10T08:02:59Z</time>
      </trkpt>
      <trkpt lat="44.88536" lon="0.89013">
        <ele>97.6</ele>
        <time>2025-05-10T08:03:00Z</time>
      </trkpt>
      <trkpt lat="44.88537" lon="0.89015">
        <ele>97.8</ele>
        <time>2025-05-10T08:03:01Z</time>
      </trkpt>
      <trkpt lat="44.88537" lon="0.89015">
        <ele>97.8</ele>
        <time>2025-05-10T08:03:02Z</time>
      </trkpt>
      <trkpt lat="44.88539" lon="0.89017">
        <ele>97.8</ele>
        <time>2025-05-10T08:03:03Z</time>
      </trkpt>
      <trkpt lat="44.8854" lon="0.89017">
        <ele>97.8</ele>
        <time>2025-05-10T08:03:04Z</time>
      </trkpt>
      <trkpt lat="44.88542" lon="0.89018">
        <ele>97.6</ele>
        <time>2025-05-10T08:03:05Z</time>
      </trkpt>
      <trkpt lat="44.88543" lon="0.89018">
        <ele>97.2</ele>
        <time>2025-05-10T08:03:06Z</time>
      </trkpt>
      <trkpt lat="44.88545" lon="0.89018">
        <ele>97</ele>
        <time>2025-05-10T08:03:07Z</time>
      </trkpt>
      <trkpt lat="44.88546" lon="0.89018">
        <ele>96.8</ele>
        <time>2025-05-10T08:03:08Z</time>
      </trkpt>
      <trkpt lat="44.88548" lon="0.89018">
        <ele>96.6</ele>
        <time>2025-05-10T08:03:09Z</time>
      </trkpt>
      <trkpt lat="44.8855" lon="0.89018">
        <ele>96.2</ele>
        <time>2025-05-10T08:03:10Z</time>
      </trkpt>
      <trkpt lat="44.88552" lon="0.89019">
        <ele>96</ele>
        <time>2025-05-10T08:03:11Z</time>
      </trkpt>
      <trkpt lat="44.88553" lon="0.8902">
        <ele>95.8</ele>
        <time>2025-05-10T08:03:12Z</time>
      </trkpt>
      <trkpt lat="44.88554" lon="0.89021">
        <ele>95.4</ele>
        <time>2025-05-10T08:03:13Z</time>
      </trkpt>
      <trkpt lat="44.88553" lon="0.8902">
        <ele>95.2</ele>
        <time>2025-05-10T08:03:14Z</time>
      </trkpt>
      <trkpt lat="44.88558" lon="0.89019">
        <ele>94.6</ele>
        <time>2025-05-10T08:03:19Z</time>
      </trkpt>
      <trkpt lat="44.88559" lon="0.89016">
        <ele>94.6</ele>
        <time>2025-05-10T08:03:20Z</time>
      </trkpt>
      <trkpt lat="44.88559" lon="0.89012">
        <ele>94.6</ele>
        <time>2025-05-10T08:03:21Z</time>
      </trkpt>
      <trkpt lat="44.88559" lon="0.89008">
        <ele>94.4</ele>
        <time>2025-05-10T08:03:22Z</time>
      </trkpt>
      <trkpt lat="44.88559" lon="0.89005">
        <ele>94.4</ele>
        <time>2025-05-10T08:03:23Z</time>
      </trkpt>
      <trkpt lat="44.8856" lon="0.89001">
        <ele>94.2</ele>
        <time>2025-05-10T08:03:24Z</time>
      </trkpt>
      <trkpt lat="44.88561" lon="0.88998">
        <ele>94.2</ele>
        <time>2025-05-10T08:03:25Z</time>
      </trkpt>
      <trkpt lat="44.88563" lon="0.88994">
        <ele>94.2</ele>
        <time>2025-05-10T08:03:26Z</time>
      </trkpt>
      <trkpt lat="44.88566" lon="0.88993">
        <ele>94</ele>
        <time>2025-05-10T08:03:27Z</time>
      </trkpt>
      <trkpt lat="44.88568" lon="0.88993">
        <ele>94</ele>
        <time>2025-05-10T08:03:28Z</time>
      </trkpt>
      <trkpt lat="44.8857" lon="0.88994">
        <ele>94</ele>
        <time>2025-05-10T08:03:29Z</time>
      </trkpt>
      <trkpt lat="44.88572" lon="0.88995">
        <ele>94</ele>
        <time>2025-05-10T08:03:30Z</time>
      </trkpt>
      <trkpt lat="44.88574" lon="0.88997">
        <ele>94</ele>
        <time>2025-05-10T08:03:31Z</time>
      </trkpt>
      <trkpt lat="44.88576" lon="0.88998">
        <ele>94</ele>
        <time>2025-05-10T08:03:32Z</time>
      </trkpt>
      <trkpt lat="44.88578" lon="0.89">
        <ele>94.2</ele>
        <time>2025-05-10T08:03:33Z</time>
      </trkpt>
      <trkpt lat="44.8858" lon="0.89001">
        <ele>94.6</ele>
        <time>2025-05-10T08:03:34Z</time>
      </trkpt>
      <trkpt lat="44.88581" lon="0.89003">
        <ele>94.8</ele>
        <time>2025-05-10T08:03:35Z</time>
      </trkpt>
      <trkpt lat="44.88583" lon="0.89005">
        <ele>95.4</ele>
        <time>2025-05-10T08:03:36Z</time>
      </trkpt>
      <trkpt lat="44.88585" lon="0.89006">
        <ele>95.6</ele>
        <time>2025-05-10T08:03:37Z</time>
      </trkpt>
      <trkpt lat="44.88587" lon="0.89008">
        <ele>96</ele>
        <time>2025-05-10T08:03:38Z</time>
      </trkpt>
      <trkpt lat="44.88589" lon="0.89009">
        <ele>96.2</ele>
        <time>2025-05-10T08:03:39Z</time>
      </trkpt>
      <trkpt lat="44.8859" lon="0.8901">
        <ele>96.4</ele>
        <time>2025-05-10T08:03:40Z</time>
      </trkpt>
      <trkpt lat="44.88592" lon="0.8901">
        <ele>96.6</ele>
        <time>2025-05-10T08:03:41Z</time>
      </trkpt>
      <trkpt lat="44.88594" lon="0.89011">
        <ele>96.8</ele>
        <time>2025-05-10T08:03:42Z</time>
      </trkpt>
      <trkpt lat="44.88596" lon="0.89011">
        <ele>97</ele>
        <time>2025-05-10T08:03:43Z</time>
      </trkpt>
      <trkpt lat="44.88598" lon="0.89011">
        <ele>97.4</ele>
        <time>2025-05-10T08:03:44Z</time>
      </trkpt>
      <trkpt lat="44.88599" lon="0.89012">
        <ele>97.4</ele>
        <time>2025-05-10T08:03:45Z</time>
      </trkpt>
      <trkpt lat="44.88601" lon="0.89013">
        <ele>97.6</ele>
        <time>2025-05-10T08:03:46Z</time>
      </trkpt>
      <trkpt lat="44.88602" lon="0.89014">
        <ele>97.6</ele>
        <time>2025-05-10T08:03:47Z</time>
      </trkpt>
      <trkpt lat="44.88604" lon="0.89015">
        <ele>97.8</ele>
        <time>2025-05-10T08:03:48Z</time>
      </trkpt>
      <trkpt lat="44.88605" lon="0.89016">
        <ele>98</ele>
        <time>2025-05-10T08:03:49Z</time>
      </trkpt>
      <trkpt lat="44.88606" lon="0.89018">
        <ele>98</ele>
        <time>2025-05-10T08:03:50Z</time>
      </trkpt>
      <trkpt lat="44.88607" lon="0.8902">
        <ele>98</ele>
        <time>2025-05-10T08:03:51Z</time>
      </trkpt>
      <trkpt lat="44.88608" lon="0.89023">
        <ele>98</ele>
        <time>2025-05-10T08:03:52Z</time>
      </trkpt>
      <trkpt lat="44.88609" lon="0.89026">
        <ele>98</ele>
        <time>2025-05-10T08:03:53Z</time>
      </trkpt>
      <trkpt lat="44.8861" lon="0.89028">
        <ele>98.4</ele>
        <time>2025-05-10T08:03:54Z</time>
      </trkpt>
      <trkpt lat="44.88611" lon="0.89031">
        <ele>98.8</ele>
        <time>2025-05-10T08:03:55Z</time>
      </trkpt>
      <trkpt lat="44.88613" lon="0.89032">
        <ele>99</ele>
        <time>2025-05-10T08:03:56Z</time>
      </trkpt>
      <trkpt lat="44.88615" lon="0.89033">
        <ele>99.2</ele>
        <time>2025-05-10T08:03:57Z</time>
      </trkpt>
      <trkpt lat="44.88617" lon="0.89033">
        <ele>99.4</ele>
        <time>2025-05-10T08:03:58Z</time>
      </trkpt>
      <trkpt lat="44.88619" lon="0.89034">
        <ele>99.6</ele>
        <time>2025-05-10T08:03:59Z</time>
      </trkpt>
      <trkpt lat="44.8862" lon="0.89035">
        <ele>99.6</ele>
        <time>2025-05-10T08:04:00Z</time>
      </trkpt>
      <trkpt lat="44.88622" lon="0.89036">
        <ele>100</ele>
        <time>2025-05-10T08:04:01Z</time>
      </trkpt>
      <trkpt lat="44.88624" lon="0.89036">
        <ele>100.2</ele>
        <time>2025-05-10T08:04:02Z</time>
      </trkpt>
      <trkpt lat="44.88626" lon="0.89036">
        <ele>100.4</ele>
        <time>2025-05-10T08:04:03Z</time>
      </trkpt>
      <trkpt lat="44.88628" lon="0.89035">
        <ele>100.6</ele>
        <time>2025-05-10T08:04:04Z</time>
      </trkpt>
      <trkpt lat="44.88629" lon="0.89033">
        <ele>101</ele>
        <time>2025-05-10T08:04:05Z</time>
      </trkpt>
      <trkpt lat="44.88631" lon="0.89031">
        <ele>101.4</ele>
        <time>2025-05-10T08:04:06Z</time>
      </trkpt>
      <trkpt lat="44.88632" lon="0.89028">
        <ele>101.4</ele>
        <time>2025-05-10T08:04:07Z</time>
      </trkpt>
      <trkpt lat="44.88632" lon="0.89026">
        <ele>101.6</ele>
        <time>2025-05-10T08:04:08Z</time>
      </trkpt>
      <trkpt lat="44.88633" lon="0.89024">
        <ele>102</ele>
        <time>2025-05-10T08:04:09Z</time>
      </trkpt>
      <trkpt lat="44.88634" lon="0.89023">
        <ele>102</ele>
        <time>2025-05-10T08:04:10Z</time>
      </trkpt>
      <trkpt lat="44.88635" lon="0.89022">
        <ele>102.2</ele>
        <time>2025-05-10T08:04:11Z</time>
      </trkpt>
      <trkpt lat="44.88637" lon="0.89021">
        <ele>102.6</ele>
        <time>2025-05-10T08:04:12Z</time>
      </trkpt>
      <trkpt lat="44.88637" lon="0.8902">
        <ele>102.6</ele>
        <time>2025-05-10T08:04:13Z</time>
      </trkpt>
      <trkpt lat="44.88637" lon="0.89017">
        <ele>103</ele>
        <time>2025-05-10T08:04:14Z</time>
      </trkpt>
      <trkpt lat="44.88636" lon="0.89017">
        <ele>103</ele>
        <time>2025-05-10T08:04:15Z</time>
      </trkpt>
      <trkpt lat="44.88636" lon="0.89016">
        <ele>103.2</ele>
        <time>2025-05-10T08:04:16Z</time>
      </trkpt>
      <trkpt lat="44.88636" lon="0.89016">
        <ele>103.2</ele>
        <time>2025-05-10T08:04:17Z</time>
      </trkpt>
      <trkpt lat="44.88634" lon="0.89011">
        <ele>103.2</ele>
        <time>2025-05-10T08:04:21Z</time>
      </trkpt>
      <trkpt lat="44.88634" lon="0.89009">
        <ele>103.2</ele>
        <time>2025-05-10T08:04:22Z</time>
      </trkpt>
      <trkpt lat="44.88634" lon="0.89007">
        <ele>103.2</ele>
        <time>2025-05-10T08:04:23Z</time>
      </trkpt>
      <trkpt lat="44.88635" lon="0.89005">
        <ele>103.2</ele>
        <time>2025-05-10T08:04:24Z</time>
      </trkpt>
      <trkpt lat="44.88635" lon="0.89003">
        <ele>103.2</ele>
        <time>2025-05-10T08:04:25Z</time>
      </trkpt>
      <trkpt lat="44.88634" lon="0.89001">
        <ele>103.2</ele>
        <time>2025-05-10T08:04:26Z</time>
      </trkpt>
      <trkpt lat="44.88632" lon="0.89001">
        <ele>103.2</ele>
        <time>2025-05-10T08:04:27Z</time>
      </trkpt>
      <trkpt lat="44.88631" lon="0.89003">
        <ele>103.2</ele>
        <time>2025-05-10T08:04:28Z</time>
      </trkpt>
      <trkpt lat="44.8863" lon="0.89004">
        <ele>103.2</ele>
        <time>2025-05-10T08:04:29Z</time>
      </trkpt>
      <trkpt lat="44.8863" lon="0.89007">
        <ele>103</ele>
        <time>2025-05-10T08:04:30Z</time>
      </trkpt>
      <trkpt lat="44.88631" lon="0.8901">
        <ele>102.8</ele>
        <time>2025-05-10T08:04:31Z</time>
      </trkpt>
      <trkpt lat="44.88632" lon="0.89012">
        <ele>102.8</ele>
        <time>2025-05-10T08:04:32Z</time>
      </trkpt>
      <trkpt lat="44.88633" lon="0.89014">
        <ele>102.8</ele>
        <time>2025-05-10T08:04:33Z</time>
      </trkpt>
      <trkpt lat="44.88633" lon="0.89018">
        <ele>102.8</ele>
        <time>2025-05-10T08:04:34Z</time>
      </trkpt>
      <trkpt lat="44.88635" lon="0.8902">
        <ele>102.8</ele>
        <time>2025-05-10T08:04:35Z</time>
      </trkpt>
      <trkpt lat="44.88636" lon="0.89023">
        <ele>102.8</ele>
        <time>2025-05-10T08:04:36Z</time>
      </trkpt>
      <trkpt lat="44.88638" lon="0.89025">
        <ele>102.8</ele>
        <time>2025-05-10T08:04:37Z</time>
      </trkpt>
      <trkpt lat="44.88639" lon="0.89027">
        <ele>102.8</ele>
        <time>2025-05-10T08:04:38Z</time>
      </trkpt>
      <trkpt lat="44.8864" lon="0.89029">
        <ele>102.8</ele>
        <time>2025-05-10T08:04:39Z</time>
      </trkpt>
      <trkpt lat="44.88642" lon="0.89031">
        <ele>102.8</ele>
        <time>2025-05-10T08:04:40Z</time>
      </trkpt>
      <trkpt lat="44.88643" lon="0.89032">
        <ele>103</ele>
        <time>2025-05-10T08:04:41Z</time>
      </trkpt>
      <trkpt lat="44.88644" lon="0.89034">
        <ele>103.2</ele>
        <time>2025-05-10T08:04:42Z</time>
      </trkpt>
      <trkpt lat="44.88646" lon="0.89036">
        <ele>103.4</ele>
        <time>2025-05-10T08:04:43Z</time>
      </trkpt>
      <trkpt lat="44.88646" lon="0.89037">
        <ele>103.6</ele>
        <time>2025-05-10T08:04:44Z</time>
      </trkpt>
      <trkpt lat="44.88647" lon="0.89039">
        <ele>103.8</ele>
        <time>2025-05-10T08:04:45Z</time>
      </trkpt>
      <trkpt lat="44.88648" lon="0.89041">
        <ele>104</ele>
        <time>2025-05-10T08:04:46Z</time>
      </trkpt>
      <trkpt lat="44.88649" lon="0.89044">
        <ele>104.2</ele>
        <time>2025-05-10T08:04:47Z</time>
      </trkpt>
      <trkpt lat="44.8865" lon="0.89046">
        <ele>104.4</ele>
        <time>2025-05-10T08:04:48Z</time>
      </trkpt>
      <trkpt lat="44.88651" lon="0.89047">
        <ele>104.8</ele>
        <time>2025-05-10T08:04:49Z</time>
      </trkpt>
      <trkpt lat="44.88652" lon="0.89048">
        <ele>105</ele>
        <time>2025-05-10T08:04:50Z</time>
      </trkpt>
      <trkpt lat="44.88653" lon="0.89049">
        <ele>105.4</ele>
        <time>2025-05-10T08:04:51Z</time>
      </trkpt>
      <trkpt lat="44.88654" lon="0.8905">
        <ele>105.6</ele>
        <time>2025-05-10T08:04:52Z</time>
      </trkpt>
      <trkpt lat="44.88655" lon="0.8905">
        <ele>106</ele>
        <time>2025-05-10T08:04:53Z</time>
      </trkpt>
      <trkpt lat="44.88657" lon="0.89051">
        <ele>106.2</ele>
        <time>2025-05-10T08:04:54Z</time>
      </trkpt>
      <trkpt lat="44.88659" lon="0.89051">
        <ele>106.6</ele>
        <time>2025-05-10T08:04:55Z</time>
      </trkpt>
      <trkpt lat="44.8866" lon="0.89051">
        <ele>106.8</ele>
        <time>2025-05-10T08:04:56Z</time>
      </trkpt>
      <trkpt lat="44.88662" lon="0.89051">
        <ele>107.2</ele>
        <time>2025-05-10T08:04:57Z</time>
      </trkpt>
      <trkpt lat="44.88663" lon="0.89052">
        <ele>107.4</ele>
        <time>2025-05-10T08:04:58Z</time>
      </trkpt>
      <trkpt lat="44.88665" lon="0.89052">
        <ele>107.6</ele>
        <time>2025-05-10T08:04:59Z</time>
      </trkpt>
      <trkpt lat="44.88666" lon="0.89052">
        <ele>107.8</ele>
        <time>2025-05-10T08:05:00Z</time>
      </trkpt>
      <trkpt lat="44.88668" lon="0.89053">
        <ele>108</ele>
        <time>2025-05-10T08:05:01Z</time>
      </trkpt>
      <trkpt lat="44.8867" lon="0.89053">
        <ele>108.4</ele>
        <time>2025-05-10T08:05:02Z</time>
      </trkpt>
      <trkpt lat="44.88671" lon="0.89053">
        <ele>108.6</ele>
        <time>2025-05-10T08:05:03Z</time>
      </trkpt>
      <trkpt lat="44.88673" lon="0.89054">
        <ele>108.8</ele>
        <time>2025-05-10T08:05:04Z</time>
      </trkpt>
      <trkpt lat="44.88674" lon="0.89055">
        <ele>109</ele>
        <time>2025-05-10T08:05:05Z</time>
      </trkpt>
      <trkpt lat="44.88676" lon="0.89055">
        <ele>109.2</ele>
        <time>2025-05-10T08:05:06Z</time>
      </trkpt>
      <trkpt lat="44.88678" lon="0.89056">
        <ele>109.4</ele>
        <time>2025-05-10T08:05:07Z</time>
      </trkpt>
      <trkpt lat="44.8868" lon="0.89057">
        <ele>109.6</ele>
        <time>2025-05-10T08:05:08Z</time>
      </trkpt>
      <trkpt lat="44.88681" lon="0.89059">
        <ele>109.8</ele>
        <time>2025-05-10T08:05:09Z</time>
      </trkpt>
      <trkpt lat="44.88683" lon="0.8906">
        <ele>110</ele>
        <time>2025-05-10T08:05:10Z</time>
      </trkpt>
      <trkpt lat="44.88684" lon="0.89062">
        <ele>110</ele>
        <time>2025-05-10T08:05:11Z</time>
      </trkpt>
      <trkpt lat="44.88687" lon="0.89063">
        <ele>110.2</ele>
        <time>2025-05-10T08:05:12Z</time>
      </trkpt>
      <trkpt lat="44.88689" lon="0.89064">
        <ele>110.2</ele>
        <time>2025-05-10T08:05:13Z</time>
      </trkpt>
      <trkpt lat="44.88691" lon="0.89065">
        <ele>110.4</ele>
        <time>2025-05-10T08:05:14Z</time>
      </trkpt>
      <trkpt lat="44.88694" lon="0.89066">
        <ele>110.4</ele>
        <time>2025-05-10T08:05:15Z</time>
      </trkpt>
      <trkpt lat="44.88697" lon="0.89067">
        <ele>110.4</ele>
        <time>2025-05-10T08:05:16Z</time>
      </trkpt>
      <trkpt lat="44.887" lon="0.89069">
        <ele>110.4</ele>
        <time>2025-05-10T08:05:17Z</time>
      </trkpt>
      <trkpt lat="44.88704" lon="0.89071">
        <ele>110.4</ele>
        <time>2025-05-10T08:05:18Z</time>
      </trkpt>
      <trkpt lat="44.88707" lon="0.89074">
        <ele>110.4</ele>
        <time>2025-05-10T08:05:19Z</time>
      </trkpt>
      <trkpt lat="44.8871" lon="0.89078">
        <ele>110.2</ele>
        <time>2025-05-10T08:05:20Z</time>
      </trkpt>
      <trkpt lat="44.88713" lon="0.89083">
        <ele>109.8</ele>
        <time>2025-05-10T08:05:21Z</time>
      </trkpt>
      <trkpt lat="44.88717" lon="0.89088">
        <ele>109.6</ele>
        <time>2025-05-10T08:05:22Z</time>
      </trkpt>
      <trkpt lat="44.8872" lon="0.89092">
        <ele>109.4</ele>
        <time>2025-05-10T08:05:23Z</time>
      </trkpt>
      <trkpt lat="44.88724" lon="0.89097">
        <ele>109</ele>
        <time>2025-05-10T08:05:24Z</time>
      </trkpt>
      <trkpt lat="44.88728" lon="0.89102">
        <ele>108.8</ele>
        <time>2025-05-10T08:05:25Z</time>
      </trkpt>
      <trkpt lat="44.88732" lon="0.89106">
        <ele>108.6</ele>
        <time>2025-05-10T08:05:26Z</time>
      </trkpt>
      <trkpt lat="44.88735" lon="0.89111">
        <ele>108.6</ele>
        <time>2025-05-10T08:05:27Z</time>
      </trkpt>
      <trkpt lat="44.88739" lon="0.89115">
        <ele>108.6</ele>
        <time>2025-05-10T08:05:28Z</time>
      </trkpt>
      <trkpt lat="44.88743" lon="0.89119">
        <ele>108.6</ele>
        <time>2025-05-10T08:05:29Z</time>
      </trkpt>
      <trkpt lat="44.88746" lon="0.89123">
        <ele>108.8</ele>
        <time>2025-05-10T08:05:30Z</time>
      </trkpt>
      <trkpt lat="44.88749" lon="0.89126">
        <ele>108.8</ele>
        <time>2025-05-10T08:05:31Z</time>
      </trkpt>
      <trkpt lat="44.88752" lon="0.89129">
        <ele>109.2</ele>
        <time>2025-05-10T08:05:32Z</time>
      </trkpt>
      <trkpt lat="44.88756" lon="0.89132">
        <ele>109.4</ele>
        <time>2025-05-10T08:05:33Z</time>
      </trkpt>
      <trkpt lat="44.88759" lon="0.89135">
        <ele>109.8</ele>
        <time>2025-05-10T08:05:34Z</time>
      </trkpt>
      <trkpt lat="44.88762" lon="0.89138">
        <ele>110.2</ele>
        <time>2025-05-10T08:05:35Z</time>
      </trkpt>
      <trkpt lat="44.88765" lon="0.8914">
        <ele>110.6</ele>
        <time>2025-05-10T08:05:36Z</time>
      </trkpt>
      <trkpt lat="44.88767" lon="0.89143">
        <ele>111</ele>
        <time>2025-05-10T08:05:37Z</time>
      </trkpt>
      <trkpt lat="44.8877" lon="0.89145">
        <ele>111.4</ele>
        <time>2025-05-10T08:05:38Z</time>
      </trkpt>
      <trkpt lat="44.88772" lon="0.89147">
        <ele>111.6</ele>
        <time>2025-05-10T08:05:39Z</time>
      </trkpt>
      <trkpt lat="44.88775" lon="0.89149">
        <ele>111.8</ele>
        <time>2025-05-10T08:05:40Z</time>
      </trkpt>
      <trkpt lat="44.88777" lon="0.8915">
        <ele>112.2</ele>
        <time>2025-05-10T08:05:41Z</time>
      </trkpt>
      <trkpt lat="44.88779" lon="0.89152">
        <ele>112.4</ele>
        <time>2025-05-10T08:05:42Z</time>
      </trkpt>
      <trkpt lat="44.88781" lon="0.89154">
        <ele>112.6</ele>
        <time>2025-05-10T08:05:43Z</time>
      </trkpt>
      <trkpt lat="44.88783" lon="0.89156">
        <ele>113</ele>
        <time>2025-05-10T08:05:44Z</time>
      </trkpt>
      <trkpt lat="44.88785" lon="0.89158">
        <ele>113</ele>
        <time>2025-05-10T08:05:45Z</time>
      </trkpt>
      <trkpt lat="44.88787" lon="0.89159">
        <ele>113.4</ele>
        <time>2025-05-10T08:05:46Z</time>
      </trkpt>
      <trkpt lat="44.88789" lon="0.89161">
        <ele>113.6</ele>
        <time>2025-05-10T08:05:47Z</time>
      </trkpt>
      <trkpt lat="44.88791" lon="0.89163">
        <ele>113.8</ele>
        <time>2025-05-10T08:05:48Z</time>
      </trkpt>
      <trkpt lat="44.88794" lon="0.89165">
        <ele>114</ele>
        <time>2025-05-10T08:05:49Z</time>
      </trkpt>
      <trkpt lat="44.88796" lon="0.89167">
        <ele>114.2</ele>
        <time>2025-05-10T08:05:50Z</time>
      </trkpt>
      <trkpt lat="44.88798" lon="0.8917">
        <ele>114.4</ele>
        <time>2025-05-10T08:05:51Z</time>
      </trkpt>
      <trkpt lat="44.88801" lon="0.89172">
        <ele>114.6</ele>
        <time>2025-05-10T08:05:52Z</time>
      </trkpt>
      <trkpt lat="44.88803" lon="0.89174">
        <ele>114.8</ele>
        <time>2025-05-10T08:05:53Z</time>
      </trkpt>
      <trkpt lat="44.88805" lon="0.89176">
        <ele>115</ele>
        <time>2025-05-10T08:05:54Z</time>
      </trkpt>
      <trkpt lat="44.88807" lon="0.89178">
        <ele>115.2</ele>
        <time>2025-05-10T08:05:55Z</time>
      </trkpt>
      <trkpt lat="44.88809" lon="0.8918">
        <ele>115.4</ele>
        <time>2025-05-10T08:05:56Z</time>
      </trkpt>
      <trkpt lat="44.88811" lon="0.89182">
        <ele>115.8</ele>
        <time>2025-05-10T08:05:57Z</time>
      </trkpt>
      <trkpt lat="44.88814" lon="0.89184">
        <ele>116</ele>
        <time>2025-05-10T08:05:58Z</time>
      </trkpt>
      <trkpt lat="44.88816" lon="0.89186">
        <ele>116.2</ele>
        <time>2025-05-10T08:05:59Z</time>
      </trkpt>
      <trkpt lat="44.88818" lon="0.89188">
        <ele>116.2</ele>
        <time>2025-05-10T08:06:00Z</time>
      </trkpt>
      <trkpt lat="44.88821" lon="0.8919">
        <ele>116.4</ele>
        <time>2025-05-10T08:06:01Z</time>
      </trkpt>
      <trkpt lat="44.88823" lon="0.89192">
        <ele>116.6</ele>
        <time>2025-05-10T08:06:02Z</time>
      </trkpt>
      <trkpt lat="44.88825" lon="0.89193">
        <ele>116.8</ele>
        <time>2025-05-10T08:06:03Z</time>
      </trkpt>
      <trkpt lat="44.88827" lon="0.89195">
        <ele>117</ele>
        <time>2025-05-10T08:06:04Z</time>
      </trkpt>
      <trkpt lat="44.88829" lon="0.89197">
        <ele>117.4</ele>
        <time>2025-05-10T08:06:05Z</time>
      </trkpt>
      <trkpt lat="44.88832" lon="0.89199">
        <ele>117.6</ele>
        <time>2025-05-10T08:06:06Z</time>
      </trkpt>
      <trkpt lat="44.88834" lon="0.892">
        <ele>117.8</ele>
        <time>2025-05-10T08:06:07Z</time>
      </trkpt>
      <trkpt lat="44.88837" lon="0.89202">
        <ele>118</ele>
        <time>2025-05-10T08:06:08Z</time>
      </trkpt>
      <trkpt lat="44.88839" lon="0.89204">
        <ele>118.4</ele>
        <time>2025-05-10T08:06:09Z</time>
      </trkpt>
      <trkpt lat="44.88842" lon="0.89205">
        <ele>118.4</ele>
        <time>2025-05-10T08:06:10Z</time>
      </trkpt>
      <trkpt lat="44.88844" lon="0.89206">
        <ele>118.6</ele>
        <time>2025-05-10T08:06:11Z</time>
      </trkpt>
      <trkpt lat="44.88847" lon="0.89208">
        <ele>118.8</ele>
        <time>2025-05-10T08:06:12Z</time>
      </trkpt>
      <trkpt lat="44.8885" lon="0.89209">
        <ele>119</ele>
        <time>2025-05-10T08:06:13Z</time>
      </trkpt>
      <trkpt lat="44.88853" lon="0.89211">
        <ele>119.2</ele>
        <time>2025-05-10T08:06:14Z</time>
      </trkpt>
      <trkpt lat="44.88857" lon="0.89212">
        <ele>119.4</ele>
        <time>2025-05-10T08:06:15Z</time>
      </trkpt>
      <trkpt lat="44.8886" lon="0.89214">
        <ele>119.4</ele>
        <time>2025-05-10T08:06:16Z</time>
      </trkpt>
      <trkpt lat="44.88863" lon="0.89215">
        <ele>119.4</ele>
        <time>2025-05-10T08:06:17Z</time>
      </trkpt>
      <trkpt lat="44.88867" lon="0.89216">
        <ele>119.6</ele>
        <time>2025-05-10T08:06:18Z</time>
      </trkpt>
      <trkpt lat="44.88871" lon="0.89217">
        <ele>119.6</ele>
        <time>2025-05-10T08:06:19Z</time>
      </trkpt>
      <trkpt lat="44.88874" lon="0.89219">
        <ele>119.6</ele>
        <time>2025-05-10T08:06:20Z</time>
      </trkpt>
      <trkpt lat="44.88877" lon="0.8922">
        <ele>119.6</ele>
        <time>2025-05-10T08:06:21Z</time>
      </trkpt>
      <trkpt lat="44.88881" lon="0.89222">
        <ele>119.6</ele>
        <time>2025-05-10T08:06:22Z</time>
      </trkpt>
      <trkpt lat="44.88884" lon="0.89223">
        <ele>119.6</ele>
        <time>2025-05-10T08:06:23Z</time>
      </trkpt>
      <trkpt lat="44.88888" lon="0.89224">
        <ele>119.4</ele>
        <time>2025-05-10T08:06:24Z</time>
      </trkpt>
      <trkpt lat="44.88891" lon="0.89226">
        <ele>119.4</ele>
        <time>2025-05-10T08:06:25Z</time>
      </trkpt>
      <trkpt lat="44.88894" lon="0.89228">
        <ele>119.4</ele>
        <time>2025-05-10T08:06:26Z</time>
      </trkpt>
      <trkpt lat="44.88897" lon="0.89231">
        <ele>119.4</ele>
        <time>2025-05-10T08:06:27Z</time>
      </trkpt>
      <trkpt lat="44.88901" lon="0.89234">
        <ele>119.4</ele>
        <time>2025-05-10T08:06:28Z</time>
      </trkpt>
      <trkpt lat="44.88904" lon="0.89237">
        <ele>119.4</ele>
        <time>2025-05-10T08:06:29Z</time>
      </trkpt>
      <trkpt lat="44.88908" lon="0.8924">
        <ele>119.4</ele>
        <time>2025-05-10T08:06:30Z</time>
      </trkpt>
      <trkpt lat="44.88911" lon="0.89243">
        <ele>119.4</ele>
        <time>2025-05-10T08:06:31Z</time>
      </trkpt>
      <trkpt lat="44.88915" lon="0.89246">
        <ele>119.4</ele>
        <time>2025-05-10T08:06:32Z</time>
      </trkpt>
      <trkpt lat="44.88918" lon="0.89249">
        <ele>119.4</ele>
        <time>2025-05-10T08:06:33Z</time>
      </trkpt>
      <trkpt lat="44.88921" lon="0.89252">
        <ele>119.4</ele>
        <time>2025-05-10T08:06:34Z</time>
      </trkpt>
      <trkpt lat="44.88925" lon="0.89255">
        <ele>119.4</ele>
        <time>2025-05-10T08:06:35Z</time>
      </trkpt>
      <trkpt lat="44.88928" lon="0.89258">
        <ele>119.2</ele>
        <time>2025-05-10T08:06:36Z</time>
      </trkpt>
      <trkpt lat="44.88931" lon="0.89261">
        <ele>119</ele>
        <time>2025-05-10T08:06:37Z</time>
      </trkpt>
      <trkpt lat="44.88934" lon="0.89263">
        <ele>119</ele>
        <time>2025-05-10T08:06:38Z</time>
      </trkpt>
      <trkpt lat="44.88937" lon="0.89266">
        <ele>118.8</ele>
        <time>2025-05-10T08:06:39Z</time>
      </trkpt>
      <trkpt lat="44.88941" lon="0.89268">
        <ele>118.8</ele>
        <time>2025-05-10T08:06:40Z</time>
      </trkpt>
      <trkpt lat="44.88944" lon="0.8927">
        <ele>118.8</ele>
        <time>2025-05-10T08:06:41Z</time>
      </trkpt>
      <trkpt lat="44.88947" lon="0.89273">
        <ele>118.6</ele>
        <time>2025-05-10T08:06:42Z</time>
      </trkpt>
      <trkpt lat="44.8895" lon="0.89275">
        <ele>118.6</ele>
        <time>2025-05-10T08:06:43Z</time>
      </trkpt>
      <trkpt lat="44.88954" lon="0.89278">
        <ele>118.6</ele>
        <time>2025-05-10T08:06:44Z</time>
      </trkpt>
      <trkpt lat="44.88958" lon="0.8928">
        <ele>118.6</ele>
        <time>2025-05-10T08:06:45Z</time>
      </trkpt>
      <trkpt lat="44.88962" lon="0.89284">
        <ele>118.6</ele>
        <time>2025-05-10T08:06:46Z</time>
      </trkpt>
      <trkpt lat="44.88966" lon="0.89287">
        <ele>118.6</ele>
        <time>2025-05-10T08:06:47Z</time>
      </trkpt>
      <trkpt lat="44.8897" lon="0.89291">
        <ele>118.4</ele>
        <time>2025-05-10T08:06:48Z</time>
      </trkpt>
      <trkpt lat="44.88974" lon="0.89294">
        <ele>118.2</ele>
        <time>2025-05-10T08:06:49Z</time>
      </trkpt>
      <trkpt lat="44.88978" lon="0.89297">
        <ele>118</ele>
        <time>2025-05-10T08:06:50Z</time>
      </trkpt>
      <trkpt lat="44.88983" lon="0.893">
        <ele>117.6</ele>
        <time>2025-05-10T08:06:51Z</time>
      </trkpt>
      <trkpt lat="44.88988" lon="0.89303">
        <ele>117.4</ele>
        <time>2025-05-10T08:06:52Z</time>
      </trkpt>
      <trkpt lat="44.88993" lon="0.89306">
        <ele>117.4</ele>
        <time>2025-05-10T08:06:53Z</time>
      </trkpt>
      <trkpt lat="44.88999" lon="0.89309">
        <ele>117.2</ele>
        <time>2025-05-10T08:06:54Z</time>
      </trkpt>
      <trkpt lat="44.89004" lon="0.89312">
        <ele>117</ele>
        <time>2025-05-10T08:06:55Z</time>
      </trkpt>
      <trkpt lat="44.8901" lon="0.89314">
        <ele>116.8</ele>
        <time>2025-05-10T08:06:56Z</time>
      </trkpt>
      <trkpt lat="44.89016" lon="0.89317">
        <ele>116.4</ele>
        <time>2025-05-10T08:06:57Z</time>
      </trkpt>
      <trkpt lat="44.89022" lon="0.8932">
        <ele>116.2</ele>
        <time>2025-05-10T08:06:58Z</time>
      </trkpt>
      <trkpt lat="44.89028" lon="0.89322">
        <ele>115.8</ele>
        <time>2025-05-10T08:06:59Z</time>
      </trkpt>
      <trkpt lat="44.89033" lon="0.89325">
        <ele>115.6</ele>
        <time>2025-05-10T08:07:00Z</time>
      </trkpt>
      <trkpt lat="44.89039" lon="0.89327">
        <ele>115.4</ele>
        <time>2025-05-10T08:07:01Z</time>
      </trkpt>
      <trkpt lat="44.89044" lon="0.8933">
        <ele>115.2</ele>
        <time>2025-05-10T08:07:02Z</time>
      </trkpt>
      <trkpt lat="44.8905" lon="0.89333">
        <ele>115.2</ele>
        <time>2025-05-10T08:07:03Z</time>
      </trkpt>
      <trkpt lat="44.89056" lon="0.89337">
        <ele>115.2</ele>
        <time>2025-05-10T08:07:04Z</time>
      </trkpt>
      <trkpt lat="44.89062" lon="0.8934">
        <ele>115.2</ele>
        <time>2025-05-10T08:07:05Z</time>
      </trkpt>
      <trkpt lat="44.89067" lon="0.89344">
        <ele>115.2</ele>
        <time>2025-05-10T08:07:06Z</time>
      </trkpt>
      <trkpt lat="44.89073" lon="0.89347">
        <ele>115.2</ele>
        <time>2025-05-10T08:07:07Z</time>
      </trkpt>
      <trkpt lat="44.89078" lon="0.89351">
        <ele>115.2</ele>
        <time>2025-05-10T08:07:08Z</time>
      </trkpt>
      <trkpt lat="44.89083" lon="0.89354">
        <ele>115.2</ele>
        <time>2025-05-10T08:07:09Z</time>
      </trkpt>
      <trkpt lat="44.89088" lon="0.89357">
        <ele>115.2</ele>
        <time>2025-05-10T08:07:10Z</time>
      </trkpt>
      <trkpt lat="44.89093" lon="0.89361">
        <ele>115.2</ele>
        <time>2025-05-10T08:07:11Z</time>
      </trkpt>
      <trkpt lat="44.89098" lon="0.89364">
        <ele>115.4</ele>
        <time>2025-05-10T08:07:12Z</time>
      </trkpt>
      <trkpt lat="44.89103" lon="0.89367">
        <ele>115.4</ele>
        <time>2025-05-10T08:07:13Z</time>
      </trkpt>
      <trkpt lat="44.89108" lon="0.8937">
        <ele>115.4</ele>
        <time>2025-05-10T08:07:14Z</time>
      </trkpt>
      <trkpt lat="44.89113" lon="0.89374">
        <ele>115.6</ele>
        <time>2025-05-10T08:07:15Z</time>
      </trkpt>
      <trkpt lat="44.89118" lon="0.89377">
        <ele>115.6</ele>
        <time>2025-05-10T08:07:16Z</time>
      </trkpt>
      <trkpt lat="44.89123" lon="0.8938">
        <ele>115.8</ele>
        <time>2025-05-10T08:07:17Z</time>
      </trkpt>
      <trkpt lat="44.89128" lon="0.89383">
        <ele>116</ele>
        <time>2025-05-10T08:07:18Z</time>
      </trkpt>
      <trkpt lat="44.89133" lon="0.89386">
        <ele>116</ele>
        <time>2025-05-10T08:07:19Z</time>
      </trkpt>
      <trkpt lat="44.89138" lon="0.89389">
        <ele>116</ele>
        <time>2025-05-10T08:07:20Z</time>
      </trkpt>
      <trkpt lat="44.89143" lon="0.89393">
        <ele>116.2</ele>
        <time>2025-05-10T08:07:21Z</time>
      </trkpt>
      <trkpt lat="44.89147" lon="0.89396">
        <ele>116.2</ele>
        <time>2025-05-10T08:07:22Z</time>
      </trkpt>
      <trkpt lat="44.89152" lon="0.89399">
        <ele>116.4</ele>
        <time>2025-05-10T08:07:23Z</time>
      </trkpt>
      <trkpt lat="44.89156" lon="0.89402">
        <ele>116.6</ele>
        <time>2025-05-10T08:07:24Z</time>
      </trkpt>
      <trkpt lat="44.89161" lon="0.89405">
        <ele>116.6</ele>
        <time>2025-05-10T08:07:25Z</time>
      </trkpt>
      <trkpt lat="44.89165" lon="0.89408">
        <ele>116.8</ele>
        <time>2025-05-10T08:07:26Z</time>
      </trkpt>
      <trkpt lat="44.8917" lon="0.8941">
        <ele>116.8</ele>
        <time>2025-05-10T08:07:27Z</time>
      </trkpt>
      <trkpt lat="44.89174" lon="0.89413">
        <ele>117</ele>
        <time>2025-05-10T08:07:28Z</time>
      </trkpt>
      <trkpt lat="44.89179" lon="0.89416">
        <ele>117</ele>
        <time>2025-05-10T08:07:29Z</time>
      </trkpt>
      <trkpt lat="44.89183" lon="0.89419">
        <ele>117.2</ele>
        <time>2025-05-10T08:07:30Z</time>
      </trkpt>
      <trkpt lat="44.89188" lon="0.89422">
        <ele>117.2</ele>
        <time>2025-05-10T08:07:31Z</time>
      </trkpt>
      <trkpt lat="44.89192" lon="0.89424">
        <ele>117.2</ele>
        <time>2025-05-10T08:07:32Z</time>
      </trkpt>
      <trkpt lat="44.89196" lon="0.89427">
        <ele>117.4</ele>
        <time>2025-05-10T08:07:33Z</time>
      </trkpt>
      <trkpt lat="44.892" lon="0.8943">
        <ele>117.4</ele>
        <time>2025-05-10T08:07:34Z</time>
      </trkpt>
      <trkpt lat="44.89205" lon="0.89433">
        <ele>117.8</ele>
        <time>2025-05-10T08:07:35Z</time>
      </trkpt>
      <trkpt lat="44.89209" lon="0.89435">
        <ele>118</ele>
        <time>2025-05-10T08:07:36Z</time>
      </trkpt>
      <trkpt lat="44.89213" lon="0.89438">
        <ele>118</ele>
        <time>2025-05-10T08:07:37Z</time>
      </trkpt>
      <trkpt lat="44.89217" lon="0.8944">
        <ele>118.2</ele>
        <time>2025-05-10T08:07:38Z</time>
      </trkpt>
      <trkpt lat="44.89222" lon="0.89443">
        <ele>118.4</ele>
        <time>2025-05-10T08:07:39Z</time>
      </trkpt>
      <trkpt lat="44.89226" lon="0.89446">
        <ele>118.6</ele>
        <time>2025-05-10T08:07:40Z</time>
      </trkpt>
      <trkpt lat="44.89231" lon="0.89449">
        <ele>118.6</ele>
        <time>2025-05-10T08:07:41Z</time>
      </trkpt>
      <trkpt lat="44.89236" lon="0.89452">
        <ele>118.8</ele>
        <time>2025-05-10T08:07:42Z</time>
      </trkpt>
      <trkpt lat="44.8924" lon="0.89454">
        <ele>118.8</ele>
        <time>2025-05-10T08:07:43Z</time>
      </trkpt>
      <trkpt lat="44.89245" lon="0.89457">
        <ele>118.8</ele>
        <time>2025-05-10T08:07:44Z</time>
      </trkpt>
      <trkpt lat="44.89249" lon="0.89459">
        <ele>119.4</ele>
        <time>2025-05-10T08:07:45Z</time>
      </trkpt>
      <trkpt lat="44.89254" lon="0.89462">
        <ele>119.4</ele>
        <time>2025-05-10T08:07:46Z</time>
      </trkpt>
      <trkpt lat="44.89258" lon="0.89464">
        <ele>119.4</ele>
        <time>2025-05-10T08:07:47Z</time>
      </trkpt>
      <trkpt lat="44.89263" lon="0.89467">
        <ele>119.4</ele>
        <time>2025-05-10T08:07:48Z</time>
      </trkpt>
      <trkpt lat="44.89268" lon="0.89469">
        <ele>119.4</ele>
        <time>2025-05-10T08:07:49Z</time>
      </trkpt>
      <trkpt lat="44.89273" lon="0.89471">
        <ele>119.4</ele>
        <time>2025-05-10T08:07:50Z</time>
      </trkpt>
      <trkpt lat="44.89278" lon="0.89474">
        <ele>119.4</ele>
        <time>2025-05-10T08:07:51Z</time>
      </trkpt>
      <trkpt lat="44.89282" lon="0.89476">
        <ele>119.2</ele>
        <time>2025-05-10T08:07:52Z</time>
      </trkpt>
      <trkpt lat="44.89288" lon="0.89479">
        <ele>119.2</ele>
        <time>2025-05-10T08:07:53Z</time>
      </trkpt>
      <trkpt lat="44.89293" lon="0.89481">
        <ele>119</ele>
        <time>2025-05-10T08:07:54Z</time>
      </trkpt>
      <trkpt lat="44.89298" lon="0.89484">
        <ele>119</ele>
        <time>2025-05-10T08:07:55Z</time>
      </trkpt>
      <trkpt lat="44.89304" lon="0.89487">
        <ele>118.8</ele>
        <time>2025-05-10T08:07:56Z</time>
      </trkpt>
      <trkpt lat="44.89309" lon="0.8949">
        <ele>118.8</ele>
        <time>2025-05-10T08:07:57Z</time>
      </trkpt>
      <trkpt lat="44.89315" lon="0.89493">
        <ele>118.8</ele>
        <time>2025-05-10T08:07:58Z</time>
      </trkpt>
      <trkpt lat="44.8932" lon="0.89495">
        <ele>118.6</ele>
        <time>2025-05-10T08:07:59Z</time>
      </trkpt>
      <trkpt lat="44.89325" lon="0.89498">
        <ele>118.6</ele>
        <time>2025-05-10T08:08:00Z</time>
      </trkpt>
      <trkpt lat="44.89331" lon="0.89501">
        <ele>118.6</ele>
        <time>2025-05-10T08:08:01Z</time>
      </trkpt>
      <trkpt lat="44.89336" lon="0.89504">
        <ele>118.4</ele>
        <time>2025-05-10T08:08:02Z</time>
      </trkpt>
      <trkpt lat="44.89341" lon="0.89506">
        <ele>118.4</ele>
        <time>2025-05-10T08:08:03Z</time>
      </trkpt>
      <trkpt lat="44.89347" lon="0.8951">
        <ele>118.4</ele>
        <time>2025-05-10T08:08:04Z</time>
      </trkpt>
      <trkpt lat="44.89352" lon="0.89513">
        <ele>118.4</ele>
        <time>2025-05-10T08:08:05Z</time>
      </trkpt>
      <trkpt lat="44.89358" lon="0.89516">
        <ele>118.4</ele>
        <time>2025-05-10T08:08:06Z</time>
      </trkpt>
      <trkpt lat="44.89363" lon="0.89519">
        <ele>118.4</ele>
        <time>2025-05-10T08:08:07Z</time>
      </trkpt>
      <trkpt lat="44.89368" lon="0.89523">
        <ele>118.4</ele>
        <time>2025-05-10T08:08:08Z</time>
      </trkpt>
      <trkpt lat="44.89373" lon="0.89526">
        <ele>118.4</ele>
        <time>2025-05-10T08:08:09Z</time>
      </trkpt>
      <trkpt lat="44.89378" lon="0.8953">
        <ele>118.4</ele>
        <time>2025-05-10T08:08:10Z</time>
      </trkpt>
      <trkpt lat="44.89383" lon="0.89533">
        <ele>118.6</ele>
        <time>2025-05-10T08:08:11Z</time>
      </trkpt>
      <trkpt lat="44.89388" lon="0.89536">
        <ele>118.6</ele>
        <time>2025-05-10T08:08:12Z</time>
      </trkpt>
      <trkpt lat="44.89392" lon="0.8954">
        <ele>118.6</ele>
        <time>2025-05-10T08:08:13Z</time>
      </trkpt>
      <trkpt lat="44.89397" lon="0.89543">
        <ele>118.8</ele>
        <time>2025-05-10T08:08:14Z</time>
      </trkpt>
      <trkpt lat="44.89401" lon="0.89548">
        <ele>118.8</ele>
        <time>2025-05-10T08:08:15Z</time>
      </trkpt>
      <trkpt lat="44.89406" lon="0.89552">
        <ele>118.8</ele>
        <time>2025-05-10T08:08:16Z</time>
      </trkpt>
      <trkpt lat="44.8941" lon="0.89556">
        <ele>119</ele>
        <time>2025-05-10T08:08:17Z</time>
      </trkpt>
      <trkpt lat="44.89414" lon="0.8956">
        <ele>119</ele>
        <time>2025-05-10T08:08:18Z</time>
      </trkpt>
      <trkpt lat="44.89417" lon="0.89564">
        <ele>119.2</ele>
        <time>2025-05-10T08:08:19Z</time>
      </trkpt>
      <trkpt lat="44.89421" lon="0.89568">
        <ele>119.2</ele>
        <time>2025-05-10T08:08:20Z</time>
      </trkpt>
      <trkpt lat="44.89425" lon="0.89571">
        <ele>119.4</ele>
        <time>2025-05-10T08:08:21Z</time>
      </trkpt>
      <trkpt lat="44.8943" lon="0.89573">
        <ele>119.6</ele>
        <time>2025-05-10T08:08:22Z</time>
      </trkpt>
      <trkpt lat="44.89435" lon="0.89574">
        <ele>119.8</ele>
        <time>2025-05-10T08:08:23Z</time>
      </trkpt>
      <trkpt lat="44.89439" lon="0.89576">
        <ele>119.8</ele>
        <time>2025-05-10T08:08:24Z</time>
      </trkpt>
      <trkpt lat="44.89444" lon="0.89577">
        <ele>120</ele>
        <time>2025-05-10T08:08:25Z</time>
      </trkpt>
      <trkpt lat="44.89449" lon="0.89576">
        <ele>120</ele>
        <time>2025-05-10T08:08:26Z</time>
      </trkpt>
      <trkpt lat="44.89454" lon="0.89576">
        <ele>120</ele>
        <time>2025-05-10T08:08:27Z</time>
      </trkpt>
      <trkpt lat="44.8946" lon="0.89575">
        <ele>120</ele>
        <time>2025-05-10T08:08:28Z</time>
      </trkpt>
      <trkpt lat="44.89465" lon="0.89573">
        <ele>120</ele>
        <time>2025-05-10T08:08:29Z</time>
      </trkpt>
      <trkpt lat="44.8947" lon="0.89571">
        <ele>120</ele>
        <time>2025-05-10T08:08:30Z</time>
      </trkpt>
      <trkpt lat="44.89476" lon="0.89569">
        <ele>120</ele>
        <time>2025-05-10T08:08:31Z</time>
      </trkpt>
      <trkpt lat="44.89482" lon="0.89568">
        <ele>119.8</ele>
        <time>2025-05-10T08:08:32Z</time>
      </trkpt>
      <trkpt lat="44.89488" lon="0.89567">
        <ele>119.6</ele>
        <time>2025-05-10T08:08:33Z</time>
      </trkpt>
      <trkpt lat="44.89495" lon="0.89565">
        <ele>119.2</ele>
        <time>2025-05-10T08:08:34Z</time>
      </trkpt>
      <trkpt lat="44.89503" lon="0.89563">
        <ele>118.8</ele>
        <time>2025-05-10T08:08:35Z</time>
      </trkpt>
      <trkpt lat="44.89511" lon="0.89562">
        <ele>117.6</ele>
        <time>2025-05-10T08:08:36Z</time>
      </trkpt>
      <trkpt lat="44.89518" lon="0.8956">
        <ele>117</ele>
        <time>2025-05-10T08:08:37Z</time>
      </trkpt>
      <trkpt lat="44.89527" lon="0.89558">
        <ele>115.8</ele>
        <time>2025-05-10T08:08:38Z</time>
      </trkpt>
      <trkpt lat="44.89536" lon="0.89557">
        <ele>114.8</ele>
        <time>2025-05-10T08:08:39Z</time>
      </trkpt>
      <trkpt lat="44.89545" lon="0.89554">
        <ele>112.8</ele>
        <time>2025-05-10T08:08:40Z</time>
      </trkpt>
      <trkpt lat="44.89554" lon="0.89552">
        <ele>111.6</ele>
        <time>2025-05-10T08:08:41Z</time>
      </trkpt>
      <trkpt lat="44.89564" lon="0.89549">
        <ele>110.2</ele>
        <time>2025-05-10T08:08:42Z</time>
      </trkpt>
      <trkpt lat="44.89573" lon="0.89547">
        <ele>109.4</ele>
        <time>2025-05-10T08:08:43Z</time>
      </trkpt>
      <trkpt lat="44.89583" lon="0.89543">
        <ele>107.8</ele>
        <time>2025-05-10T08:08:44Z</time>
      </trkpt>
      <trkpt lat="44.89592" lon="0.8954">
        <ele>107</ele>
        <time>2025-05-10T08:08:45Z</time>
      </trkpt>
      <trkpt lat="44.89602" lon="0.89537">
        <ele>105.8</ele>
        <time>2025-05-10T08:08:46Z</time>
      </trkpt>
      <trkpt lat="44.89611" lon="0.89534">
        <ele>104</ele>
        <time>2025-05-10T08:08:47Z</time>
      </trkpt>
      <trkpt lat="44.8962" lon="0.89531">
        <ele>102.8</ele>
        <time>2025-05-10T08:08:48Z</time>
      </trkpt>
      <trkpt lat="44.89629" lon="0.89527">
        <ele>102.2</ele>
        <time>2025-05-10T08:08:49Z</time>
      </trkpt>
      <trkpt lat="44.89636" lon="0.89523">
        <ele>101.6</ele>
        <time>2025-05-10T08:08:50Z</time>
      </trkpt>
      <trkpt lat="44.89644" lon="0.89518">
        <ele>101.6</ele>
        <time>2025-05-10T08:08:51Z</time>
      </trkpt>
      <trkpt lat="44.89651" lon="0.89513">
        <ele>101.4</ele>
        <time>2025-05-10T08:08:52Z</time>
      </trkpt>
      <trkpt lat="44.89657" lon="0.89507">
        <ele>101.4</ele>
        <time>2025-05-10T08:08:53Z</time>
      </trkpt>
      <trkpt lat="44.89663" lon="0.89502">
        <ele>101.6</ele>
        <time>2025-05-10T08:08:54Z</time>
      </trkpt>
      <trkpt lat="44.8967" lon="0.89498">
        <ele>101.6</ele>
        <time>2025-05-10T08:08:55Z</time>
      </trkpt>
      <trkpt lat="44.89676" lon="0.89494">
        <ele>101.8</ele>
        <time>2025-05-10T08:08:56Z</time>
      </trkpt>
      <trkpt lat="44.89682" lon="0.89489">
        <ele>102</ele>
        <time>2025-05-10T08:08:57Z</time>
      </trkpt>
      <trkpt lat="44.89689" lon="0.89485">
        <ele>102.2</ele>
        <time>2025-05-10T08:08:58Z</time>
      </trkpt>
      <trkpt lat="44.89695" lon="0.89481">
        <ele>102.2</ele>
        <time>2025-05-10T08:08:59Z</time>
      </trkpt>
      <trkpt lat="44.89701" lon="0.89476">
        <ele>102.2</ele>
        <time>2025-05-10T08:09:00Z</time>
      </trkpt>
      <trkpt lat="44.89707" lon="0.89472">
        <ele>102.4</ele>
        <time>2025-05-10T08:09:01Z</time>
      </trkpt>
      <trkpt lat="44.89714" lon="0.89469">
        <ele>102.4</ele>
        <time>2025-05-10T08:09:02Z</time>
      </trkpt>
      <trkpt lat="44.8972" lon="0.89466">
        <ele>102.4</ele>
        <time>2025-05-10T08:09:03Z</time>
      </trkpt>
      <trkpt lat="44.89727" lon="0.89463">
        <ele>102.4</ele>
        <time>2025-05-10T08:09:04Z</time>
      </trkpt>
      <trkpt lat="44.89733" lon="0.89459">
        <ele>102.4</ele>
        <time>2025-05-10T08:09:05Z</time>
      </trkpt>
      <trkpt lat="44.8974" lon="0.89456">
        <ele>102.2</ele>
        <time>2025-05-10T08:09:06Z</time>
      </trkpt>
      <trkpt lat="44.89746" lon="0.89453">
        <ele>102.2</ele>
        <time>2025-05-10T08:09:07Z</time>
      </trkpt>
      <trkpt lat="44.89753" lon="0.8945">
        <ele>102.2</ele>
        <time>2025-05-10T08:09:08Z</time>
      </trkpt>
      <trkpt lat="44.8976" lon="0.89447">
        <ele>102</ele>
        <time>2025-05-10T08:09:09Z</time>
      </trkpt>
      <trkpt lat="44.89766" lon="0.89443">
        <ele>102</ele>
        <time>2025-05-10T08:09:10Z</time>
      </trkpt>
      <trkpt lat="44.89773" lon="0.8944">
        <ele>102</ele>
        <time>2025-05-10T08:09:11Z</time>
      </trkpt>
      <trkpt lat="44.89779" lon="0.89436">
        <ele>101.8</ele>
        <time>2025-05-10T08:09:12Z</time>
      </trkpt>
      <trkpt lat="44.89786" lon="0.89433">
        <ele>101.6</ele>
        <time>2025-05-10T08:09:13Z</time>
      </trkpt>
      <trkpt lat="44.89792" lon="0.89429">
        <ele>101.4</ele>
        <time>2025-05-10T08:09:14Z</time>
      </trkpt>
      <trkpt lat="44.89799" lon="0.89426">
        <ele>101.2</ele>
        <time>2025-05-10T08:09:15Z</time>
      </trkpt>
      <trkpt lat="44.89805" lon="0.89422">
        <ele>100.8</ele>
        <time>2025-05-10T08:09:16Z</time>
      </trkpt>
      <trkpt lat="44.89811" lon="0.89419">
        <ele>100.6</ele>
        <time>2025-05-10T08:09:17Z</time>
      </trkpt>
      <trkpt lat="44.89818" lon="0.89416">
        <ele>100.4</ele>
        <time>2025-05-10T08:09:18Z</time>
      </trkpt>
      <trkpt lat="44.89824" lon="0.89413">
        <ele>99.8</ele>
        <time>2025-05-10T08:09:19Z</time>
      </trkpt>
      <trkpt lat="44.89832" lon="0.8941">
        <ele>99.6</ele>
        <time>2025-05-10T08:09:20Z</time>
      </trkpt>
      <trkpt lat="44.89838" lon="0.89408">
        <ele>99.2</ele>
        <time>2025-05-10T08:09:21Z</time>
      </trkpt>
      <trkpt lat="44.89845" lon="0.89406">
        <ele>99</ele>
        <time>2025-05-10T08:09:22Z</time>
      </trkpt>
      <trkpt lat="44.89852" lon="0.89404">
        <ele>98.6</ele>
        <time>2025-05-10T08:09:23Z</time>
      </trkpt>
      <trkpt lat="44.89859" lon="0.89403">
        <ele>98.2</ele>
        <time>2025-05-10T08:09:24Z</time>
      </trkpt>
      <trkpt lat="44.89866" lon="0.89401">
        <ele>98</ele>
        <time>2025-05-10T08:09:25Z</time>
      </trkpt>
      <trkpt lat="44.89873" lon="0.894">
        <ele>97.8</ele>
        <time>2025-05-10T08:09:26Z</time>
      </trkpt>
      <trkpt lat="44.8988" lon="0.89399">
        <ele>97.8</ele>
        <time>2025-05-10T08:09:27Z</time>
      </trkpt>
      <trkpt lat="44.89886" lon="0.89398">
        <ele>97.6</ele>
        <time>2025-05-10T08:09:28Z</time>
      </trkpt>
      <trkpt lat="44.89893" lon="0.89397">
        <ele>97.6</ele>
        <time>2025-05-10T08:09:29Z</time>
      </trkpt>
      <trkpt lat="44.899" lon="0.89396">
        <ele>97.4</ele>
        <time>2025-05-10T08:09:30Z</time>
      </trkpt>
      <trkpt lat="44.89906" lon="0.89395">
        <ele>97.4</ele>
        <time>2025-05-10T08:09:31Z</time>
      </trkpt>
      <trkpt lat="44.89913" lon="0.89394">
        <ele>97.4</ele>
        <time>2025-05-10T08:09:32Z</time>
      </trkpt>
      <trkpt lat="44.89919" lon="0.89393">
        <ele>97.6</ele>
        <time>2025-05-10T08:09:33Z</time>
      </trkpt>
      <trkpt lat="44.89925" lon="0.89393">
        <ele>97.6</ele>
        <time>2025-05-10T08:09:34Z</time>
      </trkpt>
      <trkpt lat="44.89932" lon="0.89392">
        <ele>97.6</ele>
        <time>2025-05-10T08:09:35Z</time>
      </trkpt>
      <trkpt lat="44.89938" lon="0.89392">
        <ele>97.6</ele>
        <time>2025-05-10T08:09:36Z</time>
      </trkpt>
      <trkpt lat="44.89944" lon="0.89391">
        <ele>97.8</ele>
        <time>2025-05-10T08:09:37Z</time>
      </trkpt>
      <trkpt lat="44.89951" lon="0.8939">
        <ele>97.8</ele>
        <time>2025-05-10T08:09:38Z</time>
      </trkpt>
      <trkpt lat="44.89958" lon="0.89389">
        <ele>98</ele>
        <time>2025-05-10T08:09:39Z</time>
      </trkpt>
      <trkpt lat="44.89964" lon="0.89389">
        <ele>98.2</ele>
        <time>2025-05-10T08:09:40Z</time>
      </trkpt>
      <trkpt lat="44.89971" lon="0.89389">
        <ele>98.4</ele>
        <time>2025-05-10T08:09:41Z</time>
      </trkpt>
      <trkpt lat="44.89977" lon="0.89388">
        <ele>98.4</ele>
        <time>2025-05-10T08:09:42Z</time>
      </trkpt>
      <trkpt lat="44.89983" lon="0.89387">
        <ele>98.6</ele>
        <time>2025-05-10T08:09:43Z</time>
      </trkpt>
      <trkpt lat="44.8999" lon="0.89387">
        <ele>98.6</ele>
        <time>2025-05-10T08:09:44Z</time>
      </trkpt>
      <trkpt lat="44.89996" lon="0.89386">
        <ele>98.8</ele>
        <time>2025-05-10T08:09:45Z</time>
      </trkpt>
      <trkpt lat="44.90001" lon="0.89385">
        <ele>98.8</ele>
        <time>2025-05-10T08:09:46Z</time>
      </trkpt>
      <trkpt lat="44.90007" lon="0.89385">
        <ele>99</ele>
        <time>2025-05-10T08:09:47Z</time>
      </trkpt>
      <trkpt lat="44.90013" lon="0.89385">
        <ele>99.2</ele>
        <time>2025-05-10T08:09:48Z</time>
      </trkpt>
      <trkpt lat="44.9002" lon="0.89384">
        <ele>99.2</ele>
        <time>2025-05-10T08:09:49Z</time>
      </trkpt>
      <trkpt lat="44.90026" lon="0.89384">
        <ele>99.4</ele>
        <time>2025-05-10T08:09:50Z</time>
      </trkpt>
      <trkpt lat="44.90031" lon="0.89383">
        <ele>99.6</ele>
        <time>2025-05-10T08:09:51Z</time>
      </trkpt>
      <trkpt lat="44.90037" lon="0.89383">
        <ele>99.6</ele>
        <time>2025-05-10T08:09:52Z</time>
      </trkpt>
      <trkpt lat="44.90042" lon="0.89383">
        <ele>99.8</ele>
        <time>2025-05-10T08:09:53Z</time>
      </trkpt>
      <trkpt lat="44.90047" lon="0.89383">
        <ele>99.8</ele>
        <time>2025-05-10T08:09:54Z</time>
      </trkpt>
      <trkpt lat="44.90053" lon="0.89382">
        <ele>100</ele>
        <time>2025-05-10T08:09:55Z</time>
      </trkpt>
      <trkpt lat="44.90057" lon="0.89382">
        <ele>100.4</ele>
        <time>2025-05-10T08:09:56Z</time>
      </trkpt>
      <trkpt lat="44.90062" lon="0.89381">
        <ele>100.4</ele>
        <time>2025-05-10T08:09:57Z</time>
      </trkpt>
      <trkpt lat="44.90065" lon="0.89381">
        <ele>100.8</ele>
        <time>2025-05-10T08:09:58Z</time>
      </trkpt>
      <trkpt lat="44.90069" lon="0.89381">
        <ele>100.8</ele>
        <time>2025-05-10T08:09:59Z</time>
      </trkpt>
      <trkpt lat="44.90071" lon="0.89383">
        <ele>101</ele>
        <time>2025-05-10T08:10:00Z</time>
      </trkpt>
      <trkpt lat="44.90072" lon="0.89385">
        <ele>101.4</ele>
        <time>2025-05-10T08:10:01Z</time>
      </trkpt>
      <trkpt lat="44.90074" lon="0.89388">
        <ele>101.6</ele>
        <time>2025-05-10T08:10:02Z</time>
      </trkpt>
      <trkpt lat="44.90075" lon="0.89389">
        <ele>102.2</ele>
        <time>2025-05-10T08:10:03Z</time>
      </trkpt>
      <trkpt lat="44.90076" lon="0.8939">
        <ele>102.6</ele>
        <time>2025-05-10T08:10:04Z</time>
      </trkpt>
      <trkpt lat="44.90077" lon="0.89392">
        <ele>102.8</ele>
        <time>2025-05-10T08:10:05Z</time>
      </trkpt>
      <trkpt lat="44.90079" lon="0.89393">
        <ele>103</ele>
        <time>2025-05-10T08:10:06Z</time>
      </trkpt>
      <trkpt lat="44.90081" lon="0.89395">
        <ele>103.2</ele>
        <time>2025-05-10T08:10:07Z</time>
      </trkpt>
      <trkpt lat="44.90082" lon="0.89397">
        <ele>103.6</ele>
        <time>2025-05-10T08:10:08Z</time>
      </trkpt>
      <trkpt lat="44.90084" lon="0.89398">
        <ele>103.8</ele>
        <time>2025-05-10T08:10:09Z</time>
      </trkpt>
      <trkpt lat="44.90085" lon="0.894">
        <ele>104</ele>
        <time>2025-05-10T08:10:10Z</time>
      </trkpt>
      <trkpt lat="44.90086" lon="0.89402">
        <ele>104.2</ele>
        <time>2025-05-10T08:10:11Z</time>
      </trkpt>
      <trkpt lat="44.90088" lon="0.89403">
        <ele>104.2</ele>
        <time>2025-05-10T08:10:12Z</time>
      </trkpt>
      <trkpt lat="44.90089" lon="0.89405">
        <ele>104.4</ele>
        <time>2025-05-10T08:10:13Z</time>
      </trkpt>
      <trkpt lat="44.90091" lon="0.89406">
        <ele>104.4</ele>
        <time>2025-05-10T08:10:14Z</time>
      </trkpt>
      <trkpt lat="44.90093" lon="0.89409">
        <ele>104.6</ele>
        <time>2025-05-10T08:10:15Z</time>
      </trkpt>
      <trkpt lat="44.90094" lon="0.89411">
        <ele>104.8</ele>
        <time>2025-05-10T08:10:16Z</time>
      </trkpt>
      <trkpt lat="44.90096" lon="0.89413">
        <ele>104.8</ele>
        <time>2025-05-10T08:10:17Z</time>
      </trkpt>
      <trkpt lat="44.90098" lon="0.89415">
        <ele>104.8</ele>
        <time>2025-05-10T08:10:18Z</time>
      </trkpt>
      <trkpt lat="44.90099" lon="0.89417">
        <ele>105</ele>
        <time>2025-05-10T08:10:19Z</time>
      </trkpt>
      <trkpt lat="44.90101" lon="0.89419">
        <ele>105.2</ele>
        <time>2025-05-10T08:10:20Z</time>
      </trkpt>
      <trkpt lat="44.90103" lon="0.89421">
        <ele>105.2</ele>
        <time>2025-05-10T08:10:21Z</time>
      </trkpt>
      <trkpt lat="44.90105" lon="0.89423">
        <ele>105.4</ele>
        <time>2025-05-10T08:10:22Z</time>
      </trkpt>
      <trkpt lat="44.90106" lon="0.89425">
        <ele>105.6</ele>
        <time>2025-05-10T08:10:23Z</time>
      </trkpt>
      <trkpt lat="44.90107" lon="0.89426">
        <ele>105.8</ele>
        <time>2025-05-10T08:10:24Z</time>
      </trkpt>
      <trkpt lat="44.90109" lon="0.89428">
        <ele>106</ele>
        <time>2025-05-10T08:10:25Z</time>
      </trkpt>
      <trkpt lat="44.90111" lon="0.8943">
        <ele>106</ele>
        <time>2025-05-10T08:10:26Z</time>
      </trkpt>
      <trkpt lat="44.90113" lon="0.89432">
        <ele>106.2</ele>
        <time>2025-05-10T08:10:27Z</time>
      </trkpt>
      <trkpt lat="44.90114" lon="0.89434">
        <ele>106.2</ele>
        <time>2025-05-10T08:10:28Z</time>
      </trkpt>
      <trkpt lat="44.90116" lon="0.89436">
        <ele>106.2</ele>
        <time>2025-05-10T08:10:29Z</time>
      </trkpt>
      <trkpt lat="44.90118" lon="0.89439">
        <ele>106.4</ele>
        <time>2025-05-10T08:10:30Z</time>
      </trkpt>
      <trkpt lat="44.9012" lon="0.89441">
        <ele>106.6</ele>
        <time>2025-05-10T08:10:31Z</time>
      </trkpt>
      <trkpt lat="44.90122" lon="0.89443">
        <ele>106.6</ele>
        <time>2025-05-10T08:10:32Z</time>
      </trkpt>
      <trkpt lat="44.90124" lon="0.89446">
        <ele>106.6</ele>
        <time>2025-05-10T08:10:33Z</time>
      </trkpt>
      <trkpt lat="44.90125" lon="0.89448">
        <ele>106.8</ele>
        <time>2025-05-10T08:10:34Z</time>
      </trkpt>
      <trkpt lat="44.90127" lon="0.8945">
        <ele>106.8</ele>
        <time>2025-05-10T08:10:35Z</time>
      </trkpt>
      <trkpt lat="44.90128" lon="0.89451">
        <ele>107</ele>
        <time>2025-05-10T08:10:36Z</time>
      </trkpt>
      <trkpt lat="44.9013" lon="0.89453">
        <ele>107.2</ele>
        <time>2025-05-10T08:10:37Z</time>
      </trkpt>
      <trkpt lat="44.90131" lon="0.89454">
        <ele>107.2</ele>
        <time>2025-05-10T08:10:38Z</time>
      </trkpt>
      <trkpt lat="44.90133" lon="0.89456">
        <ele>107.4</ele>
        <time>2025-05-10T08:10:39Z</time>
      </trkpt>
      <trkpt lat="44.90135" lon="0.89459">
        <ele>107.6</ele>
        <time>2025-05-10T08:10:40Z</time>
      </trkpt>
      <trkpt lat="44.90137" lon="0.89462">
        <ele>107.8</ele>
        <time>2025-05-10T08:10:41Z</time>
      </trkpt>
      <trkpt lat="44.90138" lon="0.89463">
        <ele>107.8</ele>
        <time>2025-05-10T08:10:42Z</time>
      </trkpt>
      <trkpt lat="44.9014" lon="0.89464">
        <ele>108</ele>
        <time>2025-05-10T08:10:43Z</time>
      </trkpt>
      <trkpt lat="44.90142" lon="0.89466">
        <ele>108</ele>
        <time>2025-05-10T08:10:44Z</time>
      </trkpt>
      <trkpt lat="44.90143" lon="0.89468">
        <ele>108.2</ele>
        <time>2025-05-10T08:10:45Z</time>
      </trkpt>
      <trkpt lat="44.90145" lon="0.8947">
        <ele>108.4</ele>
        <time>2025-05-10T08:10:46Z</time>
      </trkpt>
      <trkpt lat="44.90146" lon="0.89471">
        <ele>108.6</ele>
        <time>2025-05-10T08:10:47Z</time>
      </trkpt>
      <trkpt lat="44.90148" lon="0.89473">
        <ele>108.8</ele>
        <time>2025-05-10T08:10:48Z</time>
      </trkpt>
      <trkpt lat="44.9015" lon="0.89475">
        <ele>108.8</ele>
        <time>2025-05-10T08:10:49Z</time>
      </trkpt>
      <trkpt lat="44.90151" lon="0.89477">
        <ele>109</ele>
        <time>2025-05-10T08:10:50Z</time>
      </trkpt>
      <trkpt lat="44.90153" lon="0.89479">
        <ele>109.2</ele>
        <time>2025-05-10T08:10:51Z</time>
      </trkpt>
      <trkpt lat="44.90155" lon="0.89481">
        <ele>109.4</ele>
        <time>2025-05-10T08:10:52Z</time>
      </trkpt>
      <trkpt lat="44.90157" lon="0.89483">
        <ele>109.6</ele>
        <time>2025-05-10T08:10:53Z</time>
      </trkpt>
      <trkpt lat="44.90158" lon="0.89485">
        <ele>110</ele>
        <time>2025-05-10T08:10:54Z</time>
      </trkpt>
      <trkpt lat="44.9016" lon="0.89487">
        <ele>110.2</ele>
        <time>2025-05-10T08:10:55Z</time>
      </trkpt>
      <trkpt lat="44.90161" lon="0.89489">
        <ele>110.4</ele>
        <time>2025-05-10T08:10:56Z</time>
      </trkpt>
      <trkpt lat="44.90162" lon="0.89492">
        <ele>110.6</ele>
        <time>2025-05-10T08:10:57Z</time>
      </trkpt>
      <trkpt lat="44.90164" lon="0.89494">
        <ele>110.8</ele>
        <time>2025-05-10T08:10:58Z</time>
      </trkpt>
      <trkpt lat="44.90165" lon="0.89496">
        <ele>111.2</ele>
        <time>2025-05-10T08:10:59Z</time>
      </trkpt>
      <trkpt lat="44.90166" lon="0.89497">
        <ele>111.4</ele>
        <time>2025-05-10T08:11:00Z</time>
      </trkpt>
      <trkpt lat="44.90167" lon="0.89499">
        <ele>111.6</ele>
        <time>2025-05-10T08:11:01Z</time>
      </trkpt>
      <trkpt lat="44.90169" lon="0.895">
        <ele>111.8</ele>
        <time>2025-05-10T08:11:02Z</time>
      </trkpt>
      <trkpt lat="44.90169" lon="0.89501">
        <ele>112</ele>
        <time>2025-05-10T08:11:03Z</time>
      </trkpt>
      <trkpt lat="44.9017" lon="0.89502">
        <ele>112.2</ele>
        <time>2025-05-10T08:11:04Z</time>
      </trkpt>
      <trkpt lat="44.90171" lon="0.89504">
        <ele>112.4</ele>
        <time>2025-05-10T08:11:05Z</time>
      </trkpt>
      <trkpt lat="44.90172" lon="0.89505">
        <ele>112.6</ele>
        <time>2025-05-10T08:11:06Z</time>
      </trkpt>
      <trkpt lat="44.90174" lon="0.89507">
        <ele>112.8</ele>
        <time>2025-05-10T08:11:07Z</time>
      </trkpt>
      <trkpt lat="44.90175" lon="0.89508">
        <ele>113</ele>
        <time>2025-05-10T08:11:08Z</time>
      </trkpt>
      <trkpt lat="44.90176" lon="0.89509">
        <ele>113.2</ele>
        <time>2025-05-10T08:11:09Z</time>
      </trkpt>
      <trkpt lat="44.90178" lon="0.8951">
        <ele>113.4</ele>
        <time>2025-05-10T08:11:10Z</time>
      </trkpt>
      <trkpt lat="44.90179" lon="0.89511">
        <ele>113.6</ele>
        <time>2025-05-10T08:11:11Z</time>
      </trkpt>
      <trkpt lat="44.90181" lon="0.89512">
        <ele>113.8</ele>
        <time>2025-05-10T08:11:12Z</time>
      </trkpt>
      <trkpt lat="44.90183" lon="0.89513">
        <ele>114</ele>
        <time>2025-05-10T08:11:13Z</time>
      </trkpt>
      <trkpt lat="44.90185" lon="0.89514">
        <ele>114.2</ele>
        <time>2025-05-10T08:11:14Z</time>
      </trkpt>
      <trkpt lat="44.90187" lon="0.89515">
        <ele>114.4</ele>
        <time>2025-05-10T08:11:15Z</time>
      </trkpt>
      <trkpt lat="44.90188" lon="0.89515">
        <ele>114.8</ele>
        <time>2025-05-10T08:11:16Z</time>
      </trkpt>
      <trkpt lat="44.9019" lon="0.89516">
        <ele>115</ele>
        <time>2025-05-10T08:11:17Z</time>
      </trkpt>
      <trkpt lat="44.90192" lon="0.89516">
        <ele>115.2</ele>
        <time>2025-05-10T08:11:18Z</time>
      </trkpt>
      <trkpt lat="44.90194" lon="0.89516">
        <ele>115.4</ele>
        <time>2025-05-10T08:11:19Z</time>
      </trkpt>
      <trkpt lat="44.90195" lon="0.89517">
        <ele>115.6</ele>
        <time>2025-05-10T08:11:20Z</time>
      </trkpt>
      <trkpt lat="44.90197" lon="0.89517">
        <ele>115.8</ele>
        <time>2025-05-10T08:11:21Z</time>
      </trkpt>
      <trkpt lat="44.90199" lon="0.89517">
        <ele>115.8</ele>
        <time>2025-05-10T08:11:22Z</time>
      </trkpt>
      <trkpt lat="44.90201" lon="0.89518">
        <ele>116</ele>
        <time>2025-05-10T08:11:23Z</time>
      </trkpt>
      <trkpt lat="44.90203" lon="0.89518">
        <ele>116</ele>
        <time>2025-05-10T08:11:24Z</time>
      </trkpt>
      <trkpt lat="44.90205" lon="0.89518">
        <ele>116.2</ele>
        <time>2025-05-10T08:11:25Z</time>
      </trkpt>
      <trkpt lat="44.90207" lon="0.89519">
        <ele>116.2</ele>
        <time>2025-05-10T08:11:26Z</time>
      </trkpt>
      <trkpt lat="44.90209" lon="0.8952">
        <ele>116.4</ele>
        <time>2025-05-10T08:11:27Z</time>
      </trkpt>
      <trkpt lat="44.9021" lon="0.8952">
        <ele>116.4</ele>
        <time>2025-05-10T08:11:28Z</time>
      </trkpt>
      <trkpt lat="44.90212" lon="0.89521">
        <ele>116.6</ele>
        <time>2025-05-10T08:11:29Z</time>
      </trkpt>
      <trkpt lat="44.90214" lon="0.89521">
        <ele>116.6</ele>
        <time>2025-05-10T08:11:30Z</time>
      </trkpt>
      <trkpt lat="44.90216" lon="0.89522">
        <ele>116.8</ele>
        <time>2025-05-10T08:11:31Z</time>
      </trkpt>
      <trkpt lat="44.90217" lon="0.89523">
        <ele>117</ele>
        <time>2025-05-10T08:11:32Z</time>
      </trkpt>
      <trkpt lat="44.90219" lon="0.89524">
        <ele>117.2</ele>
        <time>2025-05-10T08:11:33Z</time>
      </trkpt>
      <trkpt lat="44.9022" lon="0.89526">
        <ele>117.2</ele>
        <time>2025-05-10T08:11:34Z</time>
      </trkpt>
      <trkpt lat="44.90221" lon="0.89527">
        <ele>117.4</ele>
        <time>2025-05-10T08:11:35Z</time>
      </trkpt>
      <trkpt lat="44.90223" lon="0.89528">
        <ele>117.6</ele>
        <time>2025-05-10T08:11:36Z</time>
      </trkpt>
      <trkpt lat="44.90224" lon="0.8953">
        <ele>117.6</ele>
        <time>2025-05-10T08:11:37Z</time>
      </trkpt>
      <trkpt lat="44.90225" lon="0.89531">
        <ele>118</ele>
        <time>2025-05-10T08:11:38Z</time>
      </trkpt>
      <trkpt lat="44.90227" lon="0.89532">
        <ele>118</ele>
        <time>2025-05-10T08:11:39Z</time>
      </trkpt>
      <trkpt lat="44.90228" lon="0.89533">
        <ele>118.4</ele>
        <time>2025-05-10T08:11:40Z</time>
      </trkpt>
      <trkpt lat="44.90228" lon="0.89535">
        <ele>118.6</ele>
        <time>2025-05-10T08:11:41Z</time>
      </trkpt>
      <trkpt lat="44.90229" lon="0.89536">
        <ele>118.8</ele>
        <time>2025-05-10T08:11:42Z</time>
      </trkpt>
      <trkpt lat="44.90231" lon="0.89537">
        <ele>119</ele>
        <time>2025-05-10T08:11:43Z</time>
      </trkpt>
      <trkpt lat="44.90233" lon="0.89538">
        <ele>119.2</ele>
        <time>2025-05-10T08:11:44Z</time>
      </trkpt>
      <trkpt lat="44.90234" lon="0.89539">
        <ele>119.4</ele>
        <time>2025-05-10T08:11:45Z</time>
      </trkpt>
      <trkpt lat="44.90235" lon="0.8954">
        <ele>119.6</ele>
        <time>2025-05-10T08:11:46Z</time>
      </trkpt>
      <trkpt lat="44.90236" lon="0.89541">
        <ele>119.8</ele>
        <time>2025-05-10T08:11:47Z</time>
      </trkpt>
      <trkpt lat="44.90237" lon="0.89542">
        <ele>120</ele>
        <time>2025-05-10T08:11:48Z</time>
      </trkpt>
      <trkpt lat="44.90238" lon="0.89543">
        <ele>120.2</ele>
        <time>2025-05-10T08:11:49Z</time>
      </trkpt>
      <trkpt lat="44.90239" lon="0.89544">
        <ele>120.2</ele>
        <time>2025-05-10T08:11:50Z</time>
      </trkpt>
      <trkpt lat="44.9024" lon="0.89546">
        <ele>120.4</ele>
        <time>2025-05-10T08:11:51Z</time>
      </trkpt>
      <trkpt lat="44.90241" lon="0.89548">
        <ele>120.6</ele>
        <time>2025-05-10T08:11:52Z</time>
      </trkpt>
      <trkpt lat="44.90242" lon="0.8955">
        <ele>120.8</ele>
        <time>2025-05-10T08:11:53Z</time>
      </trkpt>
      <trkpt lat="44.90243" lon="0.89551">
        <ele>121</ele>
        <time>2025-05-10T08:11:54Z</time>
      </trkpt>
      <trkpt lat="44.90244" lon="0.89553">
        <ele>121.2</ele>
        <time>2025-05-10T08:11:55Z</time>
      </trkpt>
      <trkpt lat="44.90245" lon="0.89554">
        <ele>121.2</ele>
        <time>2025-05-10T08:11:56Z</time>
      </trkpt>
      <trkpt lat="44.90246" lon="0.89556">
        <ele>121.4</ele>
        <time>2025-05-10T08:11:57Z</time>
      </trkpt>
      <trkpt lat="44.90247" lon="0.89558">
        <ele>121.6</ele>
        <time>2025-05-10T08:11:58Z</time>
      </trkpt>
      <trkpt lat="44.90247" lon="0.89559">
        <ele>121.8</ele>
        <time>2025-05-10T08:11:59Z</time>
      </trkpt>
      <trkpt lat="44.90248" lon="0.89561">
        <ele>121.8</ele>
        <time>2025-05-10T08:12:00Z</time>
      </trkpt>
      <trkpt lat="44.90249" lon="0.89564">
        <ele>122</ele>
        <time>2025-05-10T08:12:01Z</time>
      </trkpt>
      <trkpt lat="44.9025" lon="0.89566">
        <ele>122.2</ele>
        <time>2025-05-10T08:12:02Z</time>
      </trkpt>
      <trkpt lat="44.90251" lon="0.89568">
        <ele>122.4</ele>
        <time>2025-05-10T08:12:03Z</time>
      </trkpt>
      <trkpt lat="44.90252" lon="0.89569">
        <ele>122.6</ele>
        <time>2025-05-10T08:12:04Z</time>
      </trkpt>
      <trkpt lat="44.90252" lon="0.89571">
        <ele>122.8</ele>
        <time>2025-05-10T08:12:05Z</time>
      </trkpt>
      <trkpt lat="44.90254" lon="0.89572">
        <ele>122.8</ele>
        <time>2025-05-10T08:12:06Z</time>
      </trkpt>
      <trkpt lat="44.90255" lon="0.89575">
        <ele>123</ele>
        <time>2025-05-10T08:12:07Z</time>
      </trkpt>
      <trkpt lat="44.90256" lon="0.89576">
        <ele>123.2</ele>
        <time>2025-05-10T08:12:08Z</time>
      </trkpt>
      <trkpt lat="44.90257" lon="0.89578">
        <ele>123.4</ele>
        <time>2025-05-10T08:12:09Z</time>
      </trkpt>
      <trkpt lat="44.90258" lon="0.8958">
        <ele>123.6</ele>
        <time>2025-05-10T08:12:10Z</time>
      </trkpt>
      <trkpt lat="44.90258" lon="0.89581">
        <ele>123.6</ele>
        <time>2025-05-10T08:12:11Z</time>
      </trkpt>
      <trkpt lat="44.9026" lon="0.89583">
        <ele>123.8</ele>
        <time>2025-05-10T08:12:12Z</time>
      </trkpt>
      <trkpt lat="44.90261" lon="0.89585">
        <ele>124</ele>
        <time>2025-05-10T08:12:13Z</time>
      </trkpt>
      <trkpt lat="44.90263" lon="0.89588">
        <ele>124.2</ele>
        <time>2025-05-10T08:12:14Z</time>
      </trkpt>
      <trkpt lat="44.90263" lon="0.8959">
        <ele>124.4</ele>
        <time>2025-05-10T08:12:15Z</time>
      </trkpt>
      <trkpt lat="44.90265" lon="0.89592">
        <ele>124.6</ele>
        <time>2025-05-10T08:12:16Z</time>
      </trkpt>
      <trkpt lat="44.90265" lon="0.89594">
        <ele>124.8</ele>
        <time>2025-05-10T08:12:17Z</time>
      </trkpt>
      <trkpt lat="44.90266" lon="0.89597">
        <ele>125</ele>
        <time>2025-05-10T08:12:18Z</time>
      </trkpt>
      <trkpt lat="44.90268" lon="0.896">
        <ele>125</ele>
        <time>2025-05-10T08:12:19Z</time>
      </trkpt>
      <trkpt lat="44.90269" lon="0.89602">
        <ele>125.2</ele>
        <time>2025-05-10T08:12:20Z</time>
      </trkpt>
      <trkpt lat="44.9027" lon="0.89605">
        <ele>125.4</ele>
        <time>2025-05-10T08:12:21Z</time>
      </trkpt>
      <trkpt lat="44.9027" lon="0.89607">
        <ele>125.6</ele>
        <time>2025-05-10T08:12:22Z</time>
      </trkpt>
      <trkpt lat="44.90271" lon="0.89609">
        <ele>125.8</ele>
        <time>2025-05-10T08:12:23Z</time>
      </trkpt>
      <trkpt lat="44.90272" lon="0.89611">
        <ele>125.8</ele>
        <time>2025-05-10T08:12:24Z</time>
      </trkpt>
      <trkpt lat="44.90273" lon="0.89612">
        <ele>126</ele>
        <time>2025-05-10T08:12:25Z</time>
      </trkpt>
      <trkpt lat="44.90274" lon="0.89614">
        <ele>126.2</ele>
        <time>2025-05-10T08:12:26Z</time>
      </trkpt>
      <trkpt lat="44.90275" lon="0.89616">
        <ele>126.4</ele>
        <time>2025-05-10T08:12:27Z</time>
      </trkpt>
      <trkpt lat="44.90276" lon="0.89618">
        <ele>126.6</ele>
        <time>2025-05-10T08:12:28Z</time>
      </trkpt>
      <trkpt lat="44.90277" lon="0.8962">
        <ele>126.8</ele>
        <time>2025-05-10T08:12:29Z</time>
      </trkpt>
      <trkpt lat="44.90278" lon="0.89622">
        <ele>127</ele>
        <time>2025-05-10T08:12:30Z</time>
      </trkpt>
      <trkpt lat="44.90279" lon="0.89624">
        <ele>127.2</ele>
        <time>2025-05-10T08:12:31Z</time>
      </trkpt>
      <trkpt lat="44.9028" lon="0.89626">
        <ele>127.4</ele>
        <time>2025-05-10T08:12:32Z</time>
      </trkpt>
      <trkpt lat="44.90282" lon="0.89628">
        <ele>127.6</ele>
        <time>2025-05-10T08:12:33Z</time>
      </trkpt>
      <trkpt lat="44.90283" lon="0.89629">
        <ele>127.6</ele>
        <time>2025-05-10T08:12:34Z</time>
      </trkpt>
      <trkpt lat="44.90285" lon="0.89632">
        <ele>127.8</ele>
        <time>2025-05-10T08:12:35Z</time>
      </trkpt>
      <trkpt lat="44.90286" lon="0.89633">
        <ele>127.8</ele>
        <time>2025-05-10T08:12:36Z</time>
      </trkpt>
      <trkpt lat="44.90288" lon="0.89635">
        <ele>128</ele>
        <time>2025-05-10T08:12:37Z</time>
      </trkpt>
      <trkpt lat="44.90289" lon="0.89637">
        <ele>128</ele>
        <time>2025-05-10T08:12:38Z</time>
      </trkpt>
      <trkpt lat="44.9029" lon="0.89638">
        <ele>128</ele>
        <time>2025-05-10T08:12:39Z</time>
      </trkpt>
      <trkpt lat="44.90292" lon="0.89639">
        <ele>128</ele>
        <time>2025-05-10T08:12:40Z</time>
      </trkpt>
      <trkpt lat="44.90293" lon="0.8964">
        <ele>128.2</ele>
        <time>2025-05-10T08:12:41Z</time>
      </trkpt>
      <trkpt lat="44.90295" lon="0.89642">
        <ele>128.2</ele>
        <time>2025-05-10T08:12:42Z</time>
      </trkpt>
      <trkpt lat="44.90297" lon="0.89644">
        <ele>128.2</ele>
        <time>2025-05-10T08:12:43Z</time>
      </trkpt>
      <trkpt lat="44.90299" lon="0.89646">
        <ele>128.4</ele>
        <time>2025-05-10T08:12:44Z</time>
      </trkpt>
      <trkpt lat="44.90301" lon="0.89648">
        <ele>128.6</ele>
        <time>2025-05-10T08:12:45Z</time>
      </trkpt>
      <trkpt lat="44.90303" lon="0.8965">
        <ele>128.6</ele>
        <time>2025-05-10T08:12:46Z</time>
      </trkpt>
      <trkpt lat="44.90305" lon="0.89651">
        <ele>128.8</ele>
        <time>2025-05-10T08:12:47Z</time>
      </trkpt>
      <trkpt lat="44.90307" lon="0.89651">
        <ele>128.8</ele>
        <time>2025-05-10T08:12:48Z</time>
      </trkpt>
      <trkpt lat="44.90309" lon="0.89652">
        <ele>129</ele>
        <time>2025-05-10T08:12:49Z</time>
      </trkpt>
      <trkpt lat="44.90311" lon="0.89651">
        <ele>129</ele>
        <time>2025-05-10T08:12:50Z</time>
      </trkpt>
      <trkpt lat="44.90313" lon="0.89649">
        <ele>129</ele>
        <time>2025-05-10T08:12:51Z</time>
      </trkpt>
      <trkpt lat="44.90314" lon="0.89647">
        <ele>129</ele>
        <time>2025-05-10T08:12:52Z</time>
      </trkpt>
      <trkpt lat="44.90315" lon="0.89645">
        <ele>129</ele>
        <time>2025-05-10T08:12:53Z</time>
      </trkpt>
      <trkpt lat="44.90315" lon="0.89642">
        <ele>129.2</ele>
        <time>2025-05-10T08:12:54Z</time>
      </trkpt>
      <trkpt lat="44.90317" lon="0.89641">
        <ele>129.2</ele>
        <time>2025-05-10T08:12:55Z</time>
      </trkpt>
      <trkpt lat="44.90318" lon="0.89638">
        <ele>129.2</ele>
        <time>2025-05-10T08:12:56Z</time>
      </trkpt>
      <trkpt lat="44.90319" lon="0.89635">
        <ele>129.2</ele>
        <time>2025-05-10T08:12:57Z</time>
      </trkpt>
      <trkpt lat="44.9032" lon="0.89633">
        <ele>129.4</ele>
        <time>2025-05-10T08:12:58Z</time>
      </trkpt>
      <trkpt lat="44.90323" lon="0.8963">
        <ele>129.4</ele>
        <time>2025-05-10T08:12:59Z</time>
      </trkpt>
      <trkpt lat="44.90325" lon="0.89629">
        <ele>129.4</ele>
        <time>2025-05-10T08:13:00Z</time>
      </trkpt>
      <trkpt lat="44.90327" lon="0.89629">
        <ele>129.4</ele>
        <time>2025-05-10T08:13:01Z</time>
      </trkpt>
      <trkpt lat="44.90329" lon="0.89629">
        <ele>129.4</ele>
        <time>2025-05-10T08:13:02Z</time>
      </trkpt>
      <trkpt lat="44.90331" lon="0.89629">
        <ele>129.6</ele>
        <time>2025-05-10T08:13:03Z</time>
      </trkpt>
      <trkpt lat="44.90333" lon="0.8963">
        <ele>129.6</ele>
        <time>2025-05-10T08:13:04Z</time>
      </trkpt>
      <trkpt lat="44.90335" lon="0.8963">
        <ele>129.8</ele>
        <time>2025-05-10T08:13:05Z</time>
      </trkpt>
      <trkpt lat="44.90337" lon="0.89629">
        <ele>130</ele>
        <time>2025-05-10T08:13:06Z</time>
      </trkpt>
      <trkpt lat="44.90339" lon="0.89629">
        <ele>130</ele>
        <time>2025-05-10T08:13:07Z</time>
      </trkpt>
      <trkpt lat="44.90341" lon="0.89629">
        <ele>130.2</ele>
        <time>2025-05-10T08:13:08Z</time>
      </trkpt>
      <trkpt lat="44.90343" lon="0.89629">
        <ele>130.4</ele>
        <time>2025-05-10T08:13:09Z</time>
      </trkpt>
      <trkpt lat="44.90345" lon="0.89629">
        <ele>130.4</ele>
        <time>2025-05-10T08:13:10Z</time>
      </trkpt>
      <trkpt lat="44.90347" lon="0.89629">
        <ele>130.6</ele>
        <time>2025-05-10T08:13:11Z</time>
      </trkpt>
      <trkpt lat="44.90349" lon="0.89629">
        <ele>130.8</ele>
        <time>2025-05-10T08:13:12Z</time>
      </trkpt>
      <trkpt lat="44.90351" lon="0.89629">
        <ele>131</ele>
        <time>2025-05-10T08:13:13Z</time>
      </trkpt>
      <trkpt lat="44.90353" lon="0.89629">
        <ele>131.4</ele>
        <time>2025-05-10T08:13:14Z</time>
      </trkpt>
      <trkpt lat="44.90355" lon="0.89629">
        <ele>131.6</ele>
        <time>2025-05-10T08:13:15Z</time>
      </trkpt>
      <trkpt lat="44.90356" lon="0.8963">
        <ele>131.8</ele>
        <time>2025-05-10T08:13:16Z</time>
      </trkpt>
      <trkpt lat="44.90358" lon="0.89631">
        <ele>132</ele>
        <time>2025-05-10T08:13:17Z</time>
      </trkpt>
      <trkpt lat="44.9036" lon="0.89631">
        <ele>132.2</ele>
        <time>2025-05-10T08:13:18Z</time>
      </trkpt>
      <trkpt lat="44.90362" lon="0.89632">
        <ele>132.4</ele>
        <time>2025-05-10T08:13:19Z</time>
      </trkpt>
      <trkpt lat="44.90364" lon="0.89633">
        <ele>132.6</ele>
        <time>2025-05-10T08:13:20Z</time>
      </trkpt>
      <trkpt lat="44.90366" lon="0.89634">
        <ele>132.8</ele>
        <time>2025-05-10T08:13:21Z</time>
      </trkpt>
      <trkpt lat="44.90367" lon="0.89635">
        <ele>133</ele>
        <time>2025-05-10T08:13:22Z</time>
      </trkpt>
      <trkpt lat="44.90369" lon="0.89635">
        <ele>133.2</ele>
        <time>2025-05-10T08:13:23Z</time>
      </trkpt>
      <trkpt lat="44.9037" lon="0.89636">
        <ele>133.4</ele>
        <time>2025-05-10T08:13:24Z</time>
      </trkpt>
      <trkpt lat="44.90372" lon="0.89637">
        <ele>133.6</ele>
        <time>2025-05-10T08:13:25Z</time>
      </trkpt>
      <trkpt lat="44.90374" lon="0.89638">
        <ele>133.8</ele>
        <time>2025-05-10T08:13:26Z</time>
      </trkpt>
      <trkpt lat="44.90376" lon="0.89639">
        <ele>134</ele>
        <time>2025-05-10T08:13:27Z</time>
      </trkpt>
      <trkpt lat="44.90378" lon="0.8964">
        <ele>134.2</ele>
        <time>2025-05-10T08:13:28Z</time>
      </trkpt>
      <trkpt lat="44.9038" lon="0.8964">
        <ele>134.4</ele>
        <time>2025-05-10T08:13:29Z</time>
      </trkpt>
      <trkpt lat="44.90382" lon="0.89641">
        <ele>134.8</ele>
        <time>2025-05-10T08:13:30Z</time>
      </trkpt>
      <trkpt lat="44.90383" lon="0.89641">
        <ele>135</ele>
        <time>2025-05-10T08:13:31Z</time>
      </trkpt>
      <trkpt lat="44.90385" lon="0.89642">
        <ele>135.2</ele>
        <time>2025-05-10T08:13:32Z</time>
      </trkpt>
      <trkpt lat="44.90387" lon="0.89642">
        <ele>135.2</ele>
        <time>2025-05-10T08:13:33Z</time>
      </trkpt>
      <trkpt lat="44.90388" lon="0.89643">
        <ele>135.6</ele>
        <time>2025-05-10T08:13:34Z</time>
      </trkpt>
      <trkpt lat="44.90389" lon="0.89644">
        <ele>135.6</ele>
        <time>2025-05-10T08:13:35Z</time>
      </trkpt>
      <trkpt lat="44.90391" lon="0.89644">
        <ele>136</ele>
        <time>2025-05-10T08:13:36Z</time>
      </trkpt>
      <trkpt lat="44.90393" lon="0.89645">
        <ele>136.2</ele>
        <time>2025-05-10T08:13:37Z</time>
      </trkpt>
      <trkpt lat="44.90394" lon="0.89645">
        <ele>136.2</ele>
        <time>2025-05-10T08:13:38Z</time>
      </trkpt>
      <trkpt lat="44.90396" lon="0.89647">
        <ele>136.6</ele>
        <time>2025-05-10T08:13:39Z</time>
      </trkpt>
      <trkpt lat="44.90398" lon="0.89648">
        <ele>136.8</ele>
        <time>2025-05-10T08:13:40Z</time>
      </trkpt>
      <trkpt lat="44.904" lon="0.89649">
        <ele>136.8</ele>
        <time>2025-05-10T08:13:41Z</time>
      </trkpt>
      <trkpt lat="44.90401" lon="0.8965">
        <ele>137</ele>
        <time>2025-05-10T08:13:42Z</time>
      </trkpt>
      <trkpt lat="44.90403" lon="0.89651">
        <ele>137.2</ele>
        <time>2025-05-10T08:13:43Z</time>
      </trkpt>
      <trkpt lat="44.90405" lon="0.89653">
        <ele>137.4</ele>
        <time>2025-05-10T08:13:44Z</time>
      </trkpt>
      <trkpt lat="44.90407" lon="0.89654">
        <ele>137.6</ele>
        <time>2025-05-10T08:13:45Z</time>
      </trkpt>
      <trkpt lat="44.90408" lon="0.89655">
        <ele>137.8</ele>
        <time>2025-05-10T08:13:46Z</time>
      </trkpt>
      <trkpt lat="44.9041" lon="0.89656">
        <ele>138</ele>
        <time>2025-05-10T08:13:47Z</time>
      </trkpt>
      <trkpt lat="44.90412" lon="0.89657">
        <ele>138.2</ele>
        <time>2025-05-10T08:13:48Z</time>
      </trkpt>
      <trkpt lat="44.90414" lon="0.89658">
        <ele>138.4</ele>
        <time>2025-05-10T08:13:49Z</time>
      </trkpt>
      <trkpt lat="44.90415" lon="0.89658">
        <ele>138.6</ele>
        <time>2025-05-10T08:13:50Z</time>
      </trkpt>
      <trkpt lat="44.90417" lon="0.89658">
        <ele>138.8</ele>
        <time>2025-05-10T08:13:51Z</time>
      </trkpt>
      <trkpt lat="44.90419" lon="0.89657">
        <ele>139</ele>
        <time>2025-05-10T08:13:52Z</time>
      </trkpt>
      <trkpt lat="44.9042" lon="0.89658">
        <ele>139.2</ele>
        <time>2025-05-10T08:13:53Z</time>
      </trkpt>
      <trkpt lat="44.90422" lon="0.89658">
        <ele>139.6</ele>
        <time>2025-05-10T08:13:54Z</time>
      </trkpt>
      <trkpt lat="44.90424" lon="0.89658">
        <ele>139.6</ele>
        <time>2025-05-10T08:13:55Z</time>
      </trkpt>
      <trkpt lat="44.90425" lon="0.89658">
        <ele>140</ele>
        <time>2025-05-10T08:13:56Z</time>
      </trkpt>
      <trkpt lat="44.90427" lon="0.89658">
        <ele>140</ele>
        <time>2025-05-10T08:13:57Z</time>
      </trkpt>
      <trkpt lat="44.90429" lon="0.89658">
        <ele>140.4</ele>
        <time>2025-05-10T08:13:58Z</time>
      </trkpt>
      <trkpt lat="44.90431" lon="0.89658">
        <ele>140.6</ele>
        <time>2025-05-10T08:13:59Z</time>
      </trkpt>
      <trkpt lat="44.90433" lon="0.89659">
        <ele>140.8</ele>
        <time>2025-05-10T08:14:00Z</time>
      </trkpt>
      <trkpt lat="44.90435" lon="0.89659">
        <ele>141.2</ele>
        <time>2025-05-10T08:14:01Z</time>
      </trkpt>
      <trkpt lat="44.90437" lon="0.8966">
        <ele>141.4</ele>
        <time>2025-05-10T08:14:02Z</time>
      </trkpt>
      <trkpt lat="44.9044" lon="0.89661">
        <ele>141.6</ele>
        <time>2025-05-10T08:14:03Z</time>
      </trkpt>
      <trkpt lat="44.90442" lon="0.89662">
        <ele>141.6</ele>
        <time>2025-05-10T08:14:04Z</time>
      </trkpt>
      <trkpt lat="44.90445" lon="0.89663">
        <ele>141.8</ele>
        <time>2025-05-10T08:14:05Z</time>
      </trkpt>
      <trkpt lat="44.90447" lon="0.89663">
        <ele>142</ele>
        <time>2025-05-10T08:14:06Z</time>
      </trkpt>
      <trkpt lat="44.9045" lon="0.89663">
        <ele>142</ele>
        <time>2025-05-10T08:14:07Z</time>
      </trkpt>
      <trkpt lat="44.90452" lon="0.89664">
        <ele>142.2</ele>
        <time>2025-05-10T08:14:08Z</time>
      </trkpt>
      <trkpt lat="44.90455" lon="0.89664">
        <ele>142.2</ele>
        <time>2025-05-10T08:14:09Z</time>
      </trkpt>
      <trkpt lat="44.90457" lon="0.89665">
        <ele>142.4</ele>
        <time>2025-05-10T08:14:10Z</time>
      </trkpt>
      <trkpt lat="44.90459" lon="0.89666">
        <ele>142.4</ele>
        <time>2025-05-10T08:14:11Z</time>
      </trkpt>
      <trkpt lat="44.90462" lon="0.89667">
        <ele>142.4</ele>
        <time>2025-05-10T08:14:12Z</time>
      </trkpt>
      <trkpt lat="44.90465" lon="0.89669">
        <ele>142.4</ele>
        <time>2025-05-10T08:14:13Z</time>
      </trkpt>
      <trkpt lat="44.90468" lon="0.89671">
        <ele>142.4</ele>
        <time>2025-05-10T08:14:14Z</time>
      </trkpt>
      <trkpt lat="44.90471" lon="0.89672">
        <ele>142.4</ele>
        <time>2025-05-10T08:14:15Z</time>
      </trkpt>
      <trkpt lat="44.90475" lon="0.89673">
        <ele>142.4</ele>
        <time>2025-05-10T08:14:16Z</time>
      </trkpt>
      <trkpt lat="44.90478" lon="0.89673">
        <ele>142.2</ele>
        <time>2025-05-10T08:14:17Z</time>
      </trkpt>
      <trkpt lat="44.90482" lon="0.89673">
        <ele>142</ele>
        <time>2025-05-10T08:14:18Z</time>
      </trkpt>
      <trkpt lat="44.90485" lon="0.89674">
        <ele>142</ele>
        <time>2025-05-10T08:14:19Z</time>
      </trkpt>
      <trkpt lat="44.90488" lon="0.89674">
        <ele>142</ele>
        <time>2025-05-10T08:14:20Z</time>
      </trkpt>
      <trkpt lat="44.90491" lon="0.89673">
        <ele>142</ele>
        <time>2025-05-10T08:14:21Z</time>
      </trkpt>
      <trkpt lat="44.90494" lon="0.89673">
        <ele>142.2</ele>
        <time>2025-05-10T08:14:22Z</time>
      </trkpt>
      <trkpt lat="44.90496" lon="0.89674">
        <ele>142.4</ele>
        <time>2025-05-10T08:14:23Z</time>
      </trkpt>
      <trkpt lat="44.90499" lon="0.89675">
        <ele>142.4</ele>
        <time>2025-05-10T08:14:24Z</time>
      </trkpt>
      <trkpt lat="44.90501" lon="0.89677">
        <ele>142.6</ele>
        <time>2025-05-10T08:14:25Z</time>
      </trkpt>
      <trkpt lat="44.90503" lon="0.89679">
        <ele>142.6</ele>
        <time>2025-05-10T08:14:26Z</time>
      </trkpt>
      <trkpt lat="44.90505" lon="0.8968">
        <ele>142.8</ele>
        <time>2025-05-10T08:14:27Z</time>
      </trkpt>
      <trkpt lat="44.90508" lon="0.89682">
        <ele>143</ele>
        <time>2025-05-10T08:14:28Z</time>
      </trkpt>
      <trkpt lat="44.90511" lon="0.89684">
        <ele>143</ele>
        <time>2025-05-10T08:14:29Z</time>
      </trkpt>
      <trkpt lat="44.90513" lon="0.89684">
        <ele>143.2</ele>
        <time>2025-05-10T08:14:30Z</time>
      </trkpt>
      <trkpt lat="44.90515" lon="0.89685">
        <ele>143.4</ele>
        <time>2025-05-10T08:14:31Z</time>
      </trkpt>
      <trkpt lat="44.90518" lon="0.89687">
        <ele>143.6</ele>
        <time>2025-05-10T08:14:32Z</time>
      </trkpt>
      <trkpt lat="44.9052" lon="0.89687">
        <ele>143.8</ele>
        <time>2025-05-10T08:14:33Z</time>
      </trkpt>
      <trkpt lat="44.90522" lon="0.89688">
        <ele>144.2</ele>
        <time>2025-05-10T08:14:34Z</time>
      </trkpt>
      <trkpt lat="44.90524" lon="0.89689">
        <ele>144.6</ele>
        <time>2025-05-10T08:14:35Z</time>
      </trkpt>
      <trkpt lat="44.90526" lon="0.8969">
        <ele>144.8</ele>
        <time>2025-05-10T08:14:36Z</time>
      </trkpt>
      <trkpt lat="44.90528" lon="0.8969">
        <ele>145</ele>
        <time>2025-05-10T08:14:37Z</time>
      </trkpt>
      <trkpt lat="44.9053" lon="0.89691">
        <ele>145.4</ele>
        <time>2025-05-10T08:14:38Z</time>
      </trkpt>
      <trkpt lat="44.90532" lon="0.89691">
        <ele>145.6</ele>
        <time>2025-05-10T08:14:39Z</time>
      </trkpt>
      <trkpt lat="44.90534" lon="0.89691">
        <ele>146</ele>
        <time>2025-05-10T08:14:40Z</time>
      </trkpt>
      <trkpt lat="44.90536" lon="0.89691">
        <ele>146.2</ele>
        <time>2025-05-10T08:14:41Z</time>
      </trkpt>
      <trkpt lat="44.90538" lon="0.89691">
        <ele>146.4</ele>
        <time>2025-05-10T08:14:42Z</time>
      </trkpt>
      <trkpt lat="44.9054" lon="0.89692">
        <ele>146.6</ele>
        <time>2025-05-10T08:14:43Z</time>
      </trkpt>
      <trkpt lat="44.90542" lon="0.89693">
        <ele>147</ele>
        <time>2025-05-10T08:14:44Z</time>
      </trkpt>
      <trkpt lat="44.90544" lon="0.89694">
        <ele>147.4</ele>
        <time>2025-05-10T08:14:45Z</time>
      </trkpt>
      <trkpt lat="44.90546" lon="0.89694">
        <ele>147.6</ele>
        <time>2025-05-10T08:14:46Z</time>
      </trkpt>
      <trkpt lat="44.90548" lon="0.89696">
        <ele>147.8</ele>
        <time>2025-05-10T08:14:47Z</time>
      </trkpt>
      <trkpt lat="44.90551" lon="0.89696">
        <ele>147.8</ele>
        <time>2025-05-10T08:14:48Z</time>
      </trkpt>
      <trkpt lat="44.90553" lon="0.89697">
        <ele>148</ele>
        <time>2025-05-10T08:14:49Z</time>
      </trkpt>
      <trkpt lat="44.90556" lon="0.89698">
        <ele>148.2</ele>
        <time>2025-05-10T08:14:50Z</time>
      </trkpt>
      <trkpt lat="44.90558" lon="0.89699">
        <ele>148.4</ele>
        <time>2025-05-10T08:14:51Z</time>
      </trkpt>
      <trkpt lat="44.90561" lon="0.897">
        <ele>148.6</ele>
        <time>2025-05-10T08:14:52Z</time>
      </trkpt>
      <trkpt lat="44.90563" lon="0.897">
        <ele>148.8</ele>
        <time>2025-05-10T08:14:53Z</time>
      </trkpt>
      <trkpt lat="44.90565" lon="0.897">
        <ele>149</ele>
        <time>2025-05-10T08:14:54Z</time>
      </trkpt>
      <trkpt lat="44.90567" lon="0.89701">
        <ele>149</ele>
        <time>2025-05-10T08:14:55Z</time>
      </trkpt>
      <trkpt lat="44.9057" lon="0.89701">
        <ele>149.2</ele>
        <time>2025-05-10T08:14:56Z</time>
      </trkpt>
      <trkpt lat="44.90572" lon="0.89701">
        <ele>149.4</ele>
        <time>2025-05-10T08:14:57Z</time>
      </trkpt>
      <trkpt lat="44.90574" lon="0.89701">
        <ele>149.6</ele>
        <time>2025-05-10T08:14:58Z</time>
      </trkpt>
      <trkpt lat="44.90576" lon="0.89702">
        <ele>149.8</ele>
        <time>2025-05-10T08:14:59Z</time>
      </trkpt>
      <trkpt lat="44.90578" lon="0.89703">
        <ele>150</ele>
        <time>2025-05-10T08:15:00Z</time>
      </trkpt>
      <trkpt lat="44.90581" lon="0.89704">
        <ele>150</ele>
        <time>2025-05-10T08:15:01Z</time>
      </trkpt>
      <trkpt lat="44.90583" lon="0.89704">
        <ele>150.2</ele>
        <time>2025-05-10T08:15:02Z</time>
      </trkpt>
      <trkpt lat="44.90586" lon="0.89704">
        <ele>150.4</ele>
        <time>2025-05-10T08:15:03Z</time>
      </trkpt>
      <trkpt lat="44.90588" lon="0.89706">
        <ele>150.6</ele>
        <time>2025-05-10T08:15:04Z</time>
      </trkpt>
      <trkpt lat="44.90591" lon="0.89707">
        <ele>150.6</ele>
        <time>2025-05-10T08:15:05Z</time>
      </trkpt>
      <trkpt lat="44.90593" lon="0.89707">
        <ele>150.8</ele>
        <time>2025-05-10T08:15:06Z</time>
      </trkpt>
      <trkpt lat="44.90595" lon="0.89707">
        <ele>150.8</ele>
        <time>2025-05-10T08:15:07Z</time>
      </trkpt>
      <trkpt lat="44.90598" lon="0.89707">
        <ele>151</ele>
        <time>2025-05-10T08:15:08Z</time>
      </trkpt>
      <trkpt lat="44.906" lon="0.89708">
        <ele>151.2</ele>
        <time>2025-05-10T08:15:09Z</time>
      </trkpt>
      <trkpt lat="44.90602" lon="0.89708">
        <ele>151.2</ele>
        <time>2025-05-10T08:15:10Z</time>
      </trkpt>
      <trkpt lat="44.90605" lon="0.8971">
        <ele>151.2</ele>
        <time>2025-05-10T08:15:11Z</time>
      </trkpt>
      <trkpt lat="44.90607" lon="0.89711">
        <ele>151.4</ele>
        <time>2025-05-10T08:15:12Z</time>
      </trkpt>
      <trkpt lat="44.90608" lon="0.89712">
        <ele>151.6</ele>
        <time>2025-05-10T08:15:13Z</time>
      </trkpt>
      <trkpt lat="44.90611" lon="0.89713">
        <ele>151.6</ele>
        <time>2025-05-10T08:15:14Z</time>
      </trkpt>
      <trkpt lat="44.90613" lon="0.89714">
        <ele>151.8</ele>
        <time>2025-05-10T08:15:15Z</time>
      </trkpt>
      <trkpt lat="44.90615" lon="0.89715">
        <ele>152</ele>
        <time>2025-05-10T08:15:16Z</time>
      </trkpt>
      <trkpt lat="44.90617" lon="0.89715">
        <ele>152</ele>
        <time>2025-05-10T08:15:17Z</time>
      </trkpt>
      <trkpt lat="44.90618" lon="0.89715">
        <ele>152.4</ele>
        <time>2025-05-10T08:15:18Z</time>
      </trkpt>
      <trkpt lat="44.9062" lon="0.89715">
        <ele>152.6</ele>
        <time>2025-05-10T08:15:19Z</time>
      </trkpt>
      <trkpt lat="44.90622" lon="0.89715">
        <ele>152.8</ele>
        <time>2025-05-10T08:15:20Z</time>
      </trkpt>
      <trkpt lat="44.90624" lon="0.89715">
        <ele>153</ele>
        <time>2025-05-10T08:15:21Z</time>
      </trkpt>
      <trkpt lat="44.90626" lon="0.89714">
        <ele>153.2</ele>
        <time>2025-05-10T08:15:22Z</time>
      </trkpt>
      <trkpt lat="44.90628" lon="0.89713">
        <ele>153.6</ele>
        <time>2025-05-10T08:15:23Z</time>
      </trkpt>
      <trkpt lat="44.9063" lon="0.89713">
        <ele>153.8</ele>
        <time>2025-05-10T08:15:24Z</time>
      </trkpt>
      <trkpt lat="44.90631" lon="0.89712">
        <ele>154</ele>
        <time>2025-05-10T08:15:25Z</time>
      </trkpt>
      <trkpt lat="44.90633" lon="0.89711">
        <ele>154</ele>
        <time>2025-05-10T08:15:26Z</time>
      </trkpt>
      <trkpt lat="44.90634" lon="0.89711">
        <ele>154.2</ele>
        <time>2025-05-10T08:15:27Z</time>
      </trkpt>
      <trkpt lat="44.90635" lon="0.89711">
        <ele>154.6</ele>
        <time>2025-05-10T08:15:28Z</time>
      </trkpt>
      <trkpt lat="44.90637" lon="0.89712">
        <ele>154.8</ele>
        <time>2025-05-10T08:15:29Z</time>
      </trkpt>
      <trkpt lat="44.90638" lon="0.89712">
        <ele>155</ele>
        <time>2025-05-10T08:15:30Z</time>
      </trkpt>
      <trkpt lat="44.9064" lon="0.89713">
        <ele>155.2</ele>
        <time>2025-05-10T08:15:31Z</time>
      </trkpt>
      <trkpt lat="44.90641" lon="0.89713">
        <ele>155.4</ele>
        <time>2025-05-10T08:15:32Z</time>
      </trkpt>
      <trkpt lat="44.90642" lon="0.89713">
        <ele>155.6</ele>
        <time>2025-05-10T08:15:33Z</time>
      </trkpt>
      <trkpt lat="44.90644" lon="0.89714">
        <ele>155.6</ele>
        <time>2025-05-10T08:15:34Z</time>
      </trkpt>
      <trkpt lat="44.90645" lon="0.89715">
        <ele>156</ele>
        <time>2025-05-10T08:15:35Z</time>
      </trkpt>
      <trkpt lat="44.90646" lon="0.89715">
        <ele>156.2</ele>
        <time>2025-05-10T08:15:36Z</time>
      </trkpt>
      <trkpt lat="44.90647" lon="0.89715">
        <ele>156.4</ele>
        <time>2025-05-10T08:15:37Z</time>
      </trkpt>
      <trkpt lat="44.90648" lon="0.89715">
        <ele>156.6</ele>
        <time>2025-05-10T08:15:38Z</time>
      </trkpt>
      <trkpt lat="44.90649" lon="0.89716">
        <ele>156.8</ele>
        <time>2025-05-10T08:15:39Z</time>
      </trkpt>
      <trkpt lat="44.90651" lon="0.89716">
        <ele>157</ele>
        <time>2025-05-10T08:15:40Z</time>
      </trkpt>
      <trkpt lat="44.90653" lon="0.89716">
        <ele>157.2</ele>
        <time>2025-05-10T08:15:41Z</time>
      </trkpt>
      <trkpt lat="44.90654" lon="0.89716">
        <ele>157.4</ele>
        <time>2025-05-10T08:15:42Z</time>
      </trkpt>
      <trkpt lat="44.90656" lon="0.89716">
        <ele>157.6</ele>
        <time>2025-05-10T08:15:43Z</time>
      </trkpt>
      <trkpt lat="44.90657" lon="0.89716">
        <ele>157.8</ele>
        <time>2025-05-10T08:15:44Z</time>
      </trkpt>
      <trkpt lat="44.90658" lon="0.89716">
        <ele>158</ele>
        <time>2025-05-10T08:15:45Z</time>
      </trkpt>
      <trkpt lat="44.9066" lon="0.89717">
        <ele>158.4</ele>
        <time>2025-05-10T08:15:46Z</time>
      </trkpt>
      <trkpt lat="44.90661" lon="0.89717">
        <ele>158.6</ele>
        <time>2025-05-10T08:15:47Z</time>
      </trkpt>
      <trkpt lat="44.90662" lon="0.89717">
        <ele>158.8</ele>
        <time>2025-05-10T08:15:48Z</time>
      </trkpt>
      <trkpt lat="44.90663" lon="0.89717">
        <ele>159</ele>
        <time>2025-05-10T08:15:49Z</time>
      </trkpt>
      <trkpt lat="44.90664" lon="0.89717">
        <ele>159.2</ele>
        <time>2025-05-10T08:15:50Z</time>
      </trkpt>
      <trkpt lat="44.90666" lon="0.89717">
        <ele>159.4</ele>
        <time>2025-05-10T08:15:51Z</time>
      </trkpt>
      <trkpt lat="44.90667" lon="0.89718">
        <ele>159.6</ele>
        <time>2025-05-10T08:15:52Z</time>
      </trkpt>
      <trkpt lat="44.90669" lon="0.89718">
        <ele>159.8</ele>
        <time>2025-05-10T08:15:53Z</time>
      </trkpt>
      <trkpt lat="44.9067" lon="0.89718">
        <ele>160</ele>
        <time>2025-05-10T08:15:54Z</time>
      </trkpt>
      <trkpt lat="44.90671" lon="0.89719">
        <ele>160.2</ele>
        <time>2025-05-10T08:15:55Z</time>
      </trkpt>
      <trkpt lat="44.90673" lon="0.89719">
        <ele>160.4</ele>
        <time>2025-05-10T08:15:56Z</time>
      </trkpt>
      <trkpt lat="44.90675" lon="0.89719">
        <ele>160.6</ele>
        <time>2025-05-10T08:15:57Z</time>
      </trkpt>
      <trkpt lat="44.90677" lon="0.8972">
        <ele>160.8</ele>
        <time>2025-05-10T08:15:58Z</time>
      </trkpt>
      <trkpt lat="44.90678" lon="0.8972">
        <ele>161</ele>
        <time>2025-05-10T08:15:59Z</time>
      </trkpt>
      <trkpt lat="44.90679" lon="0.8972">
        <ele>161.2</ele>
        <time>2025-05-10T08:16:00Z</time>
      </trkpt>
      <trkpt lat="44.9068" lon="0.89721">
        <ele>161.4</ele>
        <time>2025-05-10T08:16:01Z</time>
      </trkpt>
      <trkpt lat="44.90681" lon="0.89722">
        <ele>161.6</ele>
        <time>2025-05-10T08:16:02Z</time>
      </trkpt>
      <trkpt lat="44.90683" lon="0.89722">
        <ele>161.8</ele>
        <time>2025-05-10T08:16:03Z</time>
      </trkpt>
      <trkpt lat="44.90684" lon="0.89723">
        <ele>162</ele>
        <time>2025-05-10T08:16:04Z</time>
      </trkpt>
      <trkpt lat="44.90685" lon="0.89723">
        <ele>162.2</ele>
        <time>2025-05-10T08:16:05Z</time>
      </trkpt>
      <trkpt lat="44.90687" lon="0.89723">
        <ele>162.4</ele>
        <time>2025-05-10T08:16:06Z</time>
      </trkpt>
      <trkpt lat="44.90688" lon="0.89723">
        <ele>162.6</ele>
        <time>2025-05-10T08:16:07Z</time>
      </trkpt>
      <trkpt lat="44.9069" lon="0.89724">
        <ele>162.8</ele>
        <time>2025-05-10T08:16:08Z</time>
      </trkpt>
      <trkpt lat="44.90692" lon="0.89723">
        <ele>163</ele>
        <time>2025-05-10T08:16:09Z</time>
      </trkpt>
      <trkpt lat="44.90693" lon="0.89723">
        <ele>163.2</ele>
        <time>2025-05-10T08:16:10Z</time>
      </trkpt>
      <trkpt lat="44.90694" lon="0.89723">
        <ele>163.4</ele>
        <time>2025-05-10T08:16:11Z</time>
      </trkpt>
      <trkpt lat="44.90696" lon="0.89723">
        <ele>163.6</ele>
        <time>2025-05-10T08:16:12Z</time>
      </trkpt>
      <trkpt lat="44.90697" lon="0.89723">
        <ele>163.8</ele>
        <time>2025-05-10T08:16:13Z</time>
      </trkpt>
      <trkpt lat="44.90699" lon="0.89722">
        <ele>164</ele>
        <time>2025-05-10T08:16:14Z</time>
      </trkpt>
      <trkpt lat="44.907" lon="0.89722">
        <ele>164.2</ele>
        <time>2025-05-10T08:16:15Z</time>
      </trkpt>
      <trkpt lat="44.90701" lon="0.89722">
        <ele>164.4</ele>
        <time>2025-05-10T08:16:16Z</time>
      </trkpt>
      <trkpt lat="44.90703" lon="0.89723">
        <ele>164.6</ele>
        <time>2025-05-10T08:16:17Z</time>
      </trkpt>
      <trkpt lat="44.90705" lon="0.89724">
        <ele>164.8</ele>
        <time>2025-05-10T08:16:18Z</time>
      </trkpt>
      <trkpt lat="44.90707" lon="0.89724">
        <ele>165</ele>
        <time>2025-05-10T08:16:19Z</time>
      </trkpt>
      <trkpt lat="44.90708" lon="0.89724">
        <ele>165.2</ele>
        <time>2025-05-10T08:16:20Z</time>
      </trkpt>
      <trkpt lat="44.9071" lon="0.89724">
        <ele>165.2</ele>
        <time>2025-05-10T08:16:21Z</time>
      </trkpt>
      <trkpt lat="44.90712" lon="0.89725">
        <ele>165.4</ele>
        <time>2025-05-10T08:16:22Z</time>
      </trkpt>
      <trkpt lat="44.90714" lon="0.89725">
        <ele>165.6</ele>
        <time>2025-05-10T08:16:23Z</time>
      </trkpt>
      <trkpt lat="44.90715" lon="0.89725">
        <ele>165.6</ele>
        <time>2025-05-10T08:16:24Z</time>
      </trkpt>
      <trkpt lat="44.90716" lon="0.89725">
        <ele>165.8</ele>
        <time>2025-05-10T08:16:25Z</time>
      </trkpt>
      <trkpt lat="44.90718" lon="0.89726">
        <ele>165.8</ele>
        <time>2025-05-10T08:16:26Z</time>
      </trkpt>
      <trkpt lat="44.90719" lon="0.89727">
        <ele>166</ele>
        <time>2025-05-10T08:16:27Z</time>
      </trkpt>
      <trkpt lat="44.90721" lon="0.89728">
        <ele>166</ele>
        <time>2025-05-10T08:16:28Z</time>
      </trkpt>
      <trkpt lat="44.90722" lon="0.89729">
        <ele>166</ele>
        <time>2025-05-10T08:16:29Z</time>
      </trkpt>
      <trkpt lat="44.90724" lon="0.89731">
        <ele>166</ele>
        <time>2025-05-10T08:16:30Z</time>
      </trkpt>
      <trkpt lat="44.90726" lon="0.89733">
        <ele>166.2</ele>
        <time>2025-05-10T08:16:31Z</time>
      </trkpt>
      <trkpt lat="44.90728" lon="0.89735">
        <ele>166.2</ele>
        <time>2025-05-10T08:16:32Z</time>
      </trkpt>
      <trkpt lat="44.9073" lon="0.89736">
        <ele>166.2</ele>
        <time>2025-05-10T08:16:33Z</time>
      </trkpt>
      <trkpt lat="44.90732" lon="0.89738">
        <ele>166.2</ele>
        <time>2025-05-10T08:16:34Z</time>
      </trkpt>
      <trkpt lat="44.90734" lon="0.89739">
        <ele>166.2</ele>
        <time>2025-05-10T08:16:35Z</time>
      </trkpt>
      <trkpt lat="44.90736" lon="0.8974">
        <ele>166.2</ele>
        <time>2025-05-10T08:16:36Z</time>
      </trkpt>
      <trkpt lat="44.90738" lon="0.8974">
        <ele>166</ele>
        <time>2025-05-10T08:16:37Z</time>
      </trkpt>
      <trkpt lat="44.9074" lon="0.89738">
        <ele>166</ele>
        <time>2025-05-10T08:16:38Z</time>
      </trkpt>
      <trkpt lat="44.90741" lon="0.89735">
        <ele>166</ele>
        <time>2025-05-10T08:16:39Z</time>
      </trkpt>
      <trkpt lat="44.90742" lon="0.89732">
        <ele>166</ele>
        <time>2025-05-10T08:16:40Z</time>
      </trkpt>
      <trkpt lat="44.90742" lon="0.89729">
        <ele>166</ele>
        <time>2025-05-10T08:16:41Z</time>
      </trkpt>
      <trkpt lat="44.90743" lon="0.89727">
        <ele>166</ele>
        <time>2025-05-10T08:16:42Z</time>
      </trkpt>
      <trkpt lat="44.90744" lon="0.89723">
        <ele>166</ele>
        <time>2025-05-10T08:16:43Z</time>
      </trkpt>
      <trkpt lat="44.90744" lon="0.8972">
        <ele>166.2</ele>
        <time>2025-05-10T08:16:44Z</time>
      </trkpt>
      <trkpt lat="44.90745" lon="0.89717">
        <ele>166.4</ele>
        <time>2025-05-10T08:16:45Z</time>
      </trkpt>
      <trkpt lat="44.90746" lon="0.89714">
        <ele>166.4</ele>
        <time>2025-05-10T08:16:46Z</time>
      </trkpt>
      <trkpt lat="44.90747" lon="0.89711">
        <ele>166.6</ele>
        <time>2025-05-10T08:16:47Z</time>
      </trkpt>
      <trkpt lat="44.90748" lon="0.89708">
        <ele>166.8</ele>
        <time>2025-05-10T08:16:48Z</time>
      </trkpt>
      <trkpt lat="44.90749" lon="0.89704">
        <ele>167</ele>
        <time>2025-05-10T08:16:49Z</time>
      </trkpt>
      <trkpt lat="44.9075" lon="0.89701">
        <ele>167.2</ele>
        <time>2025-05-10T08:16:50Z</time>
      </trkpt>
      <trkpt lat="44.90751" lon="0.89698">
        <ele>167.4</ele>
        <time>2025-05-10T08:16:51Z</time>
      </trkpt>
      <trkpt lat="44.90752" lon="0.89694">
        <ele>167.6</ele>
        <time>2025-05-10T08:16:52Z</time>
      </trkpt>
      <trkpt lat="44.90753" lon="0.8969">
        <ele>167.8</ele>
        <time>2025-05-10T08:16:53Z</time>
      </trkpt>
      <trkpt lat="44.90754" lon="0.89686">
        <ele>167.8</ele>
        <time>2025-05-10T08:16:54Z</time>
      </trkpt>
      <trkpt lat="44.90755" lon="0.89683">
        <ele>167.8</ele>
        <time>2025-05-10T08:16:55Z</time>
      </trkpt>
      <trkpt lat="44.90756" lon="0.89678">
        <ele>168</ele>
        <time>2025-05-10T08:16:56Z</time>
      </trkpt>
      <trkpt lat="44.90757" lon="0.89674">
        <ele>168</ele>
        <time>2025-05-10T08:16:57Z</time>
      </trkpt>
      <trkpt lat="44.90758" lon="0.8967">
        <ele>168.2</ele>
        <time>2025-05-10T08:16:58Z</time>
      </trkpt>
      <trkpt lat="44.9076" lon="0.89665">
        <ele>168.2</ele>
        <time>2025-05-10T08:16:59Z</time>
      </trkpt>
      <trkpt lat="44.90761" lon="0.8966">
        <ele>168.2</ele>
        <time>2025-05-10T08:17:00Z</time>
      </trkpt>
      <trkpt lat="44.90762" lon="0.89657">
        <ele>168.4</ele>
        <time>2025-05-10T08:17:01Z</time>
      </trkpt>
      <trkpt lat="44.90763" lon="0.89653">
        <ele>168.4</ele>
        <time>2025-05-10T08:17:02Z</time>
      </trkpt>
      <trkpt lat="44.90764" lon="0.89649">
        <ele>168.4</ele>
        <time>2025-05-10T08:17:03Z</time>
      </trkpt>
      <trkpt lat="44.90765" lon="0.89645">
        <ele>168.4</ele>
        <time>2025-05-10T08:17:04Z</time>
      </trkpt>
      <trkpt lat="44.90765" lon="0.89642">
        <ele>168.6</ele>
        <time>2025-05-10T08:17:05Z</time>
      </trkpt>
      <trkpt lat="44.90765" lon="0.89638">
        <ele>168.6</ele>
        <time>2025-05-10T08:17:06Z</time>
      </trkpt>
      <trkpt lat="44.90766" lon="0.89633">
        <ele>168.6</ele>
        <time>2025-05-10T08:17:07Z</time>
      </trkpt>
      <trkpt lat="44.90766" lon="0.89628">
        <ele>168.6</ele>
        <time>2025-05-10T08:17:08Z</time>
      </trkpt>
      <trkpt lat="44.90767" lon="0.89623">
        <ele>168.6</ele>
        <time>2025-05-10T08:17:09Z</time>
      </trkpt>
      <trkpt lat="44.90767" lon="0.89618">
        <ele>168.6</ele>
        <time>2025-05-10T08:17:10Z</time>
      </trkpt>
      <trkpt lat="44.90767" lon="0.89613">
        <ele>168.6</ele>
        <time>2025-05-10T08:17:11Z</time>
      </trkpt>
      <trkpt lat="44.90768" lon="0.89607">
        <ele>168.6</ele>
        <time>2025-05-10T08:17:12Z</time>
      </trkpt>
      <trkpt lat="44.90769" lon="0.89602">
        <ele>168.6</ele>
        <time>2025-05-10T08:17:13Z</time>
      </trkpt>
      <trkpt lat="44.90771" lon="0.89596">
        <ele>168.6</ele>
        <time>2025-05-10T08:17:14Z</time>
      </trkpt>
      <trkpt lat="44.90773" lon="0.89591">
        <ele>168.6</ele>
        <time>2025-05-10T08:17:15Z</time>
      </trkpt>
      <trkpt lat="44.90775" lon="0.89586">
        <ele>168.4</ele>
        <time>2025-05-10T08:17:16Z</time>
      </trkpt>
      <trkpt lat="44.90778" lon="0.89581">
        <ele>168.4</ele>
        <time>2025-05-10T08:17:17Z</time>
      </trkpt>
      <trkpt lat="44.90781" lon="0.89577">
        <ele>168.4</ele>
        <time>2025-05-10T08:17:18Z</time>
      </trkpt>
      <trkpt lat="44.90784" lon="0.89572">
        <ele>168.2</ele>
        <time>2025-05-10T08:17:19Z</time>
      </trkpt>
      <trkpt lat="44.90787" lon="0.89567">
        <ele>168.2</ele>
        <time>2025-05-10T08:17:20Z</time>
      </trkpt>
      <trkpt lat="44.9079" lon="0.89562">
        <ele>168.2</ele>
        <time>2025-05-10T08:17:21Z</time>
      </trkpt>
      <trkpt lat="44.90793" lon="0.89556">
        <ele>168</ele>
        <time>2025-05-10T08:17:22Z</time>
      </trkpt>
      <trkpt lat="44.90796" lon="0.89551">
        <ele>168</ele>
        <time>2025-05-10T08:17:23Z</time>
      </trkpt>
      <trkpt lat="44.90799" lon="0.89545">
        <ele>168</ele>
        <time>2025-05-10T08:17:24Z</time>
      </trkpt>
      <trkpt lat="44.90801" lon="0.89539">
        <ele>168</ele>
        <time>2025-05-10T08:17:25Z</time>
      </trkpt>
      <trkpt lat="44.90803" lon="0.89533">
        <ele>168</ele>
        <time>2025-05-10T08:17:26Z</time>
      </trkpt>
      <trkpt lat="44.90805" lon="0.89526">
        <ele>168</ele>
        <time>2025-05-10T08:17:27Z</time>
      </trkpt>
      <trkpt lat="44.90806" lon="0.89519">
        <ele>168</ele>
        <time>2025-05-10T08:17:28Z</time>
      </trkpt>
      <trkpt lat="44.90808" lon="0.89513">
        <ele>168</ele>
        <time>2025-05-10T08:17:29Z</time>
      </trkpt>
      <trkpt lat="44.90809" lon="0.89507">
        <ele>168</ele>
        <time>2025-05-10T08:17:30Z</time>
      </trkpt>
      <trkpt lat="44.9081" lon="0.895">
        <ele>168</ele>
        <time>2025-05-10T08:17:31Z</time>
      </trkpt>
      <trkpt lat="44.90812" lon="0.89494">
        <ele>168.2</ele>
        <time>2025-05-10T08:17:32Z</time>
      </trkpt>
      <trkpt lat="44.90813" lon="0.89487">
        <ele>168.2</ele>
        <time>2025-05-10T08:17:33Z</time>
      </trkpt>
      <trkpt lat="44.90814" lon="0.89481">
        <ele>168.4</ele>
        <time>2025-05-10T08:17:34Z</time>
      </trkpt>
      <trkpt lat="44.90815" lon="0.89475">
        <ele>168.6</ele>
        <time>2025-05-10T08:17:35Z</time>
      </trkpt>
      <trkpt lat="44.90816" lon="0.89468">
        <ele>168.8</ele>
        <time>2025-05-10T08:17:36Z</time>
      </trkpt>
      <trkpt lat="44.90817" lon="0.89461">
        <ele>168.8</ele>
        <time>2025-05-10T08:17:37Z</time>
      </trkpt>
      <trkpt lat="44.90819" lon="0.89454">
        <ele>169</ele>
        <time>2025-05-10T08:17:38Z</time>
      </trkpt>
      <trkpt lat="44.9082" lon="0.89447">
        <ele>169</ele>
        <time>2025-05-10T08:17:39Z</time>
      </trkpt>
      <trkpt lat="44.90821" lon="0.89441">
        <ele>169.2</ele>
        <time>2025-05-10T08:17:40Z</time>
      </trkpt>
      <trkpt lat="44.90822" lon="0.89434">
        <ele>169.2</ele>
        <time>2025-05-10T08:17:41Z</time>
      </trkpt>
      <trkpt lat="44.90823" lon="0.89428">
        <ele>169.4</ele>
        <time>2025-05-10T08:17:42Z</time>
      </trkpt>
      <trkpt lat="44.90825" lon="0.89421">
        <ele>169.4</ele>
        <time>2025-05-10T08:17:43Z</time>
      </trkpt>
      <trkpt lat="44.90826" lon="0.89415">
        <ele>169.4</ele>
        <time>2025-05-10T08:17:44Z</time>
      </trkpt>
      <trkpt lat="44.90828" lon="0.89409">
        <ele>169.6</ele>
        <time>2025-05-10T08:17:45Z</time>
      </trkpt>
      <trkpt lat="44.90829" lon="0.89403">
        <ele>170</ele>
        <time>2025-05-10T08:17:46Z</time>
      </trkpt>
      <trkpt lat="44.90831" lon="0.89398">
        <ele>170.2</ele>
        <time>2025-05-10T08:17:47Z</time>
      </trkpt>
      <trkpt lat="44.90832" lon="0.89392">
        <ele>170.2</ele>
        <time>2025-05-10T08:17:48Z</time>
      </trkpt>
      <trkpt lat="44.90834" lon="0.89388">
        <ele>170.4</ele>
        <time>2025-05-10T08:17:49Z</time>
      </trkpt>
      <trkpt lat="44.90836" lon="0.89383">
        <ele>170.8</ele>
        <time>2025-05-10T08:17:50Z</time>
      </trkpt>
      <trkpt lat="44.90838" lon="0.89379">
        <ele>171</ele>
        <time>2025-05-10T08:17:51Z</time>
      </trkpt>
      <trkpt lat="44.9084" lon="0.89373">
        <ele>171.4</ele>
        <time>2025-05-10T08:17:52Z</time>
      </trkpt>
      <trkpt lat="44.90841" lon="0.89369">
        <ele>171.6</ele>
        <time>2025-05-10T08:17:53Z</time>
      </trkpt>
      <trkpt lat="44.90842" lon="0.89365">
        <ele>171.8</ele>
        <time>2025-05-10T08:17:54Z</time>
      </trkpt>
      <trkpt lat="44.90844" lon="0.89361">
        <ele>172</ele>
        <time>2025-05-10T08:17:55Z</time>
      </trkpt>
      <trkpt lat="44.90845" lon="0.89357">
        <ele>172.4</ele>
        <time>2025-05-10T08:17:56Z</time>
      </trkpt>
      <trkpt lat="44.90847" lon="0.89354">
        <ele>172.6</ele>
        <time>2025-05-10T08:17:57Z</time>
      </trkpt>
      <trkpt lat="44.90848" lon="0.89351">
        <ele>173</ele>
        <time>2025-05-10T08:17:58Z</time>
      </trkpt>
      <trkpt lat="44.9085" lon="0.89348">
        <ele>173.4</ele>
        <time>2025-05-10T08:17:59Z</time>
      </trkpt>
      <trkpt lat="44.90852" lon="0.89347">
        <ele>173.6</ele>
        <time>2025-05-10T08:18:00Z</time>
      </trkpt>
      <trkpt lat="44.90853" lon="0.89344">
        <ele>173.8</ele>
        <time>2025-05-10T08:18:01Z</time>
      </trkpt>
      <trkpt lat="44.90855" lon="0.89342">
        <ele>174.2</ele>
        <time>2025-05-10T08:18:02Z</time>
      </trkpt>
      <trkpt lat="44.90857" lon="0.8934">
        <ele>174.4</ele>
        <time>2025-05-10T08:18:03Z</time>
      </trkpt>
      <trkpt lat="44.90858" lon="0.89338">
        <ele>174.8</ele>
        <time>2025-05-10T08:18:04Z</time>
      </trkpt>
      <trkpt lat="44.9086" lon="0.89337">
        <ele>175</ele>
        <time>2025-05-10T08:18:05Z</time>
      </trkpt>
      <trkpt lat="44.90862" lon="0.89335">
        <ele>175.2</ele>
        <time>2025-05-10T08:18:06Z</time>
      </trkpt>
      <trkpt lat="44.90864" lon="0.89333">
        <ele>175.4</ele>
        <time>2025-05-10T08:18:07Z</time>
      </trkpt>
      <trkpt lat="44.90866" lon="0.89332">
        <ele>175.8</ele>
        <time>2025-05-10T08:18:08Z</time>
      </trkpt>
      <trkpt lat="44.90868" lon="0.8933">
        <ele>176</ele>
        <time>2025-05-10T08:18:09Z</time>
      </trkpt>
      <trkpt lat="44.9087" lon="0.89329">
        <ele>176.2</ele>
        <time>2025-05-10T08:18:10Z</time>
      </trkpt>
      <trkpt lat="44.90872" lon="0.89327">
        <ele>176.4</ele>
        <time>2025-05-10T08:18:11Z</time>
      </trkpt>
      <trkpt lat="44.90873" lon="0.89325">
        <ele>176.6</ele>
        <time>2025-05-10T08:18:12Z</time>
      </trkpt>
      <trkpt lat="44.90875" lon="0.89323">
        <ele>176.8</ele>
        <time>2025-05-10T08:18:13Z</time>
      </trkpt>
      <trkpt lat="44.90876" lon="0.89321">
        <ele>177</ele>
        <time>2025-05-10T08:18:14Z</time>
      </trkpt>
      <trkpt lat="44.90878" lon="0.89319">
        <ele>177.4</ele>
        <time>2025-05-10T08:18:15Z</time>
      </trkpt>
      <trkpt lat="44.90879" lon="0.89317">
        <ele>177.6</ele>
        <time>2025-05-10T08:18:16Z</time>
      </trkpt>
      <trkpt lat="44.90881" lon="0.89315">
        <ele>177.8</ele>
        <time>2025-05-10T08:18:17Z</time>
      </trkpt>
      <trkpt lat="44.90882" lon="0.89314">
        <ele>177.8</ele>
        <time>2025-05-10T08:18:18Z</time>
      </trkpt>
      <trkpt lat="44.90883" lon="0.89312">
        <ele>178.2</ele>
        <time>2025-05-10T08:18:19Z</time>
      </trkpt>
      <trkpt lat="44.90884" lon="0.89311">
        <ele>178.4</ele>
        <time>2025-05-10T08:18:20Z</time>
      </trkpt>
      <trkpt lat="44.90884" lon="0.8931">
        <ele>178.4</ele>
        <time>2025-05-10T08:18:21Z</time>
      </trkpt>
      <trkpt lat="44.90885" lon="0.89308">
        <ele>178.6</ele>
        <time>2025-05-10T08:18:22Z</time>
      </trkpt>
      <trkpt lat="44.90886" lon="0.89307">
        <ele>179</ele>
        <time>2025-05-10T08:18:23Z</time>
      </trkpt>
      <trkpt lat="44.90887" lon="0.89305">
        <ele>179.2</ele>
        <time>2025-05-10T08:18:24Z</time>
      </trkpt>
      <trkpt lat="44.90888" lon="0.89303">
        <ele>179.6</ele>
        <time>2025-05-10T08:18:25Z</time>
      </trkpt>
      <trkpt lat="44.90889" lon="0.89302">
        <ele>179.8</ele>
        <time>2025-05-10T08:18:26Z</time>
      </trkpt>
      <trkpt lat="44.9089" lon="0.893">
        <ele>180</ele>
        <time>2025-05-10T08:18:27Z</time>
      </trkpt>
      <trkpt lat="44.90891" lon="0.89299">
        <ele>180.4</ele>
        <time>2025-05-10T08:18:28Z</time>
      </trkpt>
      <trkpt lat="44.90892" lon="0.89297">
        <ele>180.6</ele>
        <time>2025-05-10T08:18:29Z</time>
      </trkpt>
      <trkpt lat="44.90893" lon="0.89296">
        <ele>180.8</ele>
        <time>2025-05-10T08:18:30Z</time>
      </trkpt>
      <trkpt lat="44.90894" lon="0.89295">
        <ele>181</ele>
        <time>2025-05-10T08:18:31Z</time>
      </trkpt>
      <trkpt lat="44.90895" lon="0.89293">
        <ele>181.2</ele>
        <time>2025-05-10T08:18:32Z</time>
      </trkpt>
      <trkpt lat="44.90896" lon="0.89292">
        <ele>181.4</ele>
        <time>2025-05-10T08:18:33Z</time>
      </trkpt>
      <trkpt lat="44.90897" lon="0.8929">
        <ele>181.6</ele>
        <time>2025-05-10T08:18:34Z</time>
      </trkpt>
      <trkpt lat="44.90898" lon="0.89288">
        <ele>181.8</ele>
        <time>2025-05-10T08:18:35Z</time>
      </trkpt>
      <trkpt lat="44.90899" lon="0.89286">
        <ele>182.2</ele>
        <time>2025-05-10T08:18:36Z</time>
      </trkpt>
      <trkpt lat="44.90899" lon="0.89284">
        <ele>182.4</ele>
        <time>2025-05-10T08:18:37Z</time>
      </trkpt>
      <trkpt lat="44.90901" lon="0.89282">
        <ele>182.6</ele>
        <time>2025-05-10T08:18:38Z</time>
      </trkpt>
      <trkpt lat="44.90901" lon="0.8928">
        <ele>182.8</ele>
        <time>2025-05-10T08:18:39Z</time>
      </trkpt>
      <trkpt lat="44.90902" lon="0.89279">
        <ele>183</ele>
        <time>2025-05-10T08:18:40Z</time>
      </trkpt>
      <trkpt lat="44.90903" lon="0.89277">
        <ele>183.2</ele>
        <time>2025-05-10T08:18:41Z</time>
      </trkpt>
      <trkpt lat="44.90904" lon="0.89276">
        <ele>183.4</ele>
        <time>2025-05-10T08:18:42Z</time>
      </trkpt>
      <trkpt lat="44.90906" lon="0.89274">
        <ele>183.6</ele>
        <time>2025-05-10T08:18:43Z</time>
      </trkpt>
      <trkpt lat="44.90907" lon="0.89271">
        <ele>183.8</ele>
        <time>2025-05-10T08:18:44Z</time>
      </trkpt>
      <trkpt lat="44.90908" lon="0.89269">
        <ele>184</ele>
        <time>2025-05-10T08:18:45Z</time>
      </trkpt>
      <trkpt lat="44.90909" lon="0.89266">
        <ele>184.2</ele>
        <time>2025-05-10T08:18:46Z</time>
      </trkpt>
      <trkpt lat="44.90911" lon="0.89264">
        <ele>184.2</ele>
        <time>2025-05-10T08:18:47Z</time>
      </trkpt>
      <trkpt lat="44.90913" lon="0.89261">
        <ele>184.4</ele>
        <time>2025-05-10T08:18:48Z</time>
      </trkpt>
      <trkpt lat="44.90914" lon="0.89259">
        <ele>184.6</ele>
        <time>2025-05-10T08:18:49Z</time>
      </trkpt>
      <trkpt lat="44.90916" lon="0.89257">
        <ele>184.6</ele>
        <time>2025-05-10T08:18:50Z</time>
      </trkpt>
      <trkpt lat="44.90918" lon="0.89255">
        <ele>184.8</ele>
        <time>2025-05-10T08:18:51Z</time>
      </trkpt>
      <trkpt lat="44.90919" lon="0.89253">
        <ele>184.8</ele>
        <time>2025-05-10T08:18:52Z</time>
      </trkpt>
      <trkpt lat="44.90921" lon="0.89251">
        <ele>185</ele>
        <time>2025-05-10T08:18:53Z</time>
      </trkpt>
      <trkpt lat="44.90923" lon="0.89249">
        <ele>185</ele>
        <time>2025-05-10T08:18:54Z</time>
      </trkpt>
      <trkpt lat="44.90925" lon="0.89248">
        <ele>185.4</ele>
        <time>2025-05-10T08:18:55Z</time>
      </trkpt>
      <trkpt lat="44.90926" lon="0.89246">
        <ele>185.4</ele>
        <time>2025-05-10T08:18:56Z</time>
      </trkpt>
      <trkpt lat="44.90928" lon="0.89244">
        <ele>185.4</ele>
        <time>2025-05-10T08:18:57Z</time>
      </trkpt>
      <trkpt lat="44.9093" lon="0.89241">
        <ele>185.8</ele>
        <time>2025-05-10T08:18:58Z</time>
      </trkpt>
      <trkpt lat="44.90932" lon="0.89238">
        <ele>185.8</ele>
        <time>2025-05-10T08:18:59Z</time>
      </trkpt>
      <trkpt lat="44.90932" lon="0.89235">
        <ele>186</ele>
        <time>2025-05-10T08:19:00Z</time>
      </trkpt>
      <trkpt lat="44.90934" lon="0.89231">
        <ele>186</ele>
        <time>2025-05-10T08:19:01Z</time>
      </trkpt>
      <trkpt lat="44.90935" lon="0.89228">
        <ele>186</ele>
        <time>2025-05-10T08:19:02Z</time>
      </trkpt>
      <trkpt lat="44.90937" lon="0.89225">
        <ele>186.2</ele>
        <time>2025-05-10T08:19:03Z</time>
      </trkpt>
      <trkpt lat="44.9094" lon="0.89222">
        <ele>186.2</ele>
        <time>2025-05-10T08:19:04Z</time>
      </trkpt>
      <trkpt lat="44.90942" lon="0.89219">
        <ele>186.2</ele>
        <time>2025-05-10T08:19:05Z</time>
      </trkpt>
      <trkpt lat="44.90944" lon="0.89217">
        <ele>186.4</ele>
        <time>2025-05-10T08:19:06Z</time>
      </trkpt>
      <trkpt lat="44.90946" lon="0.89214">
        <ele>186.4</ele>
        <time>2025-05-10T08:19:07Z</time>
      </trkpt>
      <trkpt lat="44.90948" lon="0.89212">
        <ele>186.4</ele>
        <time>2025-05-10T08:19:08Z</time>
      </trkpt>
      <trkpt lat="44.9095" lon="0.89209">
        <ele>186.6</ele>
        <time>2025-05-10T08:19:09Z</time>
      </trkpt>
      <trkpt lat="44.90952" lon="0.89206">
        <ele>186.6</ele>
        <time>2025-05-10T08:19:10Z</time>
      </trkpt>
      <trkpt lat="44.90954" lon="0.89204">
        <ele>186.6</ele>
        <time>2025-05-10T08:19:11Z</time>
      </trkpt>
      <trkpt lat="44.90956" lon="0.89202">
        <ele>186.6</ele>
        <time>2025-05-10T08:19:12Z</time>
      </trkpt>
      <trkpt lat="44.90958" lon="0.892">
        <ele>186.6</ele>
        <time>2025-05-10T08:19:13Z</time>
      </trkpt>
      <trkpt lat="44.90961" lon="0.89197">
        <ele>186.8</ele>
        <time>2025-05-10T08:19:14Z</time>
      </trkpt>
      <trkpt lat="44.90963" lon="0.89194">
        <ele>186.8</ele>
        <time>2025-05-10T08:19:15Z</time>
      </trkpt>
      <trkpt lat="44.90965" lon="0.89191">
        <ele>186.8</ele>
        <time>2025-05-10T08:19:16Z</time>
      </trkpt>
      <trkpt lat="44.90967" lon="0.89189">
        <ele>186.8</ele>
        <time>2025-05-10T08:19:17Z</time>
      </trkpt>
      <trkpt lat="44.90969" lon="0.89187">
        <ele>186.8</ele>
        <time>2025-05-10T08:19:18Z</time>
      </trkpt>
      <trkpt lat="44.90972" lon="0.89184">
        <ele>186.8</ele>
        <time>2025-05-10T08:19:19Z</time>
      </trkpt>
      <trkpt lat="44.90974" lon="0.89181">
        <ele>186.8</ele>
        <time>2025-05-10T08:19:20Z</time>
      </trkpt>
      <trkpt lat="44.90976" lon="0.89178">
        <ele>187</ele>
        <time>2025-05-10T08:19:21Z</time>
      </trkpt>
      <trkpt lat="44.90978" lon="0.89176">
        <ele>187</ele>
        <time>2025-05-10T08:19:22Z</time>
      </trkpt>
      <trkpt lat="44.90981" lon="0.89173">
        <ele>187</ele>
        <time>2025-05-10T08:19:23Z</time>
      </trkpt>
      <trkpt lat="44.90983" lon="0.89171">
        <ele>187</ele>
        <time>2025-05-10T08:19:24Z</time>
      </trkpt>
      <trkpt lat="44.90986" lon="0.89169">
        <ele>187.2</ele>
        <time>2025-05-10T08:19:25Z</time>
      </trkpt>
      <trkpt lat="44.90988" lon="0.89166">
        <ele>187.2</ele>
        <time>2025-05-10T08:19:26Z</time>
      </trkpt>
      <trkpt lat="44.9099" lon="0.89165">
        <ele>187.2</ele>
        <time>2025-05-10T08:19:27Z</time>
      </trkpt>
      <trkpt lat="44.90993" lon="0.89163">
        <ele>187.4</ele>
        <time>2025-05-10T08:19:28Z</time>
      </trkpt>
      <trkpt lat="44.90995" lon="0.89161">
        <ele>187.6</ele>
        <time>2025-05-10T08:19:29Z</time>
      </trkpt>
      <trkpt lat="44.90997" lon="0.89159">
        <ele>187.8</ele>
        <time>2025-05-10T08:19:30Z</time>
      </trkpt>
      <trkpt lat="44.91" lon="0.89158">
        <ele>188.2</ele>
        <time>2025-05-10T08:19:31Z</time>
      </trkpt>
      <trkpt lat="44.91002" lon="0.89156">
        <ele>188.4</ele>
        <time>2025-05-10T08:19:32Z</time>
      </trkpt>
      <trkpt lat="44.91004" lon="0.89155">
        <ele>188.6</ele>
        <time>2025-05-10T08:19:33Z</time>
      </trkpt>
      <trkpt lat="44.91007" lon="0.89153">
        <ele>189</ele>
        <time>2025-05-10T08:19:34Z</time>
      </trkpt>
      <trkpt lat="44.91009" lon="0.89151">
        <ele>189.2</ele>
        <time>2025-05-10T08:19:35Z</time>
      </trkpt>
      <trkpt lat="44.91012" lon="0.89149">
        <ele>189.4</ele>
        <time>2025-05-10T08:19:36Z</time>
      </trkpt>
      <trkpt lat="44.91014" lon="0.89148">
        <ele>189.6</ele>
        <time>2025-05-10T08:19:37Z</time>
      </trkpt>
      <trkpt lat="44.91017" lon="0.89146">
        <ele>189.8</ele>
        <time>2025-05-10T08:19:38Z</time>
      </trkpt>
      <trkpt lat="44.9102" lon="0.89144">
        <ele>190</ele>
        <time>2025-05-10T08:19:39Z</time>
      </trkpt>
      <trkpt lat="44.91023" lon="0.89141">
        <ele>190.2</ele>
        <time>2025-05-10T08:19:40Z</time>
      </trkpt>
      <trkpt lat="44.91026" lon="0.89139">
        <ele>190.4</ele>
        <time>2025-05-10T08:19:41Z</time>
      </trkpt>
      <trkpt lat="44.91028" lon="0.89136">
        <ele>190.6</ele>
        <time>2025-05-10T08:19:42Z</time>
      </trkpt>
      <trkpt lat="44.91031" lon="0.89133">
        <ele>191</ele>
        <time>2025-05-10T08:19:43Z</time>
      </trkpt>
      <trkpt lat="44.91033" lon="0.8913">
        <ele>191</ele>
        <time>2025-05-10T08:19:44Z</time>
      </trkpt>
      <trkpt lat="44.91036" lon="0.89128">
        <ele>191.2</ele>
        <time>2025-05-10T08:19:45Z</time>
      </trkpt>
      <trkpt lat="44.91039" lon="0.89124">
        <ele>191.2</ele>
        <time>2025-05-10T08:19:46Z</time>
      </trkpt>
      <trkpt lat="44.91041" lon="0.89121">
        <ele>191.4</ele>
        <time>2025-05-10T08:19:47Z</time>
      </trkpt>
      <trkpt lat="44.91044" lon="0.89117">
        <ele>191.4</ele>
        <time>2025-05-10T08:19:48Z</time>
      </trkpt>
      <trkpt lat="44.91047" lon="0.89114">
        <ele>191.4</ele>
        <time>2025-05-10T08:19:49Z</time>
      </trkpt>
      <trkpt lat="44.9105" lon="0.8911">
        <ele>191.4</ele>
        <time>2025-05-10T08:19:50Z</time>
      </trkpt>
      <trkpt lat="44.91053" lon="0.89106">
        <ele>191.4</ele>
        <time>2025-05-10T08:19:51Z</time>
      </trkpt>
      <trkpt lat="44.91056" lon="0.89102">
        <ele>191.4</ele>
        <time>2025-05-10T08:19:52Z</time>
      </trkpt>
      <trkpt lat="44.91059" lon="0.89099">
        <ele>191.4</ele>
        <time>2025-05-10T08:19:53Z</time>
      </trkpt>
      <trkpt lat="44.91063" lon="0.89094">
        <ele>191.4</ele>
        <time>2025-05-10T08:19:54Z</time>
      </trkpt>
      <trkpt lat="44.91066" lon="0.8909">
        <ele>191.2</ele>
        <time>2025-05-10T08:19:55Z</time>
      </trkpt>
      <trkpt lat="44.91069" lon="0.89086">
        <ele>191.2</ele>
        <time>2025-05-10T08:19:56Z</time>
      </trkpt>
      <trkpt lat="44.91073" lon="0.89082">
        <ele>191.2</ele>
        <time>2025-05-10T08:19:57Z</time>
      </trkpt>
      <trkpt lat="44.91076" lon="0.89078">
        <ele>191.2</ele>
        <time>2025-05-10T08:19:58Z</time>
      </trkpt>
      <trkpt lat="44.91079" lon="0.89074">
        <ele>191.2</ele>
        <time>2025-05-10T08:19:59Z</time>
      </trkpt>
      <trkpt lat="44.91082" lon="0.89069">
        <ele>191.2</ele>
        <time>2025-05-10T08:20:00Z</time>
      </trkpt>
      <trkpt lat="44.91085" lon="0.89065">
        <ele>191.4</ele>
        <time>2025-05-10T08:20:01Z</time>
      </trkpt>
      <trkpt lat="44.91089" lon="0.8906">
        <ele>191.4</ele>
        <time>2025-05-10T08:20:02Z</time>
      </trkpt>
      <trkpt lat="44.91091" lon="0.89056">
        <ele>191.4</ele>
        <time>2025-05-10T08:20:03Z</time>
      </trkpt>
      <trkpt lat="44.91094" lon="0.89051">
        <ele>191.4</ele>
        <time>2025-05-10T08:20:04Z</time>
      </trkpt>
      <trkpt lat="44.91097" lon="0.89046">
        <ele>191.4</ele>
        <time>2025-05-10T08:20:05Z</time>
      </trkpt>
      <trkpt lat="44.911" lon="0.89041">
        <ele>191.4</ele>
        <time>2025-05-10T08:20:06Z</time>
      </trkpt>
      <trkpt lat="44.91103" lon="0.89036">
        <ele>191.4</ele>
        <time>2025-05-10T08:20:07Z</time>
      </trkpt>
      <trkpt lat="44.91106" lon="0.89031">
        <ele>191.4</ele>
        <time>2025-05-10T08:20:08Z</time>
      </trkpt>
      <trkpt lat="44.91108" lon="0.89027">
        <ele>191.4</ele>
        <time>2025-05-10T08:20:09Z</time>
      </trkpt>
      <trkpt lat="44.91111" lon="0.89022">
        <ele>191.6</ele>
        <time>2025-05-10T08:20:10Z</time>
      </trkpt>
      <trkpt lat="44.91114" lon="0.89017">
        <ele>191.8</ele>
        <time>2025-05-10T08:20:11Z</time>
      </trkpt>
      <trkpt lat="44.91117" lon="0.89012">
        <ele>191.8</ele>
        <time>2025-05-10T08:20:12Z</time>
      </trkpt>
      <trkpt lat="44.91119" lon="0.89007">
        <ele>192</ele>
        <time>2025-05-10T08:20:13Z</time>
      </trkpt>
      <trkpt lat="44.91121" lon="0.89001">
        <ele>192</ele>
        <time>2025-05-10T08:20:14Z</time>
      </trkpt>
      <trkpt lat="44.91124" lon="0.88996">
        <ele>192.2</ele>
        <time>2025-05-10T08:20:15Z</time>
      </trkpt>
      <trkpt lat="44.91126" lon="0.8899">
        <ele>192.2</ele>
        <time>2025-05-10T08:20:16Z</time>
      </trkpt>
      <trkpt lat="44.91129" lon="0.88985">
        <ele>192.2</ele>
        <time>2025-05-10T08:20:17Z</time>
      </trkpt>
      <trkpt lat="44.91132" lon="0.8898">
        <ele>192.4</ele>
        <time>2025-05-10T08:20:18Z</time>
      </trkpt>
      <trkpt lat="44.91134" lon="0.88974">
        <ele>192.6</ele>
        <time>2025-05-10T08:20:19Z</time>
      </trkpt>
      <trkpt lat="44.91137" lon="0.88968">
        <ele>192.8</ele>
        <time>2025-05-10T08:20:20Z</time>
      </trkpt>
      <trkpt lat="44.9114" lon="0.88962">
        <ele>193</ele>
        <time>2025-05-10T08:20:21Z</time>
      </trkpt>
      <trkpt lat="44.91143" lon="0.88956">
        <ele>193</ele>
        <time>2025-05-10T08:20:22Z</time>
      </trkpt>
      <trkpt lat="44.91147" lon="0.8895">
        <ele>193</ele>
        <time>2025-05-10T08:20:23Z</time>
      </trkpt>
      <trkpt lat="44.91151" lon="0.88944">
        <ele>192.8</ele>
        <time>2025-05-10T08:20:24Z</time>
      </trkpt>
      <trkpt lat="44.91156" lon="0.88937">
        <ele>192.6</ele>
        <time>2025-05-10T08:20:25Z</time>
      </trkpt>
      <trkpt lat="44.91161" lon="0.8893">
        <ele>192.2</ele>
        <time>2025-05-10T08:20:26Z</time>
      </trkpt>
      <trkpt lat="44.91167" lon="0.88921">
        <ele>192</ele>
        <time>2025-05-10T08:20:27Z</time>
      </trkpt>
      <trkpt lat="44.91173" lon="0.88912">
        <ele>191</ele>
        <time>2025-05-10T08:20:28Z</time>
      </trkpt>
      <trkpt lat="44.9118" lon="0.88904">
        <ele>189.8</ele>
        <time>2025-05-10T08:20:29Z</time>
      </trkpt>
      <trkpt lat="44.91187" lon="0.88895">
        <ele>188.6</ele>
        <time>2025-05-10T08:20:30Z</time>
      </trkpt>
      <trkpt lat="44.91195" lon="0.88887">
        <ele>187</ele>
        <time>2025-05-10T08:20:31Z</time>
      </trkpt>
      <trkpt lat="44.91203" lon="0.8888">
        <ele>185.6</ele>
        <time>2025-05-10T08:20:32Z</time>
      </trkpt>
      <trkpt lat="44.91211" lon="0.88873">
        <ele>184.8</ele>
        <time>2025-05-10T08:20:33Z</time>
      </trkpt>
      <trkpt lat="44.91219" lon="0.88867">
        <ele>183.8</ele>
        <time>2025-05-10T08:20:34Z</time>
      </trkpt>
      <trkpt lat="44.91226" lon="0.88862">
        <ele>183.2</ele>
        <time>2025-05-10T08:20:35Z</time>
      </trkpt>
      <trkpt lat="44.91234" lon="0.88857">
        <ele>183</ele>
        <time>2025-05-10T08:20:36Z</time>
      </trkpt>
      <trkpt lat="44.91241" lon="0.88851">
        <ele>182.8</ele>
        <time>2025-05-10T08:20:37Z</time>
      </trkpt>
      <trkpt lat="44.91248" lon="0.88846">
        <ele>182.8</ele>
        <time>2025-05-10T08:20:38Z</time>
      </trkpt>
      <trkpt lat="44.91254" lon="0.8884">
        <ele>182.8</ele>
        <time>2025-05-10T08:20:39Z</time>
      </trkpt>
      <trkpt lat="44.9126" lon="0.88834">
        <ele>182.8</ele>
        <time>2025-05-10T08:20:40Z</time>
      </trkpt>
      <trkpt lat="44.91266" lon="0.88828">
        <ele>182.8</ele>
        <time>2025-05-10T08:20:41Z</time>
      </trkpt>
      <trkpt lat="44.91271" lon="0.88822">
        <ele>183</ele>
        <time>2025-05-10T08:20:42Z</time>
      </trkpt>
      <trkpt lat="44.91275" lon="0.88815">
        <ele>183.2</ele>
        <time>2025-05-10T08:20:43Z</time>
      </trkpt>
      <trkpt lat="44.9128" lon="0.88808">
        <ele>183.2</ele>
        <time>2025-05-10T08:20:44Z</time>
      </trkpt>
      <trkpt lat="44.91284" lon="0.88801">
        <ele>183.4</ele>
        <time>2025-05-10T08:20:45Z</time>
      </trkpt>
      <trkpt lat="44.91288" lon="0.88793">
        <ele>183.6</ele>
        <time>2025-05-10T08:20:46Z</time>
      </trkpt>
      <trkpt lat="44.91292" lon="0.88785">
        <ele>183.6</ele>
        <time>2025-05-10T08:20:47Z</time>
      </trkpt>
      <trkpt lat="44.91294" lon="0.88778">
        <ele>183.6</ele>
        <time>2025-05-10T08:20:48Z</time>
      </trkpt>
      <trkpt lat="44.91296" lon="0.88772">
        <ele>183.6</ele>
        <time>2025-05-10T08:20:49Z</time>
      </trkpt>
      <trkpt lat="44.91297" lon="0.88768">
        <ele>183.8</ele>
        <time>2025-05-10T08:20:50Z</time>
      </trkpt>
      <trkpt lat="44.91298" lon="0.88764">
        <ele>184</ele>
        <time>2025-05-10T08:20:51Z</time>
      </trkpt>
      <trkpt lat="44.91299" lon="0.8876">
        <ele>184.4</ele>
        <time>2025-05-10T08:20:52Z</time>
      </trkpt>
      <trkpt lat="44.91301" lon="0.88757">
        <ele>185</ele>
        <time>2025-05-10T08:20:53Z</time>
      </trkpt>
      <trkpt lat="44.91303" lon="0.88752">
        <ele>185.4</ele>
        <time>2025-05-10T08:20:54Z</time>
      </trkpt>
      <trkpt lat="44.91304" lon="0.88747">
        <ele>185.4</ele>
        <time>2025-05-10T08:20:55Z</time>
      </trkpt>
      <trkpt lat="44.91306" lon="0.8874">
        <ele>185.4</ele>
        <time>2025-05-10T08:20:56Z</time>
      </trkpt>
      <trkpt lat="44.91307" lon="0.88735">
        <ele>185.6</ele>
        <time>2025-05-10T08:20:57Z</time>
      </trkpt>
      <trkpt lat="44.91309" lon="0.88728">
        <ele>185.4</ele>
        <time>2025-05-10T08:20:58Z</time>
      </trkpt>
      <trkpt lat="44.91311" lon="0.88723">
        <ele>185.4</ele>
        <time>2025-05-10T08:20:59Z</time>
      </trkpt>
      <trkpt lat="44.91312" lon="0.88717">
        <ele>185.4</ele>
        <time>2025-05-10T08:21:00Z</time>
      </trkpt>
      <trkpt lat="44.91313" lon="0.88711">
        <ele>185.2</ele>
        <time>2025-05-10T08:21:01Z</time>
      </trkpt>
      <trkpt lat="44.91315" lon="0.88707">
        <ele>185.2</ele>
        <time>2025-05-10T08:21:02Z</time>
      </trkpt>
      <trkpt lat="44.91316" lon="0.88702">
        <ele>185</ele>
        <time>2025-05-10T08:21:03Z</time>
      </trkpt>
      <trkpt lat="44.91317" lon="0.88696">
        <ele>185</ele>
        <time>2025-05-10T08:21:04Z</time>
      </trkpt>
      <trkpt lat="44.91318" lon="0.8869">
        <ele>184.8</ele>
        <time>2025-05-10T08:21:05Z</time>
      </trkpt>
      <trkpt lat="44.91319" lon="0.88684">
        <ele>184.6</ele>
        <time>2025-05-10T08:21:06Z</time>
      </trkpt>
      <trkpt lat="44.91319" lon="0.88677">
        <ele>184.4</ele>
        <time>2025-05-10T08:21:07Z</time>
      </trkpt>
      <trkpt lat="44.91319" lon="0.8867">
        <ele>184</ele>
        <time>2025-05-10T08:21:08Z</time>
      </trkpt>
      <trkpt lat="44.91319" lon="0.88663">
        <ele>184</ele>
        <time>2025-05-10T08:21:09Z</time>
      </trkpt>
      <trkpt lat="44.91318" lon="0.88655">
        <ele>184</ele>
        <time>2025-05-10T08:21:10Z</time>
      </trkpt>
      <trkpt lat="44.91318" lon="0.88648">
        <ele>184</ele>
        <time>2025-05-10T08:21:11Z</time>
      </trkpt>
      <trkpt lat="44.91318" lon="0.88641">
        <ele>184</ele>
        <time>2025-05-10T08:21:12Z</time>
      </trkpt>
      <trkpt lat="44.91317" lon="0.88634">
        <ele>184</ele>
        <time>2025-05-10T08:21:13Z</time>
      </trkpt>
      <trkpt lat="44.91316" lon="0.88629">
        <ele>184.2</ele>
        <time>2025-05-10T08:21:14Z</time>
      </trkpt>
      <trkpt lat="44.91315" lon="0.88625">
        <ele>184.4</ele>
        <time>2025-05-10T08:21:15Z</time>
      </trkpt>
      <trkpt lat="44.91314" lon="0.88621">
        <ele>184.8</ele>
        <time>2025-05-10T08:21:16Z</time>
      </trkpt>
      <trkpt lat="44.91313" lon="0.88617">
        <ele>185.4</ele>
        <time>2025-05-10T08:21:17Z</time>
      </trkpt>
      <trkpt lat="44.91313" lon="0.88613">
        <ele>185.8</ele>
        <time>2025-05-10T08:21:18Z</time>
      </trkpt>
      <trkpt lat="44.91313" lon="0.88609">
        <ele>186.2</ele>
        <time>2025-05-10T08:21:19Z</time>
      </trkpt>
      <trkpt lat="44.91313" lon="0.88606">
        <ele>186.6</ele>
        <time>2025-05-10T08:21:20Z</time>
      </trkpt>
      <trkpt lat="44.91314" lon="0.88604">
        <ele>187</ele>
        <time>2025-05-10T08:21:21Z</time>
      </trkpt>
      <trkpt lat="44.91313" lon="0.88601">
        <ele>187.6</ele>
        <time>2025-05-10T08:21:22Z</time>
      </trkpt>
      <trkpt lat="44.91313" lon="0.88599">
        <ele>188</ele>
        <time>2025-05-10T08:21:23Z</time>
      </trkpt>
      <trkpt lat="44.91312" lon="0.88595">
        <ele>188.4</ele>
        <time>2025-05-10T08:21:24Z</time>
      </trkpt>
      <trkpt lat="44.91312" lon="0.88592">
        <ele>188.6</ele>
        <time>2025-05-10T08:21:25Z</time>
      </trkpt>
      <trkpt lat="44.91311" lon="0.88589">
        <ele>188.8</ele>
        <time>2025-05-10T08:21:26Z</time>
      </trkpt>
      <trkpt lat="44.9131" lon="0.88586">
        <ele>189</ele>
        <time>2025-05-10T08:21:27Z</time>
      </trkpt>
      <trkpt lat="44.91309" lon="0.88582">
        <ele>189.4</ele>
        <time>2025-05-10T08:21:28Z</time>
      </trkpt>
      <trkpt lat="44.91308" lon="0.8858">
        <ele>189.6</ele>
        <time>2025-05-10T08:21:29Z</time>
      </trkpt>
      <trkpt lat="44.91306" lon="0.88577">
        <ele>189.8</ele>
        <time>2025-05-10T08:21:30Z</time>
      </trkpt>
      <trkpt lat="44.91306" lon="0.88574">
        <ele>189.8</ele>
        <time>2025-05-10T08:21:31Z</time>
      </trkpt>
      <trkpt lat="44.91304" lon="0.88572">
        <ele>190.2</ele>
        <time>2025-05-10T08:21:32Z</time>
      </trkpt>
      <trkpt lat="44.91304" lon="0.8857">
        <ele>190.4</ele>
        <time>2025-05-10T08:21:33Z</time>
      </trkpt>
      <trkpt lat="44.91303" lon="0.88567">
        <ele>190.8</ele>
        <time>2025-05-10T08:21:34Z</time>
      </trkpt>
      <trkpt lat="44.91302" lon="0.88565">
        <ele>191</ele>
        <time>2025-05-10T08:21:35Z</time>
      </trkpt>
      <trkpt lat="44.91302" lon="0.88562">
        <ele>191.2</ele>
        <time>2025-05-10T08:21:36Z</time>
      </trkpt>
      <trkpt lat="44.91301" lon="0.8856">
        <ele>191.6</ele>
        <time>2025-05-10T08:21:37Z</time>
      </trkpt>
      <trkpt lat="44.91301" lon="0.88556">
        <ele>191.8</ele>
        <time>2025-05-10T08:21:38Z</time>
      </trkpt>
      <trkpt lat="44.913" lon="0.88554">
        <ele>192.2</ele>
        <time>2025-05-10T08:21:39Z</time>
      </trkpt>
      <trkpt lat="44.91299" lon="0.88551">
        <ele>192.6</ele>
        <time>2025-05-10T08:21:40Z</time>
      </trkpt>
      <trkpt lat="44.91299" lon="0.88549">
        <ele>192.8</ele>
        <time>2025-05-10T08:21:41Z</time>
      </trkpt>
      <trkpt lat="44.91299" lon="0.88546">
        <ele>193.2</ele>
        <time>2025-05-10T08:21:42Z</time>
      </trkpt>
      <trkpt lat="44.91298" lon="0.88543">
        <ele>193.6</ele>
        <time>2025-05-10T08:21:43Z</time>
      </trkpt>
      <trkpt lat="44.91297" lon="0.88541">
        <ele>193.8</ele>
        <time>2025-05-10T08:21:44Z</time>
      </trkpt>
      <trkpt lat="44.91296" lon="0.88539">
        <ele>194</ele>
        <time>2025-05-10T08:21:45Z</time>
      </trkpt>
      <trkpt lat="44.91295" lon="0.88537">
        <ele>194.2</ele>
        <time>2025-05-10T08:21:46Z</time>
      </trkpt>
      <trkpt lat="44.91294" lon="0.88534">
        <ele>194.4</ele>
        <time>2025-05-10T08:21:47Z</time>
      </trkpt>
      <trkpt lat="44.91294" lon="0.88532">
        <ele>194.8</ele>
        <time>2025-05-10T08:21:48Z</time>
      </trkpt>
      <trkpt lat="44.91294" lon="0.88529">
        <ele>195.2</ele>
        <time>2025-05-10T08:21:49Z</time>
      </trkpt>
      <trkpt lat="44.91294" lon="0.88527">
        <ele>195.4</ele>
        <time>2025-05-10T08:21:50Z</time>
      </trkpt>
      <trkpt lat="44.91293" lon="0.88525">
        <ele>195.8</ele>
        <time>2025-05-10T08:21:51Z</time>
      </trkpt>
      <trkpt lat="44.91293" lon="0.88523">
        <ele>196</ele>
        <time>2025-05-10T08:21:52Z</time>
      </trkpt>
      <trkpt lat="44.91292" lon="0.88521">
        <ele>196.2</ele>
        <time>2025-05-10T08:21:53Z</time>
      </trkpt>
      <trkpt lat="44.91291" lon="0.88519">
        <ele>196.4</ele>
        <time>2025-05-10T08:21:54Z</time>
      </trkpt>
      <trkpt lat="44.91291" lon="0.88517">
        <ele>196.6</ele>
        <time>2025-05-10T08:21:55Z</time>
      </trkpt>
      <trkpt lat="44.91289" lon="0.88515">
        <ele>196.8</ele>
        <time>2025-05-10T08:21:56Z</time>
      </trkpt>
      <trkpt lat="44.91289" lon="0.88512">
        <ele>197</ele>
        <time>2025-05-10T08:21:57Z</time>
      </trkpt>
      <trkpt lat="44.91288" lon="0.8851">
        <ele>197.2</ele>
        <time>2025-05-10T08:21:58Z</time>
      </trkpt>
      <trkpt lat="44.91287" lon="0.88508">
        <ele>197.2</ele>
        <time>2025-05-10T08:21:59Z</time>
      </trkpt>
      <trkpt lat="44.91287" lon="0.88506">
        <ele>197.4</ele>
        <time>2025-05-10T08:22:00Z</time>
      </trkpt>
      <trkpt lat="44.91286" lon="0.88504">
        <ele>197.6</ele>
        <time>2025-05-10T08:22:01Z</time>
      </trkpt>
      <trkpt lat="44.91286" lon="0.88502">
        <ele>197.8</ele>
        <time>2025-05-10T08:22:02Z</time>
      </trkpt>
      <trkpt lat="44.91285" lon="0.88499">
        <ele>198.2</ele>
        <time>2025-05-10T08:22:03Z</time>
      </trkpt>
      <trkpt lat="44.91285" lon="0.88497">
        <ele>198.2</ele>
        <time>2025-05-10T08:22:04Z</time>
      </trkpt>
      <trkpt lat="44.91284" lon="0.88494">
        <ele>198.6</ele>
        <time>2025-05-10T08:22:05Z</time>
      </trkpt>
      <trkpt lat="44.91284" lon="0.88492">
        <ele>198.8</ele>
        <time>2025-05-10T08:22:06Z</time>
      </trkpt>
      <trkpt lat="44.91283" lon="0.8849">
        <ele>199</ele>
        <time>2025-05-10T08:22:07Z</time>
      </trkpt>
      <trkpt lat="44.91283" lon="0.88488">
        <ele>199.2</ele>
        <time>2025-05-10T08:22:08Z</time>
      </trkpt>
      <trkpt lat="44.91282" lon="0.88486">
        <ele>199.6</ele>
        <time>2025-05-10T08:22:09Z</time>
      </trkpt>
      <trkpt lat="44.91282" lon="0.88484">
        <ele>199.6</ele>
        <time>2025-05-10T08:22:10Z</time>
      </trkpt>
      <trkpt lat="44.91282" lon="0.88482">
        <ele>199.8</ele>
        <time>2025-05-10T08:22:11Z</time>
      </trkpt>
      <trkpt lat="44.91281" lon="0.88479">
        <ele>200</ele>
        <time>2025-05-10T08:22:12Z</time>
      </trkpt>
      <trkpt lat="44.9128" lon="0.88476">
        <ele>200.2</ele>
        <time>2025-05-10T08:22:13Z</time>
      </trkpt>
      <trkpt lat="44.91279" lon="0.88474">
        <ele>200.4</ele>
        <time>2025-05-10T08:22:14Z</time>
      </trkpt>
      <trkpt lat="44.91278" lon="0.88472">
        <ele>200.6</ele>
        <time>2025-05-10T08:22:15Z</time>
      </trkpt>
      <trkpt lat="44.91277" lon="0.8847">
        <ele>200.8</ele>
        <time>2025-05-10T08:22:16Z</time>
      </trkpt>
      <trkpt lat="44.91277" lon="0.88468">
        <ele>201</ele>
        <time>2025-05-10T08:22:17Z</time>
      </trkpt>
      <trkpt lat="44.91277" lon="0.88466">
        <ele>201</ele>
        <time>2025-05-10T08:22:18Z</time>
      </trkpt>
      <trkpt lat="44.91277" lon="0.88464">
        <ele>201.2</ele>
        <time>2025-05-10T08:22:19Z</time>
      </trkpt>
      <trkpt lat="44.91277" lon="0.88461">
        <ele>201.4</ele>
        <time>2025-05-10T08:22:20Z</time>
      </trkpt>
      <trkpt lat="44.91277" lon="0.88458">
        <ele>201.6</ele>
        <time>2025-05-10T08:22:21Z</time>
      </trkpt>
      <trkpt lat="44.91277" lon="0.88455">
        <ele>201.8</ele>
        <time>2025-05-10T08:22:22Z</time>
      </trkpt>
      <trkpt lat="44.91277" lon="0.88452">
        <ele>201.8</ele>
        <time>2025-05-10T08:22:23Z</time>
      </trkpt>
      <trkpt lat="44.91278" lon="0.88448">
        <ele>202</ele>
        <time>2025-05-10T08:22:24Z</time>
      </trkpt>
      <trkpt lat="44.91278" lon="0.88446">
        <ele>202.2</ele>
        <time>2025-05-10T08:22:25Z</time>
      </trkpt>
      <trkpt lat="44.91278" lon="0.88443">
        <ele>202.2</ele>
        <time>2025-05-10T08:22:26Z</time>
      </trkpt>
      <trkpt lat="44.91279" lon="0.88439">
        <ele>202.4</ele>
        <time>2025-05-10T08:22:27Z</time>
      </trkpt>
      <trkpt lat="44.91279" lon="0.88436">
        <ele>202.6</ele>
        <time>2025-05-10T08:22:28Z</time>
      </trkpt>
      <trkpt lat="44.91279" lon="0.88433">
        <ele>202.6</ele>
        <time>2025-05-10T08:22:29Z</time>
      </trkpt>
      <trkpt lat="44.91279" lon="0.8843">
        <ele>202.8</ele>
        <time>2025-05-10T08:22:30Z</time>
      </trkpt>
      <trkpt lat="44.91279" lon="0.88427">
        <ele>203</ele>
        <time>2025-05-10T08:22:31Z</time>
      </trkpt>
      <trkpt lat="44.9128" lon="0.88424">
        <ele>203.2</ele>
        <time>2025-05-10T08:22:32Z</time>
      </trkpt>
      <trkpt lat="44.9128" lon="0.8842">
        <ele>203.2</ele>
        <time>2025-05-10T08:22:33Z</time>
      </trkpt>
      <trkpt lat="44.9128" lon="0.88417">
        <ele>203.2</ele>
        <time>2025-05-10T08:22:34Z</time>
      </trkpt>
      <trkpt lat="44.9128" lon="0.88413">
        <ele>203.4</ele>
        <time>2025-05-10T08:22:35Z</time>
      </trkpt>
      <trkpt lat="44.91279" lon="0.8841">
        <ele>203.6</ele>
        <time>2025-05-10T08:22:36Z</time>
      </trkpt>
      <trkpt lat="44.91279" lon="0.88407">
        <ele>203.6</ele>
        <time>2025-05-10T08:22:37Z</time>
      </trkpt>
      <trkpt lat="44.9128" lon="0.88403">
        <ele>203.8</ele>
        <time>2025-05-10T08:22:38Z</time>
      </trkpt>
      <trkpt lat="44.9128" lon="0.884">
        <ele>203.8</ele>
        <time>2025-05-10T08:22:39Z</time>
      </trkpt>
      <trkpt lat="44.9128" lon="0.88397">
        <ele>204</ele>
        <time>2025-05-10T08:22:40Z</time>
      </trkpt>
      <trkpt lat="44.9128" lon="0.88394">
        <ele>204.2</ele>
        <time>2025-05-10T08:22:41Z</time>
      </trkpt>
      <trkpt lat="44.9128" lon="0.88391">
        <ele>204.2</ele>
        <time>2025-05-10T08:22:42Z</time>
      </trkpt>
      <trkpt lat="44.91281" lon="0.88388">
        <ele>204.4</ele>
        <time>2025-05-10T08:22:43Z</time>
      </trkpt>
      <trkpt lat="44.91281" lon="0.88384">
        <ele>204.4</ele>
        <time>2025-05-10T08:22:44Z</time>
      </trkpt>
      <trkpt lat="44.91282" lon="0.8838">
        <ele>204.6</ele>
        <time>2025-05-10T08:22:45Z</time>
      </trkpt>
      <trkpt lat="44.91282" lon="0.88377">
        <ele>204.8</ele>
        <time>2025-05-10T08:22:46Z</time>
      </trkpt>
      <trkpt lat="44.91283" lon="0.88373">
        <ele>204.8</ele>
        <time>2025-05-10T08:22:47Z</time>
      </trkpt>
      <trkpt lat="44.91284" lon="0.88369">
        <ele>205</ele>
        <time>2025-05-10T08:22:48Z</time>
      </trkpt>
      <trkpt lat="44.91284" lon="0.88365">
        <ele>205.2</ele>
        <time>2025-05-10T08:22:49Z</time>
      </trkpt>
      <trkpt lat="44.91285" lon="0.88362">
        <ele>205.4</ele>
        <time>2025-05-10T08:22:50Z</time>
      </trkpt>
      <trkpt lat="44.91284" lon="0.88358">
        <ele>205.6</ele>
        <time>2025-05-10T08:22:51Z</time>
      </trkpt>
      <trkpt lat="44.91284" lon="0.88353">
        <ele>205.6</ele>
        <time>2025-05-10T08:22:52Z</time>
      </trkpt>
      <trkpt lat="44.91284" lon="0.88348">
        <ele>205.6</ele>
        <time>2025-05-10T08:22:53Z</time>
      </trkpt>
      <trkpt lat="44.91284" lon="0.88342">
        <ele>205.6</ele>
        <time>2025-05-10T08:22:54Z</time>
      </trkpt>
      <trkpt lat="44.91283" lon="0.88336">
        <ele>205.4</ele>
        <time>2025-05-10T08:22:55Z</time>
      </trkpt>
      <trkpt lat="44.91282" lon="0.88329">
        <ele>205.2</ele>
        <time>2025-05-10T08:22:56Z</time>
      </trkpt>
      <trkpt lat="44.91282" lon="0.88321">
        <ele>204.8</ele>
        <time>2025-05-10T08:22:57Z</time>
      </trkpt>
      <trkpt lat="44.91281" lon="0.88314">
        <ele>204.2</ele>
        <time>2025-05-10T08:22:58Z</time>
      </trkpt>
      <trkpt lat="44.9128" lon="0.88308">
        <ele>203.8</ele>
        <time>2025-05-10T08:22:59Z</time>
      </trkpt>
      <trkpt lat="44.91279" lon="0.88302">
        <ele>203.2</ele>
        <time>2025-05-10T08:23:00Z</time>
      </trkpt>
      <trkpt lat="44.91279" lon="0.88295">
        <ele>203</ele>
        <time>2025-05-10T08:23:01Z</time>
      </trkpt>
      <trkpt lat="44.91278" lon="0.88287">
        <ele>202.8</ele>
        <time>2025-05-10T08:23:02Z</time>
      </trkpt>
      <trkpt lat="44.91277" lon="0.88279">
        <ele>202.4</ele>
        <time>2025-05-10T08:23:03Z</time>
      </trkpt>
      <trkpt lat="44.91277" lon="0.88272">
        <ele>202.2</ele>
        <time>2025-05-10T08:23:04Z</time>
      </trkpt>
      <trkpt lat="44.91275" lon="0.88264">
        <ele>202</ele>
        <time>2025-05-10T08:23:05Z</time>
      </trkpt>
      <trkpt lat="44.91273" lon="0.88257">
        <ele>202</ele>
        <time>2025-05-10T08:23:06Z</time>
      </trkpt>
      <trkpt lat="44.91271" lon="0.8825">
        <ele>201.6</ele>
        <time>2025-05-10T08:23:07Z</time>
      </trkpt>
      <trkpt lat="44.91269" lon="0.88242">
        <ele>201.4</ele>
        <time>2025-05-10T08:23:08Z</time>
      </trkpt>
      <trkpt lat="44.91267" lon="0.88236">
        <ele>201</ele>
        <time>2025-05-10T08:23:09Z</time>
      </trkpt>
      <trkpt lat="44.91265" lon="0.88229">
        <ele>200.6</ele>
        <time>2025-05-10T08:23:10Z</time>
      </trkpt>
      <trkpt lat="44.91262" lon="0.88222">
        <ele>200.6</ele>
        <time>2025-05-10T08:23:11Z</time>
      </trkpt>
      <trkpt lat="44.91259" lon="0.88216">
        <ele>200.6</ele>
        <time>2025-05-10T08:23:12Z</time>
      </trkpt>
      <trkpt lat="44.91257" lon="0.88209">
        <ele>200.4</ele>
        <time>2025-05-10T08:23:13Z</time>
      </trkpt>
      <trkpt lat="44.91253" lon="0.88202">
        <ele>200.2</ele>
        <time>2025-05-10T08:23:14Z</time>
      </trkpt>
      <trkpt lat="44.91249" lon="0.88195">
        <ele>200.2</ele>
        <time>2025-05-10T08:23:15Z</time>
      </trkpt>
      <trkpt lat="44.91245" lon="0.88189">
        <ele>200</ele>
        <time>2025-05-10T08:23:16Z</time>
      </trkpt>
      <trkpt lat="44.91241" lon="0.88183">
        <ele>200</ele>
        <time>2025-05-10T08:23:17Z</time>
      </trkpt>
      <trkpt lat="44.91237" lon="0.88176">
        <ele>199.8</ele>
        <time>2025-05-10T08:23:18Z</time>
      </trkpt>
      <trkpt lat="44.91233" lon="0.8817">
        <ele>199.8</ele>
        <time>2025-05-10T08:23:19Z</time>
      </trkpt>
      <trkpt lat="44.91229" lon="0.88162">
        <ele>199.6</ele>
        <time>2025-05-10T08:23:20Z</time>
      </trkpt>
      <trkpt lat="44.91225" lon="0.88155">
        <ele>199.4</ele>
        <time>2025-05-10T08:23:21Z</time>
      </trkpt>
      <trkpt lat="44.91222" lon="0.88147">
        <ele>199.4</ele>
        <time>2025-05-10T08:23:22Z</time>
      </trkpt>
      <trkpt lat="44.91218" lon="0.88139">
        <ele>199.4</ele>
        <time>2025-05-10T08:23:23Z</time>
      </trkpt>
      <trkpt lat="44.91215" lon="0.88132">
        <ele>199.2</ele>
        <time>2025-05-10T08:23:24Z</time>
      </trkpt>
      <trkpt lat="44.91211" lon="0.88125">
        <ele>198.8</ele>
        <time>2025-05-10T08:23:25Z</time>
      </trkpt>
      <trkpt lat="44.91208" lon="0.88118">
        <ele>198.6</ele>
        <time>2025-05-10T08:23:26Z</time>
      </trkpt>
      <trkpt lat="44.91204" lon="0.88111">
        <ele>198.4</ele>
        <time>2025-05-10T08:23:27Z</time>
      </trkpt>
      <trkpt lat="44.912" lon="0.88104">
        <ele>197.8</ele>
        <time>2025-05-10T08:23:28Z</time>
      </trkpt>
      <trkpt lat="44.91197" lon="0.88096">
        <ele>197.4</ele>
        <time>2025-05-10T08:23:29Z</time>
      </trkpt>
      <trkpt lat="44.91193" lon="0.88089">
        <ele>197.2</ele>
        <time>2025-05-10T08:23:30Z</time>
      </trkpt>
      <trkpt lat="44.91189" lon="0.88082">
        <ele>197</ele>
        <time>2025-05-10T08:23:31Z</time>
      </trkpt>
      <trkpt lat="44.91184" lon="0.88077">
        <ele>196.6</ele>
        <time>2025-05-10T08:23:32Z</time>
      </trkpt>
      <trkpt lat="44.9118" lon="0.88071">
        <ele>196.6</ele>
        <time>2025-05-10T08:23:33Z</time>
      </trkpt>
      <trkpt lat="44.91175" lon="0.88065">
        <ele>196.4</ele>
        <time>2025-05-10T08:23:34Z</time>
      </trkpt>
      <trkpt lat="44.9117" lon="0.88058">
        <ele>196.2</ele>
        <time>2025-05-10T08:23:35Z</time>
      </trkpt>
      <trkpt lat="44.91166" lon="0.88052">
        <ele>196</ele>
        <time>2025-05-10T08:23:36Z</time>
      </trkpt>
      <trkpt lat="44.91161" lon="0.88045">
        <ele>195.8</ele>
        <time>2025-05-10T08:23:37Z</time>
      </trkpt>
      <trkpt lat="44.91156" lon="0.88038">
        <ele>195.6</ele>
        <time>2025-05-10T08:23:38Z</time>
      </trkpt>
      <trkpt lat="44.91152" lon="0.88031">
        <ele>195.6</ele>
        <time>2025-05-10T08:23:39Z</time>
      </trkpt>
      <trkpt lat="44.91148" lon="0.88024">
        <ele>195</ele>
        <time>2025-05-10T08:23:40Z</time>
      </trkpt>
      <trkpt lat="44.91143" lon="0.88017">
        <ele>195</ele>
        <time>2025-05-10T08:23:41Z</time>
      </trkpt>
      <trkpt lat="44.9114" lon="0.88009">
        <ele>195</ele>
        <time>2025-05-10T08:23:42Z</time>
      </trkpt>
      <trkpt lat="44.91137" lon="0.88001">
        <ele>194.8</ele>
        <time>2025-05-10T08:23:43Z</time>
      </trkpt>
      <trkpt lat="44.91134" lon="0.87992">
        <ele>194.8</ele>
        <time>2025-05-10T08:23:44Z</time>
      </trkpt>
      <trkpt lat="44.91131" lon="0.87983">
        <ele>194.6</ele>
        <time>2025-05-10T08:23:45Z</time>
      </trkpt>
      <trkpt lat="44.91127" lon="0.87975">
        <ele>194.4</ele>
        <time>2025-05-10T08:23:46Z</time>
      </trkpt>
      <trkpt lat="44.91123" lon="0.87966">
        <ele>194.2</ele>
        <time>2025-05-10T08:23:47Z</time>
      </trkpt>
      <trkpt lat="44.91119" lon="0.87959">
        <ele>194</ele>
        <time>2025-05-10T08:23:48Z</time>
      </trkpt>
      <trkpt lat="44.91116" lon="0.87952">
        <ele>193.4</ele>
        <time>2025-05-10T08:23:49Z</time>
      </trkpt>
      <trkpt lat="44.91111" lon="0.87946">
        <ele>193.4</ele>
        <time>2025-05-10T08:23:50Z</time>
      </trkpt>
      <trkpt lat="44.91107" lon="0.87939">
        <ele>193.2</ele>
        <time>2025-05-10T08:23:51Z</time>
      </trkpt>
      <trkpt lat="44.91103" lon="0.87932">
        <ele>193.2</ele>
        <time>2025-05-10T08:23:52Z</time>
      </trkpt>
      <trkpt lat="44.91099" lon="0.87925">
        <ele>193</ele>
        <time>2025-05-10T08:23:53Z</time>
      </trkpt>
      <trkpt lat="44.91095" lon="0.87918">
        <ele>193</ele>
        <time>2025-05-10T08:23:54Z</time>
      </trkpt>
      <trkpt lat="44.91091" lon="0.87911">
        <ele>193</ele>
        <time>2025-05-10T08:23:55Z</time>
      </trkpt>
      <trkpt lat="44.91087" lon="0.87903">
        <ele>192.8</ele>
        <time>2025-05-10T08:23:56Z</time>
      </trkpt>
      <trkpt lat="44.91084" lon="0.87894">
        <ele>192.6</ele>
        <time>2025-05-10T08:23:57Z</time>
      </trkpt>
      <trkpt lat="44.9108" lon="0.87887">
        <ele>192.4</ele>
        <time>2025-05-10T08:23:58Z</time>
      </trkpt>
      <trkpt lat="44.91077" lon="0.87878">
        <ele>192.2</ele>
        <time>2025-05-10T08:23:59Z</time>
      </trkpt>
      <trkpt lat="44.91073" lon="0.8787">
        <ele>192</ele>
        <time>2025-05-10T08:24:00Z</time>
      </trkpt>
      <trkpt lat="44.91069" lon="0.87862">
        <ele>191.8</ele>
        <time>2025-05-10T08:24:01Z</time>
      </trkpt>
      <trkpt lat="44.91065" lon="0.87854">
        <ele>191.6</ele>
        <time>2025-05-10T08:24:02Z</time>
      </trkpt>
      <trkpt lat="44.91062" lon="0.87847">
        <ele>191.6</ele>
        <time>2025-05-10T08:24:03Z</time>
      </trkpt>
      <trkpt lat="44.91058" lon="0.87839">
        <ele>191.4</ele>
        <time>2025-05-10T08:24:04Z</time>
      </trkpt>
      <trkpt lat="44.91054" lon="0.87831">
        <ele>191.2</ele>
        <time>2025-05-10T08:24:05Z</time>
      </trkpt>
      <trkpt lat="44.91051" lon="0.87823">
        <ele>191.2</ele>
        <time>2025-05-10T08:24:06Z</time>
      </trkpt>
      <trkpt lat="44.91048" lon="0.87814">
        <ele>191.2</ele>
        <time>2025-05-10T08:24:07Z</time>
      </trkpt>
      <trkpt lat="44.91045" lon="0.87806">
        <ele>191.2</ele>
        <time>2025-05-10T08:24:08Z</time>
      </trkpt>
      <trkpt lat="44.91041" lon="0.87798">
        <ele>191.2</ele>
        <time>2025-05-10T08:24:09Z</time>
      </trkpt>
      <trkpt lat="44.91037" lon="0.8779">
        <ele>191</ele>
        <time>2025-05-10T08:24:10Z</time>
      </trkpt>
      <trkpt lat="44.91033" lon="0.87783">
        <ele>191</ele>
        <time>2025-05-10T08:24:11Z</time>
      </trkpt>
      <trkpt lat="44.9103" lon="0.87777">
        <ele>191</ele>
        <time>2025-05-10T08:24:12Z</time>
      </trkpt>
      <trkpt lat="44.91025" lon="0.8777">
        <ele>191.2</ele>
        <time>2025-05-10T08:24:13Z</time>
      </trkpt>
      <trkpt lat="44.91022" lon="0.87764">
        <ele>191.4</ele>
        <time>2025-05-10T08:24:14Z</time>
      </trkpt>
      <trkpt lat="44.91018" lon="0.87759">
        <ele>191.6</ele>
        <time>2025-05-10T08:24:15Z</time>
      </trkpt>
      <trkpt lat="44.91014" lon="0.87754">
        <ele>191.6</ele>
        <time>2025-05-10T08:24:16Z</time>
      </trkpt>
      <trkpt lat="44.91011" lon="0.8775">
        <ele>191.8</ele>
        <time>2025-05-10T08:24:17Z</time>
      </trkpt>
      <trkpt lat="44.91006" lon="0.87746">
        <ele>192</ele>
        <time>2025-05-10T08:24:18Z</time>
      </trkpt>
      <trkpt lat="44.91002" lon="0.87743">
        <ele>192.4</ele>
        <time>2025-05-10T08:24:19Z</time>
      </trkpt>
      <trkpt lat="44.90998" lon="0.8774">
        <ele>192.4</ele>
        <time>2025-05-10T08:24:20Z</time>
      </trkpt>
      <trkpt lat="44.90994" lon="0.87737">
        <ele>192.8</ele>
        <time>2025-05-10T08:24:21Z</time>
      </trkpt>
      <trkpt lat="44.90989" lon="0.87734">
        <ele>193.2</ele>
        <time>2025-05-10T08:24:22Z</time>
      </trkpt>
      <trkpt lat="44.90985" lon="0.8773">
        <ele>193.2</ele>
        <time>2025-05-10T08:24:23Z</time>
      </trkpt>
      <trkpt lat="44.90981" lon="0.87727">
        <ele>193.4</ele>
        <time>2025-05-10T08:24:24Z</time>
      </trkpt>
      <trkpt lat="44.90977" lon="0.87724">
        <ele>193.6</ele>
        <time>2025-05-10T08:24:25Z</time>
      </trkpt>
      <trkpt lat="44.90972" lon="0.87721">
        <ele>193.8</ele>
        <time>2025-05-10T08:24:26Z</time>
      </trkpt>
      <trkpt lat="44.90968" lon="0.87719">
        <ele>194</ele>
        <time>2025-05-10T08:24:27Z</time>
      </trkpt>
      <trkpt lat="44.90964" lon="0.87717">
        <ele>194</ele>
        <time>2025-05-10T08:24:28Z</time>
      </trkpt>
      <trkpt lat="44.9096" lon="0.87715">
        <ele>194.2</ele>
        <time>2025-05-10T08:24:29Z</time>
      </trkpt>
      <trkpt lat="44.90956" lon="0.87714">
        <ele>194.4</ele>
        <time>2025-05-10T08:24:30Z</time>
      </trkpt>
      <trkpt lat="44.90953" lon="0.87712">
        <ele>194.6</ele>
        <time>2025-05-10T08:24:31Z</time>
      </trkpt>
      <trkpt lat="44.9095" lon="0.87711">
        <ele>195.2</ele>
        <time>2025-05-10T08:24:32Z</time>
      </trkpt>
      <trkpt lat="44.90948" lon="0.87708">
        <ele>195.2</ele>
        <time>2025-05-10T08:24:33Z</time>
      </trkpt>
      <trkpt lat="44.90948" lon="0.87704">
        <ele>195.4</ele>
        <time>2025-05-10T08:24:34Z</time>
      </trkpt>
      <trkpt lat="44.90949" lon="0.87701">
        <ele>195.6</ele>
        <time>2025-05-10T08:24:35Z</time>
      </trkpt>
      <trkpt lat="44.90952" lon="0.87699">
        <ele>195.8</ele>
        <time>2025-05-10T08:24:36Z</time>
      </trkpt>
      <trkpt lat="44.90955" lon="0.87698">
        <ele>195.8</ele>
        <time>2025-05-10T08:24:37Z</time>
      </trkpt>
      <trkpt lat="44.90958" lon="0.87696">
        <ele>195.8</ele>
        <time>2025-05-10T08:24:38Z</time>
      </trkpt>
      <trkpt lat="44.90961" lon="0.87694">
        <ele>195.8</ele>
        <time>2025-05-10T08:24:39Z</time>
      </trkpt>
      <trkpt lat="44.90964" lon="0.87692">
        <ele>195.8</ele>
        <time>2025-05-10T08:24:40Z</time>
      </trkpt>
      <trkpt lat="44.90968" lon="0.8769">
        <ele>195.8</ele>
        <time>2025-05-10T08:24:41Z</time>
      </trkpt>
      <trkpt lat="44.90972" lon="0.87688">
        <ele>195.8</ele>
        <time>2025-05-10T08:24:42Z</time>
      </trkpt>
      <trkpt lat="44.90976" lon="0.87686">
        <ele>195.6</ele>
        <time>2025-05-10T08:24:43Z</time>
      </trkpt>
      <trkpt lat="44.9098" lon="0.87683">
        <ele>195.6</ele>
        <time>2025-05-10T08:24:44Z</time>
      </trkpt>
      <trkpt lat="44.90984" lon="0.87681">
        <ele>195.6</ele>
        <time>2025-05-10T08:24:45Z</time>
      </trkpt>
      <trkpt lat="44.90988" lon="0.87679">
        <ele>195.6</ele>
        <time>2025-05-10T08:24:46Z</time>
      </trkpt>
      <trkpt lat="44.90991" lon="0.87677">
        <ele>195.6</ele>
        <time>2025-05-10T08:24:47Z</time>
      </trkpt>
      <trkpt lat="44.90995" lon="0.87676">
        <ele>195.8</ele>
        <time>2025-05-10T08:24:48Z</time>
      </trkpt>
      <trkpt lat="44.90999" lon="0.87674">
        <ele>195.8</ele>
        <time>2025-05-10T08:24:49Z</time>
      </trkpt>
      <trkpt lat="44.91003" lon="0.87671">
        <ele>195.8</ele>
        <time>2025-05-10T08:24:50Z</time>
      </trkpt>
      <trkpt lat="44.91007" lon="0.87669">
        <ele>195.8</ele>
        <time>2025-05-10T08:24:51Z</time>
      </trkpt>
      <trkpt lat="44.91011" lon="0.87667">
        <ele>195.8</ele>
        <time>2025-05-10T08:24:52Z</time>
      </trkpt>
      <trkpt lat="44.91015" lon="0.87665">
        <ele>195.8</ele>
        <time>2025-05-10T08:24:53Z</time>
      </trkpt>
      <trkpt lat="44.91019" lon="0.87663">
        <ele>195.8</ele>
        <time>2025-05-10T08:24:54Z</time>
      </trkpt>
      <trkpt lat="44.91023" lon="0.87661">
        <ele>196</ele>
        <time>2025-05-10T08:24:55Z</time>
      </trkpt>
      <trkpt lat="44.91027" lon="0.8766">
        <ele>196.2</ele>
        <time>2025-05-10T08:24:56Z</time>
      </trkpt>
      <trkpt lat="44.91031" lon="0.8766">
        <ele>196.2</ele>
        <time>2025-05-10T08:24:57Z</time>
      </trkpt>
      <trkpt lat="44.91035" lon="0.87658">
        <ele>196.4</ele>
        <time>2025-05-10T08:24:58Z</time>
      </trkpt>
      <trkpt lat="44.91039" lon="0.87656">
        <ele>196.4</ele>
        <time>2025-05-10T08:24:59Z</time>
      </trkpt>
      <trkpt lat="44.91044" lon="0.87655">
        <ele>196.6</ele>
        <time>2025-05-10T08:25:00Z</time>
      </trkpt>
      <trkpt lat="44.91048" lon="0.87653">
        <ele>196.6</ele>
        <time>2025-05-10T08:25:01Z</time>
      </trkpt>
      <trkpt lat="44.91053" lon="0.87652">
        <ele>196.6</ele>
        <time>2025-05-10T08:25:02Z</time>
      </trkpt>
      <trkpt lat="44.91058" lon="0.87651">
        <ele>196.6</ele>
        <time>2025-05-10T08:25:03Z</time>
      </trkpt>
      <trkpt lat="44.91063" lon="0.8765">
        <ele>196.4</ele>
        <time>2025-05-10T08:25:04Z</time>
      </trkpt>
      <trkpt lat="44.91069" lon="0.87649">
        <ele>196.2</ele>
        <time>2025-05-10T08:25:05Z</time>
      </trkpt>
      <trkpt lat="44.91076" lon="0.87647">
        <ele>195.6</ele>
        <time>2025-05-10T08:25:06Z</time>
      </trkpt>
      <trkpt lat="44.91083" lon="0.87646">
        <ele>195</ele>
        <time>2025-05-10T08:25:07Z</time>
      </trkpt>
      <trkpt lat="44.9109" lon="0.87645">
        <ele>194.6</ele>
        <time>2025-05-10T08:25:08Z</time>
      </trkpt>
      <trkpt lat="44.91098" lon="0.87643">
        <ele>194.2</ele>
        <time>2025-05-10T08:25:09Z</time>
      </trkpt>
      <trkpt lat="44.91107" lon="0.87641">
        <ele>193.8</ele>
        <time>2025-05-10T08:25:10Z</time>
      </trkpt>
      <trkpt lat="44.91116" lon="0.87639">
        <ele>192.8</ele>
        <time>2025-05-10T08:25:11Z</time>
      </trkpt>
      <trkpt lat="44.91125" lon="0.87637">
        <ele>191.8</ele>
        <time>2025-05-10T08:25:12Z</time>
      </trkpt>
      <trkpt lat="44.91133" lon="0.87636">
        <ele>190.8</ele>
        <time>2025-05-10T08:25:13Z</time>
      </trkpt>
      <trkpt lat="44.91142" lon="0.87634">
        <ele>190.4</ele>
        <time>2025-05-10T08:25:14Z</time>
      </trkpt>
      <trkpt lat="44.91152" lon="0.87632">
        <ele>189.2</ele>
        <time>2025-05-10T08:25:15Z</time>
      </trkpt>
      <trkpt lat="44.9116" lon="0.87631">
        <ele>188</ele>
        <time>2025-05-10T08:25:16Z</time>
      </trkpt>
      <trkpt lat="44.91169" lon="0.8763">
        <ele>187.4</ele>
        <time>2025-05-10T08:25:17Z</time>
      </trkpt>
      <trkpt lat="44.91177" lon="0.87628">
        <ele>186.6</ele>
        <time>2025-05-10T08:25:18Z</time>
      </trkpt>
      <trkpt lat="44.91185" lon="0.87627">
        <ele>186.2</ele>
        <time>2025-05-10T08:25:19Z</time>
      </trkpt>
      <trkpt lat="44.91194" lon="0.87626">
        <ele>185.8</ele>
        <time>2025-05-10T08:25:20Z</time>
      </trkpt>
      <trkpt lat="44.91201" lon="0.87624">
        <ele>185.4</ele>
        <time>2025-05-10T08:25:21Z</time>
      </trkpt>
      <trkpt lat="44.91208" lon="0.87621">
        <ele>185.4</ele>
        <time>2025-05-10T08:25:22Z</time>
      </trkpt>
      <trkpt lat="44.91215" lon="0.87618">
        <ele>185.2</ele>
        <time>2025-05-10T08:25:23Z</time>
      </trkpt>
      <trkpt lat="44.91222" lon="0.87614">
        <ele>185.2</ele>
        <time>2025-05-10T08:25:24Z</time>
      </trkpt>
      <trkpt lat="44.91228" lon="0.87609">
        <ele>185.2</ele>
        <time>2025-05-10T08:25:25Z</time>
      </trkpt>
      <trkpt lat="44.91235" lon="0.87605">
        <ele>185.2</ele>
        <time>2025-05-10T08:25:26Z</time>
      </trkpt>
      <trkpt lat="44.91241" lon="0.87599">
        <ele>185.2</ele>
        <time>2025-05-10T08:25:27Z</time>
      </trkpt>
      <trkpt lat="44.91247" lon="0.87594">
        <ele>185.2</ele>
        <time>2025-05-10T08:25:28Z</time>
      </trkpt>
      <trkpt lat="44.91253" lon="0.8759">
        <ele>185.2</ele>
        <time>2025-05-10T08:25:29Z</time>
      </trkpt>
      <trkpt lat="44.91258" lon="0.87591">
        <ele>185.2</ele>
        <time>2025-05-10T08:25:30Z</time>
      </trkpt>
      <trkpt lat="44.91261" lon="0.87596">
        <ele>185.2</ele>
        <time>2025-05-10T08:25:31Z</time>
      </trkpt>
      <trkpt lat="44.91263" lon="0.87602">
        <ele>185.2</ele>
        <time>2025-05-10T08:25:32Z</time>
      </trkpt>
      <trkpt lat="44.91266" lon="0.87609">
        <ele>185</ele>
        <time>2025-05-10T08:25:33Z</time>
      </trkpt>
      <trkpt lat="44.91268" lon="0.87617">
        <ele>185</ele>
        <time>2025-05-10T08:25:34Z</time>
      </trkpt>
      <trkpt lat="44.91271" lon="0.87625">
        <ele>185</ele>
        <time>2025-05-10T08:25:35Z</time>
      </trkpt>
      <trkpt lat="44.91276" lon="0.87635">
        <ele>184.6</ele>
        <time>2025-05-10T08:25:36Z</time>
      </trkpt>
      <trkpt lat="44.9128" lon="0.87644">
        <ele>184.4</ele>
        <time>2025-05-10T08:25:37Z</time>
      </trkpt>
      <trkpt lat="44.91285" lon="0.87654">
        <ele>184.2</ele>
        <time>2025-05-10T08:25:38Z</time>
      </trkpt>
      <trkpt lat="44.9129" lon="0.87664">
        <ele>183.4</ele>
        <time>2025-05-10T08:25:39Z</time>
      </trkpt>
      <trkpt lat="44.91295" lon="0.87675">
        <ele>182.6</ele>
        <time>2025-05-10T08:25:40Z</time>
      </trkpt>
      <trkpt lat="44.91301" lon="0.87686">
        <ele>181.4</ele>
        <time>2025-05-10T08:25:41Z</time>
      </trkpt>
      <trkpt lat="44.91306" lon="0.87698">
        <ele>180</ele>
        <time>2025-05-10T08:25:42Z</time>
      </trkpt>
      <trkpt lat="44.91311" lon="0.87711">
        <ele>179</ele>
        <time>2025-05-10T08:25:43Z</time>
      </trkpt>
      <trkpt lat="44.91316" lon="0.87725">
        <ele>177.8</ele>
        <time>2025-05-10T08:25:44Z</time>
      </trkpt>
      <trkpt lat="44.91321" lon="0.87739">
        <ele>175.6</ele>
        <time>2025-05-10T08:25:45Z</time>
      </trkpt>
      <trkpt lat="44.91327" lon="0.87752">
        <ele>174</ele>
        <time>2025-05-10T08:25:46Z</time>
      </trkpt>
      <trkpt lat="44.91335" lon="0.87765">
        <ele>172.6</ele>
        <time>2025-05-10T08:25:47Z</time>
      </trkpt>
      <trkpt lat="44.91344" lon="0.87775">
        <ele>171.2</ele>
        <time>2025-05-10T08:25:48Z</time>
      </trkpt>
      <trkpt lat="44.91352" lon="0.87786">
        <ele>169.8</ele>
        <time>2025-05-10T08:25:49Z</time>
      </trkpt>
      <trkpt lat="44.9136" lon="0.87795">
        <ele>168.6</ele>
        <time>2025-05-10T08:25:50Z</time>
      </trkpt>
      <trkpt lat="44.91367" lon="0.87805">
        <ele>167.4</ele>
        <time>2025-05-10T08:25:51Z</time>
      </trkpt>
      <trkpt lat="44.91375" lon="0.87811">
        <ele>167</ele>
        <time>2025-05-10T08:25:52Z</time>
      </trkpt>
      <trkpt lat="44.91383" lon="0.87818">
        <ele>166.8</ele>
        <time>2025-05-10T08:25:53Z</time>
      </trkpt>
      <trkpt lat="44.9139" lon="0.87824">
        <ele>166.8</ele>
        <time>2025-05-10T08:25:54Z</time>
      </trkpt>
      <trkpt lat="44.91397" lon="0.8783">
        <ele>166.8</ele>
        <time>2025-05-10T08:25:55Z</time>
      </trkpt>
      <trkpt lat="44.91405" lon="0.87835">
        <ele>167.2</ele>
        <time>2025-05-10T08:25:56Z</time>
      </trkpt>
      <trkpt lat="44.91413" lon="0.8784">
        <ele>167.6</ele>
        <time>2025-05-10T08:25:57Z</time>
      </trkpt>
      <trkpt lat="44.91422" lon="0.87843">
        <ele>168.2</ele>
        <time>2025-05-10T08:25:58Z</time>
      </trkpt>
      <trkpt lat="44.9143" lon="0.87847">
        <ele>168.8</ele>
        <time>2025-05-10T08:25:59Z</time>
      </trkpt>
      <trkpt lat="44.91437" lon="0.87852">
        <ele>169</ele>
        <time>2025-05-10T08:26:00Z</time>
      </trkpt>
      <trkpt lat="44.91445" lon="0.87857">
        <ele>169.2</ele>
        <time>2025-05-10T08:26:01Z</time>
      </trkpt>
      <trkpt lat="44.91451" lon="0.87861">
        <ele>169.8</ele>
        <time>2025-05-10T08:26:02Z</time>
      </trkpt>
      <trkpt lat="44.91457" lon="0.87864">
        <ele>170.2</ele>
        <time>2025-05-10T08:26:03Z</time>
      </trkpt>
      <trkpt lat="44.91464" lon="0.87867">
        <ele>170.4</ele>
        <time>2025-05-10T08:26:04Z</time>
      </trkpt>
      <trkpt lat="44.91471" lon="0.87868">
        <ele>170.6</ele>
        <time>2025-05-10T08:26:05Z</time>
      </trkpt>
      <trkpt lat="44.91477" lon="0.87869">
        <ele>171</ele>
        <time>2025-05-10T08:26:06Z</time>
      </trkpt>
      <trkpt lat="44.91483" lon="0.8787">
        <ele>171.4</ele>
        <time>2025-05-10T08:26:07Z</time>
      </trkpt>
      <trkpt lat="44.91489" lon="0.87872">
        <ele>171.8</ele>
        <time>2025-05-10T08:26:08Z</time>
      </trkpt>
      <trkpt lat="44.91495" lon="0.87872">
        <ele>172</ele>
        <time>2025-05-10T08:26:09Z</time>
      </trkpt>
      <trkpt lat="44.915" lon="0.87875">
        <ele>172.4</ele>
        <time>2025-05-10T08:26:10Z</time>
      </trkpt>
      <trkpt lat="44.91505" lon="0.87877">
        <ele>172.6</ele>
        <time>2025-05-10T08:26:11Z</time>
      </trkpt>
      <trkpt lat="44.9151" lon="0.8788">
        <ele>172.8</ele>
        <time>2025-05-10T08:26:12Z</time>
      </trkpt>
      <trkpt lat="44.91514" lon="0.87883">
        <ele>173.4</ele>
        <time>2025-05-10T08:26:13Z</time>
      </trkpt>
      <trkpt lat="44.91517" lon="0.87885">
        <ele>173.8</ele>
        <time>2025-05-10T08:26:14Z</time>
      </trkpt>
      <trkpt lat="44.9152" lon="0.87888">
        <ele>174.4</ele>
        <time>2025-05-10T08:26:15Z</time>
      </trkpt>
      <trkpt lat="44.91522" lon="0.8789">
        <ele>175.2</ele>
        <time>2025-05-10T08:26:16Z</time>
      </trkpt>
      <trkpt lat="44.91525" lon="0.87892">
        <ele>175.8</ele>
        <time>2025-05-10T08:26:17Z</time>
      </trkpt>
      <trkpt lat="44.91527" lon="0.87894">
        <ele>176.2</ele>
        <time>2025-05-10T08:26:18Z</time>
      </trkpt>
      <trkpt lat="44.91529" lon="0.87896">
        <ele>177</ele>
        <time>2025-05-10T08:26:19Z</time>
      </trkpt>
      <trkpt lat="44.91531" lon="0.87898">
        <ele>177.2</ele>
        <time>2025-05-10T08:26:20Z</time>
      </trkpt>
      <trkpt lat="44.91533" lon="0.879">
        <ele>177.6</ele>
        <time>2025-05-10T08:26:21Z</time>
      </trkpt>
      <trkpt lat="44.91535" lon="0.87903">
        <ele>178</ele>
        <time>2025-05-10T08:26:22Z</time>
      </trkpt>
      <trkpt lat="44.91537" lon="0.87905">
        <ele>178.2</ele>
        <time>2025-05-10T08:26:23Z</time>
      </trkpt>
      <trkpt lat="44.91538" lon="0.87908">
        <ele>178.4</ele>
        <time>2025-05-10T08:26:24Z</time>
      </trkpt>
      <trkpt lat="44.9154" lon="0.87911">
        <ele>178.6</ele>
        <time>2025-05-10T08:26:25Z</time>
      </trkpt>
      <trkpt lat="44.91541" lon="0.87914">
        <ele>178.6</ele>
        <time>2025-05-10T08:26:26Z</time>
      </trkpt>
      <trkpt lat="44.91542" lon="0.87917">
        <ele>179</ele>
        <time>2025-05-10T08:26:27Z</time>
      </trkpt>
      <trkpt lat="44.91544" lon="0.8792">
        <ele>179.2</ele>
        <time>2025-05-10T08:26:28Z</time>
      </trkpt>
      <trkpt lat="44.91545" lon="0.87922">
        <ele>179.4</ele>
        <time>2025-05-10T08:26:29Z</time>
      </trkpt>
      <trkpt lat="44.91546" lon="0.87924">
        <ele>179.4</ele>
        <time>2025-05-10T08:26:30Z</time>
      </trkpt>
      <trkpt lat="44.91547" lon="0.87927">
        <ele>179.6</ele>
        <time>2025-05-10T08:26:31Z</time>
      </trkpt>
      <trkpt lat="44.91548" lon="0.8793">
        <ele>179.6</ele>
        <time>2025-05-10T08:26:32Z</time>
      </trkpt>
      <trkpt lat="44.91549" lon="0.87934">
        <ele>179.8</ele>
        <time>2025-05-10T08:26:33Z</time>
      </trkpt>
      <trkpt lat="44.9155" lon="0.87937">
        <ele>179.8</ele>
        <time>2025-05-10T08:26:34Z</time>
      </trkpt>
      <trkpt lat="44.91551" lon="0.87941">
        <ele>180</ele>
        <time>2025-05-10T08:26:35Z</time>
      </trkpt>
      <trkpt lat="44.91553" lon="0.87944">
        <ele>180</ele>
        <time>2025-05-10T08:26:36Z</time>
      </trkpt>
      <trkpt lat="44.91554" lon="0.87949">
        <ele>180</ele>
        <time>2025-05-10T08:26:37Z</time>
      </trkpt>
      <trkpt lat="44.91556" lon="0.87954">
        <ele>180</ele>
        <time>2025-05-10T08:26:38Z</time>
      </trkpt>
      <trkpt lat="44.91558" lon="0.87959">
        <ele>180</ele>
        <time>2025-05-10T08:26:39Z</time>
      </trkpt>
      <trkpt lat="44.9156" lon="0.87965">
        <ele>179.8</ele>
        <time>2025-05-10T08:26:40Z</time>
      </trkpt>
      <trkpt lat="44.91563" lon="0.87971">
        <ele>179.4</ele>
        <time>2025-05-10T08:26:41Z</time>
      </trkpt>
      <trkpt lat="44.91566" lon="0.87977">
        <ele>179</ele>
        <time>2025-05-10T08:26:42Z</time>
      </trkpt>
      <trkpt lat="44.9157" lon="0.87984">
        <ele>178.8</ele>
        <time>2025-05-10T08:26:43Z</time>
      </trkpt>
      <trkpt lat="44.91575" lon="0.87989">
        <ele>178.4</ele>
        <time>2025-05-10T08:26:44Z</time>
      </trkpt>
      <trkpt lat="44.91581" lon="0.87997">
        <ele>177.8</ele>
        <time>2025-05-10T08:26:45Z</time>
      </trkpt>
      <trkpt lat="44.91585" lon="0.88006">
        <ele>177</ele>
        <time>2025-05-10T08:26:46Z</time>
      </trkpt>
      <trkpt lat="44.91588" lon="0.88016">
        <ele>176.6</ele>
        <time>2025-05-10T08:26:47Z</time>
      </trkpt>
      <trkpt lat="44.91587" lon="0.88026">
        <ele>175.4</ele>
        <time>2025-05-10T08:26:48Z</time>
      </trkpt>
      <trkpt lat="44.91584" lon="0.88033">
        <ele>174</ele>
        <time>2025-05-10T08:26:49Z</time>
      </trkpt>
      <trkpt lat="44.91578" lon="0.88038">
        <ele>172.8</ele>
        <time>2025-05-10T08:26:50Z</time>
      </trkpt>
      <trkpt lat="44.91572" lon="0.8804">
        <ele>172.6</ele>
        <time>2025-05-10T08:26:51Z</time>
      </trkpt>
      <trkpt lat="44.91567" lon="0.88041">
        <ele>171.8</ele>
        <time>2025-05-10T08:26:52Z</time>
      </trkpt>
      <trkpt lat="44.91561" lon="0.88044">
        <ele>171.6</ele>
        <time>2025-05-10T08:26:53Z</time>
      </trkpt>
      <trkpt lat="44.91554" lon="0.88046">
        <ele>171.4</ele>
        <time>2025-05-10T08:26:54Z</time>
      </trkpt>
      <trkpt lat="44.91549" lon="0.8805">
        <ele>171.4</ele>
        <time>2025-05-10T08:26:55Z</time>
      </trkpt>
      <trkpt lat="44.91544" lon="0.88055">
        <ele>171.2</ele>
        <time>2025-05-10T08:26:56Z</time>
      </trkpt>
      <trkpt lat="44.9154" lon="0.88061">
        <ele>171.2</ele>
        <time>2025-05-10T08:26:57Z</time>
      </trkpt>
      <trkpt lat="44.91536" lon="0.88067">
        <ele>171.2</ele>
        <time>2025-05-10T08:26:58Z</time>
      </trkpt>
      <trkpt lat="44.91532" lon="0.88073">
        <ele>171.2</ele>
        <time>2025-05-10T08:26:59Z</time>
      </trkpt>
      <trkpt lat="44.91528" lon="0.88078">
        <ele>171.2</ele>
        <time>2025-05-10T08:27:00Z</time>
      </trkpt>
      <trkpt lat="44.91524" lon="0.88084">
        <ele>171.2</ele>
        <time>2025-05-10T08:27:01Z</time>
      </trkpt>
      <trkpt lat="44.91521" lon="0.8809">
        <ele>171.2</ele>
        <time>2025-05-10T08:27:02Z</time>
      </trkpt>
      <trkpt lat="44.91518" lon="0.88097">
        <ele>171.4</ele>
        <time>2025-05-10T08:27:03Z</time>
      </trkpt>
      <trkpt lat="44.91516" lon="0.88103">
        <ele>171.4</ele>
        <time>2025-05-10T08:27:04Z</time>
      </trkpt>
      <trkpt lat="44.91514" lon="0.8811">
        <ele>171.6</ele>
        <time>2025-05-10T08:27:05Z</time>
      </trkpt>
      <trkpt lat="44.91513" lon="0.88117">
        <ele>171.6</ele>
        <time>2025-05-10T08:27:06Z</time>
      </trkpt>
      <trkpt lat="44.91513" lon="0.88124">
        <ele>171.8</ele>
        <time>2025-05-10T08:27:07Z</time>
      </trkpt>
      <trkpt lat="44.91514" lon="0.8813">
        <ele>172</ele>
        <time>2025-05-10T08:27:08Z</time>
      </trkpt>
      <trkpt lat="44.91516" lon="0.88135">
        <ele>172.2</ele>
        <time>2025-05-10T08:27:09Z</time>
      </trkpt>
      <trkpt lat="44.91519" lon="0.88139">
        <ele>172.4</ele>
        <time>2025-05-10T08:27:10Z</time>
      </trkpt>
      <trkpt lat="44.91522" lon="0.88143">
        <ele>172.6</ele>
        <time>2025-05-10T08:27:11Z</time>
      </trkpt>
      <trkpt lat="44.91525" lon="0.88146">
        <ele>173</ele>
        <time>2025-05-10T08:27:12Z</time>
      </trkpt>
      <trkpt lat="44.91528" lon="0.88149">
        <ele>173.2</ele>
        <time>2025-05-10T08:27:13Z</time>
      </trkpt>
      <trkpt lat="44.91531" lon="0.88152">
        <ele>173.4</ele>
        <time>2025-05-10T08:27:14Z</time>
      </trkpt>
      <trkpt lat="44.91534" lon="0.88155">
        <ele>173.6</ele>
        <time>2025-05-10T08:27:15Z</time>
      </trkpt>
      <trkpt lat="44.91536" lon="0.88158">
        <ele>174.2</ele>
        <time>2025-05-10T08:27:16Z</time>
      </trkpt>
      <trkpt lat="44.91539" lon="0.88161">
        <ele>174.2</ele>
        <time>2025-05-10T08:27:17Z</time>
      </trkpt>
      <trkpt lat="44.91541" lon="0.88164">
        <ele>174.6</ele>
        <time>2025-05-10T08:27:18Z</time>
      </trkpt>
      <trkpt lat="44.91543" lon="0.88168">
        <ele>174.8</ele>
        <time>2025-05-10T08:27:19Z</time>
      </trkpt>
      <trkpt lat="44.91545" lon="0.88171">
        <ele>175.2</ele>
        <time>2025-05-10T08:27:20Z</time>
      </trkpt>
      <trkpt lat="44.91546" lon="0.88174">
        <ele>175.4</ele>
        <time>2025-05-10T08:27:21Z</time>
      </trkpt>
      <trkpt lat="44.91547" lon="0.88177">
        <ele>175.4</ele>
        <time>2025-05-10T08:27:22Z</time>
      </trkpt>
      <trkpt lat="44.91548" lon="0.88181">
        <ele>175.6</ele>
        <time>2025-05-10T08:27:23Z</time>
      </trkpt>
      <trkpt lat="44.91549" lon="0.88184">
        <ele>175.8</ele>
        <time>2025-05-10T08:27:24Z</time>
      </trkpt>
      <trkpt lat="44.9155" lon="0.88186">
        <ele>176.2</ele>
        <time>2025-05-10T08:27:25Z</time>
      </trkpt>
      <trkpt lat="44.91552" lon="0.88188">
        <ele>176.4</ele>
        <time>2025-05-10T08:27:26Z</time>
      </trkpt>
      <trkpt lat="44.91553" lon="0.88191">
        <ele>176.6</ele>
        <time>2025-05-10T08:27:27Z</time>
      </trkpt>
      <trkpt lat="44.91555" lon="0.88194">
        <ele>177</ele>
        <time>2025-05-10T08:27:28Z</time>
      </trkpt>
      <trkpt lat="44.91556" lon="0.88198">
        <ele>177.4</ele>
        <time>2025-05-10T08:27:29Z</time>
      </trkpt>
      <trkpt lat="44.91558" lon="0.88202">
        <ele>177.6</ele>
        <time>2025-05-10T08:27:30Z</time>
      </trkpt>
      <trkpt lat="44.91559" lon="0.88206">
        <ele>177.6</ele>
        <time>2025-05-10T08:27:31Z</time>
      </trkpt>
      <trkpt lat="44.9156" lon="0.8821">
        <ele>177.8</ele>
        <time>2025-05-10T08:27:32Z</time>
      </trkpt>
      <trkpt lat="44.91562" lon="0.88214">
        <ele>178</ele>
        <time>2025-05-10T08:27:33Z</time>
      </trkpt>
      <trkpt lat="44.91563" lon="0.88217">
        <ele>178</ele>
        <time>2025-05-10T08:27:34Z</time>
      </trkpt>
      <trkpt lat="44.91565" lon="0.88221">
        <ele>178.2</ele>
        <time>2025-05-10T08:27:35Z</time>
      </trkpt>
      <trkpt lat="44.91567" lon="0.88224">
        <ele>178.4</ele>
        <time>2025-05-10T08:27:36Z</time>
      </trkpt>
      <trkpt lat="44.91568" lon="0.88227">
        <ele>178.6</ele>
        <time>2025-05-10T08:27:37Z</time>
      </trkpt>
      <trkpt lat="44.9157" lon="0.88231">
        <ele>178.8</ele>
        <time>2025-05-10T08:27:38Z</time>
      </trkpt>
      <trkpt lat="44.91571" lon="0.88234">
        <ele>178.8</ele>
        <time>2025-05-10T08:27:39Z</time>
      </trkpt>
      <trkpt lat="44.91573" lon="0.88238">
        <ele>178.8</ele>
        <time>2025-05-10T08:27:40Z</time>
      </trkpt>
      <trkpt lat="44.91575" lon="0.88242">
        <ele>179</ele>
        <time>2025-05-10T08:27:41Z</time>
      </trkpt>
      <trkpt lat="44.91576" lon="0.88245">
        <ele>179.2</ele>
        <time>2025-05-10T08:27:42Z</time>
      </trkpt>
      <trkpt lat="44.91577" lon="0.88249">
        <ele>179.4</ele>
        <time>2025-05-10T08:27:43Z</time>
      </trkpt>
      <trkpt lat="44.91579" lon="0.88252">
        <ele>179.6</ele>
        <time>2025-05-10T08:27:44Z</time>
      </trkpt>
      <trkpt lat="44.9158" lon="0.88255">
        <ele>179.8</ele>
        <time>2025-05-10T08:27:45Z</time>
      </trkpt>
      <trkpt lat="44.91581" lon="0.88258">
        <ele>180</ele>
        <time>2025-05-10T08:27:46Z</time>
      </trkpt>
      <trkpt lat="44.91582" lon="0.88262">
        <ele>180.2</ele>
        <time>2025-05-10T08:27:47Z</time>
      </trkpt>
      <trkpt lat="44.91583" lon="0.88266">
        <ele>180.4</ele>
        <time>2025-05-10T08:27:48Z</time>
      </trkpt>
      <trkpt lat="44.91583" lon="0.88269">
        <ele>180.4</ele>
        <time>2025-05-10T08:27:49Z</time>
      </trkpt>
      <trkpt lat="44.91583" lon="0.88273">
        <ele>180.8</ele>
        <time>2025-05-10T08:27:50Z</time>
      </trkpt>
      <trkpt lat="44.91583" lon="0.88276">
        <ele>181</ele>
        <time>2025-05-10T08:27:51Z</time>
      </trkpt>
      <trkpt lat="44.91584" lon="0.8828">
        <ele>181.2</ele>
        <time>2025-05-10T08:27:52Z</time>
      </trkpt>
      <trkpt lat="44.91584" lon="0.88284">
        <ele>181.4</ele>
        <time>2025-05-10T08:27:53Z</time>
      </trkpt>
      <trkpt lat="44.91584" lon="0.88287">
        <ele>181.6</ele>
        <time>2025-05-10T08:27:54Z</time>
      </trkpt>
      <trkpt lat="44.91585" lon="0.88291">
        <ele>181.8</ele>
        <time>2025-05-10T08:27:55Z</time>
      </trkpt>
      <trkpt lat="44.91585" lon="0.88294">
        <ele>182</ele>
        <time>2025-05-10T08:27:56Z</time>
      </trkpt>
      <trkpt lat="44.91585" lon="0.88298">
        <ele>182.2</ele>
        <time>2025-05-10T08:27:57Z</time>
      </trkpt>
      <trkpt lat="44.91585" lon="0.88301">
        <ele>182.6</ele>
        <time>2025-05-10T08:27:58Z</time>
      </trkpt>
      <trkpt lat="44.91586" lon="0.88304">
        <ele>182.8</ele>
        <time>2025-05-10T08:27:59Z</time>
      </trkpt>
      <trkpt lat="44.91586" lon="0.88307">
        <ele>183</ele>
        <time>2025-05-10T08:28:00Z</time>
      </trkpt>
      <trkpt lat="44.91586" lon="0.88311">
        <ele>183</ele>
        <time>2025-05-10T08:28:01Z</time>
      </trkpt>
      <trkpt lat="44.91586" lon="0.88314">
        <ele>183.2</ele>
        <time>2025-05-10T08:28:02Z</time>
      </trkpt>
      <trkpt lat="44.91586" lon="0.88317">
        <ele>183.6</ele>
        <time>2025-05-10T08:28:03Z</time>
      </trkpt>
      <trkpt lat="44.91586" lon="0.8832">
        <ele>183.6</ele>
        <time>2025-05-10T08:28:04Z</time>
      </trkpt>
      <trkpt lat="44.91586" lon="0.88323">
        <ele>183.8</ele>
        <time>2025-05-10T08:28:05Z</time>
      </trkpt>
      <trkpt lat="44.91585" lon="0.88326">
        <ele>184.2</ele>
        <time>2025-05-10T08:28:06Z</time>
      </trkpt>
      <trkpt lat="44.91585" lon="0.8833">
        <ele>184.4</ele>
        <time>2025-05-10T08:28:07Z</time>
      </trkpt>
      <trkpt lat="44.91585" lon="0.88333">
        <ele>184.6</ele>
        <time>2025-05-10T08:28:08Z</time>
      </trkpt>
      <trkpt lat="44.91584" lon="0.88336">
        <ele>184.8</ele>
        <time>2025-05-10T08:28:09Z</time>
      </trkpt>
      <trkpt lat="44.91583" lon="0.88339">
        <ele>185</ele>
        <time>2025-05-10T08:28:10Z</time>
      </trkpt>
      <trkpt lat="44.91582" lon="0.88342">
        <ele>185.4</ele>
        <time>2025-05-10T08:28:11Z</time>
      </trkpt>
      <trkpt lat="44.91581" lon="0.88345">
        <ele>185.6</ele>
        <time>2025-05-10T08:28:12Z</time>
      </trkpt>
      <trkpt lat="44.9158" lon="0.88347">
        <ele>185.6</ele>
        <time>2025-05-10T08:28:13Z</time>
      </trkpt>
      <trkpt lat="44.91579" lon="0.8835">
        <ele>185.8</ele>
        <time>2025-05-10T08:28:14Z</time>
      </trkpt>
      <trkpt lat="44.91578" lon="0.88352">
        <ele>186.2</ele>
        <time>2025-05-10T08:28:15Z</time>
      </trkpt>
      <trkpt lat="44.91577" lon="0.88354">
        <ele>186.4</ele>
        <time>2025-05-10T08:28:16Z</time>
      </trkpt>
      <trkpt lat="44.91575" lon="0.88356">
        <ele>186.6</ele>
        <time>2025-05-10T08:28:17Z</time>
      </trkpt>
      <trkpt lat="44.91573" lon="0.88358">
        <ele>186.8</ele>
        <time>2025-05-10T08:28:18Z</time>
      </trkpt>
      <trkpt lat="44.91572" lon="0.88361">
        <ele>187</ele>
        <time>2025-05-10T08:28:19Z</time>
      </trkpt>
      <trkpt lat="44.9157" lon="0.88363">
        <ele>187.2</ele>
        <time>2025-05-10T08:28:20Z</time>
      </trkpt>
      <trkpt lat="44.91569" lon="0.88365">
        <ele>187.4</ele>
        <time>2025-05-10T08:28:21Z</time>
      </trkpt>
      <trkpt lat="44.91567" lon="0.88367">
        <ele>187.6</ele>
        <time>2025-05-10T08:28:22Z</time>
      </trkpt>
      <trkpt lat="44.91566" lon="0.88369">
        <ele>187.8</ele>
        <time>2025-05-10T08:28:23Z</time>
      </trkpt>
      <trkpt lat="44.91564" lon="0.8837">
        <ele>187.8</ele>
        <time>2025-05-10T08:28:24Z</time>
      </trkpt>
      <trkpt lat="44.91563" lon="0.88372">
        <ele>188</ele>
        <time>2025-05-10T08:28:25Z</time>
      </trkpt>
      <trkpt lat="44.91561" lon="0.88374">
        <ele>188.2</ele>
        <time>2025-05-10T08:28:26Z</time>
      </trkpt>
      <trkpt lat="44.91559" lon="0.88375">
        <ele>188.4</ele>
        <time>2025-05-10T08:28:27Z</time>
      </trkpt>
      <trkpt lat="44.91558" lon="0.88376">
        <ele>188.8</ele>
        <time>2025-05-10T08:28:28Z</time>
      </trkpt>
      <trkpt lat="44.91556" lon="0.88378">
        <ele>189</ele>
        <time>2025-05-10T08:28:29Z</time>
      </trkpt>
      <trkpt lat="44.91555" lon="0.88379">
        <ele>189.4</ele>
        <time>2025-05-10T08:28:30Z</time>
      </trkpt>
      <trkpt lat="44.91553" lon="0.88381">
        <ele>189.4</ele>
        <time>2025-05-10T08:28:31Z</time>
      </trkpt>
      <trkpt lat="44.91551" lon="0.88382">
        <ele>189.8</ele>
        <time>2025-05-10T08:28:32Z</time>
      </trkpt>
      <trkpt lat="44.9155" lon="0.88385">
        <ele>189.8</ele>
        <time>2025-05-10T08:28:33Z</time>
      </trkpt>
      <trkpt lat="44.91548" lon="0.88386">
        <ele>190.2</ele>
        <time>2025-05-10T08:28:34Z</time>
      </trkpt>
      <trkpt lat="44.91546" lon="0.88389">
        <ele>190.2</ele>
        <time>2025-05-10T08:28:35Z</time>
      </trkpt>
      <trkpt lat="44.91544" lon="0.88391">
        <ele>190.4</ele>
        <time>2025-05-10T08:28:36Z</time>
      </trkpt>
      <trkpt lat="44.91543" lon="0.88393">
        <ele>190.6</ele>
        <time>2025-05-10T08:28:37Z</time>
      </trkpt>
      <trkpt lat="44.91541" lon="0.88395">
        <ele>190.6</ele>
        <time>2025-05-10T08:28:38Z</time>
      </trkpt>
      <trkpt lat="44.91539" lon="0.88396">
        <ele>190.8</ele>
        <time>2025-05-10T08:28:39Z</time>
      </trkpt>
      <trkpt lat="44.91538" lon="0.88397">
        <ele>190.8</ele>
        <time>2025-05-10T08:28:40Z</time>
      </trkpt>
      <trkpt lat="44.91536" lon="0.88398">
        <ele>191</ele>
        <time>2025-05-10T08:28:41Z</time>
      </trkpt>
      <trkpt lat="44.91535" lon="0.88399">
        <ele>191.2</ele>
        <time>2025-05-10T08:28:42Z</time>
      </trkpt>
      <trkpt lat="44.91533" lon="0.884">
        <ele>191.6</ele>
        <time>2025-05-10T08:28:43Z</time>
      </trkpt>
      <trkpt lat="44.91531" lon="0.88401">
        <ele>191.6</ele>
        <time>2025-05-10T08:28:44Z</time>
      </trkpt>
      <trkpt lat="44.9153" lon="0.88402">
        <ele>192</ele>
        <time>2025-05-10T08:28:45Z</time>
      </trkpt>
      <trkpt lat="44.91529" lon="0.88403">
        <ele>192.2</ele>
        <time>2025-05-10T08:28:46Z</time>
      </trkpt>
      <trkpt lat="44.91528" lon="0.88405">
        <ele>192.4</ele>
        <time>2025-05-10T08:28:47Z</time>
      </trkpt>
      <trkpt lat="44.91526" lon="0.88406">
        <ele>192.6</ele>
        <time>2025-05-10T08:28:48Z</time>
      </trkpt>
      <trkpt lat="44.91525" lon="0.88408">
        <ele>193</ele>
        <time>2025-05-10T08:28:49Z</time>
      </trkpt>
      <trkpt lat="44.91523" lon="0.8841">
        <ele>193.2</ele>
        <time>2025-05-10T08:28:50Z</time>
      </trkpt>
      <trkpt lat="44.91522" lon="0.88411">
        <ele>193.4</ele>
        <time>2025-05-10T08:28:51Z</time>
      </trkpt>
      <trkpt lat="44.9152" lon="0.88412">
        <ele>193.6</ele>
        <time>2025-05-10T08:28:52Z</time>
      </trkpt>
      <trkpt lat="44.91519" lon="0.88414">
        <ele>193.8</ele>
        <time>2025-05-10T08:28:53Z</time>
      </trkpt>
      <trkpt lat="44.91517" lon="0.88415">
        <ele>194.2</ele>
        <time>2025-05-10T08:28:54Z</time>
      </trkpt>
      <trkpt lat="44.91516" lon="0.88417">
        <ele>194.4</ele>
        <time>2025-05-10T08:28:55Z</time>
      </trkpt>
      <trkpt lat="44.91514" lon="0.88419">
        <ele>194.6</ele>
        <time>2025-05-10T08:28:56Z</time>
      </trkpt>
      <trkpt lat="44.91513" lon="0.88421">
        <ele>194.6</ele>
        <time>2025-05-10T08:28:57Z</time>
      </trkpt>
      <trkpt lat="44.91512" lon="0.88423">
        <ele>194.8</ele>
        <time>2025-05-10T08:28:58Z</time>
      </trkpt>
      <trkpt lat="44.9151" lon="0.88424">
        <ele>195</ele>
        <time>2025-05-10T08:28:59Z</time>
      </trkpt>
      <trkpt lat="44.91509" lon="0.88426">
        <ele>195.2</ele>
        <time>2025-05-10T08:29:00Z</time>
      </trkpt>
      <trkpt lat="44.91507" lon="0.88428">
        <ele>195.4</ele>
        <time>2025-05-10T08:29:01Z</time>
      </trkpt>
      <trkpt lat="44.91506" lon="0.88429">
        <ele>195.4</ele>
        <time>2025-05-10T08:29:02Z</time>
      </trkpt>
      <trkpt lat="44.91504" lon="0.88431">
        <ele>195.6</ele>
        <time>2025-05-10T08:29:03Z</time>
      </trkpt>
      <trkpt lat="44.91502" lon="0.88432">
        <ele>195.8</ele>
        <time>2025-05-10T08:29:04Z</time>
      </trkpt>
      <trkpt lat="44.915" lon="0.88434">
        <ele>196.2</ele>
        <time>2025-05-10T08:29:05Z</time>
      </trkpt>
      <trkpt lat="44.91498" lon="0.88436">
        <ele>196.2</ele>
        <time>2025-05-10T08:29:06Z</time>
      </trkpt>
      <trkpt lat="44.91496" lon="0.88437">
        <ele>196.4</ele>
        <time>2025-05-10T08:29:07Z</time>
      </trkpt>
      <trkpt lat="44.91495" lon="0.88439">
        <ele>196.4</ele>
        <time>2025-05-10T08:29:08Z</time>
      </trkpt>
      <trkpt lat="44.91493" lon="0.88441">
        <ele>196.6</ele>
        <time>2025-05-10T08:29:09Z</time>
      </trkpt>
      <trkpt lat="44.91491" lon="0.88443">
        <ele>196.8</ele>
        <time>2025-05-10T08:29:10Z</time>
      </trkpt>
      <trkpt lat="44.91489" lon="0.88445">
        <ele>196.8</ele>
        <time>2025-05-10T08:29:11Z</time>
      </trkpt>
      <trkpt lat="44.91487" lon="0.88446">
        <ele>197</ele>
        <time>2025-05-10T08:29:12Z</time>
      </trkpt>
      <trkpt lat="44.91485" lon="0.88448">
        <ele>197.2</ele>
        <time>2025-05-10T08:29:13Z</time>
      </trkpt>
      <trkpt lat="44.91483" lon="0.8845">
        <ele>197.2</ele>
        <time>2025-05-10T08:29:14Z</time>
      </trkpt>
      <trkpt lat="44.91481" lon="0.88452">
        <ele>197.4</ele>
        <time>2025-05-10T08:29:15Z</time>
      </trkpt>
      <trkpt lat="44.91479" lon="0.88455">
        <ele>197.6</ele>
        <time>2025-05-10T08:29:16Z</time>
      </trkpt>
      <trkpt lat="44.91476" lon="0.88458">
        <ele>197.6</ele>
        <time>2025-05-10T08:29:17Z</time>
      </trkpt>
      <trkpt lat="44.91473" lon="0.88461">
        <ele>197.6</ele>
        <time>2025-05-10T08:29:18Z</time>
      </trkpt>
      <trkpt lat="44.9147" lon="0.88464">
        <ele>197.6</ele>
        <time>2025-05-10T08:29:19Z</time>
      </trkpt>
      <trkpt lat="44.91466" lon="0.88468">
        <ele>197.4</ele>
        <time>2025-05-10T08:29:20Z</time>
      </trkpt>
      <trkpt lat="44.91463" lon="0.88471">
        <ele>197.2</ele>
        <time>2025-05-10T08:29:21Z</time>
      </trkpt>
      <trkpt lat="44.9146" lon="0.88474">
        <ele>197</ele>
        <time>2025-05-10T08:29:22Z</time>
      </trkpt>
      <trkpt lat="44.91456" lon="0.88477">
        <ele>196.8</ele>
        <time>2025-05-10T08:29:23Z</time>
      </trkpt>
      <trkpt lat="44.91452" lon="0.8848">
        <ele>196.6</ele>
        <time>2025-05-10T08:29:24Z</time>
      </trkpt>
      <trkpt lat="44.91448" lon="0.88484">
        <ele>196.6</ele>
        <time>2025-05-10T08:29:25Z</time>
      </trkpt>
      <trkpt lat="44.91443" lon="0.88488">
        <ele>196.6</ele>
        <time>2025-05-10T08:29:26Z</time>
      </trkpt>
      <trkpt lat="44.91439" lon="0.88493">
        <ele>196</ele>
        <time>2025-05-10T08:29:27Z</time>
      </trkpt>
      <trkpt lat="44.91434" lon="0.88499">
        <ele>195.2</ele>
        <time>2025-05-10T08:29:28Z</time>
      </trkpt>
      <trkpt lat="44.9143" lon="0.88504">
        <ele>194.6</ele>
        <time>2025-05-10T08:29:29Z</time>
      </trkpt>
      <trkpt lat="44.91425" lon="0.88509">
        <ele>194.4</ele>
        <time>2025-05-10T08:29:30Z</time>
      </trkpt>
      <trkpt lat="44.91422" lon="0.88514">
        <ele>194.2</ele>
        <time>2025-05-10T08:29:31Z</time>
      </trkpt>
      <trkpt lat="44.91419" lon="0.8852">
        <ele>194.2</ele>
        <time>2025-05-10T08:29:32Z</time>
      </trkpt>
      <trkpt lat="44.91416" lon="0.88526">
        <ele>194.2</ele>
        <time>2025-05-10T08:29:33Z</time>
      </trkpt>
      <trkpt lat="44.91413" lon="0.88532">
        <ele>194.2</ele>
        <time>2025-05-10T08:29:34Z</time>
      </trkpt>
      <trkpt lat="44.91409" lon="0.88537">
        <ele>194.2</ele>
        <time>2025-05-10T08:29:35Z</time>
      </trkpt>
      <trkpt lat="44.91406" lon="0.88542">
        <ele>194.2</ele>
        <time>2025-05-10T08:29:36Z</time>
      </trkpt>
      <trkpt lat="44.91403" lon="0.88547">
        <ele>194.2</ele>
        <time>2025-05-10T08:29:37Z</time>
      </trkpt>
      <trkpt lat="44.914" lon="0.88552">
        <ele>194.4</ele>
        <time>2025-05-10T08:29:38Z</time>
      </trkpt>
      <trkpt lat="44.91397" lon="0.88558">
        <ele>194.4</ele>
        <time>2025-05-10T08:29:39Z</time>
      </trkpt>
      <trkpt lat="44.91395" lon="0.88563">
        <ele>194.4</ele>
        <time>2025-05-10T08:29:40Z</time>
      </trkpt>
      <trkpt lat="44.91392" lon="0.88569">
        <ele>194.4</ele>
        <time>2025-05-10T08:29:41Z</time>
      </trkpt>
      <trkpt lat="44.9139" lon="0.88575">
        <ele>194.4</ele>
        <time>2025-05-10T08:29:42Z</time>
      </trkpt>
      <trkpt lat="44.91387" lon="0.88581">
        <ele>194.4</ele>
        <time>2025-05-10T08:29:43Z</time>
      </trkpt>
      <trkpt lat="44.91383" lon="0.88587">
        <ele>194.4</ele>
        <time>2025-05-10T08:29:44Z</time>
      </trkpt>
      <trkpt lat="44.91379" lon="0.88592">
        <ele>194.4</ele>
        <time>2025-05-10T08:29:45Z</time>
      </trkpt>
      <trkpt lat="44.91375" lon="0.88598">
        <ele>194.2</ele>
        <time>2025-05-10T08:29:46Z</time>
      </trkpt>
      <trkpt lat="44.91371" lon="0.88603">
        <ele>194.2</ele>
        <time>2025-05-10T08:29:47Z</time>
      </trkpt>
      <trkpt lat="44.91367" lon="0.88608">
        <ele>194</ele>
        <time>2025-05-10T08:29:48Z</time>
      </trkpt>
      <trkpt lat="44.91363" lon="0.88614">
        <ele>193.6</ele>
        <time>2025-05-10T08:29:49Z</time>
      </trkpt>
      <trkpt lat="44.91362" lon="0.8862">
        <ele>193.2</ele>
        <time>2025-05-10T08:29:50Z</time>
      </trkpt>
      <trkpt lat="44.91363" lon="0.88627">
        <ele>192.6</ele>
        <time>2025-05-10T08:29:51Z</time>
      </trkpt>
      <trkpt lat="44.91366" lon="0.88631">
        <ele>192.4</ele>
        <time>2025-05-10T08:29:52Z</time>
      </trkpt>
      <trkpt lat="44.91369" lon="0.88635">
        <ele>192.2</ele>
        <time>2025-05-10T08:29:53Z</time>
      </trkpt>
      <trkpt lat="44.91373" lon="0.88639">
        <ele>192</ele>
        <time>2025-05-10T08:29:54Z</time>
      </trkpt>
      <trkpt lat="44.91377" lon="0.88643">
        <ele>191.8</ele>
        <time>2025-05-10T08:29:55Z</time>
      </trkpt>
      <trkpt lat="44.91382" lon="0.88648">
        <ele>191.6</ele>
        <time>2025-05-10T08:29:56Z</time>
      </trkpt>
      <trkpt lat="44.91387" lon="0.88654">
        <ele>191.2</ele>
        <time>2025-05-10T08:29:57Z</time>
      </trkpt>
      <trkpt lat="44.91393" lon="0.8866">
        <ele>190.6</ele>
        <time>2025-05-10T08:29:58Z</time>
      </trkpt>
      <trkpt lat="44.91399" lon="0.88667">
        <ele>189.6</ele>
        <time>2025-05-10T08:29:59Z</time>
      </trkpt>
      <trkpt lat="44.91406" lon="0.88675">
        <ele>189</ele>
        <time>2025-05-10T08:30:00Z</time>
      </trkpt>
      <trkpt lat="44.91412" lon="0.88683">
        <ele>187.6</ele>
        <time>2025-05-10T08:30:01Z</time>
      </trkpt>
      <trkpt lat="44.91419" lon="0.88692">
        <ele>186.8</ele>
        <time>2025-05-10T08:30:02Z</time>
      </trkpt>
      <trkpt lat="44.91427" lon="0.88701">
        <ele>185.2</ele>
        <time>2025-05-10T08:30:03Z</time>
      </trkpt>
      <trkpt lat="44.91434" lon="0.88709">
        <ele>184.4</ele>
        <time>2025-05-10T08:30:04Z</time>
      </trkpt>
      <trkpt lat="44.91441" lon="0.88717">
        <ele>182.6</ele>
        <time>2025-05-10T08:30:05Z</time>
      </trkpt>
      <trkpt lat="44.91448" lon="0.88725">
        <ele>181.6</ele>
        <time>2025-05-10T08:30:06Z</time>
      </trkpt>
      <trkpt lat="44.91455" lon="0.88733">
        <ele>179.6</ele>
        <time>2025-05-10T08:30:07Z</time>
      </trkpt>
      <trkpt lat="44.91461" lon="0.88741">
        <ele>178.6</ele>
        <time>2025-05-10T08:30:08Z</time>
      </trkpt>
      <trkpt lat="44.91466" lon="0.88748">
        <ele>177.2</ele>
        <time>2025-05-10T08:30:09Z</time>
      </trkpt>
      <trkpt lat="44.9147" lon="0.88753">
        <ele>177</ele>
        <time>2025-05-10T08:30:10Z</time>
      </trkpt>
      <trkpt lat="44.91475" lon="0.88755">
        <ele>175.8</ele>
        <time>2025-05-10T08:30:11Z</time>
      </trkpt>
      <trkpt lat="44.9148" lon="0.88754">
        <ele>175.6</ele>
        <time>2025-05-10T08:30:12Z</time>
      </trkpt>
      <trkpt lat="44.91483" lon="0.88749">
        <ele>175.4</ele>
        <time>2025-05-10T08:30:13Z</time>
      </trkpt>
      <trkpt lat="44.91486" lon="0.88743">
        <ele>175</ele>
        <time>2025-05-10T08:30:14Z</time>
      </trkpt>
      <trkpt lat="44.91489" lon="0.88738">
        <ele>174.8</ele>
        <time>2025-05-10T08:30:15Z</time>
      </trkpt>
      <trkpt lat="44.91492" lon="0.88735">
        <ele>174.8</ele>
        <time>2025-05-10T08:30:16Z</time>
      </trkpt>
      <trkpt lat="44.91496" lon="0.88733">
        <ele>174.2</ele>
        <time>2025-05-10T08:30:17Z</time>
      </trkpt>
      <trkpt lat="44.915" lon="0.88733">
        <ele>173.6</ele>
        <time>2025-05-10T08:30:18Z</time>
      </trkpt>
      <trkpt lat="44.91504" lon="0.88735">
        <ele>173.2</ele>
        <time>2025-05-10T08:30:19Z</time>
      </trkpt>
      <trkpt lat="44.91508" lon="0.8874">
        <ele>172.2</ele>
        <time>2025-05-10T08:30:20Z</time>
      </trkpt>
      <trkpt lat="44.91511" lon="0.88746">
        <ele>171.2</ele>
        <time>2025-05-10T08:30:21Z</time>
      </trkpt>
      <trkpt lat="44.91515" lon="0.88751">
        <ele>170.4</ele>
        <time>2025-05-10T08:30:22Z</time>
      </trkpt>
      <trkpt lat="44.9152" lon="0.88756">
        <ele>169.8</ele>
        <time>2025-05-10T08:30:23Z</time>
      </trkpt>
      <trkpt lat="44.91525" lon="0.88762">
        <ele>169</ele>
        <time>2025-05-10T08:30:24Z</time>
      </trkpt>
      <trkpt lat="44.91531" lon="0.88769">
        <ele>167.6</ele>
        <time>2025-05-10T08:30:25Z</time>
      </trkpt>
      <trkpt lat="44.91537" lon="0.88776">
        <ele>167.2</ele>
        <time>2025-05-10T08:30:26Z</time>
      </trkpt>
      <trkpt lat="44.91543" lon="0.88784">
        <ele>166.4</ele>
        <time>2025-05-10T08:30:27Z</time>
      </trkpt>
      <trkpt lat="44.91549" lon="0.8879">
        <ele>164.8</ele>
        <time>2025-05-10T08:30:28Z</time>
      </trkpt>
      <trkpt lat="44.91554" lon="0.88797">
        <ele>163.8</ele>
        <time>2025-05-10T08:30:29Z</time>
      </trkpt>
      <trkpt lat="44.91559" lon="0.88801">
        <ele>163</ele>
        <time>2025-05-10T08:30:30Z</time>
      </trkpt>
      <trkpt lat="44.91563" lon="0.88805">
        <ele>162.8</ele>
        <time>2025-05-10T08:30:31Z</time>
      </trkpt>
      <trkpt lat="44.91567" lon="0.88805">
        <ele>162</ele>
        <time>2025-05-10T08:30:32Z</time>
      </trkpt>
      <trkpt lat="44.91571" lon="0.88803">
        <ele>161.8</ele>
        <time>2025-05-10T08:30:33Z</time>
      </trkpt>
      <trkpt lat="44.91574" lon="0.88798">
        <ele>161.2</ele>
        <time>2025-05-10T08:30:34Z</time>
      </trkpt>
      <trkpt lat="44.91577" lon="0.88793">
        <ele>160.8</ele>
        <time>2025-05-10T08:30:35Z</time>
      </trkpt>
      <trkpt lat="44.9158" lon="0.88789">
        <ele>160.8</ele>
        <time>2025-05-10T08:30:36Z</time>
      </trkpt>
      <trkpt lat="44.91584" lon="0.88784">
        <ele>160.6</ele>
        <time>2025-05-10T08:30:37Z</time>
      </trkpt>
      <trkpt lat="44.91588" lon="0.88779">
        <ele>160.2</ele>
        <time>2025-05-10T08:30:38Z</time>
      </trkpt>
      <trkpt lat="44.91592" lon="0.88773">
        <ele>159.8</ele>
        <time>2025-05-10T08:30:39Z</time>
      </trkpt>
      <trkpt lat="44.91597" lon="0.88767">
        <ele>159.4</ele>
        <time>2025-05-10T08:30:40Z</time>
      </trkpt>
      <trkpt lat="44.91603" lon="0.88763">
        <ele>159.2</ele>
        <time>2025-05-10T08:30:41Z</time>
      </trkpt>
      <trkpt lat="44.9161" lon="0.8876">
        <ele>158.6</ele>
        <time>2025-05-10T08:30:42Z</time>
      </trkpt>
      <trkpt lat="44.91616" lon="0.88757">
        <ele>158.2</ele>
        <time>2025-05-10T08:30:43Z</time>
      </trkpt>
      <trkpt lat="44.91623" lon="0.88756">
        <ele>157.6</ele>
        <time>2025-05-10T08:30:44Z</time>
      </trkpt>
      <trkpt lat="44.91629" lon="0.88755">
        <ele>157</ele>
        <time>2025-05-10T08:30:45Z</time>
      </trkpt>
      <trkpt lat="44.91635" lon="0.88755">
        <ele>156.6</ele>
        <time>2025-05-10T08:30:46Z</time>
      </trkpt>
      <trkpt lat="44.9164" lon="0.88756">
        <ele>156.2</ele>
        <time>2025-05-10T08:30:47Z</time>
      </trkpt>
      <trkpt lat="44.91645" lon="0.88757">
        <ele>156.2</ele>
        <time>2025-05-10T08:30:48Z</time>
      </trkpt>
      <trkpt lat="44.91651" lon="0.88758">
        <ele>156.2</ele>
        <time>2025-05-10T08:30:49Z</time>
      </trkpt>
      <trkpt lat="44.91655" lon="0.88762">
        <ele>156.2</ele>
        <time>2025-05-10T08:30:50Z</time>
      </trkpt>
      <trkpt lat="44.91657" lon="0.88766">
        <ele>156.4</ele>
        <time>2025-05-10T08:30:51Z</time>
      </trkpt>
      <trkpt lat="44.91659" lon="0.88771">
        <ele>156.6</ele>
        <time>2025-05-10T08:30:52Z</time>
      </trkpt>
      <trkpt lat="44.91663" lon="0.88775">
        <ele>156.8</ele>
        <time>2025-05-10T08:30:53Z</time>
      </trkpt>
      <trkpt lat="44.91666" lon="0.88779">
        <ele>157</ele>
        <time>2025-05-10T08:30:54Z</time>
      </trkpt>
      <trkpt lat="44.9167" lon="0.88782">
        <ele>157</ele>
        <time>2025-05-10T08:30:55Z</time>
      </trkpt>
      <trkpt lat="44.91674" lon="0.88785">
        <ele>157</ele>
        <time>2025-05-10T08:30:56Z</time>
      </trkpt>
      <trkpt lat="44.91678" lon="0.88787">
        <ele>157</ele>
        <time>2025-05-10T08:30:57Z</time>
      </trkpt>
      <trkpt lat="44.91683" lon="0.88787">
        <ele>156.8</ele>
        <time>2025-05-10T08:30:58Z</time>
      </trkpt>
      <trkpt lat="44.91687" lon="0.88787">
        <ele>156.6</ele>
        <time>2025-05-10T08:30:59Z</time>
      </trkpt>
      <trkpt lat="44.91692" lon="0.88786">
        <ele>156.2</ele>
        <time>2025-05-10T08:31:00Z</time>
      </trkpt>
      <trkpt lat="44.91696" lon="0.88785">
        <ele>156.2</ele>
        <time>2025-05-10T08:31:01Z</time>
      </trkpt>
      <trkpt lat="44.91701" lon="0.88784">
        <ele>156.2</ele>
        <time>2025-05-10T08:31:02Z</time>
      </trkpt>
      <trkpt lat="44.91707" lon="0.88783">
        <ele>156</ele>
        <time>2025-05-10T08:31:03Z</time>
      </trkpt>
      <trkpt lat="44.91712" lon="0.88783">
        <ele>156</ele>
        <time>2025-05-10T08:31:04Z</time>
      </trkpt>
      <trkpt lat="44.91718" lon="0.88782">
        <ele>155.8</ele>
        <time>2025-05-10T08:31:05Z</time>
      </trkpt>
      <trkpt lat="44.91723" lon="0.88781">
        <ele>155.8</ele>
        <time>2025-05-10T08:31:06Z</time>
      </trkpt>
      <trkpt lat="44.91729" lon="0.88779">
        <ele>155.4</ele>
        <time>2025-05-10T08:31:07Z</time>
      </trkpt>
      <trkpt lat="44.91735" lon="0.88778">
        <ele>155</ele>
        <time>2025-05-10T08:31:08Z</time>
      </trkpt>
      <trkpt lat="44.91741" lon="0.88777">
        <ele>154.6</ele>
        <time>2025-05-10T08:31:09Z</time>
      </trkpt>
      <trkpt lat="44.91747" lon="0.88776">
        <ele>154</ele>
        <time>2025-05-10T08:31:10Z</time>
      </trkpt>
      <trkpt lat="44.91753" lon="0.88773">
        <ele>153.6</ele>
        <time>2025-05-10T08:31:11Z</time>
      </trkpt>
      <trkpt lat="44.9176" lon="0.88771">
        <ele>153.4</ele>
        <time>2025-05-10T08:31:12Z</time>
      </trkpt>
      <trkpt lat="44.91768" lon="0.88768">
        <ele>152.6</ele>
        <time>2025-05-10T08:31:13Z</time>
      </trkpt>
      <trkpt lat="44.91776" lon="0.88766">
        <ele>151.8</ele>
        <time>2025-05-10T08:31:14Z</time>
      </trkpt>
      <trkpt lat="44.91783" lon="0.88763">
        <ele>150.6</ele>
        <time>2025-05-10T08:31:15Z</time>
      </trkpt>
      <trkpt lat="44.91791" lon="0.88759">
        <ele>149.8</ele>
        <time>2025-05-10T08:31:16Z</time>
      </trkpt>
      <trkpt lat="44.91799" lon="0.88754">
        <ele>148.8</ele>
        <time>2025-05-10T08:31:17Z</time>
      </trkpt>
      <trkpt lat="44.91807" lon="0.88747">
        <ele>147.6</ele>
        <time>2025-05-10T08:31:18Z</time>
      </trkpt>
      <trkpt lat="44.91815" lon="0.8874">
        <ele>145.4</ele>
        <time>2025-05-10T08:31:19Z</time>
      </trkpt>
      <trkpt lat="44.91824" lon="0.88733">
        <ele>144</ele>
        <time>2025-05-10T08:31:20Z</time>
      </trkpt>
      <trkpt lat="44.91832" lon="0.88728">
        <ele>143</ele>
        <time>2025-05-10T08:31:21Z</time>
      </trkpt>
      <trkpt lat="44.91841" lon="0.88722">
        <ele>141.8</ele>
        <time>2025-05-10T08:31:22Z</time>
      </trkpt>
      <trkpt lat="44.91849" lon="0.88714">
        <ele>140</ele>
        <time>2025-05-10T08:31:23Z</time>
      </trkpt>
      <trkpt lat="44.91857" lon="0.88707">
        <ele>138.6</ele>
        <time>2025-05-10T08:31:24Z</time>
      </trkpt>
      <trkpt lat="44.91864" lon="0.88702">
        <ele>138.4</ele>
        <time>2025-05-10T08:31:25Z</time>
      </trkpt>
      <trkpt lat="44.91871" lon="0.88697">
        <ele>138</ele>
        <time>2025-05-10T08:31:26Z</time>
      </trkpt>
      <trkpt lat="44.91878" lon="0.88692">
        <ele>137.2</ele>
        <time>2025-05-10T08:31:27Z</time>
      </trkpt>
      <trkpt lat="44.91885" lon="0.88686">
        <ele>136.8</ele>
        <time>2025-05-10T08:31:28Z</time>
      </trkpt>
      <trkpt lat="44.91892" lon="0.88679">
        <ele>136.4</ele>
        <time>2025-05-10T08:31:29Z</time>
      </trkpt>
      <trkpt lat="44.91898" lon="0.88674">
        <ele>135.6</ele>
        <time>2025-05-10T08:31:30Z</time>
      </trkpt>
      <trkpt lat="44.91905" lon="0.88669">
        <ele>134.4</ele>
        <time>2025-05-10T08:31:31Z</time>
      </trkpt>
      <trkpt lat="44.91912" lon="0.88665">
        <ele>133.4</ele>
        <time>2025-05-10T08:31:32Z</time>
      </trkpt>
      <trkpt lat="44.91919" lon="0.8866">
        <ele>132.2</ele>
        <time>2025-05-10T08:31:33Z</time>
      </trkpt>
      <trkpt lat="44.91926" lon="0.88653">
        <ele>131.4</ele>
        <time>2025-05-10T08:31:34Z</time>
      </trkpt>
      <trkpt lat="44.91933" lon="0.88647">
        <ele>129.8</ele>
        <time>2025-05-10T08:31:35Z</time>
      </trkpt>
      <trkpt lat="44.91939" lon="0.88638">
        <ele>128</ele>
        <time>2025-05-10T08:31:36Z</time>
      </trkpt>
      <trkpt lat="44.91945" lon="0.88629">
        <ele>126.6</ele>
        <time>2025-05-10T08:31:37Z</time>
      </trkpt>
      <trkpt lat="44.9195" lon="0.8862">
        <ele>125.4</ele>
        <time>2025-05-10T08:31:38Z</time>
      </trkpt>
      <trkpt lat="44.91955" lon="0.88611">
        <ele>123.6</ele>
        <time>2025-05-10T08:31:39Z</time>
      </trkpt>
      <trkpt lat="44.91958" lon="0.88602">
        <ele>122.6</ele>
        <time>2025-05-10T08:31:40Z</time>
      </trkpt>
      <trkpt lat="44.91963" lon="0.88593">
        <ele>120.8</ele>
        <time>2025-05-10T08:31:41Z</time>
      </trkpt>
      <trkpt lat="44.91967" lon="0.88585">
        <ele>120</ele>
        <time>2025-05-10T08:31:42Z</time>
      </trkpt>
      <trkpt lat="44.91972" lon="0.88578">
        <ele>119.2</ele>
        <time>2025-05-10T08:31:43Z</time>
      </trkpt>
      <trkpt lat="44.91979" lon="0.88571">
        <ele>118.4</ele>
        <time>2025-05-10T08:31:44Z</time>
      </trkpt>
      <trkpt lat="44.91986" lon="0.88566">
        <ele>116.6</ele>
        <time>2025-05-10T08:31:45Z</time>
      </trkpt>
      <trkpt lat="44.91993" lon="0.88561">
        <ele>115</ele>
        <time>2025-05-10T08:31:46Z</time>
      </trkpt>
      <trkpt lat="44.92" lon="0.88555">
        <ele>114.2</ele>
        <time>2025-05-10T08:31:47Z</time>
      </trkpt>
      <trkpt lat="44.92007" lon="0.8855">
        <ele>113.6</ele>
        <time>2025-05-10T08:31:48Z</time>
      </trkpt>
      <trkpt lat="44.92013" lon="0.88545">
        <ele>112.8</ele>
        <time>2025-05-10T08:31:49Z</time>
      </trkpt>
      <trkpt lat="44.9202" lon="0.88541">
        <ele>112.2</ele>
        <time>2025-05-10T08:31:50Z</time>
      </trkpt>
      <trkpt lat="44.92026" lon="0.88537">
        <ele>112.2</ele>
        <time>2025-05-10T08:31:51Z</time>
      </trkpt>
      <trkpt lat="44.92031" lon="0.88532">
        <ele>112</ele>
        <time>2025-05-10T08:31:52Z</time>
      </trkpt>
      <trkpt lat="44.92036" lon="0.88528">
        <ele>112</ele>
        <time>2025-05-10T08:31:53Z</time>
      </trkpt>
      <trkpt lat="44.92039" lon="0.88526">
        <ele>112.2</ele>
        <time>2025-05-10T08:31:54Z</time>
      </trkpt>
      <trkpt lat="44.92042" lon="0.88523">
        <ele>112.4</ele>
        <time>2025-05-10T08:31:55Z</time>
      </trkpt>
      <trkpt lat="44.92045" lon="0.88523">
        <ele>112.6</ele>
        <time>2025-05-10T08:31:56Z</time>
      </trkpt>
      <trkpt lat="44.92048" lon="0.88521">
        <ele>113.2</ele>
        <time>2025-05-10T08:31:57Z</time>
      </trkpt>
      <trkpt lat="44.9205" lon="0.88518">
        <ele>113.4</ele>
        <time>2025-05-10T08:31:58Z</time>
      </trkpt>
      <trkpt lat="44.92051" lon="0.88515">
        <ele>113.6</ele>
        <time>2025-05-10T08:31:59Z</time>
      </trkpt>
      <trkpt lat="44.92053" lon="0.88512">
        <ele>113.8</ele>
        <time>2025-05-10T08:32:00Z</time>
      </trkpt>
      <trkpt lat="44.92055" lon="0.8851">
        <ele>114</ele>
        <time>2025-05-10T08:32:01Z</time>
      </trkpt>
      <trkpt lat="44.92058" lon="0.88507">
        <ele>114</ele>
        <time>2025-05-10T08:32:02Z</time>
      </trkpt>
      <trkpt lat="44.92061" lon="0.88504">
        <ele>114</ele>
        <time>2025-05-10T08:32:03Z</time>
      </trkpt>
      <trkpt lat="44.92064" lon="0.88499">
        <ele>114</ele>
        <time>2025-05-10T08:32:04Z</time>
      </trkpt>
      <trkpt lat="44.92067" lon="0.88494">
        <ele>113.8</ele>
        <time>2025-05-10T08:32:05Z</time>
      </trkpt>
      <trkpt lat="44.9207" lon="0.88488">
        <ele>113.4</ele>
        <time>2025-05-10T08:32:06Z</time>
      </trkpt>
      <trkpt lat="44.92073" lon="0.88482">
        <ele>113</ele>
        <time>2025-05-10T08:32:07Z</time>
      </trkpt>
      <trkpt lat="44.92076" lon="0.88477">
        <ele>112.8</ele>
        <time>2025-05-10T08:32:08Z</time>
      </trkpt>
      <trkpt lat="44.92079" lon="0.88471">
        <ele>112.8</ele>
        <time>2025-05-10T08:32:09Z</time>
      </trkpt>
      <trkpt lat="44.92081" lon="0.88465">
        <ele>112.6</ele>
        <time>2025-05-10T08:32:10Z</time>
      </trkpt>
      <trkpt lat="44.92084" lon="0.88459">
        <ele>112.4</ele>
        <time>2025-05-10T08:32:11Z</time>
      </trkpt>
      <trkpt lat="44.92087" lon="0.88453">
        <ele>112.2</ele>
        <time>2025-05-10T08:32:12Z</time>
      </trkpt>
      <trkpt lat="44.9209" lon="0.88447">
        <ele>112</ele>
        <time>2025-05-10T08:32:13Z</time>
      </trkpt>
      <trkpt lat="44.92093" lon="0.8844">
        <ele>111</ele>
        <time>2025-05-10T08:32:14Z</time>
      </trkpt>
      <trkpt lat="44.92096" lon="0.88435">
        <ele>111</ele>
        <time>2025-05-10T08:32:15Z</time>
      </trkpt>
      <trkpt lat="44.921" lon="0.8843">
        <ele>110.8</ele>
        <time>2025-05-10T08:32:16Z</time>
      </trkpt>
      <trkpt lat="44.92105" lon="0.88427">
        <ele>110.8</ele>
        <time>2025-05-10T08:32:17Z</time>
      </trkpt>
      <trkpt lat="44.92109" lon="0.88427">
        <ele>110.8</ele>
        <time>2025-05-10T08:32:18Z</time>
      </trkpt>
      <trkpt lat="44.92113" lon="0.88426">
        <ele>110.8</ele>
        <time>2025-05-10T08:32:19Z</time>
      </trkpt>
      <trkpt lat="44.92116" lon="0.88425">
        <ele>110.8</ele>
        <time>2025-05-10T08:32:20Z</time>
      </trkpt>
      <trkpt lat="44.92119" lon="0.88426">
        <ele>110.8</ele>
        <time>2025-05-10T08:32:21Z</time>
      </trkpt>
      <trkpt lat="44.92121" lon="0.88426">
        <ele>111</ele>
        <time>2025-05-10T08:32:22Z</time>
      </trkpt>
      <trkpt lat="44.92123" lon="0.88427">
        <ele>111</ele>
        <time>2025-05-10T08:32:23Z</time>
      </trkpt>
      <trkpt lat="44.92125" lon="0.88427">
        <ele>111</ele>
        <time>2025-05-10T08:32:24Z</time>
      </trkpt>
      <trkpt lat="44.92127" lon="0.88427">
        <ele>111.2</ele>
        <time>2025-05-10T08:32:25Z</time>
      </trkpt>
      <trkpt lat="44.92128" lon="0.88427">
        <ele>111.2</ele>
        <time>2025-05-10T08:32:26Z</time>
      </trkpt>
      <trkpt lat="44.92129" lon="0.88427">
        <ele>111.2</ele>
        <time>2025-05-10T08:32:27Z</time>
      </trkpt>
      <trkpt lat="44.9213" lon="0.88427">
        <ele>111.2</ele>
        <time>2025-05-10T08:32:28Z</time>
      </trkpt>
      <trkpt lat="44.92131" lon="0.88428">
        <ele>111.2</ele>
        <time>2025-05-10T08:32:29Z</time>
      </trkpt>
      <trkpt lat="44.92133" lon="0.88429">
        <ele>111.2</ele>
        <time>2025-05-10T08:32:30Z</time>
      </trkpt>
      <trkpt lat="44.92134" lon="0.8843">
        <ele>111.2</ele>
        <time>2025-05-10T08:32:31Z</time>
      </trkpt>
      <trkpt lat="44.92137" lon="0.88431">
        <ele>111</ele>
        <time>2025-05-10T08:32:32Z</time>
      </trkpt>
      <trkpt lat="44.92139" lon="0.88432">
        <ele>111</ele>
        <time>2025-05-10T08:32:33Z</time>
      </trkpt>
      <trkpt lat="44.92141" lon="0.88433">
        <ele>111</ele>
        <time>2025-05-10T08:32:34Z</time>
      </trkpt>
      <trkpt lat="44.92143" lon="0.88433">
        <ele>111</ele>
        <time>2025-05-10T08:32:35Z</time>
      </trkpt>
      <trkpt lat="44.92145" lon="0.88433">
        <ele>111</ele>
        <time>2025-05-10T08:32:36Z</time>
      </trkpt>
      <trkpt lat="44.92147" lon="0.88433">
        <ele>111</ele>
        <time>2025-05-10T08:32:37Z</time>
      </trkpt>
      <trkpt lat="44.92149" lon="0.88432">
        <ele>111</ele>
        <time>2025-05-10T08:32:38Z</time>
      </trkpt>
      <trkpt lat="44.92151" lon="0.8843">
        <ele>111</ele>
        <time>2025-05-10T08:32:39Z</time>
      </trkpt>
      <trkpt lat="44.92153" lon="0.88427">
        <ele>111</ele>
        <time>2025-05-10T08:32:40Z</time>
      </trkpt>
      <trkpt lat="44.92155" lon="0.88424">
        <ele>111</ele>
        <time>2025-05-10T08:32:41Z</time>
      </trkpt>
      <trkpt lat="44.92157" lon="0.88421">
        <ele>111.2</ele>
        <time>2025-05-10T08:32:42Z</time>
      </trkpt>
      <trkpt lat="44.92159" lon="0.88418">
        <ele>111.2</ele>
        <time>2025-05-10T08:32:43Z</time>
      </trkpt>
      <trkpt lat="44.9216" lon="0.88415">
        <ele>111.4</ele>
        <time>2025-05-10T08:32:44Z</time>
      </trkpt>
      <trkpt lat="44.92162" lon="0.88413">
        <ele>111.4</ele>
        <time>2025-05-10T08:32:45Z</time>
      </trkpt>
      <trkpt lat="44.92164" lon="0.8841">
        <ele>111.6</ele>
        <time>2025-05-10T08:32:46Z</time>
      </trkpt>
      <trkpt lat="44.92166" lon="0.88406">
        <ele>111.8</ele>
        <time>2025-05-10T08:32:47Z</time>
      </trkpt>
      <trkpt lat="44.92168" lon="0.88403">
        <ele>112</ele>
        <time>2025-05-10T08:32:48Z</time>
      </trkpt>
      <trkpt lat="44.9217" lon="0.88401">
        <ele>112</ele>
        <time>2025-05-10T08:32:49Z</time>
      </trkpt>
      <trkpt lat="44.92171" lon="0.88399">
        <ele>112.2</ele>
        <time>2025-05-10T08:32:50Z</time>
      </trkpt>
      <trkpt lat="44.92172" lon="0.88397">
        <ele>112.4</ele>
        <time>2025-05-10T08:32:51Z</time>
      </trkpt>
      <trkpt lat="44.92174" lon="0.88395">
        <ele>112.6</ele>
        <time>2025-05-10T08:32:52Z</time>
      </trkpt>
      <trkpt lat="44.92175" lon="0.88393">
        <ele>112.8</ele>
        <time>2025-05-10T08:32:53Z</time>
      </trkpt>
      <trkpt lat="44.92177" lon="0.88391">
        <ele>112.8</ele>
        <time>2025-05-10T08:32:54Z</time>
      </trkpt>
      <trkpt lat="44.92179" lon="0.88389">
        <ele>113</ele>
        <time>2025-05-10T08:32:55Z</time>
      </trkpt>
      <trkpt lat="44.92181" lon="0.88387">
        <ele>113</ele>
        <time>2025-05-10T08:32:56Z</time>
      </trkpt>
      <trkpt lat="44.92183" lon="0.88386">
        <ele>113</ele>
        <time>2025-05-10T08:32:57Z</time>
      </trkpt>
      <trkpt lat="44.92185" lon="0.88384">
        <ele>113.2</ele>
        <time>2025-05-10T08:32:58Z</time>
      </trkpt>
      <trkpt lat="44.92187" lon="0.88383">
        <ele>113.2</ele>
        <time>2025-05-10T08:32:59Z</time>
      </trkpt>
      <trkpt lat="44.9219" lon="0.88381">
        <ele>113.4</ele>
        <time>2025-05-10T08:33:00Z</time>
      </trkpt>
      <trkpt lat="44.92192" lon="0.88381">
        <ele>113.4</ele>
        <time>2025-05-10T08:33:01Z</time>
      </trkpt>
      <trkpt lat="44.92194" lon="0.8838">
        <ele>113.4</ele>
        <time>2025-05-10T08:33:02Z</time>
      </trkpt>
      <trkpt lat="44.92196" lon="0.88378">
        <ele>113.6</ele>
        <time>2025-05-10T08:33:03Z</time>
      </trkpt>
      <trkpt lat="44.92199" lon="0.88377">
        <ele>113.8</ele>
        <time>2025-05-10T08:33:04Z</time>
      </trkpt>
      <trkpt lat="44.92201" lon="0.88376">
        <ele>114</ele>
        <time>2025-05-10T08:33:05Z</time>
      </trkpt>
      <trkpt lat="44.92203" lon="0.88375">
        <ele>114</ele>
        <time>2025-05-10T08:33:06Z</time>
      </trkpt>
      <trkpt lat="44.92205" lon="0.88374">
        <ele>114.2</ele>
        <time>2025-05-10T08:33:07Z</time>
      </trkpt>
      <trkpt lat="44.92207" lon="0.88373">
        <ele>114.2</ele>
        <time>2025-05-10T08:33:08Z</time>
      </trkpt>
      <trkpt lat="44.92209" lon="0.88371">
        <ele>114.4</ele>
        <time>2025-05-10T08:33:09Z</time>
      </trkpt>
      <trkpt lat="44.92211" lon="0.8837">
        <ele>114.6</ele>
        <time>2025-05-10T08:33:10Z</time>
      </trkpt>
      <trkpt lat="44.92213" lon="0.88369">
        <ele>114.8</ele>
        <time>2025-05-10T08:33:11Z</time>
      </trkpt>
      <trkpt lat="44.92215" lon="0.88367">
        <ele>115</ele>
        <time>2025-05-10T08:33:12Z</time>
      </trkpt>
      <trkpt lat="44.92218" lon="0.88366">
        <ele>115</ele>
        <time>2025-05-10T08:33:13Z</time>
      </trkpt>
      <trkpt lat="44.9222" lon="0.88365">
        <ele>115.2</ele>
        <time>2025-05-10T08:33:14Z</time>
      </trkpt>
      <trkpt lat="44.92222" lon="0.88364">
        <ele>115.4</ele>
        <time>2025-05-10T08:33:15Z</time>
      </trkpt>
      <trkpt lat="44.92224" lon="0.88362">
        <ele>115.6</ele>
        <time>2025-05-10T08:33:16Z</time>
      </trkpt>
      <trkpt lat="44.92226" lon="0.88361">
        <ele>115.8</ele>
        <time>2025-05-10T08:33:17Z</time>
      </trkpt>
      <trkpt lat="44.92228" lon="0.88359">
        <ele>115.8</ele>
        <time>2025-05-10T08:33:18Z</time>
      </trkpt>
      <trkpt lat="44.9223" lon="0.88358">
        <ele>116</ele>
        <time>2025-05-10T08:33:19Z</time>
      </trkpt>
      <trkpt lat="44.92232" lon="0.88356">
        <ele>116.2</ele>
        <time>2025-05-10T08:33:20Z</time>
      </trkpt>
      <trkpt lat="44.92234" lon="0.88354">
        <ele>116.4</ele>
        <time>2025-05-10T08:33:21Z</time>
      </trkpt>
      <trkpt lat="44.92236" lon="0.88353">
        <ele>116.6</ele>
        <time>2025-05-10T08:33:22Z</time>
      </trkpt>
      <trkpt lat="44.92238" lon="0.88351">
        <ele>116.6</ele>
        <time>2025-05-10T08:33:23Z</time>
      </trkpt>
      <trkpt lat="44.9224" lon="0.88349">
        <ele>116.6</ele>
        <time>2025-05-10T08:33:24Z</time>
      </trkpt>
      <trkpt lat="44.92243" lon="0.88347">
        <ele>116.8</ele>
        <time>2025-05-10T08:33:25Z</time>
      </trkpt>
      <trkpt lat="44.92245" lon="0.88345">
        <ele>116.8</ele>
        <time>2025-05-10T08:33:26Z</time>
      </trkpt>
      <trkpt lat="44.92247" lon="0.88343">
        <ele>116.8</ele>
        <time>2025-05-10T08:33:27Z</time>
      </trkpt>
      <trkpt lat="44.92249" lon="0.88342">
        <ele>116.8</ele>
        <time>2025-05-10T08:33:28Z</time>
      </trkpt>
      <trkpt lat="44.92252" lon="0.8834">
        <ele>116.8</ele>
        <time>2025-05-10T08:33:29Z</time>
      </trkpt>
      <trkpt lat="44.92254" lon="0.88338">
        <ele>116.8</ele>
        <time>2025-05-10T08:33:30Z</time>
      </trkpt>
      <trkpt lat="44.92257" lon="0.88337">
        <ele>117</ele>
        <time>2025-05-10T08:33:31Z</time>
      </trkpt>
      <trkpt lat="44.92259" lon="0.88335">
        <ele>117</ele>
        <time>2025-05-10T08:33:32Z</time>
      </trkpt>
      <trkpt lat="44.92262" lon="0.88334">
        <ele>117</ele>
        <time>2025-05-10T08:33:33Z</time>
      </trkpt>
      <trkpt lat="44.92264" lon="0.88332">
        <ele>117.2</ele>
        <time>2025-05-10T08:33:34Z</time>
      </trkpt>
      <trkpt lat="44.92266" lon="0.88331">
        <ele>117.2</ele>
        <time>2025-05-10T08:33:35Z</time>
      </trkpt>
      <trkpt lat="44.92268" lon="0.8833">
        <ele>117.4</ele>
        <time>2025-05-10T08:33:36Z</time>
      </trkpt>
      <trkpt lat="44.92271" lon="0.88328">
        <ele>117.4</ele>
        <time>2025-05-10T08:33:37Z</time>
      </trkpt>
      <trkpt lat="44.92273" lon="0.88326">
        <ele>117.6</ele>
        <time>2025-05-10T08:33:38Z</time>
      </trkpt>
      <trkpt lat="44.92275" lon="0.88324">
        <ele>117.6</ele>
        <time>2025-05-10T08:33:39Z</time>
      </trkpt>
      <trkpt lat="44.92278" lon="0.88322">
        <ele>117.6</ele>
        <time>2025-05-10T08:33:40Z</time>
      </trkpt>
      <trkpt lat="44.9228" lon="0.88321">
        <ele>117.8</ele>
        <time>2025-05-10T08:33:41Z</time>
      </trkpt>
      <trkpt lat="44.92283" lon="0.88319">
        <ele>117.8</ele>
        <time>2025-05-10T08:33:42Z</time>
      </trkpt>
      <trkpt lat="44.92285" lon="0.88318">
        <ele>118</ele>
        <time>2025-05-10T08:33:43Z</time>
      </trkpt>
      <trkpt lat="44.92288" lon="0.88317">
        <ele>118</ele>
        <time>2025-05-10T08:33:44Z</time>
      </trkpt>
      <trkpt lat="44.9229" lon="0.88315">
        <ele>118.2</ele>
        <time>2025-05-10T08:33:45Z</time>
      </trkpt>
      <trkpt lat="44.92293" lon="0.88313">
        <ele>118.4</ele>
        <time>2025-05-10T08:33:46Z</time>
      </trkpt>
      <trkpt lat="44.92295" lon="0.88312">
        <ele>118.4</ele>
        <time>2025-05-10T08:33:47Z</time>
      </trkpt>
      <trkpt lat="44.92296" lon="0.8831">
        <ele>118.4</ele>
        <time>2025-05-10T08:33:48Z</time>
      </trkpt>
      <trkpt lat="44.92299" lon="0.88309">
        <ele>118.6</ele>
        <time>2025-05-10T08:33:49Z</time>
      </trkpt>
      <trkpt lat="44.92301" lon="0.88308">
        <ele>118.8</ele>
        <time>2025-05-10T08:33:50Z</time>
      </trkpt>
      <trkpt lat="44.92303" lon="0.88307">
        <ele>119</ele>
        <time>2025-05-10T08:33:51Z</time>
      </trkpt>
      <trkpt lat="44.92305" lon="0.88306">
        <ele>119</ele>
        <time>2025-05-10T08:33:52Z</time>
      </trkpt>
      <trkpt lat="44.92308" lon="0.88304">
        <ele>119.2</ele>
        <time>2025-05-10T08:33:53Z</time>
      </trkpt>
      <trkpt lat="44.9231" lon="0.88302">
        <ele>119.4</ele>
        <time>2025-05-10T08:33:54Z</time>
      </trkpt>
      <trkpt lat="44.92312" lon="0.88301">
        <ele>119.6</ele>
        <time>2025-05-10T08:33:55Z</time>
      </trkpt>
      <trkpt lat="44.92314" lon="0.88299">
        <ele>119.8</ele>
        <time>2025-05-10T08:33:56Z</time>
      </trkpt>
      <trkpt lat="44.92316" lon="0.88298">
        <ele>120</ele>
        <time>2025-05-10T08:33:57Z</time>
      </trkpt>
      <trkpt lat="44.92318" lon="0.88297">
        <ele>120</ele>
        <time>2025-05-10T08:33:58Z</time>
      </trkpt>
      <trkpt lat="44.9232" lon="0.88295">
        <ele>120.2</ele>
        <time>2025-05-10T08:33:59Z</time>
      </trkpt>
      <trkpt lat="44.92322" lon="0.88294">
        <ele>120.4</ele>
        <time>2025-05-10T08:34:00Z</time>
      </trkpt>
      <trkpt lat="44.92324" lon="0.88294">
        <ele>120.6</ele>
        <time>2025-05-10T08:34:01Z</time>
      </trkpt>
      <trkpt lat="44.92326" lon="0.88294">
        <ele>120.6</ele>
        <time>2025-05-10T08:34:02Z</time>
      </trkpt>
      <trkpt lat="44.92327" lon="0.88295">
        <ele>121</ele>
        <time>2025-05-10T08:34:03Z</time>
      </trkpt>
      <trkpt lat="44.92329" lon="0.88296">
        <ele>121.2</ele>
        <time>2025-05-10T08:34:04Z</time>
      </trkpt>
      <trkpt lat="44.9233" lon="0.88296">
        <ele>121.4</ele>
        <time>2025-05-10T08:34:05Z</time>
      </trkpt>
      <trkpt lat="44.92332" lon="0.88296">
        <ele>121.6</ele>
        <time>2025-05-10T08:34:06Z</time>
      </trkpt>
      <trkpt lat="44.92333" lon="0.88296">
        <ele>121.6</ele>
        <time>2025-05-10T08:34:07Z</time>
      </trkpt>
      <trkpt lat="44.92335" lon="0.88295">
        <ele>121.8</ele>
        <time>2025-05-10T08:34:08Z</time>
      </trkpt>
      <trkpt lat="44.92337" lon="0.88295">
        <ele>122.2</ele>
        <time>2025-05-10T08:34:09Z</time>
      </trkpt>
      <trkpt lat="44.92339" lon="0.88296">
        <ele>122.2</ele>
        <time>2025-05-10T08:34:10Z</time>
      </trkpt>
      <trkpt lat="44.92341" lon="0.88297">
        <ele>122.4</ele>
        <time>2025-05-10T08:34:11Z</time>
      </trkpt>
      <trkpt lat="44.92342" lon="0.88297">
        <ele>122.6</ele>
        <time>2025-05-10T08:34:12Z</time>
      </trkpt>
      <trkpt lat="44.92343" lon="0.88296">
        <ele>122.8</ele>
        <time>2025-05-10T08:34:13Z</time>
      </trkpt>
      <trkpt lat="44.92345" lon="0.88296">
        <ele>123</ele>
        <time>2025-05-10T08:34:14Z</time>
      </trkpt>
      <trkpt lat="44.92345" lon="0.88295">
        <ele>123</ele>
        <time>2025-05-10T08:34:15Z</time>
      </trkpt>
      <trkpt lat="44.92347" lon="0.88295">
        <ele>123.4</ele>
        <time>2025-05-10T08:34:16Z</time>
      </trkpt>
      <trkpt lat="44.92348" lon="0.88294">
        <ele>123.6</ele>
        <time>2025-05-10T08:34:17Z</time>
      </trkpt>
      <trkpt lat="44.92349" lon="0.88295">
        <ele>123.8</ele>
        <time>2025-05-10T08:34:18Z</time>
      </trkpt>
      <trkpt lat="44.9235" lon="0.88295">
        <ele>124</ele>
        <time>2025-05-10T08:34:19Z</time>
      </trkpt>
      <trkpt lat="44.92351" lon="0.88294">
        <ele>124.2</ele>
        <time>2025-05-10T08:34:20Z</time>
      </trkpt>
      <trkpt lat="44.92353" lon="0.88293">
        <ele>124.4</ele>
        <time>2025-05-10T08:34:21Z</time>
      </trkpt>
      <trkpt lat="44.92354" lon="0.88293">
        <ele>124.6</ele>
        <time>2025-05-10T08:34:22Z</time>
      </trkpt>
      <trkpt lat="44.92356" lon="0.88293">
        <ele>124.8</ele>
        <time>2025-05-10T08:34:23Z</time>
      </trkpt>
      <trkpt lat="44.92357" lon="0.88292">
        <ele>125</ele>
        <time>2025-05-10T08:34:24Z</time>
      </trkpt>
      <trkpt lat="44.92358" lon="0.88292">
        <ele>125.2</ele>
        <time>2025-05-10T08:34:25Z</time>
      </trkpt>
      <trkpt lat="44.92359" lon="0.88292">
        <ele>125.2</ele>
        <time>2025-05-10T08:34:26Z</time>
      </trkpt>
      <trkpt lat="44.9236" lon="0.88291">
        <ele>125.6</ele>
        <time>2025-05-10T08:34:27Z</time>
      </trkpt>
      <trkpt lat="44.92362" lon="0.88291">
        <ele>125.6</ele>
        <time>2025-05-10T08:34:28Z</time>
      </trkpt>
      <trkpt lat="44.92363" lon="0.8829">
        <ele>126</ele>
        <time>2025-05-10T08:34:29Z</time>
      </trkpt>
      <trkpt lat="44.92365" lon="0.8829">
        <ele>126.2</ele>
        <time>2025-05-10T08:34:30Z</time>
      </trkpt>
      <trkpt lat="44.92366" lon="0.88289">
        <ele>126.4</ele>
        <time>2025-05-10T08:34:31Z</time>
      </trkpt>
      <trkpt lat="44.92368" lon="0.88288">
        <ele>126.6</ele>
        <time>2025-05-10T08:34:32Z</time>
      </trkpt>
      <trkpt lat="44.9237" lon="0.88288">
        <ele>126.8</ele>
        <time>2025-05-10T08:34:33Z</time>
      </trkpt>
      <trkpt lat="44.92371" lon="0.88289">
        <ele>127.2</ele>
        <time>2025-05-10T08:34:34Z</time>
      </trkpt>
      <trkpt lat="44.92373" lon="0.88288">
        <ele>127.4</ele>
        <time>2025-05-10T08:34:35Z</time>
      </trkpt>
      <trkpt lat="44.92374" lon="0.88288">
        <ele>127.6</ele>
        <time>2025-05-10T08:34:36Z</time>
      </trkpt>
      <trkpt lat="44.92376" lon="0.88288">
        <ele>127.6</ele>
        <time>2025-05-10T08:34:37Z</time>
      </trkpt>
      <trkpt lat="44.92377" lon="0.88288">
        <ele>127.8</ele>
        <time>2025-05-10T08:34:38Z</time>
      </trkpt>
      <trkpt lat="44.92379" lon="0.88288">
        <ele>128</ele>
        <time>2025-05-10T08:34:39Z</time>
      </trkpt>
      <trkpt lat="44.9238" lon="0.88288">
        <ele>128.2</ele>
        <time>2025-05-10T08:34:40Z</time>
      </trkpt>
      <trkpt lat="44.92382" lon="0.88288">
        <ele>128.4</ele>
        <time>2025-05-10T08:34:41Z</time>
      </trkpt>
      <trkpt lat="44.92383" lon="0.88288">
        <ele>128.4</ele>
        <time>2025-05-10T08:34:42Z</time>
      </trkpt>
      <trkpt lat="44.92385" lon="0.88287">
        <ele>128.6</ele>
        <time>2025-05-10T08:34:43Z</time>
      </trkpt>
      <trkpt lat="44.92387" lon="0.88286">
        <ele>128.8</ele>
        <time>2025-05-10T08:34:44Z</time>
      </trkpt>
      <trkpt lat="44.92388" lon="0.88286">
        <ele>129</ele>
        <time>2025-05-10T08:34:45Z</time>
      </trkpt>
      <trkpt lat="44.9239" lon="0.88286">
        <ele>129</ele>
        <time>2025-05-10T08:34:46Z</time>
      </trkpt>
      <trkpt lat="44.92392" lon="0.88286">
        <ele>129</ele>
        <time>2025-05-10T08:34:47Z</time>
      </trkpt>
      <trkpt lat="44.92394" lon="0.88285">
        <ele>129.2</ele>
        <time>2025-05-10T08:34:48Z</time>
      </trkpt>
      <trkpt lat="44.92396" lon="0.88285">
        <ele>129.4</ele>
        <time>2025-05-10T08:34:49Z</time>
      </trkpt>
      <trkpt lat="44.92398" lon="0.88285">
        <ele>129.6</ele>
        <time>2025-05-10T08:34:50Z</time>
      </trkpt>
      <trkpt lat="44.924" lon="0.88285">
        <ele>129.6</ele>
        <time>2025-05-10T08:34:51Z</time>
      </trkpt>
      <trkpt lat="44.92402" lon="0.88285">
        <ele>129.6</ele>
        <time>2025-05-10T08:34:52Z</time>
      </trkpt>
      <trkpt lat="44.92404" lon="0.88284">
        <ele>129.8</ele>
        <time>2025-05-10T08:34:53Z</time>
      </trkpt>
      <trkpt lat="44.92406" lon="0.88284">
        <ele>130</ele>
        <time>2025-05-10T08:34:54Z</time>
      </trkpt>
      <trkpt lat="44.92407" lon="0.88284">
        <ele>130</ele>
        <time>2025-05-10T08:34:55Z</time>
      </trkpt>
      <trkpt lat="44.92409" lon="0.88284">
        <ele>130</ele>
        <time>2025-05-10T08:34:56Z</time>
      </trkpt>
      <trkpt lat="44.92412" lon="0.88284">
        <ele>130.2</ele>
        <time>2025-05-10T08:34:57Z</time>
      </trkpt>
      <trkpt lat="44.92414" lon="0.88284">
        <ele>130.2</ele>
        <time>2025-05-10T08:34:58Z</time>
      </trkpt>
      <trkpt lat="44.92416" lon="0.88283">
        <ele>130.4</ele>
        <time>2025-05-10T08:34:59Z</time>
      </trkpt>
      <trkpt lat="44.92419" lon="0.88284">
        <ele>130.4</ele>
        <time>2025-05-10T08:35:00Z</time>
      </trkpt>
      <trkpt lat="44.92421" lon="0.88283">
        <ele>130.4</ele>
        <time>2025-05-10T08:35:01Z</time>
      </trkpt>
      <trkpt lat="44.92423" lon="0.88283">
        <ele>130.6</ele>
        <time>2025-05-10T08:35:02Z</time>
      </trkpt>
      <trkpt lat="44.92425" lon="0.88282">
        <ele>130.8</ele>
        <time>2025-05-10T08:35:03Z</time>
      </trkpt>
      <trkpt lat="44.92427" lon="0.88282">
        <ele>130.8</ele>
        <time>2025-05-10T08:35:04Z</time>
      </trkpt>
      <trkpt lat="44.92429" lon="0.88281">
        <ele>131</ele>
        <time>2025-05-10T08:35:05Z</time>
      </trkpt>
      <trkpt lat="44.92432" lon="0.88281">
        <ele>131</ele>
        <time>2025-05-10T08:35:06Z</time>
      </trkpt>
      <trkpt lat="44.92434" lon="0.88281">
        <ele>131.2</ele>
        <time>2025-05-10T08:35:07Z</time>
      </trkpt>
      <trkpt lat="44.92436" lon="0.8828">
        <ele>131.2</ele>
        <time>2025-05-10T08:35:08Z</time>
      </trkpt>
      <trkpt lat="44.92438" lon="0.8828">
        <ele>131.2</ele>
        <time>2025-05-10T08:35:09Z</time>
      </trkpt>
      <trkpt lat="44.9244" lon="0.88279">
        <ele>131.4</ele>
        <time>2025-05-10T08:35:10Z</time>
      </trkpt>
      <trkpt lat="44.92443" lon="0.88279">
        <ele>131.4</ele>
        <time>2025-05-10T08:35:11Z</time>
      </trkpt>
      <trkpt lat="44.92445" lon="0.88279">
        <ele>131.4</ele>
        <time>2025-05-10T08:35:12Z</time>
      </trkpt>
      <trkpt lat="44.92447" lon="0.88279">
        <ele>131.6</ele>
        <time>2025-05-10T08:35:13Z</time>
      </trkpt>
      <trkpt lat="44.9245" lon="0.88279">
        <ele>131.6</ele>
        <time>2025-05-10T08:35:14Z</time>
      </trkpt>
      <trkpt lat="44.92452" lon="0.88278">
        <ele>131.8</ele>
        <time>2025-05-10T08:35:15Z</time>
      </trkpt>
      <trkpt lat="44.92454" lon="0.88278">
        <ele>131.8</ele>
        <time>2025-05-10T08:35:16Z</time>
      </trkpt>
      <trkpt lat="44.92456" lon="0.88277">
        <ele>131.8</ele>
        <time>2025-05-10T08:35:17Z</time>
      </trkpt>
      <trkpt lat="44.92459" lon="0.88277">
        <ele>132</ele>
        <time>2025-05-10T08:35:18Z</time>
      </trkpt>
      <trkpt lat="44.92461" lon="0.88277">
        <ele>132.2</ele>
        <time>2025-05-10T08:35:19Z</time>
      </trkpt>
      <trkpt lat="44.92463" lon="0.88278">
        <ele>132.2</ele>
        <time>2025-05-10T08:35:20Z</time>
      </trkpt>
      <trkpt lat="44.92465" lon="0.88277">
        <ele>132.4</ele>
        <time>2025-05-10T08:35:21Z</time>
      </trkpt>
      <trkpt lat="44.92467" lon="0.88277">
        <ele>132.4</ele>
        <time>2025-05-10T08:35:22Z</time>
      </trkpt>
      <trkpt lat="44.92468" lon="0.88277">
        <ele>132.6</ele>
        <time>2025-05-10T08:35:23Z</time>
      </trkpt>
      <trkpt lat="44.9247" lon="0.88278">
        <ele>132.6</ele>
        <time>2025-05-10T08:35:24Z</time>
      </trkpt>
      <trkpt lat="44.92472" lon="0.88278">
        <ele>132.8</ele>
        <time>2025-05-10T08:35:25Z</time>
      </trkpt>
      <trkpt lat="44.92474" lon="0.88277">
        <ele>133</ele>
        <time>2025-05-10T08:35:26Z</time>
      </trkpt>
      <trkpt lat="44.92476" lon="0.88276">
        <ele>133.2</ele>
        <time>2025-05-10T08:35:27Z</time>
      </trkpt>
      <trkpt lat="44.92478" lon="0.88276">
        <ele>133.4</ele>
        <time>2025-05-10T08:35:28Z</time>
      </trkpt>
      <trkpt lat="44.9248" lon="0.88276">
        <ele>133.6</ele>
        <time>2025-05-10T08:35:29Z</time>
      </trkpt>
      <trkpt lat="44.92481" lon="0.88275">
        <ele>133.6</ele>
        <time>2025-05-10T08:35:30Z</time>
      </trkpt>
      <trkpt lat="44.92484" lon="0.88275">
        <ele>133.8</ele>
        <time>2025-05-10T08:35:31Z</time>
      </trkpt>
      <trkpt lat="44.92486" lon="0.88274">
        <ele>134</ele>
        <time>2025-05-10T08:35:32Z</time>
      </trkpt>
      <trkpt lat="44.92487" lon="0.88274">
        <ele>134.2</ele>
        <time>2025-05-10T08:35:33Z</time>
      </trkpt>
      <trkpt lat="44.92489" lon="0.88273">
        <ele>134.4</ele>
        <time>2025-05-10T08:35:34Z</time>
      </trkpt>
      <trkpt lat="44.92491" lon="0.88272">
        <ele>134.6</ele>
        <time>2025-05-10T08:35:35Z</time>
      </trkpt>
      <trkpt lat="44.92493" lon="0.88271">
        <ele>134.6</ele>
        <time>2025-05-10T08:35:36Z</time>
      </trkpt>
      <trkpt lat="44.92495" lon="0.88269">
        <ele>134.8</ele>
        <time>2025-05-10T08:35:37Z</time>
      </trkpt>
      <trkpt lat="44.92497" lon="0.88268">
        <ele>135</ele>
        <time>2025-05-10T08:35:38Z</time>
      </trkpt>
      <trkpt lat="44.92498" lon="0.88267">
        <ele>135.2</ele>
        <time>2025-05-10T08:35:39Z</time>
      </trkpt>
      <trkpt lat="44.925" lon="0.88267">
        <ele>135.2</ele>
        <time>2025-05-10T08:35:40Z</time>
      </trkpt>
      <trkpt lat="44.92502" lon="0.88265">
        <ele>135.4</ele>
        <time>2025-05-10T08:35:41Z</time>
      </trkpt>
      <trkpt lat="44.92504" lon="0.88264">
        <ele>135.4</ele>
        <time>2025-05-10T08:35:42Z</time>
      </trkpt>
      <trkpt lat="44.92505" lon="0.88263">
        <ele>135.6</ele>
        <time>2025-05-10T08:35:43Z</time>
      </trkpt>
      <trkpt lat="44.92507" lon="0.88262">
        <ele>135.6</ele>
        <time>2025-05-10T08:35:44Z</time>
      </trkpt>
      <trkpt lat="44.92509" lon="0.88261">
        <ele>135.6</ele>
        <time>2025-05-10T08:35:45Z</time>
      </trkpt>
      <trkpt lat="44.92511" lon="0.8826">
        <ele>135.8</ele>
        <time>2025-05-10T08:35:46Z</time>
      </trkpt>
      <trkpt lat="44.92513" lon="0.88259">
        <ele>136</ele>
        <time>2025-05-10T08:35:47Z</time>
      </trkpt>
      <trkpt lat="44.92514" lon="0.88258">
        <ele>136</ele>
        <time>2025-05-10T08:35:48Z</time>
      </trkpt>
      <trkpt lat="44.92516" lon="0.88257">
        <ele>136.2</ele>
        <time>2025-05-10T08:35:49Z</time>
      </trkpt>
      <trkpt lat="44.92518" lon="0.88257">
        <ele>136.2</ele>
        <time>2025-05-10T08:35:50Z</time>
      </trkpt>
      <trkpt lat="44.9252" lon="0.88256">
        <ele>136.4</ele>
        <time>2025-05-10T08:35:51Z</time>
      </trkpt>
      <trkpt lat="44.92521" lon="0.88255">
        <ele>136.4</ele>
        <time>2025-05-10T08:35:52Z</time>
      </trkpt>
      <trkpt lat="44.92523" lon="0.88254">
        <ele>136.6</ele>
        <time>2025-05-10T08:35:53Z</time>
      </trkpt>
      <trkpt lat="44.92525" lon="0.88254">
        <ele>136.6</ele>
        <time>2025-05-10T08:35:54Z</time>
      </trkpt>
      <trkpt lat="44.92527" lon="0.88253">
        <ele>136.6</ele>
        <time>2025-05-10T08:35:55Z</time>
      </trkpt>
      <trkpt lat="44.92528" lon="0.88252">
        <ele>136.8</ele>
        <time>2025-05-10T08:35:56Z</time>
      </trkpt>
      <trkpt lat="44.9253" lon="0.88251">
        <ele>137</ele>
        <time>2025-05-10T08:35:57Z</time>
      </trkpt>
      <trkpt lat="44.92532" lon="0.8825">
        <ele>137</ele>
        <time>2025-05-10T08:35:58Z</time>
      </trkpt>
      <trkpt lat="44.92534" lon="0.8825">
        <ele>137.2</ele>
        <time>2025-05-10T08:35:59Z</time>
      </trkpt>
      <trkpt lat="44.92536" lon="0.88249">
        <ele>137.4</ele>
        <time>2025-05-10T08:36:00Z</time>
      </trkpt>
      <trkpt lat="44.92538" lon="0.88248">
        <ele>137.6</ele>
        <time>2025-05-10T08:36:01Z</time>
      </trkpt>
      <trkpt lat="44.92539" lon="0.88247">
        <ele>137.6</ele>
        <time>2025-05-10T08:36:02Z</time>
      </trkpt>
      <trkpt lat="44.92541" lon="0.88246">
        <ele>137.8</ele>
        <time>2025-05-10T08:36:03Z</time>
      </trkpt>
      <trkpt lat="44.92543" lon="0.88246">
        <ele>137.8</ele>
        <time>2025-05-10T08:36:04Z</time>
      </trkpt>
      <trkpt lat="44.92545" lon="0.88246">
        <ele>138</ele>
        <time>2025-05-10T08:36:05Z</time>
      </trkpt>
      <trkpt lat="44.92547" lon="0.88245">
        <ele>138</ele>
        <time>2025-05-10T08:36:06Z</time>
      </trkpt>
      <trkpt lat="44.92549" lon="0.88245">
        <ele>138</ele>
        <time>2025-05-10T08:36:07Z</time>
      </trkpt>
      <trkpt lat="44.92551" lon="0.88244">
        <ele>138.2</ele>
        <time>2025-05-10T08:36:08Z</time>
      </trkpt>
      <trkpt lat="44.92553" lon="0.88244">
        <ele>138.4</ele>
        <time>2025-05-10T08:36:09Z</time>
      </trkpt>
      <trkpt lat="44.92556" lon="0.88243">
        <ele>138.4</ele>
        <time>2025-05-10T08:36:10Z</time>
      </trkpt>
      <trkpt lat="44.92558" lon="0.88242">
        <ele>138.4</ele>
        <time>2025-05-10T08:36:11Z</time>
      </trkpt>
      <trkpt lat="44.9256" lon="0.88242">
        <ele>138.6</ele>
        <time>2025-05-10T08:36:12Z</time>
      </trkpt>
      <trkpt lat="44.92562" lon="0.88242">
        <ele>138.6</ele>
        <time>2025-05-10T08:36:13Z</time>
      </trkpt>
      <trkpt lat="44.92564" lon="0.88241">
        <ele>138.8</ele>
        <time>2025-05-10T08:36:14Z</time>
      </trkpt>
      <trkpt lat="44.92565" lon="0.8824">
        <ele>139</ele>
        <time>2025-05-10T08:36:15Z</time>
      </trkpt>
      <trkpt lat="44.92567" lon="0.8824">
        <ele>139.2</ele>
        <time>2025-05-10T08:36:16Z</time>
      </trkpt>
      <trkpt lat="44.92569" lon="0.88239">
        <ele>139.4</ele>
        <time>2025-05-10T08:36:17Z</time>
      </trkpt>
      <trkpt lat="44.9257" lon="0.8824">
        <ele>139.6</ele>
        <time>2025-05-10T08:36:18Z</time>
      </trkpt>
      <trkpt lat="44.92573" lon="0.8824">
        <ele>139.8</ele>
        <time>2025-05-10T08:36:19Z</time>
      </trkpt>
      <trkpt lat="44.92574" lon="0.8824">
        <ele>140</ele>
        <time>2025-05-10T08:36:20Z</time>
      </trkpt>
      <trkpt lat="44.92576" lon="0.8824">
        <ele>140</ele>
        <time>2025-05-10T08:36:21Z</time>
      </trkpt>
      <trkpt lat="44.92578" lon="0.8824">
        <ele>140.2</ele>
        <time>2025-05-10T08:36:22Z</time>
      </trkpt>
      <trkpt lat="44.9258" lon="0.8824">
        <ele>140.2</ele>
        <time>2025-05-10T08:36:23Z</time>
      </trkpt>
      <trkpt lat="44.92582" lon="0.8824">
        <ele>140.4</ele>
        <time>2025-05-10T08:36:24Z</time>
      </trkpt>
      <trkpt lat="44.92584" lon="0.8824">
        <ele>140.6</ele>
        <time>2025-05-10T08:36:25Z</time>
      </trkpt>
      <trkpt lat="44.92586" lon="0.88239">
        <ele>140.6</ele>
        <time>2025-05-10T08:36:26Z</time>
      </trkpt>
      <trkpt lat="44.92587" lon="0.88239">
        <ele>140.8</ele>
        <time>2025-05-10T08:36:27Z</time>
      </trkpt>
      <trkpt lat="44.92589" lon="0.88239">
        <ele>140.8</ele>
        <time>2025-05-10T08:36:28Z</time>
      </trkpt>
      <trkpt lat="44.9259" lon="0.88238">
        <ele>141</ele>
        <time>2025-05-10T08:36:29Z</time>
      </trkpt>
      <trkpt lat="44.92592" lon="0.88237">
        <ele>141.4</ele>
        <time>2025-05-10T08:36:30Z</time>
      </trkpt>
      <trkpt lat="44.92594" lon="0.88237">
        <ele>141.6</ele>
        <time>2025-05-10T08:36:31Z</time>
      </trkpt>
      <trkpt lat="44.92596" lon="0.88237">
        <ele>141.6</ele>
        <time>2025-05-10T08:36:32Z</time>
      </trkpt>
      <trkpt lat="44.92598" lon="0.88238">
        <ele>141.8</ele>
        <time>2025-05-10T08:36:33Z</time>
      </trkpt>
      <trkpt lat="44.92599" lon="0.88237">
        <ele>142</ele>
        <time>2025-05-10T08:36:34Z</time>
      </trkpt>
      <trkpt lat="44.92601" lon="0.88236">
        <ele>142.2</ele>
        <time>2025-05-10T08:36:35Z</time>
      </trkpt>
      <trkpt lat="44.92603" lon="0.88237">
        <ele>142.4</ele>
        <time>2025-05-10T08:36:36Z</time>
      </trkpt>
      <trkpt lat="44.92605" lon="0.88237">
        <ele>142.6</ele>
        <time>2025-05-10T08:36:37Z</time>
      </trkpt>
      <trkpt lat="44.92606" lon="0.88236">
        <ele>142.6</ele>
        <time>2025-05-10T08:36:38Z</time>
      </trkpt>
      <trkpt lat="44.92608" lon="0.88236">
        <ele>142.8</ele>
        <time>2025-05-10T08:36:39Z</time>
      </trkpt>
      <trkpt lat="44.92609" lon="0.88236">
        <ele>142.8</ele>
        <time>2025-05-10T08:36:40Z</time>
      </trkpt>
      <trkpt lat="44.92611" lon="0.88236">
        <ele>143.2</ele>
        <time>2025-05-10T08:36:41Z</time>
      </trkpt>
      <trkpt lat="44.92613" lon="0.88236">
        <ele>143.2</ele>
        <time>2025-05-10T08:36:42Z</time>
      </trkpt>
      <trkpt lat="44.92614" lon="0.88235">
        <ele>143.6</ele>
        <time>2025-05-10T08:36:43Z</time>
      </trkpt>
      <trkpt lat="44.92616" lon="0.88235">
        <ele>143.6</ele>
        <time>2025-05-10T08:36:44Z</time>
      </trkpt>
      <trkpt lat="44.92618" lon="0.88235">
        <ele>143.8</ele>
        <time>2025-05-10T08:36:45Z</time>
      </trkpt>
      <trkpt lat="44.9262" lon="0.88234">
        <ele>143.8</ele>
        <time>2025-05-10T08:36:46Z</time>
      </trkpt>
      <trkpt lat="44.92622" lon="0.88234">
        <ele>144.2</ele>
        <time>2025-05-10T08:36:47Z</time>
      </trkpt>
      <trkpt lat="44.92624" lon="0.88234">
        <ele>144.2</ele>
        <time>2025-05-10T08:36:48Z</time>
      </trkpt>
      <trkpt lat="44.92626" lon="0.88234">
        <ele>144.4</ele>
        <time>2025-05-10T08:36:49Z</time>
      </trkpt>
      <trkpt lat="44.92628" lon="0.88233">
        <ele>144.6</ele>
        <time>2025-05-10T08:36:50Z</time>
      </trkpt>
      <trkpt lat="44.9263" lon="0.88233">
        <ele>144.8</ele>
        <time>2025-05-10T08:36:51Z</time>
      </trkpt>
      <trkpt lat="44.92631" lon="0.88234">
        <ele>144.8</ele>
        <time>2025-05-10T08:36:52Z</time>
      </trkpt>
      <trkpt lat="44.92633" lon="0.88233">
        <ele>144.8</ele>
        <time>2025-05-10T08:36:53Z</time>
      </trkpt>
      <trkpt lat="44.92636" lon="0.88234">
        <ele>145</ele>
        <time>2025-05-10T08:36:54Z</time>
      </trkpt>
      <trkpt lat="44.92638" lon="0.88233">
        <ele>145</ele>
        <time>2025-05-10T08:36:55Z</time>
      </trkpt>
      <trkpt lat="44.9264" lon="0.88233">
        <ele>145.2</ele>
        <time>2025-05-10T08:36:56Z</time>
      </trkpt>
      <trkpt lat="44.92642" lon="0.88232">
        <ele>145.2</ele>
        <time>2025-05-10T08:36:57Z</time>
      </trkpt>
      <trkpt lat="44.92645" lon="0.88232">
        <ele>145.4</ele>
        <time>2025-05-10T08:36:58Z</time>
      </trkpt>
      <trkpt lat="44.92647" lon="0.88231">
        <ele>145.4</ele>
        <time>2025-05-10T08:36:59Z</time>
      </trkpt>
      <trkpt lat="44.92649" lon="0.88232">
        <ele>145.6</ele>
        <time>2025-05-10T08:37:00Z</time>
      </trkpt>
      <trkpt lat="44.92651" lon="0.88232">
        <ele>145.8</ele>
        <time>2025-05-10T08:37:01Z</time>
      </trkpt>
      <trkpt lat="44.92654" lon="0.88231">
        <ele>146</ele>
        <time>2025-05-10T08:37:02Z</time>
      </trkpt>
      <trkpt lat="44.92656" lon="0.88231">
        <ele>146.2</ele>
        <time>2025-05-10T08:37:03Z</time>
      </trkpt>
      <trkpt lat="44.92658" lon="0.88231">
        <ele>146.2</ele>
        <time>2025-05-10T08:37:04Z</time>
      </trkpt>
      <trkpt lat="44.92661" lon="0.88231">
        <ele>146.4</ele>
        <time>2025-05-10T08:37:05Z</time>
      </trkpt>
      <trkpt lat="44.92663" lon="0.88231">
        <ele>146.6</ele>
        <time>2025-05-10T08:37:06Z</time>
      </trkpt>
      <trkpt lat="44.92666" lon="0.88231">
        <ele>146.6</ele>
        <time>2025-05-10T08:37:07Z</time>
      </trkpt>
      <trkpt lat="44.92668" lon="0.88231">
        <ele>146.6</ele>
        <time>2025-05-10T08:37:08Z</time>
      </trkpt>
      <trkpt lat="44.92671" lon="0.88231">
        <ele>146.6</ele>
        <time>2025-05-10T08:37:09Z</time>
      </trkpt>
      <trkpt lat="44.92673" lon="0.8823">
        <ele>146.8</ele>
        <time>2025-05-10T08:37:10Z</time>
      </trkpt>
      <trkpt lat="44.92675" lon="0.8823">
        <ele>146.8</ele>
        <time>2025-05-10T08:37:11Z</time>
      </trkpt>
      <trkpt lat="44.92678" lon="0.8823">
        <ele>146.8</ele>
        <time>2025-05-10T08:37:12Z</time>
      </trkpt>
      <trkpt lat="44.9268" lon="0.88229">
        <ele>147</ele>
        <time>2025-05-10T08:37:13Z</time>
      </trkpt>
      <trkpt lat="44.92683" lon="0.88229">
        <ele>147</ele>
        <time>2025-05-10T08:37:14Z</time>
      </trkpt>
      <trkpt lat="44.92685" lon="0.88229">
        <ele>147.2</ele>
        <time>2025-05-10T08:37:15Z</time>
      </trkpt>
      <trkpt lat="44.92687" lon="0.88228">
        <ele>147.2</ele>
        <time>2025-05-10T08:37:16Z</time>
      </trkpt>
      <trkpt lat="44.9269" lon="0.88228">
        <ele>147.4</ele>
        <time>2025-05-10T08:37:17Z</time>
      </trkpt>
      <trkpt lat="44.92693" lon="0.88228">
        <ele>147.4</ele>
        <time>2025-05-10T08:37:18Z</time>
      </trkpt>
      <trkpt lat="44.92695" lon="0.88227">
        <ele>147.4</ele>
        <time>2025-05-10T08:37:19Z</time>
      </trkpt>
      <trkpt lat="44.92698" lon="0.88226">
        <ele>147.6</ele>
        <time>2025-05-10T08:37:20Z</time>
      </trkpt>
      <trkpt lat="44.927" lon="0.88226">
        <ele>147.6</ele>
        <time>2025-05-10T08:37:21Z</time>
      </trkpt>
      <trkpt lat="44.92703" lon="0.88225">
        <ele>147.6</ele>
        <time>2025-05-10T08:37:22Z</time>
      </trkpt>
      <trkpt lat="44.92705" lon="0.88225">
        <ele>147.6</ele>
        <time>2025-05-10T08:37:23Z</time>
      </trkpt>
      <trkpt lat="44.92708" lon="0.88225">
        <ele>147.8</ele>
        <time>2025-05-10T08:37:24Z</time>
      </trkpt>
      <trkpt lat="44.92711" lon="0.88226">
        <ele>148</ele>
        <time>2025-05-10T08:37:25Z</time>
      </trkpt>
      <trkpt lat="44.92713" lon="0.88226">
        <ele>148</ele>
        <time>2025-05-10T08:37:26Z</time>
      </trkpt>
      <trkpt lat="44.92715" lon="0.88226">
        <ele>148.2</ele>
        <time>2025-05-10T08:37:27Z</time>
      </trkpt>
      <trkpt lat="44.92717" lon="0.88225">
        <ele>148.2</ele>
        <time>2025-05-10T08:37:28Z</time>
      </trkpt>
      <trkpt lat="44.9272" lon="0.88225">
        <ele>148.4</ele>
        <time>2025-05-10T08:37:29Z</time>
      </trkpt>
      <trkpt lat="44.92722" lon="0.88226">
        <ele>148.8</ele>
        <time>2025-05-10T08:37:30Z</time>
      </trkpt>
      <trkpt lat="44.92725" lon="0.88226">
        <ele>148.8</ele>
        <time>2025-05-10T08:37:31Z</time>
      </trkpt>
      <trkpt lat="44.92727" lon="0.88226">
        <ele>149</ele>
        <time>2025-05-10T08:37:32Z</time>
      </trkpt>
      <trkpt lat="44.92729" lon="0.88226">
        <ele>149.2</ele>
        <time>2025-05-10T08:37:33Z</time>
      </trkpt>
      <trkpt lat="44.92731" lon="0.88226">
        <ele>149.4</ele>
        <time>2025-05-10T08:37:34Z</time>
      </trkpt>
      <trkpt lat="44.92734" lon="0.88225">
        <ele>149.4</ele>
        <time>2025-05-10T08:37:35Z</time>
      </trkpt>
      <trkpt lat="44.92736" lon="0.88226">
        <ele>149.8</ele>
        <time>2025-05-10T08:37:36Z</time>
      </trkpt>
      <trkpt lat="44.92738" lon="0.88226">
        <ele>149.8</ele>
        <time>2025-05-10T08:37:37Z</time>
      </trkpt>
      <trkpt lat="44.9274" lon="0.88226">
        <ele>150</ele>
        <time>2025-05-10T08:37:38Z</time>
      </trkpt>
      <trkpt lat="44.92742" lon="0.88226">
        <ele>150</ele>
        <time>2025-05-10T08:37:39Z</time>
      </trkpt>
      <trkpt lat="44.92745" lon="0.88226">
        <ele>150.2</ele>
        <time>2025-05-10T08:37:40Z</time>
      </trkpt>
      <trkpt lat="44.92747" lon="0.88226">
        <ele>150.4</ele>
        <time>2025-05-10T08:37:41Z</time>
      </trkpt>
      <trkpt lat="44.92749" lon="0.88227">
        <ele>150.6</ele>
        <time>2025-05-10T08:37:42Z</time>
      </trkpt>
      <trkpt lat="44.92752" lon="0.88227">
        <ele>150.8</ele>
        <time>2025-05-10T08:37:43Z</time>
      </trkpt>
      <trkpt lat="44.92754" lon="0.88227">
        <ele>150.8</ele>
        <time>2025-05-10T08:37:44Z</time>
      </trkpt>
      <trkpt lat="44.92756" lon="0.88228">
        <ele>151</ele>
        <time>2025-05-10T08:37:45Z</time>
      </trkpt>
      <trkpt lat="44.92758" lon="0.88228">
        <ele>151</ele>
        <time>2025-05-10T08:37:46Z</time>
      </trkpt>
      <trkpt lat="44.92761" lon="0.88229">
        <ele>151.2</ele>
        <time>2025-05-10T08:37:47Z</time>
      </trkpt>
      <trkpt lat="44.92763" lon="0.8823">
        <ele>151.4</ele>
        <time>2025-05-10T08:37:48Z</time>
      </trkpt>
      <trkpt lat="44.92765" lon="0.88231">
        <ele>151.4</ele>
        <time>2025-05-10T08:37:49Z</time>
      </trkpt>
      <trkpt lat="44.92767" lon="0.88232">
        <ele>151.6</ele>
        <time>2025-05-10T08:37:50Z</time>
      </trkpt>
      <trkpt lat="44.92769" lon="0.88233">
        <ele>151.8</ele>
        <time>2025-05-10T08:37:51Z</time>
      </trkpt>
      <trkpt lat="44.92772" lon="0.88234">
        <ele>152</ele>
        <time>2025-05-10T08:37:52Z</time>
      </trkpt>
      <trkpt lat="44.92774" lon="0.88235">
        <ele>152</ele>
        <time>2025-05-10T08:37:53Z</time>
      </trkpt>
      <trkpt lat="44.92776" lon="0.88237">
        <ele>152.2</ele>
        <time>2025-05-10T08:37:54Z</time>
      </trkpt>
      <trkpt lat="44.92779" lon="0.88237">
        <ele>152.2</ele>
        <time>2025-05-10T08:37:55Z</time>
      </trkpt>
      <trkpt lat="44.92781" lon="0.88239">
        <ele>152.4</ele>
        <time>2025-05-10T08:37:56Z</time>
      </trkpt>
      <trkpt lat="44.92783" lon="0.8824">
        <ele>152.6</ele>
        <time>2025-05-10T08:37:57Z</time>
      </trkpt>
      <trkpt lat="44.92785" lon="0.88241">
        <ele>152.8</ele>
        <time>2025-05-10T08:37:58Z</time>
      </trkpt>
      <trkpt lat="44.92787" lon="0.88242">
        <ele>153</ele>
        <time>2025-05-10T08:37:59Z</time>
      </trkpt>
      <trkpt lat="44.92789" lon="0.88243">
        <ele>153.2</ele>
        <time>2025-05-10T08:38:00Z</time>
      </trkpt>
      <trkpt lat="44.92791" lon="0.88243">
        <ele>153.4</ele>
        <time>2025-05-10T08:38:01Z</time>
      </trkpt>
      <trkpt lat="44.92793" lon="0.88243">
        <ele>153.4</ele>
        <time>2025-05-10T08:38:02Z</time>
      </trkpt>
      <trkpt lat="44.92796" lon="0.88243">
        <ele>153.6</ele>
        <time>2025-05-10T08:38:03Z</time>
      </trkpt>
      <trkpt lat="44.92799" lon="0.88243">
        <ele>153.8</ele>
        <time>2025-05-10T08:38:04Z</time>
      </trkpt>
      <trkpt lat="44.92801" lon="0.88243">
        <ele>153.8</ele>
        <time>2025-05-10T08:38:05Z</time>
      </trkpt>
      <trkpt lat="44.92803" lon="0.88243">
        <ele>154</ele>
        <time>2025-05-10T08:38:06Z</time>
      </trkpt>
      <trkpt lat="44.92805" lon="0.88243">
        <ele>154</ele>
        <time>2025-05-10T08:38:07Z</time>
      </trkpt>
      <trkpt lat="44.92807" lon="0.88242">
        <ele>154</ele>
        <time>2025-05-10T08:38:08Z</time>
      </trkpt>
      <trkpt lat="44.92809" lon="0.88241">
        <ele>154.2</ele>
        <time>2025-05-10T08:38:09Z</time>
      </trkpt>
      <trkpt lat="44.92811" lon="0.8824">
        <ele>154.4</ele>
        <time>2025-05-10T08:38:10Z</time>
      </trkpt>
      <trkpt lat="44.92813" lon="0.88239">
        <ele>154.4</ele>
        <time>2025-05-10T08:38:11Z</time>
      </trkpt>
      <trkpt lat="44.92815" lon="0.88239">
        <ele>154.6</ele>
        <time>2025-05-10T08:38:12Z</time>
      </trkpt>
      <trkpt lat="44.92817" lon="0.88238">
        <ele>154.8</ele>
        <time>2025-05-10T08:38:13Z</time>
      </trkpt>
      <trkpt lat="44.92819" lon="0.88238">
        <ele>154.8</ele>
        <time>2025-05-10T08:38:14Z</time>
      </trkpt>
      <trkpt lat="44.92821" lon="0.88238">
        <ele>155.2</ele>
        <time>2025-05-10T08:38:15Z</time>
      </trkpt>
      <trkpt lat="44.92823" lon="0.88238">
        <ele>155.2</ele>
        <time>2025-05-10T08:38:16Z</time>
      </trkpt>
      <trkpt lat="44.92825" lon="0.88237">
        <ele>155.4</ele>
        <time>2025-05-10T08:38:17Z</time>
      </trkpt>
      <trkpt lat="44.92827" lon="0.88237">
        <ele>155.6</ele>
        <time>2025-05-10T08:38:18Z</time>
      </trkpt>
      <trkpt lat="44.92829" lon="0.88237">
        <ele>155.8</ele>
        <time>2025-05-10T08:38:19Z</time>
      </trkpt>
      <trkpt lat="44.92831" lon="0.88236">
        <ele>155.8</ele>
        <time>2025-05-10T08:38:20Z</time>
      </trkpt>
      <trkpt lat="44.92833" lon="0.88237">
        <ele>156</ele>
        <time>2025-05-10T08:38:21Z</time>
      </trkpt>
      <trkpt lat="44.92835" lon="0.88236">
        <ele>156.2</ele>
        <time>2025-05-10T08:38:22Z</time>
      </trkpt>
      <trkpt lat="44.92837" lon="0.88236">
        <ele>156.4</ele>
        <time>2025-05-10T08:38:23Z</time>
      </trkpt>
      <trkpt lat="44.92839" lon="0.88237">
        <ele>156.4</ele>
        <time>2025-05-10T08:38:24Z</time>
      </trkpt>
      <trkpt lat="44.92841" lon="0.88237">
        <ele>156.6</ele>
        <time>2025-05-10T08:38:25Z</time>
      </trkpt>
      <trkpt lat="44.92843" lon="0.88237">
        <ele>156.6</ele>
        <time>2025-05-10T08:38:26Z</time>
      </trkpt>
      <trkpt lat="44.92845" lon="0.88238">
        <ele>156.8</ele>
        <time>2025-05-10T08:38:27Z</time>
      </trkpt>
      <trkpt lat="44.92847" lon="0.88238">
        <ele>156.8</ele>
        <time>2025-05-10T08:38:28Z</time>
      </trkpt>
      <trkpt lat="44.92849" lon="0.88239">
        <ele>157</ele>
        <time>2025-05-10T08:38:29Z</time>
      </trkpt>
      <trkpt lat="44.92851" lon="0.88239">
        <ele>157</ele>
        <time>2025-05-10T08:38:30Z</time>
      </trkpt>
      <trkpt lat="44.92853" lon="0.88238">
        <ele>157.2</ele>
        <time>2025-05-10T08:38:31Z</time>
      </trkpt>
      <trkpt lat="44.92855" lon="0.88238">
        <ele>157.4</ele>
        <time>2025-05-10T08:38:32Z</time>
      </trkpt>
      <trkpt lat="44.92857" lon="0.88239">
        <ele>157.6</ele>
        <time>2025-05-10T08:38:33Z</time>
      </trkpt>
      <trkpt lat="44.92858" lon="0.88239">
        <ele>157.8</ele>
        <time>2025-05-10T08:38:34Z</time>
      </trkpt>
      <trkpt lat="44.9286" lon="0.88239">
        <ele>158</ele>
        <time>2025-05-10T08:38:35Z</time>
      </trkpt>
      <trkpt lat="44.92863" lon="0.8824">
        <ele>158</ele>
        <time>2025-05-10T08:38:36Z</time>
      </trkpt>
      <trkpt lat="44.92865" lon="0.8824">
        <ele>158.2</ele>
        <time>2025-05-10T08:38:37Z</time>
      </trkpt>
      <trkpt lat="44.92867" lon="0.8824">
        <ele>158.4</ele>
        <time>2025-05-10T08:38:38Z</time>
      </trkpt>
      <trkpt lat="44.92869" lon="0.8824">
        <ele>158.4</ele>
        <time>2025-05-10T08:38:39Z</time>
      </trkpt>
      <trkpt lat="44.92872" lon="0.8824">
        <ele>158.6</ele>
        <time>2025-05-10T08:38:40Z</time>
      </trkpt>
      <trkpt lat="44.92874" lon="0.88241">
        <ele>158.6</ele>
        <time>2025-05-10T08:38:41Z</time>
      </trkpt>
      <trkpt lat="44.92876" lon="0.8824">
        <ele>158.8</ele>
        <time>2025-05-10T08:38:42Z</time>
      </trkpt>
      <trkpt lat="44.92878" lon="0.8824">
        <ele>158.8</ele>
        <time>2025-05-10T08:38:43Z</time>
      </trkpt>
      <trkpt lat="44.9288" lon="0.88239">
        <ele>159</ele>
        <time>2025-05-10T08:38:44Z</time>
      </trkpt>
      <trkpt lat="44.92882" lon="0.88237">
        <ele>159</ele>
        <time>2025-05-10T08:38:45Z</time>
      </trkpt>
      <trkpt lat="44.92883" lon="0.88235">
        <ele>159.2</ele>
        <time>2025-05-10T08:38:46Z</time>
      </trkpt>
      <trkpt lat="44.92884" lon="0.88234">
        <ele>159.2</ele>
        <time>2025-05-10T08:38:47Z</time>
      </trkpt>
      <trkpt lat="44.92886" lon="0.88233">
        <ele>159.4</ele>
        <time>2025-05-10T08:38:48Z</time>
      </trkpt>
      <trkpt lat="44.92889" lon="0.88232">
        <ele>159.6</ele>
        <time>2025-05-10T08:38:49Z</time>
      </trkpt>
      <trkpt lat="44.92891" lon="0.88232">
        <ele>159.8</ele>
        <time>2025-05-10T08:38:50Z</time>
      </trkpt>
      <trkpt lat="44.92893" lon="0.88233">
        <ele>160</ele>
        <time>2025-05-10T08:38:51Z</time>
      </trkpt>
      <trkpt lat="44.92895" lon="0.88233">
        <ele>160.2</ele>
        <time>2025-05-10T08:38:52Z</time>
      </trkpt>
      <trkpt lat="44.92896" lon="0.88235">
        <ele>160.4</ele>
        <time>2025-05-10T08:38:53Z</time>
      </trkpt>
      <trkpt lat="44.92897" lon="0.88236">
        <ele>160.6</ele>
        <time>2025-05-10T08:38:54Z</time>
      </trkpt>
      <trkpt lat="44.92899" lon="0.88238">
        <ele>160.6</ele>
        <time>2025-05-10T08:38:55Z</time>
      </trkpt>
      <trkpt lat="44.929" lon="0.8824">
        <ele>161</ele>
        <time>2025-05-10T08:38:56Z</time>
      </trkpt>
      <trkpt lat="44.929" lon="0.88243">
        <ele>161</ele>
        <time>2025-05-10T08:38:57Z</time>
      </trkpt>
      <trkpt lat="44.92902" lon="0.88246">
        <ele>161.2</ele>
        <time>2025-05-10T08:38:58Z</time>
      </trkpt>
      <trkpt lat="44.92902" lon="0.88249">
        <ele>161.4</ele>
        <time>2025-05-10T08:38:59Z</time>
      </trkpt>
      <trkpt lat="44.92903" lon="0.88251">
        <ele>161.6</ele>
        <time>2025-05-10T08:39:00Z</time>
      </trkpt>
      <trkpt lat="44.92904" lon="0.88254">
        <ele>161.8</ele>
        <time>2025-05-10T08:39:01Z</time>
      </trkpt>
      <trkpt lat="44.92904" lon="0.88256">
        <ele>162</ele>
        <time>2025-05-10T08:39:02Z</time>
      </trkpt>
      <trkpt lat="44.92906" lon="0.88259">
        <ele>162.2</ele>
        <time>2025-05-10T08:39:03Z</time>
      </trkpt>
      <trkpt lat="44.92907" lon="0.88261">
        <ele>162.4</ele>
        <time>2025-05-10T08:39:04Z</time>
      </trkpt>
      <trkpt lat="44.92907" lon="0.88264">
        <ele>162.8</ele>
        <time>2025-05-10T08:39:05Z</time>
      </trkpt>
      <trkpt lat="44.92908" lon="0.88266">
        <ele>162.8</ele>
        <time>2025-05-10T08:39:06Z</time>
      </trkpt>
      <trkpt lat="44.92908" lon="0.88268">
        <ele>163</ele>
        <time>2025-05-10T08:39:07Z</time>
      </trkpt>
      <trkpt lat="44.92909" lon="0.8827">
        <ele>163.2</ele>
        <time>2025-05-10T08:39:08Z</time>
      </trkpt>
      <trkpt lat="44.9291" lon="0.88273">
        <ele>163.4</ele>
        <time>2025-05-10T08:39:09Z</time>
      </trkpt>
      <trkpt lat="44.9291" lon="0.88276">
        <ele>163.6</ele>
        <time>2025-05-10T08:39:10Z</time>
      </trkpt>
      <trkpt lat="44.92911" lon="0.88278">
        <ele>163.8</ele>
        <time>2025-05-10T08:39:11Z</time>
      </trkpt>
      <trkpt lat="44.92911" lon="0.8828">
        <ele>164</ele>
        <time>2025-05-10T08:39:12Z</time>
      </trkpt>
      <trkpt lat="44.92912" lon="0.88283">
        <ele>164.2</ele>
        <time>2025-05-10T08:39:13Z</time>
      </trkpt>
      <trkpt lat="44.92912" lon="0.88286">
        <ele>164.4</ele>
        <time>2025-05-10T08:39:14Z</time>
      </trkpt>
      <trkpt lat="44.92913" lon="0.88288">
        <ele>164.4</ele>
        <time>2025-05-10T08:39:15Z</time>
      </trkpt>
      <trkpt lat="44.92913" lon="0.8829">
        <ele>164.6</ele>
        <time>2025-05-10T08:39:16Z</time>
      </trkpt>
      <trkpt lat="44.92915" lon="0.88293">
        <ele>164.8</ele>
        <time>2025-05-10T08:39:17Z</time>
      </trkpt>
      <trkpt lat="44.92915" lon="0.88295">
        <ele>165</ele>
        <time>2025-05-10T08:39:18Z</time>
      </trkpt>
      <trkpt lat="44.92916" lon="0.88298">
        <ele>165.2</ele>
        <time>2025-05-10T08:39:19Z</time>
      </trkpt>
      <trkpt lat="44.92916" lon="0.88299">
        <ele>165.4</ele>
        <time>2025-05-10T08:39:20Z</time>
      </trkpt>
      <trkpt lat="44.92917" lon="0.88301">
        <ele>165.6</ele>
        <time>2025-05-10T08:39:21Z</time>
      </trkpt>
      <trkpt lat="44.92917" lon="0.88303">
        <ele>165.6</ele>
        <time>2025-05-10T08:39:22Z</time>
      </trkpt>
      <trkpt lat="44.92918" lon="0.88304">
        <ele>165.8</ele>
        <time>2025-05-10T08:39:23Z</time>
      </trkpt>
      <trkpt lat="44.92918" lon="0.88306">
        <ele>166</ele>
        <time>2025-05-10T08:39:24Z</time>
      </trkpt>
      <trkpt lat="44.92919" lon="0.88308">
        <ele>166.2</ele>
        <time>2025-05-10T08:39:25Z</time>
      </trkpt>
      <trkpt lat="44.9292" lon="0.88311">
        <ele>166.4</ele>
        <time>2025-05-10T08:39:26Z</time>
      </trkpt>
      <trkpt lat="44.92921" lon="0.88313">
        <ele>166.8</ele>
        <time>2025-05-10T08:39:27Z</time>
      </trkpt>
      <trkpt lat="44.92922" lon="0.88315">
        <ele>166.8</ele>
        <time>2025-05-10T08:39:28Z</time>
      </trkpt>
      <trkpt lat="44.92923" lon="0.88317">
        <ele>167</ele>
        <time>2025-05-10T08:39:29Z</time>
      </trkpt>
      <trkpt lat="44.92924" lon="0.88319">
        <ele>167.2</ele>
        <time>2025-05-10T08:39:30Z</time>
      </trkpt>
      <trkpt lat="44.92925" lon="0.88321">
        <ele>167.2</ele>
        <time>2025-05-10T08:39:31Z</time>
      </trkpt>
      <trkpt lat="44.92926" lon="0.88323">
        <ele>167.4</ele>
        <time>2025-05-10T08:39:32Z</time>
      </trkpt>
      <trkpt lat="44.92927" lon="0.88325">
        <ele>167.6</ele>
        <time>2025-05-10T08:39:33Z</time>
      </trkpt>
      <trkpt lat="44.92928" lon="0.88326">
        <ele>167.8</ele>
        <time>2025-05-10T08:39:34Z</time>
      </trkpt>
      <trkpt lat="44.92929" lon="0.88328">
        <ele>167.8</ele>
        <time>2025-05-10T08:39:35Z</time>
      </trkpt>
      <trkpt lat="44.9293" lon="0.88329">
        <ele>168</ele>
        <time>2025-05-10T08:39:36Z</time>
      </trkpt>
      <trkpt lat="44.92931" lon="0.8833">
        <ele>168.2</ele>
        <time>2025-05-10T08:39:37Z</time>
      </trkpt>
      <trkpt lat="44.92932" lon="0.88332">
        <ele>168.4</ele>
        <time>2025-05-10T08:39:38Z</time>
      </trkpt>
      <trkpt lat="44.92933" lon="0.88334">
        <ele>168.6</ele>
        <time>2025-05-10T08:39:39Z</time>
      </trkpt>
      <trkpt lat="44.92934" lon="0.88335">
        <ele>168.8</ele>
        <time>2025-05-10T08:39:40Z</time>
      </trkpt>
      <trkpt lat="44.92935" lon="0.88337">
        <ele>169</ele>
        <time>2025-05-10T08:39:41Z</time>
      </trkpt>
      <trkpt lat="44.92936" lon="0.88338">
        <ele>169.2</ele>
        <time>2025-05-10T08:39:42Z</time>
      </trkpt>
      <trkpt lat="44.92937" lon="0.88339">
        <ele>169.4</ele>
        <time>2025-05-10T08:39:43Z</time>
      </trkpt>
      <trkpt lat="44.92938" lon="0.88341">
        <ele>169.6</ele>
        <time>2025-05-10T08:39:44Z</time>
      </trkpt>
      <trkpt lat="44.92939" lon="0.88342">
        <ele>169.8</ele>
        <time>2025-05-10T08:39:45Z</time>
      </trkpt>
      <trkpt lat="44.9294" lon="0.88343">
        <ele>170.2</ele>
        <time>2025-05-10T08:39:46Z</time>
      </trkpt>
      <trkpt lat="44.92941" lon="0.88344">
        <ele>170.4</ele>
        <time>2025-05-10T08:39:47Z</time>
      </trkpt>
      <trkpt lat="44.92942" lon="0.88345">
        <ele>170.6</ele>
        <time>2025-05-10T08:39:48Z</time>
      </trkpt>
      <trkpt lat="44.92943" lon="0.88346">
        <ele>170.8</ele>
        <time>2025-05-10T08:39:49Z</time>
      </trkpt>
      <trkpt lat="44.92945" lon="0.88348">
        <ele>171</ele>
        <time>2025-05-10T08:39:50Z</time>
      </trkpt>
      <trkpt lat="44.92946" lon="0.88348">
        <ele>171.2</ele>
        <time>2025-05-10T08:39:51Z</time>
      </trkpt>
      <trkpt lat="44.92947" lon="0.88349">
        <ele>171.4</ele>
        <time>2025-05-10T08:39:52Z</time>
      </trkpt>
      <trkpt lat="44.92948" lon="0.8835">
        <ele>171.6</ele>
        <time>2025-05-10T08:39:53Z</time>
      </trkpt>
      <trkpt lat="44.92949" lon="0.88351">
        <ele>171.8</ele>
        <time>2025-05-10T08:39:54Z</time>
      </trkpt>
      <trkpt lat="44.9295" lon="0.88352">
        <ele>172.2</ele>
        <time>2025-05-10T08:39:55Z</time>
      </trkpt>
      <trkpt lat="44.92952" lon="0.88353">
        <ele>172.4</ele>
        <time>2025-05-10T08:39:56Z</time>
      </trkpt>
      <trkpt lat="44.92954" lon="0.88353">
        <ele>172.6</ele>
        <time>2025-05-10T08:39:57Z</time>
      </trkpt>
      <trkpt lat="44.92955" lon="0.88354">
        <ele>172.8</ele>
        <time>2025-05-10T08:39:58Z</time>
      </trkpt>
      <trkpt lat="44.92956" lon="0.88354">
        <ele>173</ele>
        <time>2025-05-10T08:39:59Z</time>
      </trkpt>
      <trkpt lat="44.92958" lon="0.88354">
        <ele>173</ele>
        <time>2025-05-10T08:40:00Z</time>
      </trkpt>
      <trkpt lat="44.92959" lon="0.88354">
        <ele>173.4</ele>
        <time>2025-05-10T08:40:01Z</time>
      </trkpt>
      <trkpt lat="44.9296" lon="0.88354">
        <ele>173.6</ele>
        <time>2025-05-10T08:40:02Z</time>
      </trkpt>
      <trkpt lat="44.92961" lon="0.88354">
        <ele>174</ele>
        <time>2025-05-10T08:40:03Z</time>
      </trkpt>
      <trkpt lat="44.92963" lon="0.88354">
        <ele>174.2</ele>
        <time>2025-05-10T08:40:04Z</time>
      </trkpt>
      <trkpt lat="44.92964" lon="0.88353">
        <ele>174.6</ele>
        <time>2025-05-10T08:40:05Z</time>
      </trkpt>
      <trkpt lat="44.92965" lon="0.88352">
        <ele>174.8</ele>
        <time>2025-05-10T08:40:06Z</time>
      </trkpt>
      <trkpt lat="44.92966" lon="0.8835">
        <ele>175</ele>
        <time>2025-05-10T08:40:07Z</time>
      </trkpt>
      <trkpt lat="44.92967" lon="0.88349">
        <ele>175.2</ele>
        <time>2025-05-10T08:40:08Z</time>
      </trkpt>
      <trkpt lat="44.92968" lon="0.88348">
        <ele>175.6</ele>
        <time>2025-05-10T08:40:09Z</time>
      </trkpt>
      <trkpt lat="44.92969" lon="0.88346">
        <ele>175.8</ele>
        <time>2025-05-10T08:40:10Z</time>
      </trkpt>
      <trkpt lat="44.9297" lon="0.88346">
        <ele>176</ele>
        <time>2025-05-10T08:40:11Z</time>
      </trkpt>
      <trkpt lat="44.92971" lon="0.88344">
        <ele>176.2</ele>
        <time>2025-05-10T08:40:12Z</time>
      </trkpt>
      <trkpt lat="44.92972" lon="0.88343">
        <ele>176.4</ele>
        <time>2025-05-10T08:40:13Z</time>
      </trkpt>
      <trkpt lat="44.92973" lon="0.88342">
        <ele>176.6</ele>
        <time>2025-05-10T08:40:14Z</time>
      </trkpt>
      <trkpt lat="44.92974" lon="0.88341">
        <ele>176.8</ele>
        <time>2025-05-10T08:40:15Z</time>
      </trkpt>
      <trkpt lat="44.92975" lon="0.8834">
        <ele>177</ele>
        <time>2025-05-10T08:40:16Z</time>
      </trkpt>
      <trkpt lat="44.92976" lon="0.88339">
        <ele>177.2</ele>
        <time>2025-05-10T08:40:17Z</time>
      </trkpt>
      <trkpt lat="44.92977" lon="0.88339">
        <ele>177.4</ele>
        <time>2025-05-10T08:40:18Z</time>
      </trkpt>
      <trkpt lat="44.92979" lon="0.88338">
        <ele>177.6</ele>
        <time>2025-05-10T08:40:19Z</time>
      </trkpt>
      <trkpt lat="44.92979" lon="0.88337">
        <ele>177.8</ele>
        <time>2025-05-10T08:40:20Z</time>
      </trkpt>
      <trkpt lat="44.9298" lon="0.88336">
        <ele>177.8</ele>
        <time>2025-05-10T08:40:21Z</time>
      </trkpt>
      <trkpt lat="44.92981" lon="0.88334">
        <ele>178</ele>
        <time>2025-05-10T08:40:22Z</time>
      </trkpt>
      <trkpt lat="44.92982" lon="0.88334">
        <ele>178.4</ele>
        <time>2025-05-10T08:40:23Z</time>
      </trkpt>
      <trkpt lat="44.92983" lon="0.88332">
        <ele>178.6</ele>
        <time>2025-05-10T08:40:24Z</time>
      </trkpt>
      <trkpt lat="44.92984" lon="0.88331">
        <ele>178.8</ele>
        <time>2025-05-10T08:40:25Z</time>
      </trkpt>
      <trkpt lat="44.92985" lon="0.8833">
        <ele>179</ele>
        <time>2025-05-10T08:40:26Z</time>
      </trkpt>
      <trkpt lat="44.92986" lon="0.88328">
        <ele>179.4</ele>
        <time>2025-05-10T08:40:27Z</time>
      </trkpt>
      <trkpt lat="44.92987" lon="0.88327">
        <ele>179.4</ele>
        <time>2025-05-10T08:40:28Z</time>
      </trkpt>
      <trkpt lat="44.92988" lon="0.88326">
        <ele>179.6</ele>
        <time>2025-05-10T08:40:29Z</time>
      </trkpt>
      <trkpt lat="44.92989" lon="0.88324">
        <ele>179.8</ele>
        <time>2025-05-10T08:40:30Z</time>
      </trkpt>
      <trkpt lat="44.9299" lon="0.88323">
        <ele>180</ele>
        <time>2025-05-10T08:40:31Z</time>
      </trkpt>
      <trkpt lat="44.9299" lon="0.88321">
        <ele>180.4</ele>
        <time>2025-05-10T08:40:32Z</time>
      </trkpt>
      <trkpt lat="44.92991" lon="0.8832">
        <ele>180.6</ele>
        <time>2025-05-10T08:40:33Z</time>
      </trkpt>
      <trkpt lat="44.92993" lon="0.88318">
        <ele>181</ele>
        <time>2025-05-10T08:40:34Z</time>
      </trkpt>
      <trkpt lat="44.92993" lon="0.88316">
        <ele>181.2</ele>
        <time>2025-05-10T08:40:35Z</time>
      </trkpt>
      <trkpt lat="44.92994" lon="0.88315">
        <ele>181.2</ele>
        <time>2025-05-10T08:40:36Z</time>
      </trkpt>
      <trkpt lat="44.92994" lon="0.88313">
        <ele>181.6</ele>
        <time>2025-05-10T08:40:37Z</time>
      </trkpt>
      <trkpt lat="44.92994" lon="0.88311">
        <ele>181.8</ele>
        <time>2025-05-10T08:40:38Z</time>
      </trkpt>
      <trkpt lat="44.92995" lon="0.8831">
        <ele>182</ele>
        <time>2025-05-10T08:40:39Z</time>
      </trkpt>
      <trkpt lat="44.92995" lon="0.88308">
        <ele>182</ele>
        <time>2025-05-10T08:40:40Z</time>
      </trkpt>
      <trkpt lat="44.92996" lon="0.88306">
        <ele>182.2</ele>
        <time>2025-05-10T08:40:41Z</time>
      </trkpt>
      <trkpt lat="44.92996" lon="0.88304">
        <ele>182.4</ele>
        <time>2025-05-10T08:40:42Z</time>
      </trkpt>
      <trkpt lat="44.92997" lon="0.88302">
        <ele>182.6</ele>
        <time>2025-05-10T08:40:43Z</time>
      </trkpt>
      <trkpt lat="44.92998" lon="0.883">
        <ele>182.6</ele>
        <time>2025-05-10T08:40:44Z</time>
      </trkpt>
      <trkpt lat="44.92998" lon="0.88299">
        <ele>182.8</ele>
        <time>2025-05-10T08:40:45Z</time>
      </trkpt>
      <trkpt lat="44.92999" lon="0.88297">
        <ele>183</ele>
        <time>2025-05-10T08:40:46Z</time>
      </trkpt>
      <trkpt lat="44.93" lon="0.88295">
        <ele>183.2</ele>
        <time>2025-05-10T08:40:47Z</time>
      </trkpt>
      <trkpt lat="44.93" lon="0.88293">
        <ele>183.4</ele>
        <time>2025-05-10T08:40:48Z</time>
      </trkpt>
      <trkpt lat="44.93001" lon="0.88291">
        <ele>183.6</ele>
        <time>2025-05-10T08:40:49Z</time>
      </trkpt>
      <trkpt lat="44.93002" lon="0.88288">
        <ele>183.8</ele>
        <time>2025-05-10T08:40:50Z</time>
      </trkpt>
      <trkpt lat="44.93003" lon="0.88286">
        <ele>183.8</ele>
        <time>2025-05-10T08:40:51Z</time>
      </trkpt>
      <trkpt lat="44.93004" lon="0.88284">
        <ele>183.8</ele>
        <time>2025-05-10T08:40:52Z</time>
      </trkpt>
      <trkpt lat="44.93005" lon="0.88281">
        <ele>184</ele>
        <time>2025-05-10T08:40:53Z</time>
      </trkpt>
      <trkpt lat="44.93006" lon="0.88279">
        <ele>184.2</ele>
        <time>2025-05-10T08:40:54Z</time>
      </trkpt>
      <trkpt lat="44.93006" lon="0.88277">
        <ele>184.2</ele>
        <time>2025-05-10T08:40:55Z</time>
      </trkpt>
      <trkpt lat="44.93007" lon="0.88275">
        <ele>184.4</ele>
        <time>2025-05-10T08:40:56Z</time>
      </trkpt>
      <trkpt lat="44.93009" lon="0.88273">
        <ele>184.6</ele>
        <time>2025-05-10T08:40:57Z</time>
      </trkpt>
      <trkpt lat="44.9301" lon="0.88271">
        <ele>184.6</ele>
        <time>2025-05-10T08:40:58Z</time>
      </trkpt>
      <trkpt lat="44.93012" lon="0.8827">
        <ele>184.6</ele>
        <time>2025-05-10T08:40:59Z</time>
      </trkpt>
      <trkpt lat="44.93013" lon="0.8827">
        <ele>184.8</ele>
        <time>2025-05-10T08:41:00Z</time>
      </trkpt>
      <trkpt lat="44.93014" lon="0.8827">
        <ele>185</ele>
        <time>2025-05-10T08:41:01Z</time>
      </trkpt>
      <trkpt lat="44.93015" lon="0.8827">
        <ele>185</ele>
        <time>2025-05-10T08:41:02Z</time>
      </trkpt>
      <trkpt lat="44.93017" lon="0.88271">
        <ele>185.2</ele>
        <time>2025-05-10T08:41:03Z</time>
      </trkpt>
      <trkpt lat="44.93018" lon="0.88272">
        <ele>185.4</ele>
        <time>2025-05-10T08:41:04Z</time>
      </trkpt>
      <trkpt lat="44.93019" lon="0.88273">
        <ele>185.6</ele>
        <time>2025-05-10T08:41:05Z</time>
      </trkpt>
      <trkpt lat="44.9302" lon="0.88274">
        <ele>185.8</ele>
        <time>2025-05-10T08:41:06Z</time>
      </trkpt>
      <trkpt lat="44.93021" lon="0.88275">
        <ele>186</ele>
        <time>2025-05-10T08:41:07Z</time>
      </trkpt>
      <trkpt lat="44.93022" lon="0.88276">
        <ele>186</ele>
        <time>2025-05-10T08:41:08Z</time>
      </trkpt>
      <trkpt lat="44.93024" lon="0.88277">
        <ele>186.2</ele>
        <time>2025-05-10T08:41:09Z</time>
      </trkpt>
      <trkpt lat="44.93025" lon="0.88278">
        <ele>186.4</ele>
        <time>2025-05-10T08:41:10Z</time>
      </trkpt>
      <trkpt lat="44.93026" lon="0.88279">
        <ele>186.6</ele>
        <time>2025-05-10T08:41:11Z</time>
      </trkpt>
      <trkpt lat="44.93027" lon="0.8828">
        <ele>186.8</ele>
        <time>2025-05-10T08:41:12Z</time>
      </trkpt>
      <trkpt lat="44.93028" lon="0.88281">
        <ele>187</ele>
        <time>2025-05-10T08:41:13Z</time>
      </trkpt>
      <trkpt lat="44.93029" lon="0.88281">
        <ele>187.2</ele>
        <time>2025-05-10T08:41:14Z</time>
      </trkpt>
      <trkpt lat="44.9303" lon="0.88282">
        <ele>187.4</ele>
        <time>2025-05-10T08:41:15Z</time>
      </trkpt>
      <trkpt lat="44.93032" lon="0.88283">
        <ele>187.6</ele>
        <time>2025-05-10T08:41:16Z</time>
      </trkpt>
      <trkpt lat="44.93033" lon="0.88283">
        <ele>187.8</ele>
        <time>2025-05-10T08:41:17Z</time>
      </trkpt>
      <trkpt lat="44.93034" lon="0.88284">
        <ele>188</ele>
        <time>2025-05-10T08:41:18Z</time>
      </trkpt>
      <trkpt lat="44.93036" lon="0.88284">
        <ele>188.2</ele>
        <time>2025-05-10T08:41:19Z</time>
      </trkpt>
      <trkpt lat="44.93037" lon="0.88285">
        <ele>188.4</ele>
        <time>2025-05-10T08:41:20Z</time>
      </trkpt>
      <trkpt lat="44.93038" lon="0.88286">
        <ele>188.6</ele>
        <time>2025-05-10T08:41:21Z</time>
      </trkpt>
      <trkpt lat="44.93039" lon="0.88286">
        <ele>188.8</ele>
        <time>2025-05-10T08:41:22Z</time>
      </trkpt>
      <trkpt lat="44.9304" lon="0.88287">
        <ele>189</ele>
        <time>2025-05-10T08:41:23Z</time>
      </trkpt>
      <trkpt lat="44.93042" lon="0.88288">
        <ele>189.2</ele>
        <time>2025-05-10T08:41:24Z</time>
      </trkpt>
      <trkpt lat="44.93043" lon="0.88289">
        <ele>189.4</ele>
        <time>2025-05-10T08:41:25Z</time>
      </trkpt>
      <trkpt lat="44.93044" lon="0.88289">
        <ele>189.6</ele>
        <time>2025-05-10T08:41:26Z</time>
      </trkpt>
      <trkpt lat="44.93045" lon="0.8829">
        <ele>189.8</ele>
        <time>2025-05-10T08:41:27Z</time>
      </trkpt>
      <trkpt lat="44.93047" lon="0.8829">
        <ele>189.8</ele>
        <time>2025-05-10T08:41:28Z</time>
      </trkpt>
      <trkpt lat="44.93048" lon="0.88291">
        <ele>190.2</ele>
        <time>2025-05-10T08:41:29Z</time>
      </trkpt>
      <trkpt lat="44.93049" lon="0.88292">
        <ele>190.4</ele>
        <time>2025-05-10T08:41:30Z</time>
      </trkpt>
      <trkpt lat="44.9305" lon="0.88293">
        <ele>190.6</ele>
        <time>2025-05-10T08:41:31Z</time>
      </trkpt>
      <trkpt lat="44.93052" lon="0.88294">
        <ele>190.8</ele>
        <time>2025-05-10T08:41:32Z</time>
      </trkpt>
      <trkpt lat="44.93053" lon="0.88294">
        <ele>190.8</ele>
        <time>2025-05-10T08:41:33Z</time>
      </trkpt>
      <trkpt lat="44.93054" lon="0.88295">
        <ele>191.2</ele>
        <time>2025-05-10T08:41:34Z</time>
      </trkpt>
      <trkpt lat="44.93055" lon="0.88296">
        <ele>191.4</ele>
        <time>2025-05-10T08:41:35Z</time>
      </trkpt>
      <trkpt lat="44.93057" lon="0.88297">
        <ele>191.6</ele>
        <time>2025-05-10T08:41:36Z</time>
      </trkpt>
      <trkpt lat="44.93058" lon="0.88298">
        <ele>191.8</ele>
        <time>2025-05-10T08:41:37Z</time>
      </trkpt>
      <trkpt lat="44.9306" lon="0.88299">
        <ele>192</ele>
        <time>2025-05-10T08:41:38Z</time>
      </trkpt>
      <trkpt lat="44.93061" lon="0.88299">
        <ele>192.2</ele>
        <time>2025-05-10T08:41:39Z</time>
      </trkpt>
      <trkpt lat="44.93062" lon="0.883">
        <ele>192.4</ele>
        <time>2025-05-10T08:41:40Z</time>
      </trkpt>
      <trkpt lat="44.93063" lon="0.883">
        <ele>192.6</ele>
        <time>2025-05-10T08:41:41Z</time>
      </trkpt>
      <trkpt lat="44.93064" lon="0.88301">
        <ele>192.8</ele>
        <time>2025-05-10T08:41:42Z</time>
      </trkpt>
      <trkpt lat="44.93065" lon="0.88302">
        <ele>193</ele>
        <time>2025-05-10T08:41:43Z</time>
      </trkpt>
      <trkpt lat="44.93066" lon="0.88302">
        <ele>193.2</ele>
        <time>2025-05-10T08:41:44Z</time>
      </trkpt>
      <trkpt lat="44.93068" lon="0.88302">
        <ele>193.4</ele>
        <time>2025-05-10T08:41:45Z</time>
      </trkpt>
      <trkpt lat="44.93069" lon="0.88303">
        <ele>193.6</ele>
        <time>2025-05-10T08:41:46Z</time>
      </trkpt>
      <trkpt lat="44.9307" lon="0.88303">
        <ele>193.6</ele>
        <time>2025-05-10T08:41:47Z</time>
      </trkpt>
      <trkpt lat="44.93072" lon="0.88303">
        <ele>194</ele>
        <time>2025-05-10T08:41:48Z</time>
      </trkpt>
      <trkpt lat="44.93073" lon="0.88304">
        <ele>194</ele>
        <time>2025-05-10T08:41:49Z</time>
      </trkpt>
      <trkpt lat="44.93075" lon="0.88304">
        <ele>194.2</ele>
        <time>2025-05-10T08:41:50Z</time>
      </trkpt>
      <trkpt lat="44.93076" lon="0.88304">
        <ele>194.4</ele>
        <time>2025-05-10T08:41:51Z</time>
      </trkpt>
      <trkpt lat="44.93077" lon="0.88304">
        <ele>194.6</ele>
        <time>2025-05-10T08:41:52Z</time>
      </trkpt>
      <trkpt lat="44.93079" lon="0.88305">
        <ele>194.8</ele>
        <time>2025-05-10T08:41:53Z</time>
      </trkpt>
      <trkpt lat="44.9308" lon="0.88305">
        <ele>195</ele>
        <time>2025-05-10T08:41:54Z</time>
      </trkpt>
      <trkpt lat="44.93081" lon="0.88305">
        <ele>195.2</ele>
        <time>2025-05-10T08:41:55Z</time>
      </trkpt>
      <trkpt lat="44.93082" lon="0.88306">
        <ele>195.4</ele>
        <time>2025-05-10T08:41:56Z</time>
      </trkpt>
      <trkpt lat="44.93084" lon="0.88306">
        <ele>195.6</ele>
        <time>2025-05-10T08:41:57Z</time>
      </trkpt>
      <trkpt lat="44.93085" lon="0.88306">
        <ele>195.6</ele>
        <time>2025-05-10T08:41:58Z</time>
      </trkpt>
      <trkpt lat="44.93086" lon="0.88307">
        <ele>196</ele>
        <time>2025-05-10T08:41:59Z</time>
      </trkpt>
      <trkpt lat="44.93087" lon="0.88307">
        <ele>196.2</ele>
        <time>2025-05-10T08:42:00Z</time>
      </trkpt>
      <trkpt lat="44.93089" lon="0.88307">
        <ele>196.4</ele>
        <time>2025-05-10T08:42:01Z</time>
      </trkpt>
      <trkpt lat="44.93091" lon="0.88308">
        <ele>196.6</ele>
        <time>2025-05-10T08:42:02Z</time>
      </trkpt>
      <trkpt lat="44.93092" lon="0.88308">
        <ele>196.8</ele>
        <time>2025-05-10T08:42:03Z</time>
      </trkpt>
      <trkpt lat="44.93093" lon="0.88308">
        <ele>197</ele>
        <time>2025-05-10T08:42:04Z</time>
      </trkpt>
      <trkpt lat="44.93094" lon="0.88309">
        <ele>197</ele>
        <time>2025-05-10T08:42:05Z</time>
      </trkpt>
      <trkpt lat="44.93096" lon="0.88309">
        <ele>197.2</ele>
        <time>2025-05-10T08:42:06Z</time>
      </trkpt>
      <trkpt lat="44.93097" lon="0.8831">
        <ele>197.4</ele>
        <time>2025-05-10T08:42:07Z</time>
      </trkpt>
      <trkpt lat="44.93098" lon="0.8831">
        <ele>197.6</ele>
        <time>2025-05-10T08:42:08Z</time>
      </trkpt>
      <trkpt lat="44.93099" lon="0.88311">
        <ele>197.8</ele>
        <time>2025-05-10T08:42:09Z</time>
      </trkpt>
      <trkpt lat="44.93101" lon="0.88311">
        <ele>198</ele>
        <time>2025-05-10T08:42:10Z</time>
      </trkpt>
      <trkpt lat="44.93102" lon="0.88312">
        <ele>198</ele>
        <time>2025-05-10T08:42:11Z</time>
      </trkpt>
      <trkpt lat="44.93104" lon="0.88313">
        <ele>198.2</ele>
        <time>2025-05-10T08:42:12Z</time>
      </trkpt>
      <trkpt lat="44.93105" lon="0.88313">
        <ele>198.4</ele>
        <time>2025-05-10T08:42:13Z</time>
      </trkpt>
      <trkpt lat="44.93107" lon="0.88313">
        <ele>198.6</ele>
        <time>2025-05-10T08:42:14Z</time>
      </trkpt>
      <trkpt lat="44.93108" lon="0.88314">
        <ele>198.8</ele>
        <time>2025-05-10T08:42:15Z</time>
      </trkpt>
      <trkpt lat="44.9311" lon="0.88314">
        <ele>199</ele>
        <time>2025-05-10T08:42:16Z</time>
      </trkpt>
      <trkpt lat="44.93111" lon="0.88314">
        <ele>199.2</ele>
        <time>2025-05-10T08:42:17Z</time>
      </trkpt>
      <trkpt lat="44.93112" lon="0.88315">
        <ele>199.2</ele>
        <time>2025-05-10T08:42:18Z</time>
      </trkpt>
      <trkpt lat="44.93113" lon="0.88316">
        <ele>199.4</ele>
        <time>2025-05-10T08:42:19Z</time>
      </trkpt>
      <trkpt lat="44.93115" lon="0.88316">
        <ele>199.6</ele>
        <time>2025-05-10T08:42:20Z</time>
      </trkpt>
      <trkpt lat="44.93116" lon="0.88316">
        <ele>199.8</ele>
        <time>2025-05-10T08:42:21Z</time>
      </trkpt>
      <trkpt lat="44.93118" lon="0.88317">
        <ele>200.2</ele>
        <time>2025-05-10T08:42:22Z</time>
      </trkpt>
      <trkpt lat="44.93119" lon="0.88318">
        <ele>200.4</ele>
        <time>2025-05-10T08:42:23Z</time>
      </trkpt>
      <trkpt lat="44.9312" lon="0.88318">
        <ele>200.6</ele>
        <time>2025-05-10T08:42:24Z</time>
      </trkpt>
      <trkpt lat="44.93122" lon="0.88319">
        <ele>200.8</ele>
        <time>2025-05-10T08:42:25Z</time>
      </trkpt>
      <trkpt lat="44.93123" lon="0.8832">
        <ele>201</ele>
        <time>2025-05-10T08:42:26Z</time>
      </trkpt>
      <trkpt lat="44.93125" lon="0.88321">
        <ele>201.2</ele>
        <time>2025-05-10T08:42:27Z</time>
      </trkpt>
      <trkpt lat="44.93126" lon="0.88321">
        <ele>201.2</ele>
        <time>2025-05-10T08:42:28Z</time>
      </trkpt>
      <trkpt lat="44.93127" lon="0.88322">
        <ele>201.4</ele>
        <time>2025-05-10T08:42:29Z</time>
      </trkpt>
      <trkpt lat="44.93129" lon="0.88323">
        <ele>201.6</ele>
        <time>2025-05-10T08:42:30Z</time>
      </trkpt>
      <trkpt lat="44.9313" lon="0.88324">
        <ele>201.8</ele>
        <time>2025-05-10T08:42:31Z</time>
      </trkpt>
      <trkpt lat="44.93132" lon="0.88325">
        <ele>202</ele>
        <time>2025-05-10T08:42:32Z</time>
      </trkpt>
      <trkpt lat="44.93133" lon="0.88325">
        <ele>202.2</ele>
        <time>2025-05-10T08:42:33Z</time>
      </trkpt>
      <trkpt lat="44.93135" lon="0.88325">
        <ele>202.2</ele>
        <time>2025-05-10T08:42:34Z</time>
      </trkpt>
      <trkpt lat="44.93136" lon="0.88325">
        <ele>202.4</ele>
        <time>2025-05-10T08:42:35Z</time>
      </trkpt>
      <trkpt lat="44.93138" lon="0.88326">
        <ele>202.6</ele>
        <time>2025-05-10T08:42:36Z</time>
      </trkpt>
      <trkpt lat="44.93139" lon="0.88326">
        <ele>202.6</ele>
        <time>2025-05-10T08:42:37Z</time>
      </trkpt>
      <trkpt lat="44.93141" lon="0.88326">
        <ele>202.8</ele>
        <time>2025-05-10T08:42:38Z</time>
      </trkpt>
      <trkpt lat="44.93142" lon="0.88327">
        <ele>203</ele>
        <time>2025-05-10T08:42:39Z</time>
      </trkpt>
      <trkpt lat="44.93143" lon="0.88327">
        <ele>203</ele>
        <time>2025-05-10T08:42:40Z</time>
      </trkpt>
      <trkpt lat="44.93145" lon="0.88328">
        <ele>203.2</ele>
        <time>2025-05-10T08:42:41Z</time>
      </trkpt>
      <trkpt lat="44.93146" lon="0.88328">
        <ele>203.2</ele>
        <time>2025-05-10T08:42:42Z</time>
      </trkpt>
      <trkpt lat="44.93147" lon="0.88328">
        <ele>203.4</ele>
        <time>2025-05-10T08:42:43Z</time>
      </trkpt>
      <trkpt lat="44.93149" lon="0.88328">
        <ele>203.4</ele>
        <time>2025-05-10T08:42:44Z</time>
      </trkpt>
      <trkpt lat="44.9315" lon="0.88328">
        <ele>203.6</ele>
        <time>2025-05-10T08:42:45Z</time>
      </trkpt>
      <trkpt lat="44.93151" lon="0.88327">
        <ele>203.6</ele>
        <time>2025-05-10T08:42:46Z</time>
      </trkpt>
      <trkpt lat="44.93152" lon="0.88326">
        <ele>203.6</ele>
        <time>2025-05-10T08:42:47Z</time>
      </trkpt>
      <trkpt lat="44.93152" lon="0.88326">
        <ele>203.8</ele>
        <time>2025-05-10T08:42:48Z</time>
      </trkpt>
      <trkpt lat="44.93153" lon="0.88325">
        <ele>204</ele>
        <time>2025-05-10T08:42:49Z</time>
      </trkpt>
      <trkpt lat="44.93153" lon="0.88325">
        <ele>204.2</ele>
        <time>2025-05-10T08:42:50Z</time>
      </trkpt>
      <trkpt lat="44.93157" lon="0.8832">
        <ele>204.8</ele>
        <time>2025-05-10T08:47:09Z</time>
      </trkpt>
      <trkpt lat="44.93158" lon="0.88318">
        <ele>204.6</ele>
        <time>2025-05-10T08:47:10Z</time>
      </trkpt>
      <trkpt lat="44.93159" lon="0.88315">
        <ele>204.6</ele>
        <time>2025-05-10T08:47:11Z</time>
      </trkpt>
      <trkpt lat="44.9316" lon="0.88312">
        <ele>204.4</ele>
        <time>2025-05-10T08:47:12Z</time>
      </trkpt>
      <trkpt lat="44.93161" lon="0.88309">
        <ele>204.2</ele>
        <time>2025-05-10T08:47:13Z</time>
      </trkpt>
      <trkpt lat="44.93162" lon="0.88305">
        <ele>204.2</ele>
        <time>2025-05-10T08:47:14Z</time>
      </trkpt>
      <trkpt lat="44.93162" lon="0.883">
        <ele>204.2</ele>
        <time>2025-05-10T08:47:15Z</time>
      </trkpt>
      <trkpt lat="44.93163" lon="0.88296">
        <ele>204.2</ele>
        <time>2025-05-10T08:47:16Z</time>
      </trkpt>
      <trkpt lat="44.93164" lon="0.88291">
        <ele>204</ele>
        <time>2025-05-10T08:47:17Z</time>
      </trkpt>
      <trkpt lat="44.93165" lon="0.88285">
        <ele>204</ele>
        <time>2025-05-10T08:47:18Z</time>
      </trkpt>
      <trkpt lat="44.93167" lon="0.8828">
        <ele>203.8</ele>
        <time>2025-05-10T08:47:19Z</time>
      </trkpt>
      <trkpt lat="44.93168" lon="0.88274">
        <ele>203.8</ele>
        <time>2025-05-10T08:47:20Z</time>
      </trkpt>
      <trkpt lat="44.93169" lon="0.88269">
        <ele>203.8</ele>
        <time>2025-05-10T08:47:21Z</time>
      </trkpt>
      <trkpt lat="44.93171" lon="0.88264">
        <ele>203.6</ele>
        <time>2025-05-10T08:47:22Z</time>
      </trkpt>
      <trkpt lat="44.93172" lon="0.88259">
        <ele>203.6</ele>
        <time>2025-05-10T08:47:23Z</time>
      </trkpt>
      <trkpt lat="44.93172" lon="0.88254">
        <ele>203.6</ele>
        <time>2025-05-10T08:47:24Z</time>
      </trkpt>
      <trkpt lat="44.93173" lon="0.8825">
        <ele>203.6</ele>
        <time>2025-05-10T08:47:25Z</time>
      </trkpt>
      <trkpt lat="44.93175" lon="0.88244">
        <ele>203.6</ele>
        <time>2025-05-10T08:47:26Z</time>
      </trkpt>
      <trkpt lat="44.93176" lon="0.88239">
        <ele>203.6</ele>
        <time>2025-05-10T08:47:27Z</time>
      </trkpt>
      <trkpt lat="44.93177" lon="0.88234">
        <ele>203.4</ele>
        <time>2025-05-10T08:47:28Z</time>
      </trkpt>
      <trkpt lat="44.93179" lon="0.88228">
        <ele>203.4</ele>
        <time>2025-05-10T08:47:29Z</time>
      </trkpt>
      <trkpt lat="44.9318" lon="0.88222">
        <ele>203.4</ele>
        <time>2025-05-10T08:47:30Z</time>
      </trkpt>
      <trkpt lat="44.93182" lon="0.88217">
        <ele>203.4</ele>
        <time>2025-05-10T08:47:31Z</time>
      </trkpt>
      <trkpt lat="44.93183" lon="0.88211">
        <ele>203.4</ele>
        <time>2025-05-10T08:47:32Z</time>
      </trkpt>
      <trkpt lat="44.93184" lon="0.88205">
        <ele>203.4</ele>
        <time>2025-05-10T08:47:33Z</time>
      </trkpt>
      <trkpt lat="44.93185" lon="0.88199">
        <ele>203.4</ele>
        <time>2025-05-10T08:47:34Z</time>
      </trkpt>
      <trkpt lat="44.93186" lon="0.88193">
        <ele>203.4</ele>
        <time>2025-05-10T08:47:35Z</time>
      </trkpt>
      <trkpt lat="44.93188" lon="0.88186">
        <ele>203.4</ele>
        <time>2025-05-10T08:47:36Z</time>
      </trkpt>
      <trkpt lat="44.93189" lon="0.8818">
        <ele>203.4</ele>
        <time>2025-05-10T08:47:37Z</time>
      </trkpt>
      <trkpt lat="44.9319" lon="0.88174">
        <ele>203.2</ele>
        <time>2025-05-10T08:47:38Z</time>
      </trkpt>
      <trkpt lat="44.93191" lon="0.88167">
        <ele>203.2</ele>
        <time>2025-05-10T08:47:39Z</time>
      </trkpt>
      <trkpt lat="44.93192" lon="0.8816">
        <ele>203</ele>
        <time>2025-05-10T08:47:40Z</time>
      </trkpt>
      <trkpt lat="44.93193" lon="0.88153">
        <ele>203</ele>
        <time>2025-05-10T08:47:41Z</time>
      </trkpt>
      <trkpt lat="44.93194" lon="0.88147">
        <ele>203</ele>
        <time>2025-05-10T08:47:42Z</time>
      </trkpt>
      <trkpt lat="44.93195" lon="0.88141">
        <ele>203</ele>
        <time>2025-05-10T08:47:43Z</time>
      </trkpt>
      <trkpt lat="44.93196" lon="0.88134">
        <ele>203</ele>
        <time>2025-05-10T08:47:44Z</time>
      </trkpt>
      <trkpt lat="44.93196" lon="0.88128">
        <ele>203</ele>
        <time>2025-05-10T08:47:45Z</time>
      </trkpt>
      <trkpt lat="44.93198" lon="0.88122">
        <ele>203.4</ele>
        <time>2025-05-10T08:47:46Z</time>
      </trkpt>
      <trkpt lat="44.93199" lon="0.88116">
        <ele>203.4</ele>
        <time>2025-05-10T08:47:47Z</time>
      </trkpt>
      <trkpt lat="44.932" lon="0.8811">
        <ele>203.6</ele>
        <time>2025-05-10T08:47:48Z</time>
      </trkpt>
      <trkpt lat="44.932" lon="0.88103">
        <ele>203.6</ele>
        <time>2025-05-10T08:47:49Z</time>
      </trkpt>
      <trkpt lat="44.93201" lon="0.88097">
        <ele>203.4</ele>
        <time>2025-05-10T08:47:50Z</time>
      </trkpt>
      <trkpt lat="44.93202" lon="0.88091">
        <ele>203.4</ele>
        <time>2025-05-10T08:47:51Z</time>
      </trkpt>
      <trkpt lat="44.93203" lon="0.88084">
        <ele>203.4</ele>
        <time>2025-05-10T08:47:52Z</time>
      </trkpt>
      <trkpt lat="44.93204" lon="0.88078">
        <ele>203.4</ele>
        <time>2025-05-10T08:47:53Z</time>
      </trkpt>
      <trkpt lat="44.93205" lon="0.88072">
        <ele>203.6</ele>
        <time>2025-05-10T08:47:54Z</time>
      </trkpt>
      <trkpt lat="44.93205" lon="0.88066">
        <ele>203.8</ele>
        <time>2025-05-10T08:47:55Z</time>
      </trkpt>
      <trkpt lat="44.93206" lon="0.88061">
        <ele>204.2</ele>
        <time>2025-05-10T08:47:56Z</time>
      </trkpt>
      <trkpt lat="44.93207" lon="0.88055">
        <ele>204.4</ele>
        <time>2025-05-10T08:47:57Z</time>
      </trkpt>
      <trkpt lat="44.93208" lon="0.88049">
        <ele>204.6</ele>
        <time>2025-05-10T08:47:58Z</time>
      </trkpt>
      <trkpt lat="44.93209" lon="0.88044">
        <ele>204.8</ele>
        <time>2025-05-10T08:47:59Z</time>
      </trkpt>
      <trkpt lat="44.9321" lon="0.88039">
        <ele>204.8</ele>
        <time>2025-05-10T08:48:00Z</time>
      </trkpt>
      <trkpt lat="44.93211" lon="0.88033">
        <ele>205.2</ele>
        <time>2025-05-10T08:48:01Z</time>
      </trkpt>
      <trkpt lat="44.93211" lon="0.88027">
        <ele>205.4</ele>
        <time>2025-05-10T08:48:02Z</time>
      </trkpt>
      <trkpt lat="44.93212" lon="0.88021">
        <ele>205.6</ele>
        <time>2025-05-10T08:48:03Z</time>
      </trkpt>
      <trkpt lat="44.93213" lon="0.88016">
        <ele>205.8</ele>
        <time>2025-05-10T08:48:04Z</time>
      </trkpt>
      <trkpt lat="44.93214" lon="0.88011">
        <ele>206</ele>
        <time>2025-05-10T08:48:05Z</time>
      </trkpt>
      <trkpt lat="44.93214" lon="0.88006">
        <ele>206</ele>
        <time>2025-05-10T08:48:06Z</time>
      </trkpt>
      <trkpt lat="44.93215" lon="0.88">
        <ele>206.4</ele>
        <time>2025-05-10T08:48:07Z</time>
      </trkpt>
      <trkpt lat="44.93216" lon="0.87995">
        <ele>206.4</ele>
        <time>2025-05-10T08:48:08Z</time>
      </trkpt>
      <trkpt lat="44.93216" lon="0.8799">
        <ele>206.6</ele>
        <time>2025-05-10T08:48:09Z</time>
      </trkpt>
      <trkpt lat="44.93217" lon="0.87984">
        <ele>206.6</ele>
        <time>2025-05-10T08:48:10Z</time>
      </trkpt>
      <trkpt lat="44.93218" lon="0.87978">
        <ele>206.6</ele>
        <time>2025-05-10T08:48:11Z</time>
      </trkpt>
      <trkpt lat="44.93218" lon="0.87972">
        <ele>206.8</ele>
        <time>2025-05-10T08:48:12Z</time>
      </trkpt>
      <trkpt lat="44.93219" lon="0.87967">
        <ele>207</ele>
        <time>2025-05-10T08:48:13Z</time>
      </trkpt>
      <trkpt lat="44.93219" lon="0.87962">
        <ele>207.2</ele>
        <time>2025-05-10T08:48:14Z</time>
      </trkpt>
      <trkpt lat="44.93219" lon="0.87957">
        <ele>207.4</ele>
        <time>2025-05-10T08:48:15Z</time>
      </trkpt>
      <trkpt lat="44.93219" lon="0.87952">
        <ele>207.6</ele>
        <time>2025-05-10T08:48:16Z</time>
      </trkpt>
      <trkpt lat="44.9322" lon="0.87947">
        <ele>207.6</ele>
        <time>2025-05-10T08:48:17Z</time>
      </trkpt>
      <trkpt lat="44.9322" lon="0.87943">
        <ele>207.8</ele>
        <time>2025-05-10T08:48:18Z</time>
      </trkpt>
      <trkpt lat="44.9322" lon="0.87939">
        <ele>208</ele>
        <time>2025-05-10T08:48:19Z</time>
      </trkpt>
      <trkpt lat="44.93219" lon="0.87935">
        <ele>208.2</ele>
        <time>2025-05-10T08:48:20Z</time>
      </trkpt>
      <trkpt lat="44.93219" lon="0.8793">
        <ele>208.4</ele>
        <time>2025-05-10T08:48:21Z</time>
      </trkpt>
      <trkpt lat="44.93218" lon="0.87926">
        <ele>208.6</ele>
        <time>2025-05-10T08:48:22Z</time>
      </trkpt>
      <trkpt lat="44.93218" lon="0.87921">
        <ele>208.8</ele>
        <time>2025-05-10T08:48:23Z</time>
      </trkpt>
      <trkpt lat="44.93218" lon="0.87917">
        <ele>209</ele>
        <time>2025-05-10T08:48:24Z</time>
      </trkpt>
      <trkpt lat="44.93217" lon="0.87912">
        <ele>209.2</ele>
        <time>2025-05-10T08:48:25Z</time>
      </trkpt>
      <trkpt lat="44.93216" lon="0.87907">
        <ele>209.4</ele>
        <time>2025-05-10T08:48:26Z</time>
      </trkpt>
      <trkpt lat="44.93215" lon="0.87902">
        <ele>209.6</ele>
        <time>2025-05-10T08:48:27Z</time>
      </trkpt>
      <trkpt lat="44.93215" lon="0.87898">
        <ele>209.6</ele>
        <time>2025-05-10T08:48:28Z</time>
      </trkpt>
      <trkpt lat="44.93215" lon="0.87894">
        <ele>210</ele>
        <time>2025-05-10T08:48:29Z</time>
      </trkpt>
      <trkpt lat="44.93215" lon="0.8789">
        <ele>210.2</ele>
        <time>2025-05-10T08:48:30Z</time>
      </trkpt>
      <trkpt lat="44.93215" lon="0.87887">
        <ele>210.4</ele>
        <time>2025-05-10T08:48:31Z</time>
      </trkpt>
      <trkpt lat="44.93215" lon="0.87883">
        <ele>210.6</ele>
        <time>2025-05-10T08:48:32Z</time>
      </trkpt>
      <trkpt lat="44.93215" lon="0.87879">
        <ele>210.8</ele>
        <time>2025-05-10T08:48:33Z</time>
      </trkpt>
      <trkpt lat="44.93215" lon="0.87876">
        <ele>211</ele>
        <time>2025-05-10T08:48:34Z</time>
      </trkpt>
      <trkpt lat="44.93215" lon="0.87872">
        <ele>211.2</ele>
        <time>2025-05-10T08:48:35Z</time>
      </trkpt>
      <trkpt lat="44.93215" lon="0.87869">
        <ele>211.6</ele>
        <time>2025-05-10T08:48:36Z</time>
      </trkpt>
      <trkpt lat="44.93215" lon="0.87866">
        <ele>211.8</ele>
        <time>2025-05-10T08:48:37Z</time>
      </trkpt>
      <trkpt lat="44.93215" lon="0.87862">
        <ele>211.8</ele>
        <time>2025-05-10T08:48:38Z</time>
      </trkpt>
      <trkpt lat="44.93216" lon="0.87859">
        <ele>211.8</ele>
        <time>2025-05-10T08:48:39Z</time>
      </trkpt>
      <trkpt lat="44.93217" lon="0.87856">
        <ele>212</ele>
        <time>2025-05-10T08:48:40Z</time>
      </trkpt>
      <trkpt lat="44.93217" lon="0.87852">
        <ele>212.2</ele>
        <time>2025-05-10T08:48:41Z</time>
      </trkpt>
      <trkpt lat="44.93218" lon="0.87849">
        <ele>212.6</ele>
        <time>2025-05-10T08:48:42Z</time>
      </trkpt>
      <trkpt lat="44.93218" lon="0.87846">
        <ele>212.6</ele>
        <time>2025-05-10T08:48:43Z</time>
      </trkpt>
      <trkpt lat="44.93219" lon="0.87843">
        <ele>212.8</ele>
        <time>2025-05-10T08:48:44Z</time>
      </trkpt>
      <trkpt lat="44.9322" lon="0.87839">
        <ele>213</ele>
        <time>2025-05-10T08:48:45Z</time>
      </trkpt>
      <trkpt lat="44.9322" lon="0.87836">
        <ele>213.2</ele>
        <time>2025-05-10T08:48:46Z</time>
      </trkpt>
      <trkpt lat="44.93221" lon="0.87833">
        <ele>213.2</ele>
        <time>2025-05-10T08:48:47Z</time>
      </trkpt>
      <trkpt lat="44.93222" lon="0.8783">
        <ele>213.4</ele>
        <time>2025-05-10T08:48:48Z</time>
      </trkpt>
      <trkpt lat="44.93223" lon="0.87826">
        <ele>213.6</ele>
        <time>2025-05-10T08:48:49Z</time>
      </trkpt>
      <trkpt lat="44.93224" lon="0.87823">
        <ele>213.8</ele>
        <time>2025-05-10T08:48:50Z</time>
      </trkpt>
      <trkpt lat="44.93225" lon="0.8782">
        <ele>214.2</ele>
        <time>2025-05-10T08:48:51Z</time>
      </trkpt>
      <trkpt lat="44.93226" lon="0.87817">
        <ele>214.4</ele>
        <time>2025-05-10T08:48:52Z</time>
      </trkpt>
      <trkpt lat="44.93228" lon="0.87814">
        <ele>214.6</ele>
        <time>2025-05-10T08:48:53Z</time>
      </trkpt>
      <trkpt lat="44.93229" lon="0.87811">
        <ele>214.8</ele>
        <time>2025-05-10T08:48:54Z</time>
      </trkpt>
      <trkpt lat="44.9323" lon="0.87808">
        <ele>214.8</ele>
        <time>2025-05-10T08:48:55Z</time>
      </trkpt>
      <trkpt lat="44.93232" lon="0.87805">
        <ele>215</ele>
        <time>2025-05-10T08:48:56Z</time>
      </trkpt>
      <trkpt lat="44.93234" lon="0.87802">
        <ele>215.2</ele>
        <time>2025-05-10T08:48:57Z</time>
      </trkpt>
      <trkpt lat="44.93235" lon="0.878">
        <ele>215.4</ele>
        <time>2025-05-10T08:48:58Z</time>
      </trkpt>
      <trkpt lat="44.93236" lon="0.87797">
        <ele>215.4</ele>
        <time>2025-05-10T08:48:59Z</time>
      </trkpt>
      <trkpt lat="44.93237" lon="0.87794">
        <ele>215.6</ele>
        <time>2025-05-10T08:49:00Z</time>
      </trkpt>
      <trkpt lat="44.93239" lon="0.87791">
        <ele>215.8</ele>
        <time>2025-05-10T08:49:01Z</time>
      </trkpt>
      <trkpt lat="44.9324" lon="0.87788">
        <ele>216.4</ele>
        <time>2025-05-10T08:49:02Z</time>
      </trkpt>
      <trkpt lat="44.93241" lon="0.87786">
        <ele>216.6</ele>
        <time>2025-05-10T08:49:03Z</time>
      </trkpt>
      <trkpt lat="44.93242" lon="0.87783">
        <ele>216.6</ele>
        <time>2025-05-10T08:49:04Z</time>
      </trkpt>
      <trkpt lat="44.93244" lon="0.87781">
        <ele>216.8</ele>
        <time>2025-05-10T08:49:05Z</time>
      </trkpt>
      <trkpt lat="44.93246" lon="0.87778">
        <ele>216.8</ele>
        <time>2025-05-10T08:49:06Z</time>
      </trkpt>
      <trkpt lat="44.93247" lon="0.87776">
        <ele>216.8</ele>
        <time>2025-05-10T08:49:07Z</time>
      </trkpt>
      <trkpt lat="44.93249" lon="0.87773">
        <ele>216.8</ele>
        <time>2025-05-10T08:49:08Z</time>
      </trkpt>
      <trkpt lat="44.93251" lon="0.8777">
        <ele>217</ele>
        <time>2025-05-10T08:49:09Z</time>
      </trkpt>
      <trkpt lat="44.93252" lon="0.87767">
        <ele>217.2</ele>
        <time>2025-05-10T08:49:10Z</time>
      </trkpt>
      <trkpt lat="44.93253" lon="0.87764">
        <ele>217.4</ele>
        <time>2025-05-10T08:49:11Z</time>
      </trkpt>
      <trkpt lat="44.93255" lon="0.87761">
        <ele>217.6</ele>
        <time>2025-05-10T08:49:12Z</time>
      </trkpt>
      <trkpt lat="44.93256" lon="0.87759">
        <ele>217.8</ele>
        <time>2025-05-10T08:49:13Z</time>
      </trkpt>
      <trkpt lat="44.93258" lon="0.87756">
        <ele>218</ele>
        <time>2025-05-10T08:49:14Z</time>
      </trkpt>
      <trkpt lat="44.93259" lon="0.87754">
        <ele>218</ele>
        <time>2025-05-10T08:49:15Z</time>
      </trkpt>
      <trkpt lat="44.93261" lon="0.87751">
        <ele>218.2</ele>
        <time>2025-05-10T08:49:16Z</time>
      </trkpt>
      <trkpt lat="44.93262" lon="0.87748">
        <ele>218.4</ele>
        <time>2025-05-10T08:49:17Z</time>
      </trkpt>
      <trkpt lat="44.93263" lon="0.87745">
        <ele>218.6</ele>
        <time>2025-05-10T08:49:18Z</time>
      </trkpt>
      <trkpt lat="44.93264" lon="0.87742">
        <ele>218.6</ele>
        <time>2025-05-10T08:49:19Z</time>
      </trkpt>
      <trkpt lat="44.93265" lon="0.8774">
        <ele>218.8</ele>
        <time>2025-05-10T08:49:20Z</time>
      </trkpt>
      <trkpt lat="44.93266" lon="0.87737">
        <ele>219</ele>
        <time>2025-05-10T08:49:21Z</time>
      </trkpt>
      <trkpt lat="44.93267" lon="0.87734">
        <ele>219.2</ele>
        <time>2025-05-10T08:49:22Z</time>
      </trkpt>
      <trkpt lat="44.93268" lon="0.87731">
        <ele>219.6</ele>
        <time>2025-05-10T08:49:23Z</time>
      </trkpt>
      <trkpt lat="44.93269" lon="0.87728">
        <ele>219.6</ele>
        <time>2025-05-10T08:49:24Z</time>
      </trkpt>
      <trkpt lat="44.93269" lon="0.87725">
        <ele>219.8</ele>
        <time>2025-05-10T08:49:25Z</time>
      </trkpt>
      <trkpt lat="44.93269" lon="0.87721">
        <ele>220</ele>
        <time>2025-05-10T08:49:26Z</time>
      </trkpt>
      <trkpt lat="44.93269" lon="0.87718">
        <ele>220.2</ele>
        <time>2025-05-10T08:49:27Z</time>
      </trkpt>
      <trkpt lat="44.9327" lon="0.87715">
        <ele>220.2</ele>
        <time>2025-05-10T08:49:28Z</time>
      </trkpt>
      <trkpt lat="44.9327" lon="0.87711">
        <ele>220.4</ele>
        <time>2025-05-10T08:49:29Z</time>
      </trkpt>
      <trkpt lat="44.93269" lon="0.87707">
        <ele>220.6</ele>
        <time>2025-05-10T08:49:30Z</time>
      </trkpt>
      <trkpt lat="44.93269" lon="0.87704">
        <ele>220.8</ele>
        <time>2025-05-10T08:49:31Z</time>
      </trkpt>
      <trkpt lat="44.93269" lon="0.877">
        <ele>220.8</ele>
        <time>2025-05-10T08:49:32Z</time>
      </trkpt>
      <trkpt lat="44.93268" lon="0.87696">
        <ele>221</ele>
        <time>2025-05-10T08:49:33Z</time>
      </trkpt>
      <trkpt lat="44.93268" lon="0.87692">
        <ele>221</ele>
        <time>2025-05-10T08:49:34Z</time>
      </trkpt>
      <trkpt lat="44.93267" lon="0.87687">
        <ele>221</ele>
        <time>2025-05-10T08:49:35Z</time>
      </trkpt>
      <trkpt lat="44.93266" lon="0.87683">
        <ele>221.2</ele>
        <time>2025-05-10T08:49:36Z</time>
      </trkpt>
      <trkpt lat="44.93266" lon="0.87679">
        <ele>221.2</ele>
        <time>2025-05-10T08:49:37Z</time>
      </trkpt>
      <trkpt lat="44.93265" lon="0.87675">
        <ele>221.2</ele>
        <time>2025-05-10T08:49:38Z</time>
      </trkpt>
      <trkpt lat="44.93265" lon="0.87671">
        <ele>221.2</ele>
        <time>2025-05-10T08:49:39Z</time>
      </trkpt>
      <trkpt lat="44.93265" lon="0.87667">
        <ele>221</ele>
        <time>2025-05-10T08:49:40Z</time>
      </trkpt>
      <trkpt lat="44.93264" lon="0.87663">
        <ele>221</ele>
        <time>2025-05-10T08:49:41Z</time>
      </trkpt>
      <trkpt lat="44.93264" lon="0.87659">
        <ele>220.8</ele>
        <time>2025-05-10T08:49:42Z</time>
      </trkpt>
      <trkpt lat="44.93263" lon="0.87654">
        <ele>220.8</ele>
        <time>2025-05-10T08:49:43Z</time>
      </trkpt>
      <trkpt lat="44.93263" lon="0.8765">
        <ele>220.8</ele>
        <time>2025-05-10T08:49:44Z</time>
      </trkpt>
      <trkpt lat="44.93262" lon="0.87645">
        <ele>220.8</ele>
        <time>2025-05-10T08:49:45Z</time>
      </trkpt>
      <trkpt lat="44.93262" lon="0.87641">
        <ele>220.8</ele>
        <time>2025-05-10T08:49:46Z</time>
      </trkpt>
      <trkpt lat="44.93261" lon="0.87636">
        <ele>221</ele>
        <time>2025-05-10T08:49:47Z</time>
      </trkpt>
      <trkpt lat="44.93261" lon="0.87632">
        <ele>221</ele>
        <time>2025-05-10T08:49:48Z</time>
      </trkpt>
      <trkpt lat="44.93261" lon="0.87629">
        <ele>221</ele>
        <time>2025-05-10T08:49:49Z</time>
      </trkpt>
      <trkpt lat="44.93261" lon="0.87625">
        <ele>221.2</ele>
        <time>2025-05-10T08:49:50Z</time>
      </trkpt>
      <trkpt lat="44.93264" lon="0.87624">
        <ele>221.4</ele>
        <time>2025-05-10T08:49:51Z</time>
      </trkpt>
      <trkpt lat="44.93267" lon="0.87626">
        <ele>221.4</ele>
        <time>2025-05-10T08:49:52Z</time>
      </trkpt>
      <trkpt lat="44.9327" lon="0.87629">
        <ele>221.4</ele>
        <time>2025-05-10T08:49:53Z</time>
      </trkpt>
      <trkpt lat="44.93273" lon="0.87634">
        <ele>221.4</ele>
        <time>2025-05-10T08:49:54Z</time>
      </trkpt>
      <trkpt lat="44.93277" lon="0.8764">
        <ele>221.2</ele>
        <time>2025-05-10T08:49:55Z</time>
      </trkpt>
      <trkpt lat="44.9328" lon="0.87646">
        <ele>220.6</ele>
        <time>2025-05-10T08:49:56Z</time>
      </trkpt>
      <trkpt lat="44.93284" lon="0.87653">
        <ele>220</ele>
        <time>2025-05-10T08:49:57Z</time>
      </trkpt>
      <trkpt lat="44.93287" lon="0.87659">
        <ele>219.6</ele>
        <time>2025-05-10T08:49:58Z</time>
      </trkpt>
      <trkpt lat="44.93291" lon="0.87664">
        <ele>219.2</ele>
        <time>2025-05-10T08:49:59Z</time>
      </trkpt>
      <trkpt lat="44.93294" lon="0.8767">
        <ele>218.8</ele>
        <time>2025-05-10T08:50:00Z</time>
      </trkpt>
      <trkpt lat="44.93298" lon="0.87675">
        <ele>218.6</ele>
        <time>2025-05-10T08:50:01Z</time>
      </trkpt>
      <trkpt lat="44.93301" lon="0.87681">
        <ele>218.4</ele>
        <time>2025-05-10T08:50:02Z</time>
      </trkpt>
      <trkpt lat="44.93304" lon="0.87686">
        <ele>218.4</ele>
        <time>2025-05-10T08:50:03Z</time>
      </trkpt>
      <trkpt lat="44.93306" lon="0.87692">
        <ele>218.4</ele>
        <time>2025-05-10T08:50:04Z</time>
      </trkpt>
      <trkpt lat="44.93309" lon="0.87698">
        <ele>218.2</ele>
        <time>2025-05-10T08:50:05Z</time>
      </trkpt>
      <trkpt lat="44.93311" lon="0.87704">
        <ele>218.2</ele>
        <time>2025-05-10T08:50:06Z</time>
      </trkpt>
      <trkpt lat="44.93314" lon="0.8771">
        <ele>218.2</ele>
        <time>2025-05-10T08:50:07Z</time>
      </trkpt>
      <trkpt lat="44.93316" lon="0.87716">
        <ele>218.2</ele>
        <time>2025-05-10T08:50:08Z</time>
      </trkpt>
      <trkpt lat="44.93318" lon="0.87721">
        <ele>218</ele>
        <time>2025-05-10T08:50:09Z</time>
      </trkpt>
      <trkpt lat="44.93321" lon="0.87728">
        <ele>217.8</ele>
        <time>2025-05-10T08:50:10Z</time>
      </trkpt>
      <trkpt lat="44.93324" lon="0.87734">
        <ele>217.8</ele>
        <time>2025-05-10T08:50:11Z</time>
      </trkpt>
      <trkpt lat="44.93327" lon="0.8774">
        <ele>217.6</ele>
        <time>2025-05-10T08:50:12Z</time>
      </trkpt>
      <trkpt lat="44.93331" lon="0.87744">
        <ele>217.6</ele>
        <time>2025-05-10T08:50:13Z</time>
      </trkpt>
      <trkpt lat="44.93334" lon="0.87749">
        <ele>217.2</ele>
        <time>2025-05-10T08:50:14Z</time>
      </trkpt>
      <trkpt lat="44.93338" lon="0.87753">
        <ele>217</ele>
        <time>2025-05-10T08:50:15Z</time>
      </trkpt>
      <trkpt lat="44.93342" lon="0.87757">
        <ele>216.8</ele>
        <time>2025-05-10T08:50:16Z</time>
      </trkpt>
      <trkpt lat="44.93347" lon="0.8776">
        <ele>216.8</ele>
        <time>2025-05-10T08:50:17Z</time>
      </trkpt>
      <trkpt lat="44.93352" lon="0.87761">
        <ele>216.6</ele>
        <time>2025-05-10T08:50:18Z</time>
      </trkpt>
      <trkpt lat="44.93357" lon="0.8776">
        <ele>216.2</ele>
        <time>2025-05-10T08:50:19Z</time>
      </trkpt>
      <trkpt lat="44.93361" lon="0.87756">
        <ele>216</ele>
        <time>2025-05-10T08:50:20Z</time>
      </trkpt>
      <trkpt lat="44.93364" lon="0.8775">
        <ele>215.6</ele>
        <time>2025-05-10T08:50:21Z</time>
      </trkpt>
      <trkpt lat="44.93367" lon="0.87744">
        <ele>215</ele>
        <time>2025-05-10T08:50:22Z</time>
      </trkpt>
      <trkpt lat="44.9337" lon="0.87738">
        <ele>214.6</ele>
        <time>2025-05-10T08:50:23Z</time>
      </trkpt>
      <trkpt lat="44.93373" lon="0.87731">
        <ele>214.4</ele>
        <time>2025-05-10T08:50:24Z</time>
      </trkpt>
      <trkpt lat="44.93376" lon="0.87725">
        <ele>214</ele>
        <time>2025-05-10T08:50:25Z</time>
      </trkpt>
      <trkpt lat="44.93379" lon="0.87718">
        <ele>213.8</ele>
        <time>2025-05-10T08:50:26Z</time>
      </trkpt>
      <trkpt lat="44.93383" lon="0.87711">
        <ele>213.6</ele>
        <time>2025-05-10T08:50:27Z</time>
      </trkpt>
      <trkpt lat="44.93387" lon="0.87703">
        <ele>213</ele>
        <time>2025-05-10T08:50:28Z</time>
      </trkpt>
      <trkpt lat="44.93391" lon="0.87693">
        <ele>212.4</ele>
        <time>2025-05-10T08:50:29Z</time>
      </trkpt>
      <trkpt lat="44.93395" lon="0.87683">
        <ele>212</ele>
        <time>2025-05-10T08:50:30Z</time>
      </trkpt>
      <trkpt lat="44.934" lon="0.87674">
        <ele>211.2</ele>
        <time>2025-05-10T08:50:31Z</time>
      </trkpt>
      <trkpt lat="44.93406" lon="0.87666">
        <ele>210.2</ele>
        <time>2025-05-10T08:50:32Z</time>
      </trkpt>
      <trkpt lat="44.93414" lon="0.87657">
        <ele>209.4</ele>
        <time>2025-05-10T08:50:33Z</time>
      </trkpt>
      <trkpt lat="44.93422" lon="0.87647">
        <ele>208.2</ele>
        <time>2025-05-10T08:50:34Z</time>
      </trkpt>
      <trkpt lat="44.9343" lon="0.87637">
        <ele>207.4</ele>
        <time>2025-05-10T08:50:35Z</time>
      </trkpt>
      <trkpt lat="44.93438" lon="0.87626">
        <ele>205.2</ele>
        <time>2025-05-10T08:50:36Z</time>
      </trkpt>
      <trkpt lat="44.93447" lon="0.87615">
        <ele>204</ele>
        <time>2025-05-10T08:50:37Z</time>
      </trkpt>
      <trkpt lat="44.93456" lon="0.87603">
        <ele>202.6</ele>
        <time>2025-05-10T08:50:38Z</time>
      </trkpt>
      <trkpt lat="44.93465" lon="0.87592">
        <ele>201.8</ele>
        <time>2025-05-10T08:50:39Z</time>
      </trkpt>
      <trkpt lat="44.93475" lon="0.87581">
        <ele>199.2</ele>
        <time>2025-05-10T08:50:40Z</time>
      </trkpt>
      <trkpt lat="44.93485" lon="0.87569">
        <ele>197.4</ele>
        <time>2025-05-10T08:50:41Z</time>
      </trkpt>
      <trkpt lat="44.93495" lon="0.87558">
        <ele>195</ele>
        <time>2025-05-10T08:50:42Z</time>
      </trkpt>
      <trkpt lat="44.93506" lon="0.87547">
        <ele>193.2</ele>
        <time>2025-05-10T08:50:43Z</time>
      </trkpt>
      <trkpt lat="44.93517" lon="0.87537">
        <ele>191.4</ele>
        <time>2025-05-10T08:50:44Z</time>
      </trkpt>
      <trkpt lat="44.93528" lon="0.87527">
        <ele>189.6</ele>
        <time>2025-05-10T08:50:45Z</time>
      </trkpt>
      <trkpt lat="44.93539" lon="0.87517">
        <ele>187.8</ele>
        <time>2025-05-10T08:50:46Z</time>
      </trkpt>
      <trkpt lat="44.93549" lon="0.87507">
        <ele>185.6</ele>
        <time>2025-05-10T08:50:47Z</time>
      </trkpt>
      <trkpt lat="44.9356" lon="0.87498">
        <ele>184.2</ele>
        <time>2025-05-10T08:50:48Z</time>
      </trkpt>
      <trkpt lat="44.93569" lon="0.87487">
        <ele>182.2</ele>
        <time>2025-05-10T08:50:49Z</time>
      </trkpt>
      <trkpt lat="44.93577" lon="0.87475">
        <ele>181.4</ele>
        <time>2025-05-10T08:50:50Z</time>
      </trkpt>
      <trkpt lat="44.93585" lon="0.87465">
        <ele>180.8</ele>
        <time>2025-05-10T08:50:51Z</time>
      </trkpt>
      <trkpt lat="44.93593" lon="0.87457">
        <ele>179.6</ele>
        <time>2025-05-10T08:50:52Z</time>
      </trkpt>
      <trkpt lat="44.936" lon="0.87449">
        <ele>179.2</ele>
        <time>2025-05-10T08:50:53Z</time>
      </trkpt>
      <trkpt lat="44.93605" lon="0.87441">
        <ele>178.6</ele>
        <time>2025-05-10T08:50:54Z</time>
      </trkpt>
      <trkpt lat="44.9361" lon="0.87431">
        <ele>177.8</ele>
        <time>2025-05-10T08:50:55Z</time>
      </trkpt>
      <trkpt lat="44.93613" lon="0.8742">
        <ele>177.2</ele>
        <time>2025-05-10T08:50:56Z</time>
      </trkpt>
      <trkpt lat="44.93617" lon="0.87411">
        <ele>177</ele>
        <time>2025-05-10T08:50:57Z</time>
      </trkpt>
      <trkpt lat="44.93621" lon="0.874">
        <ele>176.4</ele>
        <time>2025-05-10T08:50:58Z</time>
      </trkpt>
      <trkpt lat="44.93625" lon="0.87391">
        <ele>175.8</ele>
        <time>2025-05-10T08:50:59Z</time>
      </trkpt>
      <trkpt lat="44.93629" lon="0.87383">
        <ele>175.4</ele>
        <time>2025-05-10T08:51:00Z</time>
      </trkpt>
      <trkpt lat="44.93632" lon="0.87375">
        <ele>175.4</ele>
        <time>2025-05-10T08:51:01Z</time>
      </trkpt>
      <trkpt lat="44.93635" lon="0.87369">
        <ele>175.4</ele>
        <time>2025-05-10T08:51:02Z</time>
      </trkpt>
      <trkpt lat="44.93638" lon="0.87364">
        <ele>175.4</ele>
        <time>2025-05-10T08:51:03Z</time>
      </trkpt>
      <trkpt lat="44.93641" lon="0.87359">
        <ele>176.2</ele>
        <time>2025-05-10T08:51:04Z</time>
      </trkpt>
      <trkpt lat="44.93643" lon="0.87355">
        <ele>177</ele>
        <time>2025-05-10T08:51:05Z</time>
      </trkpt>
      <trkpt lat="44.93645" lon="0.8735">
        <ele>177.6</ele>
        <time>2025-05-10T08:51:06Z</time>
      </trkpt>
      <trkpt lat="44.93647" lon="0.87346">
        <ele>178.2</ele>
        <time>2025-05-10T08:51:07Z</time>
      </trkpt>
      <trkpt lat="44.93649" lon="0.87342">
        <ele>179</ele>
        <time>2025-05-10T08:51:08Z</time>
      </trkpt>
      <trkpt lat="44.93651" lon="0.87338">
        <ele>179.4</ele>
        <time>2025-05-10T08:51:09Z</time>
      </trkpt>
      <trkpt lat="44.93652" lon="0.87334">
        <ele>179.6</ele>
        <time>2025-05-10T08:51:10Z</time>
      </trkpt>
      <trkpt lat="44.93654" lon="0.8733">
        <ele>180</ele>
        <time>2025-05-10T08:51:11Z</time>
      </trkpt>
      <trkpt lat="44.93656" lon="0.87325">
        <ele>180.4</ele>
        <time>2025-05-10T08:51:12Z</time>
      </trkpt>
      <trkpt lat="44.93658" lon="0.87322">
        <ele>180.8</ele>
        <time>2025-05-10T08:51:13Z</time>
      </trkpt>
      <trkpt lat="44.9366" lon="0.87317">
        <ele>181</ele>
        <time>2025-05-10T08:51:14Z</time>
      </trkpt>
      <trkpt lat="44.93662" lon="0.87313">
        <ele>181.2</ele>
        <time>2025-05-10T08:51:15Z</time>
      </trkpt>
      <trkpt lat="44.93665" lon="0.87308">
        <ele>181.4</ele>
        <time>2025-05-10T08:51:16Z</time>
      </trkpt>
      <trkpt lat="44.93667" lon="0.87304">
        <ele>181.4</ele>
        <time>2025-05-10T08:51:17Z</time>
      </trkpt>
      <trkpt lat="44.9367" lon="0.87299">
        <ele>181.4</ele>
        <time>2025-05-10T08:51:18Z</time>
      </trkpt>
      <trkpt lat="44.93672" lon="0.87294">
        <ele>181.4</ele>
        <time>2025-05-10T08:51:19Z</time>
      </trkpt>
      <trkpt lat="44.93675" lon="0.87289">
        <ele>181.4</ele>
        <time>2025-05-10T08:51:20Z</time>
      </trkpt>
      <trkpt lat="44.93678" lon="0.87283">
        <ele>181.4</ele>
        <time>2025-05-10T08:51:21Z</time>
      </trkpt>
      <trkpt lat="44.93681" lon="0.87277">
        <ele>181.2</ele>
        <time>2025-05-10T08:51:22Z</time>
      </trkpt>
      <trkpt lat="44.93685" lon="0.8727">
        <ele>180.8</ele>
        <time>2025-05-10T08:51:23Z</time>
      </trkpt>
      <trkpt lat="44.93688" lon="0.87263">
        <ele>180.4</ele>
        <time>2025-05-10T08:51:24Z</time>
      </trkpt>
      <trkpt lat="44.93691" lon="0.87255">
        <ele>180</ele>
        <time>2025-05-10T08:51:25Z</time>
      </trkpt>
      <trkpt lat="44.93694" lon="0.87247">
        <ele>179.2</ele>
        <time>2025-05-10T08:51:26Z</time>
      </trkpt>
      <trkpt lat="44.93697" lon="0.8724">
        <ele>178.6</ele>
        <time>2025-05-10T08:51:27Z</time>
      </trkpt>
      <trkpt lat="44.937" lon="0.87233">
        <ele>178</ele>
        <time>2025-05-10T08:51:28Z</time>
      </trkpt>
      <trkpt lat="44.93703" lon="0.87227">
        <ele>177.8</ele>
        <time>2025-05-10T08:51:29Z</time>
      </trkpt>
      <trkpt lat="44.93706" lon="0.87221">
        <ele>177.8</ele>
        <time>2025-05-10T08:51:30Z</time>
      </trkpt>
      <trkpt lat="44.93709" lon="0.87216">
        <ele>177.8</ele>
        <time>2025-05-10T08:51:31Z</time>
      </trkpt>
      <trkpt lat="44.93711" lon="0.8721">
        <ele>178</ele>
        <time>2025-05-10T08:51:32Z</time>
      </trkpt>
      <trkpt lat="44.93714" lon="0.87204">
        <ele>178.2</ele>
        <time>2025-05-10T08:51:33Z</time>
      </trkpt>
      <trkpt lat="44.93716" lon="0.87199">
        <ele>178.6</ele>
        <time>2025-05-10T08:51:34Z</time>
      </trkpt>
      <trkpt lat="44.93718" lon="0.87193">
        <ele>178.8</ele>
        <time>2025-05-10T08:51:35Z</time>
      </trkpt>
      <trkpt lat="44.9372" lon="0.87187">
        <ele>178.8</ele>
        <time>2025-05-10T08:51:36Z</time>
      </trkpt>
      <trkpt lat="44.93723" lon="0.8718">
        <ele>178.8</ele>
        <time>2025-05-10T08:51:37Z</time>
      </trkpt>
      <trkpt lat="44.93725" lon="0.87172">
        <ele>178.8</ele>
        <time>2025-05-10T08:51:38Z</time>
      </trkpt>
      <trkpt lat="44.93727" lon="0.87164">
        <ele>178.8</ele>
        <time>2025-05-10T08:51:39Z</time>
      </trkpt>
      <trkpt lat="44.9373" lon="0.87157">
        <ele>178.4</ele>
        <time>2025-05-10T08:51:40Z</time>
      </trkpt>
      <trkpt lat="44.93732" lon="0.87151">
        <ele>178.2</ele>
        <time>2025-05-10T08:51:41Z</time>
      </trkpt>
      <trkpt lat="44.93735" lon="0.87145">
        <ele>178.2</ele>
        <time>2025-05-10T08:51:42Z</time>
      </trkpt>
      <trkpt lat="44.93737" lon="0.8714">
        <ele>178.2</ele>
        <time>2025-05-10T08:51:43Z</time>
      </trkpt>
      <trkpt lat="44.93739" lon="0.87135">
        <ele>178.4</ele>
        <time>2025-05-10T08:51:44Z</time>
      </trkpt>
      <trkpt lat="44.93742" lon="0.87131">
        <ele>178.6</ele>
        <time>2025-05-10T08:51:45Z</time>
      </trkpt>
      <trkpt lat="44.93744" lon="0.87127">
        <ele>178.8</ele>
        <time>2025-05-10T08:51:46Z</time>
      </trkpt>
      <trkpt lat="44.93745" lon="0.87124">
        <ele>179</ele>
        <time>2025-05-10T08:51:47Z</time>
      </trkpt>
      <trkpt lat="44.93747" lon="0.87122">
        <ele>179.2</ele>
        <time>2025-05-10T08:51:48Z</time>
      </trkpt>
      <trkpt lat="44.93749" lon="0.87119">
        <ele>179.6</ele>
        <time>2025-05-10T08:51:49Z</time>
      </trkpt>
      <trkpt lat="44.93751" lon="0.87116">
        <ele>180</ele>
        <time>2025-05-10T08:51:50Z</time>
      </trkpt>
      <trkpt lat="44.93752" lon="0.87114">
        <ele>180.2</ele>
        <time>2025-05-10T08:51:51Z</time>
      </trkpt>
      <trkpt lat="44.93754" lon="0.87113">
        <ele>180.4</ele>
        <time>2025-05-10T08:51:52Z</time>
      </trkpt>
      <trkpt lat="44.93755" lon="0.87111">
        <ele>180.8</ele>
        <time>2025-05-10T08:51:53Z</time>
      </trkpt>
      <trkpt lat="44.93757" lon="0.8711">
        <ele>181.2</ele>
        <time>2025-05-10T08:51:54Z</time>
      </trkpt>
      <trkpt lat="44.93758" lon="0.87108">
        <ele>181.6</ele>
        <time>2025-05-10T08:51:55Z</time>
      </trkpt>
      <trkpt lat="44.93759" lon="0.87107">
        <ele>181.8</ele>
        <time>2025-05-10T08:51:56Z</time>
      </trkpt>
      <trkpt lat="44.93761" lon="0.87105">
        <ele>182</ele>
        <time>2025-05-10T08:51:57Z</time>
      </trkpt>
      <trkpt lat="44.93762" lon="0.87103">
        <ele>182.2</ele>
        <time>2025-05-10T08:51:58Z</time>
      </trkpt>
      <trkpt lat="44.93764" lon="0.87102">
        <ele>182.6</ele>
        <time>2025-05-10T08:51:59Z</time>
      </trkpt>
      <trkpt lat="44.93765" lon="0.87101">
        <ele>182.8</ele>
        <time>2025-05-10T08:52:00Z</time>
      </trkpt>
      <trkpt lat="44.93767" lon="0.87099">
        <ele>183</ele>
        <time>2025-05-10T08:52:01Z</time>
      </trkpt>
      <trkpt lat="44.93768" lon="0.87098">
        <ele>183.2</ele>
        <time>2025-05-10T08:52:02Z</time>
      </trkpt>
      <trkpt lat="44.93769" lon="0.87097">
        <ele>183.4</ele>
        <time>2025-05-10T08:52:03Z</time>
      </trkpt>
      <trkpt lat="44.93771" lon="0.87096">
        <ele>183.6</ele>
        <time>2025-05-10T08:52:04Z</time>
      </trkpt>
      <trkpt lat="44.93772" lon="0.87096">
        <ele>184</ele>
        <time>2025-05-10T08:52:05Z</time>
      </trkpt>
      <trkpt lat="44.93773" lon="0.87096">
        <ele>184</ele>
        <time>2025-05-10T08:52:06Z</time>
      </trkpt>
      <trkpt lat="44.93774" lon="0.87095">
        <ele>184.2</ele>
        <time>2025-05-10T08:52:07Z</time>
      </trkpt>
      <trkpt lat="44.93775" lon="0.87094">
        <ele>184.6</ele>
        <time>2025-05-10T08:52:08Z</time>
      </trkpt>
      <trkpt lat="44.93777" lon="0.87093">
        <ele>184.8</ele>
        <time>2025-05-10T08:52:09Z</time>
      </trkpt>
      <trkpt lat="44.93778" lon="0.87092">
        <ele>185</ele>
        <time>2025-05-10T08:52:10Z</time>
      </trkpt>
      <trkpt lat="44.9378" lon="0.87091">
        <ele>185.2</ele>
        <time>2025-05-10T08:52:11Z</time>
      </trkpt>
      <trkpt lat="44.93781" lon="0.87091">
        <ele>185.4</ele>
        <time>2025-05-10T08:52:12Z</time>
      </trkpt>
      <trkpt lat="44.93781" lon="0.8709">
        <ele>185.6</ele>
        <time>2025-05-10T08:52:13Z</time>
      </trkpt>
      <trkpt lat="44.93782" lon="0.8709">
        <ele>185.8</ele>
        <time>2025-05-10T08:52:14Z</time>
      </trkpt>
      <trkpt lat="44.93784" lon="0.8709">
        <ele>185.8</ele>
        <time>2025-05-10T08:52:15Z</time>
      </trkpt>
      <trkpt lat="44.93785" lon="0.8709">
        <ele>186.2</ele>
        <time>2025-05-10T08:52:16Z</time>
      </trkpt>
      <trkpt lat="44.93786" lon="0.87089">
        <ele>186.4</ele>
        <time>2025-05-10T08:52:17Z</time>
      </trkpt>
      <trkpt lat="44.93788" lon="0.87089">
        <ele>186.6</ele>
        <time>2025-05-10T08:52:18Z</time>
      </trkpt>
      <trkpt lat="44.93789" lon="0.87088">
        <ele>186.8</ele>
        <time>2025-05-10T08:52:19Z</time>
      </trkpt>
      <trkpt lat="44.93791" lon="0.87088">
        <ele>187</ele>
        <time>2025-05-10T08:52:20Z</time>
      </trkpt>
      <trkpt lat="44.93792" lon="0.87088">
        <ele>187.2</ele>
        <time>2025-05-10T08:52:21Z</time>
      </trkpt>
      <trkpt lat="44.93794" lon="0.87087">
        <ele>187.4</ele>
        <time>2025-05-10T08:52:22Z</time>
      </trkpt>
      <trkpt lat="44.93795" lon="0.87087">
        <ele>187.4</ele>
        <time>2025-05-10T08:52:23Z</time>
      </trkpt>
      <trkpt lat="44.93796" lon="0.87086">
        <ele>187.6</ele>
        <time>2025-05-10T08:52:24Z</time>
      </trkpt>
      <trkpt lat="44.93798" lon="0.87085">
        <ele>188</ele>
        <time>2025-05-10T08:52:25Z</time>
      </trkpt>
      <trkpt lat="44.93799" lon="0.87085">
        <ele>188</ele>
        <time>2025-05-10T08:52:26Z</time>
      </trkpt>
      <trkpt lat="44.938" lon="0.87085">
        <ele>188.4</ele>
        <time>2025-05-10T08:52:27Z</time>
      </trkpt>
      <trkpt lat="44.93802" lon="0.87084">
        <ele>188.4</ele>
        <time>2025-05-10T08:52:28Z</time>
      </trkpt>
      <trkpt lat="44.93803" lon="0.87083">
        <ele>188.6</ele>
        <time>2025-05-10T08:52:29Z</time>
      </trkpt>
      <trkpt lat="44.93804" lon="0.87082">
        <ele>188.8</ele>
        <time>2025-05-10T08:52:30Z</time>
      </trkpt>
      <trkpt lat="44.93806" lon="0.87082">
        <ele>189</ele>
        <time>2025-05-10T08:52:31Z</time>
      </trkpt>
      <trkpt lat="44.93807" lon="0.87081">
        <ele>189.2</ele>
        <time>2025-05-10T08:52:32Z</time>
      </trkpt>
      <trkpt lat="44.93808" lon="0.87081">
        <ele>189.4</ele>
        <time>2025-05-10T08:52:33Z</time>
      </trkpt>
      <trkpt lat="44.93809" lon="0.8708">
        <ele>189.6</ele>
        <time>2025-05-10T08:52:34Z</time>
      </trkpt>
      <trkpt lat="44.93811" lon="0.87079">
        <ele>189.8</ele>
        <time>2025-05-10T08:52:35Z</time>
      </trkpt>
      <trkpt lat="44.93812" lon="0.87079">
        <ele>190</ele>
        <time>2025-05-10T08:52:36Z</time>
      </trkpt>
      <trkpt lat="44.93813" lon="0.87078">
        <ele>190.4</ele>
        <time>2025-05-10T08:52:37Z</time>
      </trkpt>
      <trkpt lat="44.93814" lon="0.87077">
        <ele>190.4</ele>
        <time>2025-05-10T08:52:38Z</time>
      </trkpt>
      <trkpt lat="44.93815" lon="0.87076">
        <ele>190.8</ele>
        <time>2025-05-10T08:52:39Z</time>
      </trkpt>
      <trkpt lat="44.93816" lon="0.87075">
        <ele>191</ele>
        <time>2025-05-10T08:52:40Z</time>
      </trkpt>
      <trkpt lat="44.93818" lon="0.87074">
        <ele>191.2</ele>
        <time>2025-05-10T08:52:41Z</time>
      </trkpt>
      <trkpt lat="44.93819" lon="0.87072">
        <ele>191.4</ele>
        <time>2025-05-10T08:52:42Z</time>
      </trkpt>
      <trkpt lat="44.93819" lon="0.87071">
        <ele>191.8</ele>
        <time>2025-05-10T08:52:43Z</time>
      </trkpt>
      <trkpt lat="44.9382" lon="0.8707">
        <ele>192</ele>
        <time>2025-05-10T08:52:44Z</time>
      </trkpt>
      <trkpt lat="44.93821" lon="0.87069">
        <ele>192.2</ele>
        <time>2025-05-10T08:52:45Z</time>
      </trkpt>
      <trkpt lat="44.93822" lon="0.87067">
        <ele>192.6</ele>
        <time>2025-05-10T08:52:46Z</time>
      </trkpt>
      <trkpt lat="44.93824" lon="0.87066">
        <ele>192.8</ele>
        <time>2025-05-10T08:52:47Z</time>
      </trkpt>
      <trkpt lat="44.93825" lon="0.87065">
        <ele>193</ele>
        <time>2025-05-10T08:52:48Z</time>
      </trkpt>
      <trkpt lat="44.93826" lon="0.87064">
        <ele>193.2</ele>
        <time>2025-05-10T08:52:49Z</time>
      </trkpt>
      <trkpt lat="44.93827" lon="0.87064">
        <ele>193.4</ele>
        <time>2025-05-10T08:52:50Z</time>
      </trkpt>
      <trkpt lat="44.93828" lon="0.87063">
        <ele>193.8</ele>
        <time>2025-05-10T08:52:51Z</time>
      </trkpt>
      <trkpt lat="44.93829" lon="0.87062">
        <ele>194</ele>
        <time>2025-05-10T08:52:52Z</time>
      </trkpt>
      <trkpt lat="44.9383" lon="0.87062">
        <ele>194.2</ele>
        <time>2025-05-10T08:52:53Z</time>
      </trkpt>
      <trkpt lat="44.93831" lon="0.87061">
        <ele>194.4</ele>
        <time>2025-05-10T08:52:54Z</time>
      </trkpt>
      <trkpt lat="44.93833" lon="0.8706">
        <ele>194.6</ele>
        <time>2025-05-10T08:52:55Z</time>
      </trkpt>
      <trkpt lat="44.93834" lon="0.8706">
        <ele>194.8</ele>
        <time>2025-05-10T08:52:56Z</time>
      </trkpt>
      <trkpt lat="44.93835" lon="0.87059">
        <ele>195</ele>
        <time>2025-05-10T08:52:57Z</time>
      </trkpt>
      <trkpt lat="44.93837" lon="0.87059">
        <ele>195</ele>
        <time>2025-05-10T08:52:58Z</time>
      </trkpt>
      <trkpt lat="44.93838" lon="0.87058">
        <ele>195.4</ele>
        <time>2025-05-10T08:52:59Z</time>
      </trkpt>
      <trkpt lat="44.93839" lon="0.87058">
        <ele>195.4</ele>
        <time>2025-05-10T08:53:00Z</time>
      </trkpt>
      <trkpt lat="44.93841" lon="0.87058">
        <ele>195.8</ele>
        <time>2025-05-10T08:53:01Z</time>
      </trkpt>
      <trkpt lat="44.93842" lon="0.87057">
        <ele>196.2</ele>
        <time>2025-05-10T08:53:02Z</time>
      </trkpt>
      <trkpt lat="44.93844" lon="0.87056">
        <ele>196.2</ele>
        <time>2025-05-10T08:53:03Z</time>
      </trkpt>
      <trkpt lat="44.93845" lon="0.87055">
        <ele>196.4</ele>
        <time>2025-05-10T08:53:04Z</time>
      </trkpt>
      <trkpt lat="44.93846" lon="0.87055">
        <ele>196.6</ele>
        <time>2025-05-10T08:53:05Z</time>
      </trkpt>
      <trkpt lat="44.93847" lon="0.87054">
        <ele>196.8</ele>
        <time>2025-05-10T08:53:06Z</time>
      </trkpt>
      <trkpt lat="44.93849" lon="0.87053">
        <ele>197</ele>
        <time>2025-05-10T08:53:07Z</time>
      </trkpt>
      <trkpt lat="44.9385" lon="0.87052">
        <ele>197.2</ele>
        <time>2025-05-10T08:53:08Z</time>
      </trkpt>
      <trkpt lat="44.93852" lon="0.87052">
        <ele>197.4</ele>
        <time>2025-05-10T08:53:09Z</time>
      </trkpt>
      <trkpt lat="44.93853" lon="0.87051">
        <ele>197.4</ele>
        <time>2025-05-10T08:53:10Z</time>
      </trkpt>
      <trkpt lat="44.93855" lon="0.8705">
        <ele>197.6</ele>
        <time>2025-05-10T08:53:11Z</time>
      </trkpt>
      <trkpt lat="44.93856" lon="0.87049">
        <ele>197.8</ele>
        <time>2025-05-10T08:53:12Z</time>
      </trkpt>
      <trkpt lat="44.93857" lon="0.87049">
        <ele>197.8</ele>
        <time>2025-05-10T08:53:13Z</time>
      </trkpt>
      <trkpt lat="44.93859" lon="0.87048">
        <ele>198</ele>
        <time>2025-05-10T08:53:14Z</time>
      </trkpt>
      <trkpt lat="44.9386" lon="0.87047">
        <ele>198.2</ele>
        <time>2025-05-10T08:53:15Z</time>
      </trkpt>
      <trkpt lat="44.93861" lon="0.87046">
        <ele>198.4</ele>
        <time>2025-05-10T08:53:16Z</time>
      </trkpt>
      <trkpt lat="44.93863" lon="0.87045">
        <ele>198.4</ele>
        <time>2025-05-10T08:53:17Z</time>
      </trkpt>
      <trkpt lat="44.93865" lon="0.87044">
        <ele>198.6</ele>
        <time>2025-05-10T08:53:18Z</time>
      </trkpt>
      <trkpt lat="44.93866" lon="0.87043">
        <ele>198.8</ele>
        <time>2025-05-10T08:53:19Z</time>
      </trkpt>
      <trkpt lat="44.93868" lon="0.87042">
        <ele>198.8</ele>
        <time>2025-05-10T08:53:20Z</time>
      </trkpt>
      <trkpt lat="44.9387" lon="0.87041">
        <ele>199</ele>
        <time>2025-05-10T08:53:21Z</time>
      </trkpt>
      <trkpt lat="44.93871" lon="0.8704">
        <ele>199.2</ele>
        <time>2025-05-10T08:53:22Z</time>
      </trkpt>
      <trkpt lat="44.93873" lon="0.87039">
        <ele>199.2</ele>
        <time>2025-05-10T08:53:23Z</time>
      </trkpt>
      <trkpt lat="44.93875" lon="0.87038">
        <ele>199.4</ele>
        <time>2025-05-10T08:53:24Z</time>
      </trkpt>
      <trkpt lat="44.93877" lon="0.87037">
        <ele>199.4</ele>
        <time>2025-05-10T08:53:25Z</time>
      </trkpt>
      <trkpt lat="44.93879" lon="0.87036">
        <ele>199.6</ele>
        <time>2025-05-10T08:53:26Z</time>
      </trkpt>
      <trkpt lat="44.93881" lon="0.87035">
        <ele>199.6</ele>
        <time>2025-05-10T08:53:27Z</time>
      </trkpt>
      <trkpt lat="44.93884" lon="0.87034">
        <ele>199.6</ele>
        <time>2025-05-10T08:53:28Z</time>
      </trkpt>
      <trkpt lat="44.93886" lon="0.87032">
        <ele>199.8</ele>
        <time>2025-05-10T08:53:29Z</time>
      </trkpt>
      <trkpt lat="44.93888" lon="0.87031">
        <ele>199.8</ele>
        <time>2025-05-10T08:53:30Z</time>
      </trkpt>
      <trkpt lat="44.9389" lon="0.8703">
        <ele>199.8</ele>
        <time>2025-05-10T08:53:31Z</time>
      </trkpt>
      <trkpt lat="44.93893" lon="0.87028">
        <ele>199.8</ele>
        <time>2025-05-10T08:53:32Z</time>
      </trkpt>
      <trkpt lat="44.93896" lon="0.87027">
        <ele>199.8</ele>
        <time>2025-05-10T08:53:33Z</time>
      </trkpt>
      <trkpt lat="44.93899" lon="0.87026">
        <ele>199.8</ele>
        <time>2025-05-10T08:53:34Z</time>
      </trkpt>
      <trkpt lat="44.93902" lon="0.87025">
        <ele>199.8</ele>
        <time>2025-05-10T08:53:35Z</time>
      </trkpt>
      <trkpt lat="44.93906" lon="0.87025">
        <ele>199.8</ele>
        <time>2025-05-10T08:53:36Z</time>
      </trkpt>
      <trkpt lat="44.93909" lon="0.87025">
        <ele>199.6</ele>
        <time>2025-05-10T08:53:37Z</time>
      </trkpt>
      <trkpt lat="44.93913" lon="0.87025">
        <ele>199.6</ele>
        <time>2025-05-10T08:53:38Z</time>
      </trkpt>
      <trkpt lat="44.93917" lon="0.87024">
        <ele>199.4</ele>
        <time>2025-05-10T08:53:39Z</time>
      </trkpt>
      <trkpt lat="44.93922" lon="0.87023">
        <ele>199.4</ele>
        <time>2025-05-10T08:53:40Z</time>
      </trkpt>
      <trkpt lat="44.93927" lon="0.87021">
        <ele>199.4</ele>
        <time>2025-05-10T08:53:41Z</time>
      </trkpt>
      <trkpt lat="44.93932" lon="0.87021">
        <ele>198.8</ele>
        <time>2025-05-10T08:53:42Z</time>
      </trkpt>
      <trkpt lat="44.93937" lon="0.8702">
        <ele>198.4</ele>
        <time>2025-05-10T08:53:43Z</time>
      </trkpt>
      <trkpt lat="44.93943" lon="0.8702">
        <ele>198</ele>
        <time>2025-05-10T08:53:44Z</time>
      </trkpt>
      <trkpt lat="44.93949" lon="0.87019">
        <ele>197.2</ele>
        <time>2025-05-10T08:53:45Z</time>
      </trkpt>
      <trkpt lat="44.93956" lon="0.87018">
        <ele>196.4</ele>
        <time>2025-05-10T08:53:46Z</time>
      </trkpt>
      <trkpt lat="44.93963" lon="0.87017">
        <ele>196.2</ele>
        <time>2025-05-10T08:53:47Z</time>
      </trkpt>
      <trkpt lat="44.9397" lon="0.87015">
        <ele>195.6</ele>
        <time>2025-05-10T08:53:48Z</time>
      </trkpt>
      <trkpt lat="44.93978" lon="0.87014">
        <ele>195</ele>
        <time>2025-05-10T08:53:49Z</time>
      </trkpt>
      <trkpt lat="44.93986" lon="0.87013">
        <ele>194.2</ele>
        <time>2025-05-10T08:53:50Z</time>
      </trkpt>
      <trkpt lat="44.93994" lon="0.87013">
        <ele>193.6</ele>
        <time>2025-05-10T08:53:51Z</time>
      </trkpt>
      <trkpt lat="44.94002" lon="0.87013">
        <ele>193.2</ele>
        <time>2025-05-10T08:53:52Z</time>
      </trkpt>
      <trkpt lat="44.94011" lon="0.87012">
        <ele>192.6</ele>
        <time>2025-05-10T08:53:53Z</time>
      </trkpt>
      <trkpt lat="44.9402" lon="0.8701">
        <ele>191.6</ele>
        <time>2025-05-10T08:53:54Z</time>
      </trkpt>
      <trkpt lat="44.94028" lon="0.87009">
        <ele>191.4</ele>
        <time>2025-05-10T08:53:55Z</time>
      </trkpt>
      <trkpt lat="44.94037" lon="0.87006">
        <ele>190.8</ele>
        <time>2025-05-10T08:53:56Z</time>
      </trkpt>
      <trkpt lat="44.94044" lon="0.87002">
        <ele>189.4</ele>
        <time>2025-05-10T08:53:57Z</time>
      </trkpt>
      <trkpt lat="44.9405" lon="0.86996">
        <ele>188.8</ele>
        <time>2025-05-10T08:53:58Z</time>
      </trkpt>
      <trkpt lat="44.94056" lon="0.86989">
        <ele>188.2</ele>
        <time>2025-05-10T08:53:59Z</time>
      </trkpt>
      <trkpt lat="44.94061" lon="0.86981">
        <ele>187.4</ele>
        <time>2025-05-10T08:54:00Z</time>
      </trkpt>
      <trkpt lat="44.94066" lon="0.86973">
        <ele>187</ele>
        <time>2025-05-10T08:54:01Z</time>
      </trkpt>
      <trkpt lat="44.94071" lon="0.86966">
        <ele>186.8</ele>
        <time>2025-05-10T08:54:02Z</time>
      </trkpt>
      <trkpt lat="44.94075" lon="0.86959">
        <ele>186.6</ele>
        <time>2025-05-10T08:54:03Z</time>
      </trkpt>
      <trkpt lat="44.9408" lon="0.86952">
        <ele>186.6</ele>
        <time>2025-05-10T08:54:04Z</time>
      </trkpt>
      <trkpt lat="44.94085" lon="0.86945">
        <ele>186.6</ele>
        <time>2025-05-10T08:54:05Z</time>
      </trkpt>
      <trkpt lat="44.94089" lon="0.86939">
        <ele>186.6</ele>
        <time>2025-05-10T08:54:06Z</time>
      </trkpt>
      <trkpt lat="44.94093" lon="0.86933">
        <ele>186.8</ele>
        <time>2025-05-10T08:54:07Z</time>
      </trkpt>
      <trkpt lat="44.94097" lon="0.86927">
        <ele>187.2</ele>
        <time>2025-05-10T08:54:08Z</time>
      </trkpt>
      <trkpt lat="44.94101" lon="0.8692">
        <ele>187.2</ele>
        <time>2025-05-10T08:54:09Z</time>
      </trkpt>
      <trkpt lat="44.94105" lon="0.86913">
        <ele>187.4</ele>
        <time>2025-05-10T08:54:10Z</time>
      </trkpt>
      <trkpt lat="44.94108" lon="0.86905">
        <ele>187.4</ele>
        <time>2025-05-10T08:54:11Z</time>
      </trkpt>
      <trkpt lat="44.94111" lon="0.86897">
        <ele>187.6</ele>
        <time>2025-05-10T08:54:12Z</time>
      </trkpt>
      <trkpt lat="44.94114" lon="0.86891">
        <ele>187.8</ele>
        <time>2025-05-10T08:54:13Z</time>
      </trkpt>
      <trkpt lat="44.94117" lon="0.86885">
        <ele>187.8</ele>
        <time>2025-05-10T08:54:14Z</time>
      </trkpt>
      <trkpt lat="44.94119" lon="0.8688">
        <ele>188.2</ele>
        <time>2025-05-10T08:54:15Z</time>
      </trkpt>
      <trkpt lat="44.94121" lon="0.86876">
        <ele>188.4</ele>
        <time>2025-05-10T08:54:16Z</time>
      </trkpt>
      <trkpt lat="44.94122" lon="0.86873">
        <ele>188.8</ele>
        <time>2025-05-10T08:54:17Z</time>
      </trkpt>
      <trkpt lat="44.94124" lon="0.8687">
        <ele>189</ele>
        <time>2025-05-10T08:54:18Z</time>
      </trkpt>
      <trkpt lat="44.94126" lon="0.86867">
        <ele>189.6</ele>
        <time>2025-05-10T08:54:58Z</time>
      </trkpt>
      <trkpt lat="44.94127" lon="0.86863">
        <ele>189.6</ele>
        <time>2025-05-10T08:54:59Z</time>
      </trkpt>
      <trkpt lat="44.9413" lon="0.86858">
        <ele>189.6</ele>
        <time>2025-05-10T08:55:00Z</time>
      </trkpt>
      <trkpt lat="44.94134" lon="0.86851">
        <ele>189.4</ele>
        <time>2025-05-10T08:55:01Z</time>
      </trkpt>
      <trkpt lat="44.94138" lon="0.86844">
        <ele>188.8</ele>
        <time>2025-05-10T08:55:02Z</time>
      </trkpt>
      <trkpt lat="44.94144" lon="0.86838">
        <ele>187.8</ele>
        <time>2025-05-10T08:55:03Z</time>
      </trkpt>
      <trkpt lat="44.94152" lon="0.86835">
        <ele>187</ele>
        <time>2025-05-10T08:55:04Z</time>
      </trkpt>
      <trkpt lat="44.9416" lon="0.86835">
        <ele>186</ele>
        <time>2025-05-10T08:55:05Z</time>
      </trkpt>
      <trkpt lat="44.94168" lon="0.86836">
        <ele>184.8</ele>
        <time>2025-05-10T08:55:06Z</time>
      </trkpt>
      <trkpt lat="44.94176" lon="0.86838">
        <ele>183.2</ele>
        <time>2025-05-10T08:55:07Z</time>
      </trkpt>
      <trkpt lat="44.94183" lon="0.86841">
        <ele>182</ele>
        <time>2025-05-10T08:55:08Z</time>
      </trkpt>
      <trkpt lat="44.9419" lon="0.86844">
        <ele>181.8</ele>
        <time>2025-05-10T08:55:09Z</time>
      </trkpt>
      <trkpt lat="44.94197" lon="0.86846">
        <ele>181.6</ele>
        <time>2025-05-10T08:55:10Z</time>
      </trkpt>
      <trkpt lat="44.94203" lon="0.86848">
        <ele>181.6</ele>
        <time>2025-05-10T08:55:11Z</time>
      </trkpt>
      <trkpt lat="44.9421" lon="0.8685">
        <ele>181.6</ele>
        <time>2025-05-10T08:55:12Z</time>
      </trkpt>
      <trkpt lat="44.94216" lon="0.86852">
        <ele>181.6</ele>
        <time>2025-05-10T08:55:13Z</time>
      </trkpt>
      <trkpt lat="44.94221" lon="0.86853">
        <ele>181.8</ele>
        <time>2025-05-10T08:55:14Z</time>
      </trkpt>
      <trkpt lat="44.94227" lon="0.86855">
        <ele>181.8</ele>
        <time>2025-05-10T08:55:15Z</time>
      </trkpt>
      <trkpt lat="44.94232" lon="0.86857">
        <ele>182</ele>
        <time>2025-05-10T08:55:16Z</time>
      </trkpt>
      <trkpt lat="44.94237" lon="0.86859">
        <ele>182.6</ele>
        <time>2025-05-10T08:55:17Z</time>
      </trkpt>
      <trkpt lat="44.94242" lon="0.8686">
        <ele>182.8</ele>
        <time>2025-05-10T08:55:18Z</time>
      </trkpt>
      <trkpt lat="44.94246" lon="0.86862">
        <ele>183.2</ele>
        <time>2025-05-10T08:55:19Z</time>
      </trkpt>
      <trkpt lat="44.94249" lon="0.86864">
        <ele>183.6</ele>
        <time>2025-05-10T08:55:20Z</time>
      </trkpt>
      <trkpt lat="44.94253" lon="0.86865">
        <ele>184.2</ele>
        <time>2025-05-10T08:55:21Z</time>
      </trkpt>
      <trkpt lat="44.94256" lon="0.86866">
        <ele>184.6</ele>
        <time>2025-05-10T08:55:22Z</time>
      </trkpt>
      <trkpt lat="44.94259" lon="0.86869">
        <ele>185.2</ele>
        <time>2025-05-10T08:55:23Z</time>
      </trkpt>
      <trkpt lat="44.94259" lon="0.86873">
        <ele>185.4</ele>
        <time>2025-05-10T08:55:24Z</time>
      </trkpt>
      <trkpt lat="44.94259" lon="0.86877">
        <ele>185.4</ele>
        <time>2025-05-10T08:55:25Z</time>
      </trkpt>
      <trkpt lat="44.94258" lon="0.86881">
        <ele>185.4</ele>
        <time>2025-05-10T08:55:26Z</time>
      </trkpt>
      <trkpt lat="44.94257" lon="0.86884">
        <ele>185.4</ele>
        <time>2025-05-10T08:55:27Z</time>
      </trkpt>
      <trkpt lat="44.94256" lon="0.86887">
        <ele>185.4</ele>
        <time>2025-05-10T08:55:28Z</time>
      </trkpt>
      <trkpt lat="44.94255" lon="0.8689">
        <ele>185.6</ele>
        <time>2025-05-10T08:55:29Z</time>
      </trkpt>
      <trkpt lat="44.94254" lon="0.86893">
        <ele>185.6</ele>
        <time>2025-05-10T08:55:30Z</time>
      </trkpt>
      <trkpt lat="44.94254" lon="0.86895">
        <ele>185.8</ele>
        <time>2025-05-10T08:55:31Z</time>
      </trkpt>
      <trkpt lat="44.94253" lon="0.86898">
        <ele>186</ele>
        <time>2025-05-10T08:55:32Z</time>
      </trkpt>
      <trkpt lat="44.94252" lon="0.86901">
        <ele>186.2</ele>
        <time>2025-05-10T08:55:33Z</time>
      </trkpt>
      <trkpt lat="44.94251" lon="0.86903">
        <ele>186.4</ele>
        <time>2025-05-10T08:55:34Z</time>
      </trkpt>
      <trkpt lat="44.94249" lon="0.86904">
        <ele>186.6</ele>
        <time>2025-05-10T08:55:35Z</time>
      </trkpt>
      <trkpt lat="44.94247" lon="0.86905">
        <ele>186.8</ele>
        <time>2025-05-10T08:55:36Z</time>
      </trkpt>
      <trkpt lat="44.94246" lon="0.86908">
        <ele>187</ele>
        <time>2025-05-10T08:55:37Z</time>
      </trkpt>
      <trkpt lat="44.94247" lon="0.86912">
        <ele>187</ele>
        <time>2025-05-10T08:55:38Z</time>
      </trkpt>
      <trkpt lat="44.94249" lon="0.86912">
        <ele>187</ele>
        <time>2025-05-10T08:55:39Z</time>
      </trkpt>
      <trkpt lat="44.9425" lon="0.8691">
        <ele>187</ele>
        <time>2025-05-10T08:55:40Z</time>
      </trkpt>
      <trkpt lat="44.94251" lon="0.86907">
        <ele>187</ele>
        <time>2025-05-10T08:55:41Z</time>
      </trkpt>
      <trkpt lat="44.94252" lon="0.86903">
        <ele>187</ele>
        <time>2025-05-10T08:55:42Z</time>
      </trkpt>
      <trkpt lat="44.94253" lon="0.86899">
        <ele>187</ele>
        <time>2025-05-10T08:55:43Z</time>
      </trkpt>
      <trkpt lat="44.94255" lon="0.86897">
        <ele>187</ele>
        <time>2025-05-10T08:55:44Z</time>
      </trkpt>
      <trkpt lat="44.94258" lon="0.86896">
        <ele>187</ele>
        <time>2025-05-10T08:55:45Z</time>
      </trkpt>
      <trkpt lat="44.9426" lon="0.86896">
        <ele>186.8</ele>
        <time>2025-05-10T08:55:46Z</time>
      </trkpt>
      <trkpt lat="44.94262" lon="0.86897">
        <ele>186.6</ele>
        <time>2025-05-10T08:55:47Z</time>
      </trkpt>
      <trkpt lat="44.94263" lon="0.86899">
        <ele>186.4</ele>
        <time>2025-05-10T08:55:48Z</time>
      </trkpt>
      <trkpt lat="44.94264" lon="0.86902">
        <ele>186.2</ele>
        <time>2025-05-10T08:55:49Z</time>
      </trkpt>
      <trkpt lat="44.94265" lon="0.86905">
        <ele>186.2</ele>
        <time>2025-05-10T08:55:50Z</time>
      </trkpt>
      <trkpt lat="44.94266" lon="0.86908">
        <ele>186</ele>
        <time>2025-05-10T08:55:51Z</time>
      </trkpt>
      <trkpt lat="44.94267" lon="0.86911">
        <ele>185.8</ele>
        <time>2025-05-10T08:55:52Z</time>
      </trkpt>
      <trkpt lat="44.9427" lon="0.86912">
        <ele>185.8</ele>
        <time>2025-05-10T08:55:53Z</time>
      </trkpt>
      <trkpt lat="44.94272" lon="0.86911">
        <ele>185.8</ele>
        <time>2025-05-10T08:55:54Z</time>
      </trkpt>
      <trkpt lat="44.94274" lon="0.8691">
        <ele>185.8</ele>
        <time>2025-05-10T08:55:55Z</time>
      </trkpt>
      <trkpt lat="44.94277" lon="0.86911">
        <ele>185.6</ele>
        <time>2025-05-10T08:55:56Z</time>
      </trkpt>
      <trkpt lat="44.9428" lon="0.86913">
        <ele>185.4</ele>
        <time>2025-05-10T08:55:57Z</time>
      </trkpt>
      <trkpt lat="44.94282" lon="0.86915">
        <ele>185.2</ele>
        <time>2025-05-10T08:55:58Z</time>
      </trkpt>
      <trkpt lat="44.94284" lon="0.86915">
        <ele>184.6</ele>
        <time>2025-05-10T08:55:59Z</time>
      </trkpt>
      <trkpt lat="44.94286" lon="0.86914">
        <ele>184.4</ele>
        <time>2025-05-10T08:56:00Z</time>
      </trkpt>
      <trkpt lat="44.94287" lon="0.86911">
        <ele>184</ele>
        <time>2025-05-10T08:56:01Z</time>
      </trkpt>
      <trkpt lat="44.94288" lon="0.86908">
        <ele>183.8</ele>
        <time>2025-05-10T08:56:02Z</time>
      </trkpt>
      <trkpt lat="44.94287" lon="0.86906">
        <ele>183.6</ele>
        <time>2025-05-10T08:56:03Z</time>
      </trkpt>
      <trkpt lat="44.94287" lon="0.86903">
        <ele>183.6</ele>
        <time>2025-05-10T08:56:04Z</time>
      </trkpt>
      <trkpt lat="44.94286" lon="0.86901">
        <ele>183.6</ele>
        <time>2025-05-10T08:56:05Z</time>
      </trkpt>
      <trkpt lat="44.94285" lon="0.86898">
        <ele>183.6</ele>
        <time>2025-05-10T08:56:06Z</time>
      </trkpt>
      <trkpt lat="44.94283" lon="0.86895">
        <ele>183.6</ele>
        <time>2025-05-10T08:56:07Z</time>
      </trkpt>
      <trkpt lat="44.94282" lon="0.86894">
        <ele>183.6</ele>
        <time>2025-05-10T08:56:08Z</time>
      </trkpt>
      <trkpt lat="44.9428" lon="0.86893">
        <ele>183.6</ele>
        <time>2025-05-10T08:56:09Z</time>
      </trkpt>
      <trkpt lat="44.94279" lon="0.86893">
        <ele>183.8</ele>
        <time>2025-05-10T08:56:10Z</time>
      </trkpt>
      <trkpt lat="44.94277" lon="0.86892">
        <ele>183.8</ele>
        <time>2025-05-10T08:56:11Z</time>
      </trkpt>
      <trkpt lat="44.94276" lon="0.86891">
        <ele>184.2</ele>
        <time>2025-05-10T08:56:12Z</time>
      </trkpt>
      <trkpt lat="44.94276" lon="0.8689">
        <ele>184.4</ele>
        <time>2025-05-10T08:56:13Z</time>
      </trkpt>
      <trkpt lat="44.94275" lon="0.86887">
        <ele>184.6</ele>
        <time>2025-05-10T08:56:14Z</time>
      </trkpt>
      <trkpt lat="44.94274" lon="0.86886">
        <ele>184.6</ele>
        <time>2025-05-10T08:56:15Z</time>
      </trkpt>
      <trkpt lat="44.94272" lon="0.86885">
        <ele>184.8</ele>
        <time>2025-05-10T08:56:16Z</time>
      </trkpt>
      <trkpt lat="44.9427" lon="0.86886">
        <ele>184.8</ele>
        <time>2025-05-10T08:56:17Z</time>
      </trkpt>
      <trkpt lat="44.9427" lon="0.8689">
        <ele>184.8</ele>
        <time>2025-05-10T08:56:18Z</time>
      </trkpt>
      <trkpt lat="44.9427" lon="0.86893">
        <ele>184.8</ele>
        <time>2025-05-10T08:56:19Z</time>
      </trkpt>
      <trkpt lat="44.94271" lon="0.86895">
        <ele>184.8</ele>
        <time>2025-05-10T08:56:20Z</time>
      </trkpt>
      <trkpt lat="44.94272" lon="0.86897">
        <ele>184.8</ele>
        <time>2025-05-10T08:56:21Z</time>
      </trkpt>
      <trkpt lat="44.94273" lon="0.869">
        <ele>184.8</ele>
        <time>2025-05-10T08:56:22Z</time>
      </trkpt>
      <trkpt lat="44.94274" lon="0.86903">
        <ele>184.6</ele>
        <time>2025-05-10T08:56:23Z</time>
      </trkpt>
      <trkpt lat="44.94274" lon="0.86905">
        <ele>184.6</ele>
        <time>2025-05-10T08:56:24Z</time>
      </trkpt>
      <trkpt lat="44.94274" lon="0.86905">
        <ele>184.6</ele>
        <time>2025-05-10T08:56:25Z</time>
      </trkpt>
      <trkpt lat="44.94274" lon="0.86905">
        <ele>184.6</ele>
        <time>2025-05-10T08:56:26Z</time>
      </trkpt>
      <trkpt lat="44.94272" lon="0.86906">
        <ele>184.6</ele>
        <time>2025-05-10T08:56:27Z</time>
      </trkpt>
      <trkpt lat="44.9427" lon="0.86901">
        <ele>184.6</ele>
        <time>2025-05-10T08:57:36Z</time>
      </trkpt>
      <trkpt lat="44.9427" lon="0.869">
        <ele>184.6</ele>
        <time>2025-05-10T08:57:37Z</time>
      </trkpt>
      <trkpt lat="44.94269" lon="0.86898">
        <ele>184.6</ele>
        <time>2025-05-10T08:57:38Z</time>
      </trkpt>
      <trkpt lat="44.94269" lon="0.86895">
        <ele>184.4</ele>
        <time>2025-05-10T08:57:39Z</time>
      </trkpt>
      <trkpt lat="44.94268" lon="0.86892">
        <ele>184.6</ele>
        <time>2025-05-10T08:57:40Z</time>
      </trkpt>
      <trkpt lat="44.94267" lon="0.86889">
        <ele>184.6</ele>
        <time>2025-05-10T08:57:41Z</time>
      </trkpt>
      <trkpt lat="44.94267" lon="0.86886">
        <ele>184.6</ele>
        <time>2025-05-10T08:57:42Z</time>
      </trkpt>
      <trkpt lat="44.94266" lon="0.86884">
        <ele>184.6</ele>
        <time>2025-05-10T08:57:43Z</time>
      </trkpt>
      <trkpt lat="44.94266" lon="0.8688">
        <ele>184.6</ele>
        <time>2025-05-10T08:57:44Z</time>
      </trkpt>
      <trkpt lat="44.94265" lon="0.86877">
        <ele>184.6</ele>
        <time>2025-05-10T08:57:45Z</time>
      </trkpt>
      <trkpt lat="44.94265" lon="0.86873">
        <ele>184.6</ele>
        <time>2025-05-10T08:57:46Z</time>
      </trkpt>
      <trkpt lat="44.94265" lon="0.86869">
        <ele>184.6</ele>
        <time>2025-05-10T08:57:47Z</time>
      </trkpt>
      <trkpt lat="44.94264" lon="0.86865">
        <ele>184.6</ele>
        <time>2025-05-10T08:57:48Z</time>
      </trkpt>
      <trkpt lat="44.94264" lon="0.86861">
        <ele>184.6</ele>
        <time>2025-05-10T08:57:49Z</time>
      </trkpt>
      <trkpt lat="44.94265" lon="0.86856">
        <ele>184.6</ele>
        <time>2025-05-10T08:57:50Z</time>
      </trkpt>
      <trkpt lat="44.94266" lon="0.86852">
        <ele>184.6</ele>
        <time>2025-05-10T08:57:51Z</time>
      </trkpt>
      <trkpt lat="44.94267" lon="0.86848">
        <ele>184.6</ele>
        <time>2025-05-10T08:57:52Z</time>
      </trkpt>
      <trkpt lat="44.94268" lon="0.86843">
        <ele>184.6</ele>
        <time>2025-05-10T08:57:53Z</time>
      </trkpt>
      <trkpt lat="44.9427" lon="0.86839">
        <ele>184.6</ele>
        <time>2025-05-10T08:57:54Z</time>
      </trkpt>
      <trkpt lat="44.94271" lon="0.86834">
        <ele>184.6</ele>
        <time>2025-05-10T08:57:55Z</time>
      </trkpt>
      <trkpt lat="44.94272" lon="0.8683">
        <ele>184.6</ele>
        <time>2025-05-10T08:57:56Z</time>
      </trkpt>
      <trkpt lat="44.94273" lon="0.86826">
        <ele>184.8</ele>
        <time>2025-05-10T08:57:57Z</time>
      </trkpt>
      <trkpt lat="44.94275" lon="0.86822">
        <ele>184.8</ele>
        <time>2025-05-10T08:57:58Z</time>
      </trkpt>
      <trkpt lat="44.94276" lon="0.86818">
        <ele>185</ele>
        <time>2025-05-10T08:57:59Z</time>
      </trkpt>
      <trkpt lat="44.94277" lon="0.86814">
        <ele>185.2</ele>
        <time>2025-05-10T08:58:00Z</time>
      </trkpt>
      <trkpt lat="44.94279" lon="0.86811">
        <ele>185.4</ele>
        <time>2025-05-10T08:58:01Z</time>
      </trkpt>
      <trkpt lat="44.9428" lon="0.86807">
        <ele>185.6</ele>
        <time>2025-05-10T08:58:02Z</time>
      </trkpt>
      <trkpt lat="44.94282" lon="0.86803">
        <ele>185.6</ele>
        <time>2025-05-10T08:58:03Z</time>
      </trkpt>
      <trkpt lat="44.94283" lon="0.86799">
        <ele>185.8</ele>
        <time>2025-05-10T08:58:04Z</time>
      </trkpt>
      <trkpt lat="44.94284" lon="0.86795">
        <ele>186</ele>
        <time>2025-05-10T08:58:05Z</time>
      </trkpt>
      <trkpt lat="44.94285" lon="0.86791">
        <ele>186</ele>
        <time>2025-05-10T08:58:06Z</time>
      </trkpt>
      <trkpt lat="44.94286" lon="0.86788">
        <ele>186.2</ele>
        <time>2025-05-10T08:58:07Z</time>
      </trkpt>
      <trkpt lat="44.94288" lon="0.86783">
        <ele>186.4</ele>
        <time>2025-05-10T08:58:08Z</time>
      </trkpt>
      <trkpt lat="44.94289" lon="0.86779">
        <ele>186.6</ele>
        <time>2025-05-10T08:58:09Z</time>
      </trkpt>
      <trkpt lat="44.9429" lon="0.86775">
        <ele>186.6</ele>
        <time>2025-05-10T08:58:10Z</time>
      </trkpt>
      <trkpt lat="44.94292" lon="0.86771">
        <ele>186.8</ele>
        <time>2025-05-10T08:58:11Z</time>
      </trkpt>
      <trkpt lat="44.94293" lon="0.86768">
        <ele>187</ele>
        <time>2025-05-10T08:58:12Z</time>
      </trkpt>
      <trkpt lat="44.94295" lon="0.86764">
        <ele>187</ele>
        <time>2025-05-10T08:58:13Z</time>
      </trkpt>
      <trkpt lat="44.94296" lon="0.8676">
        <ele>187.2</ele>
        <time>2025-05-10T08:58:14Z</time>
      </trkpt>
      <trkpt lat="44.94297" lon="0.86756">
        <ele>187.4</ele>
        <time>2025-05-10T08:58:15Z</time>
      </trkpt>
      <trkpt lat="44.94298" lon="0.86751">
        <ele>187.6</ele>
        <time>2025-05-10T08:58:16Z</time>
      </trkpt>
      <trkpt lat="44.94299" lon="0.86747">
        <ele>187.6</ele>
        <time>2025-05-10T08:58:17Z</time>
      </trkpt>
      <trkpt lat="44.94301" lon="0.86743">
        <ele>188</ele>
        <time>2025-05-10T08:58:18Z</time>
      </trkpt>
      <trkpt lat="44.94302" lon="0.86739">
        <ele>188</ele>
        <time>2025-05-10T08:58:19Z</time>
      </trkpt>
      <trkpt lat="44.94303" lon="0.86734">
        <ele>188.2</ele>
        <time>2025-05-10T08:58:20Z</time>
      </trkpt>
      <trkpt lat="44.94304" lon="0.8673">
        <ele>188.4</ele>
        <time>2025-05-10T08:58:21Z</time>
      </trkpt>
      <trkpt lat="44.94305" lon="0.86725">
        <ele>188.6</ele>
        <time>2025-05-10T08:58:22Z</time>
      </trkpt>
      <trkpt lat="44.94307" lon="0.8672">
        <ele>188.6</ele>
        <time>2025-05-10T08:58:23Z</time>
      </trkpt>
      <trkpt lat="44.94308" lon="0.86716">
        <ele>188.8</ele>
        <time>2025-05-10T08:58:24Z</time>
      </trkpt>
      <trkpt lat="44.94309" lon="0.86711">
        <ele>188.8</ele>
        <time>2025-05-10T08:58:25Z</time>
      </trkpt>
      <trkpt lat="44.9431" lon="0.86707">
        <ele>189</ele>
        <time>2025-05-10T08:58:26Z</time>
      </trkpt>
      <trkpt lat="44.94312" lon="0.86703">
        <ele>189.2</ele>
        <time>2025-05-10T08:58:27Z</time>
      </trkpt>
      <trkpt lat="44.94313" lon="0.86698">
        <ele>189.2</ele>
        <time>2025-05-10T08:58:28Z</time>
      </trkpt>
      <trkpt lat="44.94314" lon="0.86694">
        <ele>189.4</ele>
        <time>2025-05-10T08:58:29Z</time>
      </trkpt>
      <trkpt lat="44.94315" lon="0.8669">
        <ele>189.4</ele>
        <time>2025-05-10T08:58:30Z</time>
      </trkpt>
      <trkpt lat="44.94316" lon="0.86686">
        <ele>189.6</ele>
        <time>2025-05-10T08:58:31Z</time>
      </trkpt>
      <trkpt lat="44.94318" lon="0.86682">
        <ele>189.6</ele>
        <time>2025-05-10T08:58:32Z</time>
      </trkpt>
      <trkpt lat="44.94319" lon="0.86677">
        <ele>189.8</ele>
        <time>2025-05-10T08:58:33Z</time>
      </trkpt>
      <trkpt lat="44.9432" lon="0.86673">
        <ele>190</ele>
        <time>2025-05-10T08:58:34Z</time>
      </trkpt>
      <trkpt lat="44.94321" lon="0.86669">
        <ele>190.2</ele>
        <time>2025-05-10T08:58:35Z</time>
      </trkpt>
      <trkpt lat="44.94322" lon="0.86664">
        <ele>190.4</ele>
        <time>2025-05-10T08:58:36Z</time>
      </trkpt>
      <trkpt lat="44.94323" lon="0.86659">
        <ele>190.4</ele>
        <time>2025-05-10T08:58:37Z</time>
      </trkpt>
      <trkpt lat="44.94324" lon="0.86655">
        <ele>190.4</ele>
        <time>2025-05-10T08:58:38Z</time>
      </trkpt>
      <trkpt lat="44.94326" lon="0.8665">
        <ele>190.4</ele>
        <time>2025-05-10T08:58:39Z</time>
      </trkpt>
      <trkpt lat="44.94327" lon="0.86645">
        <ele>190.4</ele>
        <time>2025-05-10T08:58:40Z</time>
      </trkpt>
      <trkpt lat="44.94328" lon="0.86641">
        <ele>190.4</ele>
        <time>2025-05-10T08:58:41Z</time>
      </trkpt>
      <trkpt lat="44.9433" lon="0.86636">
        <ele>190.4</ele>
        <time>2025-05-10T08:58:42Z</time>
      </trkpt>
      <trkpt lat="44.94331" lon="0.86631">
        <ele>190.4</ele>
        <time>2025-05-10T08:58:43Z</time>
      </trkpt>
      <trkpt lat="44.94332" lon="0.86626">
        <ele>190.4</ele>
        <time>2025-05-10T08:58:44Z</time>
      </trkpt>
      <trkpt lat="44.94334" lon="0.86621">
        <ele>190.4</ele>
        <time>2025-05-10T08:58:45Z</time>
      </trkpt>
      <trkpt lat="44.94335" lon="0.86616">
        <ele>190.4</ele>
        <time>2025-05-10T08:58:46Z</time>
      </trkpt>
      <trkpt lat="44.94337" lon="0.86611">
        <ele>190.4</ele>
        <time>2025-05-10T08:58:47Z</time>
      </trkpt>
      <trkpt lat="44.94339" lon="0.86606">
        <ele>190.4</ele>
        <time>2025-05-10T08:58:48Z</time>
      </trkpt>
      <trkpt lat="44.9434" lon="0.86601">
        <ele>190.6</ele>
        <time>2025-05-10T08:58:49Z</time>
      </trkpt>
      <trkpt lat="44.94341" lon="0.86595">
        <ele>190.6</ele>
        <time>2025-05-10T08:58:50Z</time>
      </trkpt>
      <trkpt lat="44.94343" lon="0.8659">
        <ele>190.6</ele>
        <time>2025-05-10T08:58:51Z</time>
      </trkpt>
      <trkpt lat="44.94344" lon="0.86584">
        <ele>190.6</ele>
        <time>2025-05-10T08:58:52Z</time>
      </trkpt>
      <trkpt lat="44.94345" lon="0.86579">
        <ele>190.6</ele>
        <time>2025-05-10T08:58:53Z</time>
      </trkpt>
      <trkpt lat="44.94347" lon="0.86573">
        <ele>190.6</ele>
        <time>2025-05-10T08:58:54Z</time>
      </trkpt>
      <trkpt lat="44.94348" lon="0.86567">
        <ele>190.6</ele>
        <time>2025-05-10T08:58:55Z</time>
      </trkpt>
      <trkpt lat="44.94349" lon="0.86562">
        <ele>190.4</ele>
        <time>2025-05-10T08:58:56Z</time>
      </trkpt>
      <trkpt lat="44.94351" lon="0.86556">
        <ele>190.4</ele>
        <time>2025-05-10T08:58:57Z</time>
      </trkpt>
      <trkpt lat="44.94352" lon="0.8655">
        <ele>190.4</ele>
        <time>2025-05-10T08:58:58Z</time>
      </trkpt>
      <trkpt lat="44.94353" lon="0.86544">
        <ele>190.2</ele>
        <time>2025-05-10T08:58:59Z</time>
      </trkpt>
      <trkpt lat="44.94355" lon="0.86538">
        <ele>190.4</ele>
        <time>2025-05-10T08:59:00Z</time>
      </trkpt>
      <trkpt lat="44.94356" lon="0.86532">
        <ele>190.4</ele>
        <time>2025-05-10T08:59:01Z</time>
      </trkpt>
      <trkpt lat="44.94357" lon="0.86526">
        <ele>190.4</ele>
        <time>2025-05-10T08:59:02Z</time>
      </trkpt>
      <trkpt lat="44.94358" lon="0.8652">
        <ele>190.4</ele>
        <time>2025-05-10T08:59:03Z</time>
      </trkpt>
      <trkpt lat="44.94358" lon="0.86514">
        <ele>190.6</ele>
        <time>2025-05-10T08:59:04Z</time>
      </trkpt>
      <trkpt lat="44.94357" lon="0.86507">
        <ele>190.6</ele>
        <time>2025-05-10T08:59:05Z</time>
      </trkpt>
      <trkpt lat="44.94355" lon="0.86502">
        <ele>190.6</ele>
        <time>2025-05-10T08:59:06Z</time>
      </trkpt>
      <trkpt lat="44.94352" lon="0.86497">
        <ele>190.8</ele>
        <time>2025-05-10T08:59:07Z</time>
      </trkpt>
      <trkpt lat="44.94349" lon="0.86494">
        <ele>190.8</ele>
        <time>2025-05-10T08:59:08Z</time>
      </trkpt>
      <trkpt lat="44.94346" lon="0.86491">
        <ele>190.8</ele>
        <time>2025-05-10T08:59:09Z</time>
      </trkpt>
      <trkpt lat="44.94343" lon="0.8649">
        <ele>190.8</ele>
        <time>2025-05-10T08:59:10Z</time>
      </trkpt>
      <trkpt lat="44.9434" lon="0.86488">
        <ele>191.2</ele>
        <time>2025-05-10T08:59:11Z</time>
      </trkpt>
      <trkpt lat="44.94337" lon="0.86485">
        <ele>191.6</ele>
        <time>2025-05-10T08:59:12Z</time>
      </trkpt>
      <trkpt lat="44.94335" lon="0.86481">
        <ele>192.2</ele>
        <time>2025-05-10T08:59:13Z</time>
      </trkpt>
      <trkpt lat="44.94332" lon="0.86478">
        <ele>192.2</ele>
        <time>2025-05-10T08:59:14Z</time>
      </trkpt>
      <trkpt lat="44.9433" lon="0.86475">
        <ele>192.4</ele>
        <time>2025-05-10T08:59:15Z</time>
      </trkpt>
      <trkpt lat="44.94327" lon="0.86472">
        <ele>192.6</ele>
        <time>2025-05-10T08:59:16Z</time>
      </trkpt>
      <trkpt lat="44.94325" lon="0.8647">
        <ele>192.8</ele>
        <time>2025-05-10T08:59:17Z</time>
      </trkpt>
      <trkpt lat="44.94323" lon="0.86467">
        <ele>193.4</ele>
        <time>2025-05-10T08:59:18Z</time>
      </trkpt>
      <trkpt lat="44.9432" lon="0.86465">
        <ele>193.8</ele>
        <time>2025-05-10T08:59:19Z</time>
      </trkpt>
      <trkpt lat="44.94318" lon="0.86462">
        <ele>194.2</ele>
        <time>2025-05-10T08:59:20Z</time>
      </trkpt>
      <trkpt lat="44.94316" lon="0.86458">
        <ele>194.6</ele>
        <time>2025-05-10T08:59:21Z</time>
      </trkpt>
      <trkpt lat="44.94313" lon="0.86456">
        <ele>194.8</ele>
        <time>2025-05-10T08:59:22Z</time>
      </trkpt>
      <trkpt lat="44.94311" lon="0.86453">
        <ele>195.2</ele>
        <time>2025-05-10T08:59:23Z</time>
      </trkpt>
      <trkpt lat="44.94309" lon="0.8645">
        <ele>195.4</ele>
        <time>2025-05-10T08:59:24Z</time>
      </trkpt>
      <trkpt lat="44.94307" lon="0.86447">
        <ele>195.8</ele>
        <time>2025-05-10T08:59:25Z</time>
      </trkpt>
      <trkpt lat="44.94304" lon="0.86445">
        <ele>196</ele>
        <time>2025-05-10T08:59:26Z</time>
      </trkpt>
      <trkpt lat="44.94302" lon="0.86442">
        <ele>196.4</ele>
        <time>2025-05-10T08:59:27Z</time>
      </trkpt>
      <trkpt lat="44.943" lon="0.8644">
        <ele>196.8</ele>
        <time>2025-05-10T08:59:28Z</time>
      </trkpt>
      <trkpt lat="44.94298" lon="0.86437">
        <ele>197</ele>
        <time>2025-05-10T08:59:29Z</time>
      </trkpt>
      <trkpt lat="44.94296" lon="0.86435">
        <ele>197.2</ele>
        <time>2025-05-10T08:59:30Z</time>
      </trkpt>
      <trkpt lat="44.94294" lon="0.86432">
        <ele>197.4</ele>
        <time>2025-05-10T08:59:31Z</time>
      </trkpt>
      <trkpt lat="44.94291" lon="0.86429">
        <ele>197.8</ele>
        <time>2025-05-10T08:59:32Z</time>
      </trkpt>
      <trkpt lat="44.94289" lon="0.86427">
        <ele>198</ele>
        <time>2025-05-10T08:59:33Z</time>
      </trkpt>
      <trkpt lat="44.94286" lon="0.86424">
        <ele>198</ele>
        <time>2025-05-10T08:59:34Z</time>
      </trkpt>
      <trkpt lat="44.94284" lon="0.86421">
        <ele>198</ele>
        <time>2025-05-10T08:59:35Z</time>
      </trkpt>
      <trkpt lat="44.94281" lon="0.86418">
        <ele>198</ele>
        <time>2025-05-10T08:59:36Z</time>
      </trkpt>
      <trkpt lat="44.94278" lon="0.86414">
        <ele>198.2</ele>
        <time>2025-05-10T08:59:37Z</time>
      </trkpt>
      <trkpt lat="44.94275" lon="0.86411">
        <ele>198.2</ele>
        <time>2025-05-10T08:59:38Z</time>
      </trkpt>
      <trkpt lat="44.94272" lon="0.86408">
        <ele>198.2</ele>
        <time>2025-05-10T08:59:39Z</time>
      </trkpt>
      <trkpt lat="44.9427" lon="0.86405">
        <ele>198.2</ele>
        <time>2025-05-10T08:59:40Z</time>
      </trkpt>
      <trkpt lat="44.94267" lon="0.86402">
        <ele>198.2</ele>
        <time>2025-05-10T08:59:41Z</time>
      </trkpt>
      <trkpt lat="44.94265" lon="0.86399">
        <ele>198.2</ele>
        <time>2025-05-10T08:59:42Z</time>
      </trkpt>
      <trkpt lat="44.94263" lon="0.86397">
        <ele>198.4</ele>
        <time>2025-05-10T08:59:43Z</time>
      </trkpt>
      <trkpt lat="44.94261" lon="0.86394">
        <ele>198.4</ele>
        <time>2025-05-10T08:59:44Z</time>
      </trkpt>
      <trkpt lat="44.94258" lon="0.86391">
        <ele>198.4</ele>
        <time>2025-05-10T08:59:45Z</time>
      </trkpt>
      <trkpt lat="44.94256" lon="0.86388">
        <ele>198.6</ele>
        <time>2025-05-10T08:59:46Z</time>
      </trkpt>
      <trkpt lat="44.94254" lon="0.86384">
        <ele>198.8</ele>
        <time>2025-05-10T08:59:47Z</time>
      </trkpt>
      <trkpt lat="44.94252" lon="0.86381">
        <ele>198.8</ele>
        <time>2025-05-10T08:59:48Z</time>
      </trkpt>
      <trkpt lat="44.9425" lon="0.86377">
        <ele>199</ele>
        <time>2025-05-10T08:59:49Z</time>
      </trkpt>
      <trkpt lat="44.94248" lon="0.86374">
        <ele>199.2</ele>
        <time>2025-05-10T08:59:50Z</time>
      </trkpt>
      <trkpt lat="44.94246" lon="0.86371">
        <ele>199.2</ele>
        <time>2025-05-10T08:59:51Z</time>
      </trkpt>
      <trkpt lat="44.94244" lon="0.86369">
        <ele>199.6</ele>
        <time>2025-05-10T08:59:52Z</time>
      </trkpt>
      <trkpt lat="44.94242" lon="0.86366">
        <ele>199.6</ele>
        <time>2025-05-10T08:59:53Z</time>
      </trkpt>
      <trkpt lat="44.9424" lon="0.86362">
        <ele>199.6</ele>
        <time>2025-05-10T08:59:54Z</time>
      </trkpt>
      <trkpt lat="44.94238" lon="0.86358">
        <ele>200</ele>
        <time>2025-05-10T08:59:55Z</time>
      </trkpt>
      <trkpt lat="44.94236" lon="0.86355">
        <ele>200</ele>
        <time>2025-05-10T08:59:56Z</time>
      </trkpt>
      <trkpt lat="44.94234" lon="0.86352">
        <ele>200.2</ele>
        <time>2025-05-10T08:59:57Z</time>
      </trkpt>
      <trkpt lat="44.94232" lon="0.86348">
        <ele>200.4</ele>
        <time>2025-05-10T08:59:58Z</time>
      </trkpt>
      <trkpt lat="44.9423" lon="0.86345">
        <ele>200.6</ele>
        <time>2025-05-10T08:59:59Z</time>
      </trkpt>
      <trkpt lat="44.94229" lon="0.86342">
        <ele>200.6</ele>
        <time>2025-05-10T09:00:00Z</time>
      </trkpt>
      <trkpt lat="44.94228" lon="0.8634">
        <ele>200.8</ele>
        <time>2025-05-10T09:00:01Z</time>
      </trkpt>
      <trkpt lat="44.94227" lon="0.86337">
        <ele>201</ele>
        <time>2025-05-10T09:00:02Z</time>
      </trkpt>
      <trkpt lat="44.94225" lon="0.86335">
        <ele>201.2</ele>
        <time>2025-05-10T09:00:03Z</time>
      </trkpt>
      <trkpt lat="44.94224" lon="0.86332">
        <ele>201.6</ele>
        <time>2025-05-10T09:00:04Z</time>
      </trkpt>
      <trkpt lat="44.94222" lon="0.8633">
        <ele>202.2</ele>
        <time>2025-05-10T09:00:05Z</time>
      </trkpt>
      <trkpt lat="44.94221" lon="0.86328">
        <ele>202.2</ele>
        <time>2025-05-10T09:00:06Z</time>
      </trkpt>
      <trkpt lat="44.94219" lon="0.86326">
        <ele>202.4</ele>
        <time>2025-05-10T09:00:07Z</time>
      </trkpt>
      <trkpt lat="44.94218" lon="0.86324">
        <ele>202.4</ele>
        <time>2025-05-10T09:00:08Z</time>
      </trkpt>
      <trkpt lat="44.94217" lon="0.86323">
        <ele>202.6</ele>
        <time>2025-05-10T09:00:09Z</time>
      </trkpt>
      <trkpt lat="44.94216" lon="0.8632">
        <ele>203</ele>
        <time>2025-05-10T09:00:10Z</time>
      </trkpt>
      <trkpt lat="44.94215" lon="0.86318">
        <ele>203.2</ele>
        <time>2025-05-10T09:00:11Z</time>
      </trkpt>
      <trkpt lat="44.94214" lon="0.86316">
        <ele>203.2</ele>
        <time>2025-05-10T09:00:12Z</time>
      </trkpt>
      <trkpt lat="44.94213" lon="0.86313">
        <ele>203.6</ele>
        <time>2025-05-10T09:00:13Z</time>
      </trkpt>
      <trkpt lat="44.94212" lon="0.86312">
        <ele>203.8</ele>
        <time>2025-05-10T09:00:14Z</time>
      </trkpt>
      <trkpt lat="44.94211" lon="0.8631">
        <ele>204</ele>
        <time>2025-05-10T09:00:15Z</time>
      </trkpt>
      <trkpt lat="44.9421" lon="0.86308">
        <ele>204.2</ele>
        <time>2025-05-10T09:00:16Z</time>
      </trkpt>
      <trkpt lat="44.94209" lon="0.86306">
        <ele>204.4</ele>
        <time>2025-05-10T09:00:17Z</time>
      </trkpt>
      <trkpt lat="44.94208" lon="0.86304">
        <ele>204.6</ele>
        <time>2025-05-10T09:00:18Z</time>
      </trkpt>
      <trkpt lat="44.94206" lon="0.86301">
        <ele>205</ele>
        <time>2025-05-10T09:00:19Z</time>
      </trkpt>
      <trkpt lat="44.94205" lon="0.86299">
        <ele>205.2</ele>
        <time>2025-05-10T09:00:20Z</time>
      </trkpt>
      <trkpt lat="44.94204" lon="0.86297">
        <ele>205.4</ele>
        <time>2025-05-10T09:00:21Z</time>
      </trkpt>
      <trkpt lat="44.94204" lon="0.86294">
        <ele>205.6</ele>
        <time>2025-05-10T09:00:22Z</time>
      </trkpt>
      <trkpt lat="44.94203" lon="0.86291">
        <ele>205.8</ele>
        <time>2025-05-10T09:00:23Z</time>
      </trkpt>
      <trkpt lat="44.94202" lon="0.86289">
        <ele>206</ele>
        <time>2025-05-10T09:00:24Z</time>
      </trkpt>
      <trkpt lat="44.94202" lon="0.86287">
        <ele>206.2</ele>
        <time>2025-05-10T09:00:25Z</time>
      </trkpt>
      <trkpt lat="44.94201" lon="0.86285">
        <ele>206.4</ele>
        <time>2025-05-10T09:00:26Z</time>
      </trkpt>
      <trkpt lat="44.942" lon="0.86282">
        <ele>206.4</ele>
        <time>2025-05-10T09:00:27Z</time>
      </trkpt>
      <trkpt lat="44.94199" lon="0.86279">
        <ele>206.6</ele>
        <time>2025-05-10T09:00:28Z</time>
      </trkpt>
      <trkpt lat="44.94198" lon="0.86276">
        <ele>206.8</ele>
        <time>2025-05-10T09:00:29Z</time>
      </trkpt>
      <trkpt lat="44.94197" lon="0.86274">
        <ele>207</ele>
        <time>2025-05-10T09:00:30Z</time>
      </trkpt>
      <trkpt lat="44.94196" lon="0.86272">
        <ele>207.2</ele>
        <time>2025-05-10T09:00:31Z</time>
      </trkpt>
      <trkpt lat="44.94194" lon="0.86269">
        <ele>207.2</ele>
        <time>2025-05-10T09:00:32Z</time>
      </trkpt>
      <trkpt lat="44.94193" lon="0.86266">
        <ele>207.4</ele>
        <time>2025-05-10T09:00:33Z</time>
      </trkpt>
      <trkpt lat="44.94191" lon="0.86264">
        <ele>207.6</ele>
        <time>2025-05-10T09:00:34Z</time>
      </trkpt>
      <trkpt lat="44.9419" lon="0.86261">
        <ele>207.8</ele>
        <time>2025-05-10T09:00:35Z</time>
      </trkpt>
      <trkpt lat="44.94189" lon="0.86258">
        <ele>207.8</ele>
        <time>2025-05-10T09:00:36Z</time>
      </trkpt>
      <trkpt lat="44.94188" lon="0.86255">
        <ele>208</ele>
        <time>2025-05-10T09:00:37Z</time>
      </trkpt>
      <trkpt lat="44.94187" lon="0.86252">
        <ele>208</ele>
        <time>2025-05-10T09:00:38Z</time>
      </trkpt>
      <trkpt lat="44.94185" lon="0.8625">
        <ele>208.2</ele>
        <time>2025-05-10T09:00:39Z</time>
      </trkpt>
      <trkpt lat="44.94184" lon="0.86247">
        <ele>208.4</ele>
        <time>2025-05-10T09:00:40Z</time>
      </trkpt>
      <trkpt lat="44.94183" lon="0.86245">
        <ele>208.4</ele>
        <time>2025-05-10T09:00:41Z</time>
      </trkpt>
      <trkpt lat="44.94182" lon="0.86242">
        <ele>208.6</ele>
        <time>2025-05-10T09:00:42Z</time>
      </trkpt>
      <trkpt lat="44.94181" lon="0.86239">
        <ele>208.6</ele>
        <time>2025-05-10T09:00:43Z</time>
      </trkpt>
      <trkpt lat="44.94179" lon="0.86237">
        <ele>208.8</ele>
        <time>2025-05-10T09:00:44Z</time>
      </trkpt>
      <trkpt lat="44.94178" lon="0.86235">
        <ele>209</ele>
        <time>2025-05-10T09:00:45Z</time>
      </trkpt>
      <trkpt lat="44.94176" lon="0.86232">
        <ele>209.2</ele>
        <time>2025-05-10T09:00:46Z</time>
      </trkpt>
      <trkpt lat="44.94175" lon="0.8623">
        <ele>209.2</ele>
        <time>2025-05-10T09:00:47Z</time>
      </trkpt>
      <trkpt lat="44.94173" lon="0.86228">
        <ele>209.4</ele>
        <time>2025-05-10T09:00:48Z</time>
      </trkpt>
      <trkpt lat="44.94172" lon="0.86225">
        <ele>209.6</ele>
        <time>2025-05-10T09:00:49Z</time>
      </trkpt>
      <trkpt lat="44.9417" lon="0.86222">
        <ele>209.8</ele>
        <time>2025-05-10T09:00:50Z</time>
      </trkpt>
      <trkpt lat="44.94169" lon="0.86219">
        <ele>210</ele>
        <time>2025-05-10T09:00:51Z</time>
      </trkpt>
      <trkpt lat="44.94167" lon="0.86217">
        <ele>210.2</ele>
        <time>2025-05-10T09:00:52Z</time>
      </trkpt>
      <trkpt lat="44.94165" lon="0.86215">
        <ele>210.4</ele>
        <time>2025-05-10T09:00:53Z</time>
      </trkpt>
      <trkpt lat="44.94163" lon="0.86212">
        <ele>210.6</ele>
        <time>2025-05-10T09:00:54Z</time>
      </trkpt>
      <trkpt lat="44.94161" lon="0.8621">
        <ele>210.6</ele>
        <time>2025-05-10T09:00:55Z</time>
      </trkpt>
      <trkpt lat="44.9416" lon="0.86207">
        <ele>210.6</ele>
        <time>2025-05-10T09:00:56Z</time>
      </trkpt>
      <trkpt lat="44.94159" lon="0.86205">
        <ele>210.8</ele>
        <time>2025-05-10T09:00:57Z</time>
      </trkpt>
      <trkpt lat="44.94157" lon="0.86202">
        <ele>211</ele>
        <time>2025-05-10T09:00:58Z</time>
      </trkpt>
      <trkpt lat="44.94156" lon="0.86199">
        <ele>211</ele>
        <time>2025-05-10T09:00:59Z</time>
      </trkpt>
      <trkpt lat="44.94155" lon="0.86196">
        <ele>211.2</ele>
        <time>2025-05-10T09:01:00Z</time>
      </trkpt>
      <trkpt lat="44.94154" lon="0.86193">
        <ele>211.4</ele>
        <time>2025-05-10T09:01:01Z</time>
      </trkpt>
      <trkpt lat="44.94153" lon="0.86191">
        <ele>211.6</ele>
        <time>2025-05-10T09:01:02Z</time>
      </trkpt>
      <trkpt lat="44.94152" lon="0.86189">
        <ele>211.8</ele>
        <time>2025-05-10T09:01:03Z</time>
      </trkpt>
      <trkpt lat="44.9415" lon="0.86186">
        <ele>212</ele>
        <time>2025-05-10T09:01:04Z</time>
      </trkpt>
      <trkpt lat="44.94149" lon="0.86183">
        <ele>212.2</ele>
        <time>2025-05-10T09:01:05Z</time>
      </trkpt>
      <trkpt lat="44.94148" lon="0.8618">
        <ele>212.4</ele>
        <time>2025-05-10T09:01:06Z</time>
      </trkpt>
      <trkpt lat="44.94147" lon="0.86177">
        <ele>212.6</ele>
        <time>2025-05-10T09:01:07Z</time>
      </trkpt>
      <trkpt lat="44.94146" lon="0.86175">
        <ele>212.6</ele>
        <time>2025-05-10T09:01:08Z</time>
      </trkpt>
      <trkpt lat="44.94144" lon="0.86171">
        <ele>212.8</ele>
        <time>2025-05-10T09:01:09Z</time>
      </trkpt>
      <trkpt lat="44.94143" lon="0.86168">
        <ele>213</ele>
        <time>2025-05-10T09:01:10Z</time>
      </trkpt>
      <trkpt lat="44.94142" lon="0.86165">
        <ele>213</ele>
        <time>2025-05-10T09:01:11Z</time>
      </trkpt>
      <trkpt lat="44.9414" lon="0.86162">
        <ele>213.2</ele>
        <time>2025-05-10T09:01:12Z</time>
      </trkpt>
      <trkpt lat="44.94138" lon="0.86159">
        <ele>213.2</ele>
        <time>2025-05-10T09:01:13Z</time>
      </trkpt>
      <trkpt lat="44.94136" lon="0.86157">
        <ele>213.4</ele>
        <time>2025-05-10T09:01:14Z</time>
      </trkpt>
      <trkpt lat="44.94134" lon="0.86155">
        <ele>213.4</ele>
        <time>2025-05-10T09:01:15Z</time>
      </trkpt>
      <trkpt lat="44.94131" lon="0.86153">
        <ele>213.4</ele>
        <time>2025-05-10T09:01:16Z</time>
      </trkpt>
      <trkpt lat="44.94129" lon="0.86151">
        <ele>213.4</ele>
        <time>2025-05-10T09:01:17Z</time>
      </trkpt>
      <trkpt lat="44.94126" lon="0.86149">
        <ele>213.4</ele>
        <time>2025-05-10T09:01:18Z</time>
      </trkpt>
      <trkpt lat="44.94123" lon="0.86147">
        <ele>213.6</ele>
        <time>2025-05-10T09:01:19Z</time>
      </trkpt>
      <trkpt lat="44.94121" lon="0.86145">
        <ele>213.6</ele>
        <time>2025-05-10T09:01:20Z</time>
      </trkpt>
      <trkpt lat="44.94117" lon="0.86144">
        <ele>213.6</ele>
        <time>2025-05-10T09:01:21Z</time>
      </trkpt>
      <trkpt lat="44.94114" lon="0.86143">
        <ele>213.6</ele>
        <time>2025-05-10T09:01:22Z</time>
      </trkpt>
      <trkpt lat="44.94111" lon="0.86142">
        <ele>213.6</ele>
        <time>2025-05-10T09:01:23Z</time>
      </trkpt>
      <trkpt lat="44.94107" lon="0.86141">
        <ele>213.6</ele>
        <time>2025-05-10T09:01:24Z</time>
      </trkpt>
      <trkpt lat="44.94103" lon="0.86139">
        <ele>213.6</ele>
        <time>2025-05-10T09:01:25Z</time>
      </trkpt>
      <trkpt lat="44.941" lon="0.86138">
        <ele>213.6</ele>
        <time>2025-05-10T09:01:26Z</time>
      </trkpt>
      <trkpt lat="44.94096" lon="0.86137">
        <ele>213.6</ele>
        <time>2025-05-10T09:01:27Z</time>
      </trkpt>
      <trkpt lat="44.94092" lon="0.86136">
        <ele>213.6</ele>
        <time>2025-05-10T09:01:28Z</time>
      </trkpt>
      <trkpt lat="44.94089" lon="0.86134">
        <ele>213.6</ele>
        <time>2025-05-10T09:01:29Z</time>
      </trkpt>
      <trkpt lat="44.94085" lon="0.86132">
        <ele>213.6</ele>
        <time>2025-05-10T09:01:30Z</time>
      </trkpt>
      <trkpt lat="44.94082" lon="0.86131">
        <ele>213.6</ele>
        <time>2025-05-10T09:01:31Z</time>
      </trkpt>
      <trkpt lat="44.94079" lon="0.86129">
        <ele>213.6</ele>
        <time>2025-05-10T09:01:32Z</time>
      </trkpt>
      <trkpt lat="44.94075" lon="0.86127">
        <ele>213.6</ele>
        <time>2025-05-10T09:01:33Z</time>
      </trkpt>
      <trkpt lat="44.94072" lon="0.86126">
        <ele>213.8</ele>
        <time>2025-05-10T09:01:34Z</time>
      </trkpt>
      <trkpt lat="44.94068" lon="0.86124">
        <ele>213.8</ele>
        <time>2025-05-10T09:01:35Z</time>
      </trkpt>
      <trkpt lat="44.94065" lon="0.86122">
        <ele>213.8</ele>
        <time>2025-05-10T09:01:36Z</time>
      </trkpt>
      <trkpt lat="44.94061" lon="0.8612">
        <ele>213.8</ele>
        <time>2025-05-10T09:01:37Z</time>
      </trkpt>
      <trkpt lat="44.94058" lon="0.86117">
        <ele>214</ele>
        <time>2025-05-10T09:01:38Z</time>
      </trkpt>
      <trkpt lat="44.94055" lon="0.86114">
        <ele>214</ele>
        <time>2025-05-10T09:01:39Z</time>
      </trkpt>
      <trkpt lat="44.94052" lon="0.86112">
        <ele>214</ele>
        <time>2025-05-10T09:01:40Z</time>
      </trkpt>
      <trkpt lat="44.9405" lon="0.86108">
        <ele>214</ele>
        <time>2025-05-10T09:01:41Z</time>
      </trkpt>
      <trkpt lat="44.94047" lon="0.86105">
        <ele>214</ele>
        <time>2025-05-10T09:01:42Z</time>
      </trkpt>
      <trkpt lat="44.94044" lon="0.86102">
        <ele>214</ele>
        <time>2025-05-10T09:01:43Z</time>
      </trkpt>
      <trkpt lat="44.94041" lon="0.86098">
        <ele>214</ele>
        <time>2025-05-10T09:01:44Z</time>
      </trkpt>
      <trkpt lat="44.94039" lon="0.86094">
        <ele>214.2</ele>
        <time>2025-05-10T09:01:45Z</time>
      </trkpt>
      <trkpt lat="44.94037" lon="0.86089">
        <ele>214.2</ele>
        <time>2025-05-10T09:01:46Z</time>
      </trkpt>
      <trkpt lat="44.94035" lon="0.86082">
        <ele>214.2</ele>
        <time>2025-05-10T09:01:47Z</time>
      </trkpt>
      <trkpt lat="44.94033" lon="0.86075">
        <ele>214.2</ele>
        <time>2025-05-10T09:01:48Z</time>
      </trkpt>
      <trkpt lat="44.94032" lon="0.86069">
        <ele>214</ele>
        <time>2025-05-10T09:01:49Z</time>
      </trkpt>
      <trkpt lat="44.9403" lon="0.86062">
        <ele>213.8</ele>
        <time>2025-05-10T09:01:50Z</time>
      </trkpt>
      <trkpt lat="44.94029" lon="0.86054">
        <ele>213.6</ele>
        <time>2025-05-10T09:01:51Z</time>
      </trkpt>
      <trkpt lat="44.94027" lon="0.86047">
        <ele>213.6</ele>
        <time>2025-05-10T09:01:52Z</time>
      </trkpt>
      <trkpt lat="44.94026" lon="0.86039">
        <ele>213.6</ele>
        <time>2025-05-10T09:01:53Z</time>
      </trkpt>
      <trkpt lat="44.94025" lon="0.86031">
        <ele>213.4</ele>
        <time>2025-05-10T09:01:54Z</time>
      </trkpt>
      <trkpt lat="44.94023" lon="0.86023">
        <ele>213.4</ele>
        <time>2025-05-10T09:01:55Z</time>
      </trkpt>
      <trkpt lat="44.94021" lon="0.86014">
        <ele>213</ele>
        <time>2025-05-10T09:01:56Z</time>
      </trkpt>
      <trkpt lat="44.9402" lon="0.86006">
        <ele>212.6</ele>
        <time>2025-05-10T09:01:57Z</time>
      </trkpt>
      <trkpt lat="44.94019" lon="0.85996">
        <ele>212.4</ele>
        <time>2025-05-10T09:01:58Z</time>
      </trkpt>
      <trkpt lat="44.94018" lon="0.85987">
        <ele>212.2</ele>
        <time>2025-05-10T09:01:59Z</time>
      </trkpt>
      <trkpt lat="44.94018" lon="0.85978">
        <ele>212</ele>
        <time>2025-05-10T09:02:00Z</time>
      </trkpt>
      <trkpt lat="44.94018" lon="0.85968">
        <ele>211.8</ele>
        <time>2025-05-10T09:02:01Z</time>
      </trkpt>
      <trkpt lat="44.94018" lon="0.85958">
        <ele>211.4</ele>
        <time>2025-05-10T09:02:02Z</time>
      </trkpt>
      <trkpt lat="44.94018" lon="0.85949">
        <ele>210.8</ele>
        <time>2025-05-10T09:02:03Z</time>
      </trkpt>
      <trkpt lat="44.94017" lon="0.8594">
        <ele>210.6</ele>
        <time>2025-05-10T09:02:04Z</time>
      </trkpt>
      <trkpt lat="44.94014" lon="0.85932">
        <ele>210.2</ele>
        <time>2025-05-10T09:02:05Z</time>
      </trkpt>
      <trkpt lat="44.9401" lon="0.85925">
        <ele>210</ele>
        <time>2025-05-10T09:02:06Z</time>
      </trkpt>
      <trkpt lat="44.94006" lon="0.85917">
        <ele>210</ele>
        <time>2025-05-10T09:02:07Z</time>
      </trkpt>
      <trkpt lat="44.94001" lon="0.85911">
        <ele>209.8</ele>
        <time>2025-05-10T09:02:08Z</time>
      </trkpt>
      <trkpt lat="44.93996" lon="0.85904">
        <ele>209.6</ele>
        <time>2025-05-10T09:02:09Z</time>
      </trkpt>
      <trkpt lat="44.93991" lon="0.85899">
        <ele>209.4</ele>
        <time>2025-05-10T09:02:10Z</time>
      </trkpt>
      <trkpt lat="44.93987" lon="0.85892">
        <ele>208.8</ele>
        <time>2025-05-10T09:02:11Z</time>
      </trkpt>
      <trkpt lat="44.93985" lon="0.85885">
        <ele>207.8</ele>
        <time>2025-05-10T09:02:12Z</time>
      </trkpt>
      <trkpt lat="44.93984" lon="0.85877">
        <ele>207</ele>
        <time>2025-05-10T09:02:13Z</time>
      </trkpt>
      <trkpt lat="44.93984" lon="0.85868">
        <ele>206.6</ele>
        <time>2025-05-10T09:02:14Z</time>
      </trkpt>
      <trkpt lat="44.93983" lon="0.8586">
        <ele>206.2</ele>
        <time>2025-05-10T09:02:15Z</time>
      </trkpt>
      <trkpt lat="44.93983" lon="0.85851">
        <ele>205.8</ele>
        <time>2025-05-10T09:02:16Z</time>
      </trkpt>
      <trkpt lat="44.93985" lon="0.85843">
        <ele>205.6</ele>
        <time>2025-05-10T09:02:17Z</time>
      </trkpt>
      <trkpt lat="44.93987" lon="0.85834">
        <ele>205.4</ele>
        <time>2025-05-10T09:02:18Z</time>
      </trkpt>
      <trkpt lat="44.93989" lon="0.85826">
        <ele>205.2</ele>
        <time>2025-05-10T09:02:19Z</time>
      </trkpt>
      <trkpt lat="44.93991" lon="0.85818">
        <ele>205</ele>
        <time>2025-05-10T09:02:20Z</time>
      </trkpt>
      <trkpt lat="44.93993" lon="0.8581">
        <ele>204.8</ele>
        <time>2025-05-10T09:02:21Z</time>
      </trkpt>
      <trkpt lat="44.93995" lon="0.85801">
        <ele>204.6</ele>
        <time>2025-05-10T09:02:22Z</time>
      </trkpt>
      <trkpt lat="44.93997" lon="0.85794">
        <ele>204.4</ele>
        <time>2025-05-10T09:02:23Z</time>
      </trkpt>
      <trkpt lat="44.93999" lon="0.85786">
        <ele>204.2</ele>
        <time>2025-05-10T09:02:24Z</time>
      </trkpt>
      <trkpt lat="44.94" lon="0.85779">
        <ele>204</ele>
        <time>2025-05-10T09:02:25Z</time>
      </trkpt>
      <trkpt lat="44.94002" lon="0.85771">
        <ele>204</ele>
        <time>2025-05-10T09:02:26Z</time>
      </trkpt>
      <trkpt lat="44.94004" lon="0.85764">
        <ele>204</ele>
        <time>2025-05-10T09:02:27Z</time>
      </trkpt>
      <trkpt lat="44.94006" lon="0.85756">
        <ele>204</ele>
        <time>2025-05-10T09:02:28Z</time>
      </trkpt>
      <trkpt lat="44.94008" lon="0.85749">
        <ele>203.8</ele>
        <time>2025-05-10T09:02:29Z</time>
      </trkpt>
      <trkpt lat="44.94009" lon="0.85741">
        <ele>203.8</ele>
        <time>2025-05-10T09:02:30Z</time>
      </trkpt>
      <trkpt lat="44.94011" lon="0.85734">
        <ele>203.8</ele>
        <time>2025-05-10T09:02:31Z</time>
      </trkpt>
      <trkpt lat="44.94014" lon="0.85726">
        <ele>203.6</ele>
        <time>2025-05-10T09:02:32Z</time>
      </trkpt>
      <trkpt lat="44.94016" lon="0.85719">
        <ele>203.4</ele>
        <time>2025-05-10T09:02:33Z</time>
      </trkpt>
      <trkpt lat="44.94018" lon="0.85711">
        <ele>203.4</ele>
        <time>2025-05-10T09:02:34Z</time>
      </trkpt>
      <trkpt lat="44.9402" lon="0.85704">
        <ele>203</ele>
        <time>2025-05-10T09:02:35Z</time>
      </trkpt>
      <trkpt lat="44.94021" lon="0.85696">
        <ele>202.8</ele>
        <time>2025-05-10T09:02:36Z</time>
      </trkpt>
      <trkpt lat="44.94023" lon="0.85689">
        <ele>202.8</ele>
        <time>2025-05-10T09:02:37Z</time>
      </trkpt>
      <trkpt lat="44.94026" lon="0.85683">
        <ele>202.8</ele>
        <time>2025-05-10T09:02:38Z</time>
      </trkpt>
      <trkpt lat="44.94028" lon="0.85676">
        <ele>202.6</ele>
        <time>2025-05-10T09:02:39Z</time>
      </trkpt>
      <trkpt lat="44.94031" lon="0.8567">
        <ele>202.6</ele>
        <time>2025-05-10T09:02:40Z</time>
      </trkpt>
      <trkpt lat="44.94033" lon="0.85663">
        <ele>202.6</ele>
        <time>2025-05-10T09:02:41Z</time>
      </trkpt>
      <trkpt lat="44.94036" lon="0.85656">
        <ele>202.6</ele>
        <time>2025-05-10T09:02:42Z</time>
      </trkpt>
      <trkpt lat="44.94039" lon="0.85651">
        <ele>202.6</ele>
        <time>2025-05-10T09:02:43Z</time>
      </trkpt>
      <trkpt lat="44.94042" lon="0.85645">
        <ele>202.6</ele>
        <time>2025-05-10T09:02:44Z</time>
      </trkpt>
      <trkpt lat="44.94045" lon="0.8564">
        <ele>202.6</ele>
        <time>2025-05-10T09:02:45Z</time>
      </trkpt>
      <trkpt lat="44.94048" lon="0.85635">
        <ele>202.6</ele>
        <time>2025-05-10T09:02:46Z</time>
      </trkpt>
      <trkpt lat="44.94052" lon="0.8563">
        <ele>202.4</ele>
        <time>2025-05-10T09:02:47Z</time>
      </trkpt>
      <trkpt lat="44.94055" lon="0.85625">
        <ele>202.4</ele>
        <time>2025-05-10T09:02:48Z</time>
      </trkpt>
      <trkpt lat="44.94059" lon="0.85621">
        <ele>202.2</ele>
        <time>2025-05-10T09:02:49Z</time>
      </trkpt>
      <trkpt lat="44.94062" lon="0.85616">
        <ele>202</ele>
        <time>2025-05-10T09:02:50Z</time>
      </trkpt>
      <trkpt lat="44.94066" lon="0.85612">
        <ele>202</ele>
        <time>2025-05-10T09:02:51Z</time>
      </trkpt>
      <trkpt lat="44.9407" lon="0.85608">
        <ele>201.8</ele>
        <time>2025-05-10T09:02:52Z</time>
      </trkpt>
      <trkpt lat="44.94074" lon="0.85604">
        <ele>201.8</ele>
        <time>2025-05-10T09:02:53Z</time>
      </trkpt>
      <trkpt lat="44.94078" lon="0.85599">
        <ele>201.8</ele>
        <time>2025-05-10T09:02:54Z</time>
      </trkpt>
      <trkpt lat="44.94082" lon="0.85595">
        <ele>201.8</ele>
        <time>2025-05-10T09:02:55Z</time>
      </trkpt>
      <trkpt lat="44.94085" lon="0.85591">
        <ele>201.8</ele>
        <time>2025-05-10T09:02:56Z</time>
      </trkpt>
      <trkpt lat="44.94088" lon="0.85588">
        <ele>201.8</ele>
        <time>2025-05-10T09:02:57Z</time>
      </trkpt>
      <trkpt lat="44.94091" lon="0.85585">
        <ele>202</ele>
        <time>2025-05-10T09:02:58Z</time>
      </trkpt>
      <trkpt lat="44.94093" lon="0.85582">
        <ele>202.4</ele>
        <time>2025-05-10T09:02:59Z</time>
      </trkpt>
      <trkpt lat="44.94095" lon="0.8558">
        <ele>202.6</ele>
        <time>2025-05-10T09:03:00Z</time>
      </trkpt>
      <trkpt lat="44.94096" lon="0.85578">
        <ele>203.4</ele>
        <time>2025-05-10T09:03:01Z</time>
      </trkpt>
      <trkpt lat="44.94098" lon="0.85576">
        <ele>204</ele>
        <time>2025-05-10T09:03:02Z</time>
      </trkpt>
      <trkpt lat="44.94099" lon="0.85573">
        <ele>204.6</ele>
        <time>2025-05-10T09:03:03Z</time>
      </trkpt>
      <trkpt lat="44.941" lon="0.8557">
        <ele>205</ele>
        <time>2025-05-10T09:03:04Z</time>
      </trkpt>
      <trkpt lat="44.94101" lon="0.85566">
        <ele>205.2</ele>
        <time>2025-05-10T09:03:05Z</time>
      </trkpt>
      <trkpt lat="44.94102" lon="0.85563">
        <ele>205.6</ele>
        <time>2025-05-10T09:03:06Z</time>
      </trkpt>
      <trkpt lat="44.94103" lon="0.8556">
        <ele>205.8</ele>
        <time>2025-05-10T09:03:07Z</time>
      </trkpt>
      <trkpt lat="44.94104" lon="0.85557">
        <ele>206.2</ele>
        <time>2025-05-10T09:03:08Z</time>
      </trkpt>
      <trkpt lat="44.94105" lon="0.85555">
        <ele>206.4</ele>
        <time>2025-05-10T09:03:09Z</time>
      </trkpt>
      <trkpt lat="44.94105" lon="0.85553">
        <ele>206.6</ele>
        <time>2025-05-10T09:03:10Z</time>
      </trkpt>
      <trkpt lat="44.94106" lon="0.85551">
        <ele>207.2</ele>
        <time>2025-05-10T09:03:11Z</time>
      </trkpt>
      <trkpt lat="44.94107" lon="0.8555">
        <ele>207.4</ele>
        <time>2025-05-10T09:03:12Z</time>
      </trkpt>
      <trkpt lat="44.94108" lon="0.85548">
        <ele>207.6</ele>
        <time>2025-05-10T09:03:13Z</time>
      </trkpt>
      <trkpt lat="44.94108" lon="0.85546">
        <ele>208</ele>
        <time>2025-05-10T09:03:14Z</time>
      </trkpt>
      <trkpt lat="44.94109" lon="0.85544">
        <ele>208.4</ele>
        <time>2025-05-10T09:03:15Z</time>
      </trkpt>
      <trkpt lat="44.9411" lon="0.85543">
        <ele>208.6</ele>
        <time>2025-05-10T09:03:16Z</time>
      </trkpt>
      <trkpt lat="44.9411" lon="0.85541">
        <ele>208.8</ele>
        <time>2025-05-10T09:03:17Z</time>
      </trkpt>
      <trkpt lat="44.94111" lon="0.85539">
        <ele>209.2</ele>
        <time>2025-05-10T09:03:18Z</time>
      </trkpt>
      <trkpt lat="44.94112" lon="0.85537">
        <ele>209.6</ele>
        <time>2025-05-10T09:03:19Z</time>
      </trkpt>
      <trkpt lat="44.94113" lon="0.85536">
        <ele>210</ele>
        <time>2025-05-10T09:03:20Z</time>
      </trkpt>
      <trkpt lat="44.94114" lon="0.85534">
        <ele>210.2</ele>
        <time>2025-05-10T09:03:21Z</time>
      </trkpt>
      <trkpt lat="44.94115" lon="0.85533">
        <ele>210.6</ele>
        <time>2025-05-10T09:03:22Z</time>
      </trkpt>
      <trkpt lat="44.94115" lon="0.85531">
        <ele>210.8</ele>
        <time>2025-05-10T09:03:23Z</time>
      </trkpt>
      <trkpt lat="44.94116" lon="0.85528">
        <ele>211</ele>
        <time>2025-05-10T09:03:24Z</time>
      </trkpt>
      <trkpt lat="44.94117" lon="0.85526">
        <ele>211.2</ele>
        <time>2025-05-10T09:03:25Z</time>
      </trkpt>
      <trkpt lat="44.94118" lon="0.85524">
        <ele>211.4</ele>
        <time>2025-05-10T09:03:26Z</time>
      </trkpt>
      <trkpt lat="44.94118" lon="0.85522">
        <ele>211.6</ele>
        <time>2025-05-10T09:03:27Z</time>
      </trkpt>
      <trkpt lat="44.94118" lon="0.8552">
        <ele>211.8</ele>
        <time>2025-05-10T09:03:28Z</time>
      </trkpt>
      <trkpt lat="44.94119" lon="0.85519">
        <ele>212</ele>
        <time>2025-05-10T09:03:29Z</time>
      </trkpt>
      <trkpt lat="44.94119" lon="0.85517">
        <ele>212.4</ele>
        <time>2025-05-10T09:03:30Z</time>
      </trkpt>
      <trkpt lat="44.9412" lon="0.85515">
        <ele>212.6</ele>
        <time>2025-05-10T09:03:31Z</time>
      </trkpt>
      <trkpt lat="44.9412" lon="0.85513">
        <ele>212.8</ele>
        <time>2025-05-10T09:03:32Z</time>
      </trkpt>
      <trkpt lat="44.94121" lon="0.85511">
        <ele>213</ele>
        <time>2025-05-10T09:03:33Z</time>
      </trkpt>
      <trkpt lat="44.94122" lon="0.85509">
        <ele>213.2</ele>
        <time>2025-05-10T09:03:34Z</time>
      </trkpt>
      <trkpt lat="44.94123" lon="0.85507">
        <ele>213.4</ele>
        <time>2025-05-10T09:03:35Z</time>
      </trkpt>
      <trkpt lat="44.94123" lon="0.85505">
        <ele>213.6</ele>
        <time>2025-05-10T09:03:36Z</time>
      </trkpt>
      <trkpt lat="44.94124" lon="0.85504">
        <ele>214</ele>
        <time>2025-05-10T09:03:37Z</time>
      </trkpt>
      <trkpt lat="44.94124" lon="0.85502">
        <ele>214.2</ele>
        <time>2025-05-10T09:03:38Z</time>
      </trkpt>
      <trkpt lat="44.94125" lon="0.85501">
        <ele>214.4</ele>
        <time>2025-05-10T09:03:39Z</time>
      </trkpt>
      <trkpt lat="44.94125" lon="0.85498">
        <ele>214.6</ele>
        <time>2025-05-10T09:03:40Z</time>
      </trkpt>
      <trkpt lat="44.94126" lon="0.85496">
        <ele>215</ele>
        <time>2025-05-10T09:03:41Z</time>
      </trkpt>
      <trkpt lat="44.94127" lon="0.85495">
        <ele>215.2</ele>
        <time>2025-05-10T09:03:42Z</time>
      </trkpt>
      <trkpt lat="44.94128" lon="0.85492">
        <ele>215.4</ele>
        <time>2025-05-10T09:03:43Z</time>
      </trkpt>
      <trkpt lat="44.94128" lon="0.85491">
        <ele>215.6</ele>
        <time>2025-05-10T09:03:44Z</time>
      </trkpt>
      <trkpt lat="44.94129" lon="0.85489">
        <ele>215.8</ele>
        <time>2025-05-10T09:03:45Z</time>
      </trkpt>
      <trkpt lat="44.9413" lon="0.85487">
        <ele>216</ele>
        <time>2025-05-10T09:03:46Z</time>
      </trkpt>
      <trkpt lat="44.9413" lon="0.85485">
        <ele>216.2</ele>
        <time>2025-05-10T09:03:47Z</time>
      </trkpt>
      <trkpt lat="44.94131" lon="0.85483">
        <ele>216.4</ele>
        <time>2025-05-10T09:03:48Z</time>
      </trkpt>
      <trkpt lat="44.94132" lon="0.85482">
        <ele>216.6</ele>
        <time>2025-05-10T09:03:49Z</time>
      </trkpt>
      <trkpt lat="44.94132" lon="0.8548">
        <ele>216.8</ele>
        <time>2025-05-10T09:03:50Z</time>
      </trkpt>
      <trkpt lat="44.94133" lon="0.85478">
        <ele>217</ele>
        <time>2025-05-10T09:03:51Z</time>
      </trkpt>
      <trkpt lat="44.94134" lon="0.85476">
        <ele>217.2</ele>
        <time>2025-05-10T09:03:52Z</time>
      </trkpt>
      <trkpt lat="44.94135" lon="0.85474">
        <ele>217.4</ele>
        <time>2025-05-10T09:03:53Z</time>
      </trkpt>
      <trkpt lat="44.94135" lon="0.85473">
        <ele>217.6</ele>
        <time>2025-05-10T09:03:54Z</time>
      </trkpt>
      <trkpt lat="44.94136" lon="0.85471">
        <ele>217.8</ele>
        <time>2025-05-10T09:03:55Z</time>
      </trkpt>
      <trkpt lat="44.94137" lon="0.85469">
        <ele>218.2</ele>
        <time>2025-05-10T09:03:56Z</time>
      </trkpt>
      <trkpt lat="44.94137" lon="0.85467">
        <ele>218.2</ele>
        <time>2025-05-10T09:03:57Z</time>
      </trkpt>
      <trkpt lat="44.94138" lon="0.85465">
        <ele>218.6</ele>
        <time>2025-05-10T09:03:58Z</time>
      </trkpt>
      <trkpt lat="44.94139" lon="0.85463">
        <ele>218.8</ele>
        <time>2025-05-10T09:03:59Z</time>
      </trkpt>
      <trkpt lat="44.9414" lon="0.85462">
        <ele>219</ele>
        <time>2025-05-10T09:04:00Z</time>
      </trkpt>
      <trkpt lat="44.94141" lon="0.85459">
        <ele>219.2</ele>
        <time>2025-05-10T09:04:01Z</time>
      </trkpt>
      <trkpt lat="44.94141" lon="0.85458">
        <ele>219.4</ele>
        <time>2025-05-10T09:04:02Z</time>
      </trkpt>
      <trkpt lat="44.94141" lon="0.85456">
        <ele>219.6</ele>
        <time>2025-05-10T09:04:03Z</time>
      </trkpt>
      <trkpt lat="44.94142" lon="0.85454">
        <ele>219.8</ele>
        <time>2025-05-10T09:04:04Z</time>
      </trkpt>
      <trkpt lat="44.94142" lon="0.85452">
        <ele>219.8</ele>
        <time>2025-05-10T09:04:05Z</time>
      </trkpt>
      <trkpt lat="44.94143" lon="0.8545">
        <ele>220</ele>
        <time>2025-05-10T09:04:06Z</time>
      </trkpt>
      <trkpt lat="44.94143" lon="0.85449">
        <ele>220.4</ele>
        <time>2025-05-10T09:04:07Z</time>
      </trkpt>
      <trkpt lat="44.94144" lon="0.85447">
        <ele>220.6</ele>
        <time>2025-05-10T09:04:08Z</time>
      </trkpt>
      <trkpt lat="44.94145" lon="0.85445">
        <ele>220.8</ele>
        <time>2025-05-10T09:04:09Z</time>
      </trkpt>
      <trkpt lat="44.94145" lon="0.85443">
        <ele>221</ele>
        <time>2025-05-10T09:04:10Z</time>
      </trkpt>
      <trkpt lat="44.94146" lon="0.85441">
        <ele>221.2</ele>
        <time>2025-05-10T09:04:11Z</time>
      </trkpt>
      <trkpt lat="44.94147" lon="0.85438">
        <ele>221.4</ele>
        <time>2025-05-10T09:04:12Z</time>
      </trkpt>
      <trkpt lat="44.94148" lon="0.85436">
        <ele>221.6</ele>
        <time>2025-05-10T09:04:13Z</time>
      </trkpt>
      <trkpt lat="44.94149" lon="0.85434">
        <ele>221.8</ele>
        <time>2025-05-10T09:04:14Z</time>
      </trkpt>
      <trkpt lat="44.9415" lon="0.85432">
        <ele>221.8</ele>
        <time>2025-05-10T09:04:15Z</time>
      </trkpt>
      <trkpt lat="44.94151" lon="0.85429">
        <ele>222</ele>
        <time>2025-05-10T09:04:16Z</time>
      </trkpt>
      <trkpt lat="44.94152" lon="0.85427">
        <ele>222.2</ele>
        <time>2025-05-10T09:04:17Z</time>
      </trkpt>
      <trkpt lat="44.94153" lon="0.85425">
        <ele>222.2</ele>
        <time>2025-05-10T09:04:18Z</time>
      </trkpt>
      <trkpt lat="44.94155" lon="0.85423">
        <ele>222.4</ele>
        <time>2025-05-10T09:04:19Z</time>
      </trkpt>
      <trkpt lat="44.94156" lon="0.8542">
        <ele>222.6</ele>
        <time>2025-05-10T09:04:20Z</time>
      </trkpt>
      <trkpt lat="44.94156" lon="0.85417">
        <ele>222.6</ele>
        <time>2025-05-10T09:04:21Z</time>
      </trkpt>
      <trkpt lat="44.94157" lon="0.85414">
        <ele>222.8</ele>
        <time>2025-05-10T09:04:22Z</time>
      </trkpt>
      <trkpt lat="44.94158" lon="0.85412">
        <ele>222.8</ele>
        <time>2025-05-10T09:04:23Z</time>
      </trkpt>
      <trkpt lat="44.94159" lon="0.85409">
        <ele>222.8</ele>
        <time>2025-05-10T09:04:24Z</time>
      </trkpt>
      <trkpt lat="44.9416" lon="0.85406">
        <ele>223</ele>
        <time>2025-05-10T09:04:25Z</time>
      </trkpt>
      <trkpt lat="44.94161" lon="0.85402">
        <ele>223</ele>
        <time>2025-05-10T09:04:26Z</time>
      </trkpt>
      <trkpt lat="44.94162" lon="0.85399">
        <ele>223.2</ele>
        <time>2025-05-10T09:04:27Z</time>
      </trkpt>
      <trkpt lat="44.94163" lon="0.85395">
        <ele>223.2</ele>
        <time>2025-05-10T09:04:28Z</time>
      </trkpt>
      <trkpt lat="44.94163" lon="0.85391">
        <ele>223.2</ele>
        <time>2025-05-10T09:04:29Z</time>
      </trkpt>
      <trkpt lat="44.94164" lon="0.85388">
        <ele>223.4</ele>
        <time>2025-05-10T09:04:30Z</time>
      </trkpt>
      <trkpt lat="44.94165" lon="0.85385">
        <ele>223.4</ele>
        <time>2025-05-10T09:04:31Z</time>
      </trkpt>
      <trkpt lat="44.94165" lon="0.85381">
        <ele>223.6</ele>
        <time>2025-05-10T09:04:32Z</time>
      </trkpt>
      <trkpt lat="44.94165" lon="0.85378">
        <ele>223.6</ele>
        <time>2025-05-10T09:04:33Z</time>
      </trkpt>
      <trkpt lat="44.94165" lon="0.85374">
        <ele>223.6</ele>
        <time>2025-05-10T09:04:34Z</time>
      </trkpt>
      <trkpt lat="44.94165" lon="0.85371">
        <ele>223.8</ele>
        <time>2025-05-10T09:04:35Z</time>
      </trkpt>
      <trkpt lat="44.94164" lon="0.85368">
        <ele>223.8</ele>
        <time>2025-05-10T09:04:36Z</time>
      </trkpt>
      <trkpt lat="44.94164" lon="0.85365">
        <ele>224</ele>
        <time>2025-05-10T09:04:37Z</time>
      </trkpt>
      <trkpt lat="44.94164" lon="0.85361">
        <ele>224.2</ele>
        <time>2025-05-10T09:04:38Z</time>
      </trkpt>
      <trkpt lat="44.94164" lon="0.85357">
        <ele>224.4</ele>
        <time>2025-05-10T09:04:39Z</time>
      </trkpt>
      <trkpt lat="44.94164" lon="0.85354">
        <ele>224.6</ele>
        <time>2025-05-10T09:04:40Z</time>
      </trkpt>
      <trkpt lat="44.94164" lon="0.8535">
        <ele>224.8</ele>
        <time>2025-05-10T09:04:41Z</time>
      </trkpt>
      <trkpt lat="44.94163" lon="0.85347">
        <ele>224.8</ele>
        <time>2025-05-10T09:04:42Z</time>
      </trkpt>
      <trkpt lat="44.94163" lon="0.85343">
        <ele>225</ele>
        <time>2025-05-10T09:04:43Z</time>
      </trkpt>
      <trkpt lat="44.94162" lon="0.85339">
        <ele>225.2</ele>
        <time>2025-05-10T09:04:44Z</time>
      </trkpt>
      <trkpt lat="44.94162" lon="0.85336">
        <ele>225.4</ele>
        <time>2025-05-10T09:04:45Z</time>
      </trkpt>
      <trkpt lat="44.94162" lon="0.85332">
        <ele>225.6</ele>
        <time>2025-05-10T09:04:46Z</time>
      </trkpt>
      <trkpt lat="44.94162" lon="0.85328">
        <ele>225.6</ele>
        <time>2025-05-10T09:04:47Z</time>
      </trkpt>
      <trkpt lat="44.94162" lon="0.85324">
        <ele>225.8</ele>
        <time>2025-05-10T09:04:48Z</time>
      </trkpt>
      <trkpt lat="44.94163" lon="0.85319">
        <ele>226</ele>
        <time>2025-05-10T09:04:49Z</time>
      </trkpt>
      <trkpt lat="44.94163" lon="0.85314">
        <ele>226</ele>
        <time>2025-05-10T09:04:50Z</time>
      </trkpt>
      <trkpt lat="44.94163" lon="0.8531">
        <ele>226</ele>
        <time>2025-05-10T09:04:51Z</time>
      </trkpt>
      <trkpt lat="44.94164" lon="0.85305">
        <ele>226</ele>
        <time>2025-05-10T09:04:52Z</time>
      </trkpt>
      <trkpt lat="44.94164" lon="0.853">
        <ele>226</ele>
        <time>2025-05-10T09:04:53Z</time>
      </trkpt>
      <trkpt lat="44.94164" lon="0.85294">
        <ele>226</ele>
        <time>2025-05-10T09:04:54Z</time>
      </trkpt>
      <trkpt lat="44.94165" lon="0.85289">
        <ele>225.8</ele>
        <time>2025-05-10T09:04:55Z</time>
      </trkpt>
      <trkpt lat="44.94165" lon="0.85284">
        <ele>225.8</ele>
        <time>2025-05-10T09:04:56Z</time>
      </trkpt>
      <trkpt lat="44.94166" lon="0.85278">
        <ele>225.8</ele>
        <time>2025-05-10T09:04:57Z</time>
      </trkpt>
      <trkpt lat="44.94167" lon="0.85272">
        <ele>225.8</ele>
        <time>2025-05-10T09:04:58Z</time>
      </trkpt>
      <trkpt lat="44.94167" lon="0.85265">
        <ele>225.6</ele>
        <time>2025-05-10T09:04:59Z</time>
      </trkpt>
      <trkpt lat="44.94168" lon="0.85258">
        <ele>225.6</ele>
        <time>2025-05-10T09:05:00Z</time>
      </trkpt>
      <trkpt lat="44.94168" lon="0.85251">
        <ele>225.6</ele>
        <time>2025-05-10T09:05:01Z</time>
      </trkpt>
      <trkpt lat="44.94169" lon="0.85244">
        <ele>225.4</ele>
        <time>2025-05-10T09:05:02Z</time>
      </trkpt>
      <trkpt lat="44.9417" lon="0.85236">
        <ele>225.2</ele>
        <time>2025-05-10T09:05:03Z</time>
      </trkpt>
      <trkpt lat="44.94171" lon="0.85228">
        <ele>224.8</ele>
        <time>2025-05-10T09:05:04Z</time>
      </trkpt>
      <trkpt lat="44.94171" lon="0.85221">
        <ele>224.4</ele>
        <time>2025-05-10T09:05:05Z</time>
      </trkpt>
      <trkpt lat="44.9417" lon="0.85213">
        <ele>224.2</ele>
        <time>2025-05-10T09:05:06Z</time>
      </trkpt>
      <trkpt lat="44.9417" lon="0.85205">
        <ele>224</ele>
        <time>2025-05-10T09:05:07Z</time>
      </trkpt>
      <trkpt lat="44.94169" lon="0.85198">
        <ele>223.6</ele>
        <time>2025-05-10T09:05:08Z</time>
      </trkpt>
      <trkpt lat="44.94168" lon="0.8519">
        <ele>223.4</ele>
        <time>2025-05-10T09:05:09Z</time>
      </trkpt>
      <trkpt lat="44.94168" lon="0.85183">
        <ele>223.2</ele>
        <time>2025-05-10T09:05:10Z</time>
      </trkpt>
      <trkpt lat="44.94167" lon="0.85175">
        <ele>223</ele>
        <time>2025-05-10T09:05:11Z</time>
      </trkpt>
      <trkpt lat="44.94166" lon="0.85167">
        <ele>223</ele>
        <time>2025-05-10T09:05:12Z</time>
      </trkpt>
      <trkpt lat="44.94165" lon="0.85158">
        <ele>223</ele>
        <time>2025-05-10T09:05:13Z</time>
      </trkpt>
      <trkpt lat="44.94163" lon="0.8515">
        <ele>223</ele>
        <time>2025-05-10T09:05:14Z</time>
      </trkpt>
      <trkpt lat="44.94161" lon="0.85142">
        <ele>223</ele>
        <time>2025-05-10T09:05:15Z</time>
      </trkpt>
      <trkpt lat="44.9416" lon="0.85135">
        <ele>223</ele>
        <time>2025-05-10T09:05:16Z</time>
      </trkpt>
      <trkpt lat="44.94159" lon="0.85127">
        <ele>223</ele>
        <time>2025-05-10T09:05:17Z</time>
      </trkpt>
      <trkpt lat="44.94157" lon="0.85119">
        <ele>223.2</ele>
        <time>2025-05-10T09:05:18Z</time>
      </trkpt>
      <trkpt lat="44.94155" lon="0.85112">
        <ele>223.2</ele>
        <time>2025-05-10T09:05:19Z</time>
      </trkpt>
      <trkpt lat="44.94153" lon="0.85105">
        <ele>223.4</ele>
        <time>2025-05-10T09:05:20Z</time>
      </trkpt>
      <trkpt lat="44.94151" lon="0.851">
        <ele>223.6</ele>
        <time>2025-05-10T09:05:21Z</time>
      </trkpt>
      <trkpt lat="44.94148" lon="0.85095">
        <ele>223.8</ele>
        <time>2025-05-10T09:05:22Z</time>
      </trkpt>
      <trkpt lat="44.94146" lon="0.85089">
        <ele>224</ele>
        <time>2025-05-10T09:05:23Z</time>
      </trkpt>
      <trkpt lat="44.94142" lon="0.85083">
        <ele>224.2</ele>
        <time>2025-05-10T09:05:24Z</time>
      </trkpt>
      <trkpt lat="44.94139" lon="0.85078">
        <ele>224.8</ele>
        <time>2025-05-10T09:05:25Z</time>
      </trkpt>
      <trkpt lat="44.94137" lon="0.85072">
        <ele>225</ele>
        <time>2025-05-10T09:05:26Z</time>
      </trkpt>
      <trkpt lat="44.94135" lon="0.85065">
        <ele>225.2</ele>
        <time>2025-05-10T09:05:27Z</time>
      </trkpt>
      <trkpt lat="44.94134" lon="0.85059">
        <ele>225.6</ele>
        <time>2025-05-10T09:05:28Z</time>
      </trkpt>
      <trkpt lat="44.94133" lon="0.85054">
        <ele>225.8</ele>
        <time>2025-05-10T09:05:29Z</time>
      </trkpt>
      <trkpt lat="44.94132" lon="0.85048">
        <ele>226</ele>
        <time>2025-05-10T09:05:30Z</time>
      </trkpt>
      <trkpt lat="44.94131" lon="0.85041">
        <ele>226.2</ele>
        <time>2025-05-10T09:05:31Z</time>
      </trkpt>
      <trkpt lat="44.9413" lon="0.85035">
        <ele>226.4</ele>
        <time>2025-05-10T09:05:32Z</time>
      </trkpt>
      <trkpt lat="44.94129" lon="0.85029">
        <ele>226.4</ele>
        <time>2025-05-10T09:05:33Z</time>
      </trkpt>
      <trkpt lat="44.94129" lon="0.85023">
        <ele>226.8</ele>
        <time>2025-05-10T09:05:34Z</time>
      </trkpt>
      <trkpt lat="44.94128" lon="0.85016">
        <ele>226.8</ele>
        <time>2025-05-10T09:05:35Z</time>
      </trkpt>
      <trkpt lat="44.94128" lon="0.8501">
        <ele>227</ele>
        <time>2025-05-10T09:05:36Z</time>
      </trkpt>
      <trkpt lat="44.94127" lon="0.85003">
        <ele>227</ele>
        <time>2025-05-10T09:05:37Z</time>
      </trkpt>
      <trkpt lat="44.94126" lon="0.84997">
        <ele>227.2</ele>
        <time>2025-05-10T09:05:38Z</time>
      </trkpt>
      <trkpt lat="44.94124" lon="0.84991">
        <ele>227.2</ele>
        <time>2025-05-10T09:05:39Z</time>
      </trkpt>
      <trkpt lat="44.94122" lon="0.84985">
        <ele>227.4</ele>
        <time>2025-05-10T09:05:40Z</time>
      </trkpt>
      <trkpt lat="44.9412" lon="0.8498">
        <ele>227.4</ele>
        <time>2025-05-10T09:05:41Z</time>
      </trkpt>
      <trkpt lat="44.94118" lon="0.84976">
        <ele>227.4</ele>
        <time>2025-05-10T09:05:42Z</time>
      </trkpt>
      <trkpt lat="44.94116" lon="0.84971">
        <ele>227.4</ele>
        <time>2025-05-10T09:05:43Z</time>
      </trkpt>
      <trkpt lat="44.94114" lon="0.84966">
        <ele>227.6</ele>
        <time>2025-05-10T09:05:44Z</time>
      </trkpt>
      <trkpt lat="44.94112" lon="0.84961">
        <ele>227.6</ele>
        <time>2025-05-10T09:05:45Z</time>
      </trkpt>
      <trkpt lat="44.9411" lon="0.84957">
        <ele>227.8</ele>
        <time>2025-05-10T09:05:46Z</time>
      </trkpt>
      <trkpt lat="44.94108" lon="0.84952">
        <ele>227.8</ele>
        <time>2025-05-10T09:05:47Z</time>
      </trkpt>
      <trkpt lat="44.94107" lon="0.84947">
        <ele>227.8</ele>
        <time>2025-05-10T09:05:48Z</time>
      </trkpt>
      <trkpt lat="44.94105" lon="0.84942">
        <ele>227.8</ele>
        <time>2025-05-10T09:05:49Z</time>
      </trkpt>
      <trkpt lat="44.94102" lon="0.84937">
        <ele>227.8</ele>
        <time>2025-05-10T09:05:50Z</time>
      </trkpt>
      <trkpt lat="44.941" lon="0.84933">
        <ele>227.8</ele>
        <time>2025-05-10T09:05:51Z</time>
      </trkpt>
      <trkpt lat="44.94097" lon="0.84928">
        <ele>227.8</ele>
        <time>2025-05-10T09:05:52Z</time>
      </trkpt>
      <trkpt lat="44.94095" lon="0.84922">
        <ele>227.8</ele>
        <time>2025-05-10T09:05:53Z</time>
      </trkpt>
      <trkpt lat="44.94092" lon="0.84915">
        <ele>227.6</ele>
        <time>2025-05-10T09:05:54Z</time>
      </trkpt>
      <trkpt lat="44.94089" lon="0.84909">
        <ele>227.6</ele>
        <time>2025-05-10T09:05:55Z</time>
      </trkpt>
      <trkpt lat="44.94086" lon="0.84903">
        <ele>227</ele>
        <time>2025-05-10T09:05:56Z</time>
      </trkpt>
      <trkpt lat="44.94083" lon="0.84897">
        <ele>227</ele>
        <time>2025-05-10T09:05:57Z</time>
      </trkpt>
      <trkpt lat="44.9408" lon="0.84893">
        <ele>226.8</ele>
        <time>2025-05-10T09:05:58Z</time>
      </trkpt>
      <trkpt lat="44.94077" lon="0.84888">
        <ele>226.8</ele>
        <time>2025-05-10T09:05:59Z</time>
      </trkpt>
      <trkpt lat="44.94074" lon="0.84883">
        <ele>226.6</ele>
        <time>2025-05-10T09:06:00Z</time>
      </trkpt>
      <trkpt lat="44.9407" lon="0.84879">
        <ele>226.6</ele>
        <time>2025-05-10T09:06:01Z</time>
      </trkpt>
      <trkpt lat="44.94067" lon="0.84876">
        <ele>226.6</ele>
        <time>2025-05-10T09:06:02Z</time>
      </trkpt>
      <trkpt lat="44.94064" lon="0.84872">
        <ele>226.8</ele>
        <time>2025-05-10T09:06:03Z</time>
      </trkpt>
      <trkpt lat="44.94061" lon="0.84868">
        <ele>226.8</ele>
        <time>2025-05-10T09:06:04Z</time>
      </trkpt>
      <trkpt lat="44.94059" lon="0.84864">
        <ele>226.8</ele>
        <time>2025-05-10T09:06:05Z</time>
      </trkpt>
      <trkpt lat="44.94057" lon="0.84859">
        <ele>226.8</ele>
        <time>2025-05-10T09:06:06Z</time>
      </trkpt>
      <trkpt lat="44.94057" lon="0.84853">
        <ele>226.8</ele>
        <time>2025-05-10T09:06:07Z</time>
      </trkpt>
      <trkpt lat="44.94056" lon="0.84847">
        <ele>226.8</ele>
        <time>2025-05-10T09:06:08Z</time>
      </trkpt>
      <trkpt lat="44.94055" lon="0.84842">
        <ele>226.8</ele>
        <time>2025-05-10T09:06:09Z</time>
      </trkpt>
      <trkpt lat="44.94053" lon="0.84836">
        <ele>226.8</ele>
        <time>2025-05-10T09:06:10Z</time>
      </trkpt>
      <trkpt lat="44.94051" lon="0.84831">
        <ele>226.8</ele>
        <time>2025-05-10T09:06:11Z</time>
      </trkpt>
      <trkpt lat="44.94048" lon="0.84826">
        <ele>226.6</ele>
        <time>2025-05-10T09:06:12Z</time>
      </trkpt>
      <trkpt lat="44.94045" lon="0.84821">
        <ele>226.6</ele>
        <time>2025-05-10T09:06:13Z</time>
      </trkpt>
      <trkpt lat="44.94041" lon="0.84817">
        <ele>226.4</ele>
        <time>2025-05-10T09:06:14Z</time>
      </trkpt>
      <trkpt lat="44.94036" lon="0.84815">
        <ele>226</ele>
        <time>2025-05-10T09:06:15Z</time>
      </trkpt>
      <trkpt lat="44.94032" lon="0.84811">
        <ele>225.4</ele>
        <time>2025-05-10T09:06:16Z</time>
      </trkpt>
      <trkpt lat="44.9403" lon="0.84806">
        <ele>225</ele>
        <time>2025-05-10T09:06:17Z</time>
      </trkpt>
      <trkpt lat="44.94027" lon="0.84799">
        <ele>224.8</ele>
        <time>2025-05-10T09:06:18Z</time>
      </trkpt>
      <trkpt lat="44.94026" lon="0.84793">
        <ele>224.6</ele>
        <time>2025-05-10T09:06:19Z</time>
      </trkpt>
      <trkpt lat="44.94024" lon="0.84786">
        <ele>224.6</ele>
        <time>2025-05-10T09:06:20Z</time>
      </trkpt>
      <trkpt lat="44.94023" lon="0.84779">
        <ele>224.2</ele>
        <time>2025-05-10T09:06:21Z</time>
      </trkpt>
      <trkpt lat="44.94021" lon="0.84772">
        <ele>223.6</ele>
        <time>2025-05-10T09:06:22Z</time>
      </trkpt>
      <trkpt lat="44.94018" lon="0.84765">
        <ele>223.4</ele>
        <time>2025-05-10T09:06:23Z</time>
      </trkpt>
      <trkpt lat="44.94016" lon="0.84756">
        <ele>223.2</ele>
        <time>2025-05-10T09:06:24Z</time>
      </trkpt>
      <trkpt lat="44.94014" lon="0.84748">
        <ele>222.4</ele>
        <time>2025-05-10T09:06:25Z</time>
      </trkpt>
      <trkpt lat="44.94014" lon="0.84741">
        <ele>222</ele>
        <time>2025-05-10T09:06:26Z</time>
      </trkpt>
      <trkpt lat="44.94014" lon="0.84734">
        <ele>221.4</ele>
        <time>2025-05-10T09:06:27Z</time>
      </trkpt>
      <trkpt lat="44.94012" lon="0.84728">
        <ele>221</ele>
        <time>2025-05-10T09:06:28Z</time>
      </trkpt>
      <trkpt lat="44.94009" lon="0.84722">
        <ele>220.4</ele>
        <time>2025-05-10T09:06:29Z</time>
      </trkpt>
      <trkpt lat="44.94004" lon="0.8472">
        <ele>220.2</ele>
        <time>2025-05-10T09:06:30Z</time>
      </trkpt>
      <trkpt lat="44.93999" lon="0.8472">
        <ele>219.6</ele>
        <time>2025-05-10T09:06:31Z</time>
      </trkpt>
      <trkpt lat="44.93994" lon="0.8472">
        <ele>218.8</ele>
        <time>2025-05-10T09:06:32Z</time>
      </trkpt>
      <trkpt lat="44.93988" lon="0.84721">
        <ele>217.4</ele>
        <time>2025-05-10T09:06:33Z</time>
      </trkpt>
      <trkpt lat="44.93983" lon="0.84725">
        <ele>217</ele>
        <time>2025-05-10T09:06:34Z</time>
      </trkpt>
      <trkpt lat="44.93977" lon="0.84729">
        <ele>216.4</ele>
        <time>2025-05-10T09:06:35Z</time>
      </trkpt>
      <trkpt lat="44.9397" lon="0.84733">
        <ele>216.2</ele>
        <time>2025-05-10T09:06:36Z</time>
      </trkpt>
      <trkpt lat="44.93963" lon="0.84738">
        <ele>215.6</ele>
        <time>2025-05-10T09:06:37Z</time>
      </trkpt>
      <trkpt lat="44.93956" lon="0.84742">
        <ele>214.6</ele>
        <time>2025-05-10T09:06:38Z</time>
      </trkpt>
      <trkpt lat="44.93948" lon="0.84746">
        <ele>214.2</ele>
        <time>2025-05-10T09:06:39Z</time>
      </trkpt>
      <trkpt lat="44.9394" lon="0.8475">
        <ele>213.2</ele>
        <time>2025-05-10T09:06:40Z</time>
      </trkpt>
      <trkpt lat="44.93931" lon="0.84754">
        <ele>212.2</ele>
        <time>2025-05-10T09:06:41Z</time>
      </trkpt>
      <trkpt lat="44.93922" lon="0.84758">
        <ele>211.6</ele>
        <time>2025-05-10T09:06:42Z</time>
      </trkpt>
      <trkpt lat="44.93914" lon="0.84761">
        <ele>211</ele>
        <time>2025-05-10T09:06:43Z</time>
      </trkpt>
      <trkpt lat="44.93905" lon="0.84764">
        <ele>210</ele>
        <time>2025-05-10T09:06:44Z</time>
      </trkpt>
      <trkpt lat="44.93896" lon="0.84766">
        <ele>209</ele>
        <time>2025-05-10T09:06:45Z</time>
      </trkpt>
      <trkpt lat="44.93888" lon="0.84768">
        <ele>207.6</ele>
        <time>2025-05-10T09:06:46Z</time>
      </trkpt>
      <trkpt lat="44.93878" lon="0.84768">
        <ele>206.6</ele>
        <time>2025-05-10T09:06:47Z</time>
      </trkpt>
      <trkpt lat="44.93869" lon="0.84768">
        <ele>206</ele>
        <time>2025-05-10T09:06:48Z</time>
      </trkpt>
      <trkpt lat="44.9386" lon="0.84768">
        <ele>205.4</ele>
        <time>2025-05-10T09:06:49Z</time>
      </trkpt>
      <trkpt lat="44.93851" lon="0.84769">
        <ele>205</ele>
        <time>2025-05-10T09:06:50Z</time>
      </trkpt>
      <trkpt lat="44.93842" lon="0.8477">
        <ele>204.8</ele>
        <time>2025-05-10T09:06:51Z</time>
      </trkpt>
      <trkpt lat="44.93833" lon="0.84772">
        <ele>204.2</ele>
        <time>2025-05-10T09:06:52Z</time>
      </trkpt>
      <trkpt lat="44.93824" lon="0.84775">
        <ele>203.6</ele>
        <time>2025-05-10T09:06:53Z</time>
      </trkpt>
      <trkpt lat="44.93815" lon="0.84779">
        <ele>203.2</ele>
        <time>2025-05-10T09:06:54Z</time>
      </trkpt>
      <trkpt lat="44.93807" lon="0.84783">
        <ele>202.8</ele>
        <time>2025-05-10T09:06:55Z</time>
      </trkpt>
      <trkpt lat="44.93798" lon="0.84788">
        <ele>202.6</ele>
        <time>2025-05-10T09:06:56Z</time>
      </trkpt>
      <trkpt lat="44.93792" lon="0.84793">
        <ele>202.2</ele>
        <time>2025-05-10T09:06:57Z</time>
      </trkpt>
      <trkpt lat="44.93786" lon="0.84795">
        <ele>201.8</ele>
        <time>2025-05-10T09:06:58Z</time>
      </trkpt>
      <trkpt lat="44.9378" lon="0.84795">
        <ele>201.6</ele>
        <time>2025-05-10T09:06:59Z</time>
      </trkpt>
      <trkpt lat="44.93776" lon="0.84792">
        <ele>201.4</ele>
        <time>2025-05-10T09:07:00Z</time>
      </trkpt>
      <trkpt lat="44.93772" lon="0.84787">
        <ele>201.4</ele>
        <time>2025-05-10T09:07:01Z</time>
      </trkpt>
      <trkpt lat="44.93767" lon="0.84781">
        <ele>201</ele>
        <time>2025-05-10T09:07:02Z</time>
      </trkpt>
      <trkpt lat="44.93764" lon="0.84775">
        <ele>200.8</ele>
        <time>2025-05-10T09:07:03Z</time>
      </trkpt>
      <trkpt lat="44.93759" lon="0.84771">
        <ele>200.6</ele>
        <time>2025-05-10T09:07:04Z</time>
      </trkpt>
      <trkpt lat="44.93754" lon="0.84768">
        <ele>199.8</ele>
        <time>2025-05-10T09:07:05Z</time>
      </trkpt>
      <trkpt lat="44.93748" lon="0.84766">
        <ele>199.4</ele>
        <time>2025-05-10T09:07:06Z</time>
      </trkpt>
      <trkpt lat="44.93741" lon="0.84766">
        <ele>199.2</ele>
        <time>2025-05-10T09:07:07Z</time>
      </trkpt>
      <trkpt lat="44.93735" lon="0.84766">
        <ele>198.6</ele>
        <time>2025-05-10T09:07:08Z</time>
      </trkpt>
      <trkpt lat="44.9373" lon="0.84767">
        <ele>198</ele>
        <time>2025-05-10T09:07:09Z</time>
      </trkpt>
      <trkpt lat="44.93724" lon="0.84765">
        <ele>197.6</ele>
        <time>2025-05-10T09:07:10Z</time>
      </trkpt>
      <trkpt lat="44.9372" lon="0.84761">
        <ele>197</ele>
        <time>2025-05-10T09:07:11Z</time>
      </trkpt>
      <trkpt lat="44.93716" lon="0.84755">
        <ele>196.2</ele>
        <time>2025-05-10T09:07:12Z</time>
      </trkpt>
      <trkpt lat="44.93712" lon="0.84748">
        <ele>195.8</ele>
        <time>2025-05-10T09:07:13Z</time>
      </trkpt>
      <trkpt lat="44.93707" lon="0.84742">
        <ele>195.4</ele>
        <time>2025-05-10T09:07:14Z</time>
      </trkpt>
      <trkpt lat="44.93702" lon="0.84738">
        <ele>195</ele>
        <time>2025-05-10T09:07:15Z</time>
      </trkpt>
      <trkpt lat="44.93697" lon="0.84733">
        <ele>194</ele>
        <time>2025-05-10T09:07:16Z</time>
      </trkpt>
      <trkpt lat="44.93691" lon="0.84728">
        <ele>193.2</ele>
        <time>2025-05-10T09:07:17Z</time>
      </trkpt>
      <trkpt lat="44.93687" lon="0.8472">
        <ele>192.4</ele>
        <time>2025-05-10T09:07:18Z</time>
      </trkpt>
      <trkpt lat="44.93683" lon="0.84712">
        <ele>191.6</ele>
        <time>2025-05-10T09:07:19Z</time>
      </trkpt>
      <trkpt lat="44.93679" lon="0.84703">
        <ele>190.6</ele>
        <time>2025-05-10T09:07:20Z</time>
      </trkpt>
      <trkpt lat="44.93675" lon="0.84694">
        <ele>190</ele>
        <time>2025-05-10T09:07:21Z</time>
      </trkpt>
      <trkpt lat="44.9367" lon="0.84684">
        <ele>188.4</ele>
        <time>2025-05-10T09:07:22Z</time>
      </trkpt>
      <trkpt lat="44.93664" lon="0.84674">
        <ele>186.4</ele>
        <time>2025-05-10T09:07:23Z</time>
      </trkpt>
      <trkpt lat="44.93658" lon="0.84664">
        <ele>185.8</ele>
        <time>2025-05-10T09:07:24Z</time>
      </trkpt>
      <trkpt lat="44.93651" lon="0.84654">
        <ele>185</ele>
        <time>2025-05-10T09:07:25Z</time>
      </trkpt>
      <trkpt lat="44.93645" lon="0.84645">
        <ele>183.6</ele>
        <time>2025-05-10T09:07:26Z</time>
      </trkpt>
      <trkpt lat="44.93637" lon="0.84636">
        <ele>182</ele>
        <time>2025-05-10T09:07:27Z</time>
      </trkpt>
      <trkpt lat="44.93629" lon="0.84628">
        <ele>180</ele>
        <time>2025-05-10T09:07:28Z</time>
      </trkpt>
      <trkpt lat="44.9362" lon="0.8462">
        <ele>178.4</ele>
        <time>2025-05-10T09:07:29Z</time>
      </trkpt>
      <trkpt lat="44.93612" lon="0.84613">
        <ele>177.4</ele>
        <time>2025-05-10T09:07:30Z</time>
      </trkpt>
      <trkpt lat="44.93602" lon="0.84607">
        <ele>176.2</ele>
        <time>2025-05-10T09:07:31Z</time>
      </trkpt>
      <trkpt lat="44.93593" lon="0.846">
        <ele>174.4</ele>
        <time>2025-05-10T09:07:32Z</time>
      </trkpt>
      <trkpt lat="44.93583" lon="0.84592">
        <ele>173</ele>
        <time>2025-05-10T09:07:33Z</time>
      </trkpt>
      <trkpt lat="44.93573" lon="0.84584">
        <ele>171</ele>
        <time>2025-05-10T09:07:34Z</time>
      </trkpt>
      <trkpt lat="44.93563" lon="0.84577">
        <ele>170</ele>
        <time>2025-05-10T09:07:35Z</time>
      </trkpt>
      <trkpt lat="44.93553" lon="0.8457">
        <ele>167.4</ele>
        <time>2025-05-10T09:07:36Z</time>
      </trkpt>
      <trkpt lat="44.93542" lon="0.84562">
        <ele>166.2</ele>
        <time>2025-05-10T09:07:37Z</time>
      </trkpt>
      <trkpt lat="44.93532" lon="0.84554">
        <ele>165</ele>
        <time>2025-05-10T09:07:38Z</time>
      </trkpt>
      <trkpt lat="44.93521" lon="0.84547">
        <ele>163.2</ele>
        <time>2025-05-10T09:07:39Z</time>
      </trkpt>
      <trkpt lat="44.9351" lon="0.8454">
        <ele>161.2</ele>
        <time>2025-05-10T09:07:40Z</time>
      </trkpt>
      <trkpt lat="44.93499" lon="0.84533">
        <ele>160</ele>
        <time>2025-05-10T09:07:41Z</time>
      </trkpt>
      <trkpt lat="44.93488" lon="0.84525">
        <ele>158.8</ele>
        <time>2025-05-10T09:07:42Z</time>
      </trkpt>
      <trkpt lat="44.93477" lon="0.84519">
        <ele>158</ele>
        <time>2025-05-10T09:07:43Z</time>
      </trkpt>
      <trkpt lat="44.93468" lon="0.84513">
        <ele>156</ele>
        <time>2025-05-10T09:07:44Z</time>
      </trkpt>
      <trkpt lat="44.93462" lon="0.84508">
        <ele>154.4</ele>
        <time>2025-05-10T09:07:45Z</time>
      </trkpt>
      <trkpt lat="44.93458" lon="0.84506">
        <ele>154.4</ele>
        <time>2025-05-10T09:07:46Z</time>
      </trkpt>
      <trkpt lat="44.93456" lon="0.84505">
        <ele>154.4</ele>
        <time>2025-05-10T09:07:47Z</time>
      </trkpt>
      <trkpt lat="44.93455" lon="0.84501">
        <ele>154.6</ele>
        <time>2025-05-10T09:07:48Z</time>
      </trkpt>
      <trkpt lat="44.93456" lon="0.84497">
        <ele>154.8</ele>
        <time>2025-05-10T09:07:49Z</time>
      </trkpt>
      <trkpt lat="44.93457" lon="0.84494">
        <ele>155</ele>
        <time>2025-05-10T09:07:50Z</time>
      </trkpt>
      <trkpt lat="44.93458" lon="0.8449">
        <ele>155.2</ele>
        <time>2025-05-10T09:07:51Z</time>
      </trkpt>
      <trkpt lat="44.93459" lon="0.84486">
        <ele>155.6</ele>
        <time>2025-05-10T09:07:52Z</time>
      </trkpt>
      <trkpt lat="44.9346" lon="0.84481">
        <ele>155.6</ele>
        <time>2025-05-10T09:07:53Z</time>
      </trkpt>
      <trkpt lat="44.93461" lon="0.84476">
        <ele>155.6</ele>
        <time>2025-05-10T09:07:54Z</time>
      </trkpt>
      <trkpt lat="44.93463" lon="0.84471">
        <ele>155.4</ele>
        <time>2025-05-10T09:07:55Z</time>
      </trkpt>
      <trkpt lat="44.93465" lon="0.84465">
        <ele>155.4</ele>
        <time>2025-05-10T09:07:56Z</time>
      </trkpt>
      <trkpt lat="44.93467" lon="0.84459">
        <ele>155.2</ele>
        <time>2025-05-10T09:07:57Z</time>
      </trkpt>
      <trkpt lat="44.9347" lon="0.84453">
        <ele>155</ele>
        <time>2025-05-10T09:07:58Z</time>
      </trkpt>
      <trkpt lat="44.93473" lon="0.84446">
        <ele>154.8</ele>
        <time>2025-05-10T09:07:59Z</time>
      </trkpt>
      <trkpt lat="44.93477" lon="0.84441">
        <ele>154.8</ele>
        <time>2025-05-10T09:08:00Z</time>
      </trkpt>
      <trkpt lat="44.9348" lon="0.84435">
        <ele>154.6</ele>
        <time>2025-05-10T09:08:01Z</time>
      </trkpt>
      <trkpt lat="44.93485" lon="0.84429">
        <ele>154.4</ele>
        <time>2025-05-10T09:08:02Z</time>
      </trkpt>
      <trkpt lat="44.93489" lon="0.84424">
        <ele>154</ele>
        <time>2025-05-10T09:08:03Z</time>
      </trkpt>
      <trkpt lat="44.93494" lon="0.84418">
        <ele>153.8</ele>
        <time>2025-05-10T09:08:04Z</time>
      </trkpt>
      <trkpt lat="44.93497" lon="0.84409">
        <ele>153.4</ele>
        <time>2025-05-10T09:08:05Z</time>
      </trkpt>
      <trkpt lat="44.93499" lon="0.844">
        <ele>153.2</ele>
        <time>2025-05-10T09:08:06Z</time>
      </trkpt>
      <trkpt lat="44.93501" lon="0.8439">
        <ele>152</ele>
        <time>2025-05-10T09:08:07Z</time>
      </trkpt>
      <trkpt lat="44.93503" lon="0.84381">
        <ele>151</ele>
        <time>2025-05-10T09:08:08Z</time>
      </trkpt>
      <trkpt lat="44.93505" lon="0.84371">
        <ele>150</ele>
        <time>2025-05-10T09:08:09Z</time>
      </trkpt>
      <trkpt lat="44.93506" lon="0.84362">
        <ele>149.4</ele>
        <time>2025-05-10T09:08:10Z</time>
      </trkpt>
      <trkpt lat="44.93507" lon="0.84354">
        <ele>149.2</ele>
        <time>2025-05-10T09:08:11Z</time>
      </trkpt>
      <trkpt lat="44.93508" lon="0.84345">
        <ele>149.2</ele>
        <time>2025-05-10T09:08:12Z</time>
      </trkpt>
      <trkpt lat="44.93508" lon="0.84337">
        <ele>149.2</ele>
        <time>2025-05-10T09:08:13Z</time>
      </trkpt>
      <trkpt lat="44.93509" lon="0.84329">
        <ele>149.2</ele>
        <time>2025-05-10T09:08:14Z</time>
      </trkpt>
      <trkpt lat="44.9351" lon="0.84321">
        <ele>149.4</ele>
        <time>2025-05-10T09:08:15Z</time>
      </trkpt>
      <trkpt lat="44.93511" lon="0.84312">
        <ele>150.4</ele>
        <time>2025-05-10T09:08:16Z</time>
      </trkpt>
      <trkpt lat="44.93512" lon="0.84304">
        <ele>150.6</ele>
        <time>2025-05-10T09:08:17Z</time>
      </trkpt>
      <trkpt lat="44.93513" lon="0.84296">
        <ele>150.6</ele>
        <time>2025-05-10T09:08:18Z</time>
      </trkpt>
      <trkpt lat="44.93514" lon="0.84287">
        <ele>150.8</ele>
        <time>2025-05-10T09:08:19Z</time>
      </trkpt>
      <trkpt lat="44.93514" lon="0.84279">
        <ele>150.8</ele>
        <time>2025-05-10T09:08:20Z</time>
      </trkpt>
      <trkpt lat="44.93515" lon="0.8427">
        <ele>150.8</ele>
        <time>2025-05-10T09:08:21Z</time>
      </trkpt>
      <trkpt lat="44.93516" lon="0.84262">
        <ele>151</ele>
        <time>2025-05-10T09:08:22Z</time>
      </trkpt>
      <trkpt lat="44.93518" lon="0.84253">
        <ele>150.8</ele>
        <time>2025-05-10T09:08:23Z</time>
      </trkpt>
      <trkpt lat="44.93519" lon="0.84245">
        <ele>150.8</ele>
        <time>2025-05-10T09:08:24Z</time>
      </trkpt>
      <trkpt lat="44.9352" lon="0.84237">
        <ele>150.6</ele>
        <time>2025-05-10T09:08:25Z</time>
      </trkpt>
      <trkpt lat="44.93521" lon="0.84228">
        <ele>150.4</ele>
        <time>2025-05-10T09:08:26Z</time>
      </trkpt>
      <trkpt lat="44.93522" lon="0.8422">
        <ele>150.4</ele>
        <time>2025-05-10T09:08:27Z</time>
      </trkpt>
      <trkpt lat="44.93523" lon="0.84211">
        <ele>150</ele>
        <time>2025-05-10T09:08:28Z</time>
      </trkpt>
      <trkpt lat="44.93525" lon="0.84203">
        <ele>149.6</ele>
        <time>2025-05-10T09:08:29Z</time>
      </trkpt>
      <trkpt lat="44.93526" lon="0.84194">
        <ele>149.4</ele>
        <time>2025-05-10T09:08:30Z</time>
      </trkpt>
      <trkpt lat="44.93528" lon="0.84185">
        <ele>149.2</ele>
        <time>2025-05-10T09:08:31Z</time>
      </trkpt>
      <trkpt lat="44.93529" lon="0.84175">
        <ele>149.2</ele>
        <time>2025-05-10T09:08:32Z</time>
      </trkpt>
      <trkpt lat="44.9353" lon="0.84167">
        <ele>149</ele>
        <time>2025-05-10T09:08:33Z</time>
      </trkpt>
      <trkpt lat="44.93531" lon="0.84158">
        <ele>148.8</ele>
        <time>2025-05-10T09:08:34Z</time>
      </trkpt>
      <trkpt lat="44.93531" lon="0.8415">
        <ele>148.8</ele>
        <time>2025-05-10T09:08:35Z</time>
      </trkpt>
      <trkpt lat="44.93532" lon="0.84143">
        <ele>148.8</ele>
        <time>2025-05-10T09:08:36Z</time>
      </trkpt>
      <trkpt lat="44.93533" lon="0.84134">
        <ele>148.8</ele>
        <time>2025-05-10T09:08:37Z</time>
      </trkpt>
      <trkpt lat="44.93535" lon="0.84126">
        <ele>148.6</ele>
        <time>2025-05-10T09:08:38Z</time>
      </trkpt>
      <trkpt lat="44.93538" lon="0.84117">
        <ele>148.6</ele>
        <time>2025-05-10T09:08:39Z</time>
      </trkpt>
      <trkpt lat="44.93541" lon="0.84109">
        <ele>148.6</ele>
        <time>2025-05-10T09:08:40Z</time>
      </trkpt>
      <trkpt lat="44.93544" lon="0.84102">
        <ele>148.4</ele>
        <time>2025-05-10T09:08:41Z</time>
      </trkpt>
      <trkpt lat="44.93546" lon="0.84094">
        <ele>148.4</ele>
        <time>2025-05-10T09:08:42Z</time>
      </trkpt>
      <trkpt lat="44.93549" lon="0.84086">
        <ele>148</ele>
        <time>2025-05-10T09:08:43Z</time>
      </trkpt>
      <trkpt lat="44.93552" lon="0.84078">
        <ele>148</ele>
        <time>2025-05-10T09:08:44Z</time>
      </trkpt>
      <trkpt lat="44.93555" lon="0.8407">
        <ele>147.8</ele>
        <time>2025-05-10T09:08:45Z</time>
      </trkpt>
      <trkpt lat="44.93557" lon="0.84062">
        <ele>147.6</ele>
        <time>2025-05-10T09:08:46Z</time>
      </trkpt>
      <trkpt lat="44.9356" lon="0.84054">
        <ele>147.6</ele>
        <time>2025-05-10T09:08:47Z</time>
      </trkpt>
      <trkpt lat="44.93563" lon="0.84047">
        <ele>147.6</ele>
        <time>2025-05-10T09:08:48Z</time>
      </trkpt>
      <trkpt lat="44.93566" lon="0.84039">
        <ele>147.6</ele>
        <time>2025-05-10T09:08:49Z</time>
      </trkpt>
      <trkpt lat="44.93568" lon="0.84032">
        <ele>147.6</ele>
        <time>2025-05-10T09:08:50Z</time>
      </trkpt>
      <trkpt lat="44.93571" lon="0.84023">
        <ele>147.4</ele>
        <time>2025-05-10T09:08:51Z</time>
      </trkpt>
      <trkpt lat="44.93575" lon="0.84015">
        <ele>147.4</ele>
        <time>2025-05-10T09:08:52Z</time>
      </trkpt>
      <trkpt lat="44.93579" lon="0.84007">
        <ele>147</ele>
        <time>2025-05-10T09:08:53Z</time>
      </trkpt>
      <trkpt lat="44.93583" lon="0.83999">
        <ele>146.6</ele>
        <time>2025-05-10T09:08:54Z</time>
      </trkpt>
      <trkpt lat="44.93589" lon="0.83993">
        <ele>146</ele>
        <time>2025-05-10T09:08:55Z</time>
      </trkpt>
      <trkpt lat="44.93594" lon="0.83987">
        <ele>145.8</ele>
        <time>2025-05-10T09:08:56Z</time>
      </trkpt>
      <trkpt lat="44.936" lon="0.83982">
        <ele>145</ele>
        <time>2025-05-10T09:08:57Z</time>
      </trkpt>
      <trkpt lat="44.93605" lon="0.83977">
        <ele>144.8</ele>
        <time>2025-05-10T09:08:58Z</time>
      </trkpt>
      <trkpt lat="44.93611" lon="0.83974">
        <ele>144.8</ele>
        <time>2025-05-10T09:08:59Z</time>
      </trkpt>
      <trkpt lat="44.93616" lon="0.8397">
        <ele>144.6</ele>
        <time>2025-05-10T09:09:00Z</time>
      </trkpt>
      <trkpt lat="44.93621" lon="0.83967">
        <ele>144.6</ele>
        <time>2025-05-10T09:09:01Z</time>
      </trkpt>
      <trkpt lat="44.93626" lon="0.83963">
        <ele>144.6</ele>
        <time>2025-05-10T09:09:02Z</time>
      </trkpt>
      <trkpt lat="44.93631" lon="0.83958">
        <ele>144.8</ele>
        <time>2025-05-10T09:09:03Z</time>
      </trkpt>
      <trkpt lat="44.93636" lon="0.83954">
        <ele>144.8</ele>
        <time>2025-05-10T09:09:04Z</time>
      </trkpt>
      <trkpt lat="44.93641" lon="0.8395">
        <ele>145</ele>
        <time>2025-05-10T09:09:05Z</time>
      </trkpt>
      <trkpt lat="44.93645" lon="0.83946">
        <ele>145</ele>
        <time>2025-05-10T09:09:06Z</time>
      </trkpt>
      <trkpt lat="44.9365" lon="0.83942">
        <ele>145.2</ele>
        <time>2025-05-10T09:09:07Z</time>
      </trkpt>
      <trkpt lat="44.93655" lon="0.83938">
        <ele>145.4</ele>
        <time>2025-05-10T09:09:08Z</time>
      </trkpt>
      <trkpt lat="44.9366" lon="0.83934">
        <ele>145.4</ele>
        <time>2025-05-10T09:09:09Z</time>
      </trkpt>
      <trkpt lat="44.93666" lon="0.83929">
        <ele>145.6</ele>
        <time>2025-05-10T09:09:10Z</time>
      </trkpt>
      <trkpt lat="44.9367" lon="0.83924">
        <ele>145.4</ele>
        <time>2025-05-10T09:09:11Z</time>
      </trkpt>
      <trkpt lat="44.93675" lon="0.8392">
        <ele>145.4</ele>
        <time>2025-05-10T09:09:12Z</time>
      </trkpt>
      <trkpt lat="44.93679" lon="0.83915">
        <ele>145.4</ele>
        <time>2025-05-10T09:09:13Z</time>
      </trkpt>
      <trkpt lat="44.93683" lon="0.83911">
        <ele>145.6</ele>
        <time>2025-05-10T09:09:14Z</time>
      </trkpt>
      <trkpt lat="44.93688" lon="0.83908">
        <ele>145.6</ele>
        <time>2025-05-10T09:09:15Z</time>
      </trkpt>
      <trkpt lat="44.93692" lon="0.83903">
        <ele>145.6</ele>
        <time>2025-05-10T09:09:16Z</time>
      </trkpt>
      <trkpt lat="44.93694" lon="0.83898">
        <ele>145.8</ele>
        <time>2025-05-10T09:09:17Z</time>
      </trkpt>
      <trkpt lat="44.93696" lon="0.83893">
        <ele>145.8</ele>
        <time>2025-05-10T09:09:18Z</time>
      </trkpt>
      <trkpt lat="44.93698" lon="0.83887">
        <ele>146.2</ele>
        <time>2025-05-10T09:09:19Z</time>
      </trkpt>
      <trkpt lat="44.937" lon="0.83881">
        <ele>146.2</ele>
        <time>2025-05-10T09:09:20Z</time>
      </trkpt>
      <trkpt lat="44.93701" lon="0.83874">
        <ele>146.4</ele>
        <time>2025-05-10T09:09:21Z</time>
      </trkpt>
      <trkpt lat="44.93703" lon="0.83869">
        <ele>147</ele>
        <time>2025-05-10T09:09:22Z</time>
      </trkpt>
      <trkpt lat="44.93704" lon="0.83864">
        <ele>147.2</ele>
        <time>2025-05-10T09:09:23Z</time>
      </trkpt>
      <trkpt lat="44.93705" lon="0.83859">
        <ele>147.4</ele>
        <time>2025-05-10T09:09:24Z</time>
      </trkpt>
      <trkpt lat="44.93706" lon="0.83855">
        <ele>147.8</ele>
        <time>2025-05-10T09:09:25Z</time>
      </trkpt>
      <trkpt lat="44.93708" lon="0.8385">
        <ele>148</ele>
        <time>2025-05-10T09:09:26Z</time>
      </trkpt>
      <trkpt lat="44.9371" lon="0.83846">
        <ele>148.4</ele>
        <time>2025-05-10T09:09:27Z</time>
      </trkpt>
      <trkpt lat="44.93711" lon="0.83843">
        <ele>148.6</ele>
        <time>2025-05-10T09:09:28Z</time>
      </trkpt>
      <trkpt lat="44.93713" lon="0.8384">
        <ele>148.8</ele>
        <time>2025-05-10T09:09:29Z</time>
      </trkpt>
      <trkpt lat="44.93714" lon="0.83837">
        <ele>149</ele>
        <time>2025-05-10T09:09:30Z</time>
      </trkpt>
      <trkpt lat="44.93715" lon="0.83834">
        <ele>149.4</ele>
        <time>2025-05-10T09:09:31Z</time>
      </trkpt>
      <trkpt lat="44.93716" lon="0.83832">
        <ele>149.8</ele>
        <time>2025-05-10T09:09:32Z</time>
      </trkpt>
      <trkpt lat="44.93717" lon="0.8383">
        <ele>150</ele>
        <time>2025-05-10T09:09:33Z</time>
      </trkpt>
      <trkpt lat="44.93718" lon="0.83828">
        <ele>150.2</ele>
        <time>2025-05-10T09:09:34Z</time>
      </trkpt>
      <trkpt lat="44.93719" lon="0.83825">
        <ele>150.8</ele>
        <time>2025-05-10T09:09:35Z</time>
      </trkpt>
      <trkpt lat="44.9372" lon="0.83823">
        <ele>151</ele>
        <time>2025-05-10T09:09:36Z</time>
      </trkpt>
      <trkpt lat="44.9372" lon="0.83821">
        <ele>151.2</ele>
        <time>2025-05-10T09:09:37Z</time>
      </trkpt>
      <trkpt lat="44.93721" lon="0.83819">
        <ele>151.4</ele>
        <time>2025-05-10T09:09:38Z</time>
      </trkpt>
      <trkpt lat="44.93722" lon="0.83817">
        <ele>151.6</ele>
        <time>2025-05-10T09:09:39Z</time>
      </trkpt>
      <trkpt lat="44.93723" lon="0.83815">
        <ele>151.8</ele>
        <time>2025-05-10T09:09:40Z</time>
      </trkpt>
      <trkpt lat="44.93724" lon="0.83813">
        <ele>152.2</ele>
        <time>2025-05-10T09:09:41Z</time>
      </trkpt>
      <trkpt lat="44.93724" lon="0.83811">
        <ele>152.2</ele>
        <time>2025-05-10T09:09:42Z</time>
      </trkpt>
      <trkpt lat="44.93724" lon="0.8381">
        <ele>152.4</ele>
        <time>2025-05-10T09:09:43Z</time>
      </trkpt>
      <trkpt lat="44.93725" lon="0.83808">
        <ele>152.6</ele>
        <time>2025-05-10T09:09:44Z</time>
      </trkpt>
      <trkpt lat="44.93725" lon="0.83806">
        <ele>152.8</ele>
        <time>2025-05-10T09:09:45Z</time>
      </trkpt>
      <trkpt lat="44.93725" lon="0.83804">
        <ele>153</ele>
        <time>2025-05-10T09:09:46Z</time>
      </trkpt>
      <trkpt lat="44.93726" lon="0.83802">
        <ele>153.2</ele>
        <time>2025-05-10T09:09:47Z</time>
      </trkpt>
      <trkpt lat="44.93727" lon="0.83801">
        <ele>153.2</ele>
        <time>2025-05-10T09:09:48Z</time>
      </trkpt>
      <trkpt lat="44.93727" lon="0.83799">
        <ele>153.4</ele>
        <time>2025-05-10T09:09:49Z</time>
      </trkpt>
      <trkpt lat="44.93728" lon="0.83797">
        <ele>153.4</ele>
        <time>2025-05-10T09:09:50Z</time>
      </trkpt>
      <trkpt lat="44.93729" lon="0.83796">
        <ele>153.6</ele>
        <time>2025-05-10T09:09:51Z</time>
      </trkpt>
      <trkpt lat="44.9373" lon="0.83794">
        <ele>154</ele>
        <time>2025-05-10T09:09:52Z</time>
      </trkpt>
      <trkpt lat="44.9373" lon="0.83792">
        <ele>154</ele>
        <time>2025-05-10T09:09:53Z</time>
      </trkpt>
      <trkpt lat="44.93731" lon="0.8379">
        <ele>154.2</ele>
        <time>2025-05-10T09:09:54Z</time>
      </trkpt>
      <trkpt lat="44.93732" lon="0.83789">
        <ele>154.4</ele>
        <time>2025-05-10T09:09:55Z</time>
      </trkpt>
      <trkpt lat="44.93733" lon="0.83787">
        <ele>154.6</ele>
        <time>2025-05-10T09:09:56Z</time>
      </trkpt>
      <trkpt lat="44.93733" lon="0.83785">
        <ele>154.8</ele>
        <time>2025-05-10T09:09:57Z</time>
      </trkpt>
      <trkpt lat="44.93735" lon="0.83783">
        <ele>155</ele>
        <time>2025-05-10T09:09:58Z</time>
      </trkpt>
      <trkpt lat="44.93736" lon="0.83782">
        <ele>155.2</ele>
        <time>2025-05-10T09:09:59Z</time>
      </trkpt>
      <trkpt lat="44.93737" lon="0.8378">
        <ele>155.4</ele>
        <time>2025-05-10T09:10:00Z</time>
      </trkpt>
      <trkpt lat="44.93738" lon="0.83778">
        <ele>155.6</ele>
        <time>2025-05-10T09:10:01Z</time>
      </trkpt>
      <trkpt lat="44.93738" lon="0.83776">
        <ele>155.8</ele>
        <time>2025-05-10T09:10:02Z</time>
      </trkpt>
      <trkpt lat="44.93738" lon="0.83774">
        <ele>156</ele>
        <time>2025-05-10T09:10:03Z</time>
      </trkpt>
      <trkpt lat="44.93738" lon="0.83772">
        <ele>156</ele>
        <time>2025-05-10T09:10:04Z</time>
      </trkpt>
      <trkpt lat="44.93739" lon="0.83771">
        <ele>156.4</ele>
        <time>2025-05-10T09:10:05Z</time>
      </trkpt>
      <trkpt lat="44.9374" lon="0.83769">
        <ele>156.4</ele>
        <time>2025-05-10T09:10:06Z</time>
      </trkpt>
      <trkpt lat="44.93741" lon="0.83767">
        <ele>156.6</ele>
        <time>2025-05-10T09:10:07Z</time>
      </trkpt>
      <trkpt lat="44.93741" lon="0.83765">
        <ele>156.8</ele>
        <time>2025-05-10T09:10:08Z</time>
      </trkpt>
      <trkpt lat="44.93742" lon="0.83764">
        <ele>157</ele>
        <time>2025-05-10T09:10:09Z</time>
      </trkpt>
      <trkpt lat="44.93742" lon="0.83762">
        <ele>157.2</ele>
        <time>2025-05-10T09:10:10Z</time>
      </trkpt>
      <trkpt lat="44.93743" lon="0.83759">
        <ele>157.4</ele>
        <time>2025-05-10T09:10:11Z</time>
      </trkpt>
      <trkpt lat="44.93743" lon="0.83758">
        <ele>157.4</ele>
        <time>2025-05-10T09:10:12Z</time>
      </trkpt>
      <trkpt lat="44.93744" lon="0.83756">
        <ele>157.6</ele>
        <time>2025-05-10T09:10:13Z</time>
      </trkpt>
      <trkpt lat="44.93745" lon="0.83754">
        <ele>158</ele>
        <time>2025-05-10T09:10:14Z</time>
      </trkpt>
      <trkpt lat="44.93745" lon="0.83753">
        <ele>158</ele>
        <time>2025-05-10T09:10:15Z</time>
      </trkpt>
      <trkpt lat="44.93746" lon="0.83752">
        <ele>158.2</ele>
        <time>2025-05-10T09:10:16Z</time>
      </trkpt>
      <trkpt lat="44.93746" lon="0.83751">
        <ele>158.4</ele>
        <time>2025-05-10T09:10:17Z</time>
      </trkpt>
      <trkpt lat="44.93747" lon="0.83748">
        <ele>158.6</ele>
        <time>2025-05-10T09:10:18Z</time>
      </trkpt>
      <trkpt lat="44.93747" lon="0.83747">
        <ele>158.8</ele>
        <time>2025-05-10T09:10:19Z</time>
      </trkpt>
      <trkpt lat="44.93749" lon="0.83745">
        <ele>159</ele>
        <time>2025-05-10T09:10:20Z</time>
      </trkpt>
      <trkpt lat="44.9375" lon="0.83744">
        <ele>159.2</ele>
        <time>2025-05-10T09:10:21Z</time>
      </trkpt>
      <trkpt lat="44.93751" lon="0.83742">
        <ele>159.4</ele>
        <time>2025-05-10T09:10:22Z</time>
      </trkpt>
      <trkpt lat="44.93752" lon="0.8374">
        <ele>159.4</ele>
        <time>2025-05-10T09:10:23Z</time>
      </trkpt>
      <trkpt lat="44.93752" lon="0.83739">
        <ele>159.6</ele>
        <time>2025-05-10T09:10:24Z</time>
      </trkpt>
      <trkpt lat="44.93753" lon="0.83737">
        <ele>160</ele>
        <time>2025-05-10T09:10:25Z</time>
      </trkpt>
      <trkpt lat="44.93754" lon="0.83736">
        <ele>160.2</ele>
        <time>2025-05-10T09:10:26Z</time>
      </trkpt>
      <trkpt lat="44.93754" lon="0.83734">
        <ele>160.2</ele>
        <time>2025-05-10T09:10:27Z</time>
      </trkpt>
      <trkpt lat="44.93755" lon="0.83732">
        <ele>160.4</ele>
        <time>2025-05-10T09:10:28Z</time>
      </trkpt>
      <trkpt lat="44.93755" lon="0.8373">
        <ele>160.8</ele>
        <time>2025-05-10T09:10:29Z</time>
      </trkpt>
      <trkpt lat="44.93756" lon="0.83729">
        <ele>161</ele>
        <time>2025-05-10T09:10:30Z</time>
      </trkpt>
      <trkpt lat="44.93757" lon="0.83726">
        <ele>161.2</ele>
        <time>2025-05-10T09:10:31Z</time>
      </trkpt>
      <trkpt lat="44.93758" lon="0.83724">
        <ele>161.2</ele>
        <time>2025-05-10T09:10:32Z</time>
      </trkpt>
      <trkpt lat="44.93759" lon="0.83722">
        <ele>161.4</ele>
        <time>2025-05-10T09:10:33Z</time>
      </trkpt>
      <trkpt lat="44.9376" lon="0.83721">
        <ele>161.6</ele>
        <time>2025-05-10T09:10:34Z</time>
      </trkpt>
      <trkpt lat="44.93761" lon="0.83719">
        <ele>161.8</ele>
        <time>2025-05-10T09:10:35Z</time>
      </trkpt>
      <trkpt lat="44.93762" lon="0.83717">
        <ele>162</ele>
        <time>2025-05-10T09:10:36Z</time>
      </trkpt>
      <trkpt lat="44.93763" lon="0.83715">
        <ele>162.2</ele>
        <time>2025-05-10T09:10:37Z</time>
      </trkpt>
      <trkpt lat="44.93764" lon="0.83713">
        <ele>162.4</ele>
        <time>2025-05-10T09:10:38Z</time>
      </trkpt>
      <trkpt lat="44.93765" lon="0.83711">
        <ele>162.6</ele>
        <time>2025-05-10T09:10:39Z</time>
      </trkpt>
      <trkpt lat="44.93767" lon="0.83709">
        <ele>162.8</ele>
        <time>2025-05-10T09:10:40Z</time>
      </trkpt>
      <trkpt lat="44.93768" lon="0.83708">
        <ele>163</ele>
        <time>2025-05-10T09:10:41Z</time>
      </trkpt>
      <trkpt lat="44.93769" lon="0.83706">
        <ele>163.2</ele>
        <time>2025-05-10T09:10:42Z</time>
      </trkpt>
      <trkpt lat="44.9377" lon="0.83704">
        <ele>163.4</ele>
        <time>2025-05-10T09:10:43Z</time>
      </trkpt>
      <trkpt lat="44.93771" lon="0.83702">
        <ele>163.6</ele>
        <time>2025-05-10T09:10:44Z</time>
      </trkpt>
      <trkpt lat="44.93773" lon="0.837">
        <ele>163.8</ele>
        <time>2025-05-10T09:10:45Z</time>
      </trkpt>
      <trkpt lat="44.93774" lon="0.83698">
        <ele>164</ele>
        <time>2025-05-10T09:10:46Z</time>
      </trkpt>
      <trkpt lat="44.93775" lon="0.83696">
        <ele>164.2</ele>
        <time>2025-05-10T09:10:47Z</time>
      </trkpt>
      <trkpt lat="44.93776" lon="0.83695">
        <ele>164.4</ele>
        <time>2025-05-10T09:10:48Z</time>
      </trkpt>
      <trkpt lat="44.93777" lon="0.83693">
        <ele>164.8</ele>
        <time>2025-05-10T09:10:49Z</time>
      </trkpt>
      <trkpt lat="44.93779" lon="0.83691">
        <ele>165</ele>
        <time>2025-05-10T09:10:50Z</time>
      </trkpt>
      <trkpt lat="44.9378" lon="0.83689">
        <ele>165.2</ele>
        <time>2025-05-10T09:10:51Z</time>
      </trkpt>
      <trkpt lat="44.93781" lon="0.83687">
        <ele>165.4</ele>
        <time>2025-05-10T09:10:52Z</time>
      </trkpt>
      <trkpt lat="44.93783" lon="0.83685">
        <ele>165.4</ele>
        <time>2025-05-10T09:10:53Z</time>
      </trkpt>
      <trkpt lat="44.93784" lon="0.83684">
        <ele>165.6</ele>
        <time>2025-05-10T09:10:54Z</time>
      </trkpt>
      <trkpt lat="44.93785" lon="0.83683">
        <ele>165.8</ele>
        <time>2025-05-10T09:10:55Z</time>
      </trkpt>
      <trkpt lat="44.93786" lon="0.83681">
        <ele>166</ele>
        <time>2025-05-10T09:10:56Z</time>
      </trkpt>
      <trkpt lat="44.93787" lon="0.83679">
        <ele>166.2</ele>
        <time>2025-05-10T09:10:57Z</time>
      </trkpt>
      <trkpt lat="44.93788" lon="0.83677">
        <ele>166.4</ele>
        <time>2025-05-10T09:10:58Z</time>
      </trkpt>
      <trkpt lat="44.93789" lon="0.83675">
        <ele>166.6</ele>
        <time>2025-05-10T09:10:59Z</time>
      </trkpt>
      <trkpt lat="44.9379" lon="0.83673">
        <ele>166.8</ele>
        <time>2025-05-10T09:11:00Z</time>
      </trkpt>
      <trkpt lat="44.93792" lon="0.83671">
        <ele>167</ele>
        <time>2025-05-10T09:11:01Z</time>
      </trkpt>
      <trkpt lat="44.93793" lon="0.83669">
        <ele>167.2</ele>
        <time>2025-05-10T09:11:02Z</time>
      </trkpt>
      <trkpt lat="44.93794" lon="0.83667">
        <ele>167.4</ele>
        <time>2025-05-10T09:11:03Z</time>
      </trkpt>
      <trkpt lat="44.93795" lon="0.83665">
        <ele>167.4</ele>
        <time>2025-05-10T09:11:04Z</time>
      </trkpt>
      <trkpt lat="44.93796" lon="0.83664">
        <ele>167.6</ele>
        <time>2025-05-10T09:11:05Z</time>
      </trkpt>
      <trkpt lat="44.93798" lon="0.83662">
        <ele>167.8</ele>
        <time>2025-05-10T09:11:06Z</time>
      </trkpt>
      <trkpt lat="44.93799" lon="0.8366">
        <ele>167.8</ele>
        <time>2025-05-10T09:11:07Z</time>
      </trkpt>
      <trkpt lat="44.93801" lon="0.83658">
        <ele>168</ele>
        <time>2025-05-10T09:11:08Z</time>
      </trkpt>
      <trkpt lat="44.93802" lon="0.83656">
        <ele>168.2</ele>
        <time>2025-05-10T09:11:09Z</time>
      </trkpt>
      <trkpt lat="44.93803" lon="0.83654">
        <ele>168.4</ele>
        <time>2025-05-10T09:11:10Z</time>
      </trkpt>
      <trkpt lat="44.93805" lon="0.83652">
        <ele>168.6</ele>
        <time>2025-05-10T09:11:11Z</time>
      </trkpt>
      <trkpt lat="44.93806" lon="0.8365">
        <ele>168.8</ele>
        <time>2025-05-10T09:11:12Z</time>
      </trkpt>
      <trkpt lat="44.93807" lon="0.83649">
        <ele>169</ele>
        <time>2025-05-10T09:11:13Z</time>
      </trkpt>
      <trkpt lat="44.93809" lon="0.83647">
        <ele>169.2</ele>
        <time>2025-05-10T09:11:14Z</time>
      </trkpt>
      <trkpt lat="44.9381" lon="0.83645">
        <ele>169.4</ele>
        <time>2025-05-10T09:11:15Z</time>
      </trkpt>
      <trkpt lat="44.93811" lon="0.83643">
        <ele>169.4</ele>
        <time>2025-05-10T09:11:16Z</time>
      </trkpt>
      <trkpt lat="44.93812" lon="0.83642">
        <ele>169.6</ele>
        <time>2025-05-10T09:11:17Z</time>
      </trkpt>
      <trkpt lat="44.93814" lon="0.8364">
        <ele>169.8</ele>
        <time>2025-05-10T09:11:18Z</time>
      </trkpt>
      <trkpt lat="44.93815" lon="0.83638">
        <ele>169.8</ele>
        <time>2025-05-10T09:11:19Z</time>
      </trkpt>
      <trkpt lat="44.93816" lon="0.83637">
        <ele>170</ele>
        <time>2025-05-10T09:11:20Z</time>
      </trkpt>
      <trkpt lat="44.93817" lon="0.83634">
        <ele>170.2</ele>
        <time>2025-05-10T09:11:21Z</time>
      </trkpt>
      <trkpt lat="44.93818" lon="0.83632">
        <ele>170.4</ele>
        <time>2025-05-10T09:11:22Z</time>
      </trkpt>
      <trkpt lat="44.9382" lon="0.83631">
        <ele>170.6</ele>
        <time>2025-05-10T09:11:23Z</time>
      </trkpt>
      <trkpt lat="44.93821" lon="0.83629">
        <ele>170.6</ele>
        <time>2025-05-10T09:11:24Z</time>
      </trkpt>
      <trkpt lat="44.93822" lon="0.83627">
        <ele>170.6</ele>
        <time>2025-05-10T09:11:25Z</time>
      </trkpt>
      <trkpt lat="44.93823" lon="0.83625">
        <ele>170.6</ele>
        <time>2025-05-10T09:11:26Z</time>
      </trkpt>
      <trkpt lat="44.93825" lon="0.83623">
        <ele>170.8</ele>
        <time>2025-05-10T09:11:27Z</time>
      </trkpt>
      <trkpt lat="44.93826" lon="0.83621">
        <ele>170.8</ele>
        <time>2025-05-10T09:11:28Z</time>
      </trkpt>
      <trkpt lat="44.93827" lon="0.83619">
        <ele>171</ele>
        <time>2025-05-10T09:11:29Z</time>
      </trkpt>
      <trkpt lat="44.93828" lon="0.83618">
        <ele>171.2</ele>
        <time>2025-05-10T09:11:30Z</time>
      </trkpt>
      <trkpt lat="44.9383" lon="0.83616">
        <ele>171.4</ele>
        <time>2025-05-10T09:11:31Z</time>
      </trkpt>
      <trkpt lat="44.93831" lon="0.83615">
        <ele>171.4</ele>
        <time>2025-05-10T09:11:32Z</time>
      </trkpt>
      <trkpt lat="44.93832" lon="0.83614">
        <ele>171.6</ele>
        <time>2025-05-10T09:11:33Z</time>
      </trkpt>
      <trkpt lat="44.93834" lon="0.83612">
        <ele>171.8</ele>
        <time>2025-05-10T09:11:34Z</time>
      </trkpt>
      <trkpt lat="44.93835" lon="0.83611">
        <ele>172</ele>
        <time>2025-05-10T09:11:35Z</time>
      </trkpt>
      <trkpt lat="44.93837" lon="0.83609">
        <ele>172.2</ele>
        <time>2025-05-10T09:11:36Z</time>
      </trkpt>
      <trkpt lat="44.93838" lon="0.83607">
        <ele>172.4</ele>
        <time>2025-05-10T09:11:37Z</time>
      </trkpt>
      <trkpt lat="44.93838" lon="0.83606">
        <ele>172.8</ele>
        <time>2025-05-10T09:11:38Z</time>
      </trkpt>
      <trkpt lat="44.93839" lon="0.83605">
        <ele>173</ele>
        <time>2025-05-10T09:11:39Z</time>
      </trkpt>
      <trkpt lat="44.9384" lon="0.83604">
        <ele>173.2</ele>
        <time>2025-05-10T09:11:40Z</time>
      </trkpt>
      <trkpt lat="44.93842" lon="0.83602">
        <ele>173.4</ele>
        <time>2025-05-10T09:11:41Z</time>
      </trkpt>
      <trkpt lat="44.93843" lon="0.836">
        <ele>173.6</ele>
        <time>2025-05-10T09:11:42Z</time>
      </trkpt>
      <trkpt lat="44.93844" lon="0.83598">
        <ele>173.8</ele>
        <time>2025-05-10T09:11:43Z</time>
      </trkpt>
      <trkpt lat="44.93845" lon="0.83597">
        <ele>174</ele>
        <time>2025-05-10T09:11:44Z</time>
      </trkpt>
      <trkpt lat="44.93846" lon="0.83595">
        <ele>174.4</ele>
        <time>2025-05-10T09:11:45Z</time>
      </trkpt>
      <trkpt lat="44.93847" lon="0.83594">
        <ele>174.6</ele>
        <time>2025-05-10T09:11:46Z</time>
      </trkpt>
      <trkpt lat="44.93848" lon="0.83593">
        <ele>174.8</ele>
        <time>2025-05-10T09:11:47Z</time>
      </trkpt>
      <trkpt lat="44.93849" lon="0.83591">
        <ele>175</ele>
        <time>2025-05-10T09:11:48Z</time>
      </trkpt>
      <trkpt lat="44.9385" lon="0.83589">
        <ele>175.2</ele>
        <time>2025-05-10T09:11:49Z</time>
      </trkpt>
      <trkpt lat="44.93852" lon="0.83587">
        <ele>175.4</ele>
        <time>2025-05-10T09:11:50Z</time>
      </trkpt>
      <trkpt lat="44.93853" lon="0.83586">
        <ele>175.6</ele>
        <time>2025-05-10T09:11:51Z</time>
      </trkpt>
      <trkpt lat="44.93854" lon="0.83585">
        <ele>176</ele>
        <time>2025-05-10T09:11:52Z</time>
      </trkpt>
      <trkpt lat="44.93854" lon="0.83584">
        <ele>176</ele>
        <time>2025-05-10T09:11:53Z</time>
      </trkpt>
      <trkpt lat="44.93855" lon="0.83582">
        <ele>176.4</ele>
        <time>2025-05-10T09:11:54Z</time>
      </trkpt>
      <trkpt lat="44.93856" lon="0.83581">
        <ele>176.4</ele>
        <time>2025-05-10T09:11:55Z</time>
      </trkpt>
      <trkpt lat="44.93857" lon="0.83579">
        <ele>176.8</ele>
        <time>2025-05-10T09:11:56Z</time>
      </trkpt>
      <trkpt lat="44.93857" lon="0.83577">
        <ele>176.8</ele>
        <time>2025-05-10T09:11:57Z</time>
      </trkpt>
      <trkpt lat="44.93858" lon="0.83576">
        <ele>177</ele>
        <time>2025-05-10T09:11:58Z</time>
      </trkpt>
      <trkpt lat="44.93859" lon="0.83575">
        <ele>177.2</ele>
        <time>2025-05-10T09:11:59Z</time>
      </trkpt>
      <trkpt lat="44.93859" lon="0.83573">
        <ele>177.4</ele>
        <time>2025-05-10T09:12:00Z</time>
      </trkpt>
      <trkpt lat="44.9386" lon="0.83571">
        <ele>177.6</ele>
        <time>2025-05-10T09:12:01Z</time>
      </trkpt>
      <trkpt lat="44.9386" lon="0.83569">
        <ele>177.8</ele>
        <time>2025-05-10T09:12:02Z</time>
      </trkpt>
      <trkpt lat="44.93861" lon="0.83567">
        <ele>178</ele>
        <time>2025-05-10T09:12:03Z</time>
      </trkpt>
      <trkpt lat="44.93861" lon="0.83565">
        <ele>178.4</ele>
        <time>2025-05-10T09:12:04Z</time>
      </trkpt>
      <trkpt lat="44.93862" lon="0.83563">
        <ele>178.6</ele>
        <time>2025-05-10T09:12:05Z</time>
      </trkpt>
      <trkpt lat="44.93862" lon="0.83561">
        <ele>178.8</ele>
        <time>2025-05-10T09:12:06Z</time>
      </trkpt>
      <trkpt lat="44.93863" lon="0.83559">
        <ele>179</ele>
        <time>2025-05-10T09:12:07Z</time>
      </trkpt>
      <trkpt lat="44.93863" lon="0.83557">
        <ele>179.2</ele>
        <time>2025-05-10T09:12:08Z</time>
      </trkpt>
      <trkpt lat="44.93864" lon="0.83556">
        <ele>179.2</ele>
        <time>2025-05-10T09:12:09Z</time>
      </trkpt>
      <trkpt lat="44.93864" lon="0.83554">
        <ele>179.6</ele>
        <time>2025-05-10T09:12:10Z</time>
      </trkpt>
      <trkpt lat="44.93864" lon="0.83552">
        <ele>179.8</ele>
        <time>2025-05-10T09:12:11Z</time>
      </trkpt>
      <trkpt lat="44.93864" lon="0.8355">
        <ele>180</ele>
        <time>2025-05-10T09:12:12Z</time>
      </trkpt>
      <trkpt lat="44.93865" lon="0.83547">
        <ele>180.2</ele>
        <time>2025-05-10T09:12:13Z</time>
      </trkpt>
      <trkpt lat="44.93866" lon="0.83546">
        <ele>180.4</ele>
        <time>2025-05-10T09:12:14Z</time>
      </trkpt>
      <trkpt lat="44.93866" lon="0.83544">
        <ele>180.6</ele>
        <time>2025-05-10T09:12:15Z</time>
      </trkpt>
      <trkpt lat="44.93866" lon="0.83542">
        <ele>180.8</ele>
        <time>2025-05-10T09:12:16Z</time>
      </trkpt>
      <trkpt lat="44.93867" lon="0.83539">
        <ele>180.8</ele>
        <time>2025-05-10T09:12:17Z</time>
      </trkpt>
      <trkpt lat="44.93867" lon="0.83538">
        <ele>181</ele>
        <time>2025-05-10T09:12:18Z</time>
      </trkpt>
      <trkpt lat="44.93867" lon="0.83536">
        <ele>181.2</ele>
        <time>2025-05-10T09:12:19Z</time>
      </trkpt>
      <trkpt lat="44.93867" lon="0.83534">
        <ele>181.4</ele>
        <time>2025-05-10T09:12:20Z</time>
      </trkpt>
      <trkpt lat="44.93868" lon="0.83532">
        <ele>181.6</ele>
        <time>2025-05-10T09:12:21Z</time>
      </trkpt>
      <trkpt lat="44.93868" lon="0.8353">
        <ele>181.8</ele>
        <time>2025-05-10T09:12:22Z</time>
      </trkpt>
      <trkpt lat="44.93869" lon="0.83528">
        <ele>182</ele>
        <time>2025-05-10T09:12:23Z</time>
      </trkpt>
      <trkpt lat="44.93869" lon="0.83526">
        <ele>182</ele>
        <time>2025-05-10T09:12:24Z</time>
      </trkpt>
      <trkpt lat="44.9387" lon="0.83524">
        <ele>182.2</ele>
        <time>2025-05-10T09:12:25Z</time>
      </trkpt>
      <trkpt lat="44.9387" lon="0.83521">
        <ele>182.6</ele>
        <time>2025-05-10T09:12:26Z</time>
      </trkpt>
      <trkpt lat="44.9387" lon="0.83519">
        <ele>182.8</ele>
        <time>2025-05-10T09:12:27Z</time>
      </trkpt>
      <trkpt lat="44.93871" lon="0.83518">
        <ele>182.8</ele>
        <time>2025-05-10T09:12:28Z</time>
      </trkpt>
      <trkpt lat="44.93871" lon="0.83516">
        <ele>183</ele>
        <time>2025-05-10T09:12:29Z</time>
      </trkpt>
      <trkpt lat="44.93872" lon="0.83513">
        <ele>183.2</ele>
        <time>2025-05-10T09:12:30Z</time>
      </trkpt>
      <trkpt lat="44.93873" lon="0.83511">
        <ele>183.6</ele>
        <time>2025-05-10T09:12:31Z</time>
      </trkpt>
      <trkpt lat="44.93873" lon="0.8351">
        <ele>183.6</ele>
        <time>2025-05-10T09:12:32Z</time>
      </trkpt>
      <trkpt lat="44.93874" lon="0.83508">
        <ele>184</ele>
        <time>2025-05-10T09:12:33Z</time>
      </trkpt>
      <trkpt lat="44.93874" lon="0.83506">
        <ele>184.2</ele>
        <time>2025-05-10T09:12:34Z</time>
      </trkpt>
      <trkpt lat="44.93875" lon="0.83504">
        <ele>184.2</ele>
        <time>2025-05-10T09:12:35Z</time>
      </trkpt>
      <trkpt lat="44.93875" lon="0.83502">
        <ele>184.6</ele>
        <time>2025-05-10T09:12:36Z</time>
      </trkpt>
      <trkpt lat="44.93876" lon="0.835">
        <ele>184.8</ele>
        <time>2025-05-10T09:12:37Z</time>
      </trkpt>
      <trkpt lat="44.93877" lon="0.83497">
        <ele>185</ele>
        <time>2025-05-10T09:12:38Z</time>
      </trkpt>
      <trkpt lat="44.93877" lon="0.83495">
        <ele>185</ele>
        <time>2025-05-10T09:12:39Z</time>
      </trkpt>
      <trkpt lat="44.93878" lon="0.83493">
        <ele>185.2</ele>
        <time>2025-05-10T09:12:40Z</time>
      </trkpt>
      <trkpt lat="44.93878" lon="0.83491">
        <ele>185.4</ele>
        <time>2025-05-10T09:12:41Z</time>
      </trkpt>
      <trkpt lat="44.93879" lon="0.83489">
        <ele>185.6</ele>
        <time>2025-05-10T09:12:42Z</time>
      </trkpt>
      <trkpt lat="44.93879" lon="0.83487">
        <ele>185.8</ele>
        <time>2025-05-10T09:12:43Z</time>
      </trkpt>
      <trkpt lat="44.9388" lon="0.83485">
        <ele>186</ele>
        <time>2025-05-10T09:12:44Z</time>
      </trkpt>
      <trkpt lat="44.9388" lon="0.83483">
        <ele>186.4</ele>
        <time>2025-05-10T09:12:45Z</time>
      </trkpt>
      <trkpt lat="44.93881" lon="0.83481">
        <ele>186.6</ele>
        <time>2025-05-10T09:12:46Z</time>
      </trkpt>
      <trkpt lat="44.93881" lon="0.83478">
        <ele>186.8</ele>
        <time>2025-05-10T09:12:47Z</time>
      </trkpt>
      <trkpt lat="44.93881" lon="0.83477">
        <ele>187</ele>
        <time>2025-05-10T09:12:48Z</time>
      </trkpt>
      <trkpt lat="44.93881" lon="0.83474">
        <ele>187.2</ele>
        <time>2025-05-10T09:12:49Z</time>
      </trkpt>
      <trkpt lat="44.93882" lon="0.83472">
        <ele>187.4</ele>
        <time>2025-05-10T09:12:50Z</time>
      </trkpt>
      <trkpt lat="44.93883" lon="0.83469">
        <ele>187.8</ele>
        <time>2025-05-10T09:12:51Z</time>
      </trkpt>
      <trkpt lat="44.93884" lon="0.83467">
        <ele>187.8</ele>
        <time>2025-05-10T09:12:52Z</time>
      </trkpt>
      <trkpt lat="44.93885" lon="0.83465">
        <ele>188</ele>
        <time>2025-05-10T09:12:53Z</time>
      </trkpt>
      <trkpt lat="44.93887" lon="0.83463">
        <ele>188.2</ele>
        <time>2025-05-10T09:12:54Z</time>
      </trkpt>
      <trkpt lat="44.93888" lon="0.83461">
        <ele>188.4</ele>
        <time>2025-05-10T09:12:55Z</time>
      </trkpt>
      <trkpt lat="44.93889" lon="0.83458">
        <ele>188.6</ele>
        <time>2025-05-10T09:12:56Z</time>
      </trkpt>
      <trkpt lat="44.93891" lon="0.83456">
        <ele>188.6</ele>
        <time>2025-05-10T09:12:57Z</time>
      </trkpt>
      <trkpt lat="44.93893" lon="0.83454">
        <ele>188.6</ele>
        <time>2025-05-10T09:12:58Z</time>
      </trkpt>
      <trkpt lat="44.93894" lon="0.83452">
        <ele>188.6</ele>
        <time>2025-05-10T09:12:59Z</time>
      </trkpt>
      <trkpt lat="44.93896" lon="0.8345">
        <ele>188.6</ele>
        <time>2025-05-10T09:13:00Z</time>
      </trkpt>
      <trkpt lat="44.93898" lon="0.83448">
        <ele>188.8</ele>
        <time>2025-05-10T09:13:01Z</time>
      </trkpt>
      <trkpt lat="44.939" lon="0.83445">
        <ele>188.8</ele>
        <time>2025-05-10T09:13:02Z</time>
      </trkpt>
      <trkpt lat="44.93902" lon="0.83443">
        <ele>188.8</ele>
        <time>2025-05-10T09:13:03Z</time>
      </trkpt>
      <trkpt lat="44.93905" lon="0.8344">
        <ele>188.8</ele>
        <time>2025-05-10T09:13:04Z</time>
      </trkpt>
      <trkpt lat="44.93907" lon="0.83437">
        <ele>188.8</ele>
        <time>2025-05-10T09:13:05Z</time>
      </trkpt>
      <trkpt lat="44.9391" lon="0.83434">
        <ele>188.8</ele>
        <time>2025-05-10T09:13:06Z</time>
      </trkpt>
      <trkpt lat="44.93913" lon="0.83431">
        <ele>188.8</ele>
        <time>2025-05-10T09:13:07Z</time>
      </trkpt>
      <trkpt lat="44.93916" lon="0.83428">
        <ele>188.6</ele>
        <time>2025-05-10T09:13:08Z</time>
      </trkpt>
      <trkpt lat="44.93919" lon="0.83424">
        <ele>188.4</ele>
        <time>2025-05-10T09:13:09Z</time>
      </trkpt>
      <trkpt lat="44.93923" lon="0.8342">
        <ele>188</ele>
        <time>2025-05-10T09:13:10Z</time>
      </trkpt>
      <trkpt lat="44.93928" lon="0.83416">
        <ele>187.4</ele>
        <time>2025-05-10T09:13:11Z</time>
      </trkpt>
      <trkpt lat="44.93933" lon="0.83413">
        <ele>187.2</ele>
        <time>2025-05-10T09:13:12Z</time>
      </trkpt>
      <trkpt lat="44.93937" lon="0.8341">
        <ele>186.8</ele>
        <time>2025-05-10T09:13:13Z</time>
      </trkpt>
      <trkpt lat="44.93942" lon="0.83407">
        <ele>186.4</ele>
        <time>2025-05-10T09:13:14Z</time>
      </trkpt>
      <trkpt lat="44.93947" lon="0.83404">
        <ele>186.2</ele>
        <time>2025-05-10T09:13:15Z</time>
      </trkpt>
      <trkpt lat="44.93952" lon="0.83401">
        <ele>186</ele>
        <time>2025-05-10T09:13:16Z</time>
      </trkpt>
      <trkpt lat="44.93957" lon="0.83397">
        <ele>185.8</ele>
        <time>2025-05-10T09:13:17Z</time>
      </trkpt>
      <trkpt lat="44.93962" lon="0.83394">
        <ele>185.8</ele>
        <time>2025-05-10T09:13:18Z</time>
      </trkpt>
      <trkpt lat="44.93967" lon="0.8339">
        <ele>185.8</ele>
        <time>2025-05-10T09:13:19Z</time>
      </trkpt>
      <trkpt lat="44.93972" lon="0.83386">
        <ele>185.8</ele>
        <time>2025-05-10T09:13:20Z</time>
      </trkpt>
      <trkpt lat="44.93976" lon="0.83382">
        <ele>185.8</ele>
        <time>2025-05-10T09:13:21Z</time>
      </trkpt>
      <trkpt lat="44.9398" lon="0.83379">
        <ele>185.8</ele>
        <time>2025-05-10T09:13:22Z</time>
      </trkpt>
      <trkpt lat="44.93984" lon="0.83375">
        <ele>186</ele>
        <time>2025-05-10T09:13:23Z</time>
      </trkpt>
      <trkpt lat="44.93988" lon="0.83372">
        <ele>186</ele>
        <time>2025-05-10T09:13:24Z</time>
      </trkpt>
      <trkpt lat="44.93992" lon="0.83369">
        <ele>186</ele>
        <time>2025-05-10T09:13:25Z</time>
      </trkpt>
      <trkpt lat="44.93996" lon="0.83365">
        <ele>186</ele>
        <time>2025-05-10T09:13:26Z</time>
      </trkpt>
      <trkpt lat="44.94001" lon="0.83362">
        <ele>186</ele>
        <time>2025-05-10T09:13:27Z</time>
      </trkpt>
      <trkpt lat="44.94005" lon="0.83358">
        <ele>186</ele>
        <time>2025-05-10T09:13:28Z</time>
      </trkpt>
      <trkpt lat="44.9401" lon="0.83355">
        <ele>186.2</ele>
        <time>2025-05-10T09:13:29Z</time>
      </trkpt>
      <trkpt lat="44.94014" lon="0.83352">
        <ele>186.2</ele>
        <time>2025-05-10T09:13:30Z</time>
      </trkpt>
      <trkpt lat="44.94019" lon="0.83348">
        <ele>186.2</ele>
        <time>2025-05-10T09:13:31Z</time>
      </trkpt>
      <trkpt lat="44.94023" lon="0.83344">
        <ele>186.6</ele>
        <time>2025-05-10T09:13:32Z</time>
      </trkpt>
      <trkpt lat="44.94026" lon="0.83339">
        <ele>186.8</ele>
        <time>2025-05-10T09:13:33Z</time>
      </trkpt>
      <trkpt lat="44.9403" lon="0.83335">
        <ele>187</ele>
        <time>2025-05-10T09:13:34Z</time>
      </trkpt>
      <trkpt lat="44.94033" lon="0.8333">
        <ele>187</ele>
        <time>2025-05-10T09:13:35Z</time>
      </trkpt>
      <trkpt lat="44.94037" lon="0.83326">
        <ele>187.2</ele>
        <time>2025-05-10T09:13:36Z</time>
      </trkpt>
      <trkpt lat="44.94041" lon="0.83322">
        <ele>187.4</ele>
        <time>2025-05-10T09:13:37Z</time>
      </trkpt>
      <trkpt lat="44.94044" lon="0.83318">
        <ele>187.6</ele>
        <time>2025-05-10T09:13:38Z</time>
      </trkpt>
      <trkpt lat="44.94047" lon="0.83315">
        <ele>188</ele>
        <time>2025-05-10T09:13:39Z</time>
      </trkpt>
      <trkpt lat="44.9405" lon="0.83312">
        <ele>188</ele>
        <time>2025-05-10T09:13:40Z</time>
      </trkpt>
      <trkpt lat="44.94053" lon="0.83308">
        <ele>188.2</ele>
        <time>2025-05-10T09:13:41Z</time>
      </trkpt>
      <trkpt lat="44.94055" lon="0.83305">
        <ele>188.8</ele>
        <time>2025-05-10T09:13:42Z</time>
      </trkpt>
      <trkpt lat="44.94058" lon="0.83302">
        <ele>189.2</ele>
        <time>2025-05-10T09:13:43Z</time>
      </trkpt>
      <trkpt lat="44.94061" lon="0.83298">
        <ele>189.4</ele>
        <time>2025-05-10T09:13:44Z</time>
      </trkpt>
      <trkpt lat="44.94063" lon="0.83295">
        <ele>189.6</ele>
        <time>2025-05-10T09:13:45Z</time>
      </trkpt>
      <trkpt lat="44.94066" lon="0.83292">
        <ele>190</ele>
        <time>2025-05-10T09:13:46Z</time>
      </trkpt>
      <trkpt lat="44.94069" lon="0.83289">
        <ele>190.2</ele>
        <time>2025-05-10T09:13:47Z</time>
      </trkpt>
      <trkpt lat="44.94072" lon="0.83286">
        <ele>190.4</ele>
        <time>2025-05-10T09:13:48Z</time>
      </trkpt>
      <trkpt lat="44.94075" lon="0.83284">
        <ele>190.6</ele>
        <time>2025-05-10T09:13:49Z</time>
      </trkpt>
      <trkpt lat="44.94077" lon="0.83281">
        <ele>190.8</ele>
        <time>2025-05-10T09:13:50Z</time>
      </trkpt>
      <trkpt lat="44.9408" lon="0.83277">
        <ele>191</ele>
        <time>2025-05-10T09:13:51Z</time>
      </trkpt>
      <trkpt lat="44.94082" lon="0.83275">
        <ele>191.2</ele>
        <time>2025-05-10T09:13:52Z</time>
      </trkpt>
      <trkpt lat="44.94085" lon="0.83272">
        <ele>191.2</ele>
        <time>2025-05-10T09:13:53Z</time>
      </trkpt>
      <trkpt lat="44.94087" lon="0.83269">
        <ele>191.4</ele>
        <time>2025-05-10T09:13:54Z</time>
      </trkpt>
      <trkpt lat="44.9409" lon="0.83266">
        <ele>191.8</ele>
        <time>2025-05-10T09:13:55Z</time>
      </trkpt>
      <trkpt lat="44.94093" lon="0.83263">
        <ele>191.8</ele>
        <time>2025-05-10T09:13:56Z</time>
      </trkpt>
      <trkpt lat="44.94096" lon="0.8326">
        <ele>192</ele>
        <time>2025-05-10T09:13:57Z</time>
      </trkpt>
      <trkpt lat="44.94099" lon="0.83258">
        <ele>192.2</ele>
        <time>2025-05-10T09:13:58Z</time>
      </trkpt>
      <trkpt lat="44.94102" lon="0.83255">
        <ele>192.2</ele>
        <time>2025-05-10T09:13:59Z</time>
      </trkpt>
      <trkpt lat="44.94105" lon="0.83252">
        <ele>192.4</ele>
        <time>2025-05-10T09:14:00Z</time>
      </trkpt>
      <trkpt lat="44.94108" lon="0.83249">
        <ele>192.4</ele>
        <time>2025-05-10T09:14:01Z</time>
      </trkpt>
      <trkpt lat="44.94111" lon="0.83246">
        <ele>192.4</ele>
        <time>2025-05-10T09:14:02Z</time>
      </trkpt>
      <trkpt lat="44.94114" lon="0.83244">
        <ele>192.6</ele>
        <time>2025-05-10T09:14:03Z</time>
      </trkpt>
      <trkpt lat="44.94117" lon="0.83241">
        <ele>192.6</ele>
        <time>2025-05-10T09:14:04Z</time>
      </trkpt>
      <trkpt lat="44.9412" lon="0.83238">
        <ele>192.6</ele>
        <time>2025-05-10T09:14:05Z</time>
      </trkpt>
      <trkpt lat="44.94124" lon="0.83236">
        <ele>192.6</ele>
        <time>2025-05-10T09:14:06Z</time>
      </trkpt>
      <trkpt lat="44.94127" lon="0.83232">
        <ele>192.6</ele>
        <time>2025-05-10T09:14:07Z</time>
      </trkpt>
      <trkpt lat="44.9413" lon="0.8323">
        <ele>192.6</ele>
        <time>2025-05-10T09:14:08Z</time>
      </trkpt>
      <trkpt lat="44.94134" lon="0.83228">
        <ele>192.8</ele>
        <time>2025-05-10T09:14:09Z</time>
      </trkpt>
      <trkpt lat="44.94137" lon="0.83225">
        <ele>192.8</ele>
        <time>2025-05-10T09:14:10Z</time>
      </trkpt>
      <trkpt lat="44.94141" lon="0.83223">
        <ele>193</ele>
        <time>2025-05-10T09:14:11Z</time>
      </trkpt>
      <trkpt lat="44.94144" lon="0.8322">
        <ele>193.2</ele>
        <time>2025-05-10T09:14:12Z</time>
      </trkpt>
      <trkpt lat="44.94148" lon="0.83218">
        <ele>193.4</ele>
        <time>2025-05-10T09:14:13Z</time>
      </trkpt>
      <trkpt lat="44.94152" lon="0.83216">
        <ele>193.4</ele>
        <time>2025-05-10T09:14:14Z</time>
      </trkpt>
      <trkpt lat="44.94155" lon="0.83213">
        <ele>193.4</ele>
        <time>2025-05-10T09:14:15Z</time>
      </trkpt>
      <trkpt lat="44.94159" lon="0.83211">
        <ele>193.6</ele>
        <time>2025-05-10T09:14:16Z</time>
      </trkpt>
      <trkpt lat="44.94162" lon="0.83209">
        <ele>194</ele>
        <time>2025-05-10T09:14:17Z</time>
      </trkpt>
      <trkpt lat="44.94166" lon="0.83207">
        <ele>194</ele>
        <time>2025-05-10T09:14:18Z</time>
      </trkpt>
      <trkpt lat="44.9417" lon="0.83206">
        <ele>194</ele>
        <time>2025-05-10T09:14:19Z</time>
      </trkpt>
      <trkpt lat="44.94173" lon="0.83204">
        <ele>194.2</ele>
        <time>2025-05-10T09:14:20Z</time>
      </trkpt>
      <trkpt lat="44.94177" lon="0.83201">
        <ele>194.2</ele>
        <time>2025-05-10T09:14:21Z</time>
      </trkpt>
      <trkpt lat="44.94181" lon="0.83199">
        <ele>194.2</ele>
        <time>2025-05-10T09:14:22Z</time>
      </trkpt>
      <trkpt lat="44.94185" lon="0.83196">
        <ele>194.4</ele>
        <time>2025-05-10T09:14:23Z</time>
      </trkpt>
      <trkpt lat="44.94189" lon="0.83193">
        <ele>194.4</ele>
        <time>2025-05-10T09:14:24Z</time>
      </trkpt>
      <trkpt lat="44.94193" lon="0.83191">
        <ele>194.4</ele>
        <time>2025-05-10T09:14:25Z</time>
      </trkpt>
      <trkpt lat="44.94196" lon="0.83188">
        <ele>194.4</ele>
        <time>2025-05-10T09:14:26Z</time>
      </trkpt>
      <trkpt lat="44.942" lon="0.83186">
        <ele>194.4</ele>
        <time>2025-05-10T09:14:27Z</time>
      </trkpt>
      <trkpt lat="44.94204" lon="0.83183">
        <ele>194.6</ele>
        <time>2025-05-10T09:14:28Z</time>
      </trkpt>
      <trkpt lat="44.94207" lon="0.8318">
        <ele>194.6</ele>
        <time>2025-05-10T09:14:29Z</time>
      </trkpt>
      <trkpt lat="44.94211" lon="0.83177">
        <ele>194.6</ele>
        <time>2025-05-10T09:14:30Z</time>
      </trkpt>
      <trkpt lat="44.94214" lon="0.83173">
        <ele>194.8</ele>
        <time>2025-05-10T09:14:31Z</time>
      </trkpt>
      <trkpt lat="44.94218" lon="0.8317">
        <ele>194.8</ele>
        <time>2025-05-10T09:14:32Z</time>
      </trkpt>
      <trkpt lat="44.94221" lon="0.83167">
        <ele>195</ele>
        <time>2025-05-10T09:14:33Z</time>
      </trkpt>
      <trkpt lat="44.94224" lon="0.83164">
        <ele>195</ele>
        <time>2025-05-10T09:14:34Z</time>
      </trkpt>
      <trkpt lat="44.94228" lon="0.83161">
        <ele>195</ele>
        <time>2025-05-10T09:14:35Z</time>
      </trkpt>
      <trkpt lat="44.94232" lon="0.83158">
        <ele>195</ele>
        <time>2025-05-10T09:14:36Z</time>
      </trkpt>
      <trkpt lat="44.94235" lon="0.83155">
        <ele>195</ele>
        <time>2025-05-10T09:14:37Z</time>
      </trkpt>
      <trkpt lat="44.94239" lon="0.83152">
        <ele>195.2</ele>
        <time>2025-05-10T09:14:38Z</time>
      </trkpt>
      <trkpt lat="44.94242" lon="0.83149">
        <ele>195.2</ele>
        <time>2025-05-10T09:14:39Z</time>
      </trkpt>
      <trkpt lat="44.94245" lon="0.83146">
        <ele>195.4</ele>
        <time>2025-05-10T09:14:40Z</time>
      </trkpt>
      <trkpt lat="44.94249" lon="0.83142">
        <ele>195.6</ele>
        <time>2025-05-10T09:14:41Z</time>
      </trkpt>
      <trkpt lat="44.94253" lon="0.83138">
        <ele>195.6</ele>
        <time>2025-05-10T09:14:42Z</time>
      </trkpt>
      <trkpt lat="44.94257" lon="0.83134">
        <ele>195.6</ele>
        <time>2025-05-10T09:14:43Z</time>
      </trkpt>
      <trkpt lat="44.9426" lon="0.83131">
        <ele>195.8</ele>
        <time>2025-05-10T09:14:44Z</time>
      </trkpt>
      <trkpt lat="44.94264" lon="0.83128">
        <ele>195.8</ele>
        <time>2025-05-10T09:14:45Z</time>
      </trkpt>
      <trkpt lat="44.94268" lon="0.83125">
        <ele>195.8</ele>
        <time>2025-05-10T09:14:46Z</time>
      </trkpt>
      <trkpt lat="44.94272" lon="0.83121">
        <ele>196</ele>
        <time>2025-05-10T09:14:47Z</time>
      </trkpt>
      <trkpt lat="44.94275" lon="0.83118">
        <ele>196</ele>
        <time>2025-05-10T09:14:48Z</time>
      </trkpt>
      <trkpt lat="44.94278" lon="0.83114">
        <ele>196.4</ele>
        <time>2025-05-10T09:14:49Z</time>
      </trkpt>
      <trkpt lat="44.9428" lon="0.8311">
        <ele>196.6</ele>
        <time>2025-05-10T09:14:50Z</time>
      </trkpt>
      <trkpt lat="44.94281" lon="0.83106">
        <ele>196.8</ele>
        <time>2025-05-10T09:14:51Z</time>
      </trkpt>
      <trkpt lat="44.94283" lon="0.83103">
        <ele>197.2</ele>
        <time>2025-05-10T09:14:52Z</time>
      </trkpt>
      <trkpt lat="44.94284" lon="0.831">
        <ele>197.6</ele>
        <time>2025-05-10T09:14:53Z</time>
      </trkpt>
      <trkpt lat="44.94284" lon="0.83097">
        <ele>198</ele>
        <time>2025-05-10T09:14:54Z</time>
      </trkpt>
      <trkpt lat="44.94285" lon="0.83094">
        <ele>198.4</ele>
        <time>2025-05-10T09:14:55Z</time>
      </trkpt>
      <trkpt lat="44.94286" lon="0.83091">
        <ele>198.6</ele>
        <time>2025-05-10T09:14:56Z</time>
      </trkpt>
      <trkpt lat="44.94287" lon="0.83088">
        <ele>198.8</ele>
        <time>2025-05-10T09:14:57Z</time>
      </trkpt>
      <trkpt lat="44.94287" lon="0.83084">
        <ele>199.4</ele>
        <time>2025-05-10T09:14:58Z</time>
      </trkpt>
      <trkpt lat="44.94288" lon="0.83081">
        <ele>199.6</ele>
        <time>2025-05-10T09:14:59Z</time>
      </trkpt>
      <trkpt lat="44.94288" lon="0.83078">
        <ele>199.6</ele>
        <time>2025-05-10T09:15:00Z</time>
      </trkpt>
      <trkpt lat="44.94288" lon="0.83075">
        <ele>199.8</ele>
        <time>2025-05-10T09:15:01Z</time>
      </trkpt>
      <trkpt lat="44.94289" lon="0.83071">
        <ele>200</ele>
        <time>2025-05-10T09:15:02Z</time>
      </trkpt>
      <trkpt lat="44.94289" lon="0.83068">
        <ele>200.4</ele>
        <time>2025-05-10T09:15:03Z</time>
      </trkpt>
      <trkpt lat="44.94289" lon="0.83064">
        <ele>200.4</ele>
        <time>2025-05-10T09:15:04Z</time>
      </trkpt>
      <trkpt lat="44.94289" lon="0.83062">
        <ele>200.6</ele>
        <time>2025-05-10T09:15:05Z</time>
      </trkpt>
      <trkpt lat="44.94289" lon="0.83059">
        <ele>200.8</ele>
        <time>2025-05-10T09:15:06Z</time>
      </trkpt>
      <trkpt lat="44.94288" lon="0.83056">
        <ele>201</ele>
        <time>2025-05-10T09:15:07Z</time>
      </trkpt>
      <trkpt lat="44.94287" lon="0.83052">
        <ele>201</ele>
        <time>2025-05-10T09:15:08Z</time>
      </trkpt>
      <trkpt lat="44.94287" lon="0.83048">
        <ele>201.4</ele>
        <time>2025-05-10T09:15:09Z</time>
      </trkpt>
      <trkpt lat="44.94288" lon="0.83044">
        <ele>201.6</ele>
        <time>2025-05-10T09:15:10Z</time>
      </trkpt>
      <trkpt lat="44.94288" lon="0.83041">
        <ele>201.8</ele>
        <time>2025-05-10T09:15:11Z</time>
      </trkpt>
      <trkpt lat="44.94289" lon="0.83038">
        <ele>202</ele>
        <time>2025-05-10T09:15:12Z</time>
      </trkpt>
      <trkpt lat="44.94289" lon="0.83035">
        <ele>202</ele>
        <time>2025-05-10T09:15:13Z</time>
      </trkpt>
      <trkpt lat="44.9429" lon="0.83032">
        <ele>202.2</ele>
        <time>2025-05-10T09:15:14Z</time>
      </trkpt>
      <trkpt lat="44.9429" lon="0.8303">
        <ele>202.6</ele>
        <time>2025-05-10T09:15:15Z</time>
      </trkpt>
      <trkpt lat="44.94291" lon="0.83027">
        <ele>202.8</ele>
        <time>2025-05-10T09:15:16Z</time>
      </trkpt>
      <trkpt lat="44.94291" lon="0.83024">
        <ele>203.6</ele>
        <time>2025-05-10T09:15:17Z</time>
      </trkpt>
      <trkpt lat="44.94292" lon="0.83021">
        <ele>203.6</ele>
        <time>2025-05-10T09:15:18Z</time>
      </trkpt>
      <trkpt lat="44.94293" lon="0.83018">
        <ele>203.6</ele>
        <time>2025-05-10T09:15:19Z</time>
      </trkpt>
      <trkpt lat="44.94293" lon="0.83015">
        <ele>203.8</ele>
        <time>2025-05-10T09:15:20Z</time>
      </trkpt>
      <trkpt lat="44.94294" lon="0.83012">
        <ele>203.8</ele>
        <time>2025-05-10T09:15:21Z</time>
      </trkpt>
      <trkpt lat="44.94294" lon="0.83008">
        <ele>204</ele>
        <time>2025-05-10T09:15:22Z</time>
      </trkpt>
      <trkpt lat="44.94294" lon="0.83005">
        <ele>204</ele>
        <time>2025-05-10T09:15:23Z</time>
      </trkpt>
      <trkpt lat="44.94295" lon="0.83002">
        <ele>204.2</ele>
        <time>2025-05-10T09:15:24Z</time>
      </trkpt>
      <trkpt lat="44.94296" lon="0.82999">
        <ele>204.4</ele>
        <time>2025-05-10T09:15:25Z</time>
      </trkpt>
      <trkpt lat="44.94296" lon="0.82996">
        <ele>204.4</ele>
        <time>2025-05-10T09:15:26Z</time>
      </trkpt>
      <trkpt lat="44.94296" lon="0.82994">
        <ele>204.6</ele>
        <time>2025-05-10T09:15:27Z</time>
      </trkpt>
      <trkpt lat="44.94297" lon="0.82991">
        <ele>205</ele>
        <time>2025-05-10T09:15:28Z</time>
      </trkpt>
      <trkpt lat="44.94297" lon="0.82987">
        <ele>205</ele>
        <time>2025-05-10T09:15:29Z</time>
      </trkpt>
      <trkpt lat="44.94298" lon="0.82984">
        <ele>205.2</ele>
        <time>2025-05-10T09:15:30Z</time>
      </trkpt>
      <trkpt lat="44.94298" lon="0.82981">
        <ele>205.4</ele>
        <time>2025-05-10T09:15:31Z</time>
      </trkpt>
      <trkpt lat="44.94297" lon="0.82978">
        <ele>205.8</ele>
        <time>2025-05-10T09:15:32Z</time>
      </trkpt>
      <trkpt lat="44.94297" lon="0.82975">
        <ele>206</ele>
        <time>2025-05-10T09:15:33Z</time>
      </trkpt>
      <trkpt lat="44.94297" lon="0.82973">
        <ele>206.2</ele>
        <time>2025-05-10T09:15:34Z</time>
      </trkpt>
      <trkpt lat="44.94297" lon="0.8297">
        <ele>206.2</ele>
        <time>2025-05-10T09:15:35Z</time>
      </trkpt>
      <trkpt lat="44.94298" lon="0.82967">
        <ele>206.6</ele>
        <time>2025-05-10T09:15:36Z</time>
      </trkpt>
      <trkpt lat="44.94298" lon="0.82965">
        <ele>206.8</ele>
        <time>2025-05-10T09:15:37Z</time>
      </trkpt>
      <trkpt lat="44.94297" lon="0.82962">
        <ele>207</ele>
        <time>2025-05-10T09:15:38Z</time>
      </trkpt>
      <trkpt lat="44.94297" lon="0.82959">
        <ele>207.2</ele>
        <time>2025-05-10T09:15:39Z</time>
      </trkpt>
      <trkpt lat="44.94297" lon="0.82957">
        <ele>207.4</ele>
        <time>2025-05-10T09:15:40Z</time>
      </trkpt>
      <trkpt lat="44.94297" lon="0.82954">
        <ele>207.4</ele>
        <time>2025-05-10T09:15:41Z</time>
      </trkpt>
      <trkpt lat="44.94297" lon="0.82952">
        <ele>207.8</ele>
        <time>2025-05-10T09:15:42Z</time>
      </trkpt>
      <trkpt lat="44.94296" lon="0.82949">
        <ele>208</ele>
        <time>2025-05-10T09:15:43Z</time>
      </trkpt>
      <trkpt lat="44.94296" lon="0.82946">
        <ele>208.2</ele>
        <time>2025-05-10T09:15:44Z</time>
      </trkpt>
      <trkpt lat="44.94296" lon="0.82943">
        <ele>208.4</ele>
        <time>2025-05-10T09:15:45Z</time>
      </trkpt>
      <trkpt lat="44.94296" lon="0.8294">
        <ele>208.8</ele>
        <time>2025-05-10T09:15:46Z</time>
      </trkpt>
      <trkpt lat="44.94296" lon="0.82937">
        <ele>208.8</ele>
        <time>2025-05-10T09:15:47Z</time>
      </trkpt>
      <trkpt lat="44.94295" lon="0.82934">
        <ele>209</ele>
        <time>2025-05-10T09:15:48Z</time>
      </trkpt>
      <trkpt lat="44.94295" lon="0.82931">
        <ele>209.2</ele>
        <time>2025-05-10T09:15:49Z</time>
      </trkpt>
      <trkpt lat="44.94295" lon="0.82928">
        <ele>209.6</ele>
        <time>2025-05-10T09:15:50Z</time>
      </trkpt>
      <trkpt lat="44.94295" lon="0.82926">
        <ele>209.6</ele>
        <time>2025-05-10T09:15:51Z</time>
      </trkpt>
      <trkpt lat="44.94294" lon="0.82924">
        <ele>209.8</ele>
        <time>2025-05-10T09:15:52Z</time>
      </trkpt>
      <trkpt lat="44.94293" lon="0.82921">
        <ele>210</ele>
        <time>2025-05-10T09:15:53Z</time>
      </trkpt>
      <trkpt lat="44.94293" lon="0.82919">
        <ele>210</ele>
        <time>2025-05-10T09:15:54Z</time>
      </trkpt>
      <trkpt lat="44.94293" lon="0.82916">
        <ele>210.4</ele>
        <time>2025-05-10T09:15:55Z</time>
      </trkpt>
      <trkpt lat="44.94293" lon="0.82913">
        <ele>210.4</ele>
        <time>2025-05-10T09:15:56Z</time>
      </trkpt>
      <trkpt lat="44.94292" lon="0.8291">
        <ele>210.6</ele>
        <time>2025-05-10T09:15:57Z</time>
      </trkpt>
      <trkpt lat="44.94291" lon="0.82908">
        <ele>210.8</ele>
        <time>2025-05-10T09:15:58Z</time>
      </trkpt>
      <trkpt lat="44.94291" lon="0.82905">
        <ele>210.8</ele>
        <time>2025-05-10T09:15:59Z</time>
      </trkpt>
      <trkpt lat="44.9429" lon="0.82903">
        <ele>210.8</ele>
        <time>2025-05-10T09:16:00Z</time>
      </trkpt>
      <trkpt lat="44.9429" lon="0.82901">
        <ele>211</ele>
        <time>2025-05-10T09:16:01Z</time>
      </trkpt>
      <trkpt lat="44.94289" lon="0.82898">
        <ele>211</ele>
        <time>2025-05-10T09:16:02Z</time>
      </trkpt>
      <trkpt lat="44.94288" lon="0.82895">
        <ele>211.2</ele>
        <time>2025-05-10T09:16:03Z</time>
      </trkpt>
      <trkpt lat="44.94288" lon="0.82893">
        <ele>211.4</ele>
        <time>2025-05-10T09:16:04Z</time>
      </trkpt>
      <trkpt lat="44.94288" lon="0.8289">
        <ele>211.8</ele>
        <time>2025-05-10T09:16:05Z</time>
      </trkpt>
      <trkpt lat="44.94287" lon="0.82887">
        <ele>212</ele>
        <time>2025-05-10T09:16:06Z</time>
      </trkpt>
      <trkpt lat="44.94286" lon="0.82884">
        <ele>212</ele>
        <time>2025-05-10T09:16:07Z</time>
      </trkpt>
      <trkpt lat="44.94285" lon="0.82881">
        <ele>212.4</ele>
        <time>2025-05-10T09:16:08Z</time>
      </trkpt>
      <trkpt lat="44.94284" lon="0.82878">
        <ele>212.6</ele>
        <time>2025-05-10T09:16:09Z</time>
      </trkpt>
      <trkpt lat="44.94284" lon="0.82875">
        <ele>212.8</ele>
        <time>2025-05-10T09:16:10Z</time>
      </trkpt>
      <trkpt lat="44.94283" lon="0.82873">
        <ele>213</ele>
        <time>2025-05-10T09:16:11Z</time>
      </trkpt>
      <trkpt lat="44.94282" lon="0.82871">
        <ele>213.2</ele>
        <time>2025-05-10T09:16:12Z</time>
      </trkpt>
      <trkpt lat="44.94281" lon="0.82868">
        <ele>213.4</ele>
        <time>2025-05-10T09:16:13Z</time>
      </trkpt>
      <trkpt lat="44.94281" lon="0.82866">
        <ele>213.4</ele>
        <time>2025-05-10T09:16:14Z</time>
      </trkpt>
      <trkpt lat="44.9428" lon="0.82863">
        <ele>213.6</ele>
        <time>2025-05-10T09:16:15Z</time>
      </trkpt>
      <trkpt lat="44.94279" lon="0.8286">
        <ele>213.8</ele>
        <time>2025-05-10T09:16:16Z</time>
      </trkpt>
      <trkpt lat="44.94279" lon="0.82857">
        <ele>213.8</ele>
        <time>2025-05-10T09:16:17Z</time>
      </trkpt>
      <trkpt lat="44.94278" lon="0.82854">
        <ele>214</ele>
        <time>2025-05-10T09:16:18Z</time>
      </trkpt>
      <trkpt lat="44.94277" lon="0.82851">
        <ele>214</ele>
        <time>2025-05-10T09:16:19Z</time>
      </trkpt>
      <trkpt lat="44.94275" lon="0.82847">
        <ele>214</ele>
        <time>2025-05-10T09:16:20Z</time>
      </trkpt>
      <trkpt lat="44.94274" lon="0.82844">
        <ele>214</ele>
        <time>2025-05-10T09:16:21Z</time>
      </trkpt>
      <trkpt lat="44.94275" lon="0.8284">
        <ele>214</ele>
        <time>2025-05-10T09:16:22Z</time>
      </trkpt>
      <trkpt lat="44.94274" lon="0.82836">
        <ele>214</ele>
        <time>2025-05-10T09:16:23Z</time>
      </trkpt>
      <trkpt lat="44.94274" lon="0.82832">
        <ele>214.2</ele>
        <time>2025-05-10T09:16:24Z</time>
      </trkpt>
      <trkpt lat="44.94273" lon="0.82828">
        <ele>214.2</ele>
        <time>2025-05-10T09:16:25Z</time>
      </trkpt>
      <trkpt lat="44.94273" lon="0.82823">
        <ele>214.2</ele>
        <time>2025-05-10T09:16:26Z</time>
      </trkpt>
      <trkpt lat="44.94273" lon="0.82819">
        <ele>214.2</ele>
        <time>2025-05-10T09:16:27Z</time>
      </trkpt>
      <trkpt lat="44.94273" lon="0.82815">
        <ele>214.4</ele>
        <time>2025-05-10T09:16:28Z</time>
      </trkpt>
      <trkpt lat="44.94273" lon="0.82811">
        <ele>214.4</ele>
        <time>2025-05-10T09:16:29Z</time>
      </trkpt>
      <trkpt lat="44.94273" lon="0.82807">
        <ele>214.4</ele>
        <time>2025-05-10T09:16:30Z</time>
      </trkpt>
      <trkpt lat="44.94273" lon="0.82804">
        <ele>214.6</ele>
        <time>2025-05-10T09:16:31Z</time>
      </trkpt>
      <trkpt lat="44.94273" lon="0.828">
        <ele>214.6</ele>
        <time>2025-05-10T09:16:32Z</time>
      </trkpt>
      <trkpt lat="44.94273" lon="0.82795">
        <ele>214.8</ele>
        <time>2025-05-10T09:16:33Z</time>
      </trkpt>
      <trkpt lat="44.94272" lon="0.82791">
        <ele>215</ele>
        <time>2025-05-10T09:16:34Z</time>
      </trkpt>
      <trkpt lat="44.94272" lon="0.82787">
        <ele>215.2</ele>
        <time>2025-05-10T09:16:35Z</time>
      </trkpt>
      <trkpt lat="44.94271" lon="0.82783">
        <ele>215.2</ele>
        <time>2025-05-10T09:16:36Z</time>
      </trkpt>
      <trkpt lat="44.9427" lon="0.82779">
        <ele>215.4</ele>
        <time>2025-05-10T09:16:37Z</time>
      </trkpt>
      <trkpt lat="44.9427" lon="0.82775">
        <ele>215.4</ele>
        <time>2025-05-10T09:16:38Z</time>
      </trkpt>
      <trkpt lat="44.9427" lon="0.82771">
        <ele>215.6</ele>
        <time>2025-05-10T09:16:39Z</time>
      </trkpt>
      <trkpt lat="44.9427" lon="0.82766">
        <ele>215.8</ele>
        <time>2025-05-10T09:16:40Z</time>
      </trkpt>
      <trkpt lat="44.94269" lon="0.82762">
        <ele>215.8</ele>
        <time>2025-05-10T09:16:41Z</time>
      </trkpt>
      <trkpt lat="44.94269" lon="0.82757">
        <ele>215.8</ele>
        <time>2025-05-10T09:16:42Z</time>
      </trkpt>
      <trkpt lat="44.94269" lon="0.82753">
        <ele>216</ele>
        <time>2025-05-10T09:16:43Z</time>
      </trkpt>
      <trkpt lat="44.94269" lon="0.82748">
        <ele>216</ele>
        <time>2025-05-10T09:16:44Z</time>
      </trkpt>
      <trkpt lat="44.94269" lon="0.82742">
        <ele>216</ele>
        <time>2025-05-10T09:16:45Z</time>
      </trkpt>
      <trkpt lat="44.9427" lon="0.82737">
        <ele>215.8</ele>
        <time>2025-05-10T09:16:46Z</time>
      </trkpt>
      <trkpt lat="44.9427" lon="0.8273">
        <ele>215.8</ele>
        <time>2025-05-10T09:16:47Z</time>
      </trkpt>
      <trkpt lat="44.9427" lon="0.82723">
        <ele>215.8</ele>
        <time>2025-05-10T09:16:48Z</time>
      </trkpt>
      <trkpt lat="44.9427" lon="0.82715">
        <ele>215.4</ele>
        <time>2025-05-10T09:16:49Z</time>
      </trkpt>
      <trkpt lat="44.9427" lon="0.82708">
        <ele>215.2</ele>
        <time>2025-05-10T09:16:50Z</time>
      </trkpt>
      <trkpt lat="44.94271" lon="0.82699">
        <ele>215</ele>
        <time>2025-05-10T09:16:51Z</time>
      </trkpt>
      <trkpt lat="44.94271" lon="0.8269">
        <ele>214.8</ele>
        <time>2025-05-10T09:16:52Z</time>
      </trkpt>
      <trkpt lat="44.94271" lon="0.82682">
        <ele>214.2</ele>
        <time>2025-05-10T09:16:53Z</time>
      </trkpt>
      <trkpt lat="44.9427" lon="0.82673">
        <ele>214</ele>
        <time>2025-05-10T09:16:54Z</time>
      </trkpt>
      <trkpt lat="44.94269" lon="0.82664">
        <ele>213.2</ele>
        <time>2025-05-10T09:16:55Z</time>
      </trkpt>
      <trkpt lat="44.94266" lon="0.82655">
        <ele>212.6</ele>
        <time>2025-05-10T09:16:56Z</time>
      </trkpt>
      <trkpt lat="44.94265" lon="0.82645">
        <ele>212.2</ele>
        <time>2025-05-10T09:16:57Z</time>
      </trkpt>
      <trkpt lat="44.94266" lon="0.82633">
        <ele>211.6</ele>
        <time>2025-05-10T09:16:58Z</time>
      </trkpt>
      <trkpt lat="44.94266" lon="0.82622">
        <ele>210.6</ele>
        <time>2025-05-10T09:16:59Z</time>
      </trkpt>
      <trkpt lat="44.94266" lon="0.82613">
        <ele>209.4</ele>
        <time>2025-05-10T09:17:00Z</time>
      </trkpt>
      <trkpt lat="44.94265" lon="0.82605">
        <ele>207.8</ele>
        <time>2025-05-10T09:17:01Z</time>
      </trkpt>
      <trkpt lat="44.94263" lon="0.82599">
        <ele>207.6</ele>
        <time>2025-05-10T09:17:02Z</time>
      </trkpt>
      <trkpt lat="44.94262" lon="0.82592">
        <ele>207.6</ele>
        <time>2025-05-10T09:17:03Z</time>
      </trkpt>
      <trkpt lat="44.9426" lon="0.82587">
        <ele>207.6</ele>
        <time>2025-05-10T09:17:04Z</time>
      </trkpt>
      <trkpt lat="44.94258" lon="0.82582">
        <ele>207.6</ele>
        <time>2025-05-10T09:17:05Z</time>
      </trkpt>
      <trkpt lat="44.94256" lon="0.82576">
        <ele>207.8</ele>
        <time>2025-05-10T09:17:06Z</time>
      </trkpt>
      <trkpt lat="44.94254" lon="0.8257">
        <ele>207.8</ele>
        <time>2025-05-10T09:17:07Z</time>
      </trkpt>
      <trkpt lat="44.94251" lon="0.82565">
        <ele>208</ele>
        <time>2025-05-10T09:17:08Z</time>
      </trkpt>
      <trkpt lat="44.9425" lon="0.82559">
        <ele>208</ele>
        <time>2025-05-10T09:17:09Z</time>
      </trkpt>
      <trkpt lat="44.94247" lon="0.82554">
        <ele>208.2</ele>
        <time>2025-05-10T09:17:10Z</time>
      </trkpt>
      <trkpt lat="44.94246" lon="0.82549">
        <ele>208.2</ele>
        <time>2025-05-10T09:17:11Z</time>
      </trkpt>
      <trkpt lat="44.94244" lon="0.82543">
        <ele>208.4</ele>
        <time>2025-05-10T09:17:12Z</time>
      </trkpt>
      <trkpt lat="44.94242" lon="0.82538">
        <ele>208.6</ele>
        <time>2025-05-10T09:17:13Z</time>
      </trkpt>
      <trkpt lat="44.94241" lon="0.82534">
        <ele>208.8</ele>
        <time>2025-05-10T09:17:14Z</time>
      </trkpt>
      <trkpt lat="44.9424" lon="0.82529">
        <ele>208.8</ele>
        <time>2025-05-10T09:17:15Z</time>
      </trkpt>
      <trkpt lat="44.94238" lon="0.82525">
        <ele>209.2</ele>
        <time>2025-05-10T09:17:16Z</time>
      </trkpt>
      <trkpt lat="44.94236" lon="0.8252">
        <ele>209.4</ele>
        <time>2025-05-10T09:17:17Z</time>
      </trkpt>
      <trkpt lat="44.94233" lon="0.82516">
        <ele>209.8</ele>
        <time>2025-05-10T09:17:18Z</time>
      </trkpt>
      <trkpt lat="44.94229" lon="0.82515">
        <ele>210.2</ele>
        <time>2025-05-10T09:17:19Z</time>
      </trkpt>
      <trkpt lat="44.94225" lon="0.82516">
        <ele>210.4</ele>
        <time>2025-05-10T09:17:20Z</time>
      </trkpt>
      <trkpt lat="44.94222" lon="0.82517">
        <ele>210.4</ele>
        <time>2025-05-10T09:17:21Z</time>
      </trkpt>
      <trkpt lat="44.9422" lon="0.82519">
        <ele>210.6</ele>
        <time>2025-05-10T09:17:22Z</time>
      </trkpt>
      <trkpt lat="44.94218" lon="0.82522">
        <ele>211</ele>
        <time>2025-05-10T09:17:23Z</time>
      </trkpt>
      <trkpt lat="44.94215" lon="0.82524">
        <ele>211</ele>
        <time>2025-05-10T09:17:24Z</time>
      </trkpt>
      <trkpt lat="44.94212" lon="0.82525">
        <ele>211.4</ele>
        <time>2025-05-10T09:17:25Z</time>
      </trkpt>
      <trkpt lat="44.94209" lon="0.82527">
        <ele>211.4</ele>
        <time>2025-05-10T09:17:26Z</time>
      </trkpt>
      <trkpt lat="44.94206" lon="0.8253">
        <ele>211.4</ele>
        <time>2025-05-10T09:17:27Z</time>
      </trkpt>
      <trkpt lat="44.94204" lon="0.82534">
        <ele>211.4</ele>
        <time>2025-05-10T09:17:28Z</time>
      </trkpt>
      <trkpt lat="44.94201" lon="0.82537">
        <ele>211.4</ele>
        <time>2025-05-10T09:17:29Z</time>
      </trkpt>
      <trkpt lat="44.94198" lon="0.82542">
        <ele>211.4</ele>
        <time>2025-05-10T09:17:30Z</time>
      </trkpt>
      <trkpt lat="44.94195" lon="0.82546">
        <ele>211.4</ele>
        <time>2025-05-10T09:17:31Z</time>
      </trkpt>
      <trkpt lat="44.94192" lon="0.8255">
        <ele>211.4</ele>
        <time>2025-05-10T09:17:32Z</time>
      </trkpt>
      <trkpt lat="44.9419" lon="0.82552">
        <ele>211.4</ele>
        <time>2025-05-10T09:17:33Z</time>
      </trkpt>
      <trkpt lat="44.94187" lon="0.82556">
        <ele>211.6</ele>
        <time>2025-05-10T09:17:34Z</time>
      </trkpt>
      <trkpt lat="44.94185" lon="0.8256">
        <ele>211.6</ele>
        <time>2025-05-10T09:17:35Z</time>
      </trkpt>
      <trkpt lat="44.94183" lon="0.82564">
        <ele>211.6</ele>
        <time>2025-05-10T09:17:36Z</time>
      </trkpt>
      <trkpt lat="44.9418" lon="0.82568">
        <ele>211.8</ele>
        <time>2025-05-10T09:17:37Z</time>
      </trkpt>
      <trkpt lat="44.94177" lon="0.82572">
        <ele>211.8</ele>
        <time>2025-05-10T09:17:38Z</time>
      </trkpt>
      <trkpt lat="44.94175" lon="0.82576">
        <ele>212</ele>
        <time>2025-05-10T09:17:39Z</time>
      </trkpt>
      <trkpt lat="44.94172" lon="0.82579">
        <ele>212</ele>
        <time>2025-05-10T09:17:40Z</time>
      </trkpt>
      <trkpt lat="44.9417" lon="0.82582">
        <ele>212.4</ele>
        <time>2025-05-10T09:17:41Z</time>
      </trkpt>
      <trkpt lat="44.94168" lon="0.82585">
        <ele>212.6</ele>
        <time>2025-05-10T09:17:42Z</time>
      </trkpt>
      <trkpt lat="44.94167" lon="0.82588">
        <ele>212.8</ele>
        <time>2025-05-10T09:17:43Z</time>
      </trkpt>
      <trkpt lat="44.94165" lon="0.8259">
        <ele>213</ele>
        <time>2025-05-10T09:17:44Z</time>
      </trkpt>
      <trkpt lat="44.94163" lon="0.82594">
        <ele>213.4</ele>
        <time>2025-05-10T09:17:45Z</time>
      </trkpt>
      <trkpt lat="44.9416" lon="0.82597">
        <ele>213.8</ele>
        <time>2025-05-10T09:17:46Z</time>
      </trkpt>
      <trkpt lat="44.94158" lon="0.82601">
        <ele>214.2</ele>
        <time>2025-05-10T09:17:47Z</time>
      </trkpt>
      <trkpt lat="44.94156" lon="0.82603">
        <ele>214.2</ele>
        <time>2025-05-10T09:17:48Z</time>
      </trkpt>
      <trkpt lat="44.94154" lon="0.82607">
        <ele>214.4</ele>
        <time>2025-05-10T09:17:49Z</time>
      </trkpt>
      <trkpt lat="44.94151" lon="0.8261">
        <ele>214.6</ele>
        <time>2025-05-10T09:17:50Z</time>
      </trkpt>
      <trkpt lat="44.94149" lon="0.82612">
        <ele>214.8</ele>
        <time>2025-05-10T09:17:51Z</time>
      </trkpt>
      <trkpt lat="44.94146" lon="0.82614">
        <ele>214.8</ele>
        <time>2025-05-10T09:17:52Z</time>
      </trkpt>
      <trkpt lat="44.94144" lon="0.82617">
        <ele>215</ele>
        <time>2025-05-10T09:17:53Z</time>
      </trkpt>
      <trkpt lat="44.94143" lon="0.82619">
        <ele>215.2</ele>
        <time>2025-05-10T09:17:54Z</time>
      </trkpt>
      <trkpt lat="44.9414" lon="0.82622">
        <ele>215.2</ele>
        <time>2025-05-10T09:17:55Z</time>
      </trkpt>
      <trkpt lat="44.94138" lon="0.82625">
        <ele>215.6</ele>
        <time>2025-05-10T09:17:56Z</time>
      </trkpt>
      <trkpt lat="44.94135" lon="0.8263">
        <ele>215.6</ele>
        <time>2025-05-10T09:17:57Z</time>
      </trkpt>
      <trkpt lat="44.94132" lon="0.82635">
        <ele>215.8</ele>
        <time>2025-05-10T09:17:58Z</time>
      </trkpt>
      <trkpt lat="44.94129" lon="0.82639">
        <ele>215.8</ele>
        <time>2025-05-10T09:17:59Z</time>
      </trkpt>
      <trkpt lat="44.94127" lon="0.82643">
        <ele>215.8</ele>
        <time>2025-05-10T09:18:00Z</time>
      </trkpt>
      <trkpt lat="44.94125" lon="0.82648">
        <ele>215.8</ele>
        <time>2025-05-10T09:18:01Z</time>
      </trkpt>
      <trkpt lat="44.94123" lon="0.82651">
        <ele>215.6</ele>
        <time>2025-05-10T09:18:02Z</time>
      </trkpt>
      <trkpt lat="44.94121" lon="0.82655">
        <ele>215.6</ele>
        <time>2025-05-10T09:18:03Z</time>
      </trkpt>
      <trkpt lat="44.94119" lon="0.8266">
        <ele>215.8</ele>
        <time>2025-05-10T09:18:04Z</time>
      </trkpt>
      <trkpt lat="44.94116" lon="0.82664">
        <ele>215.6</ele>
        <time>2025-05-10T09:18:05Z</time>
      </trkpt>
      <trkpt lat="44.94113" lon="0.82669">
        <ele>215.6</ele>
        <time>2025-05-10T09:18:06Z</time>
      </trkpt>
      <trkpt lat="44.94111" lon="0.82672">
        <ele>215.8</ele>
        <time>2025-05-10T09:18:07Z</time>
      </trkpt>
      <trkpt lat="44.94108" lon="0.82676">
        <ele>215.8</ele>
        <time>2025-05-10T09:18:08Z</time>
      </trkpt>
      <trkpt lat="44.94105" lon="0.8268">
        <ele>215.8</ele>
        <time>2025-05-10T09:18:09Z</time>
      </trkpt>
      <trkpt lat="44.94102" lon="0.82686">
        <ele>215.8</ele>
        <time>2025-05-10T09:18:10Z</time>
      </trkpt>
      <trkpt lat="44.941" lon="0.82692">
        <ele>215.6</ele>
        <time>2025-05-10T09:18:11Z</time>
      </trkpt>
      <trkpt lat="44.94096" lon="0.82697">
        <ele>215.6</ele>
        <time>2025-05-10T09:18:12Z</time>
      </trkpt>
      <trkpt lat="44.94093" lon="0.82704">
        <ele>215.2</ele>
        <time>2025-05-10T09:18:13Z</time>
      </trkpt>
      <trkpt lat="44.94089" lon="0.8271">
        <ele>214.8</ele>
        <time>2025-05-10T09:18:14Z</time>
      </trkpt>
      <trkpt lat="44.94086" lon="0.82716">
        <ele>214.2</ele>
        <time>2025-05-10T09:18:15Z</time>
      </trkpt>
      <trkpt lat="44.94082" lon="0.82722">
        <ele>213.8</ele>
        <time>2025-05-10T09:18:16Z</time>
      </trkpt>
      <trkpt lat="44.94078" lon="0.82728">
        <ele>213.6</ele>
        <time>2025-05-10T09:18:17Z</time>
      </trkpt>
      <trkpt lat="44.94074" lon="0.82735">
        <ele>213.4</ele>
        <time>2025-05-10T09:18:18Z</time>
      </trkpt>
      <trkpt lat="44.9407" lon="0.82741">
        <ele>213</ele>
        <time>2025-05-10T09:18:19Z</time>
      </trkpt>
      <trkpt lat="44.94066" lon="0.82745">
        <ele>212.8</ele>
        <time>2025-05-10T09:18:20Z</time>
      </trkpt>
      <trkpt lat="44.94061" lon="0.82747">
        <ele>212.6</ele>
        <time>2025-05-10T09:18:21Z</time>
      </trkpt>
      <trkpt lat="44.94056" lon="0.82747">
        <ele>212.6</ele>
        <time>2025-05-10T09:18:22Z</time>
      </trkpt>
      <trkpt lat="44.94052" lon="0.82748">
        <ele>212.4</ele>
        <time>2025-05-10T09:18:23Z</time>
      </trkpt>
      <trkpt lat="44.9405" lon="0.82746">
        <ele>212.4</ele>
        <time>2025-05-10T09:18:24Z</time>
      </trkpt>
      <trkpt lat="44.94048" lon="0.82744">
        <ele>212.2</ele>
        <time>2025-05-10T09:18:25Z</time>
      </trkpt>
      <trkpt lat="44.94045" lon="0.82742">
        <ele>212</ele>
        <time>2025-05-10T09:18:26Z</time>
      </trkpt>
      <trkpt lat="44.94044" lon="0.82742">
        <ele>212</ele>
        <time>2025-05-10T09:18:27Z</time>
      </trkpt>
      <trkpt lat="44.94044" lon="0.82742">
        <ele>212</ele>
        <time>2025-05-10T09:18:28Z</time>
      </trkpt>
      <trkpt lat="44.94046" lon="0.82746">
        <ele>212</ele>
        <time>2025-05-10T09:20:37Z</time>
      </trkpt>
      <trkpt lat="44.94047" lon="0.82748">
        <ele>212.2</ele>
        <time>2025-05-10T09:20:38Z</time>
      </trkpt>
      <trkpt lat="44.94049" lon="0.82748">
        <ele>212.2</ele>
        <time>2025-05-10T09:20:39Z</time>
      </trkpt>
      <trkpt lat="44.94051" lon="0.82749">
        <ele>212.2</ele>
        <time>2025-05-10T09:20:40Z</time>
      </trkpt>
      <trkpt lat="44.94053" lon="0.82749">
        <ele>212.2</ele>
        <time>2025-05-10T09:20:41Z</time>
      </trkpt>
      <trkpt lat="44.94055" lon="0.8275">
        <ele>212.2</ele>
        <time>2025-05-10T09:20:42Z</time>
      </trkpt>
      <trkpt lat="44.94057" lon="0.82752">
        <ele>212.4</ele>
        <time>2025-05-10T09:20:43Z</time>
      </trkpt>
      <trkpt lat="44.94057" lon="0.82754">
        <ele>212.4</ele>
        <time>2025-05-10T09:20:44Z</time>
      </trkpt>
      <trkpt lat="44.94055" lon="0.82757">
        <ele>212.6</ele>
        <time>2025-05-10T09:20:45Z</time>
      </trkpt>
      <trkpt lat="44.94053" lon="0.82761">
        <ele>212.6</ele>
        <time>2025-05-10T09:20:46Z</time>
      </trkpt>
      <trkpt lat="44.94052" lon="0.82766">
        <ele>212.6</ele>
        <time>2025-05-10T09:20:47Z</time>
      </trkpt>
      <trkpt lat="44.94049" lon="0.82771">
        <ele>212.4</ele>
        <time>2025-05-10T09:20:48Z</time>
      </trkpt>
      <trkpt lat="44.94047" lon="0.82776">
        <ele>212.4</ele>
        <time>2025-05-10T09:20:49Z</time>
      </trkpt>
      <trkpt lat="44.94043" lon="0.82779">
        <ele>212.2</ele>
        <time>2025-05-10T09:20:50Z</time>
      </trkpt>
      <trkpt lat="44.94039" lon="0.82782">
        <ele>211.8</ele>
        <time>2025-05-10T09:20:51Z</time>
      </trkpt>
      <trkpt lat="44.94035" lon="0.82783">
        <ele>211.8</ele>
        <time>2025-05-10T09:20:52Z</time>
      </trkpt>
      <trkpt lat="44.94031" lon="0.82785">
        <ele>211.6</ele>
        <time>2025-05-10T09:20:53Z</time>
      </trkpt>
      <trkpt lat="44.94028" lon="0.82787">
        <ele>211.6</ele>
        <time>2025-05-10T09:20:54Z</time>
      </trkpt>
      <trkpt lat="44.94024" lon="0.82788">
        <ele>211.6</ele>
        <time>2025-05-10T09:20:55Z</time>
      </trkpt>
      <trkpt lat="44.9402" lon="0.82789">
        <ele>211.6</ele>
        <time>2025-05-10T09:20:56Z</time>
      </trkpt>
      <trkpt lat="44.94017" lon="0.8279">
        <ele>211.8</ele>
        <time>2025-05-10T09:20:57Z</time>
      </trkpt>
      <trkpt lat="44.94013" lon="0.8279">
        <ele>211.8</ele>
        <time>2025-05-10T09:20:58Z</time>
      </trkpt>
      <trkpt lat="44.94009" lon="0.8279">
        <ele>212.2</ele>
        <time>2025-05-10T09:20:59Z</time>
      </trkpt>
      <trkpt lat="44.94005" lon="0.8279">
        <ele>212.2</ele>
        <time>2025-05-10T09:21:00Z</time>
      </trkpt>
      <trkpt lat="44.94001" lon="0.8279">
        <ele>212.4</ele>
        <time>2025-05-10T09:21:01Z</time>
      </trkpt>
      <trkpt lat="44.93997" lon="0.8279">
        <ele>212.4</ele>
        <time>2025-05-10T09:21:02Z</time>
      </trkpt>
      <trkpt lat="44.93992" lon="0.82789">
        <ele>212.4</ele>
        <time>2025-05-10T09:21:03Z</time>
      </trkpt>
      <trkpt lat="44.93988" lon="0.8279">
        <ele>212.6</ele>
        <time>2025-05-10T09:21:04Z</time>
      </trkpt>
      <trkpt lat="44.93984" lon="0.8279">
        <ele>212.4</ele>
        <time>2025-05-10T09:21:05Z</time>
      </trkpt>
      <trkpt lat="44.93979" lon="0.8279">
        <ele>212.4</ele>
        <time>2025-05-10T09:21:06Z</time>
      </trkpt>
      <trkpt lat="44.93974" lon="0.8279">
        <ele>212.4</ele>
        <time>2025-05-10T09:21:07Z</time>
      </trkpt>
      <trkpt lat="44.93969" lon="0.8279">
        <ele>212.4</ele>
        <time>2025-05-10T09:21:08Z</time>
      </trkpt>
      <trkpt lat="44.93963" lon="0.8279">
        <ele>212.2</ele>
        <time>2025-05-10T09:21:09Z</time>
      </trkpt>
      <trkpt lat="44.93958" lon="0.8279">
        <ele>212</ele>
        <time>2025-05-10T09:21:10Z</time>
      </trkpt>
      <trkpt lat="44.93951" lon="0.82791">
        <ele>211.8</ele>
        <time>2025-05-10T09:21:11Z</time>
      </trkpt>
      <trkpt lat="44.93945" lon="0.82795">
        <ele>211.4</ele>
        <time>2025-05-10T09:21:12Z</time>
      </trkpt>
      <trkpt lat="44.9394" lon="0.82798">
        <ele>210.6</ele>
        <time>2025-05-10T09:21:13Z</time>
      </trkpt>
      <trkpt lat="44.93934" lon="0.82801">
        <ele>209.6</ele>
        <time>2025-05-10T09:21:14Z</time>
      </trkpt>
      <trkpt lat="44.93928" lon="0.82804">
        <ele>209.2</ele>
        <time>2025-05-10T09:21:15Z</time>
      </trkpt>
      <trkpt lat="44.93921" lon="0.82806">
        <ele>208.4</ele>
        <time>2025-05-10T09:21:16Z</time>
      </trkpt>
      <trkpt lat="44.93915" lon="0.82808">
        <ele>208.4</ele>
        <time>2025-05-10T09:21:17Z</time>
      </trkpt>
      <trkpt lat="44.93909" lon="0.8281">
        <ele>208.2</ele>
        <time>2025-05-10T09:21:18Z</time>
      </trkpt>
      <trkpt lat="44.93903" lon="0.82812">
        <ele>207.6</ele>
        <time>2025-05-10T09:21:19Z</time>
      </trkpt>
      <trkpt lat="44.93897" lon="0.82813">
        <ele>207.2</ele>
        <time>2025-05-10T09:21:20Z</time>
      </trkpt>
      <trkpt lat="44.93891" lon="0.82813">
        <ele>207</ele>
        <time>2025-05-10T09:21:21Z</time>
      </trkpt>
      <trkpt lat="44.93886" lon="0.82815">
        <ele>206.8</ele>
        <time>2025-05-10T09:21:22Z</time>
      </trkpt>
      <trkpt lat="44.9388" lon="0.82816">
        <ele>206.6</ele>
        <time>2025-05-10T09:21:23Z</time>
      </trkpt>
      <trkpt lat="44.93875" lon="0.82819">
        <ele>206.4</ele>
        <time>2025-05-10T09:21:24Z</time>
      </trkpt>
      <trkpt lat="44.9387" lon="0.82821">
        <ele>206.2</ele>
        <time>2025-05-10T09:21:25Z</time>
      </trkpt>
      <trkpt lat="44.93865" lon="0.82824">
        <ele>206</ele>
        <time>2025-05-10T09:21:26Z</time>
      </trkpt>
      <trkpt lat="44.93859" lon="0.82825">
        <ele>205.8</ele>
        <time>2025-05-10T09:21:27Z</time>
      </trkpt>
      <trkpt lat="44.93853" lon="0.82823">
        <ele>205.8</ele>
        <time>2025-05-10T09:21:28Z</time>
      </trkpt>
      <trkpt lat="44.93847" lon="0.82822">
        <ele>205.6</ele>
        <time>2025-05-10T09:21:29Z</time>
      </trkpt>
      <trkpt lat="44.9384" lon="0.82822">
        <ele>205.4</ele>
        <time>2025-05-10T09:21:30Z</time>
      </trkpt>
      <trkpt lat="44.93833" lon="0.82821">
        <ele>205</ele>
        <time>2025-05-10T09:21:31Z</time>
      </trkpt>
      <trkpt lat="44.93826" lon="0.82823">
        <ele>204</ele>
        <time>2025-05-10T09:21:32Z</time>
      </trkpt>
      <trkpt lat="44.93818" lon="0.82825">
        <ele>203.6</ele>
        <time>2025-05-10T09:21:33Z</time>
      </trkpt>
      <trkpt lat="44.93811" lon="0.82827">
        <ele>203</ele>
        <time>2025-05-10T09:21:34Z</time>
      </trkpt>
      <trkpt lat="44.93803" lon="0.82829">
        <ele>202.8</ele>
        <time>2025-05-10T09:21:35Z</time>
      </trkpt>
      <trkpt lat="44.93797" lon="0.82831">
        <ele>202.2</ele>
        <time>2025-05-10T09:21:36Z</time>
      </trkpt>
      <trkpt lat="44.93791" lon="0.8283">
        <ele>201.6</ele>
        <time>2025-05-10T09:21:37Z</time>
      </trkpt>
      <trkpt lat="44.93784" lon="0.82829">
        <ele>201.2</ele>
        <time>2025-05-10T09:21:38Z</time>
      </trkpt>
      <trkpt lat="44.93776" lon="0.82828">
        <ele>200.6</ele>
        <time>2025-05-10T09:21:39Z</time>
      </trkpt>
      <trkpt lat="44.93768" lon="0.82829">
        <ele>200</ele>
        <time>2025-05-10T09:21:40Z</time>
      </trkpt>
      <trkpt lat="44.9376" lon="0.82834">
        <ele>198.8</ele>
        <time>2025-05-10T09:21:41Z</time>
      </trkpt>
      <trkpt lat="44.93753" lon="0.8284">
        <ele>197.8</ele>
        <time>2025-05-10T09:21:42Z</time>
      </trkpt>
      <trkpt lat="44.93747" lon="0.82844">
        <ele>195.6</ele>
        <time>2025-05-10T09:21:43Z</time>
      </trkpt>
      <trkpt lat="44.93741" lon="0.82843">
        <ele>195.2</ele>
        <time>2025-05-10T09:21:44Z</time>
      </trkpt>
      <trkpt lat="44.93735" lon="0.82842">
        <ele>193.8</ele>
        <time>2025-05-10T09:21:45Z</time>
      </trkpt>
      <trkpt lat="44.9373" lon="0.82838">
        <ele>193.4</ele>
        <time>2025-05-10T09:21:46Z</time>
      </trkpt>
      <trkpt lat="44.93724" lon="0.82834">
        <ele>193.2</ele>
        <time>2025-05-10T09:21:47Z</time>
      </trkpt>
      <trkpt lat="44.93718" lon="0.82829">
        <ele>193</ele>
        <time>2025-05-10T09:21:48Z</time>
      </trkpt>
      <trkpt lat="44.93712" lon="0.82824">
        <ele>192.4</ele>
        <time>2025-05-10T09:21:49Z</time>
      </trkpt>
      <trkpt lat="44.93707" lon="0.82818">
        <ele>192</ele>
        <time>2025-05-10T09:21:50Z</time>
      </trkpt>
      <trkpt lat="44.93702" lon="0.82813">
        <ele>191.6</ele>
        <time>2025-05-10T09:21:51Z</time>
      </trkpt>
      <trkpt lat="44.93698" lon="0.82811">
        <ele>190.8</ele>
        <time>2025-05-10T09:21:52Z</time>
      </trkpt>
      <trkpt lat="44.93695" lon="0.82811">
        <ele>190.4</ele>
        <time>2025-05-10T09:21:53Z</time>
      </trkpt>
      <trkpt lat="44.93693" lon="0.82814">
        <ele>190.4</ele>
        <time>2025-05-10T09:21:54Z</time>
      </trkpt>
      <trkpt lat="44.9369" lon="0.82816">
        <ele>190.4</ele>
        <time>2025-05-10T09:21:55Z</time>
      </trkpt>
      <trkpt lat="44.93687" lon="0.82819">
        <ele>190.4</ele>
        <time>2025-05-10T09:21:56Z</time>
      </trkpt>
      <trkpt lat="44.93683" lon="0.82823">
        <ele>190.2</ele>
        <time>2025-05-10T09:21:57Z</time>
      </trkpt>
      <trkpt lat="44.9368" lon="0.82827">
        <ele>190.2</ele>
        <time>2025-05-10T09:21:58Z</time>
      </trkpt>
      <trkpt lat="44.93675" lon="0.82832">
        <ele>190.2</ele>
        <time>2025-05-10T09:21:59Z</time>
      </trkpt>
      <trkpt lat="44.9367" lon="0.82838">
        <ele>190</ele>
        <time>2025-05-10T09:22:00Z</time>
      </trkpt>
      <trkpt lat="44.93665" lon="0.82843">
        <ele>189.6</ele>
        <time>2025-05-10T09:22:01Z</time>
      </trkpt>
      <trkpt lat="44.9366" lon="0.82848">
        <ele>189</ele>
        <time>2025-05-10T09:22:02Z</time>
      </trkpt>
      <trkpt lat="44.93654" lon="0.82856">
        <ele>188.2</ele>
        <time>2025-05-10T09:22:03Z</time>
      </trkpt>
      <trkpt lat="44.93648" lon="0.82863">
        <ele>187.8</ele>
        <time>2025-05-10T09:22:04Z</time>
      </trkpt>
      <trkpt lat="44.93643" lon="0.82871">
        <ele>187.4</ele>
        <time>2025-05-10T09:22:05Z</time>
      </trkpt>
      <trkpt lat="44.93638" lon="0.82879">
        <ele>187.2</ele>
        <time>2025-05-10T09:22:06Z</time>
      </trkpt>
      <trkpt lat="44.93632" lon="0.82887">
        <ele>186.2</ele>
        <time>2025-05-10T09:22:07Z</time>
      </trkpt>
      <trkpt lat="44.93627" lon="0.82895">
        <ele>186</ele>
        <time>2025-05-10T09:22:08Z</time>
      </trkpt>
      <trkpt lat="44.93621" lon="0.82903">
        <ele>185.6</ele>
        <time>2025-05-10T09:22:09Z</time>
      </trkpt>
      <trkpt lat="44.93616" lon="0.82911">
        <ele>185</ele>
        <time>2025-05-10T09:22:10Z</time>
      </trkpt>
      <trkpt lat="44.93611" lon="0.82919">
        <ele>184.6</ele>
        <time>2025-05-10T09:22:11Z</time>
      </trkpt>
      <trkpt lat="44.93606" lon="0.82927">
        <ele>184.4</ele>
        <time>2025-05-10T09:22:12Z</time>
      </trkpt>
      <trkpt lat="44.93601" lon="0.82935">
        <ele>184.4</ele>
        <time>2025-05-10T09:22:13Z</time>
      </trkpt>
      <trkpt lat="44.93595" lon="0.82942">
        <ele>184.4</ele>
        <time>2025-05-10T09:22:14Z</time>
      </trkpt>
      <trkpt lat="44.93589" lon="0.8295">
        <ele>184.2</ele>
        <time>2025-05-10T09:22:15Z</time>
      </trkpt>
      <trkpt lat="44.93584" lon="0.82959">
        <ele>184.2</ele>
        <time>2025-05-10T09:22:16Z</time>
      </trkpt>
      <trkpt lat="44.93579" lon="0.82968">
        <ele>184.2</ele>
        <time>2025-05-10T09:22:17Z</time>
      </trkpt>
      <trkpt lat="44.93575" lon="0.82977">
        <ele>183.6</ele>
        <time>2025-05-10T09:22:18Z</time>
      </trkpt>
      <trkpt lat="44.93572" lon="0.82987">
        <ele>183.2</ele>
        <time>2025-05-10T09:22:19Z</time>
      </trkpt>
      <trkpt lat="44.93569" lon="0.82997">
        <ele>182</ele>
        <time>2025-05-10T09:22:20Z</time>
      </trkpt>
      <trkpt lat="44.93566" lon="0.83007">
        <ele>181.8</ele>
        <time>2025-05-10T09:22:21Z</time>
      </trkpt>
      <trkpt lat="44.93562" lon="0.83014">
        <ele>181.6</ele>
        <time>2025-05-10T09:22:22Z</time>
      </trkpt>
      <trkpt lat="44.93557" lon="0.83021">
        <ele>181.6</ele>
        <time>2025-05-10T09:22:23Z</time>
      </trkpt>
      <trkpt lat="44.93551" lon="0.83026">
        <ele>181.6</ele>
        <time>2025-05-10T09:22:24Z</time>
      </trkpt>
      <trkpt lat="44.93545" lon="0.83031">
        <ele>181.8</ele>
        <time>2025-05-10T09:22:25Z</time>
      </trkpt>
      <trkpt lat="44.93539" lon="0.83036">
        <ele>182</ele>
        <time>2025-05-10T09:22:26Z</time>
      </trkpt>
      <trkpt lat="44.93533" lon="0.83041">
        <ele>182.2</ele>
        <time>2025-05-10T09:22:27Z</time>
      </trkpt>
      <trkpt lat="44.93528" lon="0.83047">
        <ele>182.2</ele>
        <time>2025-05-10T09:22:28Z</time>
      </trkpt>
      <trkpt lat="44.93522" lon="0.83053">
        <ele>182.2</ele>
        <time>2025-05-10T09:22:29Z</time>
      </trkpt>
      <trkpt lat="44.93516" lon="0.83059">
        <ele>182.2</ele>
        <time>2025-05-10T09:22:30Z</time>
      </trkpt>
      <trkpt lat="44.9351" lon="0.83064">
        <ele>182</ele>
        <time>2025-05-10T09:22:31Z</time>
      </trkpt>
      <trkpt lat="44.93504" lon="0.8307">
        <ele>181.4</ele>
        <time>2025-05-10T09:22:32Z</time>
      </trkpt>
      <trkpt lat="44.93498" lon="0.83075">
        <ele>181.2</ele>
        <time>2025-05-10T09:22:33Z</time>
      </trkpt>
      <trkpt lat="44.93492" lon="0.83081">
        <ele>181.2</ele>
        <time>2025-05-10T09:22:34Z</time>
      </trkpt>
      <trkpt lat="44.93488" lon="0.83087">
        <ele>181.2</ele>
        <time>2025-05-10T09:22:35Z</time>
      </trkpt>
      <trkpt lat="44.93483" lon="0.83093">
        <ele>181.2</ele>
        <time>2025-05-10T09:22:36Z</time>
      </trkpt>
      <trkpt lat="44.93478" lon="0.831">
        <ele>181.4</ele>
        <time>2025-05-10T09:22:37Z</time>
      </trkpt>
      <trkpt lat="44.93474" lon="0.83106">
        <ele>181.4</ele>
        <time>2025-05-10T09:22:38Z</time>
      </trkpt>
      <trkpt lat="44.93469" lon="0.83113">
        <ele>181.6</ele>
        <time>2025-05-10T09:22:39Z</time>
      </trkpt>
      <trkpt lat="44.93465" lon="0.8312">
        <ele>181.6</ele>
        <time>2025-05-10T09:22:40Z</time>
      </trkpt>
      <trkpt lat="44.9346" lon="0.83127">
        <ele>181.8</ele>
        <time>2025-05-10T09:22:41Z</time>
      </trkpt>
      <trkpt lat="44.93456" lon="0.83134">
        <ele>181.8</ele>
        <time>2025-05-10T09:22:42Z</time>
      </trkpt>
      <trkpt lat="44.93451" lon="0.83141">
        <ele>181.8</ele>
        <time>2025-05-10T09:22:43Z</time>
      </trkpt>
      <trkpt lat="44.93446" lon="0.83147">
        <ele>182</ele>
        <time>2025-05-10T09:22:44Z</time>
      </trkpt>
      <trkpt lat="44.9344" lon="0.83153">
        <ele>182</ele>
        <time>2025-05-10T09:22:45Z</time>
      </trkpt>
      <trkpt lat="44.93435" lon="0.83157">
        <ele>182</ele>
        <time>2025-05-10T09:22:46Z</time>
      </trkpt>
      <trkpt lat="44.93428" lon="0.83161">
        <ele>181.8</ele>
        <time>2025-05-10T09:22:47Z</time>
      </trkpt>
      <trkpt lat="44.93422" lon="0.83166">
        <ele>181.4</ele>
        <time>2025-05-10T09:22:48Z</time>
      </trkpt>
      <trkpt lat="44.93415" lon="0.83171">
        <ele>180.8</ele>
        <time>2025-05-10T09:22:49Z</time>
      </trkpt>
      <trkpt lat="44.93409" lon="0.83176">
        <ele>180.4</ele>
        <time>2025-05-10T09:22:50Z</time>
      </trkpt>
      <trkpt lat="44.93403" lon="0.83182">
        <ele>179.8</ele>
        <time>2025-05-10T09:22:51Z</time>
      </trkpt>
      <trkpt lat="44.93397" lon="0.83188">
        <ele>178.4</ele>
        <time>2025-05-10T09:22:52Z</time>
      </trkpt>
      <trkpt lat="44.93391" lon="0.83195">
        <ele>177.4</ele>
        <time>2025-05-10T09:22:53Z</time>
      </trkpt>
      <trkpt lat="44.93384" lon="0.83202">
        <ele>177.2</ele>
        <time>2025-05-10T09:22:54Z</time>
      </trkpt>
      <trkpt lat="44.93377" lon="0.83211">
        <ele>176.8</ele>
        <time>2025-05-10T09:22:55Z</time>
      </trkpt>
      <trkpt lat="44.9337" lon="0.8322">
        <ele>176</ele>
        <time>2025-05-10T09:22:56Z</time>
      </trkpt>
      <trkpt lat="44.93362" lon="0.83229">
        <ele>174.6</ele>
        <time>2025-05-10T09:22:57Z</time>
      </trkpt>
      <trkpt lat="44.93355" lon="0.83238">
        <ele>173.4</ele>
        <time>2025-05-10T09:22:58Z</time>
      </trkpt>
      <trkpt lat="44.93347" lon="0.83245">
        <ele>172</ele>
        <time>2025-05-10T09:22:59Z</time>
      </trkpt>
      <trkpt lat="44.93338" lon="0.8325">
        <ele>170.8</ele>
        <time>2025-05-10T09:23:00Z</time>
      </trkpt>
      <trkpt lat="44.93329" lon="0.83253">
        <ele>170.2</ele>
        <time>2025-05-10T09:23:01Z</time>
      </trkpt>
      <trkpt lat="44.93318" lon="0.83257">
        <ele>168.2</ele>
        <time>2025-05-10T09:23:02Z</time>
      </trkpt>
      <trkpt lat="44.93308" lon="0.8326">
        <ele>167.2</ele>
        <time>2025-05-10T09:23:03Z</time>
      </trkpt>
      <trkpt lat="44.93297" lon="0.83264">
        <ele>166.2</ele>
        <time>2025-05-10T09:23:04Z</time>
      </trkpt>
      <trkpt lat="44.93286" lon="0.83268">
        <ele>165.4</ele>
        <time>2025-05-10T09:23:05Z</time>
      </trkpt>
      <trkpt lat="44.93274" lon="0.83273">
        <ele>164.2</ele>
        <time>2025-05-10T09:23:06Z</time>
      </trkpt>
      <trkpt lat="44.93264" lon="0.83277">
        <ele>162.4</ele>
        <time>2025-05-10T09:23:07Z</time>
      </trkpt>
      <trkpt lat="44.93253" lon="0.8328">
        <ele>161.4</ele>
        <time>2025-05-10T09:23:08Z</time>
      </trkpt>
      <trkpt lat="44.93242" lon="0.83284">
        <ele>160.4</ele>
        <time>2025-05-10T09:23:09Z</time>
      </trkpt>
      <trkpt lat="44.93231" lon="0.83287">
        <ele>159.2</ele>
        <time>2025-05-10T09:23:10Z</time>
      </trkpt>
      <trkpt lat="44.9322" lon="0.83291">
        <ele>158.6</ele>
        <time>2025-05-10T09:23:11Z</time>
      </trkpt>
      <trkpt lat="44.9321" lon="0.83294">
        <ele>157.8</ele>
        <time>2025-05-10T09:23:12Z</time>
      </trkpt>
      <trkpt lat="44.932" lon="0.83298">
        <ele>156.8</ele>
        <time>2025-05-10T09:23:13Z</time>
      </trkpt>
      <trkpt lat="44.93189" lon="0.83302">
        <ele>156.6</ele>
        <time>2025-05-10T09:23:14Z</time>
      </trkpt>
      <trkpt lat="44.93179" lon="0.83307">
        <ele>156</ele>
        <time>2025-05-10T09:23:15Z</time>
      </trkpt>
      <trkpt lat="44.93168" lon="0.83312">
        <ele>155</ele>
        <time>2025-05-10T09:23:16Z</time>
      </trkpt>
      <trkpt lat="44.93159" lon="0.83317">
        <ele>153.2</ele>
        <time>2025-05-10T09:23:17Z</time>
      </trkpt>
      <trkpt lat="44.93149" lon="0.83324">
        <ele>152</ele>
        <time>2025-05-10T09:23:18Z</time>
      </trkpt>
      <trkpt lat="44.9314" lon="0.8333">
        <ele>151.8</ele>
        <time>2025-05-10T09:23:19Z</time>
      </trkpt>
      <trkpt lat="44.9313" lon="0.83337">
        <ele>150.8</ele>
        <time>2025-05-10T09:23:20Z</time>
      </trkpt>
      <trkpt lat="44.93121" lon="0.83343">
        <ele>150.6</ele>
        <time>2025-05-10T09:23:21Z</time>
      </trkpt>
      <trkpt lat="44.93111" lon="0.83348">
        <ele>150.2</ele>
        <time>2025-05-10T09:23:22Z</time>
      </trkpt>
      <trkpt lat="44.93102" lon="0.83352">
        <ele>150</ele>
        <time>2025-05-10T09:23:23Z</time>
      </trkpt>
      <trkpt lat="44.93092" lon="0.83354">
        <ele>149.6</ele>
        <time>2025-05-10T09:23:24Z</time>
      </trkpt>
      <trkpt lat="44.93082" lon="0.83358">
        <ele>149.6</ele>
        <time>2025-05-10T09:23:25Z</time>
      </trkpt>
      <trkpt lat="44.93073" lon="0.83361">
        <ele>149.4</ele>
        <time>2025-05-10T09:23:26Z</time>
      </trkpt>
      <trkpt lat="44.93063" lon="0.83365">
        <ele>149</ele>
        <time>2025-05-10T09:23:27Z</time>
      </trkpt>
      <trkpt lat="44.93054" lon="0.83367">
        <ele>148.4</ele>
        <time>2025-05-10T09:23:28Z</time>
      </trkpt>
      <trkpt lat="44.93043" lon="0.8337">
        <ele>148</ele>
        <time>2025-05-10T09:23:29Z</time>
      </trkpt>
      <trkpt lat="44.93033" lon="0.83373">
        <ele>147.4</ele>
        <time>2025-05-10T09:23:30Z</time>
      </trkpt>
      <trkpt lat="44.93023" lon="0.83376">
        <ele>147</ele>
        <time>2025-05-10T09:23:31Z</time>
      </trkpt>
      <trkpt lat="44.93012" lon="0.83381">
        <ele>146.4</ele>
        <time>2025-05-10T09:23:32Z</time>
      </trkpt>
      <trkpt lat="44.93002" lon="0.83387">
        <ele>146.2</ele>
        <time>2025-05-10T09:23:33Z</time>
      </trkpt>
      <trkpt lat="44.92992" lon="0.83395">
        <ele>144.6</ele>
        <time>2025-05-10T09:23:34Z</time>
      </trkpt>
      <trkpt lat="44.92984" lon="0.83403">
        <ele>143.8</ele>
        <time>2025-05-10T09:23:35Z</time>
      </trkpt>
      <trkpt lat="44.92974" lon="0.83412">
        <ele>142.6</ele>
        <time>2025-05-10T09:23:36Z</time>
      </trkpt>
      <trkpt lat="44.92965" lon="0.8342">
        <ele>140.6</ele>
        <time>2025-05-10T09:23:37Z</time>
      </trkpt>
      <trkpt lat="44.92955" lon="0.83426">
        <ele>140.2</ele>
        <time>2025-05-10T09:23:38Z</time>
      </trkpt>
      <trkpt lat="44.92946" lon="0.83433">
        <ele>139.2</ele>
        <time>2025-05-10T09:23:39Z</time>
      </trkpt>
      <trkpt lat="44.92936" lon="0.83439">
        <ele>138.2</ele>
        <time>2025-05-10T09:23:40Z</time>
      </trkpt>
      <trkpt lat="44.92926" lon="0.83443">
        <ele>138.2</ele>
        <time>2025-05-10T09:23:41Z</time>
      </trkpt>
      <trkpt lat="44.92915" lon="0.83445">
        <ele>136.6</ele>
        <time>2025-05-10T09:23:42Z</time>
      </trkpt>
      <trkpt lat="44.92904" lon="0.83446">
        <ele>136.2</ele>
        <time>2025-05-10T09:23:43Z</time>
      </trkpt>
      <trkpt lat="44.92894" lon="0.83445">
        <ele>135.8</ele>
        <time>2025-05-10T09:23:44Z</time>
      </trkpt>
      <trkpt lat="44.92884" lon="0.83444">
        <ele>135</ele>
        <time>2025-05-10T09:23:45Z</time>
      </trkpt>
      <trkpt lat="44.92874" lon="0.83443">
        <ele>134.6</ele>
        <time>2025-05-10T09:23:46Z</time>
      </trkpt>
      <trkpt lat="44.92864" lon="0.83443">
        <ele>134</ele>
        <time>2025-05-10T09:23:47Z</time>
      </trkpt>
      <trkpt lat="44.92854" lon="0.83443">
        <ele>133.8</ele>
        <time>2025-05-10T09:23:48Z</time>
      </trkpt>
      <trkpt lat="44.92845" lon="0.83445">
        <ele>133.6</ele>
        <time>2025-05-10T09:23:49Z</time>
      </trkpt>
      <trkpt lat="44.92836" lon="0.83448">
        <ele>133.6</ele>
        <time>2025-05-10T09:23:50Z</time>
      </trkpt>
      <trkpt lat="44.92829" lon="0.83452">
        <ele>133.6</ele>
        <time>2025-05-10T09:23:51Z</time>
      </trkpt>
      <trkpt lat="44.92822" lon="0.83454">
        <ele>133.6</ele>
        <time>2025-05-10T09:23:52Z</time>
      </trkpt>
      <trkpt lat="44.92817" lon="0.83454">
        <ele>133.6</ele>
        <time>2025-05-10T09:23:53Z</time>
      </trkpt>
      <trkpt lat="44.92812" lon="0.83451">
        <ele>133.8</ele>
        <time>2025-05-10T09:23:54Z</time>
      </trkpt>
      <trkpt lat="44.92811" lon="0.83445">
        <ele>133.8</ele>
        <time>2025-05-10T09:23:55Z</time>
      </trkpt>
      <trkpt lat="44.92811" lon="0.8344">
        <ele>134.2</ele>
        <time>2025-05-10T09:23:56Z</time>
      </trkpt>
      <trkpt lat="44.92811" lon="0.83435">
        <ele>134.2</ele>
        <time>2025-05-10T09:23:57Z</time>
      </trkpt>
      <trkpt lat="44.92812" lon="0.8343">
        <ele>134.4</ele>
        <time>2025-05-10T09:23:58Z</time>
      </trkpt>
      <trkpt lat="44.92813" lon="0.83425">
        <ele>134.4</ele>
        <time>2025-05-10T09:23:59Z</time>
      </trkpt>
      <trkpt lat="44.92812" lon="0.83421">
        <ele>134.4</ele>
        <time>2025-05-10T09:24:00Z</time>
      </trkpt>
      <trkpt lat="44.92812" lon="0.83417">
        <ele>134.4</ele>
        <time>2025-05-10T09:24:01Z</time>
      </trkpt>
      <trkpt lat="44.92811" lon="0.83413">
        <ele>134.4</ele>
        <time>2025-05-10T09:24:02Z</time>
      </trkpt>
      <trkpt lat="44.9281" lon="0.83409">
        <ele>134.6</ele>
        <time>2025-05-10T09:24:03Z</time>
      </trkpt>
      <trkpt lat="44.92809" lon="0.83405">
        <ele>135</ele>
        <time>2025-05-10T09:24:04Z</time>
      </trkpt>
      <trkpt lat="44.92808" lon="0.83401">
        <ele>135.2</ele>
        <time>2025-05-10T09:24:05Z</time>
      </trkpt>
      <trkpt lat="44.92807" lon="0.83396">
        <ele>135.4</ele>
        <time>2025-05-10T09:24:06Z</time>
      </trkpt>
      <trkpt lat="44.92807" lon="0.83393">
        <ele>135.6</ele>
        <time>2025-05-10T09:24:07Z</time>
      </trkpt>
      <trkpt lat="44.92806" lon="0.83389">
        <ele>135.6</ele>
        <time>2025-05-10T09:24:08Z</time>
      </trkpt>
      <trkpt lat="44.92804" lon="0.83386">
        <ele>136</ele>
        <time>2025-05-10T09:24:09Z</time>
      </trkpt>
      <trkpt lat="44.92803" lon="0.83383">
        <ele>136.4</ele>
        <time>2025-05-10T09:24:10Z</time>
      </trkpt>
      <trkpt lat="44.92802" lon="0.83378">
        <ele>136.6</ele>
        <time>2025-05-10T09:24:11Z</time>
      </trkpt>
      <trkpt lat="44.92802" lon="0.83375">
        <ele>136.8</ele>
        <time>2025-05-10T09:24:12Z</time>
      </trkpt>
      <trkpt lat="44.92802" lon="0.83371">
        <ele>137</ele>
        <time>2025-05-10T09:24:13Z</time>
      </trkpt>
      <trkpt lat="44.92802" lon="0.83368">
        <ele>137</ele>
        <time>2025-05-10T09:24:14Z</time>
      </trkpt>
      <trkpt lat="44.92803" lon="0.83364">
        <ele>137.2</ele>
        <time>2025-05-10T09:24:15Z</time>
      </trkpt>
      <trkpt lat="44.92803" lon="0.83361">
        <ele>137.4</ele>
        <time>2025-05-10T09:24:16Z</time>
      </trkpt>
      <trkpt lat="44.92804" lon="0.83357">
        <ele>137.6</ele>
        <time>2025-05-10T09:24:17Z</time>
      </trkpt>
      <trkpt lat="44.92805" lon="0.83354">
        <ele>137.8</ele>
        <time>2025-05-10T09:24:18Z</time>
      </trkpt>
      <trkpt lat="44.92807" lon="0.83351">
        <ele>138</ele>
        <time>2025-05-10T09:24:19Z</time>
      </trkpt>
      <trkpt lat="44.92808" lon="0.83347">
        <ele>138.2</ele>
        <time>2025-05-10T09:24:20Z</time>
      </trkpt>
      <trkpt lat="44.92809" lon="0.83343">
        <ele>138.6</ele>
        <time>2025-05-10T09:24:21Z</time>
      </trkpt>
      <trkpt lat="44.9281" lon="0.83339">
        <ele>138.8</ele>
        <time>2025-05-10T09:24:22Z</time>
      </trkpt>
      <trkpt lat="44.92811" lon="0.83335">
        <ele>139</ele>
        <time>2025-05-10T09:24:23Z</time>
      </trkpt>
      <trkpt lat="44.92813" lon="0.83331">
        <ele>139.2</ele>
        <time>2025-05-10T09:24:24Z</time>
      </trkpt>
      <trkpt lat="44.92814" lon="0.83328">
        <ele>139.4</ele>
        <time>2025-05-10T09:24:25Z</time>
      </trkpt>
      <trkpt lat="44.92816" lon="0.83324">
        <ele>139.6</ele>
        <time>2025-05-10T09:24:26Z</time>
      </trkpt>
      <trkpt lat="44.92817" lon="0.83321">
        <ele>139.8</ele>
        <time>2025-05-10T09:24:27Z</time>
      </trkpt>
      <trkpt lat="44.92819" lon="0.83318">
        <ele>140</ele>
        <time>2025-05-10T09:24:28Z</time>
      </trkpt>
      <trkpt lat="44.9282" lon="0.83314">
        <ele>140.2</ele>
        <time>2025-05-10T09:24:29Z</time>
      </trkpt>
      <trkpt lat="44.92822" lon="0.83311">
        <ele>140.2</ele>
        <time>2025-05-10T09:24:30Z</time>
      </trkpt>
      <trkpt lat="44.92823" lon="0.83308">
        <ele>140.6</ele>
        <time>2025-05-10T09:24:31Z</time>
      </trkpt>
      <trkpt lat="44.92824" lon="0.83304">
        <ele>140.8</ele>
        <time>2025-05-10T09:24:32Z</time>
      </trkpt>
      <trkpt lat="44.92824" lon="0.833">
        <ele>141.2</ele>
        <time>2025-05-10T09:24:33Z</time>
      </trkpt>
      <trkpt lat="44.92823" lon="0.83296">
        <ele>141.2</ele>
        <time>2025-05-10T09:24:34Z</time>
      </trkpt>
      <trkpt lat="44.92821" lon="0.83293">
        <ele>141.4</ele>
        <time>2025-05-10T09:24:35Z</time>
      </trkpt>
      <trkpt lat="44.92818" lon="0.83289">
        <ele>141.4</ele>
        <time>2025-05-10T09:24:36Z</time>
      </trkpt>
      <trkpt lat="44.92814" lon="0.83284">
        <ele>141.4</ele>
        <time>2025-05-10T09:24:37Z</time>
      </trkpt>
      <trkpt lat="44.92811" lon="0.83278">
        <ele>141.4</ele>
        <time>2025-05-10T09:24:38Z</time>
      </trkpt>
      <trkpt lat="44.92807" lon="0.83271">
        <ele>141</ele>
        <time>2025-05-10T09:24:39Z</time>
      </trkpt>
      <trkpt lat="44.92805" lon="0.83263">
        <ele>140.6</ele>
        <time>2025-05-10T09:24:40Z</time>
      </trkpt>
      <trkpt lat="44.92803" lon="0.83255">
        <ele>140</ele>
        <time>2025-05-10T09:24:41Z</time>
      </trkpt>
      <trkpt lat="44.92803" lon="0.83246">
        <ele>138.8</ele>
        <time>2025-05-10T09:24:42Z</time>
      </trkpt>
      <trkpt lat="44.92802" lon="0.83237">
        <ele>138</ele>
        <time>2025-05-10T09:24:43Z</time>
      </trkpt>
      <trkpt lat="44.92802" lon="0.83229">
        <ele>137.2</ele>
        <time>2025-05-10T09:24:44Z</time>
      </trkpt>
      <trkpt lat="44.92801" lon="0.8322">
        <ele>137.2</ele>
        <time>2025-05-10T09:24:45Z</time>
      </trkpt>
      <trkpt lat="44.928" lon="0.83211">
        <ele>137.2</ele>
        <time>2025-05-10T09:24:46Z</time>
      </trkpt>
      <trkpt lat="44.928" lon="0.83202">
        <ele>137</ele>
        <time>2025-05-10T09:24:47Z</time>
      </trkpt>
      <trkpt lat="44.928" lon="0.83194">
        <ele>137</ele>
        <time>2025-05-10T09:24:48Z</time>
      </trkpt>
      <trkpt lat="44.928" lon="0.83185">
        <ele>137</ele>
        <time>2025-05-10T09:24:49Z</time>
      </trkpt>
      <trkpt lat="44.92799" lon="0.83176">
        <ele>136.8</ele>
        <time>2025-05-10T09:24:50Z</time>
      </trkpt>
      <trkpt lat="44.92797" lon="0.83168">
        <ele>136.8</ele>
        <time>2025-05-10T09:24:51Z</time>
      </trkpt>
      <trkpt lat="44.92794" lon="0.83161">
        <ele>136.8</ele>
        <time>2025-05-10T09:24:52Z</time>
      </trkpt>
      <trkpt lat="44.9279" lon="0.83155">
        <ele>136.8</ele>
        <time>2025-05-10T09:24:53Z</time>
      </trkpt>
      <trkpt lat="44.92786" lon="0.83149">
        <ele>136.6</ele>
        <time>2025-05-10T09:24:54Z</time>
      </trkpt>
      <trkpt lat="44.92782" lon="0.83144">
        <ele>136.6</ele>
        <time>2025-05-10T09:24:55Z</time>
      </trkpt>
      <trkpt lat="44.92778" lon="0.83139">
        <ele>136.6</ele>
        <time>2025-05-10T09:24:56Z</time>
      </trkpt>
      <trkpt lat="44.92774" lon="0.83135">
        <ele>136.8</ele>
        <time>2025-05-10T09:24:57Z</time>
      </trkpt>
      <trkpt lat="44.9277" lon="0.83131">
        <ele>137.6</ele>
        <time>2025-05-10T09:24:58Z</time>
      </trkpt>
      <trkpt lat="44.92766" lon="0.83127">
        <ele>137.8</ele>
        <time>2025-05-10T09:24:59Z</time>
      </trkpt>
      <trkpt lat="44.92762" lon="0.83123">
        <ele>138</ele>
        <time>2025-05-10T09:25:00Z</time>
      </trkpt>
      <trkpt lat="44.92759" lon="0.83118">
        <ele>138.2</ele>
        <time>2025-05-10T09:25:01Z</time>
      </trkpt>
      <trkpt lat="44.92756" lon="0.83113">
        <ele>138.4</ele>
        <time>2025-05-10T09:25:02Z</time>
      </trkpt>
      <trkpt lat="44.92754" lon="0.83109">
        <ele>138.8</ele>
        <time>2025-05-10T09:25:03Z</time>
      </trkpt>
      <trkpt lat="44.92751" lon="0.83104">
        <ele>139.2</ele>
        <time>2025-05-10T09:25:04Z</time>
      </trkpt>
      <trkpt lat="44.92749" lon="0.831">
        <ele>139.4</ele>
        <time>2025-05-10T09:25:05Z</time>
      </trkpt>
      <trkpt lat="44.92747" lon="0.83097">
        <ele>139.6</ele>
        <time>2025-05-10T09:25:06Z</time>
      </trkpt>
      <trkpt lat="44.92745" lon="0.83094">
        <ele>139.8</ele>
        <time>2025-05-10T09:25:07Z</time>
      </trkpt>
      <trkpt lat="44.92744" lon="0.83091">
        <ele>140.2</ele>
        <time>2025-05-10T09:25:08Z</time>
      </trkpt>
      <trkpt lat="44.92742" lon="0.83088">
        <ele>140.2</ele>
        <time>2025-05-10T09:25:09Z</time>
      </trkpt>
      <trkpt lat="44.92741" lon="0.83085">
        <ele>140.4</ele>
        <time>2025-05-10T09:25:10Z</time>
      </trkpt>
      <trkpt lat="44.92739" lon="0.83083">
        <ele>140.6</ele>
        <time>2025-05-10T09:25:11Z</time>
      </trkpt>
      <trkpt lat="44.92738" lon="0.8308">
        <ele>141</ele>
        <time>2025-05-10T09:25:12Z</time>
      </trkpt>
      <trkpt lat="44.92737" lon="0.83077">
        <ele>141.2</ele>
        <time>2025-05-10T09:25:13Z</time>
      </trkpt>
      <trkpt lat="44.92736" lon="0.83074">
        <ele>141.8</ele>
        <time>2025-05-10T09:25:14Z</time>
      </trkpt>
      <trkpt lat="44.92735" lon="0.83071">
        <ele>142.2</ele>
        <time>2025-05-10T09:25:15Z</time>
      </trkpt>
      <trkpt lat="44.92734" lon="0.83068">
        <ele>142.4</ele>
        <time>2025-05-10T09:25:16Z</time>
      </trkpt>
      <trkpt lat="44.92733" lon="0.83064">
        <ele>142.6</ele>
        <time>2025-05-10T09:25:17Z</time>
      </trkpt>
      <trkpt lat="44.92732" lon="0.83061">
        <ele>142.8</ele>
        <time>2025-05-10T09:25:18Z</time>
      </trkpt>
      <trkpt lat="44.92731" lon="0.83058">
        <ele>142.8</ele>
        <time>2025-05-10T09:25:19Z</time>
      </trkpt>
      <trkpt lat="44.9273" lon="0.83055">
        <ele>143</ele>
        <time>2025-05-10T09:25:20Z</time>
      </trkpt>
      <trkpt lat="44.92728" lon="0.83052">
        <ele>143.4</ele>
        <time>2025-05-10T09:25:21Z</time>
      </trkpt>
      <trkpt lat="44.92727" lon="0.83048">
        <ele>143.4</ele>
        <time>2025-05-10T09:25:22Z</time>
      </trkpt>
      <trkpt lat="44.92726" lon="0.83046">
        <ele>143.6</ele>
        <time>2025-05-10T09:25:23Z</time>
      </trkpt>
      <trkpt lat="44.92725" lon="0.83043">
        <ele>143.8</ele>
        <time>2025-05-10T09:25:24Z</time>
      </trkpt>
      <trkpt lat="44.92724" lon="0.8304">
        <ele>144</ele>
        <time>2025-05-10T09:25:25Z</time>
      </trkpt>
      <trkpt lat="44.92723" lon="0.83038">
        <ele>144.2</ele>
        <time>2025-05-10T09:25:26Z</time>
      </trkpt>
      <trkpt lat="44.92721" lon="0.83036">
        <ele>144.4</ele>
        <time>2025-05-10T09:25:27Z</time>
      </trkpt>
      <trkpt lat="44.9272" lon="0.83033">
        <ele>144.6</ele>
        <time>2025-05-10T09:25:28Z</time>
      </trkpt>
      <trkpt lat="44.92719" lon="0.83031">
        <ele>144.6</ele>
        <time>2025-05-10T09:25:29Z</time>
      </trkpt>
      <trkpt lat="44.92718" lon="0.83028">
        <ele>144.8</ele>
        <time>2025-05-10T09:25:30Z</time>
      </trkpt>
      <trkpt lat="44.92718" lon="0.83026">
        <ele>145</ele>
        <time>2025-05-10T09:25:31Z</time>
      </trkpt>
      <trkpt lat="44.92717" lon="0.83024">
        <ele>145.2</ele>
        <time>2025-05-10T09:25:32Z</time>
      </trkpt>
      <trkpt lat="44.92716" lon="0.83022">
        <ele>145.6</ele>
        <time>2025-05-10T09:25:33Z</time>
      </trkpt>
      <trkpt lat="44.92715" lon="0.83019">
        <ele>145.8</ele>
        <time>2025-05-10T09:25:34Z</time>
      </trkpt>
      <trkpt lat="44.92714" lon="0.83017">
        <ele>146.2</ele>
        <time>2025-05-10T09:25:35Z</time>
      </trkpt>
      <trkpt lat="44.92713" lon="0.83016">
        <ele>146.4</ele>
        <time>2025-05-10T09:25:36Z</time>
      </trkpt>
      <trkpt lat="44.92712" lon="0.83013">
        <ele>146.8</ele>
        <time>2025-05-10T09:25:37Z</time>
      </trkpt>
      <trkpt lat="44.9271" lon="0.83012">
        <ele>147.2</ele>
        <time>2025-05-10T09:25:38Z</time>
      </trkpt>
      <trkpt lat="44.92709" lon="0.8301">
        <ele>147.4</ele>
        <time>2025-05-10T09:25:39Z</time>
      </trkpt>
      <trkpt lat="44.92706" lon="0.83011">
        <ele>147.6</ele>
        <time>2025-05-10T09:25:40Z</time>
      </trkpt>
      <trkpt lat="44.92704" lon="0.83011">
        <ele>147.8</ele>
        <time>2025-05-10T09:25:41Z</time>
      </trkpt>
      <trkpt lat="44.92702" lon="0.83013">
        <ele>148</ele>
        <time>2025-05-10T09:25:42Z</time>
      </trkpt>
      <trkpt lat="44.927" lon="0.83015">
        <ele>148.4</ele>
        <time>2025-05-10T09:25:43Z</time>
      </trkpt>
      <trkpt lat="44.92699" lon="0.83016">
        <ele>148.4</ele>
        <time>2025-05-10T09:25:44Z</time>
      </trkpt>
      <trkpt lat="44.92697" lon="0.83018">
        <ele>148.4</ele>
        <time>2025-05-10T09:25:45Z</time>
      </trkpt>
      <trkpt lat="44.92695" lon="0.8302">
        <ele>148.6</ele>
        <time>2025-05-10T09:25:46Z</time>
      </trkpt>
      <trkpt lat="44.92693" lon="0.83022">
        <ele>148.8</ele>
        <time>2025-05-10T09:25:47Z</time>
      </trkpt>
      <trkpt lat="44.92691" lon="0.83025">
        <ele>149</ele>
        <time>2025-05-10T09:25:48Z</time>
      </trkpt>
      <trkpt lat="44.92688" lon="0.83027">
        <ele>149.2</ele>
        <time>2025-05-10T09:25:49Z</time>
      </trkpt>
      <trkpt lat="44.92686" lon="0.83029">
        <ele>149.4</ele>
        <time>2025-05-10T09:25:50Z</time>
      </trkpt>
      <trkpt lat="44.92684" lon="0.83031">
        <ele>149.6</ele>
        <time>2025-05-10T09:25:51Z</time>
      </trkpt>
      <trkpt lat="44.92681" lon="0.83034">
        <ele>149.6</ele>
        <time>2025-05-10T09:25:52Z</time>
      </trkpt>
      <trkpt lat="44.92679" lon="0.83036">
        <ele>149.6</ele>
        <time>2025-05-10T09:25:53Z</time>
      </trkpt>
      <trkpt lat="44.92676" lon="0.83039">
        <ele>149.6</ele>
        <time>2025-05-10T09:25:54Z</time>
      </trkpt>
      <trkpt lat="44.92673" lon="0.83041">
        <ele>149.6</ele>
        <time>2025-05-10T09:25:55Z</time>
      </trkpt>
      <trkpt lat="44.9267" lon="0.83044">
        <ele>149.6</ele>
        <time>2025-05-10T09:25:56Z</time>
      </trkpt>
      <trkpt lat="44.92667" lon="0.83047">
        <ele>149.6</ele>
        <time>2025-05-10T09:25:57Z</time>
      </trkpt>
      <trkpt lat="44.92664" lon="0.8305">
        <ele>149.6</ele>
        <time>2025-05-10T09:25:58Z</time>
      </trkpt>
      <trkpt lat="44.9266" lon="0.83053">
        <ele>149.4</ele>
        <time>2025-05-10T09:25:59Z</time>
      </trkpt>
      <trkpt lat="44.92657" lon="0.83056">
        <ele>149.4</ele>
        <time>2025-05-10T09:26:00Z</time>
      </trkpt>
      <trkpt lat="44.92653" lon="0.83059">
        <ele>149.2</ele>
        <time>2025-05-10T09:26:01Z</time>
      </trkpt>
      <trkpt lat="44.9265" lon="0.83063">
        <ele>149</ele>
        <time>2025-05-10T09:26:02Z</time>
      </trkpt>
      <trkpt lat="44.92646" lon="0.83067">
        <ele>148.8</ele>
        <time>2025-05-10T09:26:03Z</time>
      </trkpt>
      <trkpt lat="44.92644" lon="0.83071">
        <ele>148.8</ele>
        <time>2025-05-10T09:26:04Z</time>
      </trkpt>
      <trkpt lat="44.9264" lon="0.83075">
        <ele>148.6</ele>
        <time>2025-05-10T09:26:05Z</time>
      </trkpt>
      <trkpt lat="44.92637" lon="0.83078">
        <ele>148.6</ele>
        <time>2025-05-10T09:26:06Z</time>
      </trkpt>
      <trkpt lat="44.92632" lon="0.83082">
        <ele>148.6</ele>
        <time>2025-05-10T09:26:07Z</time>
      </trkpt>
      <trkpt lat="44.92628" lon="0.83086">
        <ele>148.6</ele>
        <time>2025-05-10T09:26:08Z</time>
      </trkpt>
      <trkpt lat="44.92624" lon="0.8309">
        <ele>148.4</ele>
        <time>2025-05-10T09:26:09Z</time>
      </trkpt>
      <trkpt lat="44.92619" lon="0.83093">
        <ele>148.4</ele>
        <time>2025-05-10T09:26:10Z</time>
      </trkpt>
      <trkpt lat="44.92615" lon="0.83097">
        <ele>148.2</ele>
        <time>2025-05-10T09:26:11Z</time>
      </trkpt>
      <trkpt lat="44.9261" lon="0.831">
        <ele>148.2</ele>
        <time>2025-05-10T09:26:12Z</time>
      </trkpt>
      <trkpt lat="44.92606" lon="0.83102">
        <ele>148.2</ele>
        <time>2025-05-10T09:26:13Z</time>
      </trkpt>
      <trkpt lat="44.92602" lon="0.83106">
        <ele>148.2</ele>
        <time>2025-05-10T09:26:14Z</time>
      </trkpt>
      <trkpt lat="44.92598" lon="0.83109">
        <ele>148.2</ele>
        <time>2025-05-10T09:26:15Z</time>
      </trkpt>
      <trkpt lat="44.92593" lon="0.83112">
        <ele>148.2</ele>
        <time>2025-05-10T09:26:16Z</time>
      </trkpt>
      <trkpt lat="44.9259" lon="0.83115">
        <ele>148.4</ele>
        <time>2025-05-10T09:26:17Z</time>
      </trkpt>
      <trkpt lat="44.92586" lon="0.83118">
        <ele>148.4</ele>
        <time>2025-05-10T09:26:18Z</time>
      </trkpt>
      <trkpt lat="44.92581" lon="0.83121">
        <ele>148.6</ele>
        <time>2025-05-10T09:26:19Z</time>
      </trkpt>
      <trkpt lat="44.92577" lon="0.83124">
        <ele>148.8</ele>
        <time>2025-05-10T09:26:20Z</time>
      </trkpt>
      <trkpt lat="44.92573" lon="0.83127">
        <ele>148.8</ele>
        <time>2025-05-10T09:26:21Z</time>
      </trkpt>
      <trkpt lat="44.92568" lon="0.8313">
        <ele>148.8</ele>
        <time>2025-05-10T09:26:22Z</time>
      </trkpt>
      <trkpt lat="44.92564" lon="0.83134">
        <ele>148.8</ele>
        <time>2025-05-10T09:26:23Z</time>
      </trkpt>
      <trkpt lat="44.9256" lon="0.83137">
        <ele>148.8</ele>
        <time>2025-05-10T09:26:24Z</time>
      </trkpt>
      <trkpt lat="44.92556" lon="0.8314">
        <ele>148.8</ele>
        <time>2025-05-10T09:26:25Z</time>
      </trkpt>
      <trkpt lat="44.92551" lon="0.83144">
        <ele>148.8</ele>
        <time>2025-05-10T09:26:26Z</time>
      </trkpt>
      <trkpt lat="44.92547" lon="0.83147">
        <ele>148.8</ele>
        <time>2025-05-10T09:26:27Z</time>
      </trkpt>
      <trkpt lat="44.92543" lon="0.8315">
        <ele>148.8</ele>
        <time>2025-05-10T09:26:28Z</time>
      </trkpt>
      <trkpt lat="44.92538" lon="0.83153">
        <ele>149</ele>
        <time>2025-05-10T09:26:29Z</time>
      </trkpt>
      <trkpt lat="44.92534" lon="0.83157">
        <ele>149</ele>
        <time>2025-05-10T09:26:30Z</time>
      </trkpt>
      <trkpt lat="44.9253" lon="0.83159">
        <ele>148.8</ele>
        <time>2025-05-10T09:26:31Z</time>
      </trkpt>
      <trkpt lat="44.92527" lon="0.83162">
        <ele>148.8</ele>
        <time>2025-05-10T09:26:32Z</time>
      </trkpt>
      <trkpt lat="44.92523" lon="0.83164">
        <ele>148.8</ele>
        <time>2025-05-10T09:26:33Z</time>
      </trkpt>
      <trkpt lat="44.92519" lon="0.83167">
        <ele>148.8</ele>
        <time>2025-05-10T09:26:34Z</time>
      </trkpt>
      <trkpt lat="44.92515" lon="0.8317">
        <ele>148.8</ele>
        <time>2025-05-10T09:26:35Z</time>
      </trkpt>
      <trkpt lat="44.92512" lon="0.83174">
        <ele>148.8</ele>
        <time>2025-05-10T09:26:36Z</time>
      </trkpt>
      <trkpt lat="44.92508" lon="0.83178">
        <ele>148.8</ele>
        <time>2025-05-10T09:26:37Z</time>
      </trkpt>
      <trkpt lat="44.92505" lon="0.83181">
        <ele>148.8</ele>
        <time>2025-05-10T09:26:38Z</time>
      </trkpt>
      <trkpt lat="44.925" lon="0.83185">
        <ele>149</ele>
        <time>2025-05-10T09:26:39Z</time>
      </trkpt>
      <trkpt lat="44.92496" lon="0.83189">
        <ele>149.2</ele>
        <time>2025-05-10T09:26:40Z</time>
      </trkpt>
      <trkpt lat="44.92493" lon="0.83193">
        <ele>149.2</ele>
        <time>2025-05-10T09:26:41Z</time>
      </trkpt>
      <trkpt lat="44.92488" lon="0.83195">
        <ele>149.4</ele>
        <time>2025-05-10T09:26:42Z</time>
      </trkpt>
      <trkpt lat="44.92483" lon="0.83199">
        <ele>149.4</ele>
        <time>2025-05-10T09:26:43Z</time>
      </trkpt>
      <trkpt lat="44.92478" lon="0.83203">
        <ele>149.4</ele>
        <time>2025-05-10T09:26:44Z</time>
      </trkpt>
      <trkpt lat="44.92474" lon="0.83206">
        <ele>149.4</ele>
        <time>2025-05-10T09:26:45Z</time>
      </trkpt>
      <trkpt lat="44.92469" lon="0.8321">
        <ele>149.4</ele>
        <time>2025-05-10T09:26:46Z</time>
      </trkpt>
      <trkpt lat="44.92465" lon="0.83214">
        <ele>149.4</ele>
        <time>2025-05-10T09:26:47Z</time>
      </trkpt>
      <trkpt lat="44.92461" lon="0.83218">
        <ele>149.8</ele>
        <time>2025-05-10T09:26:48Z</time>
      </trkpt>
      <trkpt lat="44.92457" lon="0.83222">
        <ele>149.8</ele>
        <time>2025-05-10T09:26:49Z</time>
      </trkpt>
      <trkpt lat="44.92452" lon="0.83226">
        <ele>149.8</ele>
        <time>2025-05-10T09:26:50Z</time>
      </trkpt>
      <trkpt lat="44.92447" lon="0.8323">
        <ele>149.8</ele>
        <time>2025-05-10T09:26:51Z</time>
      </trkpt>
      <trkpt lat="44.92442" lon="0.83233">
        <ele>149.8</ele>
        <time>2025-05-10T09:26:52Z</time>
      </trkpt>
      <trkpt lat="44.92437" lon="0.83236">
        <ele>149.6</ele>
        <time>2025-05-10T09:26:53Z</time>
      </trkpt>
      <trkpt lat="44.92432" lon="0.83238">
        <ele>149</ele>
        <time>2025-05-10T09:26:54Z</time>
      </trkpt>
      <trkpt lat="44.92426" lon="0.8324">
        <ele>148.6</ele>
        <time>2025-05-10T09:26:55Z</time>
      </trkpt>
      <trkpt lat="44.9242" lon="0.83242">
        <ele>148.2</ele>
        <time>2025-05-10T09:26:56Z</time>
      </trkpt>
      <trkpt lat="44.92414" lon="0.83245">
        <ele>148.2</ele>
        <time>2025-05-10T09:26:57Z</time>
      </trkpt>
      <trkpt lat="44.92408" lon="0.83246">
        <ele>148</ele>
        <time>2025-05-10T09:26:58Z</time>
      </trkpt>
      <trkpt lat="44.92402" lon="0.83249">
        <ele>147.8</ele>
        <time>2025-05-10T09:26:59Z</time>
      </trkpt>
      <trkpt lat="44.92396" lon="0.83253">
        <ele>147.6</ele>
        <time>2025-05-10T09:27:00Z</time>
      </trkpt>
      <trkpt lat="44.9239" lon="0.83256">
        <ele>147.4</ele>
        <time>2025-05-10T09:27:01Z</time>
      </trkpt>
      <trkpt lat="44.92384" lon="0.8326">
        <ele>147.2</ele>
        <time>2025-05-10T09:27:02Z</time>
      </trkpt>
      <trkpt lat="44.92378" lon="0.83263">
        <ele>147</ele>
        <time>2025-05-10T09:27:03Z</time>
      </trkpt>
      <trkpt lat="44.92372" lon="0.83267">
        <ele>146.6</ele>
        <time>2025-05-10T09:27:04Z</time>
      </trkpt>
      <trkpt lat="44.92366" lon="0.8327">
        <ele>146</ele>
        <time>2025-05-10T09:27:05Z</time>
      </trkpt>
      <trkpt lat="44.9236" lon="0.83274">
        <ele>145.8</ele>
        <time>2025-05-10T09:27:06Z</time>
      </trkpt>
      <trkpt lat="44.92353" lon="0.83277">
        <ele>145.6</ele>
        <time>2025-05-10T09:27:07Z</time>
      </trkpt>
      <trkpt lat="44.92346" lon="0.83279">
        <ele>145.6</ele>
        <time>2025-05-10T09:27:08Z</time>
      </trkpt>
      <trkpt lat="44.92339" lon="0.83282">
        <ele>145.2</ele>
        <time>2025-05-10T09:27:09Z</time>
      </trkpt>
      <trkpt lat="44.92331" lon="0.83284">
        <ele>144.8</ele>
        <time>2025-05-10T09:27:10Z</time>
      </trkpt>
      <trkpt lat="44.92324" lon="0.83284">
        <ele>144.8</ele>
        <time>2025-05-10T09:27:11Z</time>
      </trkpt>
      <trkpt lat="44.92316" lon="0.83282">
        <ele>144.6</ele>
        <time>2025-05-10T09:27:12Z</time>
      </trkpt>
      <trkpt lat="44.92309" lon="0.83281">
        <ele>144.4</ele>
        <time>2025-05-10T09:27:13Z</time>
      </trkpt>
      <trkpt lat="44.92301" lon="0.83279">
        <ele>144.2</ele>
        <time>2025-05-10T09:27:14Z</time>
      </trkpt>
      <trkpt lat="44.92293" lon="0.83278">
        <ele>143.8</ele>
        <time>2025-05-10T09:27:15Z</time>
      </trkpt>
      <trkpt lat="44.92285" lon="0.83278">
        <ele>142.8</ele>
        <time>2025-05-10T09:27:16Z</time>
      </trkpt>
      <trkpt lat="44.92277" lon="0.83278">
        <ele>142.2</ele>
        <time>2025-05-10T09:27:17Z</time>
      </trkpt>
      <trkpt lat="44.92269" lon="0.83278">
        <ele>141.8</ele>
        <time>2025-05-10T09:27:18Z</time>
      </trkpt>
      <trkpt lat="44.9226" lon="0.83278">
        <ele>141</ele>
        <time>2025-05-10T09:27:19Z</time>
      </trkpt>
      <trkpt lat="44.92251" lon="0.83278">
        <ele>140.2</ele>
        <time>2025-05-10T09:27:20Z</time>
      </trkpt>
      <trkpt lat="44.92243" lon="0.83277">
        <ele>139.2</ele>
        <time>2025-05-10T09:27:21Z</time>
      </trkpt>
      <trkpt lat="44.92236" lon="0.83277">
        <ele>138.4</ele>
        <time>2025-05-10T09:27:22Z</time>
      </trkpt>
      <trkpt lat="44.92229" lon="0.83277">
        <ele>137.8</ele>
        <time>2025-05-10T09:27:23Z</time>
      </trkpt>
      <trkpt lat="44.92224" lon="0.83277">
        <ele>137.4</ele>
        <time>2025-05-10T09:27:24Z</time>
      </trkpt>
      <trkpt lat="44.9222" lon="0.83273">
        <ele>137.2</ele>
        <time>2025-05-10T09:27:25Z</time>
      </trkpt>
      <trkpt lat="44.92218" lon="0.83268">
        <ele>137.2</ele>
        <time>2025-05-10T09:27:26Z</time>
      </trkpt>
      <trkpt lat="44.92218" lon="0.83262">
        <ele>137</ele>
        <time>2025-05-10T09:27:27Z</time>
      </trkpt>
      <trkpt lat="44.92218" lon="0.83256">
        <ele>137</ele>
        <time>2025-05-10T09:27:28Z</time>
      </trkpt>
      <trkpt lat="44.92219" lon="0.83249">
        <ele>137</ele>
        <time>2025-05-10T09:27:29Z</time>
      </trkpt>
      <trkpt lat="44.92219" lon="0.83243">
        <ele>137</ele>
        <time>2025-05-10T09:27:30Z</time>
      </trkpt>
      <trkpt lat="44.9222" lon="0.83239">
        <ele>136.8</ele>
        <time>2025-05-10T09:27:31Z</time>
      </trkpt>
      <trkpt lat="44.92221" lon="0.83234">
        <ele>136.8</ele>
        <time>2025-05-10T09:27:32Z</time>
      </trkpt>
      <trkpt lat="44.9222" lon="0.83231">
        <ele>136.6</ele>
        <time>2025-05-10T09:27:33Z</time>
      </trkpt>
      <trkpt lat="44.92217" lon="0.83229">
        <ele>136.4</ele>
        <time>2025-05-10T09:27:34Z</time>
      </trkpt>
      <trkpt lat="44.92213" lon="0.83229">
        <ele>136.4</ele>
        <time>2025-05-10T09:27:35Z</time>
      </trkpt>
      <trkpt lat="44.92209" lon="0.83232">
        <ele>136.4</ele>
        <time>2025-05-10T09:27:36Z</time>
      </trkpt>
      <trkpt lat="44.92205" lon="0.83235">
        <ele>136.2</ele>
        <time>2025-05-10T09:27:37Z</time>
      </trkpt>
      <trkpt lat="44.922" lon="0.83239">
        <ele>135.8</ele>
        <time>2025-05-10T09:27:38Z</time>
      </trkpt>
      <trkpt lat="44.92195" lon="0.83243">
        <ele>135.4</ele>
        <time>2025-05-10T09:27:39Z</time>
      </trkpt>
      <trkpt lat="44.92191" lon="0.83248">
        <ele>134.8</ele>
        <time>2025-05-10T09:27:40Z</time>
      </trkpt>
      <trkpt lat="44.92186" lon="0.83253">
        <ele>134.2</ele>
        <time>2025-05-10T09:27:41Z</time>
      </trkpt>
      <trkpt lat="44.9218" lon="0.83258">
        <ele>133.6</ele>
        <time>2025-05-10T09:27:42Z</time>
      </trkpt>
      <trkpt lat="44.92175" lon="0.83265">
        <ele>133</ele>
        <time>2025-05-10T09:27:43Z</time>
      </trkpt>
      <trkpt lat="44.9217" lon="0.83272">
        <ele>132.4</ele>
        <time>2025-05-10T09:27:44Z</time>
      </trkpt>
      <trkpt lat="44.92165" lon="0.83279">
        <ele>131.2</ele>
        <time>2025-05-10T09:27:45Z</time>
      </trkpt>
      <trkpt lat="44.92159" lon="0.83286">
        <ele>130.6</ele>
        <time>2025-05-10T09:27:46Z</time>
      </trkpt>
      <trkpt lat="44.92154" lon="0.83293">
        <ele>130.6</ele>
        <time>2025-05-10T09:27:47Z</time>
      </trkpt>
      <trkpt lat="44.9215" lon="0.833">
        <ele>130.6</ele>
        <time>2025-05-10T09:27:48Z</time>
      </trkpt>
      <trkpt lat="44.92147" lon="0.83308">
        <ele>130.6</ele>
        <time>2025-05-10T09:27:49Z</time>
      </trkpt>
      <trkpt lat="44.92144" lon="0.83315">
        <ele>130.8</ele>
        <time>2025-05-10T09:27:50Z</time>
      </trkpt>
      <trkpt lat="44.92142" lon="0.83321">
        <ele>131.8</ele>
        <time>2025-05-10T09:27:51Z</time>
      </trkpt>
      <trkpt lat="44.92139" lon="0.83326">
        <ele>132</ele>
        <time>2025-05-10T09:27:52Z</time>
      </trkpt>
      <trkpt lat="44.92136" lon="0.83331">
        <ele>132.6</ele>
        <time>2025-05-10T09:27:53Z</time>
      </trkpt>
      <trkpt lat="44.92133" lon="0.83336">
        <ele>133</ele>
        <time>2025-05-10T09:27:54Z</time>
      </trkpt>
      <trkpt lat="44.92129" lon="0.83339">
        <ele>133.6</ele>
        <time>2025-05-10T09:27:55Z</time>
      </trkpt>
      <trkpt lat="44.92125" lon="0.83342">
        <ele>133.8</ele>
        <time>2025-05-10T09:27:56Z</time>
      </trkpt>
      <trkpt lat="44.92121" lon="0.83344">
        <ele>134.4</ele>
        <time>2025-05-10T09:27:57Z</time>
      </trkpt>
      <trkpt lat="44.92117" lon="0.83346">
        <ele>134.8</ele>
        <time>2025-05-10T09:27:58Z</time>
      </trkpt>
      <trkpt lat="44.92112" lon="0.83349">
        <ele>135.4</ele>
        <time>2025-05-10T09:27:59Z</time>
      </trkpt>
      <trkpt lat="44.92108" lon="0.83351">
        <ele>135.8</ele>
        <time>2025-05-10T09:28:00Z</time>
      </trkpt>
      <trkpt lat="44.92103" lon="0.83353">
        <ele>136</ele>
        <time>2025-05-10T09:28:01Z</time>
      </trkpt>
      <trkpt lat="44.92099" lon="0.83356">
        <ele>136.4</ele>
        <time>2025-05-10T09:28:02Z</time>
      </trkpt>
      <trkpt lat="44.92095" lon="0.83358">
        <ele>136.6</ele>
        <time>2025-05-10T09:28:03Z</time>
      </trkpt>
      <trkpt lat="44.9209" lon="0.8336">
        <ele>136.8</ele>
        <time>2025-05-10T09:28:04Z</time>
      </trkpt>
      <trkpt lat="44.92086" lon="0.83362">
        <ele>137.2</ele>
        <time>2025-05-10T09:28:05Z</time>
      </trkpt>
      <trkpt lat="44.92081" lon="0.83365">
        <ele>137.2</ele>
        <time>2025-05-10T09:28:06Z</time>
      </trkpt>
      <trkpt lat="44.92077" lon="0.83367">
        <ele>137.2</ele>
        <time>2025-05-10T09:28:07Z</time>
      </trkpt>
      <trkpt lat="44.92071" lon="0.83368">
        <ele>137.2</ele>
        <time>2025-05-10T09:28:08Z</time>
      </trkpt>
      <trkpt lat="44.92067" lon="0.8337">
        <ele>137.2</ele>
        <time>2025-05-10T09:28:09Z</time>
      </trkpt>
      <trkpt lat="44.92063" lon="0.83374">
        <ele>137.2</ele>
        <time>2025-05-10T09:28:10Z</time>
      </trkpt>
      <trkpt lat="44.92059" lon="0.83379">
        <ele>137.2</ele>
        <time>2025-05-10T09:28:11Z</time>
      </trkpt>
      <trkpt lat="44.92054" lon="0.83383">
        <ele>137</ele>
        <time>2025-05-10T09:28:12Z</time>
      </trkpt>
      <trkpt lat="44.92048" lon="0.83386">
        <ele>136.8</ele>
        <time>2025-05-10T09:28:13Z</time>
      </trkpt>
      <trkpt lat="44.92042" lon="0.83389">
        <ele>136.6</ele>
        <time>2025-05-10T09:28:14Z</time>
      </trkpt>
      <trkpt lat="44.92035" lon="0.83389">
        <ele>135.8</ele>
        <time>2025-05-10T09:28:15Z</time>
      </trkpt>
      <trkpt lat="44.92028" lon="0.83386">
        <ele>135</ele>
        <time>2025-05-10T09:28:16Z</time>
      </trkpt>
      <trkpt lat="44.92022" lon="0.83381">
        <ele>134</ele>
        <time>2025-05-10T09:28:17Z</time>
      </trkpt>
      <trkpt lat="44.92018" lon="0.83376">
        <ele>133</ele>
        <time>2025-05-10T09:28:18Z</time>
      </trkpt>
      <trkpt lat="44.92016" lon="0.83372">
        <ele>132</ele>
        <time>2025-05-10T09:28:19Z</time>
      </trkpt>
      <trkpt lat="44.92013" lon="0.83371">
        <ele>131.2</ele>
        <time>2025-05-10T09:28:20Z</time>
      </trkpt>
      <trkpt lat="44.92012" lon="0.83373">
        <ele>131.2</ele>
        <time>2025-05-10T09:28:21Z</time>
      </trkpt>
      <trkpt lat="44.92012" lon="0.83375">
        <ele>131.2</ele>
        <time>2025-05-10T09:28:22Z</time>
      </trkpt>
      <trkpt lat="44.92013" lon="0.83378">
        <ele>131</ele>
        <time>2025-05-10T09:28:23Z</time>
      </trkpt>
      <trkpt lat="44.92014" lon="0.83383">
        <ele>131</ele>
        <time>2025-05-10T09:28:24Z</time>
      </trkpt>
      <trkpt lat="44.92014" lon="0.83389">
        <ele>131</ele>
        <time>2025-05-10T09:28:25Z</time>
      </trkpt>
      <trkpt lat="44.92015" lon="0.83396">
        <ele>131</ele>
        <time>2025-05-10T09:28:26Z</time>
      </trkpt>
      <trkpt lat="44.92015" lon="0.83404">
        <ele>130.2</ele>
        <time>2025-05-10T09:28:27Z</time>
      </trkpt>
      <trkpt lat="44.92016" lon="0.83413">
        <ele>128.6</ele>
        <time>2025-05-10T09:28:28Z</time>
      </trkpt>
      <trkpt lat="44.92016" lon="0.83423">
        <ele>127.6</ele>
        <time>2025-05-10T09:28:29Z</time>
      </trkpt>
      <trkpt lat="44.92015" lon="0.83434">
        <ele>126.2</ele>
        <time>2025-05-10T09:28:30Z</time>
      </trkpt>
      <trkpt lat="44.92016" lon="0.83445">
        <ele>124.6</ele>
        <time>2025-05-10T09:28:31Z</time>
      </trkpt>
      <trkpt lat="44.92016" lon="0.83456">
        <ele>123.8</ele>
        <time>2025-05-10T09:28:32Z</time>
      </trkpt>
      <trkpt lat="44.92015" lon="0.83468">
        <ele>123</ele>
        <time>2025-05-10T09:28:33Z</time>
      </trkpt>
      <trkpt lat="44.92013" lon="0.8348">
        <ele>121.2</ele>
        <time>2025-05-10T09:28:34Z</time>
      </trkpt>
      <trkpt lat="44.92011" lon="0.83491">
        <ele>120.6</ele>
        <time>2025-05-10T09:28:35Z</time>
      </trkpt>
      <trkpt lat="44.92009" lon="0.83504">
        <ele>119.4</ele>
        <time>2025-05-10T09:28:36Z</time>
      </trkpt>
      <trkpt lat="44.92007" lon="0.83517">
        <ele>118.8</ele>
        <time>2025-05-10T09:28:37Z</time>
      </trkpt>
      <trkpt lat="44.92004" lon="0.83528">
        <ele>118.2</ele>
        <time>2025-05-10T09:28:38Z</time>
      </trkpt>
      <trkpt lat="44.92" lon="0.8354">
        <ele>117.8</ele>
        <time>2025-05-10T09:28:39Z</time>
      </trkpt>
      <trkpt lat="44.91994" lon="0.83551">
        <ele>116.6</ele>
        <time>2025-05-10T09:28:40Z</time>
      </trkpt>
      <trkpt lat="44.9199" lon="0.8356">
        <ele>116</ele>
        <time>2025-05-10T09:28:41Z</time>
      </trkpt>
      <trkpt lat="44.91987" lon="0.83567">
        <ele>115</ele>
        <time>2025-05-10T09:28:42Z</time>
      </trkpt>
      <trkpt lat="44.91984" lon="0.83572">
        <ele>114</ele>
        <time>2025-05-10T09:28:43Z</time>
      </trkpt>
      <trkpt lat="44.91981" lon="0.83579">
        <ele>113.8</ele>
        <time>2025-05-10T09:28:44Z</time>
      </trkpt>
      <trkpt lat="44.91977" lon="0.83585">
        <ele>113.8</ele>
        <time>2025-05-10T09:28:45Z</time>
      </trkpt>
      <trkpt lat="44.91974" lon="0.8359">
        <ele>113.6</ele>
        <time>2025-05-10T09:28:46Z</time>
      </trkpt>
      <trkpt lat="44.9197" lon="0.83597">
        <ele>113.4</ele>
        <time>2025-05-10T09:28:47Z</time>
      </trkpt>
      <trkpt lat="44.91965" lon="0.83603">
        <ele>113.4</ele>
        <time>2025-05-10T09:28:48Z</time>
      </trkpt>
      <trkpt lat="44.91959" lon="0.83608">
        <ele>113.2</ele>
        <time>2025-05-10T09:28:49Z</time>
      </trkpt>
      <trkpt lat="44.91954" lon="0.83613">
        <ele>112.8</ele>
        <time>2025-05-10T09:28:50Z</time>
      </trkpt>
      <trkpt lat="44.91947" lon="0.83618">
        <ele>112.2</ele>
        <time>2025-05-10T09:28:51Z</time>
      </trkpt>
      <trkpt lat="44.9194" lon="0.83623">
        <ele>112</ele>
        <time>2025-05-10T09:28:52Z</time>
      </trkpt>
      <trkpt lat="44.91934" lon="0.83628">
        <ele>111.4</ele>
        <time>2025-05-10T09:28:53Z</time>
      </trkpt>
      <trkpt lat="44.91927" lon="0.83633">
        <ele>111</ele>
        <time>2025-05-10T09:28:54Z</time>
      </trkpt>
      <trkpt lat="44.9192" lon="0.83637">
        <ele>110.8</ele>
        <time>2025-05-10T09:28:55Z</time>
      </trkpt>
      <trkpt lat="44.91914" lon="0.8364">
        <ele>110.8</ele>
        <time>2025-05-10T09:28:56Z</time>
      </trkpt>
      <trkpt lat="44.91908" lon="0.83642">
        <ele>110.8</ele>
        <time>2025-05-10T09:28:57Z</time>
      </trkpt>
      <trkpt lat="44.91903" lon="0.83642">
        <ele>110.8</ele>
        <time>2025-05-10T09:28:58Z</time>
      </trkpt>
      <trkpt lat="44.91899" lon="0.8364">
        <ele>111.6</ele>
        <time>2025-05-10T09:28:59Z</time>
      </trkpt>
      <trkpt lat="44.91896" lon="0.83639">
        <ele>112.4</ele>
        <time>2025-05-10T09:29:00Z</time>
      </trkpt>
      <trkpt lat="44.91893" lon="0.83638">
        <ele>113.2</ele>
        <time>2025-05-10T09:29:01Z</time>
      </trkpt>
      <trkpt lat="44.91892" lon="0.83636">
        <ele>114</ele>
        <time>2025-05-10T09:29:02Z</time>
      </trkpt>
      <trkpt lat="44.91891" lon="0.83634">
        <ele>114.8</ele>
        <time>2025-05-10T09:29:03Z</time>
      </trkpt>
      <trkpt lat="44.9189" lon="0.83632">
        <ele>115.6</ele>
        <time>2025-05-10T09:29:04Z</time>
      </trkpt>
      <trkpt lat="44.91888" lon="0.8363">
        <ele>116.2</ele>
        <time>2025-05-10T09:29:05Z</time>
      </trkpt>
      <trkpt lat="44.91886" lon="0.83628">
        <ele>116.8</ele>
        <time>2025-05-10T09:29:06Z</time>
      </trkpt>
      <trkpt lat="44.91884" lon="0.83627">
        <ele>117.4</ele>
        <time>2025-05-10T09:29:07Z</time>
      </trkpt>
      <trkpt lat="44.91882" lon="0.83624">
        <ele>117.6</ele>
        <time>2025-05-10T09:29:08Z</time>
      </trkpt>
      <trkpt lat="44.91881" lon="0.83622">
        <ele>118</ele>
        <time>2025-05-10T09:29:09Z</time>
      </trkpt>
      <trkpt lat="44.91879" lon="0.8362">
        <ele>118.4</ele>
        <time>2025-05-10T09:29:10Z</time>
      </trkpt>
      <trkpt lat="44.91877" lon="0.83618">
        <ele>118.6</ele>
        <time>2025-05-10T09:29:11Z</time>
      </trkpt>
      <trkpt lat="44.91875" lon="0.83616">
        <ele>119</ele>
        <time>2025-05-10T09:29:12Z</time>
      </trkpt>
      <trkpt lat="44.91874" lon="0.83614">
        <ele>119.4</ele>
        <time>2025-05-10T09:29:13Z</time>
      </trkpt>
      <trkpt lat="44.91872" lon="0.83613">
        <ele>119.8</ele>
        <time>2025-05-10T09:29:14Z</time>
      </trkpt>
      <trkpt lat="44.9187" lon="0.83611">
        <ele>120</ele>
        <time>2025-05-10T09:29:15Z</time>
      </trkpt>
      <trkpt lat="44.91869" lon="0.8361">
        <ele>120.4</ele>
        <time>2025-05-10T09:29:16Z</time>
      </trkpt>
      <trkpt lat="44.91867" lon="0.83608">
        <ele>120.8</ele>
        <time>2025-05-10T09:29:17Z</time>
      </trkpt>
      <trkpt lat="44.91866" lon="0.83606">
        <ele>121</ele>
        <time>2025-05-10T09:29:18Z</time>
      </trkpt>
      <trkpt lat="44.91865" lon="0.83604">
        <ele>121.4</ele>
        <time>2025-05-10T09:29:19Z</time>
      </trkpt>
      <trkpt lat="44.91863" lon="0.83603">
        <ele>121.6</ele>
        <time>2025-05-10T09:29:20Z</time>
      </trkpt>
      <trkpt lat="44.91861" lon="0.83601">
        <ele>121.8</ele>
        <time>2025-05-10T09:29:21Z</time>
      </trkpt>
      <trkpt lat="44.9186" lon="0.836">
        <ele>122</ele>
        <time>2025-05-10T09:29:22Z</time>
      </trkpt>
      <trkpt lat="44.91858" lon="0.83599">
        <ele>122.4</ele>
        <time>2025-05-10T09:29:23Z</time>
      </trkpt>
      <trkpt lat="44.91856" lon="0.83598">
        <ele>122.4</ele>
        <time>2025-05-10T09:29:24Z</time>
      </trkpt>
      <trkpt lat="44.91854" lon="0.83597">
        <ele>122.6</ele>
        <time>2025-05-10T09:29:25Z</time>
      </trkpt>
      <trkpt lat="44.91853" lon="0.83596">
        <ele>122.8</ele>
        <time>2025-05-10T09:29:26Z</time>
      </trkpt>
      <trkpt lat="44.91851" lon="0.83594">
        <ele>122.8</ele>
        <time>2025-05-10T09:29:27Z</time>
      </trkpt>
      <trkpt lat="44.91849" lon="0.83594">
        <ele>123</ele>
        <time>2025-05-10T09:29:28Z</time>
      </trkpt>
      <trkpt lat="44.91848" lon="0.83593">
        <ele>123.2</ele>
        <time>2025-05-10T09:29:29Z</time>
      </trkpt>
      <trkpt lat="44.91846" lon="0.83592">
        <ele>123.2</ele>
        <time>2025-05-10T09:29:30Z</time>
      </trkpt>
      <trkpt lat="44.91844" lon="0.83591">
        <ele>123.2</ele>
        <time>2025-05-10T09:29:31Z</time>
      </trkpt>
      <trkpt lat="44.91842" lon="0.83589">
        <ele>123.4</ele>
        <time>2025-05-10T09:29:32Z</time>
      </trkpt>
      <trkpt lat="44.9184" lon="0.83588">
        <ele>123.4</ele>
        <time>2025-05-10T09:29:33Z</time>
      </trkpt>
      <trkpt lat="44.91838" lon="0.83587">
        <ele>123.4</ele>
        <time>2025-05-10T09:29:34Z</time>
      </trkpt>
      <trkpt lat="44.91835" lon="0.83587">
        <ele>123.6</ele>
        <time>2025-05-10T09:29:35Z</time>
      </trkpt>
      <trkpt lat="44.91833" lon="0.83586">
        <ele>123.6</ele>
        <time>2025-05-10T09:29:36Z</time>
      </trkpt>
      <trkpt lat="44.9183" lon="0.83585">
        <ele>123.6</ele>
        <time>2025-05-10T09:29:37Z</time>
      </trkpt>
      <trkpt lat="44.91828" lon="0.83585">
        <ele>123.8</ele>
        <time>2025-05-10T09:29:38Z</time>
      </trkpt>
      <trkpt lat="44.91825" lon="0.83585">
        <ele>124</ele>
        <time>2025-05-10T09:29:39Z</time>
      </trkpt>
      <trkpt lat="44.91823" lon="0.83585">
        <ele>124.4</ele>
        <time>2025-05-10T09:29:40Z</time>
      </trkpt>
      <trkpt lat="44.9182" lon="0.83585">
        <ele>124.6</ele>
        <time>2025-05-10T09:29:41Z</time>
      </trkpt>
      <trkpt lat="44.91818" lon="0.83585">
        <ele>124.6</ele>
        <time>2025-05-10T09:29:42Z</time>
      </trkpt>
      <trkpt lat="44.91816" lon="0.83586">
        <ele>124.6</ele>
        <time>2025-05-10T09:29:43Z</time>
      </trkpt>
      <trkpt lat="44.91813" lon="0.83586">
        <ele>124.6</ele>
        <time>2025-05-10T09:29:44Z</time>
      </trkpt>
      <trkpt lat="44.91811" lon="0.83586">
        <ele>124.8</ele>
        <time>2025-05-10T09:29:45Z</time>
      </trkpt>
      <trkpt lat="44.91809" lon="0.83587">
        <ele>125</ele>
        <time>2025-05-10T09:29:46Z</time>
      </trkpt>
      <trkpt lat="44.91806" lon="0.83587">
        <ele>125</ele>
        <time>2025-05-10T09:29:47Z</time>
      </trkpt>
      <trkpt lat="44.91804" lon="0.83587">
        <ele>125</ele>
        <time>2025-05-10T09:29:48Z</time>
      </trkpt>
      <trkpt lat="44.91802" lon="0.83588">
        <ele>125</ele>
        <time>2025-05-10T09:29:49Z</time>
      </trkpt>
      <trkpt lat="44.918" lon="0.83588">
        <ele>124.8</ele>
        <time>2025-05-10T09:29:50Z</time>
      </trkpt>
      <trkpt lat="44.91798" lon="0.83588">
        <ele>124.6</ele>
        <time>2025-05-10T09:29:51Z</time>
      </trkpt>
      <trkpt lat="44.91796" lon="0.83588">
        <ele>124.6</ele>
        <time>2025-05-10T09:29:52Z</time>
      </trkpt>
      <trkpt lat="44.91794" lon="0.83588">
        <ele>124.6</ele>
        <time>2025-05-10T09:29:53Z</time>
      </trkpt>
      <trkpt lat="44.91792" lon="0.83587">
        <ele>124.8</ele>
        <time>2025-05-10T09:29:54Z</time>
      </trkpt>
      <trkpt lat="44.9179" lon="0.83586">
        <ele>124.8</ele>
        <time>2025-05-10T09:29:55Z</time>
      </trkpt>
      <trkpt lat="44.91788" lon="0.83586">
        <ele>125</ele>
        <time>2025-05-10T09:29:56Z</time>
      </trkpt>
      <trkpt lat="44.91785" lon="0.83585">
        <ele>125.2</ele>
        <time>2025-05-10T09:29:57Z</time>
      </trkpt>
      <trkpt lat="44.91783" lon="0.83585">
        <ele>125.4</ele>
        <time>2025-05-10T09:29:58Z</time>
      </trkpt>
      <trkpt lat="44.91781" lon="0.83584">
        <ele>125.6</ele>
        <time>2025-05-10T09:29:59Z</time>
      </trkpt>
      <trkpt lat="44.91779" lon="0.83583">
        <ele>125.8</ele>
        <time>2025-05-10T09:30:00Z</time>
      </trkpt>
      <trkpt lat="44.91777" lon="0.83582">
        <ele>125.8</ele>
        <time>2025-05-10T09:30:01Z</time>
      </trkpt>
      <trkpt lat="44.91775" lon="0.83581">
        <ele>126.2</ele>
        <time>2025-05-10T09:30:02Z</time>
      </trkpt>
      <trkpt lat="44.91773" lon="0.8358">
        <ele>126.6</ele>
        <time>2025-05-10T09:30:03Z</time>
      </trkpt>
      <trkpt lat="44.91771" lon="0.83578">
        <ele>126.6</ele>
        <time>2025-05-10T09:30:04Z</time>
      </trkpt>
      <trkpt lat="44.91769" lon="0.83577">
        <ele>126.6</ele>
        <time>2025-05-10T09:30:05Z</time>
      </trkpt>
      <trkpt lat="44.91767" lon="0.83575">
        <ele>126.8</ele>
        <time>2025-05-10T09:30:06Z</time>
      </trkpt>
      <trkpt lat="44.91765" lon="0.83574">
        <ele>126.8</ele>
        <time>2025-05-10T09:30:07Z</time>
      </trkpt>
      <trkpt lat="44.91763" lon="0.83573">
        <ele>127</ele>
        <time>2025-05-10T09:30:08Z</time>
      </trkpt>
      <trkpt lat="44.91761" lon="0.83572">
        <ele>127</ele>
        <time>2025-05-10T09:30:09Z</time>
      </trkpt>
      <trkpt lat="44.91759" lon="0.83571">
        <ele>127.2</ele>
        <time>2025-05-10T09:30:10Z</time>
      </trkpt>
      <trkpt lat="44.91757" lon="0.83569">
        <ele>127.6</ele>
        <time>2025-05-10T09:30:11Z</time>
      </trkpt>
      <trkpt lat="44.91755" lon="0.83568">
        <ele>127.6</ele>
        <time>2025-05-10T09:30:12Z</time>
      </trkpt>
      <trkpt lat="44.91753" lon="0.83566">
        <ele>127.6</ele>
        <time>2025-05-10T09:30:13Z</time>
      </trkpt>
      <trkpt lat="44.91751" lon="0.83565">
        <ele>127.8</ele>
        <time>2025-05-10T09:30:14Z</time>
      </trkpt>
      <trkpt lat="44.91749" lon="0.83564">
        <ele>128</ele>
        <time>2025-05-10T09:30:15Z</time>
      </trkpt>
      <trkpt lat="44.91747" lon="0.83563">
        <ele>128.2</ele>
        <time>2025-05-10T09:30:16Z</time>
      </trkpt>
      <trkpt lat="44.91746" lon="0.83562">
        <ele>128.4</ele>
        <time>2025-05-10T09:30:17Z</time>
      </trkpt>
      <trkpt lat="44.91744" lon="0.83561">
        <ele>128.6</ele>
        <time>2025-05-10T09:30:18Z</time>
      </trkpt>
      <trkpt lat="44.91742" lon="0.8356">
        <ele>128.8</ele>
        <time>2025-05-10T09:30:19Z</time>
      </trkpt>
      <trkpt lat="44.9174" lon="0.8356">
        <ele>129</ele>
        <time>2025-05-10T09:30:20Z</time>
      </trkpt>
      <trkpt lat="44.91737" lon="0.8356">
        <ele>129.2</ele>
        <time>2025-05-10T09:30:21Z</time>
      </trkpt>
      <trkpt lat="44.91735" lon="0.8356">
        <ele>129.4</ele>
        <time>2025-05-10T09:30:22Z</time>
      </trkpt>
      <trkpt lat="44.91733" lon="0.83561">
        <ele>129.6</ele>
        <time>2025-05-10T09:30:23Z</time>
      </trkpt>
      <trkpt lat="44.9173" lon="0.83562">
        <ele>129.8</ele>
        <time>2025-05-10T09:30:24Z</time>
      </trkpt>
      <trkpt lat="44.91728" lon="0.83563">
        <ele>130</ele>
        <time>2025-05-10T09:30:25Z</time>
      </trkpt>
      <trkpt lat="44.91726" lon="0.83564">
        <ele>130.2</ele>
        <time>2025-05-10T09:30:26Z</time>
      </trkpt>
      <trkpt lat="44.91724" lon="0.83564">
        <ele>130.2</ele>
        <time>2025-05-10T09:30:27Z</time>
      </trkpt>
      <trkpt lat="44.91722" lon="0.83565">
        <ele>130.4</ele>
        <time>2025-05-10T09:30:28Z</time>
      </trkpt>
      <trkpt lat="44.9172" lon="0.83566">
        <ele>130.6</ele>
        <time>2025-05-10T09:30:29Z</time>
      </trkpt>
      <trkpt lat="44.91718" lon="0.83567">
        <ele>131</ele>
        <time>2025-05-10T09:30:30Z</time>
      </trkpt>
      <trkpt lat="44.91716" lon="0.83568">
        <ele>131.2</ele>
        <time>2025-05-10T09:30:31Z</time>
      </trkpt>
      <trkpt lat="44.91714" lon="0.8357">
        <ele>131.6</ele>
        <time>2025-05-10T09:30:32Z</time>
      </trkpt>
      <trkpt lat="44.91712" lon="0.83571">
        <ele>131.8</ele>
        <time>2025-05-10T09:30:33Z</time>
      </trkpt>
      <trkpt lat="44.9171" lon="0.83572">
        <ele>132</ele>
        <time>2025-05-10T09:30:34Z</time>
      </trkpt>
      <trkpt lat="44.91708" lon="0.83573">
        <ele>132.2</ele>
        <time>2025-05-10T09:30:35Z</time>
      </trkpt>
      <trkpt lat="44.91705" lon="0.83574">
        <ele>132.4</ele>
        <time>2025-05-10T09:30:36Z</time>
      </trkpt>
      <trkpt lat="44.91703" lon="0.83576">
        <ele>132.8</ele>
        <time>2025-05-10T09:30:37Z</time>
      </trkpt>
      <trkpt lat="44.91701" lon="0.83577">
        <ele>133</ele>
        <time>2025-05-10T09:30:38Z</time>
      </trkpt>
      <trkpt lat="44.91699" lon="0.83578">
        <ele>133.2</ele>
        <time>2025-05-10T09:30:39Z</time>
      </trkpt>
      <trkpt lat="44.91697" lon="0.8358">
        <ele>133.4</ele>
        <time>2025-05-10T09:30:40Z</time>
      </trkpt>
      <trkpt lat="44.91696" lon="0.83581">
        <ele>133.4</ele>
        <time>2025-05-10T09:30:41Z</time>
      </trkpt>
      <trkpt lat="44.91694" lon="0.83582">
        <ele>133.4</ele>
        <time>2025-05-10T09:30:42Z</time>
      </trkpt>
      <trkpt lat="44.91692" lon="0.83584">
        <ele>133.6</ele>
        <time>2025-05-10T09:30:43Z</time>
      </trkpt>
      <trkpt lat="44.9169" lon="0.83585">
        <ele>133.8</ele>
        <time>2025-05-10T09:30:44Z</time>
      </trkpt>
      <trkpt lat="44.91688" lon="0.83587">
        <ele>134</ele>
        <time>2025-05-10T09:30:45Z</time>
      </trkpt>
      <trkpt lat="44.91687" lon="0.83588">
        <ele>134.2</ele>
        <time>2025-05-10T09:30:46Z</time>
      </trkpt>
      <trkpt lat="44.91685" lon="0.8359">
        <ele>134.4</ele>
        <time>2025-05-10T09:30:47Z</time>
      </trkpt>
      <trkpt lat="44.91683" lon="0.83591">
        <ele>134.4</ele>
        <time>2025-05-10T09:30:48Z</time>
      </trkpt>
      <trkpt lat="44.91681" lon="0.83593">
        <ele>134.6</ele>
        <time>2025-05-10T09:30:49Z</time>
      </trkpt>
      <trkpt lat="44.9168" lon="0.83595">
        <ele>134.8</ele>
        <time>2025-05-10T09:30:50Z</time>
      </trkpt>
      <trkpt lat="44.91678" lon="0.83597">
        <ele>135</ele>
        <time>2025-05-10T09:30:51Z</time>
      </trkpt>
      <trkpt lat="44.91676" lon="0.83599">
        <ele>135.2</ele>
        <time>2025-05-10T09:30:52Z</time>
      </trkpt>
      <trkpt lat="44.91674" lon="0.83601">
        <ele>135.4</ele>
        <time>2025-05-10T09:30:53Z</time>
      </trkpt>
      <trkpt lat="44.91673" lon="0.83603">
        <ele>135.6</ele>
        <time>2025-05-10T09:30:54Z</time>
      </trkpt>
      <trkpt lat="44.91671" lon="0.83605">
        <ele>135.8</ele>
        <time>2025-05-10T09:30:55Z</time>
      </trkpt>
      <trkpt lat="44.91669" lon="0.83607">
        <ele>135.8</ele>
        <time>2025-05-10T09:30:56Z</time>
      </trkpt>
      <trkpt lat="44.91668" lon="0.83609">
        <ele>136</ele>
        <time>2025-05-10T09:30:57Z</time>
      </trkpt>
      <trkpt lat="44.91666" lon="0.83611">
        <ele>136</ele>
        <time>2025-05-10T09:30:58Z</time>
      </trkpt>
      <trkpt lat="44.91664" lon="0.83613">
        <ele>136</ele>
        <time>2025-05-10T09:30:59Z</time>
      </trkpt>
      <trkpt lat="44.91662" lon="0.83615">
        <ele>136.2</ele>
        <time>2025-05-10T09:31:00Z</time>
      </trkpt>
      <trkpt lat="44.9166" lon="0.83617">
        <ele>136.4</ele>
        <time>2025-05-10T09:31:01Z</time>
      </trkpt>
      <trkpt lat="44.91658" lon="0.83619">
        <ele>136.6</ele>
        <time>2025-05-10T09:31:02Z</time>
      </trkpt>
      <trkpt lat="44.91657" lon="0.83621">
        <ele>136.8</ele>
        <time>2025-05-10T09:31:03Z</time>
      </trkpt>
      <trkpt lat="44.91655" lon="0.83623">
        <ele>137</ele>
        <time>2025-05-10T09:31:04Z</time>
      </trkpt>
      <trkpt lat="44.91653" lon="0.83625">
        <ele>137.4</ele>
        <time>2025-05-10T09:31:05Z</time>
      </trkpt>
      <trkpt lat="44.91652" lon="0.83626">
        <ele>137.4</ele>
        <time>2025-05-10T09:31:06Z</time>
      </trkpt>
      <trkpt lat="44.9165" lon="0.83628">
        <ele>137.6</ele>
        <time>2025-05-10T09:31:07Z</time>
      </trkpt>
      <trkpt lat="44.91649" lon="0.8363">
        <ele>137.8</ele>
        <time>2025-05-10T09:31:08Z</time>
      </trkpt>
      <trkpt lat="44.91647" lon="0.83632">
        <ele>138</ele>
        <time>2025-05-10T09:31:09Z</time>
      </trkpt>
      <trkpt lat="44.91645" lon="0.83634">
        <ele>138.2</ele>
        <time>2025-05-10T09:31:10Z</time>
      </trkpt>
      <trkpt lat="44.91643" lon="0.83636">
        <ele>138.4</ele>
        <time>2025-05-10T09:31:11Z</time>
      </trkpt>
      <trkpt lat="44.91642" lon="0.83638">
        <ele>138.4</ele>
        <time>2025-05-10T09:31:12Z</time>
      </trkpt>
      <trkpt lat="44.9164" lon="0.8364">
        <ele>138.6</ele>
        <time>2025-05-10T09:31:13Z</time>
      </trkpt>
      <trkpt lat="44.91638" lon="0.83643">
        <ele>138.6</ele>
        <time>2025-05-10T09:31:14Z</time>
      </trkpt>
      <trkpt lat="44.91637" lon="0.83645">
        <ele>138.6</ele>
        <time>2025-05-10T09:31:15Z</time>
      </trkpt>
      <trkpt lat="44.91635" lon="0.83647">
        <ele>138.8</ele>
        <time>2025-05-10T09:31:16Z</time>
      </trkpt>
      <trkpt lat="44.91634" lon="0.8365">
        <ele>139</ele>
        <time>2025-05-10T09:31:17Z</time>
      </trkpt>
      <trkpt lat="44.91632" lon="0.83653">
        <ele>139.4</ele>
        <time>2025-05-10T09:31:18Z</time>
      </trkpt>
      <trkpt lat="44.91631" lon="0.83655">
        <ele>139.6</ele>
        <time>2025-05-10T09:31:19Z</time>
      </trkpt>
      <trkpt lat="44.91629" lon="0.83657">
        <ele>139.8</ele>
        <time>2025-05-10T09:31:20Z</time>
      </trkpt>
      <trkpt lat="44.91628" lon="0.83659">
        <ele>140</ele>
        <time>2025-05-10T09:31:21Z</time>
      </trkpt>
      <trkpt lat="44.91626" lon="0.83662">
        <ele>140.2</ele>
        <time>2025-05-10T09:31:22Z</time>
      </trkpt>
      <trkpt lat="44.91625" lon="0.83664">
        <ele>140.6</ele>
        <time>2025-05-10T09:31:23Z</time>
      </trkpt>
      <trkpt lat="44.91623" lon="0.83666">
        <ele>140.6</ele>
        <time>2025-05-10T09:31:24Z</time>
      </trkpt>
      <trkpt lat="44.91622" lon="0.83669">
        <ele>140.8</ele>
        <time>2025-05-10T09:31:25Z</time>
      </trkpt>
      <trkpt lat="44.91621" lon="0.83671">
        <ele>140.8</ele>
        <time>2025-05-10T09:31:26Z</time>
      </trkpt>
      <trkpt lat="44.9162" lon="0.83674">
        <ele>141</ele>
        <time>2025-05-10T09:31:27Z</time>
      </trkpt>
      <trkpt lat="44.91618" lon="0.83676">
        <ele>141</ele>
        <time>2025-05-10T09:31:28Z</time>
      </trkpt>
      <trkpt lat="44.91617" lon="0.83678">
        <ele>141.2</ele>
        <time>2025-05-10T09:31:29Z</time>
      </trkpt>
      <trkpt lat="44.91615" lon="0.8368">
        <ele>141.2</ele>
        <time>2025-05-10T09:31:30Z</time>
      </trkpt>
      <trkpt lat="44.91614" lon="0.83683">
        <ele>141.2</ele>
        <time>2025-05-10T09:31:31Z</time>
      </trkpt>
      <trkpt lat="44.91612" lon="0.83686">
        <ele>141.6</ele>
        <time>2025-05-10T09:31:32Z</time>
      </trkpt>
      <trkpt lat="44.91611" lon="0.83688">
        <ele>141.6</ele>
        <time>2025-05-10T09:31:33Z</time>
      </trkpt>
      <trkpt lat="44.91609" lon="0.83691">
        <ele>142</ele>
        <time>2025-05-10T09:31:34Z</time>
      </trkpt>
      <trkpt lat="44.91607" lon="0.83693">
        <ele>142.2</ele>
        <time>2025-05-10T09:31:35Z</time>
      </trkpt>
      <trkpt lat="44.91606" lon="0.83696">
        <ele>142.6</ele>
        <time>2025-05-10T09:31:36Z</time>
      </trkpt>
      <trkpt lat="44.91605" lon="0.83698">
        <ele>142.6</ele>
        <time>2025-05-10T09:31:37Z</time>
      </trkpt>
      <trkpt lat="44.91603" lon="0.83701">
        <ele>142.8</ele>
        <time>2025-05-10T09:31:38Z</time>
      </trkpt>
      <trkpt lat="44.91601" lon="0.83702">
        <ele>143</ele>
        <time>2025-05-10T09:31:39Z</time>
      </trkpt>
      <trkpt lat="44.916" lon="0.83705">
        <ele>143.2</ele>
        <time>2025-05-10T09:31:40Z</time>
      </trkpt>
      <trkpt lat="44.91598" lon="0.83707">
        <ele>143.2</ele>
        <time>2025-05-10T09:31:41Z</time>
      </trkpt>
      <trkpt lat="44.91597" lon="0.83709">
        <ele>143.4</ele>
        <time>2025-05-10T09:31:42Z</time>
      </trkpt>
      <trkpt lat="44.91595" lon="0.83711">
        <ele>143.4</ele>
        <time>2025-05-10T09:31:43Z</time>
      </trkpt>
      <trkpt lat="44.91594" lon="0.83714">
        <ele>143.4</ele>
        <time>2025-05-10T09:31:44Z</time>
      </trkpt>
      <trkpt lat="44.91592" lon="0.83716">
        <ele>143.8</ele>
        <time>2025-05-10T09:31:45Z</time>
      </trkpt>
      <trkpt lat="44.91591" lon="0.83718">
        <ele>144</ele>
        <time>2025-05-10T09:31:46Z</time>
      </trkpt>
      <trkpt lat="44.91589" lon="0.8372">
        <ele>144.2</ele>
        <time>2025-05-10T09:31:47Z</time>
      </trkpt>
      <trkpt lat="44.91587" lon="0.83722">
        <ele>144.4</ele>
        <time>2025-05-10T09:31:48Z</time>
      </trkpt>
      <trkpt lat="44.91586" lon="0.83724">
        <ele>144.6</ele>
        <time>2025-05-10T09:31:49Z</time>
      </trkpt>
      <trkpt lat="44.91584" lon="0.83726">
        <ele>144.8</ele>
        <time>2025-05-10T09:31:50Z</time>
      </trkpt>
      <trkpt lat="44.91582" lon="0.83728">
        <ele>145</ele>
        <time>2025-05-10T09:31:51Z</time>
      </trkpt>
      <trkpt lat="44.91581" lon="0.83729">
        <ele>145.2</ele>
        <time>2025-05-10T09:31:52Z</time>
      </trkpt>
      <trkpt lat="44.91579" lon="0.83731">
        <ele>145.6</ele>
        <time>2025-05-10T09:31:53Z</time>
      </trkpt>
      <trkpt lat="44.91577" lon="0.83733">
        <ele>145.8</ele>
        <time>2025-05-10T09:31:54Z</time>
      </trkpt>
      <trkpt lat="44.91575" lon="0.83734">
        <ele>146</ele>
        <time>2025-05-10T09:31:55Z</time>
      </trkpt>
      <trkpt lat="44.91574" lon="0.83736">
        <ele>146.2</ele>
        <time>2025-05-10T09:31:56Z</time>
      </trkpt>
      <trkpt lat="44.91572" lon="0.83739">
        <ele>146.4</ele>
        <time>2025-05-10T09:31:57Z</time>
      </trkpt>
      <trkpt lat="44.9157" lon="0.83741">
        <ele>146.6</ele>
        <time>2025-05-10T09:31:58Z</time>
      </trkpt>
      <trkpt lat="44.91568" lon="0.83743">
        <ele>146.6</ele>
        <time>2025-05-10T09:31:59Z</time>
      </trkpt>
      <trkpt lat="44.91567" lon="0.83745">
        <ele>146.8</ele>
        <time>2025-05-10T09:32:00Z</time>
      </trkpt>
      <trkpt lat="44.91565" lon="0.83748">
        <ele>147</ele>
        <time>2025-05-10T09:32:01Z</time>
      </trkpt>
      <trkpt lat="44.91564" lon="0.8375">
        <ele>147.2</ele>
        <time>2025-05-10T09:32:02Z</time>
      </trkpt>
      <trkpt lat="44.91563" lon="0.83753">
        <ele>147.2</ele>
        <time>2025-05-10T09:32:03Z</time>
      </trkpt>
      <trkpt lat="44.91562" lon="0.83756">
        <ele>147.4</ele>
        <time>2025-05-10T09:32:04Z</time>
      </trkpt>
      <trkpt lat="44.91562" lon="0.83759">
        <ele>147.6</ele>
        <time>2025-05-10T09:32:05Z</time>
      </trkpt>
      <trkpt lat="44.91561" lon="0.83762">
        <ele>147.6</ele>
        <time>2025-05-10T09:32:06Z</time>
      </trkpt>
      <trkpt lat="44.9156" lon="0.83765">
        <ele>147.8</ele>
        <time>2025-05-10T09:32:07Z</time>
      </trkpt>
      <trkpt lat="44.91559" lon="0.83769">
        <ele>148</ele>
        <time>2025-05-10T09:32:08Z</time>
      </trkpt>
      <trkpt lat="44.91558" lon="0.83771">
        <ele>148</ele>
        <time>2025-05-10T09:32:09Z</time>
      </trkpt>
      <trkpt lat="44.91557" lon="0.83774">
        <ele>148.2</ele>
        <time>2025-05-10T09:32:10Z</time>
      </trkpt>
      <trkpt lat="44.91556" lon="0.83777">
        <ele>148.2</ele>
        <time>2025-05-10T09:32:11Z</time>
      </trkpt>
      <trkpt lat="44.91555" lon="0.83781">
        <ele>148.4</ele>
        <time>2025-05-10T09:32:12Z</time>
      </trkpt>
      <trkpt lat="44.91554" lon="0.83784">
        <ele>148.4</ele>
        <time>2025-05-10T09:32:13Z</time>
      </trkpt>
      <trkpt lat="44.91553" lon="0.83787">
        <ele>148.6</ele>
        <time>2025-05-10T09:32:14Z</time>
      </trkpt>
      <trkpt lat="44.91551" lon="0.8379">
        <ele>148.6</ele>
        <time>2025-05-10T09:32:15Z</time>
      </trkpt>
      <trkpt lat="44.91549" lon="0.83794">
        <ele>148.8</ele>
        <time>2025-05-10T09:32:16Z</time>
      </trkpt>
      <trkpt lat="44.91548" lon="0.83797">
        <ele>149</ele>
        <time>2025-05-10T09:32:17Z</time>
      </trkpt>
      <trkpt lat="44.91546" lon="0.838">
        <ele>149</ele>
        <time>2025-05-10T09:32:18Z</time>
      </trkpt>
      <trkpt lat="44.91544" lon="0.83802">
        <ele>149.2</ele>
        <time>2025-05-10T09:32:19Z</time>
      </trkpt>
      <trkpt lat="44.91542" lon="0.83804">
        <ele>149.2</ele>
        <time>2025-05-10T09:32:20Z</time>
      </trkpt>
      <trkpt lat="44.9154" lon="0.83806">
        <ele>149.2</ele>
        <time>2025-05-10T09:32:21Z</time>
      </trkpt>
      <trkpt lat="44.91538" lon="0.83807">
        <ele>149.2</ele>
        <time>2025-05-10T09:32:22Z</time>
      </trkpt>
      <trkpt lat="44.91536" lon="0.83809">
        <ele>149.4</ele>
        <time>2025-05-10T09:32:23Z</time>
      </trkpt>
      <trkpt lat="44.91533" lon="0.8381">
        <ele>149.4</ele>
        <time>2025-05-10T09:32:24Z</time>
      </trkpt>
      <trkpt lat="44.91531" lon="0.83811">
        <ele>149.8</ele>
        <time>2025-05-10T09:32:25Z</time>
      </trkpt>
      <trkpt lat="44.91528" lon="0.83812">
        <ele>150</ele>
        <time>2025-05-10T09:32:26Z</time>
      </trkpt>
      <trkpt lat="44.91526" lon="0.83813">
        <ele>150.2</ele>
        <time>2025-05-10T09:32:27Z</time>
      </trkpt>
      <trkpt lat="44.91524" lon="0.83815">
        <ele>150.6</ele>
        <time>2025-05-10T09:32:28Z</time>
      </trkpt>
      <trkpt lat="44.91522" lon="0.83816">
        <ele>150.6</ele>
        <time>2025-05-10T09:32:29Z</time>
      </trkpt>
      <trkpt lat="44.91519" lon="0.83818">
        <ele>150.8</ele>
        <time>2025-05-10T09:32:30Z</time>
      </trkpt>
      <trkpt lat="44.91517" lon="0.83819">
        <ele>151</ele>
        <time>2025-05-10T09:32:31Z</time>
      </trkpt>
      <trkpt lat="44.91515" lon="0.8382">
        <ele>151</ele>
        <time>2025-05-10T09:32:32Z</time>
      </trkpt>
      <trkpt lat="44.91512" lon="0.83821">
        <ele>151.2</ele>
        <time>2025-05-10T09:32:33Z</time>
      </trkpt>
      <trkpt lat="44.9151" lon="0.83823">
        <ele>151.4</ele>
        <time>2025-05-10T09:32:34Z</time>
      </trkpt>
      <trkpt lat="44.91507" lon="0.83824">
        <ele>151.6</ele>
        <time>2025-05-10T09:32:35Z</time>
      </trkpt>
      <trkpt lat="44.91505" lon="0.83826">
        <ele>152</ele>
        <time>2025-05-10T09:32:36Z</time>
      </trkpt>
      <trkpt lat="44.91503" lon="0.83828">
        <ele>152.2</ele>
        <time>2025-05-10T09:32:37Z</time>
      </trkpt>
      <trkpt lat="44.91501" lon="0.8383">
        <ele>152.4</ele>
        <time>2025-05-10T09:32:38Z</time>
      </trkpt>
      <trkpt lat="44.91498" lon="0.83831">
        <ele>152.6</ele>
        <time>2025-05-10T09:32:39Z</time>
      </trkpt>
      <trkpt lat="44.91496" lon="0.83833">
        <ele>152.8</ele>
        <time>2025-05-10T09:32:40Z</time>
      </trkpt>
      <trkpt lat="44.91494" lon="0.83835">
        <ele>153</ele>
        <time>2025-05-10T09:32:41Z</time>
      </trkpt>
      <trkpt lat="44.91491" lon="0.83837">
        <ele>153</ele>
        <time>2025-05-10T09:32:42Z</time>
      </trkpt>
      <trkpt lat="44.91489" lon="0.83838">
        <ele>153.2</ele>
        <time>2025-05-10T09:32:43Z</time>
      </trkpt>
      <trkpt lat="44.91487" lon="0.8384">
        <ele>153.4</ele>
        <time>2025-05-10T09:32:44Z</time>
      </trkpt>
      <trkpt lat="44.91485" lon="0.83842">
        <ele>153.6</ele>
        <time>2025-05-10T09:32:45Z</time>
      </trkpt>
      <trkpt lat="44.91483" lon="0.83843">
        <ele>153.8</ele>
        <time>2025-05-10T09:32:46Z</time>
      </trkpt>
      <trkpt lat="44.91481" lon="0.83845">
        <ele>153.8</ele>
        <time>2025-05-10T09:32:47Z</time>
      </trkpt>
      <trkpt lat="44.91479" lon="0.83846">
        <ele>154</ele>
        <time>2025-05-10T09:32:48Z</time>
      </trkpt>
      <trkpt lat="44.91477" lon="0.83847">
        <ele>154</ele>
        <time>2025-05-10T09:32:49Z</time>
      </trkpt>
      <trkpt lat="44.91475" lon="0.83848">
        <ele>154.2</ele>
        <time>2025-05-10T09:32:50Z</time>
      </trkpt>
      <trkpt lat="44.91473" lon="0.83849">
        <ele>154.2</ele>
        <time>2025-05-10T09:32:51Z</time>
      </trkpt>
      <trkpt lat="44.91471" lon="0.8385">
        <ele>154.4</ele>
        <time>2025-05-10T09:32:52Z</time>
      </trkpt>
      <trkpt lat="44.91468" lon="0.83852">
        <ele>154.6</ele>
        <time>2025-05-10T09:32:53Z</time>
      </trkpt>
      <trkpt lat="44.91466" lon="0.83853">
        <ele>154.8</ele>
        <time>2025-05-10T09:32:54Z</time>
      </trkpt>
      <trkpt lat="44.91463" lon="0.83854">
        <ele>155</ele>
        <time>2025-05-10T09:32:55Z</time>
      </trkpt>
      <trkpt lat="44.91461" lon="0.83856">
        <ele>155.2</ele>
        <time>2025-05-10T09:32:56Z</time>
      </trkpt>
      <trkpt lat="44.9146" lon="0.83857">
        <ele>155.4</ele>
        <time>2025-05-10T09:32:57Z</time>
      </trkpt>
      <trkpt lat="44.91458" lon="0.83859">
        <ele>155.8</ele>
        <time>2025-05-10T09:32:58Z</time>
      </trkpt>
      <trkpt lat="44.91456" lon="0.8386">
        <ele>155.8</ele>
        <time>2025-05-10T09:32:59Z</time>
      </trkpt>
      <trkpt lat="44.91454" lon="0.83862">
        <ele>156.2</ele>
        <time>2025-05-10T09:33:00Z</time>
      </trkpt>
      <trkpt lat="44.91453" lon="0.83863">
        <ele>156.6</ele>
        <time>2025-05-10T09:33:01Z</time>
      </trkpt>
      <trkpt lat="44.91452" lon="0.83865">
        <ele>156.8</ele>
        <time>2025-05-10T09:33:02Z</time>
      </trkpt>
      <trkpt lat="44.91451" lon="0.83866">
        <ele>157.2</ele>
        <time>2025-05-10T09:33:03Z</time>
      </trkpt>
      <trkpt lat="44.9145" lon="0.83867">
        <ele>157.2</ele>
        <time>2025-05-10T09:33:04Z</time>
      </trkpt>
      <trkpt lat="44.91449" lon="0.83869">
        <ele>157.6</ele>
        <time>2025-05-10T09:33:05Z</time>
      </trkpt>
      <trkpt lat="44.91447" lon="0.83871">
        <ele>157.8</ele>
        <time>2025-05-10T09:33:06Z</time>
      </trkpt>
      <trkpt lat="44.91445" lon="0.83873">
        <ele>158</ele>
        <time>2025-05-10T09:33:07Z</time>
      </trkpt>
      <trkpt lat="44.91444" lon="0.83875">
        <ele>158.2</ele>
        <time>2025-05-10T09:33:08Z</time>
      </trkpt>
      <trkpt lat="44.91442" lon="0.83878">
        <ele>158.4</ele>
        <time>2025-05-10T09:33:09Z</time>
      </trkpt>
      <trkpt lat="44.9144" lon="0.8388">
        <ele>158.4</ele>
        <time>2025-05-10T09:33:10Z</time>
      </trkpt>
      <trkpt lat="44.91439" lon="0.83883">
        <ele>158.6</ele>
        <time>2025-05-10T09:33:11Z</time>
      </trkpt>
      <trkpt lat="44.91437" lon="0.83885">
        <ele>158.8</ele>
        <time>2025-05-10T09:33:12Z</time>
      </trkpt>
      <trkpt lat="44.91435" lon="0.83887">
        <ele>159</ele>
        <time>2025-05-10T09:33:13Z</time>
      </trkpt>
      <trkpt lat="44.91433" lon="0.8389">
        <ele>159.2</ele>
        <time>2025-05-10T09:33:14Z</time>
      </trkpt>
      <trkpt lat="44.91432" lon="0.83892">
        <ele>159.2</ele>
        <time>2025-05-10T09:33:15Z</time>
      </trkpt>
      <trkpt lat="44.9143" lon="0.83894">
        <ele>159.4</ele>
        <time>2025-05-10T09:33:16Z</time>
      </trkpt>
      <trkpt lat="44.91428" lon="0.83895">
        <ele>159.4</ele>
        <time>2025-05-10T09:33:17Z</time>
      </trkpt>
      <trkpt lat="44.91427" lon="0.83897">
        <ele>159.6</ele>
        <time>2025-05-10T09:33:18Z</time>
      </trkpt>
      <trkpt lat="44.91425" lon="0.83899">
        <ele>159.6</ele>
        <time>2025-05-10T09:33:19Z</time>
      </trkpt>
      <trkpt lat="44.91423" lon="0.83901">
        <ele>159.6</ele>
        <time>2025-05-10T09:33:20Z</time>
      </trkpt>
      <trkpt lat="44.91421" lon="0.83904">
        <ele>159.6</ele>
        <time>2025-05-10T09:33:21Z</time>
      </trkpt>
      <trkpt lat="44.91419" lon="0.83906">
        <ele>159.8</ele>
        <time>2025-05-10T09:33:22Z</time>
      </trkpt>
      <trkpt lat="44.91417" lon="0.83908">
        <ele>159.8</ele>
        <time>2025-05-10T09:33:23Z</time>
      </trkpt>
      <trkpt lat="44.91414" lon="0.8391">
        <ele>160</ele>
        <time>2025-05-10T09:33:24Z</time>
      </trkpt>
      <trkpt lat="44.91412" lon="0.83912">
        <ele>160</ele>
        <time>2025-05-10T09:33:25Z</time>
      </trkpt>
      <trkpt lat="44.9141" lon="0.83915">
        <ele>160</ele>
        <time>2025-05-10T09:33:26Z</time>
      </trkpt>
      <trkpt lat="44.91407" lon="0.83917">
        <ele>160.2</ele>
        <time>2025-05-10T09:33:27Z</time>
      </trkpt>
      <trkpt lat="44.91405" lon="0.8392">
        <ele>160.2</ele>
        <time>2025-05-10T09:33:28Z</time>
      </trkpt>
      <trkpt lat="44.91402" lon="0.83922">
        <ele>160.2</ele>
        <time>2025-05-10T09:33:29Z</time>
      </trkpt>
      <trkpt lat="44.91399" lon="0.83923">
        <ele>160.2</ele>
        <time>2025-05-10T09:33:30Z</time>
      </trkpt>
      <trkpt lat="44.91396" lon="0.83923">
        <ele>160.2</ele>
        <time>2025-05-10T09:33:31Z</time>
      </trkpt>
      <trkpt lat="44.91394" lon="0.83921">
        <ele>160.2</ele>
        <time>2025-05-10T09:33:32Z</time>
      </trkpt>
      <trkpt lat="44.91392" lon="0.83918">
        <ele>160.2</ele>
        <time>2025-05-10T09:33:33Z</time>
      </trkpt>
      <trkpt lat="44.91391" lon="0.83915">
        <ele>160.2</ele>
        <time>2025-05-10T09:33:34Z</time>
      </trkpt>
      <trkpt lat="44.91389" lon="0.83912">
        <ele>160.2</ele>
        <time>2025-05-10T09:33:35Z</time>
      </trkpt>
      <trkpt lat="44.91388" lon="0.83909">
        <ele>160.2</ele>
        <time>2025-05-10T09:33:36Z</time>
      </trkpt>
      <trkpt lat="44.91387" lon="0.83906">
        <ele>160.4</ele>
        <time>2025-05-10T09:33:37Z</time>
      </trkpt>
      <trkpt lat="44.91387" lon="0.83904">
        <ele>160.8</ele>
        <time>2025-05-10T09:33:38Z</time>
      </trkpt>
      <trkpt lat="44.91386" lon="0.83902">
        <ele>161</ele>
        <time>2025-05-10T09:33:39Z</time>
      </trkpt>
      <trkpt lat="44.91386" lon="0.83899">
        <ele>162</ele>
        <time>2025-05-10T09:33:40Z</time>
      </trkpt>
      <trkpt lat="44.91385" lon="0.83897">
        <ele>162.2</ele>
        <time>2025-05-10T09:33:41Z</time>
      </trkpt>
      <trkpt lat="44.91385" lon="0.83895">
        <ele>162.2</ele>
        <time>2025-05-10T09:33:42Z</time>
      </trkpt>
      <trkpt lat="44.91385" lon="0.83893">
        <ele>162.2</ele>
        <time>2025-05-10T09:33:43Z</time>
      </trkpt>
      <trkpt lat="44.91385" lon="0.8389">
        <ele>162.4</ele>
        <time>2025-05-10T09:33:44Z</time>
      </trkpt>
      <trkpt lat="44.91384" lon="0.83888">
        <ele>162.4</ele>
        <time>2025-05-10T09:33:45Z</time>
      </trkpt>
      <trkpt lat="44.91384" lon="0.83886">
        <ele>162</ele>
        <time>2025-05-10T09:33:46Z</time>
      </trkpt>
      <trkpt lat="44.91385" lon="0.83883">
        <ele>161.6</ele>
        <time>2025-05-10T09:33:47Z</time>
      </trkpt>
      <trkpt lat="44.91385" lon="0.83882">
        <ele>161.4</ele>
        <time>2025-05-10T09:33:48Z</time>
      </trkpt>
      <trkpt lat="44.91386" lon="0.8388">
        <ele>161.8</ele>
        <time>2025-05-10T09:33:49Z</time>
      </trkpt>
      <trkpt lat="44.91386" lon="0.83878">
        <ele>161.8</ele>
        <time>2025-05-10T09:33:50Z</time>
      </trkpt>
      <trkpt lat="44.91386" lon="0.83876">
        <ele>161.6</ele>
        <time>2025-05-10T09:33:51Z</time>
      </trkpt>
      <trkpt lat="44.91387" lon="0.83874">
        <ele>161.6</ele>
        <time>2025-05-10T09:33:52Z</time>
      </trkpt>
      <trkpt lat="44.91387" lon="0.83872">
        <ele>161.4</ele>
        <time>2025-05-10T09:33:53Z</time>
      </trkpt>
      <trkpt lat="44.91388" lon="0.83869">
        <ele>161.4</ele>
        <time>2025-05-10T09:33:54Z</time>
      </trkpt>
      <trkpt lat="44.91389" lon="0.83866">
        <ele>161.6</ele>
        <time>2025-05-10T09:33:55Z</time>
      </trkpt>
      <trkpt lat="44.91391" lon="0.83863">
        <ele>161.6</ele>
        <time>2025-05-10T09:33:56Z</time>
      </trkpt>
      <trkpt lat="44.91392" lon="0.83859">
        <ele>161.6</ele>
        <time>2025-05-10T09:33:57Z</time>
      </trkpt>
      <trkpt lat="44.91394" lon="0.83855">
        <ele>161.8</ele>
        <time>2025-05-10T09:33:58Z</time>
      </trkpt>
      <trkpt lat="44.91395" lon="0.83851">
        <ele>161.8</ele>
        <time>2025-05-10T09:33:59Z</time>
      </trkpt>
      <trkpt lat="44.91397" lon="0.83845">
        <ele>161.8</ele>
        <time>2025-05-10T09:34:00Z</time>
      </trkpt>
      <trkpt lat="44.91397" lon="0.83839">
        <ele>161.8</ele>
        <time>2025-05-10T09:34:01Z</time>
      </trkpt>
      <trkpt lat="44.91397" lon="0.83833">
        <ele>161.8</ele>
        <time>2025-05-10T09:34:02Z</time>
      </trkpt>
      <trkpt lat="44.91395" lon="0.83827">
        <ele>161.4</ele>
        <time>2025-05-10T09:34:03Z</time>
      </trkpt>
      <trkpt lat="44.91393" lon="0.83822">
        <ele>161.2</ele>
        <time>2025-05-10T09:34:04Z</time>
      </trkpt>
      <trkpt lat="44.91389" lon="0.83817">
        <ele>160.8</ele>
        <time>2025-05-10T09:34:05Z</time>
      </trkpt>
      <trkpt lat="44.91384" lon="0.83813">
        <ele>160.4</ele>
        <time>2025-05-10T09:34:06Z</time>
      </trkpt>
      <trkpt lat="44.9138" lon="0.8381">
        <ele>160.2</ele>
        <time>2025-05-10T09:34:07Z</time>
      </trkpt>
      <trkpt lat="44.91375" lon="0.83808">
        <ele>159.6</ele>
        <time>2025-05-10T09:34:08Z</time>
      </trkpt>
      <trkpt lat="44.9137" lon="0.83806">
        <ele>159.2</ele>
        <time>2025-05-10T09:34:09Z</time>
      </trkpt>
      <trkpt lat="44.91365" lon="0.83805">
        <ele>159</ele>
        <time>2025-05-10T09:34:10Z</time>
      </trkpt>
      <trkpt lat="44.9136" lon="0.83804">
        <ele>159</ele>
        <time>2025-05-10T09:34:11Z</time>
      </trkpt>
      <trkpt lat="44.91356" lon="0.83801">
        <ele>158.8</ele>
        <time>2025-05-10T09:34:12Z</time>
      </trkpt>
      <trkpt lat="44.91352" lon="0.83797">
        <ele>158.8</ele>
        <time>2025-05-10T09:34:13Z</time>
      </trkpt>
      <trkpt lat="44.91348" lon="0.83792">
        <ele>158.6</ele>
        <time>2025-05-10T09:34:14Z</time>
      </trkpt>
      <trkpt lat="44.91343" lon="0.83786">
        <ele>158.6</ele>
        <time>2025-05-10T09:34:15Z</time>
      </trkpt>
      <trkpt lat="44.91338" lon="0.8378">
        <ele>158.4</ele>
        <time>2025-05-10T09:34:16Z</time>
      </trkpt>
      <trkpt lat="44.91333" lon="0.83773">
        <ele>158.2</ele>
        <time>2025-05-10T09:34:17Z</time>
      </trkpt>
      <trkpt lat="44.91328" lon="0.83766">
        <ele>157.6</ele>
        <time>2025-05-10T09:34:18Z</time>
      </trkpt>
      <trkpt lat="44.91323" lon="0.83757">
        <ele>157.2</ele>
        <time>2025-05-10T09:34:19Z</time>
      </trkpt>
      <trkpt lat="44.91318" lon="0.83747">
        <ele>156.2</ele>
        <time>2025-05-10T09:34:20Z</time>
      </trkpt>
      <trkpt lat="44.91313" lon="0.83737">
        <ele>155.4</ele>
        <time>2025-05-10T09:34:21Z</time>
      </trkpt>
      <trkpt lat="44.91309" lon="0.83726">
        <ele>154.2</ele>
        <time>2025-05-10T09:34:22Z</time>
      </trkpt>
      <trkpt lat="44.91306" lon="0.83714">
        <ele>153.6</ele>
        <time>2025-05-10T09:34:23Z</time>
      </trkpt>
      <trkpt lat="44.91304" lon="0.83702">
        <ele>152.6</ele>
        <time>2025-05-10T09:34:24Z</time>
      </trkpt>
      <trkpt lat="44.91304" lon="0.8369">
        <ele>151.6</ele>
        <time>2025-05-10T09:34:25Z</time>
      </trkpt>
      <trkpt lat="44.91305" lon="0.83678">
        <ele>151</ele>
        <time>2025-05-10T09:34:26Z</time>
      </trkpt>
      <trkpt lat="44.91307" lon="0.83667">
        <ele>150.4</ele>
        <time>2025-05-10T09:34:27Z</time>
      </trkpt>
      <trkpt lat="44.91308" lon="0.83655">
        <ele>150.2</ele>
        <time>2025-05-10T09:34:28Z</time>
      </trkpt>
      <trkpt lat="44.91308" lon="0.83646">
        <ele>150.2</ele>
        <time>2025-05-10T09:34:29Z</time>
      </trkpt>
      <trkpt lat="44.91307" lon="0.83638">
        <ele>150.2</ele>
        <time>2025-05-10T09:34:30Z</time>
      </trkpt>
      <trkpt lat="44.91308" lon="0.83631">
        <ele>150.2</ele>
        <time>2025-05-10T09:34:31Z</time>
      </trkpt>
      <trkpt lat="44.91309" lon="0.83625">
        <ele>150.2</ele>
        <time>2025-05-10T09:34:32Z</time>
      </trkpt>
      <trkpt lat="44.9131" lon="0.8362">
        <ele>150.6</ele>
        <time>2025-05-10T09:34:33Z</time>
      </trkpt>
      <trkpt lat="44.9131" lon="0.83614">
        <ele>151</ele>
        <time>2025-05-10T09:34:34Z</time>
      </trkpt>
      <trkpt lat="44.9131" lon="0.83608">
        <ele>151.4</ele>
        <time>2025-05-10T09:34:35Z</time>
      </trkpt>
      <trkpt lat="44.91311" lon="0.83602">
        <ele>151.4</ele>
        <time>2025-05-10T09:34:36Z</time>
      </trkpt>
      <trkpt lat="44.91311" lon="0.83595">
        <ele>151.4</ele>
        <time>2025-05-10T09:34:37Z</time>
      </trkpt>
      <trkpt lat="44.91312" lon="0.83588">
        <ele>151.4</ele>
        <time>2025-05-10T09:34:38Z</time>
      </trkpt>
      <trkpt lat="44.91313" lon="0.83581">
        <ele>151.4</ele>
        <time>2025-05-10T09:34:39Z</time>
      </trkpt>
      <trkpt lat="44.91312" lon="0.83572">
        <ele>151.4</ele>
        <time>2025-05-10T09:34:40Z</time>
      </trkpt>
      <trkpt lat="44.91313" lon="0.83565">
        <ele>151.2</ele>
        <time>2025-05-10T09:34:41Z</time>
      </trkpt>
      <trkpt lat="44.91313" lon="0.83557">
        <ele>150.8</ele>
        <time>2025-05-10T09:34:42Z</time>
      </trkpt>
      <trkpt lat="44.91313" lon="0.83548">
        <ele>150.6</ele>
        <time>2025-05-10T09:34:43Z</time>
      </trkpt>
      <trkpt lat="44.91313" lon="0.8354">
        <ele>150.6</ele>
        <time>2025-05-10T09:34:44Z</time>
      </trkpt>
      <trkpt lat="44.91314" lon="0.83532">
        <ele>150.4</ele>
        <time>2025-05-10T09:34:45Z</time>
      </trkpt>
      <trkpt lat="44.91315" lon="0.83524">
        <ele>150.4</ele>
        <time>2025-05-10T09:34:46Z</time>
      </trkpt>
      <trkpt lat="44.91318" lon="0.83518">
        <ele>150.4</ele>
        <time>2025-05-10T09:34:47Z</time>
      </trkpt>
      <trkpt lat="44.9132" lon="0.83512">
        <ele>150.4</ele>
        <time>2025-05-10T09:34:48Z</time>
      </trkpt>
      <trkpt lat="44.91323" lon="0.83507">
        <ele>150.4</ele>
        <time>2025-05-10T09:34:49Z</time>
      </trkpt>
      <trkpt lat="44.91326" lon="0.83501">
        <ele>150.4</ele>
        <time>2025-05-10T09:34:50Z</time>
      </trkpt>
      <trkpt lat="44.91329" lon="0.83496">
        <ele>150.4</ele>
        <time>2025-05-10T09:34:51Z</time>
      </trkpt>
      <trkpt lat="44.91332" lon="0.83491">
        <ele>150.6</ele>
        <time>2025-05-10T09:34:52Z</time>
      </trkpt>
      <trkpt lat="44.91335" lon="0.83486">
        <ele>150.6</ele>
        <time>2025-05-10T09:34:53Z</time>
      </trkpt>
      <trkpt lat="44.91338" lon="0.83481">
        <ele>150.6</ele>
        <time>2025-05-10T09:34:54Z</time>
      </trkpt>
      <trkpt lat="44.91341" lon="0.83478">
        <ele>150.8</ele>
        <time>2025-05-10T09:34:55Z</time>
      </trkpt>
      <trkpt lat="44.91344" lon="0.83473">
        <ele>151</ele>
        <time>2025-05-10T09:34:56Z</time>
      </trkpt>
      <trkpt lat="44.91347" lon="0.8347">
        <ele>151.2</ele>
        <time>2025-05-10T09:34:57Z</time>
      </trkpt>
      <trkpt lat="44.9135" lon="0.83467">
        <ele>151.4</ele>
        <time>2025-05-10T09:34:58Z</time>
      </trkpt>
      <trkpt lat="44.91353" lon="0.83463">
        <ele>151.8</ele>
        <time>2025-05-10T09:34:59Z</time>
      </trkpt>
      <trkpt lat="44.91356" lon="0.83459">
        <ele>152</ele>
        <time>2025-05-10T09:35:00Z</time>
      </trkpt>
      <trkpt lat="44.9136" lon="0.83456">
        <ele>152.2</ele>
        <time>2025-05-10T09:35:01Z</time>
      </trkpt>
      <trkpt lat="44.91363" lon="0.83453">
        <ele>152.6</ele>
        <time>2025-05-10T09:35:02Z</time>
      </trkpt>
      <trkpt lat="44.91366" lon="0.83451">
        <ele>152.6</ele>
        <time>2025-05-10T09:35:03Z</time>
      </trkpt>
      <trkpt lat="44.91369" lon="0.83449">
        <ele>153</ele>
        <time>2025-05-10T09:35:04Z</time>
      </trkpt>
      <trkpt lat="44.91372" lon="0.83446">
        <ele>153.2</ele>
        <time>2025-05-10T09:35:05Z</time>
      </trkpt>
      <trkpt lat="44.91374" lon="0.83444">
        <ele>153.4</ele>
        <time>2025-05-10T09:35:06Z</time>
      </trkpt>
      <trkpt lat="44.91377" lon="0.83442">
        <ele>153.4</ele>
        <time>2025-05-10T09:35:07Z</time>
      </trkpt>
      <trkpt lat="44.91379" lon="0.8344">
        <ele>153.6</ele>
        <time>2025-05-10T09:35:08Z</time>
      </trkpt>
      <trkpt lat="44.91382" lon="0.83438">
        <ele>153.8</ele>
        <time>2025-05-10T09:35:09Z</time>
      </trkpt>
      <trkpt lat="44.91384" lon="0.83436">
        <ele>154</ele>
        <time>2025-05-10T09:35:10Z</time>
      </trkpt>
      <trkpt lat="44.91386" lon="0.83434">
        <ele>154.4</ele>
        <time>2025-05-10T09:35:11Z</time>
      </trkpt>
      <trkpt lat="44.91388" lon="0.83432">
        <ele>154.6</ele>
        <time>2025-05-10T09:35:12Z</time>
      </trkpt>
      <trkpt lat="44.91391" lon="0.83431">
        <ele>154.8</ele>
        <time>2025-05-10T09:35:13Z</time>
      </trkpt>
      <trkpt lat="44.91393" lon="0.83429">
        <ele>155</ele>
        <time>2025-05-10T09:35:14Z</time>
      </trkpt>
      <trkpt lat="44.91395" lon="0.83426">
        <ele>155.2</ele>
        <time>2025-05-10T09:35:15Z</time>
      </trkpt>
      <trkpt lat="44.91397" lon="0.83424">
        <ele>155.4</ele>
        <time>2025-05-10T09:35:16Z</time>
      </trkpt>
      <trkpt lat="44.914" lon="0.83422">
        <ele>155.6</ele>
        <time>2025-05-10T09:35:17Z</time>
      </trkpt>
      <trkpt lat="44.91402" lon="0.83419">
        <ele>155.8</ele>
        <time>2025-05-10T09:35:18Z</time>
      </trkpt>
      <trkpt lat="44.91403" lon="0.83417">
        <ele>156.2</ele>
        <time>2025-05-10T09:35:19Z</time>
      </trkpt>
      <trkpt lat="44.91406" lon="0.83414">
        <ele>156.2</ele>
        <time>2025-05-10T09:35:20Z</time>
      </trkpt>
      <trkpt lat="44.91407" lon="0.83412">
        <ele>156.4</ele>
        <time>2025-05-10T09:35:21Z</time>
      </trkpt>
      <trkpt lat="44.91409" lon="0.83409">
        <ele>156.6</ele>
        <time>2025-05-10T09:35:22Z</time>
      </trkpt>
      <trkpt lat="44.91411" lon="0.83406">
        <ele>156.8</ele>
        <time>2025-05-10T09:35:23Z</time>
      </trkpt>
      <trkpt lat="44.91413" lon="0.83404">
        <ele>157.2</ele>
        <time>2025-05-10T09:35:24Z</time>
      </trkpt>
      <trkpt lat="44.91414" lon="0.83401">
        <ele>157.4</ele>
        <time>2025-05-10T09:35:25Z</time>
      </trkpt>
      <trkpt lat="44.91416" lon="0.83398">
        <ele>157.6</ele>
        <time>2025-05-10T09:35:26Z</time>
      </trkpt>
      <trkpt lat="44.91418" lon="0.83394">
        <ele>157.6</ele>
        <time>2025-05-10T09:35:27Z</time>
      </trkpt>
      <trkpt lat="44.9142" lon="0.83391">
        <ele>157.8</ele>
        <time>2025-05-10T09:35:28Z</time>
      </trkpt>
      <trkpt lat="44.91421" lon="0.83388">
        <ele>158</ele>
        <time>2025-05-10T09:35:29Z</time>
      </trkpt>
      <trkpt lat="44.91423" lon="0.83384">
        <ele>158</ele>
        <time>2025-05-10T09:35:30Z</time>
      </trkpt>
      <trkpt lat="44.91424" lon="0.8338">
        <ele>158.2</ele>
        <time>2025-05-10T09:35:31Z</time>
      </trkpt>
      <trkpt lat="44.91426" lon="0.83377">
        <ele>158.4</ele>
        <time>2025-05-10T09:35:32Z</time>
      </trkpt>
      <trkpt lat="44.91428" lon="0.83373">
        <ele>158.6</ele>
        <time>2025-05-10T09:35:33Z</time>
      </trkpt>
      <trkpt lat="44.9143" lon="0.83368">
        <ele>158.6</ele>
        <time>2025-05-10T09:35:34Z</time>
      </trkpt>
      <trkpt lat="44.91432" lon="0.83364">
        <ele>158.6</ele>
        <time>2025-05-10T09:35:35Z</time>
      </trkpt>
      <trkpt lat="44.91433" lon="0.83359">
        <ele>158.6</ele>
        <time>2025-05-10T09:35:36Z</time>
      </trkpt>
      <trkpt lat="44.91435" lon="0.83354">
        <ele>158.6</ele>
        <time>2025-05-10T09:35:37Z</time>
      </trkpt>
      <trkpt lat="44.91437" lon="0.83349">
        <ele>158.6</ele>
        <time>2025-05-10T09:35:38Z</time>
      </trkpt>
      <trkpt lat="44.91439" lon="0.83344">
        <ele>158.6</ele>
        <time>2025-05-10T09:35:39Z</time>
      </trkpt>
      <trkpt lat="44.91441" lon="0.83338">
        <ele>158.4</ele>
        <time>2025-05-10T09:35:40Z</time>
      </trkpt>
      <trkpt lat="44.91443" lon="0.83332">
        <ele>158.2</ele>
        <time>2025-05-10T09:35:41Z</time>
      </trkpt>
      <trkpt lat="44.91445" lon="0.83325">
        <ele>158</ele>
        <time>2025-05-10T09:35:42Z</time>
      </trkpt>
      <trkpt lat="44.91448" lon="0.83319">
        <ele>157.8</ele>
        <time>2025-05-10T09:35:43Z</time>
      </trkpt>
      <trkpt lat="44.9145" lon="0.83312">
        <ele>157.6</ele>
        <time>2025-05-10T09:35:44Z</time>
      </trkpt>
      <trkpt lat="44.91451" lon="0.83306">
        <ele>157.2</ele>
        <time>2025-05-10T09:35:45Z</time>
      </trkpt>
      <trkpt lat="44.91453" lon="0.833">
        <ele>157</ele>
        <time>2025-05-10T09:35:46Z</time>
      </trkpt>
      <trkpt lat="44.91454" lon="0.83293">
        <ele>156.8</ele>
        <time>2025-05-10T09:35:47Z</time>
      </trkpt>
      <trkpt lat="44.91456" lon="0.83286">
        <ele>156.8</ele>
        <time>2025-05-10T09:35:48Z</time>
      </trkpt>
      <trkpt lat="44.91457" lon="0.8328">
        <ele>156.8</ele>
        <time>2025-05-10T09:35:49Z</time>
      </trkpt>
      <trkpt lat="44.91459" lon="0.83274">
        <ele>156.8</ele>
        <time>2025-05-10T09:35:50Z</time>
      </trkpt>
      <trkpt lat="44.91462" lon="0.83267">
        <ele>156.8</ele>
        <time>2025-05-10T09:35:51Z</time>
      </trkpt>
      <trkpt lat="44.91464" lon="0.83261">
        <ele>156.8</ele>
        <time>2025-05-10T09:35:52Z</time>
      </trkpt>
      <trkpt lat="44.91467" lon="0.83255">
        <ele>156.8</ele>
        <time>2025-05-10T09:35:53Z</time>
      </trkpt>
      <trkpt lat="44.91469" lon="0.8325">
        <ele>156.8</ele>
        <time>2025-05-10T09:35:54Z</time>
      </trkpt>
      <trkpt lat="44.91472" lon="0.83244">
        <ele>156.8</ele>
        <time>2025-05-10T09:35:55Z</time>
      </trkpt>
      <trkpt lat="44.91474" lon="0.83238">
        <ele>157</ele>
        <time>2025-05-10T09:35:56Z</time>
      </trkpt>
      <trkpt lat="44.91476" lon="0.83233">
        <ele>157.2</ele>
        <time>2025-05-10T09:35:57Z</time>
      </trkpt>
      <trkpt lat="44.91479" lon="0.83228">
        <ele>157.4</ele>
        <time>2025-05-10T09:35:58Z</time>
      </trkpt>
      <trkpt lat="44.91481" lon="0.83223">
        <ele>157.6</ele>
        <time>2025-05-10T09:35:59Z</time>
      </trkpt>
      <trkpt lat="44.91482" lon="0.83219">
        <ele>158</ele>
        <time>2025-05-10T09:36:00Z</time>
      </trkpt>
      <trkpt lat="44.91484" lon="0.83215">
        <ele>158.4</ele>
        <time>2025-05-10T09:36:01Z</time>
      </trkpt>
      <trkpt lat="44.91485" lon="0.83211">
        <ele>158.6</ele>
        <time>2025-05-10T09:36:02Z</time>
      </trkpt>
      <trkpt lat="44.91486" lon="0.83208">
        <ele>158.8</ele>
        <time>2025-05-10T09:36:03Z</time>
      </trkpt>
      <trkpt lat="44.91488" lon="0.83205">
        <ele>159.4</ele>
        <time>2025-05-10T09:36:04Z</time>
      </trkpt>
      <trkpt lat="44.91489" lon="0.83202">
        <ele>160</ele>
        <time>2025-05-10T09:36:05Z</time>
      </trkpt>
      <trkpt lat="44.91491" lon="0.83199">
        <ele>160.2</ele>
        <time>2025-05-10T09:36:06Z</time>
      </trkpt>
      <trkpt lat="44.91494" lon="0.83196">
        <ele>160.4</ele>
        <time>2025-05-10T09:36:07Z</time>
      </trkpt>
      <trkpt lat="44.91495" lon="0.83194">
        <ele>160.8</ele>
        <time>2025-05-10T09:36:08Z</time>
      </trkpt>
      <trkpt lat="44.91497" lon="0.83191">
        <ele>161</ele>
        <time>2025-05-10T09:36:09Z</time>
      </trkpt>
      <trkpt lat="44.91499" lon="0.83188">
        <ele>161.2</ele>
        <time>2025-05-10T09:36:10Z</time>
      </trkpt>
      <trkpt lat="44.91501" lon="0.83186">
        <ele>161.4</ele>
        <time>2025-05-10T09:36:11Z</time>
      </trkpt>
      <trkpt lat="44.91502" lon="0.83184">
        <ele>161.6</ele>
        <time>2025-05-10T09:36:12Z</time>
      </trkpt>
      <trkpt lat="44.91504" lon="0.83182">
        <ele>161.8</ele>
        <time>2025-05-10T09:36:13Z</time>
      </trkpt>
      <trkpt lat="44.91506" lon="0.8318">
        <ele>162</ele>
        <time>2025-05-10T09:36:14Z</time>
      </trkpt>
      <trkpt lat="44.91508" lon="0.83178">
        <ele>162.2</ele>
        <time>2025-05-10T09:36:15Z</time>
      </trkpt>
      <trkpt lat="44.9151" lon="0.83176">
        <ele>162.6</ele>
        <time>2025-05-10T09:36:16Z</time>
      </trkpt>
      <trkpt lat="44.91512" lon="0.83174">
        <ele>162.6</ele>
        <time>2025-05-10T09:36:17Z</time>
      </trkpt>
      <trkpt lat="44.91514" lon="0.83172">
        <ele>162.8</ele>
        <time>2025-05-10T09:36:18Z</time>
      </trkpt>
      <trkpt lat="44.91516" lon="0.83171">
        <ele>163</ele>
        <time>2025-05-10T09:36:19Z</time>
      </trkpt>
      <trkpt lat="44.91518" lon="0.83169">
        <ele>163.2</ele>
        <time>2025-05-10T09:36:20Z</time>
      </trkpt>
      <trkpt lat="44.9152" lon="0.83167">
        <ele>163.4</ele>
        <time>2025-05-10T09:36:21Z</time>
      </trkpt>
      <trkpt lat="44.91523" lon="0.83165">
        <ele>163.6</ele>
        <time>2025-05-10T09:36:22Z</time>
      </trkpt>
      <trkpt lat="44.91525" lon="0.83162">
        <ele>163.8</ele>
        <time>2025-05-10T09:36:23Z</time>
      </trkpt>
      <trkpt lat="44.91527" lon="0.83161">
        <ele>164</ele>
        <time>2025-05-10T09:36:24Z</time>
      </trkpt>
      <trkpt lat="44.91529" lon="0.83159">
        <ele>164.2</ele>
        <time>2025-05-10T09:36:25Z</time>
      </trkpt>
      <trkpt lat="44.91531" lon="0.83157">
        <ele>164.6</ele>
        <time>2025-05-10T09:36:26Z</time>
      </trkpt>
      <trkpt lat="44.91532" lon="0.83155">
        <ele>164.6</ele>
        <time>2025-05-10T09:36:27Z</time>
      </trkpt>
      <trkpt lat="44.91534" lon="0.83154">
        <ele>164.8</ele>
        <time>2025-05-10T09:36:28Z</time>
      </trkpt>
      <trkpt lat="44.91536" lon="0.83152">
        <ele>165.2</ele>
        <time>2025-05-10T09:36:29Z</time>
      </trkpt>
      <trkpt lat="44.91539" lon="0.8315">
        <ele>165.4</ele>
        <time>2025-05-10T09:36:30Z</time>
      </trkpt>
      <trkpt lat="44.91541" lon="0.83148">
        <ele>165.6</ele>
        <time>2025-05-10T09:36:31Z</time>
      </trkpt>
      <trkpt lat="44.91543" lon="0.83145">
        <ele>165.6</ele>
        <time>2025-05-10T09:36:32Z</time>
      </trkpt>
      <trkpt lat="44.91545" lon="0.83143">
        <ele>165.8</ele>
        <time>2025-05-10T09:36:33Z</time>
      </trkpt>
      <trkpt lat="44.91547" lon="0.83141">
        <ele>166</ele>
        <time>2025-05-10T09:36:34Z</time>
      </trkpt>
      <trkpt lat="44.91549" lon="0.8314">
        <ele>166.2</ele>
        <time>2025-05-10T09:36:35Z</time>
      </trkpt>
      <trkpt lat="44.91551" lon="0.83138">
        <ele>166.2</ele>
        <time>2025-05-10T09:36:36Z</time>
      </trkpt>
      <trkpt lat="44.91553" lon="0.83136">
        <ele>166.4</ele>
        <time>2025-05-10T09:36:37Z</time>
      </trkpt>
      <trkpt lat="44.91555" lon="0.83135">
        <ele>166.6</ele>
        <time>2025-05-10T09:36:38Z</time>
      </trkpt>
      <trkpt lat="44.91557" lon="0.83133">
        <ele>166.8</ele>
        <time>2025-05-10T09:36:39Z</time>
      </trkpt>
      <trkpt lat="44.91558" lon="0.83131">
        <ele>167</ele>
        <time>2025-05-10T09:36:40Z</time>
      </trkpt>
      <trkpt lat="44.9156" lon="0.83129">
        <ele>167</ele>
        <time>2025-05-10T09:36:41Z</time>
      </trkpt>
      <trkpt lat="44.91562" lon="0.83128">
        <ele>167.2</ele>
        <time>2025-05-10T09:36:42Z</time>
      </trkpt>
      <trkpt lat="44.91564" lon="0.83126">
        <ele>167.2</ele>
        <time>2025-05-10T09:36:43Z</time>
      </trkpt>
      <trkpt lat="44.91566" lon="0.83124">
        <ele>167.4</ele>
        <time>2025-05-10T09:36:44Z</time>
      </trkpt>
      <trkpt lat="44.91567" lon="0.83122">
        <ele>167.6</ele>
        <time>2025-05-10T09:36:45Z</time>
      </trkpt>
      <trkpt lat="44.91569" lon="0.8312">
        <ele>167.8</ele>
        <time>2025-05-10T09:36:46Z</time>
      </trkpt>
      <trkpt lat="44.91571" lon="0.83118">
        <ele>167.8</ele>
        <time>2025-05-10T09:36:47Z</time>
      </trkpt>
      <trkpt lat="44.91573" lon="0.83116">
        <ele>168</ele>
        <time>2025-05-10T09:36:48Z</time>
      </trkpt>
      <trkpt lat="44.91575" lon="0.83114">
        <ele>168.2</ele>
        <time>2025-05-10T09:36:49Z</time>
      </trkpt>
      <trkpt lat="44.91577" lon="0.83111">
        <ele>168.4</ele>
        <time>2025-05-10T09:36:50Z</time>
      </trkpt>
      <trkpt lat="44.91579" lon="0.83109">
        <ele>168.4</ele>
        <time>2025-05-10T09:36:51Z</time>
      </trkpt>
      <trkpt lat="44.91582" lon="0.83107">
        <ele>168.4</ele>
        <time>2025-05-10T09:36:52Z</time>
      </trkpt>
      <trkpt lat="44.91584" lon="0.83104">
        <ele>168.4</ele>
        <time>2025-05-10T09:36:53Z</time>
      </trkpt>
      <trkpt lat="44.91586" lon="0.83102">
        <ele>168.6</ele>
        <time>2025-05-10T09:36:54Z</time>
      </trkpt>
      <trkpt lat="44.91587" lon="0.831">
        <ele>168.8</ele>
        <time>2025-05-10T09:36:55Z</time>
      </trkpt>
      <trkpt lat="44.91589" lon="0.83097">
        <ele>168.8</ele>
        <time>2025-05-10T09:36:56Z</time>
      </trkpt>
      <trkpt lat="44.91591" lon="0.83094">
        <ele>168.8</ele>
        <time>2025-05-10T09:36:57Z</time>
      </trkpt>
      <trkpt lat="44.91592" lon="0.8309">
        <ele>169</ele>
        <time>2025-05-10T09:36:58Z</time>
      </trkpt>
      <trkpt lat="44.91593" lon="0.83086">
        <ele>169</ele>
        <time>2025-05-10T09:36:59Z</time>
      </trkpt>
      <trkpt lat="44.91594" lon="0.83082">
        <ele>169</ele>
        <time>2025-05-10T09:37:00Z</time>
      </trkpt>
      <trkpt lat="44.91595" lon="0.83078">
        <ele>169.2</ele>
        <time>2025-05-10T09:37:01Z</time>
      </trkpt>
      <trkpt lat="44.91596" lon="0.83074">
        <ele>169.2</ele>
        <time>2025-05-10T09:37:02Z</time>
      </trkpt>
      <trkpt lat="44.91596" lon="0.8307">
        <ele>169.2</ele>
        <time>2025-05-10T09:37:03Z</time>
      </trkpt>
      <trkpt lat="44.91597" lon="0.83065">
        <ele>169.2</ele>
        <time>2025-05-10T09:37:04Z</time>
      </trkpt>
      <trkpt lat="44.91597" lon="0.83061">
        <ele>169.2</ele>
        <time>2025-05-10T09:37:05Z</time>
      </trkpt>
      <trkpt lat="44.91597" lon="0.83056">
        <ele>169.2</ele>
        <time>2025-05-10T09:37:06Z</time>
      </trkpt>
      <trkpt lat="44.91597" lon="0.83052">
        <ele>169.4</ele>
        <time>2025-05-10T09:37:07Z</time>
      </trkpt>
      <trkpt lat="44.91597" lon="0.83048">
        <ele>169.4</ele>
        <time>2025-05-10T09:37:08Z</time>
      </trkpt>
      <trkpt lat="44.91597" lon="0.83043">
        <ele>169.4</ele>
        <time>2025-05-10T09:37:09Z</time>
      </trkpt>
      <trkpt lat="44.91597" lon="0.83039">
        <ele>169.4</ele>
        <time>2025-05-10T09:37:10Z</time>
      </trkpt>
      <trkpt lat="44.91597" lon="0.83035">
        <ele>169.4</ele>
        <time>2025-05-10T09:37:11Z</time>
      </trkpt>
      <trkpt lat="44.91597" lon="0.83031">
        <ele>169.4</ele>
        <time>2025-05-10T09:37:12Z</time>
      </trkpt>
      <trkpt lat="44.91597" lon="0.83027">
        <ele>169.6</ele>
        <time>2025-05-10T09:37:13Z</time>
      </trkpt>
      <trkpt lat="44.91596" lon="0.83022">
        <ele>169.6</ele>
        <time>2025-05-10T09:37:14Z</time>
      </trkpt>
      <trkpt lat="44.91597" lon="0.83018">
        <ele>169.6</ele>
        <time>2025-05-10T09:37:15Z</time>
      </trkpt>
      <trkpt lat="44.91597" lon="0.83013">
        <ele>169.6</ele>
        <time>2025-05-10T09:37:16Z</time>
      </trkpt>
      <trkpt lat="44.91597" lon="0.8301">
        <ele>169.8</ele>
        <time>2025-05-10T09:37:17Z</time>
      </trkpt>
      <trkpt lat="44.91598" lon="0.83005">
        <ele>169.8</ele>
        <time>2025-05-10T09:37:18Z</time>
      </trkpt>
      <trkpt lat="44.91599" lon="0.83">
        <ele>170</ele>
        <time>2025-05-10T09:37:19Z</time>
      </trkpt>
      <trkpt lat="44.91599" lon="0.82996">
        <ele>170</ele>
        <time>2025-05-10T09:37:20Z</time>
      </trkpt>
      <trkpt lat="44.91599" lon="0.82991">
        <ele>170</ele>
        <time>2025-05-10T09:37:21Z</time>
      </trkpt>
      <trkpt lat="44.916" lon="0.82986">
        <ele>170</ele>
        <time>2025-05-10T09:37:22Z</time>
      </trkpt>
      <trkpt lat="44.91601" lon="0.82981">
        <ele>170.2</ele>
        <time>2025-05-10T09:37:23Z</time>
      </trkpt>
      <trkpt lat="44.91602" lon="0.82977">
        <ele>170.2</ele>
        <time>2025-05-10T09:37:24Z</time>
      </trkpt>
      <trkpt lat="44.91603" lon="0.82972">
        <ele>170.2</ele>
        <time>2025-05-10T09:37:25Z</time>
      </trkpt>
      <trkpt lat="44.91604" lon="0.82968">
        <ele>170.4</ele>
        <time>2025-05-10T09:37:26Z</time>
      </trkpt>
      <trkpt lat="44.91605" lon="0.82964">
        <ele>170.4</ele>
        <time>2025-05-10T09:37:27Z</time>
      </trkpt>
      <trkpt lat="44.91606" lon="0.82959">
        <ele>170.6</ele>
        <time>2025-05-10T09:37:28Z</time>
      </trkpt>
      <trkpt lat="44.91608" lon="0.82954">
        <ele>170.6</ele>
        <time>2025-05-10T09:37:29Z</time>
      </trkpt>
      <trkpt lat="44.91609" lon="0.82949">
        <ele>171</ele>
        <time>2025-05-10T09:37:30Z</time>
      </trkpt>
      <trkpt lat="44.9161" lon="0.82945">
        <ele>171.2</ele>
        <time>2025-05-10T09:37:31Z</time>
      </trkpt>
      <trkpt lat="44.91612" lon="0.8294">
        <ele>171.4</ele>
        <time>2025-05-10T09:37:32Z</time>
      </trkpt>
      <trkpt lat="44.91613" lon="0.82935">
        <ele>171.6</ele>
        <time>2025-05-10T09:37:33Z</time>
      </trkpt>
      <trkpt lat="44.91615" lon="0.8293">
        <ele>171.8</ele>
        <time>2025-05-10T09:37:34Z</time>
      </trkpt>
      <trkpt lat="44.91617" lon="0.82925">
        <ele>172</ele>
        <time>2025-05-10T09:37:35Z</time>
      </trkpt>
      <trkpt lat="44.91617" lon="0.8292">
        <ele>172</ele>
        <time>2025-05-10T09:37:36Z</time>
      </trkpt>
      <trkpt lat="44.91619" lon="0.82915">
        <ele>172.2</ele>
        <time>2025-05-10T09:37:37Z</time>
      </trkpt>
      <trkpt lat="44.9162" lon="0.82909">
        <ele>172.2</ele>
        <time>2025-05-10T09:37:38Z</time>
      </trkpt>
      <trkpt lat="44.91622" lon="0.82904">
        <ele>172.2</ele>
        <time>2025-05-10T09:37:39Z</time>
      </trkpt>
      <trkpt lat="44.91624" lon="0.82897">
        <ele>172.2</ele>
        <time>2025-05-10T09:37:40Z</time>
      </trkpt>
      <trkpt lat="44.91625" lon="0.82891">
        <ele>172.2</ele>
        <time>2025-05-10T09:37:41Z</time>
      </trkpt>
      <trkpt lat="44.91627" lon="0.82885">
        <ele>172</ele>
        <time>2025-05-10T09:37:42Z</time>
      </trkpt>
      <trkpt lat="44.91628" lon="0.8288">
        <ele>171.6</ele>
        <time>2025-05-10T09:37:43Z</time>
      </trkpt>
      <trkpt lat="44.9163" lon="0.82874">
        <ele>171.6</ele>
        <time>2025-05-10T09:37:44Z</time>
      </trkpt>
      <trkpt lat="44.91631" lon="0.82868">
        <ele>171.4</ele>
        <time>2025-05-10T09:37:45Z</time>
      </trkpt>
      <trkpt lat="44.91632" lon="0.82862">
        <ele>171.4</ele>
        <time>2025-05-10T09:37:46Z</time>
      </trkpt>
      <trkpt lat="44.91634" lon="0.82858">
        <ele>171.4</ele>
        <time>2025-05-10T09:37:47Z</time>
      </trkpt>
      <trkpt lat="44.91636" lon="0.82852">
        <ele>171.4</ele>
        <time>2025-05-10T09:37:48Z</time>
      </trkpt>
      <trkpt lat="44.91637" lon="0.82847">
        <ele>171.4</ele>
        <time>2025-05-10T09:37:49Z</time>
      </trkpt>
      <trkpt lat="44.91638" lon="0.82841">
        <ele>171.4</ele>
        <time>2025-05-10T09:37:50Z</time>
      </trkpt>
      <trkpt lat="44.9164" lon="0.82835">
        <ele>171.4</ele>
        <time>2025-05-10T09:37:51Z</time>
      </trkpt>
      <trkpt lat="44.91643" lon="0.8283">
        <ele>171.6</ele>
        <time>2025-05-10T09:37:52Z</time>
      </trkpt>
      <trkpt lat="44.91645" lon="0.82824">
        <ele>171.8</ele>
        <time>2025-05-10T09:37:53Z</time>
      </trkpt>
      <trkpt lat="44.91647" lon="0.82818">
        <ele>172</ele>
        <time>2025-05-10T09:37:54Z</time>
      </trkpt>
      <trkpt lat="44.91648" lon="0.82812">
        <ele>172.2</ele>
        <time>2025-05-10T09:37:55Z</time>
      </trkpt>
      <trkpt lat="44.9165" lon="0.82806">
        <ele>172.2</ele>
        <time>2025-05-10T09:37:56Z</time>
      </trkpt>
      <trkpt lat="44.91652" lon="0.828">
        <ele>172.2</ele>
        <time>2025-05-10T09:37:57Z</time>
      </trkpt>
      <trkpt lat="44.91654" lon="0.82795">
        <ele>172.2</ele>
        <time>2025-05-10T09:37:58Z</time>
      </trkpt>
      <trkpt lat="44.91656" lon="0.8279">
        <ele>172.4</ele>
        <time>2025-05-10T09:37:59Z</time>
      </trkpt>
      <trkpt lat="44.91658" lon="0.82785">
        <ele>172.4</ele>
        <time>2025-05-10T09:38:00Z</time>
      </trkpt>
      <trkpt lat="44.91659" lon="0.8278">
        <ele>172.4</ele>
        <time>2025-05-10T09:38:01Z</time>
      </trkpt>
      <trkpt lat="44.91661" lon="0.82774">
        <ele>172.6</ele>
        <time>2025-05-10T09:38:02Z</time>
      </trkpt>
      <trkpt lat="44.91664" lon="0.82769">
        <ele>172.6</ele>
        <time>2025-05-10T09:38:03Z</time>
      </trkpt>
      <trkpt lat="44.91666" lon="0.82764">
        <ele>172.8</ele>
        <time>2025-05-10T09:38:04Z</time>
      </trkpt>
      <trkpt lat="44.91668" lon="0.82759">
        <ele>172.8</ele>
        <time>2025-05-10T09:38:05Z</time>
      </trkpt>
      <trkpt lat="44.9167" lon="0.82753">
        <ele>173</ele>
        <time>2025-05-10T09:38:06Z</time>
      </trkpt>
      <trkpt lat="44.91672" lon="0.82748">
        <ele>173.2</ele>
        <time>2025-05-10T09:38:07Z</time>
      </trkpt>
      <trkpt lat="44.91674" lon="0.82743">
        <ele>173.2</ele>
        <time>2025-05-10T09:38:08Z</time>
      </trkpt>
      <trkpt lat="44.91676" lon="0.82738">
        <ele>173.4</ele>
        <time>2025-05-10T09:38:09Z</time>
      </trkpt>
      <trkpt lat="44.91678" lon="0.82733">
        <ele>173.6</ele>
        <time>2025-05-10T09:38:10Z</time>
      </trkpt>
      <trkpt lat="44.9168" lon="0.82728">
        <ele>173.8</ele>
        <time>2025-05-10T09:38:11Z</time>
      </trkpt>
      <trkpt lat="44.91682" lon="0.82723">
        <ele>173.8</ele>
        <time>2025-05-10T09:38:12Z</time>
      </trkpt>
      <trkpt lat="44.91684" lon="0.82718">
        <ele>173.8</ele>
        <time>2025-05-10T09:38:13Z</time>
      </trkpt>
      <trkpt lat="44.91685" lon="0.82714">
        <ele>174</ele>
        <time>2025-05-10T09:38:14Z</time>
      </trkpt>
      <trkpt lat="44.91687" lon="0.82709">
        <ele>174.2</ele>
        <time>2025-05-10T09:38:15Z</time>
      </trkpt>
      <trkpt lat="44.91688" lon="0.82704">
        <ele>174.4</ele>
        <time>2025-05-10T09:38:16Z</time>
      </trkpt>
      <trkpt lat="44.9169" lon="0.82699">
        <ele>175</ele>
        <time>2025-05-10T09:38:17Z</time>
      </trkpt>
      <trkpt lat="44.91689" lon="0.82695">
        <ele>175.2</ele>
        <time>2025-05-10T09:38:18Z</time>
      </trkpt>
      <trkpt lat="44.91689" lon="0.8269">
        <ele>175.4</ele>
        <time>2025-05-10T09:38:19Z</time>
      </trkpt>
      <trkpt lat="44.91687" lon="0.82689">
        <ele>175.4</ele>
        <time>2025-05-10T09:38:20Z</time>
      </trkpt>
      <trkpt lat="44.91684" lon="0.82688">
        <ele>175.4</ele>
        <time>2025-05-10T09:38:21Z</time>
      </trkpt>
      <trkpt lat="44.91682" lon="0.8269">
        <ele>175.8</ele>
        <time>2025-05-10T09:38:22Z</time>
      </trkpt>
      <trkpt lat="44.9168" lon="0.82692">
        <ele>176.2</ele>
        <time>2025-05-10T09:38:23Z</time>
      </trkpt>
      <trkpt lat="44.91677" lon="0.82693">
        <ele>176.2</ele>
        <time>2025-05-10T09:38:24Z</time>
      </trkpt>
      <trkpt lat="44.91675" lon="0.82695">
        <ele>176.2</ele>
        <time>2025-05-10T09:38:25Z</time>
      </trkpt>
      <trkpt lat="44.91672" lon="0.82697">
        <ele>176.4</ele>
        <time>2025-05-10T09:38:26Z</time>
      </trkpt>
      <trkpt lat="44.91669" lon="0.82699">
        <ele>176.4</ele>
        <time>2025-05-10T09:38:27Z</time>
      </trkpt>
      <trkpt lat="44.91667" lon="0.827">
        <ele>176.4</ele>
        <time>2025-05-10T09:38:28Z</time>
      </trkpt>
      <trkpt lat="44.91664" lon="0.82703">
        <ele>176.4</ele>
        <time>2025-05-10T09:38:29Z</time>
      </trkpt>
      <trkpt lat="44.9166" lon="0.82705">
        <ele>176.4</ele>
        <time>2025-05-10T09:38:30Z</time>
      </trkpt>
      <trkpt lat="44.91657" lon="0.82707">
        <ele>176.4</ele>
        <time>2025-05-10T09:38:31Z</time>
      </trkpt>
      <trkpt lat="44.91655" lon="0.82709">
        <ele>176.4</ele>
        <time>2025-05-10T09:38:32Z</time>
      </trkpt>
      <trkpt lat="44.91652" lon="0.82711">
        <ele>176.4</ele>
        <time>2025-05-10T09:38:33Z</time>
      </trkpt>
      <trkpt lat="44.91649" lon="0.82713">
        <ele>176.2</ele>
        <time>2025-05-10T09:38:34Z</time>
      </trkpt>
      <trkpt lat="44.91646" lon="0.82715">
        <ele>176.2</ele>
        <time>2025-05-10T09:38:35Z</time>
      </trkpt>
      <trkpt lat="44.91643" lon="0.82717">
        <ele>176</ele>
        <time>2025-05-10T09:38:36Z</time>
      </trkpt>
      <trkpt lat="44.91639" lon="0.8272">
        <ele>176</ele>
        <time>2025-05-10T09:38:37Z</time>
      </trkpt>
      <trkpt lat="44.91637" lon="0.82722">
        <ele>176</ele>
        <time>2025-05-10T09:38:38Z</time>
      </trkpt>
      <trkpt lat="44.91634" lon="0.82725">
        <ele>176</ele>
        <time>2025-05-10T09:38:39Z</time>
      </trkpt>
      <trkpt lat="44.91631" lon="0.82727">
        <ele>176</ele>
        <time>2025-05-10T09:38:40Z</time>
      </trkpt>
      <trkpt lat="44.91628" lon="0.82729">
        <ele>176</ele>
        <time>2025-05-10T09:38:41Z</time>
      </trkpt>
      <trkpt lat="44.91626" lon="0.82732">
        <ele>176</ele>
        <time>2025-05-10T09:38:42Z</time>
      </trkpt>
      <trkpt lat="44.91623" lon="0.82734">
        <ele>176</ele>
        <time>2025-05-10T09:38:43Z</time>
      </trkpt>
      <trkpt lat="44.9162" lon="0.82737">
        <ele>176</ele>
        <time>2025-05-10T09:38:44Z</time>
      </trkpt>
      <trkpt lat="44.91617" lon="0.8274">
        <ele>176.4</ele>
        <time>2025-05-10T09:38:45Z</time>
      </trkpt>
      <trkpt lat="44.91615" lon="0.82743">
        <ele>176.4</ele>
        <time>2025-05-10T09:38:46Z</time>
      </trkpt>
      <trkpt lat="44.91612" lon="0.82745">
        <ele>176.6</ele>
        <time>2025-05-10T09:38:47Z</time>
      </trkpt>
      <trkpt lat="44.91609" lon="0.82748">
        <ele>176.6</ele>
        <time>2025-05-10T09:38:48Z</time>
      </trkpt>
      <trkpt lat="44.91606" lon="0.82751">
        <ele>176.8</ele>
        <time>2025-05-10T09:38:49Z</time>
      </trkpt>
      <trkpt lat="44.91604" lon="0.82754">
        <ele>177</ele>
        <time>2025-05-10T09:38:50Z</time>
      </trkpt>
      <trkpt lat="44.91601" lon="0.82756">
        <ele>177</ele>
        <time>2025-05-10T09:38:51Z</time>
      </trkpt>
      <trkpt lat="44.91598" lon="0.82759">
        <ele>177</ele>
        <time>2025-05-10T09:38:52Z</time>
      </trkpt>
      <trkpt lat="44.91595" lon="0.82761">
        <ele>177.4</ele>
        <time>2025-05-10T09:38:53Z</time>
      </trkpt>
      <trkpt lat="44.91592" lon="0.82764">
        <ele>177.6</ele>
        <time>2025-05-10T09:38:54Z</time>
      </trkpt>
      <trkpt lat="44.9159" lon="0.82767">
        <ele>177.8</ele>
        <time>2025-05-10T09:38:55Z</time>
      </trkpt>
      <trkpt lat="44.91587" lon="0.8277">
        <ele>178</ele>
        <time>2025-05-10T09:38:56Z</time>
      </trkpt>
      <trkpt lat="44.91584" lon="0.82773">
        <ele>178.2</ele>
        <time>2025-05-10T09:38:57Z</time>
      </trkpt>
      <trkpt lat="44.91581" lon="0.82776">
        <ele>178.4</ele>
        <time>2025-05-10T09:38:58Z</time>
      </trkpt>
      <trkpt lat="44.91578" lon="0.82779">
        <ele>178.4</ele>
        <time>2025-05-10T09:38:59Z</time>
      </trkpt>
      <trkpt lat="44.91576" lon="0.82782">
        <ele>178.4</ele>
        <time>2025-05-10T09:39:00Z</time>
      </trkpt>
      <trkpt lat="44.91573" lon="0.82785">
        <ele>178.6</ele>
        <time>2025-05-10T09:39:01Z</time>
      </trkpt>
      <trkpt lat="44.9157" lon="0.82788">
        <ele>178.6</ele>
        <time>2025-05-10T09:39:02Z</time>
      </trkpt>
      <trkpt lat="44.91567" lon="0.82792">
        <ele>178.6</ele>
        <time>2025-05-10T09:39:03Z</time>
      </trkpt>
      <trkpt lat="44.91564" lon="0.82795">
        <ele>179</ele>
        <time>2025-05-10T09:39:04Z</time>
      </trkpt>
      <trkpt lat="44.91561" lon="0.82797">
        <ele>179.4</ele>
        <time>2025-05-10T09:39:05Z</time>
      </trkpt>
      <trkpt lat="44.91558" lon="0.828">
        <ele>179.8</ele>
        <time>2025-05-10T09:39:06Z</time>
      </trkpt>
      <trkpt lat="44.91556" lon="0.82803">
        <ele>180.2</ele>
        <time>2025-05-10T09:39:07Z</time>
      </trkpt>
      <trkpt lat="44.91553" lon="0.82805">
        <ele>180.6</ele>
        <time>2025-05-10T09:39:08Z</time>
      </trkpt>
      <trkpt lat="44.9155" lon="0.82808">
        <ele>180.8</ele>
        <time>2025-05-10T09:39:09Z</time>
      </trkpt>
      <trkpt lat="44.91548" lon="0.82811">
        <ele>181</ele>
        <time>2025-05-10T09:39:10Z</time>
      </trkpt>
      <trkpt lat="44.91545" lon="0.82813">
        <ele>181</ele>
        <time>2025-05-10T09:39:11Z</time>
      </trkpt>
      <trkpt lat="44.91543" lon="0.82815">
        <ele>181.2</ele>
        <time>2025-05-10T09:39:12Z</time>
      </trkpt>
      <trkpt lat="44.9154" lon="0.82818">
        <ele>181.4</ele>
        <time>2025-05-10T09:39:13Z</time>
      </trkpt>
      <trkpt lat="44.91537" lon="0.82822">
        <ele>181.6</ele>
        <time>2025-05-10T09:39:14Z</time>
      </trkpt>
      <trkpt lat="44.91534" lon="0.82824">
        <ele>181.8</ele>
        <time>2025-05-10T09:39:15Z</time>
      </trkpt>
      <trkpt lat="44.91531" lon="0.82827">
        <ele>182</ele>
        <time>2025-05-10T09:39:16Z</time>
      </trkpt>
      <trkpt lat="44.91528" lon="0.8283">
        <ele>182</ele>
        <time>2025-05-10T09:39:17Z</time>
      </trkpt>
      <trkpt lat="44.91526" lon="0.82833">
        <ele>182.2</ele>
        <time>2025-05-10T09:39:18Z</time>
      </trkpt>
      <trkpt lat="44.91523" lon="0.82837">
        <ele>182.4</ele>
        <time>2025-05-10T09:39:19Z</time>
      </trkpt>
      <trkpt lat="44.9152" lon="0.8284">
        <ele>182.4</ele>
        <time>2025-05-10T09:39:20Z</time>
      </trkpt>
      <trkpt lat="44.91516" lon="0.82843">
        <ele>182.4</ele>
        <time>2025-05-10T09:39:21Z</time>
      </trkpt>
      <trkpt lat="44.91513" lon="0.82847">
        <ele>182.4</ele>
        <time>2025-05-10T09:39:22Z</time>
      </trkpt>
      <trkpt lat="44.9151" lon="0.82851">
        <ele>182.4</ele>
        <time>2025-05-10T09:39:23Z</time>
      </trkpt>
      <trkpt lat="44.91507" lon="0.82854">
        <ele>182</ele>
        <time>2025-05-10T09:39:24Z</time>
      </trkpt>
      <trkpt lat="44.91503" lon="0.82859">
        <ele>181.8</ele>
        <time>2025-05-10T09:39:25Z</time>
      </trkpt>
      <trkpt lat="44.915" lon="0.82864">
        <ele>181.6</ele>
        <time>2025-05-10T09:39:26Z</time>
      </trkpt>
      <trkpt lat="44.91497" lon="0.8287">
        <ele>181.6</ele>
        <time>2025-05-10T09:39:27Z</time>
      </trkpt>
      <trkpt lat="44.91493" lon="0.82876">
        <ele>181.4</ele>
        <time>2025-05-10T09:39:28Z</time>
      </trkpt>
      <trkpt lat="44.9149" lon="0.82882">
        <ele>181</ele>
        <time>2025-05-10T09:39:29Z</time>
      </trkpt>
      <trkpt lat="44.91488" lon="0.8289">
        <ele>180.8</ele>
        <time>2025-05-10T09:39:30Z</time>
      </trkpt>
      <trkpt lat="44.91485" lon="0.82897">
        <ele>180.6</ele>
        <time>2025-05-10T09:39:31Z</time>
      </trkpt>
      <trkpt lat="44.91483" lon="0.82905">
        <ele>180.4</ele>
        <time>2025-05-10T09:39:32Z</time>
      </trkpt>
      <trkpt lat="44.91481" lon="0.82913">
        <ele>180.2</ele>
        <time>2025-05-10T09:39:33Z</time>
      </trkpt>
      <trkpt lat="44.91478" lon="0.82922">
        <ele>179.8</ele>
        <time>2025-05-10T09:39:34Z</time>
      </trkpt>
      <trkpt lat="44.91476" lon="0.82932">
        <ele>179.6</ele>
        <time>2025-05-10T09:39:35Z</time>
      </trkpt>
      <trkpt lat="44.91474" lon="0.82941">
        <ele>178.8</ele>
        <time>2025-05-10T09:39:36Z</time>
      </trkpt>
      <trkpt lat="44.91472" lon="0.82952">
        <ele>178.2</ele>
        <time>2025-05-10T09:39:37Z</time>
      </trkpt>
      <trkpt lat="44.9147" lon="0.82963">
        <ele>177.6</ele>
        <time>2025-05-10T09:39:38Z</time>
      </trkpt>
      <trkpt lat="44.91468" lon="0.82974">
        <ele>177</ele>
        <time>2025-05-10T09:39:39Z</time>
      </trkpt>
      <trkpt lat="44.91466" lon="0.82984">
        <ele>176.6</ele>
        <time>2025-05-10T09:39:40Z</time>
      </trkpt>
      <trkpt lat="44.91463" lon="0.82995">
        <ele>175.8</ele>
        <time>2025-05-10T09:39:41Z</time>
      </trkpt>
      <trkpt lat="44.91461" lon="0.83006">
        <ele>175.4</ele>
        <time>2025-05-10T09:39:42Z</time>
      </trkpt>
      <trkpt lat="44.91459" lon="0.83016">
        <ele>175</ele>
        <time>2025-05-10T09:39:43Z</time>
      </trkpt>
      <trkpt lat="44.91457" lon="0.83026">
        <ele>174.8</ele>
        <time>2025-05-10T09:39:44Z</time>
      </trkpt>
      <trkpt lat="44.91454" lon="0.83036">
        <ele>174.6</ele>
        <time>2025-05-10T09:39:45Z</time>
      </trkpt>
      <trkpt lat="44.91451" lon="0.83045">
        <ele>174.2</ele>
        <time>2025-05-10T09:39:46Z</time>
      </trkpt>
      <trkpt lat="44.91448" lon="0.83054">
        <ele>174</ele>
        <time>2025-05-10T09:39:47Z</time>
      </trkpt>
      <trkpt lat="44.91445" lon="0.83063">
        <ele>174</ele>
        <time>2025-05-10T09:39:48Z</time>
      </trkpt>
      <trkpt lat="44.91441" lon="0.83072">
        <ele>173.8</ele>
        <time>2025-05-10T09:39:49Z</time>
      </trkpt>
      <trkpt lat="44.91437" lon="0.83081">
        <ele>173.6</ele>
        <time>2025-05-10T09:39:50Z</time>
      </trkpt>
      <trkpt lat="44.91433" lon="0.83089">
        <ele>173.4</ele>
        <time>2025-05-10T09:39:51Z</time>
      </trkpt>
      <trkpt lat="44.91429" lon="0.83098">
        <ele>173.2</ele>
        <time>2025-05-10T09:39:52Z</time>
      </trkpt>
      <trkpt lat="44.91426" lon="0.83107">
        <ele>172.8</ele>
        <time>2025-05-10T09:39:53Z</time>
      </trkpt>
      <trkpt lat="44.91422" lon="0.83116">
        <ele>172.4</ele>
        <time>2025-05-10T09:39:54Z</time>
      </trkpt>
      <trkpt lat="44.91417" lon="0.83126">
        <ele>171.8</ele>
        <time>2025-05-10T09:39:55Z</time>
      </trkpt>
      <trkpt lat="44.91412" lon="0.83134">
        <ele>171.4</ele>
        <time>2025-05-10T09:39:56Z</time>
      </trkpt>
      <trkpt lat="44.91406" lon="0.83143">
        <ele>170.8</ele>
        <time>2025-05-10T09:39:57Z</time>
      </trkpt>
      <trkpt lat="44.914" lon="0.83151">
        <ele>170.4</ele>
        <time>2025-05-10T09:39:58Z</time>
      </trkpt>
      <trkpt lat="44.91393" lon="0.8316">
        <ele>169.6</ele>
        <time>2025-05-10T09:39:59Z</time>
      </trkpt>
      <trkpt lat="44.91387" lon="0.83168">
        <ele>168.4</ele>
        <time>2025-05-10T09:40:00Z</time>
      </trkpt>
      <trkpt lat="44.91379" lon="0.83175">
        <ele>167</ele>
        <time>2025-05-10T09:40:01Z</time>
      </trkpt>
      <trkpt lat="44.91372" lon="0.83183">
        <ele>166.2</ele>
        <time>2025-05-10T09:40:02Z</time>
      </trkpt>
      <trkpt lat="44.91365" lon="0.83191">
        <ele>165.8</ele>
        <time>2025-05-10T09:40:03Z</time>
      </trkpt>
      <trkpt lat="44.91358" lon="0.83199">
        <ele>165.2</ele>
        <time>2025-05-10T09:40:04Z</time>
      </trkpt>
      <trkpt lat="44.9135" lon="0.83207">
        <ele>165</ele>
        <time>2025-05-10T09:40:05Z</time>
      </trkpt>
      <trkpt lat="44.91342" lon="0.83215">
        <ele>164.4</ele>
        <time>2025-05-10T09:40:06Z</time>
      </trkpt>
      <trkpt lat="44.91334" lon="0.83223">
        <ele>163.8</ele>
        <time>2025-05-10T09:40:07Z</time>
      </trkpt>
      <trkpt lat="44.91327" lon="0.83231">
        <ele>163</ele>
        <time>2025-05-10T09:40:08Z</time>
      </trkpt>
      <trkpt lat="44.91319" lon="0.83239">
        <ele>162.4</ele>
        <time>2025-05-10T09:40:09Z</time>
      </trkpt>
      <trkpt lat="44.91311" lon="0.83247">
        <ele>161.8</ele>
        <time>2025-05-10T09:40:10Z</time>
      </trkpt>
      <trkpt lat="44.91304" lon="0.83255">
        <ele>161.2</ele>
        <time>2025-05-10T09:40:11Z</time>
      </trkpt>
      <trkpt lat="44.91297" lon="0.83262">
        <ele>161</ele>
        <time>2025-05-10T09:40:12Z</time>
      </trkpt>
      <trkpt lat="44.9129" lon="0.83268">
        <ele>160.8</ele>
        <time>2025-05-10T09:40:13Z</time>
      </trkpt>
      <trkpt lat="44.91284" lon="0.83274">
        <ele>160.2</ele>
        <time>2025-05-10T09:40:14Z</time>
      </trkpt>
      <trkpt lat="44.91277" lon="0.83279">
        <ele>159.8</ele>
        <time>2025-05-10T09:40:15Z</time>
      </trkpt>
      <trkpt lat="44.91271" lon="0.83284">
        <ele>158.8</ele>
        <time>2025-05-10T09:40:16Z</time>
      </trkpt>
      <trkpt lat="44.91265" lon="0.83288">
        <ele>158.8</ele>
        <time>2025-05-10T09:40:17Z</time>
      </trkpt>
      <trkpt lat="44.91259" lon="0.83291">
        <ele>158.8</ele>
        <time>2025-05-10T09:40:18Z</time>
      </trkpt>
      <trkpt lat="44.91253" lon="0.83293">
        <ele>158.8</ele>
        <time>2025-05-10T09:40:19Z</time>
      </trkpt>
      <trkpt lat="44.91246" lon="0.83294">
        <ele>158.8</ele>
        <time>2025-05-10T09:40:20Z</time>
      </trkpt>
      <trkpt lat="44.9124" lon="0.83295">
        <ele>159</ele>
        <time>2025-05-10T09:40:21Z</time>
      </trkpt>
      <trkpt lat="44.91233" lon="0.83296">
        <ele>159.4</ele>
        <time>2025-05-10T09:40:22Z</time>
      </trkpt>
      <trkpt lat="44.91227" lon="0.83297">
        <ele>159.8</ele>
        <time>2025-05-10T09:40:23Z</time>
      </trkpt>
      <trkpt lat="44.9122" lon="0.83298">
        <ele>160.4</ele>
        <time>2025-05-10T09:40:24Z</time>
      </trkpt>
      <trkpt lat="44.91213" lon="0.83299">
        <ele>160.4</ele>
        <time>2025-05-10T09:40:25Z</time>
      </trkpt>
      <trkpt lat="44.91206" lon="0.833">
        <ele>160.4</ele>
        <time>2025-05-10T09:40:26Z</time>
      </trkpt>
      <trkpt lat="44.91198" lon="0.83301">
        <ele>160.4</ele>
        <time>2025-05-10T09:40:27Z</time>
      </trkpt>
      <trkpt lat="44.91191" lon="0.83302">
        <ele>160.2</ele>
        <time>2025-05-10T09:40:28Z</time>
      </trkpt>
      <trkpt lat="44.91183" lon="0.83304">
        <ele>159.2</ele>
        <time>2025-05-10T09:40:29Z</time>
      </trkpt>
      <trkpt lat="44.91176" lon="0.83307">
        <ele>159</ele>
        <time>2025-05-10T09:40:30Z</time>
      </trkpt>
      <trkpt lat="44.91169" lon="0.8331">
        <ele>158.4</ele>
        <time>2025-05-10T09:40:31Z</time>
      </trkpt>
      <trkpt lat="44.91162" lon="0.83314">
        <ele>157.2</ele>
        <time>2025-05-10T09:40:32Z</time>
      </trkpt>
      <trkpt lat="44.91156" lon="0.83319">
        <ele>156.8</ele>
        <time>2025-05-10T09:40:33Z</time>
      </trkpt>
      <trkpt lat="44.9115" lon="0.83322">
        <ele>156.6</ele>
        <time>2025-05-10T09:40:34Z</time>
      </trkpt>
      <trkpt lat="44.91144" lon="0.83325">
        <ele>156.6</ele>
        <time>2025-05-10T09:40:35Z</time>
      </trkpt>
      <trkpt lat="44.91139" lon="0.83328">
        <ele>156.6</ele>
        <time>2025-05-10T09:40:36Z</time>
      </trkpt>
      <trkpt lat="44.91133" lon="0.83331">
        <ele>156.6</ele>
        <time>2025-05-10T09:40:37Z</time>
      </trkpt>
      <trkpt lat="44.91128" lon="0.83334">
        <ele>156.8</ele>
        <time>2025-05-10T09:40:38Z</time>
      </trkpt>
      <trkpt lat="44.91124" lon="0.83337">
        <ele>157.6</ele>
        <time>2025-05-10T09:40:39Z</time>
      </trkpt>
      <trkpt lat="44.91119" lon="0.8334">
        <ele>158</ele>
        <time>2025-05-10T09:40:40Z</time>
      </trkpt>
      <trkpt lat="44.91114" lon="0.83342">
        <ele>158.4</ele>
        <time>2025-05-10T09:40:41Z</time>
      </trkpt>
      <trkpt lat="44.9111" lon="0.83344">
        <ele>158.6</ele>
        <time>2025-05-10T09:40:42Z</time>
      </trkpt>
      <trkpt lat="44.91105" lon="0.83346">
        <ele>158.6</ele>
        <time>2025-05-10T09:40:43Z</time>
      </trkpt>
      <trkpt lat="44.91101" lon="0.83348">
        <ele>158.8</ele>
        <time>2025-05-10T09:40:44Z</time>
      </trkpt>
      <trkpt lat="44.91097" lon="0.8335">
        <ele>158.8</ele>
        <time>2025-05-10T09:40:45Z</time>
      </trkpt>
      <trkpt lat="44.91093" lon="0.83351">
        <ele>159.4</ele>
        <time>2025-05-10T09:40:46Z</time>
      </trkpt>
      <trkpt lat="44.91089" lon="0.8335">
        <ele>159.8</ele>
        <time>2025-05-10T09:40:47Z</time>
      </trkpt>
      <trkpt lat="44.91087" lon="0.83348">
        <ele>160.2</ele>
        <time>2025-05-10T09:40:48Z</time>
      </trkpt>
      <trkpt lat="44.91087" lon="0.83344">
        <ele>160.4</ele>
        <time>2025-05-10T09:40:49Z</time>
      </trkpt>
      <trkpt lat="44.91087" lon="0.83339">
        <ele>160.6</ele>
        <time>2025-05-10T09:40:50Z</time>
      </trkpt>
      <trkpt lat="44.91088" lon="0.83333">
        <ele>160.8</ele>
        <time>2025-05-10T09:40:51Z</time>
      </trkpt>
      <trkpt lat="44.91089" lon="0.83325">
        <ele>160.8</ele>
        <time>2025-05-10T09:40:52Z</time>
      </trkpt>
      <trkpt lat="44.9109" lon="0.83316">
        <ele>160.8</ele>
        <time>2025-05-10T09:40:53Z</time>
      </trkpt>
      <trkpt lat="44.91091" lon="0.83306">
        <ele>160.4</ele>
        <time>2025-05-10T09:40:54Z</time>
      </trkpt>
      <trkpt lat="44.9109" lon="0.83294">
        <ele>159.6</ele>
        <time>2025-05-10T09:40:55Z</time>
      </trkpt>
      <trkpt lat="44.91088" lon="0.83286">
        <ele>158.6</ele>
        <time>2025-05-10T09:40:56Z</time>
      </trkpt>
      <trkpt lat="44.91085" lon="0.83277">
        <ele>156.8</ele>
        <time>2025-05-10T09:40:57Z</time>
      </trkpt>
      <trkpt lat="44.91082" lon="0.83269">
        <ele>155.6</ele>
        <time>2025-05-10T09:40:58Z</time>
      </trkpt>
      <trkpt lat="44.91079" lon="0.83261">
        <ele>155.4</ele>
        <time>2025-05-10T09:40:59Z</time>
      </trkpt>
      <trkpt lat="44.91075" lon="0.83254">
        <ele>155.4</ele>
        <time>2025-05-10T09:41:00Z</time>
      </trkpt>
      <trkpt lat="44.91071" lon="0.83247">
        <ele>155.2</ele>
        <time>2025-05-10T09:41:01Z</time>
      </trkpt>
      <trkpt lat="44.91067" lon="0.8324">
        <ele>155.2</ele>
        <time>2025-05-10T09:41:02Z</time>
      </trkpt>
      <trkpt lat="44.91063" lon="0.83234">
        <ele>155.2</ele>
        <time>2025-05-10T09:41:03Z</time>
      </trkpt>
      <trkpt lat="44.91058" lon="0.83228">
        <ele>155.2</ele>
        <time>2025-05-10T09:41:04Z</time>
      </trkpt>
      <trkpt lat="44.91054" lon="0.83222">
        <ele>155.4</ele>
        <time>2025-05-10T09:41:05Z</time>
      </trkpt>
      <trkpt lat="44.9105" lon="0.83216">
        <ele>155.4</ele>
        <time>2025-05-10T09:41:06Z</time>
      </trkpt>
      <trkpt lat="44.91045" lon="0.83211">
        <ele>155.6</ele>
        <time>2025-05-10T09:41:07Z</time>
      </trkpt>
      <trkpt lat="44.9104" lon="0.83206">
        <ele>155.6</ele>
        <time>2025-05-10T09:41:08Z</time>
      </trkpt>
      <trkpt lat="44.91035" lon="0.832">
        <ele>155.6</ele>
        <time>2025-05-10T09:41:09Z</time>
      </trkpt>
      <trkpt lat="44.91029" lon="0.83194">
        <ele>155.8</ele>
        <time>2025-05-10T09:41:10Z</time>
      </trkpt>
      <trkpt lat="44.91024" lon="0.83189">
        <ele>155.8</ele>
        <time>2025-05-10T09:41:11Z</time>
      </trkpt>
      <trkpt lat="44.91019" lon="0.83184">
        <ele>155.8</ele>
        <time>2025-05-10T09:41:12Z</time>
      </trkpt>
      <trkpt lat="44.91014" lon="0.83179">
        <ele>155.8</ele>
        <time>2025-05-10T09:41:13Z</time>
      </trkpt>
      <trkpt lat="44.91009" lon="0.83175">
        <ele>155.8</ele>
        <time>2025-05-10T09:41:14Z</time>
      </trkpt>
      <trkpt lat="44.91002" lon="0.83171">
        <ele>155.8</ele>
        <time>2025-05-10T09:41:15Z</time>
      </trkpt>
      <trkpt lat="44.90996" lon="0.83168">
        <ele>155.8</ele>
        <time>2025-05-10T09:41:16Z</time>
      </trkpt>
      <trkpt lat="44.90989" lon="0.83165">
        <ele>155.8</ele>
        <time>2025-05-10T09:41:17Z</time>
      </trkpt>
      <trkpt lat="44.90983" lon="0.83161">
        <ele>155.6</ele>
        <time>2025-05-10T09:41:18Z</time>
      </trkpt>
      <trkpt lat="44.90977" lon="0.83159">
        <ele>155.4</ele>
        <time>2025-05-10T09:41:19Z</time>
      </trkpt>
      <trkpt lat="44.90971" lon="0.83156">
        <ele>155.4</ele>
        <time>2025-05-10T09:41:20Z</time>
      </trkpt>
      <trkpt lat="44.90965" lon="0.83153">
        <ele>155.2</ele>
        <time>2025-05-10T09:41:21Z</time>
      </trkpt>
      <trkpt lat="44.90958" lon="0.8315">
        <ele>155.2</ele>
        <time>2025-05-10T09:41:22Z</time>
      </trkpt>
      <trkpt lat="44.90952" lon="0.83146">
        <ele>155</ele>
        <time>2025-05-10T09:41:23Z</time>
      </trkpt>
      <trkpt lat="44.90947" lon="0.83141">
        <ele>154.8</ele>
        <time>2025-05-10T09:41:24Z</time>
      </trkpt>
      <trkpt lat="44.9094" lon="0.83137">
        <ele>154.8</ele>
        <time>2025-05-10T09:41:25Z</time>
      </trkpt>
      <trkpt lat="44.90934" lon="0.83134">
        <ele>154.4</ele>
        <time>2025-05-10T09:41:26Z</time>
      </trkpt>
      <trkpt lat="44.90928" lon="0.8313">
        <ele>154</ele>
        <time>2025-05-10T09:41:27Z</time>
      </trkpt>
      <trkpt lat="44.90922" lon="0.83126">
        <ele>153.8</ele>
        <time>2025-05-10T09:41:28Z</time>
      </trkpt>
      <trkpt lat="44.90916" lon="0.83121">
        <ele>153.4</ele>
        <time>2025-05-10T09:41:29Z</time>
      </trkpt>
      <trkpt lat="44.90911" lon="0.83116">
        <ele>153.2</ele>
        <time>2025-05-10T09:41:30Z</time>
      </trkpt>
      <trkpt lat="44.90905" lon="0.8311">
        <ele>152.8</ele>
        <time>2025-05-10T09:41:31Z</time>
      </trkpt>
      <trkpt lat="44.909" lon="0.83102">
        <ele>152.8</ele>
        <time>2025-05-10T09:41:32Z</time>
      </trkpt>
      <trkpt lat="44.90894" lon="0.83096">
        <ele>152.6</ele>
        <time>2025-05-10T09:41:33Z</time>
      </trkpt>
      <trkpt lat="44.90887" lon="0.83092">
        <ele>151.8</ele>
        <time>2025-05-10T09:41:34Z</time>
      </trkpt>
      <trkpt lat="44.90881" lon="0.83088">
        <ele>150.6</ele>
        <time>2025-05-10T09:41:35Z</time>
      </trkpt>
      <trkpt lat="44.90873" lon="0.83083">
        <ele>150.4</ele>
        <time>2025-05-10T09:41:36Z</time>
      </trkpt>
      <trkpt lat="44.90867" lon="0.83079">
        <ele>150.2</ele>
        <time>2025-05-10T09:41:37Z</time>
      </trkpt>
      <trkpt lat="44.9086" lon="0.83076">
        <ele>149.6</ele>
        <time>2025-05-10T09:41:38Z</time>
      </trkpt>
      <trkpt lat="44.90852" lon="0.83072">
        <ele>149.6</ele>
        <time>2025-05-10T09:41:39Z</time>
      </trkpt>
      <trkpt lat="44.90844" lon="0.83069">
        <ele>149.4</ele>
        <time>2025-05-10T09:41:40Z</time>
      </trkpt>
      <trkpt lat="44.90837" lon="0.83066">
        <ele>148.8</ele>
        <time>2025-05-10T09:41:41Z</time>
      </trkpt>
      <trkpt lat="44.90829" lon="0.83064">
        <ele>148</ele>
        <time>2025-05-10T09:41:42Z</time>
      </trkpt>
      <trkpt lat="44.90821" lon="0.83062">
        <ele>147.8</ele>
        <time>2025-05-10T09:41:43Z</time>
      </trkpt>
      <trkpt lat="44.90813" lon="0.83061">
        <ele>147</ele>
        <time>2025-05-10T09:41:44Z</time>
      </trkpt>
      <trkpt lat="44.90805" lon="0.8306">
        <ele>146.4</ele>
        <time>2025-05-10T09:41:45Z</time>
      </trkpt>
      <trkpt lat="44.90797" lon="0.8306">
        <ele>145.8</ele>
        <time>2025-05-10T09:41:46Z</time>
      </trkpt>
      <trkpt lat="44.9079" lon="0.83059">
        <ele>145.6</ele>
        <time>2025-05-10T09:41:47Z</time>
      </trkpt>
      <trkpt lat="44.90782" lon="0.8306">
        <ele>145.2</ele>
        <time>2025-05-10T09:41:48Z</time>
      </trkpt>
      <trkpt lat="44.90774" lon="0.83058">
        <ele>145.2</ele>
        <time>2025-05-10T09:41:49Z</time>
      </trkpt>
      <trkpt lat="44.90766" lon="0.83058">
        <ele>145</ele>
        <time>2025-05-10T09:41:50Z</time>
      </trkpt>
      <trkpt lat="44.90758" lon="0.83058">
        <ele>145</ele>
        <time>2025-05-10T09:41:51Z</time>
      </trkpt>
      <trkpt lat="44.9075" lon="0.83057">
        <ele>144.8</ele>
        <time>2025-05-10T09:41:52Z</time>
      </trkpt>
      <trkpt lat="44.90742" lon="0.83056">
        <ele>144.8</ele>
        <time>2025-05-10T09:41:53Z</time>
      </trkpt>
      <trkpt lat="44.90735" lon="0.83055">
        <ele>144.8</ele>
        <time>2025-05-10T09:41:54Z</time>
      </trkpt>
      <trkpt lat="44.90728" lon="0.83052">
        <ele>145</ele>
        <time>2025-05-10T09:41:55Z</time>
      </trkpt>
      <trkpt lat="44.90722" lon="0.8305">
        <ele>145.2</ele>
        <time>2025-05-10T09:41:56Z</time>
      </trkpt>
      <trkpt lat="44.90715" lon="0.83047">
        <ele>145.4</ele>
        <time>2025-05-10T09:41:57Z</time>
      </trkpt>
      <trkpt lat="44.90708" lon="0.83044">
        <ele>145.8</ele>
        <time>2025-05-10T09:41:58Z</time>
      </trkpt>
      <trkpt lat="44.90701" lon="0.83043">
        <ele>145.8</ele>
        <time>2025-05-10T09:41:59Z</time>
      </trkpt>
      <trkpt lat="44.90693" lon="0.83042">
        <ele>146</ele>
        <time>2025-05-10T09:42:00Z</time>
      </trkpt>
      <trkpt lat="44.90686" lon="0.83041">
        <ele>146</ele>
        <time>2025-05-10T09:42:01Z</time>
      </trkpt>
      <trkpt lat="44.90679" lon="0.83041">
        <ele>146</ele>
        <time>2025-05-10T09:42:02Z</time>
      </trkpt>
      <trkpt lat="44.90671" lon="0.83041">
        <ele>145.8</ele>
        <time>2025-05-10T09:42:03Z</time>
      </trkpt>
      <trkpt lat="44.90664" lon="0.83041">
        <ele>145.4</ele>
        <time>2025-05-10T09:42:04Z</time>
      </trkpt>
      <trkpt lat="44.90657" lon="0.83042">
        <ele>145.4</ele>
        <time>2025-05-10T09:42:05Z</time>
      </trkpt>
      <trkpt lat="44.9065" lon="0.83043">
        <ele>145.4</ele>
        <time>2025-05-10T09:42:06Z</time>
      </trkpt>
      <trkpt lat="44.90644" lon="0.83041">
        <ele>145.4</ele>
        <time>2025-05-10T09:42:07Z</time>
      </trkpt>
      <trkpt lat="44.90638" lon="0.83038">
        <ele>145.2</ele>
        <time>2025-05-10T09:42:08Z</time>
      </trkpt>
      <trkpt lat="44.9063" lon="0.83036">
        <ele>145</ele>
        <time>2025-05-10T09:42:09Z</time>
      </trkpt>
      <trkpt lat="44.90621" lon="0.83034">
        <ele>145</ele>
        <time>2025-05-10T09:42:10Z</time>
      </trkpt>
      <trkpt lat="44.90612" lon="0.83034">
        <ele>144.4</ele>
        <time>2025-05-10T09:42:11Z</time>
      </trkpt>
      <trkpt lat="44.90604" lon="0.83036">
        <ele>143.6</ele>
        <time>2025-05-10T09:42:12Z</time>
      </trkpt>
      <trkpt lat="44.90597" lon="0.83036">
        <ele>141.6</ele>
        <time>2025-05-10T09:42:13Z</time>
      </trkpt>
      <trkpt lat="44.90591" lon="0.83032">
        <ele>140.4</ele>
        <time>2025-05-10T09:42:14Z</time>
      </trkpt>
      <trkpt lat="44.90585" lon="0.83032">
        <ele>139.8</ele>
        <time>2025-05-10T09:42:15Z</time>
      </trkpt>
      <trkpt lat="44.9058" lon="0.83034">
        <ele>139.6</ele>
        <time>2025-05-10T09:42:16Z</time>
      </trkpt>
      <trkpt lat="44.90575" lon="0.83036">
        <ele>139.4</ele>
        <time>2025-05-10T09:42:17Z</time>
      </trkpt>
      <trkpt lat="44.90572" lon="0.83037">
        <ele>139.4</ele>
        <time>2025-05-10T09:42:18Z</time>
      </trkpt>
      <trkpt lat="44.90568" lon="0.83038">
        <ele>139.4</ele>
        <time>2025-05-10T09:42:19Z</time>
      </trkpt>
      <trkpt lat="44.90563" lon="0.8304">
        <ele>139.4</ele>
        <time>2025-05-10T09:42:20Z</time>
      </trkpt>
      <trkpt lat="44.90559" lon="0.83043">
        <ele>139.4</ele>
        <time>2025-05-10T09:42:21Z</time>
      </trkpt>
      <trkpt lat="44.90554" lon="0.83046">
        <ele>139.4</ele>
        <time>2025-05-10T09:42:22Z</time>
      </trkpt>
      <trkpt lat="44.90549" lon="0.83046">
        <ele>139.4</ele>
        <time>2025-05-10T09:42:23Z</time>
      </trkpt>
      <trkpt lat="44.90544" lon="0.83046">
        <ele>139.6</ele>
        <time>2025-05-10T09:42:24Z</time>
      </trkpt>
      <trkpt lat="44.90538" lon="0.83047">
        <ele>139.6</ele>
        <time>2025-05-10T09:42:25Z</time>
      </trkpt>
      <trkpt lat="44.90533" lon="0.8305">
        <ele>139.6</ele>
        <time>2025-05-10T09:42:26Z</time>
      </trkpt>
      <trkpt lat="44.90528" lon="0.83053">
        <ele>139.4</ele>
        <time>2025-05-10T09:42:27Z</time>
      </trkpt>
      <trkpt lat="44.90523" lon="0.83056">
        <ele>139.4</ele>
        <time>2025-05-10T09:42:28Z</time>
      </trkpt>
      <trkpt lat="44.9052" lon="0.83059">
        <ele>138.8</ele>
        <time>2025-05-10T09:42:29Z</time>
      </trkpt>
      <trkpt lat="44.90517" lon="0.83061">
        <ele>138.4</ele>
        <time>2025-05-10T09:42:30Z</time>
      </trkpt>
      <trkpt lat="44.90515" lon="0.8306">
        <ele>138.4</ele>
        <time>2025-05-10T09:42:31Z</time>
      </trkpt>
      <trkpt lat="44.90512" lon="0.83058">
        <ele>138.4</ele>
        <time>2025-05-10T09:42:32Z</time>
      </trkpt>
      <trkpt lat="44.9051" lon="0.83057">
        <ele>138.2</ele>
        <time>2025-05-10T09:42:33Z</time>
      </trkpt>
      <trkpt lat="44.90507" lon="0.83057">
        <ele>138.2</ele>
        <time>2025-05-10T09:42:34Z</time>
      </trkpt>
      <trkpt lat="44.90503" lon="0.83057">
        <ele>138.2</ele>
        <time>2025-05-10T09:42:35Z</time>
      </trkpt>
      <trkpt lat="44.90498" lon="0.83057">
        <ele>137.6</ele>
        <time>2025-05-10T09:42:36Z</time>
      </trkpt>
      <trkpt lat="44.90493" lon="0.83057">
        <ele>137.2</ele>
        <time>2025-05-10T09:42:37Z</time>
      </trkpt>
      <trkpt lat="44.90487" lon="0.83057">
        <ele>136.8</ele>
        <time>2025-05-10T09:42:38Z</time>
      </trkpt>
      <trkpt lat="44.90481" lon="0.83056">
        <ele>136.2</ele>
        <time>2025-05-10T09:42:39Z</time>
      </trkpt>
      <trkpt lat="44.90474" lon="0.83055">
        <ele>135.6</ele>
        <time>2025-05-10T09:42:40Z</time>
      </trkpt>
      <trkpt lat="44.90466" lon="0.83055">
        <ele>135.2</ele>
        <time>2025-05-10T09:42:41Z</time>
      </trkpt>
      <trkpt lat="44.90457" lon="0.83056">
        <ele>133.4</ele>
        <time>2025-05-10T09:42:42Z</time>
      </trkpt>
      <trkpt lat="44.90449" lon="0.83058">
        <ele>132.8</ele>
        <time>2025-05-10T09:42:43Z</time>
      </trkpt>
      <trkpt lat="44.90439" lon="0.83059">
        <ele>131.6</ele>
        <time>2025-05-10T09:42:44Z</time>
      </trkpt>
      <trkpt lat="44.90429" lon="0.8306">
        <ele>130.2</ele>
        <time>2025-05-10T09:42:45Z</time>
      </trkpt>
      <trkpt lat="44.9042" lon="0.83062">
        <ele>128.4</ele>
        <time>2025-05-10T09:42:46Z</time>
      </trkpt>
      <trkpt lat="44.9041" lon="0.83065">
        <ele>127</ele>
        <time>2025-05-10T09:42:47Z</time>
      </trkpt>
      <trkpt lat="44.90399" lon="0.83068">
        <ele>125.2</ele>
        <time>2025-05-10T09:42:48Z</time>
      </trkpt>
      <trkpt lat="44.90389" lon="0.8307">
        <ele>123.8</ele>
        <time>2025-05-10T09:42:49Z</time>
      </trkpt>
      <trkpt lat="44.90378" lon="0.83072">
        <ele>123</ele>
        <time>2025-05-10T09:42:50Z</time>
      </trkpt>
      <trkpt lat="44.90369" lon="0.83074">
        <ele>122</ele>
        <time>2025-05-10T09:42:51Z</time>
      </trkpt>
      <trkpt lat="44.9036" lon="0.83074">
        <ele>119.8</ele>
        <time>2025-05-10T09:42:52Z</time>
      </trkpt>
      <trkpt lat="44.90352" lon="0.83075">
        <ele>118.6</ele>
        <time>2025-05-10T09:42:53Z</time>
      </trkpt>
      <trkpt lat="44.90343" lon="0.83077">
        <ele>117.2</ele>
        <time>2025-05-10T09:42:54Z</time>
      </trkpt>
      <trkpt lat="44.90335" lon="0.8308">
        <ele>117</ele>
        <time>2025-05-10T09:42:55Z</time>
      </trkpt>
      <trkpt lat="44.90326" lon="0.83081">
        <ele>116.8</ele>
        <time>2025-05-10T09:42:56Z</time>
      </trkpt>
      <trkpt lat="44.90318" lon="0.83079">
        <ele>116</ele>
        <time>2025-05-10T09:42:57Z</time>
      </trkpt>
      <trkpt lat="44.90309" lon="0.83077">
        <ele>115.8</ele>
        <time>2025-05-10T09:42:58Z</time>
      </trkpt>
      <trkpt lat="44.903" lon="0.83076">
        <ele>115.8</ele>
        <time>2025-05-10T09:42:59Z</time>
      </trkpt>
      <trkpt lat="44.90292" lon="0.83075">
        <ele>115.2</ele>
        <time>2025-05-10T09:43:00Z</time>
      </trkpt>
      <trkpt lat="44.90285" lon="0.83075">
        <ele>114.8</ele>
        <time>2025-05-10T09:43:01Z</time>
      </trkpt>
      <trkpt lat="44.90278" lon="0.83074">
        <ele>114</ele>
        <time>2025-05-10T09:43:02Z</time>
      </trkpt>
      <trkpt lat="44.90271" lon="0.83075">
        <ele>113.2</ele>
        <time>2025-05-10T09:43:03Z</time>
      </trkpt>
      <trkpt lat="44.90265" lon="0.83077">
        <ele>113</ele>
        <time>2025-05-10T09:43:04Z</time>
      </trkpt>
      <trkpt lat="44.90262" lon="0.83077">
        <ele>112.4</ele>
        <time>2025-05-10T09:43:05Z</time>
      </trkpt>
      <trkpt lat="44.90259" lon="0.83076">
        <ele>112</ele>
        <time>2025-05-10T09:43:06Z</time>
      </trkpt>
      <trkpt lat="44.90257" lon="0.83072">
        <ele>112</ele>
        <time>2025-05-10T09:43:07Z</time>
      </trkpt>
      <trkpt lat="44.90256" lon="0.83068">
        <ele>111.8</ele>
        <time>2025-05-10T09:43:08Z</time>
      </trkpt>
      <trkpt lat="44.90255" lon="0.83062">
        <ele>111.8</ele>
        <time>2025-05-10T09:43:09Z</time>
      </trkpt>
      <trkpt lat="44.90254" lon="0.83055">
        <ele>111.6</ele>
        <time>2025-05-10T09:43:10Z</time>
      </trkpt>
      <trkpt lat="44.90255" lon="0.83047">
        <ele>111.4</ele>
        <time>2025-05-10T09:43:11Z</time>
      </trkpt>
      <trkpt lat="44.90257" lon="0.8304">
        <ele>110.4</ele>
        <time>2025-05-10T09:43:12Z</time>
      </trkpt>
      <trkpt lat="44.9026" lon="0.83033">
        <ele>109.4</ele>
        <time>2025-05-10T09:43:13Z</time>
      </trkpt>
      <trkpt lat="44.90264" lon="0.83024">
        <ele>108</ele>
        <time>2025-05-10T09:43:14Z</time>
      </trkpt>
      <trkpt lat="44.90269" lon="0.83017">
        <ele>106.8</ele>
        <time>2025-05-10T09:43:15Z</time>
      </trkpt>
      <trkpt lat="44.90274" lon="0.8301">
        <ele>105.4</ele>
        <time>2025-05-10T09:43:16Z</time>
      </trkpt>
      <trkpt lat="44.9028" lon="0.83004">
        <ele>104</ele>
        <time>2025-05-10T09:43:17Z</time>
      </trkpt>
      <trkpt lat="44.90286" lon="0.82999">
        <ele>103.4</ele>
        <time>2025-05-10T09:43:18Z</time>
      </trkpt>
      <trkpt lat="44.90292" lon="0.82994">
        <ele>102.8</ele>
        <time>2025-05-10T09:43:19Z</time>
      </trkpt>
      <trkpt lat="44.90296" lon="0.8299">
        <ele>102.8</ele>
        <time>2025-05-10T09:43:20Z</time>
      </trkpt>
      <trkpt lat="44.90297" lon="0.82984">
        <ele>102.8</ele>
        <time>2025-05-10T09:43:21Z</time>
      </trkpt>
      <trkpt lat="44.90298" lon="0.82977">
        <ele>102.8</ele>
        <time>2025-05-10T09:43:22Z</time>
      </trkpt>
      <trkpt lat="44.90297" lon="0.82973">
        <ele>103</ele>
        <time>2025-05-10T09:43:23Z</time>
      </trkpt>
      <trkpt lat="44.90296" lon="0.82968">
        <ele>103.6</ele>
        <time>2025-05-10T09:43:24Z</time>
      </trkpt>
      <trkpt lat="44.90295" lon="0.82963">
        <ele>104.2</ele>
        <time>2025-05-10T09:43:25Z</time>
      </trkpt>
      <trkpt lat="44.90294" lon="0.82958">
        <ele>104.4</ele>
        <time>2025-05-10T09:43:26Z</time>
      </trkpt>
      <trkpt lat="44.90294" lon="0.82954">
        <ele>104.8</ele>
        <time>2025-05-10T09:43:27Z</time>
      </trkpt>
      <trkpt lat="44.90294" lon="0.82951">
        <ele>104.8</ele>
        <time>2025-05-10T09:43:28Z</time>
      </trkpt>
      <trkpt lat="44.90293" lon="0.82947">
        <ele>105</ele>
        <time>2025-05-10T09:43:29Z</time>
      </trkpt>
      <trkpt lat="44.90292" lon="0.82943">
        <ele>105.4</ele>
        <time>2025-05-10T09:43:30Z</time>
      </trkpt>
      <trkpt lat="44.90292" lon="0.8294">
        <ele>105.6</ele>
        <time>2025-05-10T09:43:31Z</time>
      </trkpt>
      <trkpt lat="44.90291" lon="0.82936">
        <ele>105.8</ele>
        <time>2025-05-10T09:43:32Z</time>
      </trkpt>
      <trkpt lat="44.9029" lon="0.82933">
        <ele>105.8</ele>
        <time>2025-05-10T09:43:33Z</time>
      </trkpt>
      <trkpt lat="44.9029" lon="0.8293">
        <ele>106</ele>
        <time>2025-05-10T09:43:34Z</time>
      </trkpt>
      <trkpt lat="44.90289" lon="0.82927">
        <ele>106.2</ele>
        <time>2025-05-10T09:43:35Z</time>
      </trkpt>
      <trkpt lat="44.90289" lon="0.82924">
        <ele>106.2</ele>
        <time>2025-05-10T09:43:36Z</time>
      </trkpt>
      <trkpt lat="44.90289" lon="0.82922">
        <ele>106.4</ele>
        <time>2025-05-10T09:43:37Z</time>
      </trkpt>
      <trkpt lat="44.90288" lon="0.82919">
        <ele>106.6</ele>
        <time>2025-05-10T09:43:38Z</time>
      </trkpt>
      <trkpt lat="44.90288" lon="0.82916">
        <ele>107</ele>
        <time>2025-05-10T09:43:39Z</time>
      </trkpt>
      <trkpt lat="44.90287" lon="0.82914">
        <ele>107.2</ele>
        <time>2025-05-10T09:43:40Z</time>
      </trkpt>
      <trkpt lat="44.90287" lon="0.82912">
        <ele>107.6</ele>
        <time>2025-05-10T09:43:41Z</time>
      </trkpt>
      <trkpt lat="44.90286" lon="0.8291">
        <ele>107.8</ele>
        <time>2025-05-10T09:43:42Z</time>
      </trkpt>
      <trkpt lat="44.90285" lon="0.82908">
        <ele>108.2</ele>
        <time>2025-05-10T09:43:43Z</time>
      </trkpt>
      <trkpt lat="44.90285" lon="0.82906">
        <ele>108.4</ele>
        <time>2025-05-10T09:43:44Z</time>
      </trkpt>
      <trkpt lat="44.90284" lon="0.82904">
        <ele>108.8</ele>
        <time>2025-05-10T09:43:45Z</time>
      </trkpt>
      <trkpt lat="44.90284" lon="0.82902">
        <ele>109</ele>
        <time>2025-05-10T09:43:46Z</time>
      </trkpt>
      <trkpt lat="44.90284" lon="0.829">
        <ele>109.4</ele>
        <time>2025-05-10T09:43:47Z</time>
      </trkpt>
      <trkpt lat="44.90283" lon="0.82898">
        <ele>109.8</ele>
        <time>2025-05-10T09:43:48Z</time>
      </trkpt>
      <trkpt lat="44.90283" lon="0.82896">
        <ele>110</ele>
        <time>2025-05-10T09:43:49Z</time>
      </trkpt>
      <trkpt lat="44.90282" lon="0.82894">
        <ele>110.2</ele>
        <time>2025-05-10T09:43:50Z</time>
      </trkpt>
      <trkpt lat="44.90282" lon="0.82892">
        <ele>110.4</ele>
        <time>2025-05-10T09:43:51Z</time>
      </trkpt>
      <trkpt lat="44.90281" lon="0.8289">
        <ele>110.8</ele>
        <time>2025-05-10T09:43:52Z</time>
      </trkpt>
      <trkpt lat="44.90281" lon="0.82888">
        <ele>111</ele>
        <time>2025-05-10T09:43:53Z</time>
      </trkpt>
      <trkpt lat="44.9028" lon="0.82886">
        <ele>111.2</ele>
        <time>2025-05-10T09:43:54Z</time>
      </trkpt>
      <trkpt lat="44.9028" lon="0.82884">
        <ele>111.6</ele>
        <time>2025-05-10T09:43:55Z</time>
      </trkpt>
      <trkpt lat="44.90279" lon="0.82881">
        <ele>111.8</ele>
        <time>2025-05-10T09:43:56Z</time>
      </trkpt>
      <trkpt lat="44.90279" lon="0.82879">
        <ele>111.8</ele>
        <time>2025-05-10T09:43:57Z</time>
      </trkpt>
      <trkpt lat="44.90278" lon="0.82877">
        <ele>112</ele>
        <time>2025-05-10T09:43:58Z</time>
      </trkpt>
      <trkpt lat="44.90278" lon="0.82875">
        <ele>112</ele>
        <time>2025-05-10T09:43:59Z</time>
      </trkpt>
      <trkpt lat="44.90277" lon="0.82873">
        <ele>112.2</ele>
        <time>2025-05-10T09:44:00Z</time>
      </trkpt>
      <trkpt lat="44.90277" lon="0.82871">
        <ele>112.2</ele>
        <time>2025-05-10T09:44:01Z</time>
      </trkpt>
      <trkpt lat="44.90277" lon="0.82868">
        <ele>112.4</ele>
        <time>2025-05-10T09:44:02Z</time>
      </trkpt>
      <trkpt lat="44.90276" lon="0.82866">
        <ele>112.4</ele>
        <time>2025-05-10T09:44:03Z</time>
      </trkpt>
      <trkpt lat="44.90276" lon="0.82864">
        <ele>112.6</ele>
        <time>2025-05-10T09:44:04Z</time>
      </trkpt>
      <trkpt lat="44.90276" lon="0.82862">
        <ele>112.6</ele>
        <time>2025-05-10T09:44:05Z</time>
      </trkpt>
      <trkpt lat="44.90276" lon="0.8286">
        <ele>112.6</ele>
        <time>2025-05-10T09:44:06Z</time>
      </trkpt>
      <trkpt lat="44.90276" lon="0.82858">
        <ele>112.8</ele>
        <time>2025-05-10T09:44:07Z</time>
      </trkpt>
      <trkpt lat="44.90275" lon="0.82856">
        <ele>112.8</ele>
        <time>2025-05-10T09:44:08Z</time>
      </trkpt>
      <trkpt lat="44.90275" lon="0.82854">
        <ele>113</ele>
        <time>2025-05-10T09:44:09Z</time>
      </trkpt>
      <trkpt lat="44.90275" lon="0.82851">
        <ele>113.2</ele>
        <time>2025-05-10T09:44:10Z</time>
      </trkpt>
      <trkpt lat="44.90275" lon="0.82849">
        <ele>113.4</ele>
        <time>2025-05-10T09:44:11Z</time>
      </trkpt>
      <trkpt lat="44.90275" lon="0.82847">
        <ele>113.6</ele>
        <time>2025-05-10T09:44:12Z</time>
      </trkpt>
      <trkpt lat="44.90275" lon="0.82845">
        <ele>113.8</ele>
        <time>2025-05-10T09:44:13Z</time>
      </trkpt>
      <trkpt lat="44.90274" lon="0.82843">
        <ele>113.8</ele>
        <time>2025-05-10T09:44:14Z</time>
      </trkpt>
      <trkpt lat="44.90274" lon="0.82841">
        <ele>114</ele>
        <time>2025-05-10T09:44:15Z</time>
      </trkpt>
      <trkpt lat="44.90274" lon="0.82839">
        <ele>114.4</ele>
        <time>2025-05-10T09:44:16Z</time>
      </trkpt>
      <trkpt lat="44.90274" lon="0.82837">
        <ele>114.6</ele>
        <time>2025-05-10T09:44:17Z</time>
      </trkpt>
      <trkpt lat="44.90274" lon="0.82835">
        <ele>114.6</ele>
        <time>2025-05-10T09:44:18Z</time>
      </trkpt>
      <trkpt lat="44.90273" lon="0.82832">
        <ele>114.6</ele>
        <time>2025-05-10T09:44:19Z</time>
      </trkpt>
      <trkpt lat="44.90273" lon="0.8283">
        <ele>114.8</ele>
        <time>2025-05-10T09:44:20Z</time>
      </trkpt>
      <trkpt lat="44.90273" lon="0.82828">
        <ele>114.8</ele>
        <time>2025-05-10T09:44:21Z</time>
      </trkpt>
      <trkpt lat="44.90273" lon="0.82826">
        <ele>115</ele>
        <time>2025-05-10T09:44:22Z</time>
      </trkpt>
      <trkpt lat="44.90273" lon="0.82824">
        <ele>115.2</ele>
        <time>2025-05-10T09:44:23Z</time>
      </trkpt>
      <trkpt lat="44.90272" lon="0.82822">
        <ele>115.4</ele>
        <time>2025-05-10T09:44:24Z</time>
      </trkpt>
      <trkpt lat="44.90272" lon="0.8282">
        <ele>115.6</ele>
        <time>2025-05-10T09:44:25Z</time>
      </trkpt>
      <trkpt lat="44.90272" lon="0.82818">
        <ele>115.8</ele>
        <time>2025-05-10T09:44:26Z</time>
      </trkpt>
      <trkpt lat="44.90272" lon="0.82816">
        <ele>116</ele>
        <time>2025-05-10T09:44:27Z</time>
      </trkpt>
      <trkpt lat="44.90272" lon="0.82813">
        <ele>116.2</ele>
        <time>2025-05-10T09:44:28Z</time>
      </trkpt>
      <trkpt lat="44.90271" lon="0.82811">
        <ele>116.4</ele>
        <time>2025-05-10T09:44:29Z</time>
      </trkpt>
      <trkpt lat="44.90271" lon="0.82809">
        <ele>116.8</ele>
        <time>2025-05-10T09:44:30Z</time>
      </trkpt>
      <trkpt lat="44.90271" lon="0.82808">
        <ele>117</ele>
        <time>2025-05-10T09:44:31Z</time>
      </trkpt>
      <trkpt lat="44.9027" lon="0.82805">
        <ele>117.2</ele>
        <time>2025-05-10T09:44:32Z</time>
      </trkpt>
      <trkpt lat="44.9027" lon="0.82804">
        <ele>117.4</ele>
        <time>2025-05-10T09:44:33Z</time>
      </trkpt>
      <trkpt lat="44.9027" lon="0.82802">
        <ele>117.4</ele>
        <time>2025-05-10T09:44:34Z</time>
      </trkpt>
      <trkpt lat="44.90269" lon="0.828">
        <ele>117.6</ele>
        <time>2025-05-10T09:44:35Z</time>
      </trkpt>
      <trkpt lat="44.90268" lon="0.82798">
        <ele>118</ele>
        <time>2025-05-10T09:44:36Z</time>
      </trkpt>
      <trkpt lat="44.90268" lon="0.82796">
        <ele>118.4</ele>
        <time>2025-05-10T09:44:37Z</time>
      </trkpt>
      <trkpt lat="44.90267" lon="0.82794">
        <ele>118.6</ele>
        <time>2025-05-10T09:44:38Z</time>
      </trkpt>
      <trkpt lat="44.90267" lon="0.82793">
        <ele>119</ele>
        <time>2025-05-10T09:44:39Z</time>
      </trkpt>
      <trkpt lat="44.90266" lon="0.82792">
        <ele>119.2</ele>
        <time>2025-05-10T09:44:40Z</time>
      </trkpt>
      <trkpt lat="44.90265" lon="0.8279">
        <ele>119.6</ele>
        <time>2025-05-10T09:44:41Z</time>
      </trkpt>
      <trkpt lat="44.90265" lon="0.82788">
        <ele>120</ele>
        <time>2025-05-10T09:44:42Z</time>
      </trkpt>
      <trkpt lat="44.90265" lon="0.82786">
        <ele>120.4</ele>
        <time>2025-05-10T09:44:43Z</time>
      </trkpt>
      <trkpt lat="44.90264" lon="0.82784">
        <ele>120.8</ele>
        <time>2025-05-10T09:44:44Z</time>
      </trkpt>
      <trkpt lat="44.90264" lon="0.82783">
        <ele>121.2</ele>
        <time>2025-05-10T09:44:45Z</time>
      </trkpt>
      <trkpt lat="44.90263" lon="0.82782">
        <ele>121.4</ele>
        <time>2025-05-10T09:44:46Z</time>
      </trkpt>
      <trkpt lat="44.90262" lon="0.82781">
        <ele>121.8</ele>
        <time>2025-05-10T09:44:47Z</time>
      </trkpt>
      <trkpt lat="44.90262" lon="0.82779">
        <ele>122</ele>
        <time>2025-05-10T09:44:48Z</time>
      </trkpt>
      <trkpt lat="44.90261" lon="0.82776">
        <ele>122.4</ele>
        <time>2025-05-10T09:44:49Z</time>
      </trkpt>
      <trkpt lat="44.9026" lon="0.82774">
        <ele>122.6</ele>
        <time>2025-05-10T09:44:50Z</time>
      </trkpt>
      <trkpt lat="44.90259" lon="0.82773">
        <ele>123</ele>
        <time>2025-05-10T09:44:51Z</time>
      </trkpt>
      <trkpt lat="44.90259" lon="0.82771">
        <ele>123.2</ele>
        <time>2025-05-10T09:44:52Z</time>
      </trkpt>
      <trkpt lat="44.90258" lon="0.82769">
        <ele>123.4</ele>
        <time>2025-05-10T09:44:53Z</time>
      </trkpt>
      <trkpt lat="44.90257" lon="0.82767">
        <ele>123.6</ele>
        <time>2025-05-10T09:44:54Z</time>
      </trkpt>
      <trkpt lat="44.90257" lon="0.82765">
        <ele>123.6</ele>
        <time>2025-05-10T09:44:55Z</time>
      </trkpt>
      <trkpt lat="44.90256" lon="0.82763">
        <ele>123.8</ele>
        <time>2025-05-10T09:44:56Z</time>
      </trkpt>
      <trkpt lat="44.90256" lon="0.82762">
        <ele>124</ele>
        <time>2025-05-10T09:44:57Z</time>
      </trkpt>
      <trkpt lat="44.90256" lon="0.8276">
        <ele>124.4</ele>
        <time>2025-05-10T09:44:58Z</time>
      </trkpt>
      <trkpt lat="44.90256" lon="0.82758">
        <ele>124.6</ele>
        <time>2025-05-10T09:44:59Z</time>
      </trkpt>
      <trkpt lat="44.90255" lon="0.82757">
        <ele>124.8</ele>
        <time>2025-05-10T09:45:00Z</time>
      </trkpt>
      <trkpt lat="44.90255" lon="0.82756">
        <ele>125.2</ele>
        <time>2025-05-10T09:45:01Z</time>
      </trkpt>
      <trkpt lat="44.90255" lon="0.82754">
        <ele>125.4</ele>
        <time>2025-05-10T09:45:02Z</time>
      </trkpt>
      <trkpt lat="44.90255" lon="0.82753">
        <ele>125.4</ele>
        <time>2025-05-10T09:45:03Z</time>
      </trkpt>
      <trkpt lat="44.90255" lon="0.82751">
        <ele>125.8</ele>
        <time>2025-05-10T09:45:04Z</time>
      </trkpt>
      <trkpt lat="44.90254" lon="0.82749">
        <ele>126</ele>
        <time>2025-05-10T09:45:05Z</time>
      </trkpt>
      <trkpt lat="44.90255" lon="0.82747">
        <ele>126.2</ele>
        <time>2025-05-10T09:45:06Z</time>
      </trkpt>
      <trkpt lat="44.90255" lon="0.82745">
        <ele>126.4</ele>
        <time>2025-05-10T09:45:07Z</time>
      </trkpt>
      <trkpt lat="44.90257" lon="0.82743">
        <ele>126.6</ele>
        <time>2025-05-10T09:45:08Z</time>
      </trkpt>
      <trkpt lat="44.90258" lon="0.82741">
        <ele>126.8</ele>
        <time>2025-05-10T09:45:09Z</time>
      </trkpt>
      <trkpt lat="44.90259" lon="0.82739">
        <ele>126.8</ele>
        <time>2025-05-10T09:45:10Z</time>
      </trkpt>
      <trkpt lat="44.90261" lon="0.82737">
        <ele>127</ele>
        <time>2025-05-10T09:45:11Z</time>
      </trkpt>
      <trkpt lat="44.90262" lon="0.82734">
        <ele>127</ele>
        <time>2025-05-10T09:45:12Z</time>
      </trkpt>
      <trkpt lat="44.90263" lon="0.82732">
        <ele>127</ele>
        <time>2025-05-10T09:45:13Z</time>
      </trkpt>
      <trkpt lat="44.90264" lon="0.8273">
        <ele>127.2</ele>
        <time>2025-05-10T09:45:14Z</time>
      </trkpt>
      <trkpt lat="44.90265" lon="0.82727">
        <ele>127.2</ele>
        <time>2025-05-10T09:45:15Z</time>
      </trkpt>
      <trkpt lat="44.90266" lon="0.82724">
        <ele>127.4</ele>
        <time>2025-05-10T09:45:16Z</time>
      </trkpt>
      <trkpt lat="44.90268" lon="0.82722">
        <ele>127.6</ele>
        <time>2025-05-10T09:45:17Z</time>
      </trkpt>
      <trkpt lat="44.90269" lon="0.8272">
        <ele>127.6</ele>
        <time>2025-05-10T09:45:18Z</time>
      </trkpt>
      <trkpt lat="44.90271" lon="0.82718">
        <ele>127.6</ele>
        <time>2025-05-10T09:45:19Z</time>
      </trkpt>
      <trkpt lat="44.90272" lon="0.82715">
        <ele>127.6</ele>
        <time>2025-05-10T09:45:20Z</time>
      </trkpt>
      <trkpt lat="44.90273" lon="0.82713">
        <ele>127.8</ele>
        <time>2025-05-10T09:45:21Z</time>
      </trkpt>
      <trkpt lat="44.90275" lon="0.8271">
        <ele>128</ele>
        <time>2025-05-10T09:45:22Z</time>
      </trkpt>
      <trkpt lat="44.90276" lon="0.82708">
        <ele>128</ele>
        <time>2025-05-10T09:45:23Z</time>
      </trkpt>
      <trkpt lat="44.90278" lon="0.82705">
        <ele>128.2</ele>
        <time>2025-05-10T09:45:24Z</time>
      </trkpt>
      <trkpt lat="44.90279" lon="0.82703">
        <ele>128.2</ele>
        <time>2025-05-10T09:45:25Z</time>
      </trkpt>
      <trkpt lat="44.90281" lon="0.827">
        <ele>128.6</ele>
        <time>2025-05-10T09:45:26Z</time>
      </trkpt>
      <trkpt lat="44.90283" lon="0.82698">
        <ele>128.6</ele>
        <time>2025-05-10T09:45:27Z</time>
      </trkpt>
      <trkpt lat="44.90285" lon="0.82696">
        <ele>128.8</ele>
        <time>2025-05-10T09:45:28Z</time>
      </trkpt>
      <trkpt lat="44.90286" lon="0.82693">
        <ele>128.8</ele>
        <time>2025-05-10T09:45:29Z</time>
      </trkpt>
      <trkpt lat="44.90288" lon="0.8269">
        <ele>128.8</ele>
        <time>2025-05-10T09:45:30Z</time>
      </trkpt>
      <trkpt lat="44.90289" lon="0.82688">
        <ele>128.8</ele>
        <time>2025-05-10T09:45:31Z</time>
      </trkpt>
      <trkpt lat="44.90291" lon="0.82686">
        <ele>129</ele>
        <time>2025-05-10T09:45:32Z</time>
      </trkpt>
      <trkpt lat="44.90293" lon="0.82684">
        <ele>129.2</ele>
        <time>2025-05-10T09:45:33Z</time>
      </trkpt>
      <trkpt lat="44.90294" lon="0.82682">
        <ele>129.2</ele>
        <time>2025-05-10T09:45:34Z</time>
      </trkpt>
      <trkpt lat="44.90296" lon="0.82681">
        <ele>129.4</ele>
        <time>2025-05-10T09:45:35Z</time>
      </trkpt>
      <trkpt lat="44.90298" lon="0.82679">
        <ele>129.6</ele>
        <time>2025-05-10T09:45:36Z</time>
      </trkpt>
      <trkpt lat="44.90299" lon="0.82677">
        <ele>129.6</ele>
        <time>2025-05-10T09:45:37Z</time>
      </trkpt>
      <trkpt lat="44.90301" lon="0.82675">
        <ele>129.8</ele>
        <time>2025-05-10T09:45:38Z</time>
      </trkpt>
      <trkpt lat="44.90303" lon="0.82674">
        <ele>129.8</ele>
        <time>2025-05-10T09:45:39Z</time>
      </trkpt>
      <trkpt lat="44.90305" lon="0.82672">
        <ele>129.8</ele>
        <time>2025-05-10T09:45:40Z</time>
      </trkpt>
      <trkpt lat="44.90306" lon="0.8267">
        <ele>130</ele>
        <time>2025-05-10T09:45:41Z</time>
      </trkpt>
      <trkpt lat="44.90308" lon="0.82668">
        <ele>130</ele>
        <time>2025-05-10T09:45:42Z</time>
      </trkpt>
      <trkpt lat="44.9031" lon="0.82665">
        <ele>130.2</ele>
        <time>2025-05-10T09:45:43Z</time>
      </trkpt>
      <trkpt lat="44.90312" lon="0.82662">
        <ele>130.2</ele>
        <time>2025-05-10T09:45:44Z</time>
      </trkpt>
      <trkpt lat="44.90314" lon="0.82659">
        <ele>130.2</ele>
        <time>2025-05-10T09:45:45Z</time>
      </trkpt>
      <trkpt lat="44.90315" lon="0.82657">
        <ele>130.4</ele>
        <time>2025-05-10T09:45:46Z</time>
      </trkpt>
      <trkpt lat="44.90317" lon="0.82654">
        <ele>130.4</ele>
        <time>2025-05-10T09:45:47Z</time>
      </trkpt>
      <trkpt lat="44.90319" lon="0.82651">
        <ele>130.4</ele>
        <time>2025-05-10T09:45:48Z</time>
      </trkpt>
      <trkpt lat="44.90321" lon="0.82649">
        <ele>130.4</ele>
        <time>2025-05-10T09:45:49Z</time>
      </trkpt>
      <trkpt lat="44.90323" lon="0.82647">
        <ele>130.4</ele>
        <time>2025-05-10T09:45:50Z</time>
      </trkpt>
      <trkpt lat="44.90325" lon="0.82644">
        <ele>130.4</ele>
        <time>2025-05-10T09:45:51Z</time>
      </trkpt>
      <trkpt lat="44.90327" lon="0.82641">
        <ele>130.6</ele>
        <time>2025-05-10T09:45:52Z</time>
      </trkpt>
      <trkpt lat="44.90328" lon="0.82638">
        <ele>130.6</ele>
        <time>2025-05-10T09:45:53Z</time>
      </trkpt>
      <trkpt lat="44.9033" lon="0.82635">
        <ele>130.6</ele>
        <time>2025-05-10T09:45:54Z</time>
      </trkpt>
      <trkpt lat="44.90332" lon="0.82632">
        <ele>130.8</ele>
        <time>2025-05-10T09:45:55Z</time>
      </trkpt>
      <trkpt lat="44.90334" lon="0.82629">
        <ele>130.8</ele>
        <time>2025-05-10T09:45:56Z</time>
      </trkpt>
      <trkpt lat="44.90336" lon="0.82627">
        <ele>130.8</ele>
        <time>2025-05-10T09:45:57Z</time>
      </trkpt>
      <trkpt lat="44.90338" lon="0.82625">
        <ele>130.8</ele>
        <time>2025-05-10T09:45:58Z</time>
      </trkpt>
      <trkpt lat="44.9034" lon="0.82623">
        <ele>130.8</ele>
        <time>2025-05-10T09:45:59Z</time>
      </trkpt>
      <trkpt lat="44.90342" lon="0.82621">
        <ele>130.8</ele>
        <time>2025-05-10T09:46:00Z</time>
      </trkpt>
      <trkpt lat="44.90344" lon="0.82619">
        <ele>130.8</ele>
        <time>2025-05-10T09:46:01Z</time>
      </trkpt>
      <trkpt lat="44.90347" lon="0.82617">
        <ele>130.8</ele>
        <time>2025-05-10T09:46:02Z</time>
      </trkpt>
      <trkpt lat="44.90349" lon="0.82615">
        <ele>131</ele>
        <time>2025-05-10T09:46:03Z</time>
      </trkpt>
      <trkpt lat="44.90351" lon="0.82614">
        <ele>131</ele>
        <time>2025-05-10T09:46:04Z</time>
      </trkpt>
      <trkpt lat="44.90353" lon="0.82613">
        <ele>131.6</ele>
        <time>2025-05-10T09:46:05Z</time>
      </trkpt>
      <trkpt lat="44.90355" lon="0.82612">
        <ele>131.6</ele>
        <time>2025-05-10T09:46:06Z</time>
      </trkpt>
      <trkpt lat="44.90357" lon="0.82611">
        <ele>131.6</ele>
        <time>2025-05-10T09:46:07Z</time>
      </trkpt>
      <trkpt lat="44.90359" lon="0.82609">
        <ele>131.6</ele>
        <time>2025-05-10T09:46:08Z</time>
      </trkpt>
      <trkpt lat="44.90361" lon="0.82608">
        <ele>131.2</ele>
        <time>2025-05-10T09:46:09Z</time>
      </trkpt>
      <trkpt lat="44.90364" lon="0.82606">
        <ele>131.2</ele>
        <time>2025-05-10T09:46:10Z</time>
      </trkpt>
      <trkpt lat="44.90366" lon="0.82605">
        <ele>131.4</ele>
        <time>2025-05-10T09:46:11Z</time>
      </trkpt>
      <trkpt lat="44.90369" lon="0.82603">
        <ele>131.4</ele>
        <time>2025-05-10T09:46:12Z</time>
      </trkpt>
      <trkpt lat="44.90371" lon="0.82602">
        <ele>131.6</ele>
        <time>2025-05-10T09:46:13Z</time>
      </trkpt>
      <trkpt lat="44.90372" lon="0.826">
        <ele>131.8</ele>
        <time>2025-05-10T09:46:14Z</time>
      </trkpt>
      <trkpt lat="44.90374" lon="0.82599">
        <ele>132</ele>
        <time>2025-05-10T09:46:15Z</time>
      </trkpt>
      <trkpt lat="44.90376" lon="0.82598">
        <ele>132.2</ele>
        <time>2025-05-10T09:46:16Z</time>
      </trkpt>
      <trkpt lat="44.90377" lon="0.82597">
        <ele>132.6</ele>
        <time>2025-05-10T09:46:17Z</time>
      </trkpt>
      <trkpt lat="44.90379" lon="0.82595">
        <ele>132.8</ele>
        <time>2025-05-10T09:46:18Z</time>
      </trkpt>
      <trkpt lat="44.90381" lon="0.82593">
        <ele>133</ele>
        <time>2025-05-10T09:46:19Z</time>
      </trkpt>
      <trkpt lat="44.90382" lon="0.82592">
        <ele>133.2</ele>
        <time>2025-05-10T09:46:20Z</time>
      </trkpt>
      <trkpt lat="44.90384" lon="0.8259">
        <ele>133.2</ele>
        <time>2025-05-10T09:46:21Z</time>
      </trkpt>
      <trkpt lat="44.90386" lon="0.82589">
        <ele>133.4</ele>
        <time>2025-05-10T09:46:22Z</time>
      </trkpt>
      <trkpt lat="44.90387" lon="0.82587">
        <ele>133.6</ele>
        <time>2025-05-10T09:46:23Z</time>
      </trkpt>
      <trkpt lat="44.90388" lon="0.82586">
        <ele>133.6</ele>
        <time>2025-05-10T09:46:24Z</time>
      </trkpt>
      <trkpt lat="44.90389" lon="0.82585">
        <ele>133.6</ele>
        <time>2025-05-10T09:46:25Z</time>
      </trkpt>
      <trkpt lat="44.9039" lon="0.82583">
        <ele>133.6</ele>
        <time>2025-05-10T09:46:26Z</time>
      </trkpt>
      <trkpt lat="44.90391" lon="0.82581">
        <ele>133.8</ele>
        <time>2025-05-10T09:46:27Z</time>
      </trkpt>
      <trkpt lat="44.90392" lon="0.8258">
        <ele>134.2</ele>
        <time>2025-05-10T09:46:28Z</time>
      </trkpt>
      <trkpt lat="44.90392" lon="0.82578">
        <ele>134.4</ele>
        <time>2025-05-10T09:46:29Z</time>
      </trkpt>
      <trkpt lat="44.90393" lon="0.82576">
        <ele>134.6</ele>
        <time>2025-05-10T09:46:30Z</time>
      </trkpt>
      <trkpt lat="44.90393" lon="0.82573">
        <ele>135</ele>
        <time>2025-05-10T09:46:31Z</time>
      </trkpt>
      <trkpt lat="44.90393" lon="0.82572">
        <ele>135.2</ele>
        <time>2025-05-10T09:46:32Z</time>
      </trkpt>
      <trkpt lat="44.90393" lon="0.82569">
        <ele>135.4</ele>
        <time>2025-05-10T09:46:33Z</time>
      </trkpt>
      <trkpt lat="44.90393" lon="0.82567">
        <ele>135.8</ele>
        <time>2025-05-10T09:46:34Z</time>
      </trkpt>
      <trkpt lat="44.90392" lon="0.82564">
        <ele>136</ele>
        <time>2025-05-10T09:46:35Z</time>
      </trkpt>
      <trkpt lat="44.90392" lon="0.82562">
        <ele>136.4</ele>
        <time>2025-05-10T09:46:36Z</time>
      </trkpt>
      <trkpt lat="44.90392" lon="0.8256">
        <ele>136.8</ele>
        <time>2025-05-10T09:46:37Z</time>
      </trkpt>
      <trkpt lat="44.90392" lon="0.82558">
        <ele>137</ele>
        <time>2025-05-10T09:46:38Z</time>
      </trkpt>
      <trkpt lat="44.90393" lon="0.82556">
        <ele>137.2</ele>
        <time>2025-05-10T09:46:39Z</time>
      </trkpt>
      <trkpt lat="44.90394" lon="0.82554">
        <ele>137.4</ele>
        <time>2025-05-10T09:46:40Z</time>
      </trkpt>
      <trkpt lat="44.90394" lon="0.82552">
        <ele>137.6</ele>
        <time>2025-05-10T09:46:41Z</time>
      </trkpt>
      <trkpt lat="44.90396" lon="0.82551">
        <ele>137.8</ele>
        <time>2025-05-10T09:46:42Z</time>
      </trkpt>
      <trkpt lat="44.90397" lon="0.82549">
        <ele>138</ele>
        <time>2025-05-10T09:46:43Z</time>
      </trkpt>
      <trkpt lat="44.90398" lon="0.82548">
        <ele>138.2</ele>
        <time>2025-05-10T09:46:44Z</time>
      </trkpt>
      <trkpt lat="44.90399" lon="0.82547">
        <ele>138.4</ele>
        <time>2025-05-10T09:46:45Z</time>
      </trkpt>
      <trkpt lat="44.90401" lon="0.82546">
        <ele>138.6</ele>
        <time>2025-05-10T09:46:46Z</time>
      </trkpt>
      <trkpt lat="44.90402" lon="0.82545">
        <ele>138.8</ele>
        <time>2025-05-10T09:46:47Z</time>
      </trkpt>
      <trkpt lat="44.90403" lon="0.82544">
        <ele>139</ele>
        <time>2025-05-10T09:46:48Z</time>
      </trkpt>
      <trkpt lat="44.90405" lon="0.82544">
        <ele>139.2</ele>
        <time>2025-05-10T09:46:49Z</time>
      </trkpt>
      <trkpt lat="44.90407" lon="0.82545">
        <ele>139.4</ele>
        <time>2025-05-10T09:46:50Z</time>
      </trkpt>
      <trkpt lat="44.90409" lon="0.82546">
        <ele>139.4</ele>
        <time>2025-05-10T09:46:51Z</time>
      </trkpt>
      <trkpt lat="44.9041" lon="0.82547">
        <ele>139.4</ele>
        <time>2025-05-10T09:46:52Z</time>
      </trkpt>
      <trkpt lat="44.90412" lon="0.82548">
        <ele>139.6</ele>
        <time>2025-05-10T09:46:53Z</time>
      </trkpt>
      <trkpt lat="44.90414" lon="0.82549">
        <ele>139.8</ele>
        <time>2025-05-10T09:46:54Z</time>
      </trkpt>
      <trkpt lat="44.90417" lon="0.82551">
        <ele>140</ele>
        <time>2025-05-10T09:46:55Z</time>
      </trkpt>
      <trkpt lat="44.90419" lon="0.82553">
        <ele>140</ele>
        <time>2025-05-10T09:46:56Z</time>
      </trkpt>
      <trkpt lat="44.90421" lon="0.82555">
        <ele>140</ele>
        <time>2025-05-10T09:46:57Z</time>
      </trkpt>
      <trkpt lat="44.90424" lon="0.82558">
        <ele>140</ele>
        <time>2025-05-10T09:46:58Z</time>
      </trkpt>
      <trkpt lat="44.90427" lon="0.8256">
        <ele>140</ele>
        <time>2025-05-10T09:46:59Z</time>
      </trkpt>
      <trkpt lat="44.90431" lon="0.82563">
        <ele>140</ele>
        <time>2025-05-10T09:47:00Z</time>
      </trkpt>
      <trkpt lat="44.90434" lon="0.82565">
        <ele>139.8</ele>
        <time>2025-05-10T09:47:01Z</time>
      </trkpt>
      <trkpt lat="44.90438" lon="0.82568">
        <ele>139.6</ele>
        <time>2025-05-10T09:47:02Z</time>
      </trkpt>
      <trkpt lat="44.90442" lon="0.82571">
        <ele>139.6</ele>
        <time>2025-05-10T09:47:03Z</time>
      </trkpt>
      <trkpt lat="44.90445" lon="0.82574">
        <ele>139.6</ele>
        <time>2025-05-10T09:47:04Z</time>
      </trkpt>
      <trkpt lat="44.90447" lon="0.82578">
        <ele>139.4</ele>
        <time>2025-05-10T09:47:05Z</time>
      </trkpt>
      <trkpt lat="44.9045" lon="0.82583">
        <ele>139.4</ele>
        <time>2025-05-10T09:47:06Z</time>
      </trkpt>
      <trkpt lat="44.90452" lon="0.82587">
        <ele>139.4</ele>
        <time>2025-05-10T09:47:07Z</time>
      </trkpt>
      <trkpt lat="44.90455" lon="0.82591">
        <ele>139.4</ele>
        <time>2025-05-10T09:47:08Z</time>
      </trkpt>
      <trkpt lat="44.90459" lon="0.82594">
        <ele>139.4</ele>
        <time>2025-05-10T09:47:09Z</time>
      </trkpt>
      <trkpt lat="44.90462" lon="0.82597">
        <ele>139.4</ele>
        <time>2025-05-10T09:47:10Z</time>
      </trkpt>
      <trkpt lat="44.90465" lon="0.826">
        <ele>139.6</ele>
        <time>2025-05-10T09:47:11Z</time>
      </trkpt>
      <trkpt lat="44.90469" lon="0.82602">
        <ele>139.6</ele>
        <time>2025-05-10T09:47:12Z</time>
      </trkpt>
      <trkpt lat="44.90473" lon="0.82604">
        <ele>139.8</ele>
        <time>2025-05-10T09:47:13Z</time>
      </trkpt>
      <trkpt lat="44.90475" lon="0.82607">
        <ele>140</ele>
        <time>2025-05-10T09:47:14Z</time>
      </trkpt>
      <trkpt lat="44.90479" lon="0.82609">
        <ele>140</ele>
        <time>2025-05-10T09:47:15Z</time>
      </trkpt>
      <trkpt lat="44.90483" lon="0.82611">
        <ele>140.2</ele>
        <time>2025-05-10T09:47:16Z</time>
      </trkpt>
      <trkpt lat="44.90487" lon="0.82613">
        <ele>140.2</ele>
        <time>2025-05-10T09:47:17Z</time>
      </trkpt>
      <trkpt lat="44.90491" lon="0.82615">
        <ele>140.4</ele>
        <time>2025-05-10T09:47:18Z</time>
      </trkpt>
      <trkpt lat="44.90495" lon="0.82617">
        <ele>140.4</ele>
        <time>2025-05-10T09:47:19Z</time>
      </trkpt>
      <trkpt lat="44.90499" lon="0.82619">
        <ele>140.6</ele>
        <time>2025-05-10T09:47:20Z</time>
      </trkpt>
      <trkpt lat="44.90503" lon="0.82621">
        <ele>140.8</ele>
        <time>2025-05-10T09:47:21Z</time>
      </trkpt>
      <trkpt lat="44.90507" lon="0.82623">
        <ele>140.8</ele>
        <time>2025-05-10T09:47:22Z</time>
      </trkpt>
      <trkpt lat="44.90512" lon="0.82624">
        <ele>140.8</ele>
        <time>2025-05-10T09:47:23Z</time>
      </trkpt>
      <trkpt lat="44.90517" lon="0.82626">
        <ele>140.6</ele>
        <time>2025-05-10T09:47:24Z</time>
      </trkpt>
      <trkpt lat="44.90523" lon="0.82628">
        <ele>140.4</ele>
        <time>2025-05-10T09:47:25Z</time>
      </trkpt>
      <trkpt lat="44.90529" lon="0.8263">
        <ele>140</ele>
        <time>2025-05-10T09:47:26Z</time>
      </trkpt>
      <trkpt lat="44.90536" lon="0.82632">
        <ele>139.4</ele>
        <time>2025-05-10T09:47:27Z</time>
      </trkpt>
      <trkpt lat="44.90543" lon="0.82634">
        <ele>138.6</ele>
        <time>2025-05-10T09:47:28Z</time>
      </trkpt>
      <trkpt lat="44.90549" lon="0.82636">
        <ele>137.8</ele>
        <time>2025-05-10T09:47:29Z</time>
      </trkpt>
      <trkpt lat="44.90556" lon="0.82638">
        <ele>137.4</ele>
        <time>2025-05-10T09:47:30Z</time>
      </trkpt>
      <trkpt lat="44.90563" lon="0.82638">
        <ele>136.6</ele>
        <time>2025-05-10T09:47:31Z</time>
      </trkpt>
      <trkpt lat="44.90569" lon="0.82637">
        <ele>136.4</ele>
        <time>2025-05-10T09:47:32Z</time>
      </trkpt>
      <trkpt lat="44.90575" lon="0.82637">
        <ele>136.2</ele>
        <time>2025-05-10T09:47:33Z</time>
      </trkpt>
      <trkpt lat="44.90581" lon="0.82637">
        <ele>136.2</ele>
        <time>2025-05-10T09:47:34Z</time>
      </trkpt>
      <trkpt lat="44.90586" lon="0.82637">
        <ele>136.2</ele>
        <time>2025-05-10T09:47:35Z</time>
      </trkpt>
      <trkpt lat="44.90591" lon="0.82636">
        <ele>136.2</ele>
        <time>2025-05-10T09:47:36Z</time>
      </trkpt>
      <trkpt lat="44.90596" lon="0.82635">
        <ele>136.6</ele>
        <time>2025-05-10T09:47:37Z</time>
      </trkpt>
      <trkpt lat="44.906" lon="0.82636">
        <ele>137</ele>
        <time>2025-05-10T09:47:38Z</time>
      </trkpt>
      <trkpt lat="44.90604" lon="0.82637">
        <ele>137</ele>
        <time>2025-05-10T09:47:39Z</time>
      </trkpt>
      <trkpt lat="44.90607" lon="0.82637">
        <ele>137.6</ele>
        <time>2025-05-10T09:47:40Z</time>
      </trkpt>
      <trkpt lat="44.90611" lon="0.82637">
        <ele>137.8</ele>
        <time>2025-05-10T09:47:41Z</time>
      </trkpt>
      <trkpt lat="44.90615" lon="0.82638">
        <ele>138.4</ele>
        <time>2025-05-10T09:47:42Z</time>
      </trkpt>
      <trkpt lat="44.90618" lon="0.82638">
        <ele>138.6</ele>
        <time>2025-05-10T09:47:43Z</time>
      </trkpt>
      <trkpt lat="44.90621" lon="0.82637">
        <ele>138.8</ele>
        <time>2025-05-10T09:47:44Z</time>
      </trkpt>
      <trkpt lat="44.90625" lon="0.82636">
        <ele>139.2</ele>
        <time>2025-05-10T09:47:45Z</time>
      </trkpt>
      <trkpt lat="44.90627" lon="0.82636">
        <ele>139.6</ele>
        <time>2025-05-10T09:47:46Z</time>
      </trkpt>
      <trkpt lat="44.9063" lon="0.82635">
        <ele>139.8</ele>
        <time>2025-05-10T09:47:47Z</time>
      </trkpt>
      <trkpt lat="44.90633" lon="0.82634">
        <ele>140</ele>
        <time>2025-05-10T09:47:48Z</time>
      </trkpt>
      <trkpt lat="44.90636" lon="0.82633">
        <ele>140.4</ele>
        <time>2025-05-10T09:47:49Z</time>
      </trkpt>
      <trkpt lat="44.90639" lon="0.82632">
        <ele>140.4</ele>
        <time>2025-05-10T09:47:50Z</time>
      </trkpt>
      <trkpt lat="44.90641" lon="0.82631">
        <ele>140.6</ele>
        <time>2025-05-10T09:47:51Z</time>
      </trkpt>
      <trkpt lat="44.90643" lon="0.82629">
        <ele>140.8</ele>
        <time>2025-05-10T09:47:52Z</time>
      </trkpt>
      <trkpt lat="44.90646" lon="0.82627">
        <ele>141</ele>
        <time>2025-05-10T09:47:53Z</time>
      </trkpt>
      <trkpt lat="44.90647" lon="0.82626">
        <ele>141.4</ele>
        <time>2025-05-10T09:47:54Z</time>
      </trkpt>
      <trkpt lat="44.90649" lon="0.82624">
        <ele>141.6</ele>
        <time>2025-05-10T09:47:55Z</time>
      </trkpt>
      <trkpt lat="44.90651" lon="0.82623">
        <ele>142</ele>
        <time>2025-05-10T09:47:56Z</time>
      </trkpt>
      <trkpt lat="44.90653" lon="0.82621">
        <ele>142.2</ele>
        <time>2025-05-10T09:47:57Z</time>
      </trkpt>
      <trkpt lat="44.90655" lon="0.82619">
        <ele>142.6</ele>
        <time>2025-05-10T09:47:58Z</time>
      </trkpt>
      <trkpt lat="44.90657" lon="0.82617">
        <ele>142.8</ele>
        <time>2025-05-10T09:47:59Z</time>
      </trkpt>
      <trkpt lat="44.90658" lon="0.82615">
        <ele>143</ele>
        <time>2025-05-10T09:48:00Z</time>
      </trkpt>
      <trkpt lat="44.9066" lon="0.82614">
        <ele>143.2</ele>
        <time>2025-05-10T09:48:01Z</time>
      </trkpt>
      <trkpt lat="44.90662" lon="0.82611">
        <ele>143.6</ele>
        <time>2025-05-10T09:48:02Z</time>
      </trkpt>
      <trkpt lat="44.90664" lon="0.82609">
        <ele>143.6</ele>
        <time>2025-05-10T09:48:03Z</time>
      </trkpt>
      <trkpt lat="44.90666" lon="0.82606">
        <ele>143.8</ele>
        <time>2025-05-10T09:48:04Z</time>
      </trkpt>
      <trkpt lat="44.90668" lon="0.82604">
        <ele>143.8</ele>
        <time>2025-05-10T09:48:05Z</time>
      </trkpt>
      <trkpt lat="44.9067" lon="0.82602">
        <ele>144</ele>
        <time>2025-05-10T09:48:06Z</time>
      </trkpt>
      <trkpt lat="44.90672" lon="0.826">
        <ele>144</ele>
        <time>2025-05-10T09:48:07Z</time>
      </trkpt>
      <trkpt lat="44.90673" lon="0.82599">
        <ele>144</ele>
        <time>2025-05-10T09:48:08Z</time>
      </trkpt>
      <trkpt lat="44.90676" lon="0.82598">
        <ele>144.2</ele>
        <time>2025-05-10T09:48:09Z</time>
      </trkpt>
      <trkpt lat="44.90678" lon="0.82596">
        <ele>144.2</ele>
        <time>2025-05-10T09:48:10Z</time>
      </trkpt>
      <trkpt lat="44.9068" lon="0.82596">
        <ele>144.2</ele>
        <time>2025-05-10T09:48:11Z</time>
      </trkpt>
      <trkpt lat="44.90682" lon="0.82595">
        <ele>144.4</ele>
        <time>2025-05-10T09:48:12Z</time>
      </trkpt>
      <trkpt lat="44.90685" lon="0.82595">
        <ele>144.4</ele>
        <time>2025-05-10T09:48:13Z</time>
      </trkpt>
      <trkpt lat="44.90687" lon="0.82594">
        <ele>144.6</ele>
        <time>2025-05-10T09:48:14Z</time>
      </trkpt>
      <trkpt lat="44.90689" lon="0.82594">
        <ele>144.6</ele>
        <time>2025-05-10T09:48:15Z</time>
      </trkpt>
      <trkpt lat="44.90691" lon="0.82595">
        <ele>144.8</ele>
        <time>2025-05-10T09:48:16Z</time>
      </trkpt>
      <trkpt lat="44.90694" lon="0.82596">
        <ele>145</ele>
        <time>2025-05-10T09:48:17Z</time>
      </trkpt>
      <trkpt lat="44.90696" lon="0.82597">
        <ele>145</ele>
        <time>2025-05-10T09:48:18Z</time>
      </trkpt>
      <trkpt lat="44.90698" lon="0.82598">
        <ele>145.2</ele>
        <time>2025-05-10T09:48:19Z</time>
      </trkpt>
      <trkpt lat="44.907" lon="0.82599">
        <ele>145.2</ele>
        <time>2025-05-10T09:48:20Z</time>
      </trkpt>
      <trkpt lat="44.90702" lon="0.82601">
        <ele>145.4</ele>
        <time>2025-05-10T09:48:21Z</time>
      </trkpt>
      <trkpt lat="44.90705" lon="0.82602">
        <ele>145.4</ele>
        <time>2025-05-10T09:48:22Z</time>
      </trkpt>
      <trkpt lat="44.90707" lon="0.82604">
        <ele>145.4</ele>
        <time>2025-05-10T09:48:23Z</time>
      </trkpt>
      <trkpt lat="44.9071" lon="0.82605">
        <ele>145.4</ele>
        <time>2025-05-10T09:48:24Z</time>
      </trkpt>
      <trkpt lat="44.90712" lon="0.82607">
        <ele>145.4</ele>
        <time>2025-05-10T09:48:25Z</time>
      </trkpt>
      <trkpt lat="44.90714" lon="0.82609">
        <ele>145.6</ele>
        <time>2025-05-10T09:48:26Z</time>
      </trkpt>
      <trkpt lat="44.90716" lon="0.8261">
        <ele>145.8</ele>
        <time>2025-05-10T09:48:27Z</time>
      </trkpt>
      <trkpt lat="44.90718" lon="0.82612">
        <ele>146</ele>
        <time>2025-05-10T09:48:28Z</time>
      </trkpt>
      <trkpt lat="44.9072" lon="0.82613">
        <ele>146.2</ele>
        <time>2025-05-10T09:48:29Z</time>
      </trkpt>
      <trkpt lat="44.90722" lon="0.82615">
        <ele>146.2</ele>
        <time>2025-05-10T09:48:30Z</time>
      </trkpt>
      <trkpt lat="44.90724" lon="0.82617">
        <ele>146.4</ele>
        <time>2025-05-10T09:48:31Z</time>
      </trkpt>
      <trkpt lat="44.90726" lon="0.82618">
        <ele>146.6</ele>
        <time>2025-05-10T09:48:32Z</time>
      </trkpt>
      <trkpt lat="44.90728" lon="0.8262">
        <ele>146.8</ele>
        <time>2025-05-10T09:48:33Z</time>
      </trkpt>
      <trkpt lat="44.9073" lon="0.82622">
        <ele>147</ele>
        <time>2025-05-10T09:48:34Z</time>
      </trkpt>
      <trkpt lat="44.90732" lon="0.82624">
        <ele>147</ele>
        <time>2025-05-10T09:48:35Z</time>
      </trkpt>
      <trkpt lat="44.90734" lon="0.82625">
        <ele>147.2</ele>
        <time>2025-05-10T09:48:36Z</time>
      </trkpt>
      <trkpt lat="44.90736" lon="0.82625">
        <ele>147.4</ele>
        <time>2025-05-10T09:48:37Z</time>
      </trkpt>
      <trkpt lat="44.90739" lon="0.82626">
        <ele>147.4</ele>
        <time>2025-05-10T09:48:38Z</time>
      </trkpt>
      <trkpt lat="44.9074" lon="0.82628">
        <ele>147.6</ele>
        <time>2025-05-10T09:48:39Z</time>
      </trkpt>
      <trkpt lat="44.90743" lon="0.82629">
        <ele>147.6</ele>
        <time>2025-05-10T09:48:40Z</time>
      </trkpt>
      <trkpt lat="44.90745" lon="0.8263">
        <ele>147.8</ele>
        <time>2025-05-10T09:48:41Z</time>
      </trkpt>
      <trkpt lat="44.90748" lon="0.82631">
        <ele>147.8</ele>
        <time>2025-05-10T09:48:42Z</time>
      </trkpt>
      <trkpt lat="44.9075" lon="0.82633">
        <ele>148</ele>
        <time>2025-05-10T09:48:43Z</time>
      </trkpt>
      <trkpt lat="44.90752" lon="0.82634">
        <ele>148.2</ele>
        <time>2025-05-10T09:48:44Z</time>
      </trkpt>
      <trkpt lat="44.90754" lon="0.82635">
        <ele>148.4</ele>
        <time>2025-05-10T09:48:45Z</time>
      </trkpt>
      <trkpt lat="44.90757" lon="0.82637">
        <ele>148.4</ele>
        <time>2025-05-10T09:48:46Z</time>
      </trkpt>
      <trkpt lat="44.90759" lon="0.82639">
        <ele>148.6</ele>
        <time>2025-05-10T09:48:47Z</time>
      </trkpt>
      <trkpt lat="44.90762" lon="0.82641">
        <ele>148.6</ele>
        <time>2025-05-10T09:48:48Z</time>
      </trkpt>
      <trkpt lat="44.90766" lon="0.82642">
        <ele>148.6</ele>
        <time>2025-05-10T09:48:49Z</time>
      </trkpt>
      <trkpt lat="44.9077" lon="0.82642">
        <ele>148.4</ele>
        <time>2025-05-10T09:48:50Z</time>
      </trkpt>
      <trkpt lat="44.90774" lon="0.82643">
        <ele>148.4</ele>
        <time>2025-05-10T09:48:51Z</time>
      </trkpt>
      <trkpt lat="44.90777" lon="0.82644">
        <ele>148.2</ele>
        <time>2025-05-10T09:48:52Z</time>
      </trkpt>
      <trkpt lat="44.90781" lon="0.82646">
        <ele>148</ele>
        <time>2025-05-10T09:48:53Z</time>
      </trkpt>
      <trkpt lat="44.90785" lon="0.82648">
        <ele>147.8</ele>
        <time>2025-05-10T09:48:54Z</time>
      </trkpt>
      <trkpt lat="44.90789" lon="0.82648">
        <ele>147.6</ele>
        <time>2025-05-10T09:48:55Z</time>
      </trkpt>
      <trkpt lat="44.90795" lon="0.82648">
        <ele>147.4</ele>
        <time>2025-05-10T09:48:56Z</time>
      </trkpt>
      <trkpt lat="44.908" lon="0.82648">
        <ele>146.8</ele>
        <time>2025-05-10T09:48:57Z</time>
      </trkpt>
      <trkpt lat="44.90804" lon="0.82648">
        <ele>146.6</ele>
        <time>2025-05-10T09:48:58Z</time>
      </trkpt>
      <trkpt lat="44.90809" lon="0.82649">
        <ele>146.2</ele>
        <time>2025-05-10T09:48:59Z</time>
      </trkpt>
      <trkpt lat="44.90814" lon="0.82649">
        <ele>146</ele>
        <time>2025-05-10T09:49:00Z</time>
      </trkpt>
      <trkpt lat="44.90819" lon="0.8265">
        <ele>145.6</ele>
        <time>2025-05-10T09:49:01Z</time>
      </trkpt>
      <trkpt lat="44.90824" lon="0.82651">
        <ele>145.2</ele>
        <time>2025-05-10T09:49:02Z</time>
      </trkpt>
      <trkpt lat="44.90829" lon="0.82651">
        <ele>145</ele>
        <time>2025-05-10T09:49:03Z</time>
      </trkpt>
      <trkpt lat="44.90834" lon="0.82652">
        <ele>145</ele>
        <time>2025-05-10T09:49:04Z</time>
      </trkpt>
      <trkpt lat="44.90838" lon="0.82652">
        <ele>144.8</ele>
        <time>2025-05-10T09:49:05Z</time>
      </trkpt>
      <trkpt lat="44.90843" lon="0.82651">
        <ele>144.6</ele>
        <time>2025-05-10T09:49:06Z</time>
      </trkpt>
      <trkpt lat="44.90847" lon="0.82651">
        <ele>144.6</ele>
        <time>2025-05-10T09:49:07Z</time>
      </trkpt>
      <trkpt lat="44.90852" lon="0.82651">
        <ele>144.6</ele>
        <time>2025-05-10T09:49:08Z</time>
      </trkpt>
      <trkpt lat="44.90856" lon="0.82652">
        <ele>144.6</ele>
        <time>2025-05-10T09:49:09Z</time>
      </trkpt>
      <trkpt lat="44.9086" lon="0.82651">
        <ele>144.8</ele>
        <time>2025-05-10T09:49:10Z</time>
      </trkpt>
      <trkpt lat="44.90864" lon="0.82652">
        <ele>145</ele>
        <time>2025-05-10T09:49:11Z</time>
      </trkpt>
      <trkpt lat="44.90868" lon="0.82652">
        <ele>145</ele>
        <time>2025-05-10T09:49:12Z</time>
      </trkpt>
      <trkpt lat="44.90871" lon="0.82652">
        <ele>145.2</ele>
        <time>2025-05-10T09:49:13Z</time>
      </trkpt>
      <trkpt lat="44.90873" lon="0.82653">
        <ele>145.4</ele>
        <time>2025-05-10T09:49:14Z</time>
      </trkpt>
      <trkpt lat="44.90875" lon="0.82652">
        <ele>145.4</ele>
        <time>2025-05-10T09:49:15Z</time>
      </trkpt>
      <trkpt lat="44.90875" lon="0.82652">
        <ele>146</ele>
        <time>2025-05-10T09:49:16Z</time>
      </trkpt>
      <trkpt lat="44.90877" lon="0.82652">
        <ele>146.6</ele>
        <time>2025-05-10T09:49:17Z</time>
      </trkpt>
      <trkpt lat="44.90879" lon="0.82653">
        <ele>147</ele>
        <time>2025-05-10T09:49:18Z</time>
      </trkpt>
      <trkpt lat="44.9088" lon="0.82653">
        <ele>147.4</ele>
        <time>2025-05-10T09:49:19Z</time>
      </trkpt>
      <trkpt lat="44.90882" lon="0.82654">
        <ele>147.8</ele>
        <time>2025-05-10T09:49:20Z</time>
      </trkpt>
      <trkpt lat="44.90882" lon="0.82653">
        <ele>148</ele>
        <time>2025-05-10T09:49:21Z</time>
      </trkpt>
      <trkpt lat="44.90883" lon="0.82653">
        <ele>148.4</ele>
        <time>2025-05-10T09:49:22Z</time>
      </trkpt>
      <trkpt lat="44.90892" lon="0.82646">
        <ele>151</ele>
        <time>2025-05-10T09:49:43Z</time>
      </trkpt>
      <trkpt lat="44.90892" lon="0.82645">
        <ele>151</ele>
        <time>2025-05-10T09:49:44Z</time>
      </trkpt>
      <trkpt lat="44.90892" lon="0.82643">
        <ele>151.2</ele>
        <time>2025-05-10T09:49:45Z</time>
      </trkpt>
      <trkpt lat="44.90892" lon="0.82641">
        <ele>151.2</ele>
        <time>2025-05-10T09:49:46Z</time>
      </trkpt>
      <trkpt lat="44.90891" lon="0.8264">
        <ele>151.4</ele>
        <time>2025-05-10T09:49:47Z</time>
      </trkpt>
      <trkpt lat="44.90891" lon="0.82637">
        <ele>151.6</ele>
        <time>2025-05-10T09:49:48Z</time>
      </trkpt>
      <trkpt lat="44.90891" lon="0.82635">
        <ele>151.6</ele>
        <time>2025-05-10T09:49:49Z</time>
      </trkpt>
      <trkpt lat="44.90892" lon="0.82632">
        <ele>151.6</ele>
        <time>2025-05-10T09:49:50Z</time>
      </trkpt>
      <trkpt lat="44.90893" lon="0.8263">
        <ele>151.8</ele>
        <time>2025-05-10T09:49:51Z</time>
      </trkpt>
      <trkpt lat="44.90893" lon="0.82628">
        <ele>151.8</ele>
        <time>2025-05-10T09:49:52Z</time>
      </trkpt>
      <trkpt lat="44.90894" lon="0.82626">
        <ele>152</ele>
        <time>2025-05-10T09:49:53Z</time>
      </trkpt>
      <trkpt lat="44.90894" lon="0.82626">
        <ele>152</ele>
        <time>2025-05-10T09:49:54Z</time>
      </trkpt>
      <trkpt lat="44.90895" lon="0.82624">
        <ele>152.2</ele>
        <time>2025-05-10T09:49:55Z</time>
      </trkpt>
      <trkpt lat="44.90897" lon="0.82622">
        <ele>152.4</ele>
        <time>2025-05-10T09:49:56Z</time>
      </trkpt>
      <trkpt lat="44.90897" lon="0.8262">
        <ele>152.4</ele>
        <time>2025-05-10T09:49:57Z</time>
      </trkpt>
      <trkpt lat="44.90898" lon="0.82618">
        <ele>152.6</ele>
        <time>2025-05-10T09:49:58Z</time>
      </trkpt>
      <trkpt lat="44.90899" lon="0.82616">
        <ele>153</ele>
        <time>2025-05-10T09:49:59Z</time>
      </trkpt>
      <trkpt lat="44.909" lon="0.82614">
        <ele>153.2</ele>
        <time>2025-05-10T09:50:00Z</time>
      </trkpt>
      <trkpt lat="44.90901" lon="0.82613">
        <ele>153.4</ele>
        <time>2025-05-10T09:50:01Z</time>
      </trkpt>
      <trkpt lat="44.90902" lon="0.82611">
        <ele>153.6</ele>
        <time>2025-05-10T09:50:02Z</time>
      </trkpt>
      <trkpt lat="44.90903" lon="0.8261">
        <ele>153.8</ele>
        <time>2025-05-10T09:50:03Z</time>
      </trkpt>
      <trkpt lat="44.90905" lon="0.82609">
        <ele>154.4</ele>
        <time>2025-05-10T09:50:04Z</time>
      </trkpt>
      <trkpt lat="44.90905" lon="0.82609">
        <ele>154.6</ele>
        <time>2025-05-10T09:50:05Z</time>
      </trkpt>
      <trkpt lat="44.90906" lon="0.82608">
        <ele>154.8</ele>
        <time>2025-05-10T09:50:06Z</time>
      </trkpt>
      <trkpt lat="44.90907" lon="0.82607">
        <ele>155.2</ele>
        <time>2025-05-10T09:50:07Z</time>
      </trkpt>
      <trkpt lat="44.90908" lon="0.82606">
        <ele>155.4</ele>
        <time>2025-05-10T09:50:08Z</time>
      </trkpt>
      <trkpt lat="44.9091" lon="0.82604">
        <ele>155.6</ele>
        <time>2025-05-10T09:50:09Z</time>
      </trkpt>
      <trkpt lat="44.90911" lon="0.82603">
        <ele>156</ele>
        <time>2025-05-10T09:50:10Z</time>
      </trkpt>
      <trkpt lat="44.90912" lon="0.82602">
        <ele>156.2</ele>
        <time>2025-05-10T09:50:11Z</time>
      </trkpt>
      <trkpt lat="44.90913" lon="0.826">
        <ele>156.4</ele>
        <time>2025-05-10T09:50:12Z</time>
      </trkpt>
      <trkpt lat="44.90914" lon="0.826">
        <ele>156.8</ele>
        <time>2025-05-10T09:50:13Z</time>
      </trkpt>
      <trkpt lat="44.90916" lon="0.82599">
        <ele>157</ele>
        <time>2025-05-10T09:50:14Z</time>
      </trkpt>
      <trkpt lat="44.90917" lon="0.82598">
        <ele>157.4</ele>
        <time>2025-05-10T09:50:15Z</time>
      </trkpt>
      <trkpt lat="44.90918" lon="0.82596">
        <ele>157.8</ele>
        <time>2025-05-10T09:50:16Z</time>
      </trkpt>
      <trkpt lat="44.90918" lon="0.82595">
        <ele>158</ele>
        <time>2025-05-10T09:50:17Z</time>
      </trkpt>
      <trkpt lat="44.90919" lon="0.82594">
        <ele>158.4</ele>
        <time>2025-05-10T09:50:18Z</time>
      </trkpt>
      <trkpt lat="44.9092" lon="0.82593">
        <ele>158.6</ele>
        <time>2025-05-10T09:50:19Z</time>
      </trkpt>
      <trkpt lat="44.90921" lon="0.82591">
        <ele>158.8</ele>
        <time>2025-05-10T09:50:20Z</time>
      </trkpt>
      <trkpt lat="44.90921" lon="0.82589">
        <ele>159</ele>
        <time>2025-05-10T09:50:21Z</time>
      </trkpt>
      <trkpt lat="44.90922" lon="0.82588">
        <ele>159.4</ele>
        <time>2025-05-10T09:50:22Z</time>
      </trkpt>
      <trkpt lat="44.90923" lon="0.82587">
        <ele>159.6</ele>
        <time>2025-05-10T09:50:23Z</time>
      </trkpt>
      <trkpt lat="44.90924" lon="0.82586">
        <ele>159.8</ele>
        <time>2025-05-10T09:50:24Z</time>
      </trkpt>
      <trkpt lat="44.90924" lon="0.82586">
        <ele>160.2</ele>
        <time>2025-05-10T09:50:25Z</time>
      </trkpt>
      <trkpt lat="44.90925" lon="0.82586">
        <ele>160.4</ele>
        <time>2025-05-10T09:50:26Z</time>
      </trkpt>
      <trkpt lat="44.90925" lon="0.82585">
        <ele>160.4</ele>
        <time>2025-05-10T09:50:27Z</time>
      </trkpt>
      <trkpt lat="44.90927" lon="0.82584">
        <ele>160.8</ele>
        <time>2025-05-10T09:50:28Z</time>
      </trkpt>
      <trkpt lat="44.90928" lon="0.82584">
        <ele>161</ele>
        <time>2025-05-10T09:50:29Z</time>
      </trkpt>
      <trkpt lat="44.90929" lon="0.82584">
        <ele>161.2</ele>
        <time>2025-05-10T09:50:30Z</time>
      </trkpt>
      <trkpt lat="44.90931" lon="0.82584">
        <ele>161.6</ele>
        <time>2025-05-10T09:50:31Z</time>
      </trkpt>
      <trkpt lat="44.90932" lon="0.82584">
        <ele>161.8</ele>
        <time>2025-05-10T09:50:32Z</time>
      </trkpt>
      <trkpt lat="44.90933" lon="0.82584">
        <ele>162</ele>
        <time>2025-05-10T09:50:33Z</time>
      </trkpt>
      <trkpt lat="44.90934" lon="0.82583">
        <ele>162.2</ele>
        <time>2025-05-10T09:50:34Z</time>
      </trkpt>
      <trkpt lat="44.90935" lon="0.82582">
        <ele>162.4</ele>
        <time>2025-05-10T09:50:35Z</time>
      </trkpt>
      <trkpt lat="44.90935" lon="0.82581">
        <ele>162.6</ele>
        <time>2025-05-10T09:50:36Z</time>
      </trkpt>
      <trkpt lat="44.90936" lon="0.82581">
        <ele>163</ele>
        <time>2025-05-10T09:50:37Z</time>
      </trkpt>
      <trkpt lat="44.90937" lon="0.8258">
        <ele>163.2</ele>
        <time>2025-05-10T09:50:38Z</time>
      </trkpt>
      <trkpt lat="44.90937" lon="0.82579">
        <ele>163.4</ele>
        <time>2025-05-10T09:50:39Z</time>
      </trkpt>
      <trkpt lat="44.90938" lon="0.82578">
        <ele>163.6</ele>
        <time>2025-05-10T09:50:40Z</time>
      </trkpt>
      <trkpt lat="44.90939" lon="0.82577">
        <ele>163.8</ele>
        <time>2025-05-10T09:50:41Z</time>
      </trkpt>
      <trkpt lat="44.90939" lon="0.82576">
        <ele>164</ele>
        <time>2025-05-10T09:50:42Z</time>
      </trkpt>
      <trkpt lat="44.90939" lon="0.82575">
        <ele>164.4</ele>
        <time>2025-05-10T09:50:43Z</time>
      </trkpt>
      <trkpt lat="44.9094" lon="0.82574">
        <ele>164.6</ele>
        <time>2025-05-10T09:50:44Z</time>
      </trkpt>
      <trkpt lat="44.90942" lon="0.82572">
        <ele>164.8</ele>
        <time>2025-05-10T09:50:45Z</time>
      </trkpt>
      <trkpt lat="44.90943" lon="0.82571">
        <ele>165</ele>
        <time>2025-05-10T09:50:46Z</time>
      </trkpt>
      <trkpt lat="44.90944" lon="0.82571">
        <ele>165.2</ele>
        <time>2025-05-10T09:50:47Z</time>
      </trkpt>
      <trkpt lat="44.90945" lon="0.8257">
        <ele>165.4</ele>
        <time>2025-05-10T09:50:48Z</time>
      </trkpt>
      <trkpt lat="44.90945" lon="0.82569">
        <ele>165.6</ele>
        <time>2025-05-10T09:50:49Z</time>
      </trkpt>
      <trkpt lat="44.90946" lon="0.82568">
        <ele>165.8</ele>
        <time>2025-05-10T09:50:50Z</time>
      </trkpt>
      <trkpt lat="44.90946" lon="0.82567">
        <ele>166</ele>
        <time>2025-05-10T09:50:51Z</time>
      </trkpt>
      <trkpt lat="44.90947" lon="0.82566">
        <ele>166.2</ele>
        <time>2025-05-10T09:50:52Z</time>
      </trkpt>
      <trkpt lat="44.90949" lon="0.82565">
        <ele>166.4</ele>
        <time>2025-05-10T09:50:53Z</time>
      </trkpt>
      <trkpt lat="44.90949" lon="0.82565">
        <ele>166.6</ele>
        <time>2025-05-10T09:50:54Z</time>
      </trkpt>
      <trkpt lat="44.9095" lon="0.82563">
        <ele>167</ele>
        <time>2025-05-10T09:50:55Z</time>
      </trkpt>
      <trkpt lat="44.90951" lon="0.82562">
        <ele>167</ele>
        <time>2025-05-10T09:50:56Z</time>
      </trkpt>
      <trkpt lat="44.90952" lon="0.82561">
        <ele>167.4</ele>
        <time>2025-05-10T09:50:57Z</time>
      </trkpt>
      <trkpt lat="44.90953" lon="0.82561">
        <ele>167.6</ele>
        <time>2025-05-10T09:50:58Z</time>
      </trkpt>
      <trkpt lat="44.90954" lon="0.8256">
        <ele>167.6</ele>
        <time>2025-05-10T09:50:59Z</time>
      </trkpt>
      <trkpt lat="44.90955" lon="0.8256">
        <ele>167.8</ele>
        <time>2025-05-10T09:51:00Z</time>
      </trkpt>
      <trkpt lat="44.90956" lon="0.8256">
        <ele>168.2</ele>
        <time>2025-05-10T09:51:01Z</time>
      </trkpt>
      <trkpt lat="44.90957" lon="0.82559">
        <ele>168.4</ele>
        <time>2025-05-10T09:51:02Z</time>
      </trkpt>
      <trkpt lat="44.90959" lon="0.82559">
        <ele>168.4</ele>
        <time>2025-05-10T09:51:03Z</time>
      </trkpt>
      <trkpt lat="44.9096" lon="0.82558">
        <ele>168.6</ele>
        <time>2025-05-10T09:51:04Z</time>
      </trkpt>
      <trkpt lat="44.90961" lon="0.82558">
        <ele>168.8</ele>
        <time>2025-05-10T09:51:05Z</time>
      </trkpt>
      <trkpt lat="44.90963" lon="0.82557">
        <ele>169</ele>
        <time>2025-05-10T09:51:06Z</time>
      </trkpt>
      <trkpt lat="44.90964" lon="0.82556">
        <ele>169.2</ele>
        <time>2025-05-10T09:51:07Z</time>
      </trkpt>
      <trkpt lat="44.90965" lon="0.82555">
        <ele>169.4</ele>
        <time>2025-05-10T09:51:08Z</time>
      </trkpt>
      <trkpt lat="44.90966" lon="0.82554">
        <ele>169.6</ele>
        <time>2025-05-10T09:51:09Z</time>
      </trkpt>
      <trkpt lat="44.90967" lon="0.82552">
        <ele>169.8</ele>
        <time>2025-05-10T09:51:10Z</time>
      </trkpt>
      <trkpt lat="44.90968" lon="0.82552">
        <ele>170</ele>
        <time>2025-05-10T09:51:11Z</time>
      </trkpt>
      <trkpt lat="44.90969" lon="0.82551">
        <ele>170.2</ele>
        <time>2025-05-10T09:51:12Z</time>
      </trkpt>
      <trkpt lat="44.9097" lon="0.8255">
        <ele>170.4</ele>
        <time>2025-05-10T09:51:13Z</time>
      </trkpt>
      <trkpt lat="44.90971" lon="0.82549">
        <ele>170.6</ele>
        <time>2025-05-10T09:51:14Z</time>
      </trkpt>
      <trkpt lat="44.90973" lon="0.82548">
        <ele>170.6</ele>
        <time>2025-05-10T09:51:15Z</time>
      </trkpt>
      <trkpt lat="44.90974" lon="0.82547">
        <ele>170.8</ele>
        <time>2025-05-10T09:51:16Z</time>
      </trkpt>
      <trkpt lat="44.90976" lon="0.82546">
        <ele>170.8</ele>
        <time>2025-05-10T09:51:17Z</time>
      </trkpt>
      <trkpt lat="44.90977" lon="0.82544">
        <ele>171</ele>
        <time>2025-05-10T09:51:18Z</time>
      </trkpt>
      <trkpt lat="44.90979" lon="0.82544">
        <ele>171.2</ele>
        <time>2025-05-10T09:51:19Z</time>
      </trkpt>
      <trkpt lat="44.9098" lon="0.82542">
        <ele>171.2</ele>
        <time>2025-05-10T09:51:20Z</time>
      </trkpt>
      <trkpt lat="44.90982" lon="0.82541">
        <ele>171.4</ele>
        <time>2025-05-10T09:51:21Z</time>
      </trkpt>
      <trkpt lat="44.90984" lon="0.8254">
        <ele>171.4</ele>
        <time>2025-05-10T09:51:22Z</time>
      </trkpt>
      <trkpt lat="44.90987" lon="0.82538">
        <ele>171.4</ele>
        <time>2025-05-10T09:51:23Z</time>
      </trkpt>
      <trkpt lat="44.90989" lon="0.82537">
        <ele>171.6</ele>
        <time>2025-05-10T09:51:24Z</time>
      </trkpt>
      <trkpt lat="44.90991" lon="0.82536">
        <ele>171.6</ele>
        <time>2025-05-10T09:51:25Z</time>
      </trkpt>
      <trkpt lat="44.90994" lon="0.82535">
        <ele>171.6</ele>
        <time>2025-05-10T09:51:26Z</time>
      </trkpt>
      <trkpt lat="44.90997" lon="0.82533">
        <ele>171.6</ele>
        <time>2025-05-10T09:51:27Z</time>
      </trkpt>
      <trkpt lat="44.91001" lon="0.82531">
        <ele>171.4</ele>
        <time>2025-05-10T09:51:28Z</time>
      </trkpt>
      <trkpt lat="44.91004" lon="0.82529">
        <ele>171.2</ele>
        <time>2025-05-10T09:51:29Z</time>
      </trkpt>
      <trkpt lat="44.91008" lon="0.82526">
        <ele>170.8</ele>
        <time>2025-05-10T09:51:30Z</time>
      </trkpt>
      <trkpt lat="44.91012" lon="0.82522">
        <ele>170.4</ele>
        <time>2025-05-10T09:51:31Z</time>
      </trkpt>
      <trkpt lat="44.91016" lon="0.82518">
        <ele>170.2</ele>
        <time>2025-05-10T09:51:32Z</time>
      </trkpt>
      <trkpt lat="44.91019" lon="0.82513">
        <ele>169.8</ele>
        <time>2025-05-10T09:51:33Z</time>
      </trkpt>
      <trkpt lat="44.91023" lon="0.82509">
        <ele>169.4</ele>
        <time>2025-05-10T09:51:34Z</time>
      </trkpt>
      <trkpt lat="44.91026" lon="0.82505">
        <ele>168.8</ele>
        <time>2025-05-10T09:51:35Z</time>
      </trkpt>
      <trkpt lat="44.9103" lon="0.82501">
        <ele>168.4</ele>
        <time>2025-05-10T09:51:36Z</time>
      </trkpt>
      <trkpt lat="44.91033" lon="0.82499">
        <ele>168.4</ele>
        <time>2025-05-10T09:51:37Z</time>
      </trkpt>
      <trkpt lat="44.91036" lon="0.82496">
        <ele>168.4</ele>
        <time>2025-05-10T09:51:38Z</time>
      </trkpt>
      <trkpt lat="44.91039" lon="0.82493">
        <ele>168.4</ele>
        <time>2025-05-10T09:51:39Z</time>
      </trkpt>
      <trkpt lat="44.91043" lon="0.8249">
        <ele>168.8</ele>
        <time>2025-05-10T09:51:40Z</time>
      </trkpt>
      <trkpt lat="44.91045" lon="0.82486">
        <ele>168.8</ele>
        <time>2025-05-10T09:51:41Z</time>
      </trkpt>
      <trkpt lat="44.91048" lon="0.82483">
        <ele>169</ele>
        <time>2025-05-10T09:51:42Z</time>
      </trkpt>
      <trkpt lat="44.91052" lon="0.8248">
        <ele>169.2</ele>
        <time>2025-05-10T09:51:43Z</time>
      </trkpt>
      <trkpt lat="44.91055" lon="0.82477">
        <ele>169.4</ele>
        <time>2025-05-10T09:51:44Z</time>
      </trkpt>
      <trkpt lat="44.91058" lon="0.82473">
        <ele>169.6</ele>
        <time>2025-05-10T09:51:45Z</time>
      </trkpt>
      <trkpt lat="44.91061" lon="0.8247">
        <ele>170</ele>
        <time>2025-05-10T09:51:46Z</time>
      </trkpt>
      <trkpt lat="44.91063" lon="0.82467">
        <ele>170.2</ele>
        <time>2025-05-10T09:51:47Z</time>
      </trkpt>
      <trkpt lat="44.91065" lon="0.82465">
        <ele>170.2</ele>
        <time>2025-05-10T09:51:48Z</time>
      </trkpt>
      <trkpt lat="44.91067" lon="0.82462">
        <ele>170.6</ele>
        <time>2025-05-10T09:51:49Z</time>
      </trkpt>
      <trkpt lat="44.91069" lon="0.8246">
        <ele>171</ele>
        <time>2025-05-10T09:51:50Z</time>
      </trkpt>
      <trkpt lat="44.91071" lon="0.82458">
        <ele>171.2</ele>
        <time>2025-05-10T09:51:51Z</time>
      </trkpt>
      <trkpt lat="44.91072" lon="0.82455">
        <ele>171.6</ele>
        <time>2025-05-10T09:51:52Z</time>
      </trkpt>
      <trkpt lat="44.91074" lon="0.82452">
        <ele>172</ele>
        <time>2025-05-10T09:51:53Z</time>
      </trkpt>
      <trkpt lat="44.91076" lon="0.8245">
        <ele>172.2</ele>
        <time>2025-05-10T09:51:54Z</time>
      </trkpt>
      <trkpt lat="44.91077" lon="0.82448">
        <ele>172.4</ele>
        <time>2025-05-10T09:51:55Z</time>
      </trkpt>
      <trkpt lat="44.91078" lon="0.82446">
        <ele>172.6</ele>
        <time>2025-05-10T09:51:56Z</time>
      </trkpt>
      <trkpt lat="44.9108" lon="0.82443">
        <ele>172.8</ele>
        <time>2025-05-10T09:51:57Z</time>
      </trkpt>
      <trkpt lat="44.91082" lon="0.8244">
        <ele>173</ele>
        <time>2025-05-10T09:51:58Z</time>
      </trkpt>
      <trkpt lat="44.91083" lon="0.82438">
        <ele>173.4</ele>
        <time>2025-05-10T09:51:59Z</time>
      </trkpt>
      <trkpt lat="44.91085" lon="0.82435">
        <ele>173.6</ele>
        <time>2025-05-10T09:52:00Z</time>
      </trkpt>
      <trkpt lat="44.91086" lon="0.82432">
        <ele>173.8</ele>
        <time>2025-05-10T09:52:01Z</time>
      </trkpt>
      <trkpt lat="44.91088" lon="0.8243">
        <ele>173.8</ele>
        <time>2025-05-10T09:52:02Z</time>
      </trkpt>
      <trkpt lat="44.9109" lon="0.82427">
        <ele>174.2</ele>
        <time>2025-05-10T09:52:03Z</time>
      </trkpt>
      <trkpt lat="44.91092" lon="0.82425">
        <ele>174.4</ele>
        <time>2025-05-10T09:52:04Z</time>
      </trkpt>
      <trkpt lat="44.91094" lon="0.82423">
        <ele>174.6</ele>
        <time>2025-05-10T09:52:05Z</time>
      </trkpt>
      <trkpt lat="44.91095" lon="0.82421">
        <ele>174.8</ele>
        <time>2025-05-10T09:52:06Z</time>
      </trkpt>
      <trkpt lat="44.91097" lon="0.82419">
        <ele>175</ele>
        <time>2025-05-10T09:52:07Z</time>
      </trkpt>
      <trkpt lat="44.91098" lon="0.82417">
        <ele>175.2</ele>
        <time>2025-05-10T09:52:08Z</time>
      </trkpt>
      <trkpt lat="44.911" lon="0.82415">
        <ele>175.2</ele>
        <time>2025-05-10T09:52:09Z</time>
      </trkpt>
      <trkpt lat="44.91102" lon="0.82413">
        <ele>175.4</ele>
        <time>2025-05-10T09:52:10Z</time>
      </trkpt>
      <trkpt lat="44.91104" lon="0.82412">
        <ele>175.6</ele>
        <time>2025-05-10T09:52:11Z</time>
      </trkpt>
      <trkpt lat="44.91106" lon="0.8241">
        <ele>175.8</ele>
        <time>2025-05-10T09:52:12Z</time>
      </trkpt>
      <trkpt lat="44.91108" lon="0.82409">
        <ele>176</ele>
        <time>2025-05-10T09:52:13Z</time>
      </trkpt>
      <trkpt lat="44.9111" lon="0.82407">
        <ele>176</ele>
        <time>2025-05-10T09:52:14Z</time>
      </trkpt>
      <trkpt lat="44.91111" lon="0.82407">
        <ele>176.2</ele>
        <time>2025-05-10T09:52:15Z</time>
      </trkpt>
      <trkpt lat="44.91112" lon="0.82406">
        <ele>176.4</ele>
        <time>2025-05-10T09:52:16Z</time>
      </trkpt>
      <trkpt lat="44.91113" lon="0.82404">
        <ele>176.6</ele>
        <time>2025-05-10T09:52:17Z</time>
      </trkpt>
      <trkpt lat="44.91114" lon="0.82403">
        <ele>177</ele>
        <time>2025-05-10T09:52:18Z</time>
      </trkpt>
      <trkpt lat="44.91115" lon="0.82402">
        <ele>177.2</ele>
        <time>2025-05-10T09:52:19Z</time>
      </trkpt>
      <trkpt lat="44.91117" lon="0.82401">
        <ele>177.4</ele>
        <time>2025-05-10T09:52:20Z</time>
      </trkpt>
      <trkpt lat="44.91118" lon="0.824">
        <ele>177.6</ele>
        <time>2025-05-10T09:52:21Z</time>
      </trkpt>
      <trkpt lat="44.91119" lon="0.82399">
        <ele>177.8</ele>
        <time>2025-05-10T09:52:22Z</time>
      </trkpt>
      <trkpt lat="44.9112" lon="0.82397">
        <ele>178</ele>
        <time>2025-05-10T09:52:23Z</time>
      </trkpt>
      <trkpt lat="44.9112" lon="0.82395">
        <ele>178.2</ele>
        <time>2025-05-10T09:52:24Z</time>
      </trkpt>
      <trkpt lat="44.91121" lon="0.82394">
        <ele>178.6</ele>
        <time>2025-05-10T09:52:25Z</time>
      </trkpt>
      <trkpt lat="44.91122" lon="0.82393">
        <ele>178.8</ele>
        <time>2025-05-10T09:52:26Z</time>
      </trkpt>
      <trkpt lat="44.91122" lon="0.82392">
        <ele>179</ele>
        <time>2025-05-10T09:52:27Z</time>
      </trkpt>
      <trkpt lat="44.91123" lon="0.8239">
        <ele>179.2</ele>
        <time>2025-05-10T09:52:28Z</time>
      </trkpt>
      <trkpt lat="44.91124" lon="0.82388">
        <ele>179.6</ele>
        <time>2025-05-10T09:52:29Z</time>
      </trkpt>
      <trkpt lat="44.91125" lon="0.82387">
        <ele>179.8</ele>
        <time>2025-05-10T09:52:30Z</time>
      </trkpt>
      <trkpt lat="44.91125" lon="0.82385">
        <ele>180</ele>
        <time>2025-05-10T09:52:31Z</time>
      </trkpt>
      <trkpt lat="44.91126" lon="0.82383">
        <ele>180.4</ele>
        <time>2025-05-10T09:52:32Z</time>
      </trkpt>
      <trkpt lat="44.91126" lon="0.82381">
        <ele>180.6</ele>
        <time>2025-05-10T09:52:33Z</time>
      </trkpt>
      <trkpt lat="44.91126" lon="0.82379">
        <ele>180.8</ele>
        <time>2025-05-10T09:52:34Z</time>
      </trkpt>
      <trkpt lat="44.91127" lon="0.82377">
        <ele>181</ele>
        <time>2025-05-10T09:52:35Z</time>
      </trkpt>
      <trkpt lat="44.91126" lon="0.82375">
        <ele>181</ele>
        <time>2025-05-10T09:52:36Z</time>
      </trkpt>
      <trkpt lat="44.91127" lon="0.82373">
        <ele>181.2</ele>
        <time>2025-05-10T09:52:37Z</time>
      </trkpt>
      <trkpt lat="44.91127" lon="0.8237">
        <ele>181.2</ele>
        <time>2025-05-10T09:52:38Z</time>
      </trkpt>
      <trkpt lat="44.91128" lon="0.82368">
        <ele>181.4</ele>
        <time>2025-05-10T09:52:39Z</time>
      </trkpt>
      <trkpt lat="44.91129" lon="0.82367">
        <ele>181.4</ele>
        <time>2025-05-10T09:52:40Z</time>
      </trkpt>
      <trkpt lat="44.91131" lon="0.82364">
        <ele>181.8</ele>
        <time>2025-05-10T09:52:41Z</time>
      </trkpt>
      <trkpt lat="44.91132" lon="0.82362">
        <ele>181.8</ele>
        <time>2025-05-10T09:52:42Z</time>
      </trkpt>
      <trkpt lat="44.91133" lon="0.82358">
        <ele>182</ele>
        <time>2025-05-10T09:52:43Z</time>
      </trkpt>
      <trkpt lat="44.91135" lon="0.82356">
        <ele>182</ele>
        <time>2025-05-10T09:52:44Z</time>
      </trkpt>
      <trkpt lat="44.91136" lon="0.82353">
        <ele>182</ele>
        <time>2025-05-10T09:52:45Z</time>
      </trkpt>
      <trkpt lat="44.91137" lon="0.8235">
        <ele>182</ele>
        <time>2025-05-10T09:52:46Z</time>
      </trkpt>
      <trkpt lat="44.91137" lon="0.82347">
        <ele>182.2</ele>
        <time>2025-05-10T09:52:47Z</time>
      </trkpt>
      <trkpt lat="44.91138" lon="0.82343">
        <ele>182.4</ele>
        <time>2025-05-10T09:52:48Z</time>
      </trkpt>
      <trkpt lat="44.91139" lon="0.8234">
        <ele>182.4</ele>
        <time>2025-05-10T09:52:49Z</time>
      </trkpt>
      <trkpt lat="44.9114" lon="0.82337">
        <ele>182.4</ele>
        <time>2025-05-10T09:52:50Z</time>
      </trkpt>
      <trkpt lat="44.91141" lon="0.82333">
        <ele>182.4</ele>
        <time>2025-05-10T09:52:51Z</time>
      </trkpt>
      <trkpt lat="44.91143" lon="0.82329">
        <ele>182.4</ele>
        <time>2025-05-10T09:52:52Z</time>
      </trkpt>
      <trkpt lat="44.91144" lon="0.82324">
        <ele>182.4</ele>
        <time>2025-05-10T09:52:53Z</time>
      </trkpt>
      <trkpt lat="44.91145" lon="0.8232">
        <ele>182.4</ele>
        <time>2025-05-10T09:52:54Z</time>
      </trkpt>
      <trkpt lat="44.91147" lon="0.82315">
        <ele>182.4</ele>
        <time>2025-05-10T09:52:55Z</time>
      </trkpt>
      <trkpt lat="44.91148" lon="0.8231">
        <ele>182.4</ele>
        <time>2025-05-10T09:52:56Z</time>
      </trkpt>
      <trkpt lat="44.9115" lon="0.82305">
        <ele>182.4</ele>
        <time>2025-05-10T09:52:57Z</time>
      </trkpt>
      <trkpt lat="44.91151" lon="0.823">
        <ele>182.4</ele>
        <time>2025-05-10T09:52:58Z</time>
      </trkpt>
      <trkpt lat="44.91152" lon="0.82294">
        <ele>182.2</ele>
        <time>2025-05-10T09:52:59Z</time>
      </trkpt>
      <trkpt lat="44.91152" lon="0.82288">
        <ele>182.2</ele>
        <time>2025-05-10T09:53:00Z</time>
      </trkpt>
      <trkpt lat="44.91153" lon="0.82283">
        <ele>182.2</ele>
        <time>2025-05-10T09:53:01Z</time>
      </trkpt>
      <trkpt lat="44.91154" lon="0.82278">
        <ele>182</ele>
        <time>2025-05-10T09:53:02Z</time>
      </trkpt>
      <trkpt lat="44.91156" lon="0.82273">
        <ele>182</ele>
        <time>2025-05-10T09:53:03Z</time>
      </trkpt>
      <trkpt lat="44.91157" lon="0.82267">
        <ele>182</ele>
        <time>2025-05-10T09:53:04Z</time>
      </trkpt>
      <trkpt lat="44.91158" lon="0.82262">
        <ele>181.8</ele>
        <time>2025-05-10T09:53:05Z</time>
      </trkpt>
      <trkpt lat="44.9116" lon="0.82257">
        <ele>181.8</ele>
        <time>2025-05-10T09:53:06Z</time>
      </trkpt>
      <trkpt lat="44.91162" lon="0.82251">
        <ele>181.8</ele>
        <time>2025-05-10T09:53:07Z</time>
      </trkpt>
      <trkpt lat="44.91164" lon="0.82246">
        <ele>181.6</ele>
        <time>2025-05-10T09:53:08Z</time>
      </trkpt>
      <trkpt lat="44.91166" lon="0.82241">
        <ele>181.8</ele>
        <time>2025-05-10T09:53:09Z</time>
      </trkpt>
      <trkpt lat="44.91167" lon="0.82235">
        <ele>181.6</ele>
        <time>2025-05-10T09:53:10Z</time>
      </trkpt>
      <trkpt lat="44.91169" lon="0.82229">
        <ele>181.6</ele>
        <time>2025-05-10T09:53:11Z</time>
      </trkpt>
      <trkpt lat="44.91171" lon="0.82223">
        <ele>181.6</ele>
        <time>2025-05-10T09:53:12Z</time>
      </trkpt>
      <trkpt lat="44.91171" lon="0.82217">
        <ele>181.2</ele>
        <time>2025-05-10T09:53:13Z</time>
      </trkpt>
      <trkpt lat="44.91171" lon="0.82212">
        <ele>180.6</ele>
        <time>2025-05-10T09:53:14Z</time>
      </trkpt>
      <trkpt lat="44.91171" lon="0.82207">
        <ele>180.6</ele>
        <time>2025-05-10T09:53:15Z</time>
      </trkpt>
      <trkpt lat="44.91173" lon="0.82202">
        <ele>180.6</ele>
        <time>2025-05-10T09:53:16Z</time>
      </trkpt>
      <trkpt lat="44.91174" lon="0.82198">
        <ele>180.6</ele>
        <time>2025-05-10T09:53:17Z</time>
      </trkpt>
      <trkpt lat="44.91176" lon="0.82196">
        <ele>180.6</ele>
        <time>2025-05-10T09:53:18Z</time>
      </trkpt>
      <trkpt lat="44.91179" lon="0.82194">
        <ele>180.8</ele>
        <time>2025-05-10T09:53:19Z</time>
      </trkpt>
      <trkpt lat="44.91182" lon="0.82192">
        <ele>180.8</ele>
        <time>2025-05-10T09:53:20Z</time>
      </trkpt>
      <trkpt lat="44.91184" lon="0.8219">
        <ele>181</ele>
        <time>2025-05-10T09:53:21Z</time>
      </trkpt>
      <trkpt lat="44.91187" lon="0.82188">
        <ele>181</ele>
        <time>2025-05-10T09:53:22Z</time>
      </trkpt>
      <trkpt lat="44.9119" lon="0.82186">
        <ele>181</ele>
        <time>2025-05-10T09:53:23Z</time>
      </trkpt>
      <trkpt lat="44.91192" lon="0.82184">
        <ele>181</ele>
        <time>2025-05-10T09:53:24Z</time>
      </trkpt>
      <trkpt lat="44.91194" lon="0.82181">
        <ele>181</ele>
        <time>2025-05-10T09:53:25Z</time>
      </trkpt>
      <trkpt lat="44.91197" lon="0.8218">
        <ele>181</ele>
        <time>2025-05-10T09:53:26Z</time>
      </trkpt>
      <trkpt lat="44.91199" lon="0.8218">
        <ele>181</ele>
        <time>2025-05-10T09:53:27Z</time>
      </trkpt>
      <trkpt lat="44.91199" lon="0.82179">
        <ele>181</ele>
        <time>2025-05-10T09:53:28Z</time>
      </trkpt>
      <trkpt lat="44.912" lon="0.82179">
        <ele>181.2</ele>
        <time>2025-05-10T09:53:29Z</time>
      </trkpt>
      <trkpt lat="44.91201" lon="0.82175">
        <ele>181.4</ele>
        <time>2025-05-10T10:04:05Z</time>
      </trkpt>
      <trkpt lat="44.91202" lon="0.82172">
        <ele>181.4</ele>
        <time>2025-05-10T10:04:06Z</time>
      </trkpt>
      <trkpt lat="44.91204" lon="0.82169">
        <ele>181.2</ele>
        <time>2025-05-10T10:04:07Z</time>
      </trkpt>
      <trkpt lat="44.91205" lon="0.82165">
        <ele>181.2</ele>
        <time>2025-05-10T10:04:08Z</time>
      </trkpt>
      <trkpt lat="44.91207" lon="0.82162">
        <ele>181</ele>
        <time>2025-05-10T10:04:09Z</time>
      </trkpt>
      <trkpt lat="44.91209" lon="0.82158">
        <ele>181</ele>
        <time>2025-05-10T10:04:10Z</time>
      </trkpt>
      <trkpt lat="44.91212" lon="0.82155">
        <ele>180.8</ele>
        <time>2025-05-10T10:04:11Z</time>
      </trkpt>
      <trkpt lat="44.91214" lon="0.8215">
        <ele>180.8</ele>
        <time>2025-05-10T10:04:12Z</time>
      </trkpt>
      <trkpt lat="44.91216" lon="0.82146">
        <ele>180.6</ele>
        <time>2025-05-10T10:04:13Z</time>
      </trkpt>
      <trkpt lat="44.91219" lon="0.82142">
        <ele>180.6</ele>
        <time>2025-05-10T10:04:14Z</time>
      </trkpt>
      <trkpt lat="44.91221" lon="0.82138">
        <ele>180.6</ele>
        <time>2025-05-10T10:04:15Z</time>
      </trkpt>
      <trkpt lat="44.91224" lon="0.82134">
        <ele>180.6</ele>
        <time>2025-05-10T10:04:16Z</time>
      </trkpt>
      <trkpt lat="44.91227" lon="0.8213">
        <ele>180.6</ele>
        <time>2025-05-10T10:04:17Z</time>
      </trkpt>
      <trkpt lat="44.9123" lon="0.82127">
        <ele>180.6</ele>
        <time>2025-05-10T10:04:18Z</time>
      </trkpt>
      <trkpt lat="44.91233" lon="0.82124">
        <ele>180.8</ele>
        <time>2025-05-10T10:04:19Z</time>
      </trkpt>
      <trkpt lat="44.91236" lon="0.82121">
        <ele>180.8</ele>
        <time>2025-05-10T10:04:20Z</time>
      </trkpt>
      <trkpt lat="44.91239" lon="0.82118">
        <ele>180.8</ele>
        <time>2025-05-10T10:04:21Z</time>
      </trkpt>
      <trkpt lat="44.91242" lon="0.82115">
        <ele>180.8</ele>
        <time>2025-05-10T10:04:22Z</time>
      </trkpt>
      <trkpt lat="44.91246" lon="0.82111">
        <ele>181</ele>
        <time>2025-05-10T10:04:23Z</time>
      </trkpt>
      <trkpt lat="44.91249" lon="0.82108">
        <ele>180.8</ele>
        <time>2025-05-10T10:04:24Z</time>
      </trkpt>
      <trkpt lat="44.91253" lon="0.82106">
        <ele>180.8</ele>
        <time>2025-05-10T10:04:25Z</time>
      </trkpt>
      <trkpt lat="44.91257" lon="0.82104">
        <ele>180.8</ele>
        <time>2025-05-10T10:04:26Z</time>
      </trkpt>
      <trkpt lat="44.91261" lon="0.82101">
        <ele>180.8</ele>
        <time>2025-05-10T10:04:27Z</time>
      </trkpt>
      <trkpt lat="44.91265" lon="0.821">
        <ele>180.6</ele>
        <time>2025-05-10T10:04:28Z</time>
      </trkpt>
      <trkpt lat="44.9127" lon="0.82099">
        <ele>180.6</ele>
        <time>2025-05-10T10:04:29Z</time>
      </trkpt>
      <trkpt lat="44.91275" lon="0.82099">
        <ele>180.6</ele>
        <time>2025-05-10T10:04:30Z</time>
      </trkpt>
      <trkpt lat="44.91279" lon="0.821">
        <ele>180.6</ele>
        <time>2025-05-10T10:04:31Z</time>
      </trkpt>
      <trkpt lat="44.91284" lon="0.82102">
        <ele>180.6</ele>
        <time>2025-05-10T10:04:32Z</time>
      </trkpt>
      <trkpt lat="44.91288" lon="0.82104">
        <ele>180.6</ele>
        <time>2025-05-10T10:04:33Z</time>
      </trkpt>
      <trkpt lat="44.91293" lon="0.82106">
        <ele>180.6</ele>
        <time>2025-05-10T10:04:34Z</time>
      </trkpt>
      <trkpt lat="44.91297" lon="0.82109">
        <ele>180.2</ele>
        <time>2025-05-10T10:04:35Z</time>
      </trkpt>
      <trkpt lat="44.91302" lon="0.8211">
        <ele>180</ele>
        <time>2025-05-10T10:04:36Z</time>
      </trkpt>
      <trkpt lat="44.91306" lon="0.82111">
        <ele>179.8</ele>
        <time>2025-05-10T10:04:37Z</time>
      </trkpt>
      <trkpt lat="44.91311" lon="0.82112">
        <ele>179.6</ele>
        <time>2025-05-10T10:04:38Z</time>
      </trkpt>
      <trkpt lat="44.91316" lon="0.82113">
        <ele>179.6</ele>
        <time>2025-05-10T10:04:39Z</time>
      </trkpt>
      <trkpt lat="44.9132" lon="0.82113">
        <ele>179.6</ele>
        <time>2025-05-10T10:04:40Z</time>
      </trkpt>
      <trkpt lat="44.91325" lon="0.82113">
        <ele>179.8</ele>
        <time>2025-05-10T10:04:41Z</time>
      </trkpt>
      <trkpt lat="44.9133" lon="0.82114">
        <ele>180</ele>
        <time>2025-05-10T10:04:42Z</time>
      </trkpt>
      <trkpt lat="44.91335" lon="0.82115">
        <ele>180</ele>
        <time>2025-05-10T10:04:43Z</time>
      </trkpt>
      <trkpt lat="44.9134" lon="0.82117">
        <ele>180</ele>
        <time>2025-05-10T10:04:44Z</time>
      </trkpt>
      <trkpt lat="44.91344" lon="0.8212">
        <ele>180</ele>
        <time>2025-05-10T10:04:45Z</time>
      </trkpt>
      <trkpt lat="44.9135" lon="0.82124">
        <ele>180</ele>
        <time>2025-05-10T10:04:46Z</time>
      </trkpt>
      <trkpt lat="44.91355" lon="0.82129">
        <ele>179.8</ele>
        <time>2025-05-10T10:04:47Z</time>
      </trkpt>
      <trkpt lat="44.91362" lon="0.82131">
        <ele>179.2</ele>
        <time>2025-05-10T10:04:48Z</time>
      </trkpt>
      <trkpt lat="44.91369" lon="0.82132">
        <ele>178.2</ele>
        <time>2025-05-10T10:04:49Z</time>
      </trkpt>
      <trkpt lat="44.91377" lon="0.82131">
        <ele>177.8</ele>
        <time>2025-05-10T10:04:50Z</time>
      </trkpt>
      <trkpt lat="44.91384" lon="0.82129">
        <ele>177.2</ele>
        <time>2025-05-10T10:04:51Z</time>
      </trkpt>
      <trkpt lat="44.91391" lon="0.82127">
        <ele>176.8</ele>
        <time>2025-05-10T10:04:52Z</time>
      </trkpt>
      <trkpt lat="44.91399" lon="0.82125">
        <ele>176.4</ele>
        <time>2025-05-10T10:04:53Z</time>
      </trkpt>
      <trkpt lat="44.91407" lon="0.82123">
        <ele>175.8</ele>
        <time>2025-05-10T10:04:54Z</time>
      </trkpt>
      <trkpt lat="44.91415" lon="0.82122">
        <ele>175.4</ele>
        <time>2025-05-10T10:04:55Z</time>
      </trkpt>
      <trkpt lat="44.91422" lon="0.8212">
        <ele>174.6</ele>
        <time>2025-05-10T10:04:56Z</time>
      </trkpt>
      <trkpt lat="44.9143" lon="0.82118">
        <ele>174.6</ele>
        <time>2025-05-10T10:04:57Z</time>
      </trkpt>
      <trkpt lat="44.91437" lon="0.82116">
        <ele>174.4</ele>
        <time>2025-05-10T10:04:58Z</time>
      </trkpt>
      <trkpt lat="44.91442" lon="0.8211">
        <ele>174.4</ele>
        <time>2025-05-10T10:04:59Z</time>
      </trkpt>
      <trkpt lat="44.91446" lon="0.82103">
        <ele>174.4</ele>
        <time>2025-05-10T10:05:00Z</time>
      </trkpt>
      <trkpt lat="44.91449" lon="0.82096">
        <ele>174.4</ele>
        <time>2025-05-10T10:05:01Z</time>
      </trkpt>
      <trkpt lat="44.91452" lon="0.82088">
        <ele>174.4</ele>
        <time>2025-05-10T10:05:02Z</time>
      </trkpt>
      <trkpt lat="44.91453" lon="0.82078">
        <ele>174.4</ele>
        <time>2025-05-10T10:05:03Z</time>
      </trkpt>
      <trkpt lat="44.91454" lon="0.8207">
        <ele>174.4</ele>
        <time>2025-05-10T10:05:04Z</time>
      </trkpt>
      <trkpt lat="44.91454" lon="0.8206">
        <ele>174.4</ele>
        <time>2025-05-10T10:05:05Z</time>
      </trkpt>
      <trkpt lat="44.91452" lon="0.82051">
        <ele>174.4</ele>
        <time>2025-05-10T10:05:06Z</time>
      </trkpt>
      <trkpt lat="44.91449" lon="0.82042">
        <ele>174.2</ele>
        <time>2025-05-10T10:05:07Z</time>
      </trkpt>
      <trkpt lat="44.91445" lon="0.82034">
        <ele>174</ele>
        <time>2025-05-10T10:05:08Z</time>
      </trkpt>
      <trkpt lat="44.9144" lon="0.82027">
        <ele>173.6</ele>
        <time>2025-05-10T10:05:09Z</time>
      </trkpt>
      <trkpt lat="44.91435" lon="0.8202">
        <ele>173</ele>
        <time>2025-05-10T10:05:10Z</time>
      </trkpt>
      <trkpt lat="44.9143" lon="0.82012">
        <ele>172.2</ele>
        <time>2025-05-10T10:05:11Z</time>
      </trkpt>
      <trkpt lat="44.91424" lon="0.82004">
        <ele>171.8</ele>
        <time>2025-05-10T10:05:12Z</time>
      </trkpt>
      <trkpt lat="44.91419" lon="0.81996">
        <ele>171.2</ele>
        <time>2025-05-10T10:05:13Z</time>
      </trkpt>
      <trkpt lat="44.91414" lon="0.81987">
        <ele>170.6</ele>
        <time>2025-05-10T10:05:14Z</time>
      </trkpt>
      <trkpt lat="44.91409" lon="0.81978">
        <ele>170.6</ele>
        <time>2025-05-10T10:05:15Z</time>
      </trkpt>
      <trkpt lat="44.91405" lon="0.81969">
        <ele>170.4</ele>
        <time>2025-05-10T10:05:16Z</time>
      </trkpt>
      <trkpt lat="44.91401" lon="0.8196">
        <ele>170.2</ele>
        <time>2025-05-10T10:05:17Z</time>
      </trkpt>
      <trkpt lat="44.91397" lon="0.8195">
        <ele>170.2</ele>
        <time>2025-05-10T10:05:18Z</time>
      </trkpt>
      <trkpt lat="44.91393" lon="0.8194">
        <ele>170</ele>
        <time>2025-05-10T10:05:19Z</time>
      </trkpt>
      <trkpt lat="44.9139" lon="0.8193">
        <ele>169.8</ele>
        <time>2025-05-10T10:05:20Z</time>
      </trkpt>
      <trkpt lat="44.91386" lon="0.81921">
        <ele>169.6</ele>
        <time>2025-05-10T10:05:21Z</time>
      </trkpt>
      <trkpt lat="44.91383" lon="0.81912">
        <ele>168.8</ele>
        <time>2025-05-10T10:05:22Z</time>
      </trkpt>
      <trkpt lat="44.91379" lon="0.81903">
        <ele>168.2</ele>
        <time>2025-05-10T10:05:23Z</time>
      </trkpt>
      <trkpt lat="44.91376" lon="0.81893">
        <ele>168.2</ele>
        <time>2025-05-10T10:05:24Z</time>
      </trkpt>
      <trkpt lat="44.91373" lon="0.81883">
        <ele>168</ele>
        <time>2025-05-10T10:05:25Z</time>
      </trkpt>
      <trkpt lat="44.91371" lon="0.81872">
        <ele>168</ele>
        <time>2025-05-10T10:05:26Z</time>
      </trkpt>
      <trkpt lat="44.9137" lon="0.81861">
        <ele>167.8</ele>
        <time>2025-05-10T10:05:27Z</time>
      </trkpt>
      <trkpt lat="44.91369" lon="0.8185">
        <ele>167.6</ele>
        <time>2025-05-10T10:05:28Z</time>
      </trkpt>
      <trkpt lat="44.91367" lon="0.81838">
        <ele>167.4</ele>
        <time>2025-05-10T10:05:29Z</time>
      </trkpt>
      <trkpt lat="44.91365" lon="0.81828">
        <ele>167.2</ele>
        <time>2025-05-10T10:05:30Z</time>
      </trkpt>
      <trkpt lat="44.91363" lon="0.81818">
        <ele>167.2</ele>
        <time>2025-05-10T10:05:31Z</time>
      </trkpt>
      <trkpt lat="44.91361" lon="0.81808">
        <ele>167.2</ele>
        <time>2025-05-10T10:05:32Z</time>
      </trkpt>
      <trkpt lat="44.91359" lon="0.81798">
        <ele>167.2</ele>
        <time>2025-05-10T10:05:33Z</time>
      </trkpt>
      <trkpt lat="44.91357" lon="0.81788">
        <ele>167.2</ele>
        <time>2025-05-10T10:05:34Z</time>
      </trkpt>
      <trkpt lat="44.91355" lon="0.81778">
        <ele>167.2</ele>
        <time>2025-05-10T10:05:35Z</time>
      </trkpt>
      <trkpt lat="44.91353" lon="0.81768">
        <ele>167.2</ele>
        <time>2025-05-10T10:05:36Z</time>
      </trkpt>
      <trkpt lat="44.91351" lon="0.81758">
        <ele>167.2</ele>
        <time>2025-05-10T10:05:37Z</time>
      </trkpt>
      <trkpt lat="44.91349" lon="0.81748">
        <ele>167.2</ele>
        <time>2025-05-10T10:05:38Z</time>
      </trkpt>
      <trkpt lat="44.91347" lon="0.81739">
        <ele>167</ele>
        <time>2025-05-10T10:05:39Z</time>
      </trkpt>
      <trkpt lat="44.91344" lon="0.81729">
        <ele>167</ele>
        <time>2025-05-10T10:05:40Z</time>
      </trkpt>
      <trkpt lat="44.91342" lon="0.81718">
        <ele>166.8</ele>
        <time>2025-05-10T10:05:41Z</time>
      </trkpt>
      <trkpt lat="44.91341" lon="0.81708">
        <ele>166.8</ele>
        <time>2025-05-10T10:05:42Z</time>
      </trkpt>
      <trkpt lat="44.9134" lon="0.81698">
        <ele>166.4</ele>
        <time>2025-05-10T10:05:43Z</time>
      </trkpt>
      <trkpt lat="44.91338" lon="0.81688">
        <ele>166.2</ele>
        <time>2025-05-10T10:05:44Z</time>
      </trkpt>
      <trkpt lat="44.9134" lon="0.8168">
        <ele>165.8</ele>
        <time>2025-05-10T10:05:45Z</time>
      </trkpt>
      <trkpt lat="44.91342" lon="0.81674">
        <ele>165.4</ele>
        <time>2025-05-10T10:05:46Z</time>
      </trkpt>
      <trkpt lat="44.91346" lon="0.81668">
        <ele>165.4</ele>
        <time>2025-05-10T10:05:47Z</time>
      </trkpt>
      <trkpt lat="44.91351" lon="0.81663">
        <ele>165.6</ele>
        <time>2025-05-10T10:05:48Z</time>
      </trkpt>
      <trkpt lat="44.91356" lon="0.8166">
        <ele>165.6</ele>
        <time>2025-05-10T10:05:49Z</time>
      </trkpt>
      <trkpt lat="44.91362" lon="0.81658">
        <ele>165.6</ele>
        <time>2025-05-10T10:05:50Z</time>
      </trkpt>
      <trkpt lat="44.91367" lon="0.81656">
        <ele>166</ele>
        <time>2025-05-10T10:05:51Z</time>
      </trkpt>
      <trkpt lat="44.91373" lon="0.81655">
        <ele>166</ele>
        <time>2025-05-10T10:05:52Z</time>
      </trkpt>
      <trkpt lat="44.91379" lon="0.81652">
        <ele>166</ele>
        <time>2025-05-10T10:05:53Z</time>
      </trkpt>
      <trkpt lat="44.91384" lon="0.81648">
        <ele>166</ele>
        <time>2025-05-10T10:05:54Z</time>
      </trkpt>
      <trkpt lat="44.91389" lon="0.81642">
        <ele>165.8</ele>
        <time>2025-05-10T10:05:55Z</time>
      </trkpt>
      <trkpt lat="44.91393" lon="0.81636">
        <ele>165.8</ele>
        <time>2025-05-10T10:05:56Z</time>
      </trkpt>
      <trkpt lat="44.91398" lon="0.8163">
        <ele>165.8</ele>
        <time>2025-05-10T10:05:57Z</time>
      </trkpt>
      <trkpt lat="44.91402" lon="0.81625">
        <ele>165.8</ele>
        <time>2025-05-10T10:05:58Z</time>
      </trkpt>
      <trkpt lat="44.91406" lon="0.8162">
        <ele>165.8</ele>
        <time>2025-05-10T10:05:59Z</time>
      </trkpt>
      <trkpt lat="44.91411" lon="0.81615">
        <ele>165.8</ele>
        <time>2025-05-10T10:06:00Z</time>
      </trkpt>
      <trkpt lat="44.91416" lon="0.81611">
        <ele>165.8</ele>
        <time>2025-05-10T10:06:01Z</time>
      </trkpt>
      <trkpt lat="44.91421" lon="0.81606">
        <ele>165.8</ele>
        <time>2025-05-10T10:06:02Z</time>
      </trkpt>
      <trkpt lat="44.91426" lon="0.81601">
        <ele>165.8</ele>
        <time>2025-05-10T10:06:03Z</time>
      </trkpt>
      <trkpt lat="44.91431" lon="0.81597">
        <ele>165.8</ele>
        <time>2025-05-10T10:06:04Z</time>
      </trkpt>
      <trkpt lat="44.91436" lon="0.81593">
        <ele>165.8</ele>
        <time>2025-05-10T10:06:05Z</time>
      </trkpt>
      <trkpt lat="44.91442" lon="0.81588">
        <ele>165.8</ele>
        <time>2025-05-10T10:06:06Z</time>
      </trkpt>
      <trkpt lat="44.91447" lon="0.81585">
        <ele>165.6</ele>
        <time>2025-05-10T10:06:07Z</time>
      </trkpt>
      <trkpt lat="44.91453" lon="0.81581">
        <ele>165.6</ele>
        <time>2025-05-10T10:06:08Z</time>
      </trkpt>
      <trkpt lat="44.91459" lon="0.81577">
        <ele>165.4</ele>
        <time>2025-05-10T10:06:09Z</time>
      </trkpt>
      <trkpt lat="44.91465" lon="0.81573">
        <ele>165.2</ele>
        <time>2025-05-10T10:06:10Z</time>
      </trkpt>
      <trkpt lat="44.91472" lon="0.81569">
        <ele>164.6</ele>
        <time>2025-05-10T10:06:11Z</time>
      </trkpt>
      <trkpt lat="44.91478" lon="0.81565">
        <ele>164.4</ele>
        <time>2025-05-10T10:06:12Z</time>
      </trkpt>
      <trkpt lat="44.91485" lon="0.81561">
        <ele>164</ele>
        <time>2025-05-10T10:06:13Z</time>
      </trkpt>
      <trkpt lat="44.91492" lon="0.81556">
        <ele>163.6</ele>
        <time>2025-05-10T10:06:14Z</time>
      </trkpt>
      <trkpt lat="44.91498" lon="0.8155">
        <ele>163.2</ele>
        <time>2025-05-10T10:06:15Z</time>
      </trkpt>
      <trkpt lat="44.91505" lon="0.81543">
        <ele>162.6</ele>
        <time>2025-05-10T10:06:16Z</time>
      </trkpt>
      <trkpt lat="44.91511" lon="0.81537">
        <ele>162</ele>
        <time>2025-05-10T10:06:17Z</time>
      </trkpt>
      <trkpt lat="44.91517" lon="0.8153">
        <ele>161.8</ele>
        <time>2025-05-10T10:06:18Z</time>
      </trkpt>
      <trkpt lat="44.91524" lon="0.81523">
        <ele>161.4</ele>
        <time>2025-05-10T10:06:19Z</time>
      </trkpt>
      <trkpt lat="44.9153" lon="0.81517">
        <ele>161.2</ele>
        <time>2025-05-10T10:06:20Z</time>
      </trkpt>
      <trkpt lat="44.91537" lon="0.81511">
        <ele>161</ele>
        <time>2025-05-10T10:06:21Z</time>
      </trkpt>
      <trkpt lat="44.91544" lon="0.81505">
        <ele>160.8</ele>
        <time>2025-05-10T10:06:22Z</time>
      </trkpt>
      <trkpt lat="44.9155" lon="0.81496">
        <ele>160.2</ele>
        <time>2025-05-10T10:06:23Z</time>
      </trkpt>
      <trkpt lat="44.91555" lon="0.81486">
        <ele>159.6</ele>
        <time>2025-05-10T10:06:24Z</time>
      </trkpt>
      <trkpt lat="44.91558" lon="0.81475">
        <ele>159</ele>
        <time>2025-05-10T10:06:25Z</time>
      </trkpt>
      <trkpt lat="44.91561" lon="0.81464">
        <ele>158.8</ele>
        <time>2025-05-10T10:06:26Z</time>
      </trkpt>
      <trkpt lat="44.91564" lon="0.81452">
        <ele>158.2</ele>
        <time>2025-05-10T10:06:27Z</time>
      </trkpt>
      <trkpt lat="44.91568" lon="0.81441">
        <ele>157.4</ele>
        <time>2025-05-10T10:06:28Z</time>
      </trkpt>
      <trkpt lat="44.91573" lon="0.8143">
        <ele>156.4</ele>
        <time>2025-05-10T10:06:29Z</time>
      </trkpt>
      <trkpt lat="44.91577" lon="0.81419">
        <ele>156</ele>
        <time>2025-05-10T10:06:30Z</time>
      </trkpt>
      <trkpt lat="44.91582" lon="0.81407">
        <ele>154.8</ele>
        <time>2025-05-10T10:06:31Z</time>
      </trkpt>
      <trkpt lat="44.91586" lon="0.81395">
        <ele>153.8</ele>
        <time>2025-05-10T10:06:32Z</time>
      </trkpt>
      <trkpt lat="44.91591" lon="0.81383">
        <ele>153.2</ele>
        <time>2025-05-10T10:06:33Z</time>
      </trkpt>
      <trkpt lat="44.91596" lon="0.81371">
        <ele>152.8</ele>
        <time>2025-05-10T10:06:34Z</time>
      </trkpt>
      <trkpt lat="44.91601" lon="0.8136">
        <ele>152.2</ele>
        <time>2025-05-10T10:06:35Z</time>
      </trkpt>
      <trkpt lat="44.91606" lon="0.81348">
        <ele>151.4</ele>
        <time>2025-05-10T10:06:36Z</time>
      </trkpt>
      <trkpt lat="44.91611" lon="0.81336">
        <ele>151</ele>
        <time>2025-05-10T10:06:37Z</time>
      </trkpt>
      <trkpt lat="44.91616" lon="0.81324">
        <ele>150.2</ele>
        <time>2025-05-10T10:06:38Z</time>
      </trkpt>
      <trkpt lat="44.91622" lon="0.81312">
        <ele>148.4</ele>
        <time>2025-05-10T10:06:39Z</time>
      </trkpt>
      <trkpt lat="44.91627" lon="0.813">
        <ele>148</ele>
        <time>2025-05-10T10:06:40Z</time>
      </trkpt>
      <trkpt lat="44.91633" lon="0.81287">
        <ele>146.8</ele>
        <time>2025-05-10T10:06:41Z</time>
      </trkpt>
      <trkpt lat="44.91639" lon="0.81276">
        <ele>145.2</ele>
        <time>2025-05-10T10:06:42Z</time>
      </trkpt>
      <trkpt lat="44.91647" lon="0.81266">
        <ele>145</ele>
        <time>2025-05-10T10:06:43Z</time>
      </trkpt>
      <trkpt lat="44.91656" lon="0.81258">
        <ele>144.2</ele>
        <time>2025-05-10T10:06:44Z</time>
      </trkpt>
      <trkpt lat="44.91665" lon="0.8125">
        <ele>143.2</ele>
        <time>2025-05-10T10:06:45Z</time>
      </trkpt>
      <trkpt lat="44.91674" lon="0.81242">
        <ele>142.2</ele>
        <time>2025-05-10T10:06:46Z</time>
      </trkpt>
      <trkpt lat="44.91683" lon="0.81233">
        <ele>141.2</ele>
        <time>2025-05-10T10:06:47Z</time>
      </trkpt>
      <trkpt lat="44.9169" lon="0.81226">
        <ele>139.8</ele>
        <time>2025-05-10T10:06:48Z</time>
      </trkpt>
      <trkpt lat="44.91694" lon="0.81219">
        <ele>138.8</ele>
        <time>2025-05-10T10:06:49Z</time>
      </trkpt>
      <trkpt lat="44.91695" lon="0.81211">
        <ele>138.6</ele>
        <time>2025-05-10T10:06:50Z</time>
      </trkpt>
      <trkpt lat="44.91693" lon="0.81204">
        <ele>138.4</ele>
        <time>2025-05-10T10:06:51Z</time>
      </trkpt>
      <trkpt lat="44.91691" lon="0.81199">
        <ele>138.4</ele>
        <time>2025-05-10T10:06:52Z</time>
      </trkpt>
      <trkpt lat="44.91688" lon="0.81194">
        <ele>138.4</ele>
        <time>2025-05-10T10:06:53Z</time>
      </trkpt>
      <trkpt lat="44.91685" lon="0.81189">
        <ele>138.6</ele>
        <time>2025-05-10T10:06:54Z</time>
      </trkpt>
      <trkpt lat="44.91682" lon="0.81183">
        <ele>138.8</ele>
        <time>2025-05-10T10:06:55Z</time>
      </trkpt>
      <trkpt lat="44.91679" lon="0.81177">
        <ele>139</ele>
        <time>2025-05-10T10:06:56Z</time>
      </trkpt>
      <trkpt lat="44.91676" lon="0.81171">
        <ele>139</ele>
        <time>2025-05-10T10:06:57Z</time>
      </trkpt>
      <trkpt lat="44.91672" lon="0.81164">
        <ele>139</ele>
        <time>2025-05-10T10:06:58Z</time>
      </trkpt>
      <trkpt lat="44.91669" lon="0.81157">
        <ele>138.8</ele>
        <time>2025-05-10T10:06:59Z</time>
      </trkpt>
      <trkpt lat="44.91665" lon="0.81149">
        <ele>138.6</ele>
        <time>2025-05-10T10:07:00Z</time>
      </trkpt>
      <trkpt lat="44.91661" lon="0.81141">
        <ele>138.2</ele>
        <time>2025-05-10T10:07:01Z</time>
      </trkpt>
      <trkpt lat="44.91657" lon="0.81133">
        <ele>137.6</ele>
        <time>2025-05-10T10:07:02Z</time>
      </trkpt>
      <trkpt lat="44.91653" lon="0.81125">
        <ele>137.4</ele>
        <time>2025-05-10T10:07:03Z</time>
      </trkpt>
      <trkpt lat="44.91648" lon="0.81116">
        <ele>136.8</ele>
        <time>2025-05-10T10:07:04Z</time>
      </trkpt>
      <trkpt lat="44.91642" lon="0.81108">
        <ele>135.8</ele>
        <time>2025-05-10T10:07:05Z</time>
      </trkpt>
      <trkpt lat="44.91636" lon="0.811">
        <ele>134.8</ele>
        <time>2025-05-10T10:07:06Z</time>
      </trkpt>
      <trkpt lat="44.91631" lon="0.81092">
        <ele>134.4</ele>
        <time>2025-05-10T10:07:07Z</time>
      </trkpt>
      <trkpt lat="44.91626" lon="0.81084">
        <ele>133.6</ele>
        <time>2025-05-10T10:07:08Z</time>
      </trkpt>
      <trkpt lat="44.91621" lon="0.81076">
        <ele>133.4</ele>
        <time>2025-05-10T10:07:09Z</time>
      </trkpt>
      <trkpt lat="44.91617" lon="0.81067">
        <ele>133</ele>
        <time>2025-05-10T10:07:10Z</time>
      </trkpt>
      <trkpt lat="44.91613" lon="0.81059">
        <ele>133</ele>
        <time>2025-05-10T10:07:11Z</time>
      </trkpt>
      <trkpt lat="44.91609" lon="0.81051">
        <ele>133</ele>
        <time>2025-05-10T10:07:12Z</time>
      </trkpt>
      <trkpt lat="44.91605" lon="0.81043">
        <ele>133</ele>
        <time>2025-05-10T10:07:13Z</time>
      </trkpt>
      <trkpt lat="44.91601" lon="0.81035">
        <ele>133</ele>
        <time>2025-05-10T10:07:14Z</time>
      </trkpt>
      <trkpt lat="44.91597" lon="0.81027">
        <ele>133.4</ele>
        <time>2025-05-10T10:07:15Z</time>
      </trkpt>
      <trkpt lat="44.91594" lon="0.8102">
        <ele>133.6</ele>
        <time>2025-05-10T10:07:16Z</time>
      </trkpt>
      <trkpt lat="44.9159" lon="0.81013">
        <ele>133.8</ele>
        <time>2025-05-10T10:07:17Z</time>
      </trkpt>
      <trkpt lat="44.91586" lon="0.81006">
        <ele>134</ele>
        <time>2025-05-10T10:07:18Z</time>
      </trkpt>
      <trkpt lat="44.91583" lon="0.81">
        <ele>134</ele>
        <time>2025-05-10T10:07:19Z</time>
      </trkpt>
      <trkpt lat="44.91578" lon="0.80994">
        <ele>134.2</ele>
        <time>2025-05-10T10:07:20Z</time>
      </trkpt>
      <trkpt lat="44.91574" lon="0.80987">
        <ele>134.2</ele>
        <time>2025-05-10T10:07:21Z</time>
      </trkpt>
      <trkpt lat="44.9157" lon="0.8098">
        <ele>134.2</ele>
        <time>2025-05-10T10:07:22Z</time>
      </trkpt>
      <trkpt lat="44.91565" lon="0.80972">
        <ele>134.2</ele>
        <time>2025-05-10T10:07:23Z</time>
      </trkpt>
      <trkpt lat="44.9156" lon="0.80964">
        <ele>134.2</ele>
        <time>2025-05-10T10:07:24Z</time>
      </trkpt>
      <trkpt lat="44.91556" lon="0.80956">
        <ele>134</ele>
        <time>2025-05-10T10:07:25Z</time>
      </trkpt>
      <trkpt lat="44.9155" lon="0.80947">
        <ele>133</ele>
        <time>2025-05-10T10:07:26Z</time>
      </trkpt>
      <trkpt lat="44.91544" lon="0.8094">
        <ele>132.6</ele>
        <time>2025-05-10T10:07:27Z</time>
      </trkpt>
      <trkpt lat="44.91537" lon="0.80933">
        <ele>132.4</ele>
        <time>2025-05-10T10:07:28Z</time>
      </trkpt>
      <trkpt lat="44.9153" lon="0.80928">
        <ele>132.2</ele>
        <time>2025-05-10T10:07:29Z</time>
      </trkpt>
      <trkpt lat="44.91523" lon="0.80922">
        <ele>131.8</ele>
        <time>2025-05-10T10:07:30Z</time>
      </trkpt>
      <trkpt lat="44.91515" lon="0.80916">
        <ele>131.4</ele>
        <time>2025-05-10T10:07:31Z</time>
      </trkpt>
      <trkpt lat="44.91508" lon="0.80911">
        <ele>130.4</ele>
        <time>2025-05-10T10:07:32Z</time>
      </trkpt>
      <trkpt lat="44.91501" lon="0.80906">
        <ele>129.2</ele>
        <time>2025-05-10T10:07:33Z</time>
      </trkpt>
      <trkpt lat="44.91493" lon="0.80901">
        <ele>128.4</ele>
        <time>2025-05-10T10:07:34Z</time>
      </trkpt>
      <trkpt lat="44.91486" lon="0.80897">
        <ele>128.4</ele>
        <time>2025-05-10T10:07:35Z</time>
      </trkpt>
      <trkpt lat="44.91479" lon="0.80892">
        <ele>128.2</ele>
        <time>2025-05-10T10:07:36Z</time>
      </trkpt>
      <trkpt lat="44.91472" lon="0.80887">
        <ele>128.2</ele>
        <time>2025-05-10T10:07:37Z</time>
      </trkpt>
      <trkpt lat="44.91465" lon="0.80882">
        <ele>128.2</ele>
        <time>2025-05-10T10:07:38Z</time>
      </trkpt>
      <trkpt lat="44.91458" lon="0.80877">
        <ele>128.2</ele>
        <time>2025-05-10T10:07:39Z</time>
      </trkpt>
      <trkpt lat="44.9145" lon="0.80872">
        <ele>128.2</ele>
        <time>2025-05-10T10:07:40Z</time>
      </trkpt>
      <trkpt lat="44.91443" lon="0.80866">
        <ele>128.2</ele>
        <time>2025-05-10T10:07:41Z</time>
      </trkpt>
      <trkpt lat="44.91435" lon="0.8086">
        <ele>128</ele>
        <time>2025-05-10T10:07:42Z</time>
      </trkpt>
      <trkpt lat="44.91427" lon="0.80855">
        <ele>127.6</ele>
        <time>2025-05-10T10:07:43Z</time>
      </trkpt>
      <trkpt lat="44.91418" lon="0.80849">
        <ele>126.8</ele>
        <time>2025-05-10T10:07:44Z</time>
      </trkpt>
      <trkpt lat="44.9141" lon="0.80845">
        <ele>125.6</ele>
        <time>2025-05-10T10:07:45Z</time>
      </trkpt>
      <trkpt lat="44.91401" lon="0.80841">
        <ele>124.6</ele>
        <time>2025-05-10T10:07:46Z</time>
      </trkpt>
      <trkpt lat="44.91393" lon="0.80836">
        <ele>124</ele>
        <time>2025-05-10T10:07:47Z</time>
      </trkpt>
      <trkpt lat="44.91385" lon="0.80833">
        <ele>123</ele>
        <time>2025-05-10T10:07:48Z</time>
      </trkpt>
      <trkpt lat="44.91376" lon="0.8083">
        <ele>122.8</ele>
        <time>2025-05-10T10:07:49Z</time>
      </trkpt>
      <trkpt lat="44.91368" lon="0.80827">
        <ele>122.4</ele>
        <time>2025-05-10T10:07:50Z</time>
      </trkpt>
      <trkpt lat="44.9136" lon="0.80826">
        <ele>121.8</ele>
        <time>2025-05-10T10:07:51Z</time>
      </trkpt>
      <trkpt lat="44.91352" lon="0.80826">
        <ele>121.4</ele>
        <time>2025-05-10T10:07:52Z</time>
      </trkpt>
      <trkpt lat="44.91344" lon="0.80826">
        <ele>121</ele>
        <time>2025-05-10T10:07:53Z</time>
      </trkpt>
      <trkpt lat="44.91335" lon="0.80826">
        <ele>120.4</ele>
        <time>2025-05-10T10:07:54Z</time>
      </trkpt>
      <trkpt lat="44.91328" lon="0.80827">
        <ele>120.2</ele>
        <time>2025-05-10T10:07:55Z</time>
      </trkpt>
      <trkpt lat="44.91321" lon="0.80827">
        <ele>120</ele>
        <time>2025-05-10T10:07:56Z</time>
      </trkpt>
      <trkpt lat="44.91314" lon="0.80829">
        <ele>119.6</ele>
        <time>2025-05-10T10:07:57Z</time>
      </trkpt>
      <trkpt lat="44.91306" lon="0.80829">
        <ele>119.2</ele>
        <time>2025-05-10T10:07:58Z</time>
      </trkpt>
      <trkpt lat="44.91298" lon="0.8083">
        <ele>118.8</ele>
        <time>2025-05-10T10:07:59Z</time>
      </trkpt>
      <trkpt lat="44.91289" lon="0.80828">
        <ele>118.4</ele>
        <time>2025-05-10T10:08:00Z</time>
      </trkpt>
      <trkpt lat="44.91279" lon="0.80826">
        <ele>117.6</ele>
        <time>2025-05-10T10:08:01Z</time>
      </trkpt>
      <trkpt lat="44.91271" lon="0.80823">
        <ele>116.6</ele>
        <time>2025-05-10T10:08:02Z</time>
      </trkpt>
      <trkpt lat="44.91262" lon="0.8082">
        <ele>116</ele>
        <time>2025-05-10T10:08:03Z</time>
      </trkpt>
      <trkpt lat="44.91254" lon="0.80817">
        <ele>114.8</ele>
        <time>2025-05-10T10:08:04Z</time>
      </trkpt>
      <trkpt lat="44.91246" lon="0.80816">
        <ele>113.4</ele>
        <time>2025-05-10T10:08:05Z</time>
      </trkpt>
      <trkpt lat="44.91239" lon="0.80814">
        <ele>113</ele>
        <time>2025-05-10T10:08:06Z</time>
      </trkpt>
      <trkpt lat="44.91232" lon="0.80812">
        <ele>112.4</ele>
        <time>2025-05-10T10:08:07Z</time>
      </trkpt>
      <trkpt lat="44.91227" lon="0.80808">
        <ele>112.2</ele>
        <time>2025-05-10T10:08:08Z</time>
      </trkpt>
      <trkpt lat="44.91224" lon="0.80802">
        <ele>111.6</ele>
        <time>2025-05-10T10:08:09Z</time>
      </trkpt>
      <trkpt lat="44.91225" lon="0.80796">
        <ele>111</ele>
        <time>2025-05-10T10:08:10Z</time>
      </trkpt>
      <trkpt lat="44.91227" lon="0.80791">
        <ele>110.6</ele>
        <time>2025-05-10T10:08:11Z</time>
      </trkpt>
      <trkpt lat="44.91228" lon="0.80784">
        <ele>110.6</ele>
        <time>2025-05-10T10:08:12Z</time>
      </trkpt>
      <trkpt lat="44.91231" lon="0.80778">
        <ele>110.4</ele>
        <time>2025-05-10T10:08:13Z</time>
      </trkpt>
      <trkpt lat="44.91232" lon="0.8077">
        <ele>110.2</ele>
        <time>2025-05-10T10:08:14Z</time>
      </trkpt>
      <trkpt lat="44.91235" lon="0.80762">
        <ele>110</ele>
        <time>2025-05-10T10:08:15Z</time>
      </trkpt>
      <trkpt lat="44.91237" lon="0.80753">
        <ele>109.6</ele>
        <time>2025-05-10T10:08:16Z</time>
      </trkpt>
      <trkpt lat="44.9124" lon="0.80744">
        <ele>109</ele>
        <time>2025-05-10T10:08:17Z</time>
      </trkpt>
      <trkpt lat="44.91243" lon="0.80734">
        <ele>108.6</ele>
        <time>2025-05-10T10:08:18Z</time>
      </trkpt>
      <trkpt lat="44.91242" lon="0.80725">
        <ele>107.8</ele>
        <time>2025-05-10T10:08:19Z</time>
      </trkpt>
      <trkpt lat="44.9124" lon="0.80715">
        <ele>106.8</ele>
        <time>2025-05-10T10:08:20Z</time>
      </trkpt>
      <trkpt lat="44.91237" lon="0.80707">
        <ele>106.4</ele>
        <time>2025-05-10T10:08:21Z</time>
      </trkpt>
      <trkpt lat="44.91234" lon="0.80698">
        <ele>106.2</ele>
        <time>2025-05-10T10:08:22Z</time>
      </trkpt>
      <trkpt lat="44.91231" lon="0.8069">
        <ele>105.4</ele>
        <time>2025-05-10T10:08:23Z</time>
      </trkpt>
      <trkpt lat="44.91228" lon="0.80682">
        <ele>105</ele>
        <time>2025-05-10T10:08:24Z</time>
      </trkpt>
      <trkpt lat="44.91227" lon="0.80673">
        <ele>104.8</ele>
        <time>2025-05-10T10:08:25Z</time>
      </trkpt>
      <trkpt lat="44.91225" lon="0.80664">
        <ele>104.6</ele>
        <time>2025-05-10T10:08:26Z</time>
      </trkpt>
      <trkpt lat="44.91224" lon="0.80656">
        <ele>104.6</ele>
        <time>2025-05-10T10:08:27Z</time>
      </trkpt>
      <trkpt lat="44.91223" lon="0.80648">
        <ele>104.6</ele>
        <time>2025-05-10T10:08:28Z</time>
      </trkpt>
      <trkpt lat="44.91222" lon="0.8064">
        <ele>104.6</ele>
        <time>2025-05-10T10:08:29Z</time>
      </trkpt>
      <trkpt lat="44.91221" lon="0.80633">
        <ele>104.6</ele>
        <time>2025-05-10T10:08:30Z</time>
      </trkpt>
      <trkpt lat="44.91219" lon="0.80626">
        <ele>104.8</ele>
        <time>2025-05-10T10:08:31Z</time>
      </trkpt>
      <trkpt lat="44.91217" lon="0.80619">
        <ele>104.8</ele>
        <time>2025-05-10T10:08:32Z</time>
      </trkpt>
      <trkpt lat="44.91216" lon="0.80612">
        <ele>105</ele>
        <time>2025-05-10T10:08:33Z</time>
      </trkpt>
      <trkpt lat="44.91214" lon="0.80606">
        <ele>105.2</ele>
        <time>2025-05-10T10:08:34Z</time>
      </trkpt>
      <trkpt lat="44.91213" lon="0.80599">
        <ele>105.4</ele>
        <time>2025-05-10T10:08:35Z</time>
      </trkpt>
      <trkpt lat="44.91211" lon="0.80593">
        <ele>105.6</ele>
        <time>2025-05-10T10:08:36Z</time>
      </trkpt>
      <trkpt lat="44.9121" lon="0.80587">
        <ele>106</ele>
        <time>2025-05-10T10:08:37Z</time>
      </trkpt>
      <trkpt lat="44.91209" lon="0.80581">
        <ele>106</ele>
        <time>2025-05-10T10:08:38Z</time>
      </trkpt>
      <trkpt lat="44.91207" lon="0.80575">
        <ele>106.4</ele>
        <time>2025-05-10T10:08:39Z</time>
      </trkpt>
      <trkpt lat="44.91206" lon="0.80569">
        <ele>106.6</ele>
        <time>2025-05-10T10:08:40Z</time>
      </trkpt>
      <trkpt lat="44.91205" lon="0.80563">
        <ele>106.6</ele>
        <time>2025-05-10T10:08:41Z</time>
      </trkpt>
      <trkpt lat="44.91205" lon="0.80557">
        <ele>106.8</ele>
        <time>2025-05-10T10:08:42Z</time>
      </trkpt>
      <trkpt lat="44.91204" lon="0.80551">
        <ele>107</ele>
        <time>2025-05-10T10:08:43Z</time>
      </trkpt>
      <trkpt lat="44.91204" lon="0.80546">
        <ele>107</ele>
        <time>2025-05-10T10:08:44Z</time>
      </trkpt>
      <trkpt lat="44.91203" lon="0.8054">
        <ele>107.2</ele>
        <time>2025-05-10T10:08:45Z</time>
      </trkpt>
      <trkpt lat="44.91203" lon="0.80535">
        <ele>107.4</ele>
        <time>2025-05-10T10:08:46Z</time>
      </trkpt>
      <trkpt lat="44.91202" lon="0.80529">
        <ele>107.6</ele>
        <time>2025-05-10T10:08:47Z</time>
      </trkpt>
      <trkpt lat="44.91202" lon="0.80523">
        <ele>107.8</ele>
        <time>2025-05-10T10:08:48Z</time>
      </trkpt>
      <trkpt lat="44.91201" lon="0.80519">
        <ele>108</ele>
        <time>2025-05-10T10:08:49Z</time>
      </trkpt>
      <trkpt lat="44.91201" lon="0.80514">
        <ele>108.4</ele>
        <time>2025-05-10T10:08:50Z</time>
      </trkpt>
      <trkpt lat="44.91201" lon="0.80509">
        <ele>108.4</ele>
        <time>2025-05-10T10:08:51Z</time>
      </trkpt>
      <trkpt lat="44.91202" lon="0.80505">
        <ele>108.6</ele>
        <time>2025-05-10T10:08:52Z</time>
      </trkpt>
      <trkpt lat="44.91203" lon="0.80502">
        <ele>108.8</ele>
        <time>2025-05-10T10:08:53Z</time>
      </trkpt>
      <trkpt lat="44.91205" lon="0.80498">
        <ele>109.2</ele>
        <time>2025-05-10T10:08:54Z</time>
      </trkpt>
      <trkpt lat="44.91206" lon="0.80496">
        <ele>109.4</ele>
        <time>2025-05-10T10:08:55Z</time>
      </trkpt>
      <trkpt lat="44.91208" lon="0.80494">
        <ele>109.6</ele>
        <time>2025-05-10T10:08:56Z</time>
      </trkpt>
      <trkpt lat="44.91209" lon="0.80491">
        <ele>110</ele>
        <time>2025-05-10T10:08:57Z</time>
      </trkpt>
      <trkpt lat="44.9121" lon="0.80489">
        <ele>110.4</ele>
        <time>2025-05-10T10:08:58Z</time>
      </trkpt>
      <trkpt lat="44.91211" lon="0.80487">
        <ele>110.6</ele>
        <time>2025-05-10T10:08:59Z</time>
      </trkpt>
      <trkpt lat="44.91212" lon="0.80485">
        <ele>111</ele>
        <time>2025-05-10T10:09:00Z</time>
      </trkpt>
      <trkpt lat="44.91213" lon="0.80483">
        <ele>111.2</ele>
        <time>2025-05-10T10:09:01Z</time>
      </trkpt>
      <trkpt lat="44.91214" lon="0.80481">
        <ele>111.4</ele>
        <time>2025-05-10T10:09:02Z</time>
      </trkpt>
      <trkpt lat="44.91216" lon="0.80479">
        <ele>111.6</ele>
        <time>2025-05-10T10:09:03Z</time>
      </trkpt>
      <trkpt lat="44.91217" lon="0.80477">
        <ele>111.8</ele>
        <time>2025-05-10T10:09:04Z</time>
      </trkpt>
      <trkpt lat="44.91219" lon="0.80474">
        <ele>111.8</ele>
        <time>2025-05-10T10:09:05Z</time>
      </trkpt>
      <trkpt lat="44.91219" lon="0.8047">
        <ele>112</ele>
        <time>2025-05-10T10:09:06Z</time>
      </trkpt>
      <trkpt lat="44.9122" lon="0.80467">
        <ele>112</ele>
        <time>2025-05-10T10:09:07Z</time>
      </trkpt>
      <trkpt lat="44.9122" lon="0.80463">
        <ele>112.2</ele>
        <time>2025-05-10T10:09:08Z</time>
      </trkpt>
      <trkpt lat="44.91221" lon="0.80459">
        <ele>112.2</ele>
        <time>2025-05-10T10:09:09Z</time>
      </trkpt>
      <trkpt lat="44.91222" lon="0.80456">
        <ele>112.2</ele>
        <time>2025-05-10T10:09:10Z</time>
      </trkpt>
      <trkpt lat="44.91223" lon="0.80453">
        <ele>112.2</ele>
        <time>2025-05-10T10:09:11Z</time>
      </trkpt>
      <trkpt lat="44.91224" lon="0.8045">
        <ele>112.2</ele>
        <time>2025-05-10T10:09:12Z</time>
      </trkpt>
      <trkpt lat="44.91225" lon="0.80447">
        <ele>112.2</ele>
        <time>2025-05-10T10:09:13Z</time>
      </trkpt>
      <trkpt lat="44.91226" lon="0.80444">
        <ele>112.4</ele>
        <time>2025-05-10T10:09:14Z</time>
      </trkpt>
      <trkpt lat="44.91227" lon="0.80441">
        <ele>112.6</ele>
        <time>2025-05-10T10:09:15Z</time>
      </trkpt>
      <trkpt lat="44.91228" lon="0.80437">
        <ele>112.8</ele>
        <time>2025-05-10T10:09:16Z</time>
      </trkpt>
      <trkpt lat="44.91229" lon="0.80434">
        <ele>113</ele>
        <time>2025-05-10T10:09:17Z</time>
      </trkpt>
      <trkpt lat="44.9123" lon="0.8043">
        <ele>113.2</ele>
        <time>2025-05-10T10:09:18Z</time>
      </trkpt>
      <trkpt lat="44.91231" lon="0.80427">
        <ele>113.2</ele>
        <time>2025-05-10T10:09:19Z</time>
      </trkpt>
      <trkpt lat="44.91232" lon="0.80423">
        <ele>113.2</ele>
        <time>2025-05-10T10:09:20Z</time>
      </trkpt>
      <trkpt lat="44.91233" lon="0.8042">
        <ele>113.4</ele>
        <time>2025-05-10T10:09:21Z</time>
      </trkpt>
      <trkpt lat="44.91233" lon="0.80417">
        <ele>113.4</ele>
        <time>2025-05-10T10:09:22Z</time>
      </trkpt>
      <trkpt lat="44.91234" lon="0.80413">
        <ele>113.4</ele>
        <time>2025-05-10T10:09:23Z</time>
      </trkpt>
      <trkpt lat="44.91235" lon="0.80411">
        <ele>113.4</ele>
        <time>2025-05-10T10:09:24Z</time>
      </trkpt>
      <trkpt lat="44.91235" lon="0.80408">
        <ele>113.6</ele>
        <time>2025-05-10T10:09:25Z</time>
      </trkpt>
      <trkpt lat="44.91236" lon="0.80405">
        <ele>114</ele>
        <time>2025-05-10T10:09:26Z</time>
      </trkpt>
      <trkpt lat="44.91236" lon="0.80401">
        <ele>114.2</ele>
        <time>2025-05-10T10:09:27Z</time>
      </trkpt>
      <trkpt lat="44.91237" lon="0.80398">
        <ele>114.4</ele>
        <time>2025-05-10T10:09:28Z</time>
      </trkpt>
      <trkpt lat="44.91238" lon="0.80394">
        <ele>114.6</ele>
        <time>2025-05-10T10:09:29Z</time>
      </trkpt>
      <trkpt lat="44.91239" lon="0.80391">
        <ele>114.8</ele>
        <time>2025-05-10T10:09:30Z</time>
      </trkpt>
      <trkpt lat="44.9124" lon="0.80388">
        <ele>115</ele>
        <time>2025-05-10T10:09:31Z</time>
      </trkpt>
      <trkpt lat="44.91242" lon="0.80385">
        <ele>115.2</ele>
        <time>2025-05-10T10:09:32Z</time>
      </trkpt>
      <trkpt lat="44.91243" lon="0.80382">
        <ele>115.2</ele>
        <time>2025-05-10T10:09:33Z</time>
      </trkpt>
      <trkpt lat="44.91244" lon="0.80379">
        <ele>115.4</ele>
        <time>2025-05-10T10:09:34Z</time>
      </trkpt>
      <trkpt lat="44.91245" lon="0.80376">
        <ele>115.6</ele>
        <time>2025-05-10T10:09:35Z</time>
      </trkpt>
      <trkpt lat="44.91246" lon="0.80372">
        <ele>115.8</ele>
        <time>2025-05-10T10:09:36Z</time>
      </trkpt>
      <trkpt lat="44.91246" lon="0.80369">
        <ele>116</ele>
        <time>2025-05-10T10:09:37Z</time>
      </trkpt>
      <trkpt lat="44.91247" lon="0.80366">
        <ele>116.2</ele>
        <time>2025-05-10T10:09:38Z</time>
      </trkpt>
      <trkpt lat="44.91247" lon="0.80364">
        <ele>116.4</ele>
        <time>2025-05-10T10:09:39Z</time>
      </trkpt>
      <trkpt lat="44.91248" lon="0.80361">
        <ele>116.6</ele>
        <time>2025-05-10T10:09:40Z</time>
      </trkpt>
      <trkpt lat="44.91248" lon="0.80359">
        <ele>117</ele>
        <time>2025-05-10T10:09:41Z</time>
      </trkpt>
      <trkpt lat="44.91249" lon="0.80356">
        <ele>117.2</ele>
        <time>2025-05-10T10:09:42Z</time>
      </trkpt>
      <trkpt lat="44.9125" lon="0.80353">
        <ele>117.6</ele>
        <time>2025-05-10T10:09:43Z</time>
      </trkpt>
      <trkpt lat="44.91251" lon="0.80351">
        <ele>117.8</ele>
        <time>2025-05-10T10:09:44Z</time>
      </trkpt>
      <trkpt lat="44.91251" lon="0.80349">
        <ele>118</ele>
        <time>2025-05-10T10:09:45Z</time>
      </trkpt>
      <trkpt lat="44.91252" lon="0.80347">
        <ele>118.2</ele>
        <time>2025-05-10T10:09:46Z</time>
      </trkpt>
      <trkpt lat="44.91253" lon="0.80345">
        <ele>118.4</ele>
        <time>2025-05-10T10:09:47Z</time>
      </trkpt>
      <trkpt lat="44.91254" lon="0.80343">
        <ele>118.6</ele>
        <time>2025-05-10T10:09:48Z</time>
      </trkpt>
      <trkpt lat="44.91254" lon="0.8034">
        <ele>118.8</ele>
        <time>2025-05-10T10:09:49Z</time>
      </trkpt>
      <trkpt lat="44.91255" lon="0.80337">
        <ele>119</ele>
        <time>2025-05-10T10:09:50Z</time>
      </trkpt>
      <trkpt lat="44.91255" lon="0.80335">
        <ele>119.4</ele>
        <time>2025-05-10T10:09:51Z</time>
      </trkpt>
      <trkpt lat="44.91256" lon="0.80332">
        <ele>119.6</ele>
        <time>2025-05-10T10:09:52Z</time>
      </trkpt>
      <trkpt lat="44.91256" lon="0.8033">
        <ele>119.8</ele>
        <time>2025-05-10T10:09:53Z</time>
      </trkpt>
      <trkpt lat="44.91257" lon="0.80327">
        <ele>120</ele>
        <time>2025-05-10T10:09:54Z</time>
      </trkpt>
      <trkpt lat="44.91257" lon="0.80325">
        <ele>120.2</ele>
        <time>2025-05-10T10:09:55Z</time>
      </trkpt>
      <trkpt lat="44.91257" lon="0.80323">
        <ele>120.4</ele>
        <time>2025-05-10T10:09:56Z</time>
      </trkpt>
      <trkpt lat="44.91258" lon="0.8032">
        <ele>120.6</ele>
        <time>2025-05-10T10:09:57Z</time>
      </trkpt>
      <trkpt lat="44.91258" lon="0.80318">
        <ele>120.8</ele>
        <time>2025-05-10T10:09:58Z</time>
      </trkpt>
      <trkpt lat="44.91258" lon="0.80316">
        <ele>121.2</ele>
        <time>2025-05-10T10:09:59Z</time>
      </trkpt>
      <trkpt lat="44.91259" lon="0.80314">
        <ele>121.4</ele>
        <time>2025-05-10T10:10:00Z</time>
      </trkpt>
      <trkpt lat="44.9126" lon="0.80312">
        <ele>121.8</ele>
        <time>2025-05-10T10:10:01Z</time>
      </trkpt>
      <trkpt lat="44.91261" lon="0.8031">
        <ele>122.2</ele>
        <time>2025-05-10T10:10:02Z</time>
      </trkpt>
      <trkpt lat="44.91262" lon="0.80307">
        <ele>122.6</ele>
        <time>2025-05-10T10:10:03Z</time>
      </trkpt>
      <trkpt lat="44.91263" lon="0.80305">
        <ele>122.8</ele>
        <time>2025-05-10T10:10:04Z</time>
      </trkpt>
      <trkpt lat="44.91263" lon="0.80302">
        <ele>123</ele>
        <time>2025-05-10T10:10:05Z</time>
      </trkpt>
      <trkpt lat="44.91264" lon="0.803">
        <ele>123.4</ele>
        <time>2025-05-10T10:10:06Z</time>
      </trkpt>
      <trkpt lat="44.91265" lon="0.80298">
        <ele>123.6</ele>
        <time>2025-05-10T10:10:07Z</time>
      </trkpt>
      <trkpt lat="44.91265" lon="0.80296">
        <ele>123.8</ele>
        <time>2025-05-10T10:10:08Z</time>
      </trkpt>
      <trkpt lat="44.91266" lon="0.80294">
        <ele>124</ele>
        <time>2025-05-10T10:10:09Z</time>
      </trkpt>
      <trkpt lat="44.91267" lon="0.80292">
        <ele>124.4</ele>
        <time>2025-05-10T10:10:10Z</time>
      </trkpt>
      <trkpt lat="44.91268" lon="0.8029">
        <ele>124.6</ele>
        <time>2025-05-10T10:10:11Z</time>
      </trkpt>
      <trkpt lat="44.91268" lon="0.80288">
        <ele>124.8</ele>
        <time>2025-05-10T10:10:12Z</time>
      </trkpt>
      <trkpt lat="44.91269" lon="0.80285">
        <ele>125</ele>
        <time>2025-05-10T10:10:13Z</time>
      </trkpt>
      <trkpt lat="44.91269" lon="0.80283">
        <ele>125.4</ele>
        <time>2025-05-10T10:10:14Z</time>
      </trkpt>
      <trkpt lat="44.9127" lon="0.80281">
        <ele>125.4</ele>
        <time>2025-05-10T10:10:15Z</time>
      </trkpt>
      <trkpt lat="44.9127" lon="0.80279">
        <ele>125.6</ele>
        <time>2025-05-10T10:10:16Z</time>
      </trkpt>
      <trkpt lat="44.91271" lon="0.80277">
        <ele>125.8</ele>
        <time>2025-05-10T10:10:17Z</time>
      </trkpt>
      <trkpt lat="44.91272" lon="0.80275">
        <ele>125.8</ele>
        <time>2025-05-10T10:10:18Z</time>
      </trkpt>
      <trkpt lat="44.91273" lon="0.80273">
        <ele>126.2</ele>
        <time>2025-05-10T10:10:19Z</time>
      </trkpt>
      <trkpt lat="44.91274" lon="0.80271">
        <ele>126.4</ele>
        <time>2025-05-10T10:10:20Z</time>
      </trkpt>
      <trkpt lat="44.91274" lon="0.80269">
        <ele>126.6</ele>
        <time>2025-05-10T10:10:21Z</time>
      </trkpt>
      <trkpt lat="44.91275" lon="0.80267">
        <ele>126.8</ele>
        <time>2025-05-10T10:10:22Z</time>
      </trkpt>
      <trkpt lat="44.91275" lon="0.80265">
        <ele>127</ele>
        <time>2025-05-10T10:10:23Z</time>
      </trkpt>
      <trkpt lat="44.91276" lon="0.80263">
        <ele>127</ele>
        <time>2025-05-10T10:10:24Z</time>
      </trkpt>
      <trkpt lat="44.91276" lon="0.80261">
        <ele>127.2</ele>
        <time>2025-05-10T10:10:25Z</time>
      </trkpt>
      <trkpt lat="44.91277" lon="0.80259">
        <ele>127.4</ele>
        <time>2025-05-10T10:10:26Z</time>
      </trkpt>
      <trkpt lat="44.91277" lon="0.80257">
        <ele>127.4</ele>
        <time>2025-05-10T10:10:27Z</time>
      </trkpt>
      <trkpt lat="44.91278" lon="0.80255">
        <ele>127.6</ele>
        <time>2025-05-10T10:10:28Z</time>
      </trkpt>
      <trkpt lat="44.91278" lon="0.80253">
        <ele>127.8</ele>
        <time>2025-05-10T10:10:29Z</time>
      </trkpt>
      <trkpt lat="44.91279" lon="0.80251">
        <ele>128</ele>
        <time>2025-05-10T10:10:30Z</time>
      </trkpt>
      <trkpt lat="44.91279" lon="0.80249">
        <ele>128.4</ele>
        <time>2025-05-10T10:10:31Z</time>
      </trkpt>
      <trkpt lat="44.91279" lon="0.80247">
        <ele>128.4</ele>
        <time>2025-05-10T10:10:32Z</time>
      </trkpt>
      <trkpt lat="44.91279" lon="0.80246">
        <ele>128.6</ele>
        <time>2025-05-10T10:10:33Z</time>
      </trkpt>
      <trkpt lat="44.91279" lon="0.80244">
        <ele>128.8</ele>
        <time>2025-05-10T10:10:34Z</time>
      </trkpt>
      <trkpt lat="44.91279" lon="0.80242">
        <ele>129</ele>
        <time>2025-05-10T10:10:35Z</time>
      </trkpt>
      <trkpt lat="44.91279" lon="0.80241">
        <ele>129.4</ele>
        <time>2025-05-10T10:10:36Z</time>
      </trkpt>
      <trkpt lat="44.91279" lon="0.80239">
        <ele>129.6</ele>
        <time>2025-05-10T10:10:37Z</time>
      </trkpt>
      <trkpt lat="44.9128" lon="0.80238">
        <ele>129.8</ele>
        <time>2025-05-10T10:10:38Z</time>
      </trkpt>
      <trkpt lat="44.9128" lon="0.80236">
        <ele>130</ele>
        <time>2025-05-10T10:10:39Z</time>
      </trkpt>
      <trkpt lat="44.9128" lon="0.80235">
        <ele>130.2</ele>
        <time>2025-05-10T10:10:40Z</time>
      </trkpt>
      <trkpt lat="44.9128" lon="0.80233">
        <ele>130.2</ele>
        <time>2025-05-10T10:10:41Z</time>
      </trkpt>
      <trkpt lat="44.9128" lon="0.80231">
        <ele>130.4</ele>
        <time>2025-05-10T10:10:42Z</time>
      </trkpt>
      <trkpt lat="44.9128" lon="0.80229">
        <ele>130.6</ele>
        <time>2025-05-10T10:10:43Z</time>
      </trkpt>
      <trkpt lat="44.91281" lon="0.80228">
        <ele>130.8</ele>
        <time>2025-05-10T10:10:44Z</time>
      </trkpt>
      <trkpt lat="44.91281" lon="0.80226">
        <ele>130.8</ele>
        <time>2025-05-10T10:10:45Z</time>
      </trkpt>
      <trkpt lat="44.91281" lon="0.80225">
        <ele>131</ele>
        <time>2025-05-10T10:10:46Z</time>
      </trkpt>
      <trkpt lat="44.91281" lon="0.80223">
        <ele>131.4</ele>
        <time>2025-05-10T10:10:47Z</time>
      </trkpt>
      <trkpt lat="44.91282" lon="0.80221">
        <ele>131.6</ele>
        <time>2025-05-10T10:10:48Z</time>
      </trkpt>
      <trkpt lat="44.91282" lon="0.80219">
        <ele>131.8</ele>
        <time>2025-05-10T10:10:49Z</time>
      </trkpt>
      <trkpt lat="44.91283" lon="0.80218">
        <ele>132.2</ele>
        <time>2025-05-10T10:10:50Z</time>
      </trkpt>
      <trkpt lat="44.91283" lon="0.80216">
        <ele>132.6</ele>
        <time>2025-05-10T10:10:51Z</time>
      </trkpt>
      <trkpt lat="44.91283" lon="0.80214">
        <ele>132.8</ele>
        <time>2025-05-10T10:10:52Z</time>
      </trkpt>
      <trkpt lat="44.91284" lon="0.80213">
        <ele>133</ele>
        <time>2025-05-10T10:10:53Z</time>
      </trkpt>
      <trkpt lat="44.91284" lon="0.80212">
        <ele>133.4</ele>
        <time>2025-05-10T10:10:54Z</time>
      </trkpt>
      <trkpt lat="44.91285" lon="0.8021">
        <ele>133.4</ele>
        <time>2025-05-10T10:10:55Z</time>
      </trkpt>
      <trkpt lat="44.91285" lon="0.80209">
        <ele>133.8</ele>
        <time>2025-05-10T10:10:56Z</time>
      </trkpt>
      <trkpt lat="44.91285" lon="0.80207">
        <ele>134.2</ele>
        <time>2025-05-10T10:10:57Z</time>
      </trkpt>
      <trkpt lat="44.91285" lon="0.80206">
        <ele>134.4</ele>
        <time>2025-05-10T10:10:58Z</time>
      </trkpt>
      <trkpt lat="44.91286" lon="0.80204">
        <ele>134.6</ele>
        <time>2025-05-10T10:10:59Z</time>
      </trkpt>
      <trkpt lat="44.91286" lon="0.80203">
        <ele>134.8</ele>
        <time>2025-05-10T10:11:00Z</time>
      </trkpt>
      <trkpt lat="44.91287" lon="0.80201">
        <ele>135</ele>
        <time>2025-05-10T10:11:01Z</time>
      </trkpt>
      <trkpt lat="44.91287" lon="0.802">
        <ele>135.4</ele>
        <time>2025-05-10T10:11:02Z</time>
      </trkpt>
      <trkpt lat="44.91287" lon="0.80198">
        <ele>135.6</ele>
        <time>2025-05-10T10:11:03Z</time>
      </trkpt>
      <trkpt lat="44.91287" lon="0.80197">
        <ele>135.8</ele>
        <time>2025-05-10T10:11:04Z</time>
      </trkpt>
      <trkpt lat="44.91288" lon="0.80195">
        <ele>136</ele>
        <time>2025-05-10T10:11:05Z</time>
      </trkpt>
      <trkpt lat="44.91288" lon="0.80193">
        <ele>136.2</ele>
        <time>2025-05-10T10:11:06Z</time>
      </trkpt>
      <trkpt lat="44.91289" lon="0.80192">
        <ele>136.4</ele>
        <time>2025-05-10T10:11:07Z</time>
      </trkpt>
      <trkpt lat="44.91289" lon="0.8019">
        <ele>136.6</ele>
        <time>2025-05-10T10:11:08Z</time>
      </trkpt>
      <trkpt lat="44.91289" lon="0.80189">
        <ele>136.8</ele>
        <time>2025-05-10T10:11:09Z</time>
      </trkpt>
      <trkpt lat="44.91289" lon="0.80187">
        <ele>137</ele>
        <time>2025-05-10T10:11:10Z</time>
      </trkpt>
      <trkpt lat="44.91289" lon="0.80186">
        <ele>137.2</ele>
        <time>2025-05-10T10:11:11Z</time>
      </trkpt>
      <trkpt lat="44.9129" lon="0.80184">
        <ele>137.4</ele>
        <time>2025-05-10T10:11:12Z</time>
      </trkpt>
      <trkpt lat="44.9129" lon="0.80183">
        <ele>137.6</ele>
        <time>2025-05-10T10:11:13Z</time>
      </trkpt>
      <trkpt lat="44.9129" lon="0.80181">
        <ele>137.8</ele>
        <time>2025-05-10T10:11:14Z</time>
      </trkpt>
      <trkpt lat="44.91291" lon="0.80179">
        <ele>138</ele>
        <time>2025-05-10T10:11:15Z</time>
      </trkpt>
      <trkpt lat="44.91291" lon="0.80177">
        <ele>138.2</ele>
        <time>2025-05-10T10:11:16Z</time>
      </trkpt>
      <trkpt lat="44.91291" lon="0.80175">
        <ele>138.2</ele>
        <time>2025-05-10T10:11:17Z</time>
      </trkpt>
      <trkpt lat="44.91292" lon="0.80173">
        <ele>138.4</ele>
        <time>2025-05-10T10:11:18Z</time>
      </trkpt>
      <trkpt lat="44.91292" lon="0.80172">
        <ele>138.8</ele>
        <time>2025-05-10T10:11:19Z</time>
      </trkpt>
      <trkpt lat="44.91293" lon="0.8017">
        <ele>138.8</ele>
        <time>2025-05-10T10:11:20Z</time>
      </trkpt>
      <trkpt lat="44.91293" lon="0.80168">
        <ele>139</ele>
        <time>2025-05-10T10:11:21Z</time>
      </trkpt>
      <trkpt lat="44.91294" lon="0.80167">
        <ele>139.2</ele>
        <time>2025-05-10T10:11:22Z</time>
      </trkpt>
      <trkpt lat="44.91294" lon="0.80166">
        <ele>139.4</ele>
        <time>2025-05-10T10:11:23Z</time>
      </trkpt>
      <trkpt lat="44.91295" lon="0.80164">
        <ele>139.6</ele>
        <time>2025-05-10T10:11:24Z</time>
      </trkpt>
      <trkpt lat="44.91295" lon="0.80162">
        <ele>139.6</ele>
        <time>2025-05-10T10:11:25Z</time>
      </trkpt>
      <trkpt lat="44.91296" lon="0.8016">
        <ele>140</ele>
        <time>2025-05-10T10:11:26Z</time>
      </trkpt>
      <trkpt lat="44.91296" lon="0.80158">
        <ele>140</ele>
        <time>2025-05-10T10:11:27Z</time>
      </trkpt>
      <trkpt lat="44.91297" lon="0.80156">
        <ele>140.2</ele>
        <time>2025-05-10T10:11:28Z</time>
      </trkpt>
      <trkpt lat="44.91297" lon="0.80155">
        <ele>140.4</ele>
        <time>2025-05-10T10:11:29Z</time>
      </trkpt>
      <trkpt lat="44.91298" lon="0.80153">
        <ele>140.6</ele>
        <time>2025-05-10T10:11:30Z</time>
      </trkpt>
      <trkpt lat="44.91299" lon="0.80151">
        <ele>140.8</ele>
        <time>2025-05-10T10:11:31Z</time>
      </trkpt>
      <trkpt lat="44.913" lon="0.80149">
        <ele>141</ele>
        <time>2025-05-10T10:11:32Z</time>
      </trkpt>
      <trkpt lat="44.913" lon="0.80147">
        <ele>141.2</ele>
        <time>2025-05-10T10:11:33Z</time>
      </trkpt>
      <trkpt lat="44.91301" lon="0.80146">
        <ele>141.4</ele>
        <time>2025-05-10T10:11:34Z</time>
      </trkpt>
      <trkpt lat="44.91301" lon="0.80144">
        <ele>141.6</ele>
        <time>2025-05-10T10:11:35Z</time>
      </trkpt>
      <trkpt lat="44.91302" lon="0.80143">
        <ele>141.8</ele>
        <time>2025-05-10T10:11:36Z</time>
      </trkpt>
      <trkpt lat="44.91303" lon="0.80141">
        <ele>142.2</ele>
        <time>2025-05-10T10:11:37Z</time>
      </trkpt>
      <trkpt lat="44.91304" lon="0.80139">
        <ele>142.2</ele>
        <time>2025-05-10T10:11:38Z</time>
      </trkpt>
      <trkpt lat="44.91305" lon="0.80137">
        <ele>142.4</ele>
        <time>2025-05-10T10:11:39Z</time>
      </trkpt>
      <trkpt lat="44.91305" lon="0.80135">
        <ele>142.4</ele>
        <time>2025-05-10T10:11:40Z</time>
      </trkpt>
      <trkpt lat="44.91305" lon="0.80133">
        <ele>142.6</ele>
        <time>2025-05-10T10:11:41Z</time>
      </trkpt>
      <trkpt lat="44.91306" lon="0.80131">
        <ele>142.8</ele>
        <time>2025-05-10T10:11:42Z</time>
      </trkpt>
      <trkpt lat="44.91306" lon="0.80129">
        <ele>143</ele>
        <time>2025-05-10T10:11:43Z</time>
      </trkpt>
      <trkpt lat="44.91307" lon="0.80127">
        <ele>143</ele>
        <time>2025-05-10T10:11:44Z</time>
      </trkpt>
      <trkpt lat="44.91307" lon="0.80125">
        <ele>143.2</ele>
        <time>2025-05-10T10:11:45Z</time>
      </trkpt>
      <trkpt lat="44.91308" lon="0.80123">
        <ele>143.4</ele>
        <time>2025-05-10T10:11:46Z</time>
      </trkpt>
      <trkpt lat="44.91308" lon="0.80122">
        <ele>143.4</ele>
        <time>2025-05-10T10:11:47Z</time>
      </trkpt>
      <trkpt lat="44.91309" lon="0.8012">
        <ele>143.6</ele>
        <time>2025-05-10T10:11:48Z</time>
      </trkpt>
      <trkpt lat="44.91309" lon="0.80118">
        <ele>143.8</ele>
        <time>2025-05-10T10:11:49Z</time>
      </trkpt>
      <trkpt lat="44.91309" lon="0.80115">
        <ele>144</ele>
        <time>2025-05-10T10:11:50Z</time>
      </trkpt>
      <trkpt lat="44.9131" lon="0.80113">
        <ele>144.4</ele>
        <time>2025-05-10T10:11:51Z</time>
      </trkpt>
      <trkpt lat="44.9131" lon="0.80111">
        <ele>144.4</ele>
        <time>2025-05-10T10:11:52Z</time>
      </trkpt>
      <trkpt lat="44.91311" lon="0.80108">
        <ele>144.6</ele>
        <time>2025-05-10T10:11:53Z</time>
      </trkpt>
      <trkpt lat="44.91311" lon="0.80106">
        <ele>144.8</ele>
        <time>2025-05-10T10:11:54Z</time>
      </trkpt>
      <trkpt lat="44.91311" lon="0.80103">
        <ele>145</ele>
        <time>2025-05-10T10:11:55Z</time>
      </trkpt>
      <trkpt lat="44.91311" lon="0.80101">
        <ele>145</ele>
        <time>2025-05-10T10:11:56Z</time>
      </trkpt>
      <trkpt lat="44.91312" lon="0.80099">
        <ele>145.2</ele>
        <time>2025-05-10T10:11:57Z</time>
      </trkpt>
      <trkpt lat="44.91312" lon="0.80096">
        <ele>145.4</ele>
        <time>2025-05-10T10:11:58Z</time>
      </trkpt>
      <trkpt lat="44.91313" lon="0.80094">
        <ele>145.6</ele>
        <time>2025-05-10T10:11:59Z</time>
      </trkpt>
      <trkpt lat="44.91313" lon="0.80092">
        <ele>145.8</ele>
        <time>2025-05-10T10:12:00Z</time>
      </trkpt>
      <trkpt lat="44.91314" lon="0.80089">
        <ele>146</ele>
        <time>2025-05-10T10:12:01Z</time>
      </trkpt>
      <trkpt lat="44.91314" lon="0.80087">
        <ele>146.2</ele>
        <time>2025-05-10T10:12:02Z</time>
      </trkpt>
      <trkpt lat="44.91314" lon="0.80085">
        <ele>146.4</ele>
        <time>2025-05-10T10:12:03Z</time>
      </trkpt>
      <trkpt lat="44.91315" lon="0.80083">
        <ele>146.6</ele>
        <time>2025-05-10T10:12:04Z</time>
      </trkpt>
      <trkpt lat="44.91315" lon="0.8008">
        <ele>147</ele>
        <time>2025-05-10T10:12:05Z</time>
      </trkpt>
      <trkpt lat="44.91316" lon="0.80077">
        <ele>147.2</ele>
        <time>2025-05-10T10:12:06Z</time>
      </trkpt>
      <trkpt lat="44.91316" lon="0.80075">
        <ele>147.4</ele>
        <time>2025-05-10T10:12:07Z</time>
      </trkpt>
      <trkpt lat="44.91316" lon="0.80073">
        <ele>147.4</ele>
        <time>2025-05-10T10:12:08Z</time>
      </trkpt>
      <trkpt lat="44.91316" lon="0.80071">
        <ele>147.6</ele>
        <time>2025-05-10T10:12:09Z</time>
      </trkpt>
      <trkpt lat="44.91317" lon="0.80068">
        <ele>147.8</ele>
        <time>2025-05-10T10:12:10Z</time>
      </trkpt>
      <trkpt lat="44.91317" lon="0.80066">
        <ele>148</ele>
        <time>2025-05-10T10:12:11Z</time>
      </trkpt>
      <trkpt lat="44.91317" lon="0.80064">
        <ele>148.2</ele>
        <time>2025-05-10T10:12:12Z</time>
      </trkpt>
      <trkpt lat="44.91317" lon="0.80062">
        <ele>148.4</ele>
        <time>2025-05-10T10:12:13Z</time>
      </trkpt>
      <trkpt lat="44.91318" lon="0.8006">
        <ele>148.6</ele>
        <time>2025-05-10T10:12:14Z</time>
      </trkpt>
      <trkpt lat="44.91318" lon="0.80058">
        <ele>148.8</ele>
        <time>2025-05-10T10:12:15Z</time>
      </trkpt>
      <trkpt lat="44.91318" lon="0.80055">
        <ele>149</ele>
        <time>2025-05-10T10:12:16Z</time>
      </trkpt>
      <trkpt lat="44.91318" lon="0.80053">
        <ele>149.2</ele>
        <time>2025-05-10T10:12:17Z</time>
      </trkpt>
      <trkpt lat="44.91318" lon="0.80051">
        <ele>149.4</ele>
        <time>2025-05-10T10:12:18Z</time>
      </trkpt>
      <trkpt lat="44.91318" lon="0.80049">
        <ele>149.6</ele>
        <time>2025-05-10T10:12:19Z</time>
      </trkpt>
      <trkpt lat="44.91318" lon="0.80046">
        <ele>149.8</ele>
        <time>2025-05-10T10:12:20Z</time>
      </trkpt>
      <trkpt lat="44.91319" lon="0.80044">
        <ele>150</ele>
        <time>2025-05-10T10:12:21Z</time>
      </trkpt>
      <trkpt lat="44.91319" lon="0.80041">
        <ele>150.2</ele>
        <time>2025-05-10T10:12:22Z</time>
      </trkpt>
      <trkpt lat="44.91319" lon="0.80039">
        <ele>150.2</ele>
        <time>2025-05-10T10:12:23Z</time>
      </trkpt>
      <trkpt lat="44.91319" lon="0.80037">
        <ele>150.4</ele>
        <time>2025-05-10T10:12:24Z</time>
      </trkpt>
      <trkpt lat="44.91318" lon="0.80036">
        <ele>150.6</ele>
        <time>2025-05-10T10:12:25Z</time>
      </trkpt>
      <trkpt lat="44.91318" lon="0.80034">
        <ele>150.8</ele>
        <time>2025-05-10T10:12:26Z</time>
      </trkpt>
      <trkpt lat="44.91319" lon="0.80032">
        <ele>151</ele>
        <time>2025-05-10T10:12:27Z</time>
      </trkpt>
      <trkpt lat="44.91319" lon="0.8003">
        <ele>151.2</ele>
        <time>2025-05-10T10:12:28Z</time>
      </trkpt>
      <trkpt lat="44.91319" lon="0.80028">
        <ele>151.4</ele>
        <time>2025-05-10T10:12:29Z</time>
      </trkpt>
      <trkpt lat="44.91319" lon="0.80026">
        <ele>151.6</ele>
        <time>2025-05-10T10:12:30Z</time>
      </trkpt>
      <trkpt lat="44.91319" lon="0.80024">
        <ele>151.8</ele>
        <time>2025-05-10T10:12:31Z</time>
      </trkpt>
      <trkpt lat="44.91319" lon="0.80022">
        <ele>152</ele>
        <time>2025-05-10T10:12:32Z</time>
      </trkpt>
      <trkpt lat="44.91319" lon="0.8002">
        <ele>152.2</ele>
        <time>2025-05-10T10:12:33Z</time>
      </trkpt>
      <trkpt lat="44.91319" lon="0.80018">
        <ele>152.4</ele>
        <time>2025-05-10T10:12:34Z</time>
      </trkpt>
      <trkpt lat="44.91319" lon="0.80016">
        <ele>152.6</ele>
        <time>2025-05-10T10:12:35Z</time>
      </trkpt>
      <trkpt lat="44.91319" lon="0.80014">
        <ele>152.6</ele>
        <time>2025-05-10T10:12:36Z</time>
      </trkpt>
      <trkpt lat="44.91319" lon="0.80012">
        <ele>153</ele>
        <time>2025-05-10T10:12:37Z</time>
      </trkpt>
      <trkpt lat="44.91319" lon="0.8001">
        <ele>153.2</ele>
        <time>2025-05-10T10:12:38Z</time>
      </trkpt>
      <trkpt lat="44.91319" lon="0.80008">
        <ele>153.2</ele>
        <time>2025-05-10T10:12:39Z</time>
      </trkpt>
      <trkpt lat="44.91319" lon="0.80006">
        <ele>153.4</ele>
        <time>2025-05-10T10:12:40Z</time>
      </trkpt>
      <trkpt lat="44.91319" lon="0.80004">
        <ele>153.6</ele>
        <time>2025-05-10T10:12:41Z</time>
      </trkpt>
      <trkpt lat="44.91319" lon="0.80002">
        <ele>153.8</ele>
        <time>2025-05-10T10:12:42Z</time>
      </trkpt>
      <trkpt lat="44.91319" lon="0.8">
        <ele>154</ele>
        <time>2025-05-10T10:12:43Z</time>
      </trkpt>
      <trkpt lat="44.91318" lon="0.79997">
        <ele>154</ele>
        <time>2025-05-10T10:12:44Z</time>
      </trkpt>
      <trkpt lat="44.91318" lon="0.79995">
        <ele>154.2</ele>
        <time>2025-05-10T10:12:45Z</time>
      </trkpt>
      <trkpt lat="44.91318" lon="0.79993">
        <ele>154.6</ele>
        <time>2025-05-10T10:12:46Z</time>
      </trkpt>
      <trkpt lat="44.91317" lon="0.79991">
        <ele>154.8</ele>
        <time>2025-05-10T10:12:47Z</time>
      </trkpt>
      <trkpt lat="44.91317" lon="0.79989">
        <ele>154.8</ele>
        <time>2025-05-10T10:12:48Z</time>
      </trkpt>
      <trkpt lat="44.91317" lon="0.79986">
        <ele>155</ele>
        <time>2025-05-10T10:12:49Z</time>
      </trkpt>
      <trkpt lat="44.91316" lon="0.79983">
        <ele>155.2</ele>
        <time>2025-05-10T10:12:50Z</time>
      </trkpt>
      <trkpt lat="44.91316" lon="0.79981">
        <ele>155.4</ele>
        <time>2025-05-10T10:12:51Z</time>
      </trkpt>
      <trkpt lat="44.91316" lon="0.79978">
        <ele>155.4</ele>
        <time>2025-05-10T10:12:52Z</time>
      </trkpt>
      <trkpt lat="44.91316" lon="0.79975">
        <ele>155.6</ele>
        <time>2025-05-10T10:12:53Z</time>
      </trkpt>
      <trkpt lat="44.91316" lon="0.79973">
        <ele>155.8</ele>
        <time>2025-05-10T10:12:54Z</time>
      </trkpt>
      <trkpt lat="44.91315" lon="0.7997">
        <ele>156</ele>
        <time>2025-05-10T10:12:55Z</time>
      </trkpt>
      <trkpt lat="44.91315" lon="0.79968">
        <ele>156.2</ele>
        <time>2025-05-10T10:12:56Z</time>
      </trkpt>
      <trkpt lat="44.91315" lon="0.79966">
        <ele>156.2</ele>
        <time>2025-05-10T10:12:57Z</time>
      </trkpt>
      <trkpt lat="44.91315" lon="0.79963">
        <ele>156.4</ele>
        <time>2025-05-10T10:12:58Z</time>
      </trkpt>
      <trkpt lat="44.91315" lon="0.79961">
        <ele>156.4</ele>
        <time>2025-05-10T10:12:59Z</time>
      </trkpt>
      <trkpt lat="44.91315" lon="0.79958">
        <ele>156.6</ele>
        <time>2025-05-10T10:13:00Z</time>
      </trkpt>
      <trkpt lat="44.91314" lon="0.79956">
        <ele>156.8</ele>
        <time>2025-05-10T10:13:01Z</time>
      </trkpt>
      <trkpt lat="44.91314" lon="0.79953">
        <ele>157</ele>
        <time>2025-05-10T10:13:02Z</time>
      </trkpt>
      <trkpt lat="44.91314" lon="0.7995">
        <ele>157.2</ele>
        <time>2025-05-10T10:13:03Z</time>
      </trkpt>
      <trkpt lat="44.91314" lon="0.79948">
        <ele>157.4</ele>
        <time>2025-05-10T10:13:04Z</time>
      </trkpt>
      <trkpt lat="44.91314" lon="0.79946">
        <ele>157.6</ele>
        <time>2025-05-10T10:13:05Z</time>
      </trkpt>
      <trkpt lat="44.91313" lon="0.79943">
        <ele>157.6</ele>
        <time>2025-05-10T10:13:06Z</time>
      </trkpt>
      <trkpt lat="44.91313" lon="0.7994">
        <ele>157.8</ele>
        <time>2025-05-10T10:13:07Z</time>
      </trkpt>
      <trkpt lat="44.91313" lon="0.79937">
        <ele>158</ele>
        <time>2025-05-10T10:13:08Z</time>
      </trkpt>
      <trkpt lat="44.91312" lon="0.79935">
        <ele>158.2</ele>
        <time>2025-05-10T10:13:09Z</time>
      </trkpt>
      <trkpt lat="44.91311" lon="0.79932">
        <ele>158.4</ele>
        <time>2025-05-10T10:13:10Z</time>
      </trkpt>
      <trkpt lat="44.91311" lon="0.79929">
        <ele>158.6</ele>
        <time>2025-05-10T10:13:11Z</time>
      </trkpt>
      <trkpt lat="44.9131" lon="0.79926">
        <ele>158.8</ele>
        <time>2025-05-10T10:13:12Z</time>
      </trkpt>
      <trkpt lat="44.9131" lon="0.79923">
        <ele>158.8</ele>
        <time>2025-05-10T10:13:13Z</time>
      </trkpt>
      <trkpt lat="44.91309" lon="0.7992">
        <ele>158.8</ele>
        <time>2025-05-10T10:13:14Z</time>
      </trkpt>
      <trkpt lat="44.91309" lon="0.79918">
        <ele>159</ele>
        <time>2025-05-10T10:13:15Z</time>
      </trkpt>
      <trkpt lat="44.91308" lon="0.79916">
        <ele>159.2</ele>
        <time>2025-05-10T10:13:16Z</time>
      </trkpt>
      <trkpt lat="44.91308" lon="0.79913">
        <ele>159.2</ele>
        <time>2025-05-10T10:13:17Z</time>
      </trkpt>
      <trkpt lat="44.91308" lon="0.7991">
        <ele>159.4</ele>
        <time>2025-05-10T10:13:18Z</time>
      </trkpt>
      <trkpt lat="44.91307" lon="0.79907">
        <ele>159.4</ele>
        <time>2025-05-10T10:13:19Z</time>
      </trkpt>
      <trkpt lat="44.91307" lon="0.79904">
        <ele>159.8</ele>
        <time>2025-05-10T10:13:20Z</time>
      </trkpt>
      <trkpt lat="44.91306" lon="0.79901">
        <ele>159.8</ele>
        <time>2025-05-10T10:13:21Z</time>
      </trkpt>
      <trkpt lat="44.91306" lon="0.79898">
        <ele>159.8</ele>
        <time>2025-05-10T10:13:22Z</time>
      </trkpt>
      <trkpt lat="44.91307" lon="0.79895">
        <ele>160</ele>
        <time>2025-05-10T10:13:23Z</time>
      </trkpt>
      <trkpt lat="44.91307" lon="0.79893">
        <ele>160</ele>
        <time>2025-05-10T10:13:24Z</time>
      </trkpt>
      <trkpt lat="44.91307" lon="0.7989">
        <ele>160.2</ele>
        <time>2025-05-10T10:13:25Z</time>
      </trkpt>
      <trkpt lat="44.91307" lon="0.79886">
        <ele>160.2</ele>
        <time>2025-05-10T10:13:26Z</time>
      </trkpt>
      <trkpt lat="44.91307" lon="0.79883">
        <ele>160.4</ele>
        <time>2025-05-10T10:13:27Z</time>
      </trkpt>
      <trkpt lat="44.91307" lon="0.7988">
        <ele>160.4</ele>
        <time>2025-05-10T10:13:28Z</time>
      </trkpt>
      <trkpt lat="44.91306" lon="0.79877">
        <ele>160.4</ele>
        <time>2025-05-10T10:13:29Z</time>
      </trkpt>
      <trkpt lat="44.91306" lon="0.79874">
        <ele>160.6</ele>
        <time>2025-05-10T10:13:30Z</time>
      </trkpt>
      <trkpt lat="44.91306" lon="0.7987">
        <ele>160.8</ele>
        <time>2025-05-10T10:13:31Z</time>
      </trkpt>
      <trkpt lat="44.91306" lon="0.79867">
        <ele>161</ele>
        <time>2025-05-10T10:13:32Z</time>
      </trkpt>
      <trkpt lat="44.91305" lon="0.79863">
        <ele>161</ele>
        <time>2025-05-10T10:13:33Z</time>
      </trkpt>
      <trkpt lat="44.91305" lon="0.79859">
        <ele>161.2</ele>
        <time>2025-05-10T10:13:34Z</time>
      </trkpt>
      <trkpt lat="44.91305" lon="0.79855">
        <ele>161.2</ele>
        <time>2025-05-10T10:13:35Z</time>
      </trkpt>
      <trkpt lat="44.91305" lon="0.79851">
        <ele>161.2</ele>
        <time>2025-05-10T10:13:36Z</time>
      </trkpt>
      <trkpt lat="44.91305" lon="0.79847">
        <ele>161.4</ele>
        <time>2025-05-10T10:13:37Z</time>
      </trkpt>
      <trkpt lat="44.91305" lon="0.79843">
        <ele>161.4</ele>
        <time>2025-05-10T10:13:38Z</time>
      </trkpt>
      <trkpt lat="44.91304" lon="0.7984">
        <ele>161.6</ele>
        <time>2025-05-10T10:13:39Z</time>
      </trkpt>
      <trkpt lat="44.91303" lon="0.79836">
        <ele>161.6</ele>
        <time>2025-05-10T10:13:40Z</time>
      </trkpt>
      <trkpt lat="44.91303" lon="0.79833">
        <ele>161.6</ele>
        <time>2025-05-10T10:13:41Z</time>
      </trkpt>
      <trkpt lat="44.91302" lon="0.79829">
        <ele>161.6</ele>
        <time>2025-05-10T10:13:42Z</time>
      </trkpt>
      <trkpt lat="44.91301" lon="0.79825">
        <ele>161.8</ele>
        <time>2025-05-10T10:13:43Z</time>
      </trkpt>
      <trkpt lat="44.913" lon="0.79821">
        <ele>161.8</ele>
        <time>2025-05-10T10:13:44Z</time>
      </trkpt>
      <trkpt lat="44.913" lon="0.79818">
        <ele>162</ele>
        <time>2025-05-10T10:13:45Z</time>
      </trkpt>
      <trkpt lat="44.913" lon="0.79814">
        <ele>162.2</ele>
        <time>2025-05-10T10:13:46Z</time>
      </trkpt>
      <trkpt lat="44.91299" lon="0.7981">
        <ele>162.4</ele>
        <time>2025-05-10T10:13:47Z</time>
      </trkpt>
      <trkpt lat="44.91297" lon="0.79806">
        <ele>162.4</ele>
        <time>2025-05-10T10:13:48Z</time>
      </trkpt>
      <trkpt lat="44.91296" lon="0.79801">
        <ele>162.6</ele>
        <time>2025-05-10T10:13:49Z</time>
      </trkpt>
      <trkpt lat="44.91295" lon="0.79798">
        <ele>162.6</ele>
        <time>2025-05-10T10:13:50Z</time>
      </trkpt>
      <trkpt lat="44.91294" lon="0.79793">
        <ele>162.6</ele>
        <time>2025-05-10T10:13:51Z</time>
      </trkpt>
      <trkpt lat="44.91294" lon="0.79789">
        <ele>162.8</ele>
        <time>2025-05-10T10:13:52Z</time>
      </trkpt>
      <trkpt lat="44.91293" lon="0.79786">
        <ele>162.8</ele>
        <time>2025-05-10T10:13:53Z</time>
      </trkpt>
      <trkpt lat="44.91292" lon="0.79782">
        <ele>162.8</ele>
        <time>2025-05-10T10:13:54Z</time>
      </trkpt>
      <trkpt lat="44.91291" lon="0.79778">
        <ele>163</ele>
        <time>2025-05-10T10:13:55Z</time>
      </trkpt>
      <trkpt lat="44.9129" lon="0.79775">
        <ele>163</ele>
        <time>2025-05-10T10:13:56Z</time>
      </trkpt>
      <trkpt lat="44.91289" lon="0.79771">
        <ele>163.2</ele>
        <time>2025-05-10T10:13:57Z</time>
      </trkpt>
      <trkpt lat="44.91289" lon="0.79767">
        <ele>163.4</ele>
        <time>2025-05-10T10:13:58Z</time>
      </trkpt>
      <trkpt lat="44.91288" lon="0.79763">
        <ele>163.4</ele>
        <time>2025-05-10T10:13:59Z</time>
      </trkpt>
      <trkpt lat="44.91287" lon="0.7976">
        <ele>163.4</ele>
        <time>2025-05-10T10:14:00Z</time>
      </trkpt>
      <trkpt lat="44.91287" lon="0.79756">
        <ele>163.4</ele>
        <time>2025-05-10T10:14:01Z</time>
      </trkpt>
      <trkpt lat="44.91285" lon="0.79752">
        <ele>163.6</ele>
        <time>2025-05-10T10:14:02Z</time>
      </trkpt>
      <trkpt lat="44.91284" lon="0.79748">
        <ele>163.6</ele>
        <time>2025-05-10T10:14:03Z</time>
      </trkpt>
      <trkpt lat="44.91284" lon="0.79744">
        <ele>163.6</ele>
        <time>2025-05-10T10:14:04Z</time>
      </trkpt>
      <trkpt lat="44.91283" lon="0.79739">
        <ele>163.8</ele>
        <time>2025-05-10T10:14:05Z</time>
      </trkpt>
      <trkpt lat="44.91283" lon="0.79734">
        <ele>163.8</ele>
        <time>2025-05-10T10:14:06Z</time>
      </trkpt>
      <trkpt lat="44.91282" lon="0.79729">
        <ele>163.8</ele>
        <time>2025-05-10T10:14:07Z</time>
      </trkpt>
      <trkpt lat="44.91281" lon="0.79725">
        <ele>163.8</ele>
        <time>2025-05-10T10:14:08Z</time>
      </trkpt>
      <trkpt lat="44.9128" lon="0.7972">
        <ele>163.8</ele>
        <time>2025-05-10T10:14:09Z</time>
      </trkpt>
      <trkpt lat="44.91279" lon="0.79716">
        <ele>163.8</ele>
        <time>2025-05-10T10:14:10Z</time>
      </trkpt>
      <trkpt lat="44.91279" lon="0.79712">
        <ele>164</ele>
        <time>2025-05-10T10:14:11Z</time>
      </trkpt>
      <trkpt lat="44.91278" lon="0.79708">
        <ele>164</ele>
        <time>2025-05-10T10:14:12Z</time>
      </trkpt>
      <trkpt lat="44.91278" lon="0.79704">
        <ele>164</ele>
        <time>2025-05-10T10:14:13Z</time>
      </trkpt>
      <trkpt lat="44.91278" lon="0.79699">
        <ele>164.2</ele>
        <time>2025-05-10T10:14:14Z</time>
      </trkpt>
      <trkpt lat="44.91277" lon="0.79695">
        <ele>164.2</ele>
        <time>2025-05-10T10:14:15Z</time>
      </trkpt>
      <trkpt lat="44.91276" lon="0.7969">
        <ele>164.4</ele>
        <time>2025-05-10T10:14:16Z</time>
      </trkpt>
      <trkpt lat="44.91275" lon="0.79686">
        <ele>164.6</ele>
        <time>2025-05-10T10:14:17Z</time>
      </trkpt>
      <trkpt lat="44.91274" lon="0.79681">
        <ele>164.6</ele>
        <time>2025-05-10T10:14:18Z</time>
      </trkpt>
      <trkpt lat="44.91274" lon="0.79676">
        <ele>164.8</ele>
        <time>2025-05-10T10:14:19Z</time>
      </trkpt>
      <trkpt lat="44.91273" lon="0.7967">
        <ele>164.8</ele>
        <time>2025-05-10T10:14:20Z</time>
      </trkpt>
      <trkpt lat="44.91272" lon="0.79666">
        <ele>165</ele>
        <time>2025-05-10T10:14:21Z</time>
      </trkpt>
      <trkpt lat="44.91271" lon="0.79661">
        <ele>165</ele>
        <time>2025-05-10T10:14:22Z</time>
      </trkpt>
      <trkpt lat="44.91271" lon="0.79657">
        <ele>165</ele>
        <time>2025-05-10T10:14:23Z</time>
      </trkpt>
      <trkpt lat="44.9127" lon="0.79652">
        <ele>165.2</ele>
        <time>2025-05-10T10:14:24Z</time>
      </trkpt>
      <trkpt lat="44.9127" lon="0.79648">
        <ele>165.2</ele>
        <time>2025-05-10T10:14:25Z</time>
      </trkpt>
      <trkpt lat="44.91269" lon="0.79643">
        <ele>165.4</ele>
        <time>2025-05-10T10:14:26Z</time>
      </trkpt>
      <trkpt lat="44.91269" lon="0.79639">
        <ele>165.4</ele>
        <time>2025-05-10T10:14:27Z</time>
      </trkpt>
      <trkpt lat="44.91268" lon="0.79635">
        <ele>165.6</ele>
        <time>2025-05-10T10:14:28Z</time>
      </trkpt>
      <trkpt lat="44.91267" lon="0.79631">
        <ele>165.8</ele>
        <time>2025-05-10T10:14:29Z</time>
      </trkpt>
      <trkpt lat="44.91266" lon="0.79626">
        <ele>165.8</ele>
        <time>2025-05-10T10:14:30Z</time>
      </trkpt>
      <trkpt lat="44.91265" lon="0.79622">
        <ele>166</ele>
        <time>2025-05-10T10:14:31Z</time>
      </trkpt>
      <trkpt lat="44.91264" lon="0.79617">
        <ele>166</ele>
        <time>2025-05-10T10:14:32Z</time>
      </trkpt>
      <trkpt lat="44.91263" lon="0.79613">
        <ele>166.2</ele>
        <time>2025-05-10T10:14:33Z</time>
      </trkpt>
      <trkpt lat="44.91262" lon="0.79609">
        <ele>166.4</ele>
        <time>2025-05-10T10:14:34Z</time>
      </trkpt>
      <trkpt lat="44.91261" lon="0.79605">
        <ele>166.6</ele>
        <time>2025-05-10T10:14:35Z</time>
      </trkpt>
      <trkpt lat="44.91259" lon="0.79601">
        <ele>166.8</ele>
        <time>2025-05-10T10:14:36Z</time>
      </trkpt>
      <trkpt lat="44.91258" lon="0.79596">
        <ele>166.8</ele>
        <time>2025-05-10T10:14:37Z</time>
      </trkpt>
      <trkpt lat="44.91257" lon="0.79592">
        <ele>167</ele>
        <time>2025-05-10T10:14:38Z</time>
      </trkpt>
      <trkpt lat="44.91255" lon="0.79587">
        <ele>167.2</ele>
        <time>2025-05-10T10:14:39Z</time>
      </trkpt>
      <trkpt lat="44.91253" lon="0.79583">
        <ele>167.6</ele>
        <time>2025-05-10T10:14:40Z</time>
      </trkpt>
      <trkpt lat="44.91252" lon="0.79578">
        <ele>167.6</ele>
        <time>2025-05-10T10:14:41Z</time>
      </trkpt>
      <trkpt lat="44.9125" lon="0.79574">
        <ele>167.8</ele>
        <time>2025-05-10T10:14:42Z</time>
      </trkpt>
      <trkpt lat="44.91248" lon="0.79569">
        <ele>168</ele>
        <time>2025-05-10T10:14:43Z</time>
      </trkpt>
      <trkpt lat="44.91247" lon="0.79565">
        <ele>168.2</ele>
        <time>2025-05-10T10:14:44Z</time>
      </trkpt>
      <trkpt lat="44.91245" lon="0.79562">
        <ele>168.4</ele>
        <time>2025-05-10T10:14:45Z</time>
      </trkpt>
      <trkpt lat="44.91243" lon="0.79558">
        <ele>168.6</ele>
        <time>2025-05-10T10:14:46Z</time>
      </trkpt>
      <trkpt lat="44.91242" lon="0.79554">
        <ele>168.6</ele>
        <time>2025-05-10T10:14:47Z</time>
      </trkpt>
      <trkpt lat="44.9124" lon="0.79549">
        <ele>168.6</ele>
        <time>2025-05-10T10:14:48Z</time>
      </trkpt>
      <trkpt lat="44.91239" lon="0.79544">
        <ele>168.8</ele>
        <time>2025-05-10T10:14:49Z</time>
      </trkpt>
      <trkpt lat="44.91236" lon="0.7954">
        <ele>169</ele>
        <time>2025-05-10T10:14:50Z</time>
      </trkpt>
      <trkpt lat="44.91234" lon="0.79535">
        <ele>169</ele>
        <time>2025-05-10T10:14:51Z</time>
      </trkpt>
      <trkpt lat="44.91232" lon="0.79531">
        <ele>169</ele>
        <time>2025-05-10T10:14:52Z</time>
      </trkpt>
      <trkpt lat="44.91231" lon="0.79527">
        <ele>169</ele>
        <time>2025-05-10T10:14:53Z</time>
      </trkpt>
      <trkpt lat="44.91228" lon="0.79524">
        <ele>169</ele>
        <time>2025-05-10T10:14:54Z</time>
      </trkpt>
      <trkpt lat="44.91226" lon="0.7952">
        <ele>169.2</ele>
        <time>2025-05-10T10:14:55Z</time>
      </trkpt>
      <trkpt lat="44.91225" lon="0.79517">
        <ele>169.4</ele>
        <time>2025-05-10T10:14:56Z</time>
      </trkpt>
      <trkpt lat="44.91223" lon="0.79513">
        <ele>169.6</ele>
        <time>2025-05-10T10:14:57Z</time>
      </trkpt>
      <trkpt lat="44.91221" lon="0.79509">
        <ele>169.6</ele>
        <time>2025-05-10T10:14:58Z</time>
      </trkpt>
      <trkpt lat="44.91219" lon="0.79505">
        <ele>169.8</ele>
        <time>2025-05-10T10:14:59Z</time>
      </trkpt>
      <trkpt lat="44.91217" lon="0.79502">
        <ele>169.8</ele>
        <time>2025-05-10T10:15:00Z</time>
      </trkpt>
      <trkpt lat="44.91215" lon="0.79498">
        <ele>170</ele>
        <time>2025-05-10T10:15:01Z</time>
      </trkpt>
      <trkpt lat="44.91213" lon="0.79494">
        <ele>170.2</ele>
        <time>2025-05-10T10:15:02Z</time>
      </trkpt>
      <trkpt lat="44.91211" lon="0.79491">
        <ele>170.2</ele>
        <time>2025-05-10T10:15:03Z</time>
      </trkpt>
      <trkpt lat="44.9121" lon="0.79487">
        <ele>170.4</ele>
        <time>2025-05-10T10:15:04Z</time>
      </trkpt>
      <trkpt lat="44.91208" lon="0.79483">
        <ele>170.6</ele>
        <time>2025-05-10T10:15:05Z</time>
      </trkpt>
      <trkpt lat="44.91206" lon="0.79479">
        <ele>170.6</ele>
        <time>2025-05-10T10:15:06Z</time>
      </trkpt>
      <trkpt lat="44.91204" lon="0.79476">
        <ele>170.6</ele>
        <time>2025-05-10T10:15:07Z</time>
      </trkpt>
      <trkpt lat="44.91202" lon="0.79472">
        <ele>170.6</ele>
        <time>2025-05-10T10:15:08Z</time>
      </trkpt>
      <trkpt lat="44.91199" lon="0.79468">
        <ele>170.6</ele>
        <time>2025-05-10T10:15:09Z</time>
      </trkpt>
      <trkpt lat="44.91197" lon="0.79465">
        <ele>170.8</ele>
        <time>2025-05-10T10:15:10Z</time>
      </trkpt>
      <trkpt lat="44.91195" lon="0.79462">
        <ele>170.8</ele>
        <time>2025-05-10T10:15:11Z</time>
      </trkpt>
      <trkpt lat="44.91193" lon="0.79458">
        <ele>171</ele>
        <time>2025-05-10T10:15:12Z</time>
      </trkpt>
      <trkpt lat="44.91191" lon="0.79454">
        <ele>171.2</ele>
        <time>2025-05-10T10:15:13Z</time>
      </trkpt>
      <trkpt lat="44.91189" lon="0.7945">
        <ele>171.4</ele>
        <time>2025-05-10T10:15:14Z</time>
      </trkpt>
      <trkpt lat="44.91187" lon="0.79446">
        <ele>171.4</ele>
        <time>2025-05-10T10:15:15Z</time>
      </trkpt>
      <trkpt lat="44.91184" lon="0.79442">
        <ele>171.6</ele>
        <time>2025-05-10T10:15:16Z</time>
      </trkpt>
      <trkpt lat="44.91182" lon="0.79438">
        <ele>171.8</ele>
        <time>2025-05-10T10:15:17Z</time>
      </trkpt>
      <trkpt lat="44.9118" lon="0.79435">
        <ele>171.8</ele>
        <time>2025-05-10T10:15:18Z</time>
      </trkpt>
      <trkpt lat="44.91177" lon="0.79431">
        <ele>172</ele>
        <time>2025-05-10T10:15:19Z</time>
      </trkpt>
      <trkpt lat="44.91175" lon="0.79428">
        <ele>172.2</ele>
        <time>2025-05-10T10:15:20Z</time>
      </trkpt>
      <trkpt lat="44.91173" lon="0.79424">
        <ele>172.2</ele>
        <time>2025-05-10T10:15:21Z</time>
      </trkpt>
      <trkpt lat="44.91171" lon="0.7942">
        <ele>172.4</ele>
        <time>2025-05-10T10:15:22Z</time>
      </trkpt>
      <trkpt lat="44.91169" lon="0.79416">
        <ele>172.6</ele>
        <time>2025-05-10T10:15:23Z</time>
      </trkpt>
      <trkpt lat="44.91167" lon="0.79413">
        <ele>172.8</ele>
        <time>2025-05-10T10:15:24Z</time>
      </trkpt>
      <trkpt lat="44.91165" lon="0.7941">
        <ele>172.8</ele>
        <time>2025-05-10T10:15:25Z</time>
      </trkpt>
      <trkpt lat="44.91162" lon="0.79406">
        <ele>172.8</ele>
        <time>2025-05-10T10:15:26Z</time>
      </trkpt>
      <trkpt lat="44.9116" lon="0.79403">
        <ele>173</ele>
        <time>2025-05-10T10:15:27Z</time>
      </trkpt>
      <trkpt lat="44.91158" lon="0.79398">
        <ele>173.2</ele>
        <time>2025-05-10T10:15:28Z</time>
      </trkpt>
      <trkpt lat="44.91156" lon="0.79395">
        <ele>173.4</ele>
        <time>2025-05-10T10:15:29Z</time>
      </trkpt>
      <trkpt lat="44.91154" lon="0.79391">
        <ele>173.4</ele>
        <time>2025-05-10T10:15:30Z</time>
      </trkpt>
      <trkpt lat="44.91153" lon="0.79388">
        <ele>173.8</ele>
        <time>2025-05-10T10:15:31Z</time>
      </trkpt>
      <trkpt lat="44.91151" lon="0.79385">
        <ele>173.8</ele>
        <time>2025-05-10T10:15:32Z</time>
      </trkpt>
      <trkpt lat="44.91149" lon="0.79383">
        <ele>174</ele>
        <time>2025-05-10T10:15:33Z</time>
      </trkpt>
      <trkpt lat="44.91147" lon="0.79381">
        <ele>174.4</ele>
        <time>2025-05-10T10:15:34Z</time>
      </trkpt>
      <trkpt lat="44.91145" lon="0.79378">
        <ele>174.6</ele>
        <time>2025-05-10T10:15:35Z</time>
      </trkpt>
      <trkpt lat="44.91143" lon="0.79376">
        <ele>174.6</ele>
        <time>2025-05-10T10:15:36Z</time>
      </trkpt>
      <trkpt lat="44.91141" lon="0.79373">
        <ele>174.8</ele>
        <time>2025-05-10T10:15:37Z</time>
      </trkpt>
      <trkpt lat="44.9114" lon="0.7937">
        <ele>174.8</ele>
        <time>2025-05-10T10:15:38Z</time>
      </trkpt>
      <trkpt lat="44.91139" lon="0.79367">
        <ele>175</ele>
        <time>2025-05-10T10:15:39Z</time>
      </trkpt>
      <trkpt lat="44.91137" lon="0.79364">
        <ele>175.2</ele>
        <time>2025-05-10T10:15:40Z</time>
      </trkpt>
      <trkpt lat="44.91135" lon="0.79361">
        <ele>175.2</ele>
        <time>2025-05-10T10:15:41Z</time>
      </trkpt>
      <trkpt lat="44.91134" lon="0.79358">
        <ele>175.4</ele>
        <time>2025-05-10T10:15:42Z</time>
      </trkpt>
      <trkpt lat="44.91132" lon="0.79355">
        <ele>175.4</ele>
        <time>2025-05-10T10:15:43Z</time>
      </trkpt>
      <trkpt lat="44.9113" lon="0.79352">
        <ele>175.6</ele>
        <time>2025-05-10T10:15:44Z</time>
      </trkpt>
      <trkpt lat="44.91128" lon="0.7935">
        <ele>175.6</ele>
        <time>2025-05-10T10:15:45Z</time>
      </trkpt>
      <trkpt lat="44.91126" lon="0.79347">
        <ele>175.8</ele>
        <time>2025-05-10T10:15:46Z</time>
      </trkpt>
      <trkpt lat="44.91125" lon="0.79344">
        <ele>176</ele>
        <time>2025-05-10T10:15:47Z</time>
      </trkpt>
      <trkpt lat="44.91123" lon="0.79342">
        <ele>176</ele>
        <time>2025-05-10T10:15:48Z</time>
      </trkpt>
      <trkpt lat="44.91121" lon="0.79339">
        <ele>176.4</ele>
        <time>2025-05-10T10:15:49Z</time>
      </trkpt>
      <trkpt lat="44.91119" lon="0.79336">
        <ele>176.4</ele>
        <time>2025-05-10T10:15:50Z</time>
      </trkpt>
      <trkpt lat="44.91117" lon="0.79333">
        <ele>176.4</ele>
        <time>2025-05-10T10:15:51Z</time>
      </trkpt>
      <trkpt lat="44.91115" lon="0.7933">
        <ele>176.6</ele>
        <time>2025-05-10T10:15:52Z</time>
      </trkpt>
      <trkpt lat="44.91113" lon="0.79327">
        <ele>176.6</ele>
        <time>2025-05-10T10:15:53Z</time>
      </trkpt>
      <trkpt lat="44.91112" lon="0.79325">
        <ele>176.6</ele>
        <time>2025-05-10T10:15:54Z</time>
      </trkpt>
      <trkpt lat="44.9111" lon="0.79322">
        <ele>176.8</ele>
        <time>2025-05-10T10:15:55Z</time>
      </trkpt>
      <trkpt lat="44.91108" lon="0.7932">
        <ele>176.8</ele>
        <time>2025-05-10T10:15:56Z</time>
      </trkpt>
      <trkpt lat="44.91106" lon="0.79317">
        <ele>177</ele>
        <time>2025-05-10T10:15:57Z</time>
      </trkpt>
      <trkpt lat="44.91104" lon="0.79314">
        <ele>177.2</ele>
        <time>2025-05-10T10:15:58Z</time>
      </trkpt>
      <trkpt lat="44.91103" lon="0.79311">
        <ele>177.4</ele>
        <time>2025-05-10T10:15:59Z</time>
      </trkpt>
      <trkpt lat="44.91101" lon="0.79309">
        <ele>177.6</ele>
        <time>2025-05-10T10:16:00Z</time>
      </trkpt>
      <trkpt lat="44.911" lon="0.79306">
        <ele>177.6</ele>
        <time>2025-05-10T10:16:01Z</time>
      </trkpt>
      <trkpt lat="44.91098" lon="0.79304">
        <ele>177.8</ele>
        <time>2025-05-10T10:16:02Z</time>
      </trkpt>
      <trkpt lat="44.91098" lon="0.79303">
        <ele>177.8</ele>
        <time>2025-05-10T10:16:03Z</time>
      </trkpt>
      <trkpt lat="44.91098" lon="0.79303">
        <ele>178</ele>
        <time>2025-05-10T10:16:04Z</time>
      </trkpt>
      <trkpt lat="44.91097" lon="0.79302">
        <ele>178</ele>
        <time>2025-05-10T10:16:05Z</time>
      </trkpt>
      <trkpt lat="44.91092" lon="0.79298">
        <ele>178.4</ele>
        <time>2025-05-10T10:16:38Z</time>
      </trkpt>
      <trkpt lat="44.91091" lon="0.79295">
        <ele>178.4</ele>
        <time>2025-05-10T10:16:39Z</time>
      </trkpt>
      <trkpt lat="44.91089" lon="0.79293">
        <ele>178.4</ele>
        <time>2025-05-10T10:16:40Z</time>
      </trkpt>
      <trkpt lat="44.91087" lon="0.7929">
        <ele>178.4</ele>
        <time>2025-05-10T10:16:41Z</time>
      </trkpt>
      <trkpt lat="44.91085" lon="0.79287">
        <ele>178.2</ele>
        <time>2025-05-10T10:16:42Z</time>
      </trkpt>
      <trkpt lat="44.91082" lon="0.79283">
        <ele>178</ele>
        <time>2025-05-10T10:16:43Z</time>
      </trkpt>
      <trkpt lat="44.9108" lon="0.7928">
        <ele>178</ele>
        <time>2025-05-10T10:16:44Z</time>
      </trkpt>
      <trkpt lat="44.91077" lon="0.79277">
        <ele>177.8</ele>
        <time>2025-05-10T10:16:45Z</time>
      </trkpt>
      <trkpt lat="44.91075" lon="0.79274">
        <ele>177.8</ele>
        <time>2025-05-10T10:16:46Z</time>
      </trkpt>
      <trkpt lat="44.91073" lon="0.79271">
        <ele>177.8</ele>
        <time>2025-05-10T10:16:47Z</time>
      </trkpt>
      <trkpt lat="44.91071" lon="0.79268">
        <ele>177.8</ele>
        <time>2025-05-10T10:16:48Z</time>
      </trkpt>
      <trkpt lat="44.91068" lon="0.79265">
        <ele>178</ele>
        <time>2025-05-10T10:16:49Z</time>
      </trkpt>
      <trkpt lat="44.91066" lon="0.79261">
        <ele>178</ele>
        <time>2025-05-10T10:16:50Z</time>
      </trkpt>
      <trkpt lat="44.91063" lon="0.79258">
        <ele>178</ele>
        <time>2025-05-10T10:16:51Z</time>
      </trkpt>
      <trkpt lat="44.9106" lon="0.79255">
        <ele>178.2</ele>
        <time>2025-05-10T10:16:52Z</time>
      </trkpt>
      <trkpt lat="44.91057" lon="0.79251">
        <ele>178.2</ele>
        <time>2025-05-10T10:16:53Z</time>
      </trkpt>
      <trkpt lat="44.91054" lon="0.79248">
        <ele>178.2</ele>
        <time>2025-05-10T10:16:54Z</time>
      </trkpt>
      <trkpt lat="44.91051" lon="0.79245">
        <ele>178.2</ele>
        <time>2025-05-10T10:16:55Z</time>
      </trkpt>
      <trkpt lat="44.91047" lon="0.79242">
        <ele>178.2</ele>
        <time>2025-05-10T10:16:56Z</time>
      </trkpt>
      <trkpt lat="44.91044" lon="0.7924">
        <ele>178.2</ele>
        <time>2025-05-10T10:16:57Z</time>
      </trkpt>
      <trkpt lat="44.91041" lon="0.79237">
        <ele>178.2</ele>
        <time>2025-05-10T10:16:58Z</time>
      </trkpt>
      <trkpt lat="44.91037" lon="0.79234">
        <ele>178.2</ele>
        <time>2025-05-10T10:16:59Z</time>
      </trkpt>
      <trkpt lat="44.91034" lon="0.79232">
        <ele>178.2</ele>
        <time>2025-05-10T10:17:00Z</time>
      </trkpt>
      <trkpt lat="44.9103" lon="0.79231">
        <ele>178.2</ele>
        <time>2025-05-10T10:17:01Z</time>
      </trkpt>
      <trkpt lat="44.91026" lon="0.79229">
        <ele>178.4</ele>
        <time>2025-05-10T10:17:02Z</time>
      </trkpt>
      <trkpt lat="44.91023" lon="0.7923">
        <ele>178.4</ele>
        <time>2025-05-10T10:17:03Z</time>
      </trkpt>
      <trkpt lat="44.91019" lon="0.79231">
        <ele>178.4</ele>
        <time>2025-05-10T10:17:04Z</time>
      </trkpt>
      <trkpt lat="44.91015" lon="0.79233">
        <ele>178.4</ele>
        <time>2025-05-10T10:17:05Z</time>
      </trkpt>
      <trkpt lat="44.91012" lon="0.79235">
        <ele>178.4</ele>
        <time>2025-05-10T10:17:06Z</time>
      </trkpt>
      <trkpt lat="44.91009" lon="0.79237">
        <ele>178.6</ele>
        <time>2025-05-10T10:17:07Z</time>
      </trkpt>
      <trkpt lat="44.91006" lon="0.79239">
        <ele>178.8</ele>
        <time>2025-05-10T10:17:08Z</time>
      </trkpt>
      <trkpt lat="44.91003" lon="0.79241">
        <ele>179</ele>
        <time>2025-05-10T10:17:09Z</time>
      </trkpt>
      <trkpt lat="44.91" lon="0.79244">
        <ele>179.2</ele>
        <time>2025-05-10T10:17:10Z</time>
      </trkpt>
      <trkpt lat="44.90997" lon="0.79247">
        <ele>179.8</ele>
        <time>2025-05-10T10:17:11Z</time>
      </trkpt>
      <trkpt lat="44.90995" lon="0.79249">
        <ele>180</ele>
        <time>2025-05-10T10:17:12Z</time>
      </trkpt>
      <trkpt lat="44.90992" lon="0.79251">
        <ele>180.4</ele>
        <time>2025-05-10T10:17:13Z</time>
      </trkpt>
      <trkpt lat="44.90989" lon="0.79253">
        <ele>180.6</ele>
        <time>2025-05-10T10:17:14Z</time>
      </trkpt>
      <trkpt lat="44.90986" lon="0.79255">
        <ele>180.8</ele>
        <time>2025-05-10T10:17:15Z</time>
      </trkpt>
      <trkpt lat="44.90983" lon="0.79257">
        <ele>181</ele>
        <time>2025-05-10T10:17:16Z</time>
      </trkpt>
      <trkpt lat="44.9098" lon="0.79258">
        <ele>181.2</ele>
        <time>2025-05-10T10:17:17Z</time>
      </trkpt>
      <trkpt lat="44.90977" lon="0.7926">
        <ele>181.4</ele>
        <time>2025-05-10T10:17:18Z</time>
      </trkpt>
      <trkpt lat="44.90974" lon="0.79261">
        <ele>181.4</ele>
        <time>2025-05-10T10:17:19Z</time>
      </trkpt>
      <trkpt lat="44.90971" lon="0.79262">
        <ele>181.6</ele>
        <time>2025-05-10T10:17:20Z</time>
      </trkpt>
      <trkpt lat="44.90968" lon="0.79264">
        <ele>181.6</ele>
        <time>2025-05-10T10:17:21Z</time>
      </trkpt>
      <trkpt lat="44.90964" lon="0.79264">
        <ele>181.8</ele>
        <time>2025-05-10T10:17:22Z</time>
      </trkpt>
      <trkpt lat="44.90961" lon="0.79265">
        <ele>181.8</ele>
        <time>2025-05-10T10:17:23Z</time>
      </trkpt>
      <trkpt lat="44.90958" lon="0.79266">
        <ele>182</ele>
        <time>2025-05-10T10:17:24Z</time>
      </trkpt>
      <trkpt lat="44.90953" lon="0.79267">
        <ele>182</ele>
        <time>2025-05-10T10:17:25Z</time>
      </trkpt>
      <trkpt lat="44.9095" lon="0.79268">
        <ele>182</ele>
        <time>2025-05-10T10:17:26Z</time>
      </trkpt>
      <trkpt lat="44.90946" lon="0.79267">
        <ele>182</ele>
        <time>2025-05-10T10:17:27Z</time>
      </trkpt>
      <trkpt lat="44.90942" lon="0.79267">
        <ele>182.2</ele>
        <time>2025-05-10T10:17:28Z</time>
      </trkpt>
      <trkpt lat="44.90939" lon="0.79267">
        <ele>182.2</ele>
        <time>2025-05-10T10:17:29Z</time>
      </trkpt>
      <trkpt lat="44.90935" lon="0.79268">
        <ele>182.2</ele>
        <time>2025-05-10T10:17:30Z</time>
      </trkpt>
      <trkpt lat="44.90931" lon="0.79268">
        <ele>182.4</ele>
        <time>2025-05-10T10:17:31Z</time>
      </trkpt>
      <trkpt lat="44.90926" lon="0.79268">
        <ele>182.4</ele>
        <time>2025-05-10T10:17:32Z</time>
      </trkpt>
      <trkpt lat="44.90922" lon="0.79268">
        <ele>182.4</ele>
        <time>2025-05-10T10:17:33Z</time>
      </trkpt>
      <trkpt lat="44.90917" lon="0.79269">
        <ele>182.4</ele>
        <time>2025-05-10T10:17:34Z</time>
      </trkpt>
      <trkpt lat="44.90913" lon="0.79268">
        <ele>182.4</ele>
        <time>2025-05-10T10:17:35Z</time>
      </trkpt>
      <trkpt lat="44.90908" lon="0.79268">
        <ele>182.2</ele>
        <time>2025-05-10T10:17:36Z</time>
      </trkpt>
      <trkpt lat="44.90903" lon="0.79268">
        <ele>182</ele>
        <time>2025-05-10T10:17:37Z</time>
      </trkpt>
      <trkpt lat="44.90899" lon="0.79268">
        <ele>181.8</ele>
        <time>2025-05-10T10:17:38Z</time>
      </trkpt>
      <trkpt lat="44.90894" lon="0.79268">
        <ele>181.8</ele>
        <time>2025-05-10T10:17:39Z</time>
      </trkpt>
      <trkpt lat="44.90889" lon="0.79268">
        <ele>181.6</ele>
        <time>2025-05-10T10:17:40Z</time>
      </trkpt>
      <trkpt lat="44.90885" lon="0.7927">
        <ele>181.6</ele>
        <time>2025-05-10T10:17:41Z</time>
      </trkpt>
      <trkpt lat="44.9088" lon="0.79271">
        <ele>181.6</ele>
        <time>2025-05-10T10:17:42Z</time>
      </trkpt>
      <trkpt lat="44.90877" lon="0.79275">
        <ele>181.4</ele>
        <time>2025-05-10T10:17:43Z</time>
      </trkpt>
      <trkpt lat="44.90875" lon="0.79279">
        <ele>181.2</ele>
        <time>2025-05-10T10:17:44Z</time>
      </trkpt>
      <trkpt lat="44.90873" lon="0.79283">
        <ele>181.2</ele>
        <time>2025-05-10T10:17:45Z</time>
      </trkpt>
      <trkpt lat="44.90872" lon="0.79287">
        <ele>181</ele>
        <time>2025-05-10T10:17:46Z</time>
      </trkpt>
      <trkpt lat="44.90871" lon="0.79292">
        <ele>181</ele>
        <time>2025-05-10T10:17:47Z</time>
      </trkpt>
      <trkpt lat="44.9087" lon="0.79297">
        <ele>180.8</ele>
        <time>2025-05-10T10:17:48Z</time>
      </trkpt>
      <trkpt lat="44.90868" lon="0.79302">
        <ele>180.8</ele>
        <time>2025-05-10T10:17:49Z</time>
      </trkpt>
      <trkpt lat="44.90867" lon="0.79308">
        <ele>180.6</ele>
        <time>2025-05-10T10:17:50Z</time>
      </trkpt>
      <trkpt lat="44.90866" lon="0.79314">
        <ele>180.4</ele>
        <time>2025-05-10T10:17:51Z</time>
      </trkpt>
      <trkpt lat="44.90865" lon="0.7932">
        <ele>180.4</ele>
        <time>2025-05-10T10:17:52Z</time>
      </trkpt>
      <trkpt lat="44.90864" lon="0.79327">
        <ele>180.2</ele>
        <time>2025-05-10T10:17:53Z</time>
      </trkpt>
      <trkpt lat="44.90862" lon="0.79334">
        <ele>180</ele>
        <time>2025-05-10T10:17:54Z</time>
      </trkpt>
      <trkpt lat="44.90861" lon="0.79342">
        <ele>179.8</ele>
        <time>2025-05-10T10:17:55Z</time>
      </trkpt>
      <trkpt lat="44.9086" lon="0.79349">
        <ele>179.8</ele>
        <time>2025-05-10T10:17:56Z</time>
      </trkpt>
      <trkpt lat="44.90859" lon="0.79356">
        <ele>179.6</ele>
        <time>2025-05-10T10:17:57Z</time>
      </trkpt>
      <trkpt lat="44.90857" lon="0.79363">
        <ele>179.6</ele>
        <time>2025-05-10T10:17:58Z</time>
      </trkpt>
      <trkpt lat="44.90856" lon="0.7937">
        <ele>179.4</ele>
        <time>2025-05-10T10:17:59Z</time>
      </trkpt>
      <trkpt lat="44.90855" lon="0.79377">
        <ele>179.2</ele>
        <time>2025-05-10T10:18:00Z</time>
      </trkpt>
      <trkpt lat="44.90854" lon="0.79385">
        <ele>179.2</ele>
        <time>2025-05-10T10:18:01Z</time>
      </trkpt>
      <trkpt lat="44.90853" lon="0.79393">
        <ele>179.2</ele>
        <time>2025-05-10T10:18:02Z</time>
      </trkpt>
      <trkpt lat="44.90851" lon="0.79401">
        <ele>179</ele>
        <time>2025-05-10T10:18:03Z</time>
      </trkpt>
      <trkpt lat="44.90849" lon="0.7941">
        <ele>178.8</ele>
        <time>2025-05-10T10:18:04Z</time>
      </trkpt>
      <trkpt lat="44.90849" lon="0.79419">
        <ele>178.6</ele>
        <time>2025-05-10T10:18:05Z</time>
      </trkpt>
      <trkpt lat="44.90847" lon="0.79428">
        <ele>178</ele>
        <time>2025-05-10T10:18:06Z</time>
      </trkpt>
      <trkpt lat="44.90845" lon="0.79436">
        <ele>177.6</ele>
        <time>2025-05-10T10:18:07Z</time>
      </trkpt>
      <trkpt lat="44.90841" lon="0.79444">
        <ele>177.2</ele>
        <time>2025-05-10T10:18:08Z</time>
      </trkpt>
      <trkpt lat="44.90837" lon="0.79452">
        <ele>176.6</ele>
        <time>2025-05-10T10:18:09Z</time>
      </trkpt>
      <trkpt lat="44.90833" lon="0.79459">
        <ele>176</ele>
        <time>2025-05-10T10:18:10Z</time>
      </trkpt>
      <trkpt lat="44.90829" lon="0.79465">
        <ele>175.6</ele>
        <time>2025-05-10T10:18:11Z</time>
      </trkpt>
      <trkpt lat="44.90825" lon="0.79472">
        <ele>175.6</ele>
        <time>2025-05-10T10:18:12Z</time>
      </trkpt>
      <trkpt lat="44.90821" lon="0.79478">
        <ele>175.6</ele>
        <time>2025-05-10T10:18:13Z</time>
      </trkpt>
      <trkpt lat="44.90816" lon="0.79484">
        <ele>175.6</ele>
        <time>2025-05-10T10:18:14Z</time>
      </trkpt>
      <trkpt lat="44.90812" lon="0.7949">
        <ele>175.4</ele>
        <time>2025-05-10T10:18:15Z</time>
      </trkpt>
      <trkpt lat="44.90807" lon="0.79496">
        <ele>175.4</ele>
        <time>2025-05-10T10:18:16Z</time>
      </trkpt>
      <trkpt lat="44.90803" lon="0.79502">
        <ele>175.4</ele>
        <time>2025-05-10T10:18:17Z</time>
      </trkpt>
      <trkpt lat="44.90798" lon="0.79508">
        <ele>175.2</ele>
        <time>2025-05-10T10:18:18Z</time>
      </trkpt>
      <trkpt lat="44.90794" lon="0.79513">
        <ele>175</ele>
        <time>2025-05-10T10:18:19Z</time>
      </trkpt>
      <trkpt lat="44.90789" lon="0.79519">
        <ele>174.8</ele>
        <time>2025-05-10T10:18:20Z</time>
      </trkpt>
      <trkpt lat="44.90785" lon="0.79525">
        <ele>174.6</ele>
        <time>2025-05-10T10:18:21Z</time>
      </trkpt>
      <trkpt lat="44.90782" lon="0.79531">
        <ele>174.6</ele>
        <time>2025-05-10T10:18:22Z</time>
      </trkpt>
      <trkpt lat="44.90781" lon="0.79538">
        <ele>174.4</ele>
        <time>2025-05-10T10:18:23Z</time>
      </trkpt>
      <trkpt lat="44.9078" lon="0.79546">
        <ele>174.4</ele>
        <time>2025-05-10T10:18:24Z</time>
      </trkpt>
      <trkpt lat="44.9078" lon="0.79554">
        <ele>174.4</ele>
        <time>2025-05-10T10:18:25Z</time>
      </trkpt>
      <trkpt lat="44.90781" lon="0.79562">
        <ele>174.4</ele>
        <time>2025-05-10T10:18:26Z</time>
      </trkpt>
      <trkpt lat="44.90781" lon="0.79571">
        <ele>174.2</ele>
        <time>2025-05-10T10:18:27Z</time>
      </trkpt>
      <trkpt lat="44.90782" lon="0.7958">
        <ele>174.2</ele>
        <time>2025-05-10T10:18:28Z</time>
      </trkpt>
      <trkpt lat="44.90782" lon="0.79589">
        <ele>174</ele>
        <time>2025-05-10T10:18:29Z</time>
      </trkpt>
      <trkpt lat="44.90782" lon="0.79597">
        <ele>173.6</ele>
        <time>2025-05-10T10:18:30Z</time>
      </trkpt>
      <trkpt lat="44.90783" lon="0.79606">
        <ele>173.4</ele>
        <time>2025-05-10T10:18:31Z</time>
      </trkpt>
      <trkpt lat="44.90784" lon="0.79615">
        <ele>172.8</ele>
        <time>2025-05-10T10:18:32Z</time>
      </trkpt>
      <trkpt lat="44.90786" lon="0.79625">
        <ele>172.4</ele>
        <time>2025-05-10T10:18:33Z</time>
      </trkpt>
      <trkpt lat="44.90787" lon="0.79635">
        <ele>172.2</ele>
        <time>2025-05-10T10:18:34Z</time>
      </trkpt>
      <trkpt lat="44.9079" lon="0.79645">
        <ele>172</ele>
        <time>2025-05-10T10:18:35Z</time>
      </trkpt>
      <trkpt lat="44.90792" lon="0.79654">
        <ele>171.6</ele>
        <time>2025-05-10T10:18:36Z</time>
      </trkpt>
      <trkpt lat="44.90794" lon="0.79662">
        <ele>171</ele>
        <time>2025-05-10T10:18:37Z</time>
      </trkpt>
      <trkpt lat="44.90797" lon="0.7967">
        <ele>170.6</ele>
        <time>2025-05-10T10:18:38Z</time>
      </trkpt>
      <trkpt lat="44.908" lon="0.79677">
        <ele>170.6</ele>
        <time>2025-05-10T10:18:39Z</time>
      </trkpt>
      <trkpt lat="44.90803" lon="0.79685">
        <ele>170.4</ele>
        <time>2025-05-10T10:18:40Z</time>
      </trkpt>
      <trkpt lat="44.90806" lon="0.79692">
        <ele>170.4</ele>
        <time>2025-05-10T10:18:41Z</time>
      </trkpt>
      <trkpt lat="44.90809" lon="0.79699">
        <ele>170.2</ele>
        <time>2025-05-10T10:18:42Z</time>
      </trkpt>
      <trkpt lat="44.90811" lon="0.79706">
        <ele>170.2</ele>
        <time>2025-05-10T10:18:43Z</time>
      </trkpt>
      <trkpt lat="44.90812" lon="0.79714">
        <ele>170.2</ele>
        <time>2025-05-10T10:18:44Z</time>
      </trkpt>
      <trkpt lat="44.90812" lon="0.79722">
        <ele>170.2</ele>
        <time>2025-05-10T10:18:45Z</time>
      </trkpt>
      <trkpt lat="44.90811" lon="0.7973">
        <ele>170.4</ele>
        <time>2025-05-10T10:18:46Z</time>
      </trkpt>
      <trkpt lat="44.90809" lon="0.79739">
        <ele>170.2</ele>
        <time>2025-05-10T10:18:47Z</time>
      </trkpt>
      <trkpt lat="44.90808" lon="0.79747">
        <ele>170.4</ele>
        <time>2025-05-10T10:18:48Z</time>
      </trkpt>
      <trkpt lat="44.90806" lon="0.79756">
        <ele>170.4</ele>
        <time>2025-05-10T10:18:49Z</time>
      </trkpt>
      <trkpt lat="44.90804" lon="0.79764">
        <ele>170.6</ele>
        <time>2025-05-10T10:18:50Z</time>
      </trkpt>
      <trkpt lat="44.90801" lon="0.7977">
        <ele>170.4</ele>
        <time>2025-05-10T10:18:51Z</time>
      </trkpt>
      <trkpt lat="44.90798" lon="0.79776">
        <ele>170.4</ele>
        <time>2025-05-10T10:18:52Z</time>
      </trkpt>
      <trkpt lat="44.90794" lon="0.79783">
        <ele>170.4</ele>
        <time>2025-05-10T10:18:53Z</time>
      </trkpt>
      <trkpt lat="44.9079" lon="0.7979">
        <ele>170.2</ele>
        <time>2025-05-10T10:18:54Z</time>
      </trkpt>
      <trkpt lat="44.90786" lon="0.79799">
        <ele>169.8</ele>
        <time>2025-05-10T10:18:55Z</time>
      </trkpt>
      <trkpt lat="44.90783" lon="0.79806">
        <ele>169.6</ele>
        <time>2025-05-10T10:18:56Z</time>
      </trkpt>
      <trkpt lat="44.90782" lon="0.79815">
        <ele>169.2</ele>
        <time>2025-05-10T10:18:57Z</time>
      </trkpt>
      <trkpt lat="44.90781" lon="0.79824">
        <ele>168.8</ele>
        <time>2025-05-10T10:18:58Z</time>
      </trkpt>
      <trkpt lat="44.9078" lon="0.79834">
        <ele>168.6</ele>
        <time>2025-05-10T10:18:59Z</time>
      </trkpt>
      <trkpt lat="44.9078" lon="0.79843">
        <ele>168.4</ele>
        <time>2025-05-10T10:19:00Z</time>
      </trkpt>
      <trkpt lat="44.90779" lon="0.79852">
        <ele>168.2</ele>
        <time>2025-05-10T10:19:01Z</time>
      </trkpt>
      <trkpt lat="44.90779" lon="0.79862">
        <ele>168</ele>
        <time>2025-05-10T10:19:02Z</time>
      </trkpt>
      <trkpt lat="44.90779" lon="0.79872">
        <ele>168</ele>
        <time>2025-05-10T10:19:03Z</time>
      </trkpt>
      <trkpt lat="44.90779" lon="0.79881">
        <ele>167.8</ele>
        <time>2025-05-10T10:19:04Z</time>
      </trkpt>
      <trkpt lat="44.90778" lon="0.79888">
        <ele>167.6</ele>
        <time>2025-05-10T10:19:05Z</time>
      </trkpt>
      <trkpt lat="44.90777" lon="0.79892">
        <ele>167.8</ele>
        <time>2025-05-10T10:19:06Z</time>
      </trkpt>
      <trkpt lat="44.90774" lon="0.79892">
        <ele>167.8</ele>
        <time>2025-05-10T10:19:07Z</time>
      </trkpt>
      <trkpt lat="44.90773" lon="0.79891">
        <ele>168</ele>
        <time>2025-05-10T10:19:08Z</time>
      </trkpt>
      <trkpt lat="44.90772" lon="0.79888">
        <ele>168.2</ele>
        <time>2025-05-10T10:19:09Z</time>
      </trkpt>
      <trkpt lat="44.90771" lon="0.79882">
        <ele>168.2</ele>
        <time>2025-05-10T10:19:10Z</time>
      </trkpt>
      <trkpt lat="44.9077" lon="0.79875">
        <ele>168.2</ele>
        <time>2025-05-10T10:19:11Z</time>
      </trkpt>
      <trkpt lat="44.90768" lon="0.79868">
        <ele>168.2</ele>
        <time>2025-05-10T10:19:12Z</time>
      </trkpt>
      <trkpt lat="44.90766" lon="0.79859">
        <ele>167.6</ele>
        <time>2025-05-10T10:19:13Z</time>
      </trkpt>
      <trkpt lat="44.90764" lon="0.79847">
        <ele>166.6</ele>
        <time>2025-05-10T10:19:14Z</time>
      </trkpt>
      <trkpt lat="44.90761" lon="0.79836">
        <ele>165.6</ele>
        <time>2025-05-10T10:19:15Z</time>
      </trkpt>
      <trkpt lat="44.9076" lon="0.79825">
        <ele>164.6</ele>
        <time>2025-05-10T10:19:16Z</time>
      </trkpt>
      <trkpt lat="44.90758" lon="0.79812">
        <ele>163.2</ele>
        <time>2025-05-10T10:19:17Z</time>
      </trkpt>
      <trkpt lat="44.90756" lon="0.79799">
        <ele>161.8</ele>
        <time>2025-05-10T10:19:18Z</time>
      </trkpt>
      <trkpt lat="44.90754" lon="0.79786">
        <ele>160.2</ele>
        <time>2025-05-10T10:19:19Z</time>
      </trkpt>
      <trkpt lat="44.90751" lon="0.79773">
        <ele>159.2</ele>
        <time>2025-05-10T10:19:20Z</time>
      </trkpt>
      <trkpt lat="44.90748" lon="0.79758">
        <ele>157.8</ele>
        <time>2025-05-10T10:19:21Z</time>
      </trkpt>
      <trkpt lat="44.90744" lon="0.79745">
        <ele>156.4</ele>
        <time>2025-05-10T10:19:22Z</time>
      </trkpt>
      <trkpt lat="44.90739" lon="0.79733">
        <ele>155.6</ele>
        <time>2025-05-10T10:19:23Z</time>
      </trkpt>
      <trkpt lat="44.90734" lon="0.7972">
        <ele>154.6</ele>
        <time>2025-05-10T10:19:24Z</time>
      </trkpt>
      <trkpt lat="44.90729" lon="0.79708">
        <ele>153.4</ele>
        <time>2025-05-10T10:19:25Z</time>
      </trkpt>
      <trkpt lat="44.90723" lon="0.79695">
        <ele>150.4</ele>
        <time>2025-05-10T10:19:26Z</time>
      </trkpt>
      <trkpt lat="44.90716" lon="0.79683">
        <ele>149.8</ele>
        <time>2025-05-10T10:19:27Z</time>
      </trkpt>
      <trkpt lat="44.9071" lon="0.7967">
        <ele>149.4</ele>
        <time>2025-05-10T10:19:28Z</time>
      </trkpt>
      <trkpt lat="44.90705" lon="0.79657">
        <ele>147.2</ele>
        <time>2025-05-10T10:19:29Z</time>
      </trkpt>
      <trkpt lat="44.907" lon="0.79644">
        <ele>145.6</ele>
        <time>2025-05-10T10:19:30Z</time>
      </trkpt>
      <trkpt lat="44.90694" lon="0.7963">
        <ele>144</ele>
        <time>2025-05-10T10:19:31Z</time>
      </trkpt>
      <trkpt lat="44.90687" lon="0.79616">
        <ele>141.8</ele>
        <time>2025-05-10T10:19:32Z</time>
      </trkpt>
      <trkpt lat="44.90683" lon="0.79602">
        <ele>140.4</ele>
        <time>2025-05-10T10:19:33Z</time>
      </trkpt>
      <trkpt lat="44.90679" lon="0.79587">
        <ele>138.2</ele>
        <time>2025-05-10T10:19:34Z</time>
      </trkpt>
      <trkpt lat="44.90676" lon="0.79572">
        <ele>136.2</ele>
        <time>2025-05-10T10:19:35Z</time>
      </trkpt>
      <trkpt lat="44.90672" lon="0.79559">
        <ele>135.6</ele>
        <time>2025-05-10T10:19:36Z</time>
      </trkpt>
      <trkpt lat="44.90667" lon="0.79547">
        <ele>134.4</ele>
        <time>2025-05-10T10:19:37Z</time>
      </trkpt>
      <trkpt lat="44.90659" lon="0.79537">
        <ele>133.2</ele>
        <time>2025-05-10T10:19:38Z</time>
      </trkpt>
      <trkpt lat="44.9065" lon="0.7953">
        <ele>132.2</ele>
        <time>2025-05-10T10:19:39Z</time>
      </trkpt>
      <trkpt lat="44.9064" lon="0.79523">
        <ele>130.8</ele>
        <time>2025-05-10T10:19:40Z</time>
      </trkpt>
      <trkpt lat="44.90631" lon="0.79517">
        <ele>129.8</ele>
        <time>2025-05-10T10:19:41Z</time>
      </trkpt>
      <trkpt lat="44.90622" lon="0.79511">
        <ele>129.4</ele>
        <time>2025-05-10T10:19:42Z</time>
      </trkpt>
      <trkpt lat="44.90615" lon="0.79506">
        <ele>128.8</ele>
        <time>2025-05-10T10:19:43Z</time>
      </trkpt>
      <trkpt lat="44.90608" lon="0.79502">
        <ele>128.8</ele>
        <time>2025-05-10T10:19:44Z</time>
      </trkpt>
      <trkpt lat="44.90603" lon="0.79498">
        <ele>128.8</ele>
        <time>2025-05-10T10:19:45Z</time>
      </trkpt>
      <trkpt lat="44.90599" lon="0.79495">
        <ele>129.2</ele>
        <time>2025-05-10T10:19:46Z</time>
      </trkpt>
      <trkpt lat="44.90596" lon="0.79492">
        <ele>129.8</ele>
        <time>2025-05-10T10:19:47Z</time>
      </trkpt>
      <trkpt lat="44.90595" lon="0.7949">
        <ele>130.8</ele>
        <time>2025-05-10T10:19:48Z</time>
      </trkpt>
      <trkpt lat="44.90593" lon="0.79488">
        <ele>132.2</ele>
        <time>2025-05-10T10:19:49Z</time>
      </trkpt>
      <trkpt lat="44.90592" lon="0.79487">
        <ele>132.8</ele>
        <time>2025-05-10T10:19:50Z</time>
      </trkpt>
      <trkpt lat="44.9059" lon="0.79486">
        <ele>133.6</ele>
        <time>2025-05-10T10:19:51Z</time>
      </trkpt>
      <trkpt lat="44.90589" lon="0.79485">
        <ele>134.2</ele>
        <time>2025-05-10T10:19:52Z</time>
      </trkpt>
      <trkpt lat="44.90587" lon="0.79485">
        <ele>134.8</ele>
        <time>2025-05-10T10:19:53Z</time>
      </trkpt>
      <trkpt lat="44.90586" lon="0.79484">
        <ele>135.2</ele>
        <time>2025-05-10T10:19:54Z</time>
      </trkpt>
      <trkpt lat="44.90585" lon="0.79483">
        <ele>135.6</ele>
        <time>2025-05-10T10:19:55Z</time>
      </trkpt>
      <trkpt lat="44.90584" lon="0.79482">
        <ele>135.8</ele>
        <time>2025-05-10T10:19:56Z</time>
      </trkpt>
      <trkpt lat="44.90583" lon="0.79481">
        <ele>136.2</ele>
        <time>2025-05-10T10:19:57Z</time>
      </trkpt>
      <trkpt lat="44.90582" lon="0.7948">
        <ele>136.4</ele>
        <time>2025-05-10T10:19:58Z</time>
      </trkpt>
      <trkpt lat="44.9058" lon="0.79479">
        <ele>136.6</ele>
        <time>2025-05-10T10:19:59Z</time>
      </trkpt>
      <trkpt lat="44.90579" lon="0.79478">
        <ele>137</ele>
        <time>2025-05-10T10:20:00Z</time>
      </trkpt>
      <trkpt lat="44.90577" lon="0.79477">
        <ele>137.2</ele>
        <time>2025-05-10T10:20:01Z</time>
      </trkpt>
      <trkpt lat="44.90576" lon="0.79476">
        <ele>137.4</ele>
        <time>2025-05-10T10:20:02Z</time>
      </trkpt>
      <trkpt lat="44.90574" lon="0.79475">
        <ele>137.8</ele>
        <time>2025-05-10T10:20:03Z</time>
      </trkpt>
      <trkpt lat="44.90573" lon="0.79475">
        <ele>138.2</ele>
        <time>2025-05-10T10:20:04Z</time>
      </trkpt>
      <trkpt lat="44.90572" lon="0.79474">
        <ele>138.4</ele>
        <time>2025-05-10T10:20:05Z</time>
      </trkpt>
      <trkpt lat="44.90571" lon="0.79474">
        <ele>138.8</ele>
        <time>2025-05-10T10:20:06Z</time>
      </trkpt>
      <trkpt lat="44.9057" lon="0.79473">
        <ele>139.2</ele>
        <time>2025-05-10T10:20:07Z</time>
      </trkpt>
      <trkpt lat="44.90569" lon="0.79471">
        <ele>139.4</ele>
        <time>2025-05-10T10:20:08Z</time>
      </trkpt>
      <trkpt lat="44.90568" lon="0.7947">
        <ele>139.8</ele>
        <time>2025-05-10T10:20:09Z</time>
      </trkpt>
      <trkpt lat="44.90567" lon="0.79469">
        <ele>140</ele>
        <time>2025-05-10T10:20:10Z</time>
      </trkpt>
      <trkpt lat="44.90566" lon="0.79469">
        <ele>140.2</ele>
        <time>2025-05-10T10:20:11Z</time>
      </trkpt>
      <trkpt lat="44.90565" lon="0.79468">
        <ele>140.4</ele>
        <time>2025-05-10T10:20:12Z</time>
      </trkpt>
      <trkpt lat="44.90564" lon="0.79468">
        <ele>140.8</ele>
        <time>2025-05-10T10:20:13Z</time>
      </trkpt>
      <trkpt lat="44.90563" lon="0.79467">
        <ele>141</ele>
        <time>2025-05-10T10:20:14Z</time>
      </trkpt>
      <trkpt lat="44.90562" lon="0.79465">
        <ele>141.4</ele>
        <time>2025-05-10T10:20:15Z</time>
      </trkpt>
      <trkpt lat="44.90561" lon="0.79465">
        <ele>141.6</ele>
        <time>2025-05-10T10:20:16Z</time>
      </trkpt>
      <trkpt lat="44.9056" lon="0.79464">
        <ele>142</ele>
        <time>2025-05-10T10:20:17Z</time>
      </trkpt>
      <trkpt lat="44.90558" lon="0.79463">
        <ele>142.2</ele>
        <time>2025-05-10T10:20:18Z</time>
      </trkpt>
      <trkpt lat="44.90557" lon="0.79462">
        <ele>142.6</ele>
        <time>2025-05-10T10:20:19Z</time>
      </trkpt>
      <trkpt lat="44.90556" lon="0.79463">
        <ele>143</ele>
        <time>2025-05-10T10:20:20Z</time>
      </trkpt>
      <trkpt lat="44.90555" lon="0.79462">
        <ele>143.2</ele>
        <time>2025-05-10T10:20:21Z</time>
      </trkpt>
      <trkpt lat="44.90554" lon="0.79462">
        <ele>143.4</ele>
        <time>2025-05-10T10:20:22Z</time>
      </trkpt>
      <trkpt lat="44.90553" lon="0.79463">
        <ele>143.6</ele>
        <time>2025-05-10T10:20:23Z</time>
      </trkpt>
      <trkpt lat="44.90551" lon="0.79463">
        <ele>143.8</ele>
        <time>2025-05-10T10:20:24Z</time>
      </trkpt>
      <trkpt lat="44.9055" lon="0.79462">
        <ele>144</ele>
        <time>2025-05-10T10:20:25Z</time>
      </trkpt>
      <trkpt lat="44.90549" lon="0.79461">
        <ele>144.2</ele>
        <time>2025-05-10T10:20:26Z</time>
      </trkpt>
      <trkpt lat="44.90548" lon="0.7946">
        <ele>144.4</ele>
        <time>2025-05-10T10:20:27Z</time>
      </trkpt>
      <trkpt lat="44.90547" lon="0.7946">
        <ele>144.6</ele>
        <time>2025-05-10T10:20:28Z</time>
      </trkpt>
      <trkpt lat="44.90545" lon="0.79459">
        <ele>144.8</ele>
        <time>2025-05-10T10:20:29Z</time>
      </trkpt>
      <trkpt lat="44.90544" lon="0.79458">
        <ele>144.8</ele>
        <time>2025-05-10T10:20:30Z</time>
      </trkpt>
      <trkpt lat="44.90544" lon="0.79457">
        <ele>145.2</ele>
        <time>2025-05-10T10:20:31Z</time>
      </trkpt>
      <trkpt lat="44.90543" lon="0.79456">
        <ele>145.2</ele>
        <time>2025-05-10T10:20:32Z</time>
      </trkpt>
      <trkpt lat="44.90541" lon="0.79456">
        <ele>145.4</ele>
        <time>2025-05-10T10:20:33Z</time>
      </trkpt>
      <trkpt lat="44.90539" lon="0.79455">
        <ele>145.6</ele>
        <time>2025-05-10T10:20:34Z</time>
      </trkpt>
      <trkpt lat="44.90538" lon="0.79454">
        <ele>145.6</ele>
        <time>2025-05-10T10:20:35Z</time>
      </trkpt>
      <trkpt lat="44.90536" lon="0.79454">
        <ele>145.8</ele>
        <time>2025-05-10T10:20:36Z</time>
      </trkpt>
      <trkpt lat="44.90535" lon="0.79453">
        <ele>146</ele>
        <time>2025-05-10T10:20:37Z</time>
      </trkpt>
      <trkpt lat="44.90534" lon="0.79452">
        <ele>146.2</ele>
        <time>2025-05-10T10:20:38Z</time>
      </trkpt>
      <trkpt lat="44.90533" lon="0.79451">
        <ele>146.4</ele>
        <time>2025-05-10T10:20:39Z</time>
      </trkpt>
      <trkpt lat="44.90531" lon="0.7945">
        <ele>146.4</ele>
        <time>2025-05-10T10:20:40Z</time>
      </trkpt>
      <trkpt lat="44.9053" lon="0.7945">
        <ele>146.6</ele>
        <time>2025-05-10T10:20:41Z</time>
      </trkpt>
      <trkpt lat="44.90529" lon="0.79449">
        <ele>146.8</ele>
        <time>2025-05-10T10:20:42Z</time>
      </trkpt>
      <trkpt lat="44.90527" lon="0.79448">
        <ele>146.8</ele>
        <time>2025-05-10T10:20:43Z</time>
      </trkpt>
      <trkpt lat="44.90526" lon="0.79448">
        <ele>146.8</ele>
        <time>2025-05-10T10:20:44Z</time>
      </trkpt>
      <trkpt lat="44.90524" lon="0.79446">
        <ele>147</ele>
        <time>2025-05-10T10:20:45Z</time>
      </trkpt>
      <trkpt lat="44.90523" lon="0.79445">
        <ele>147</ele>
        <time>2025-05-10T10:20:46Z</time>
      </trkpt>
      <trkpt lat="44.90521" lon="0.79445">
        <ele>147.2</ele>
        <time>2025-05-10T10:20:47Z</time>
      </trkpt>
      <trkpt lat="44.9052" lon="0.79444">
        <ele>147.4</ele>
        <time>2025-05-10T10:20:48Z</time>
      </trkpt>
      <trkpt lat="44.90518" lon="0.79443">
        <ele>147.6</ele>
        <time>2025-05-10T10:20:49Z</time>
      </trkpt>
      <trkpt lat="44.90516" lon="0.79442">
        <ele>147.8</ele>
        <time>2025-05-10T10:20:50Z</time>
      </trkpt>
      <trkpt lat="44.90514" lon="0.79441">
        <ele>148</ele>
        <time>2025-05-10T10:20:51Z</time>
      </trkpt>
      <trkpt lat="44.90512" lon="0.7944">
        <ele>148</ele>
        <time>2025-05-10T10:20:52Z</time>
      </trkpt>
      <trkpt lat="44.90511" lon="0.79439">
        <ele>148.2</ele>
        <time>2025-05-10T10:20:53Z</time>
      </trkpt>
      <trkpt lat="44.90509" lon="0.79438">
        <ele>148.4</ele>
        <time>2025-05-10T10:20:54Z</time>
      </trkpt>
      <trkpt lat="44.90508" lon="0.79438">
        <ele>148.4</ele>
        <time>2025-05-10T10:20:55Z</time>
      </trkpt>
      <trkpt lat="44.90506" lon="0.79437">
        <ele>148.6</ele>
        <time>2025-05-10T10:20:56Z</time>
      </trkpt>
      <trkpt lat="44.90504" lon="0.79436">
        <ele>148.8</ele>
        <time>2025-05-10T10:20:57Z</time>
      </trkpt>
      <trkpt lat="44.90502" lon="0.79434">
        <ele>149</ele>
        <time>2025-05-10T10:20:58Z</time>
      </trkpt>
      <trkpt lat="44.905" lon="0.79433">
        <ele>149.2</ele>
        <time>2025-05-10T10:20:59Z</time>
      </trkpt>
      <trkpt lat="44.90499" lon="0.79432">
        <ele>149.6</ele>
        <time>2025-05-10T10:21:00Z</time>
      </trkpt>
      <trkpt lat="44.90496" lon="0.7943">
        <ele>149.6</ele>
        <time>2025-05-10T10:21:01Z</time>
      </trkpt>
      <trkpt lat="44.90495" lon="0.79429">
        <ele>149.8</ele>
        <time>2025-05-10T10:21:02Z</time>
      </trkpt>
      <trkpt lat="44.90493" lon="0.79428">
        <ele>150</ele>
        <time>2025-05-10T10:21:03Z</time>
      </trkpt>
      <trkpt lat="44.90491" lon="0.79427">
        <ele>150</ele>
        <time>2025-05-10T10:21:04Z</time>
      </trkpt>
      <trkpt lat="44.90489" lon="0.79426">
        <ele>150.2</ele>
        <time>2025-05-10T10:21:05Z</time>
      </trkpt>
      <trkpt lat="44.90488" lon="0.79424">
        <ele>150.4</ele>
        <time>2025-05-10T10:21:06Z</time>
      </trkpt>
      <trkpt lat="44.90486" lon="0.79423">
        <ele>150.4</ele>
        <time>2025-05-10T10:21:07Z</time>
      </trkpt>
      <trkpt lat="44.90484" lon="0.79422">
        <ele>150.6</ele>
        <time>2025-05-10T10:21:08Z</time>
      </trkpt>
      <trkpt lat="44.90483" lon="0.7942">
        <ele>151</ele>
        <time>2025-05-10T10:21:09Z</time>
      </trkpt>
      <trkpt lat="44.90481" lon="0.79419">
        <ele>151</ele>
        <time>2025-05-10T10:21:10Z</time>
      </trkpt>
      <trkpt lat="44.9048" lon="0.79418">
        <ele>151.2</ele>
        <time>2025-05-10T10:21:11Z</time>
      </trkpt>
      <trkpt lat="44.90478" lon="0.79417">
        <ele>151.4</ele>
        <time>2025-05-10T10:21:12Z</time>
      </trkpt>
      <trkpt lat="44.90477" lon="0.79416">
        <ele>151.4</ele>
        <time>2025-05-10T10:21:13Z</time>
      </trkpt>
      <trkpt lat="44.90476" lon="0.79414">
        <ele>151.8</ele>
        <time>2025-05-10T10:21:14Z</time>
      </trkpt>
      <trkpt lat="44.90474" lon="0.79413">
        <ele>151.8</ele>
        <time>2025-05-10T10:21:15Z</time>
      </trkpt>
      <trkpt lat="44.90473" lon="0.79411">
        <ele>152</ele>
        <time>2025-05-10T10:21:16Z</time>
      </trkpt>
      <trkpt lat="44.90471" lon="0.7941">
        <ele>152.2</ele>
        <time>2025-05-10T10:21:17Z</time>
      </trkpt>
      <trkpt lat="44.9047" lon="0.79409">
        <ele>152.2</ele>
        <time>2025-05-10T10:21:18Z</time>
      </trkpt>
      <trkpt lat="44.90469" lon="0.79407">
        <ele>152.4</ele>
        <time>2025-05-10T10:21:19Z</time>
      </trkpt>
      <trkpt lat="44.90467" lon="0.79406">
        <ele>152.8</ele>
        <time>2025-05-10T10:21:20Z</time>
      </trkpt>
      <trkpt lat="44.90466" lon="0.79404">
        <ele>152.8</ele>
        <time>2025-05-10T10:21:21Z</time>
      </trkpt>
      <trkpt lat="44.90464" lon="0.79403">
        <ele>153</ele>
        <time>2025-05-10T10:21:22Z</time>
      </trkpt>
      <trkpt lat="44.90463" lon="0.79402">
        <ele>153.2</ele>
        <time>2025-05-10T10:21:23Z</time>
      </trkpt>
      <trkpt lat="44.90461" lon="0.79401">
        <ele>153.4</ele>
        <time>2025-05-10T10:21:24Z</time>
      </trkpt>
      <trkpt lat="44.90459" lon="0.79399">
        <ele>153.6</ele>
        <time>2025-05-10T10:21:25Z</time>
      </trkpt>
      <trkpt lat="44.90458" lon="0.79398">
        <ele>153.6</ele>
        <time>2025-05-10T10:21:26Z</time>
      </trkpt>
      <trkpt lat="44.90456" lon="0.79397">
        <ele>154</ele>
        <time>2025-05-10T10:21:27Z</time>
      </trkpt>
      <trkpt lat="44.90455" lon="0.79396">
        <ele>154.2</ele>
        <time>2025-05-10T10:21:28Z</time>
      </trkpt>
      <trkpt lat="44.90454" lon="0.79395">
        <ele>154.4</ele>
        <time>2025-05-10T10:21:29Z</time>
      </trkpt>
      <trkpt lat="44.90452" lon="0.79394">
        <ele>154.6</ele>
        <time>2025-05-10T10:21:30Z</time>
      </trkpt>
      <trkpt lat="44.90451" lon="0.79392">
        <ele>154.8</ele>
        <time>2025-05-10T10:21:31Z</time>
      </trkpt>
      <trkpt lat="44.9045" lon="0.79392">
        <ele>155.2</ele>
        <time>2025-05-10T10:21:32Z</time>
      </trkpt>
      <trkpt lat="44.90449" lon="0.79391">
        <ele>155.4</ele>
        <time>2025-05-10T10:21:33Z</time>
      </trkpt>
      <trkpt lat="44.90448" lon="0.7939">
        <ele>155.6</ele>
        <time>2025-05-10T10:21:34Z</time>
      </trkpt>
      <trkpt lat="44.90447" lon="0.79389">
        <ele>155.8</ele>
        <time>2025-05-10T10:21:35Z</time>
      </trkpt>
      <trkpt lat="44.90446" lon="0.79388">
        <ele>156</ele>
        <time>2025-05-10T10:21:36Z</time>
      </trkpt>
      <trkpt lat="44.90444" lon="0.79388">
        <ele>156.2</ele>
        <time>2025-05-10T10:21:37Z</time>
      </trkpt>
      <trkpt lat="44.90443" lon="0.79387">
        <ele>156.4</ele>
        <time>2025-05-10T10:21:38Z</time>
      </trkpt>
      <trkpt lat="44.90442" lon="0.79386">
        <ele>156.6</ele>
        <time>2025-05-10T10:21:39Z</time>
      </trkpt>
      <trkpt lat="44.90441" lon="0.79385">
        <ele>156.8</ele>
        <time>2025-05-10T10:21:40Z</time>
      </trkpt>
      <trkpt lat="44.9044" lon="0.79384">
        <ele>157</ele>
        <time>2025-05-10T10:21:41Z</time>
      </trkpt>
      <trkpt lat="44.90438" lon="0.79383">
        <ele>157.4</ele>
        <time>2025-05-10T10:21:42Z</time>
      </trkpt>
      <trkpt lat="44.90437" lon="0.79382">
        <ele>157.4</ele>
        <time>2025-05-10T10:21:43Z</time>
      </trkpt>
      <trkpt lat="44.90436" lon="0.79381">
        <ele>157.6</ele>
        <time>2025-05-10T10:21:44Z</time>
      </trkpt>
      <trkpt lat="44.90435" lon="0.7938">
        <ele>157.8</ele>
        <time>2025-05-10T10:21:45Z</time>
      </trkpt>
      <trkpt lat="44.90435" lon="0.7938">
        <ele>158.2</ele>
        <time>2025-05-10T10:21:46Z</time>
      </trkpt>
      <trkpt lat="44.90433" lon="0.79379">
        <ele>158.4</ele>
        <time>2025-05-10T10:21:47Z</time>
      </trkpt>
      <trkpt lat="44.90432" lon="0.79379">
        <ele>158.6</ele>
        <time>2025-05-10T10:21:48Z</time>
      </trkpt>
      <trkpt lat="44.90431" lon="0.79377">
        <ele>159</ele>
        <time>2025-05-10T10:21:49Z</time>
      </trkpt>
      <trkpt lat="44.9043" lon="0.79377">
        <ele>159.2</ele>
        <time>2025-05-10T10:21:50Z</time>
      </trkpt>
      <trkpt lat="44.90429" lon="0.79376">
        <ele>159.4</ele>
        <time>2025-05-10T10:21:51Z</time>
      </trkpt>
      <trkpt lat="44.90428" lon="0.79376">
        <ele>159.6</ele>
        <time>2025-05-10T10:21:52Z</time>
      </trkpt>
      <trkpt lat="44.90427" lon="0.79375">
        <ele>160</ele>
        <time>2025-05-10T10:21:53Z</time>
      </trkpt>
      <trkpt lat="44.90426" lon="0.79375">
        <ele>160.2</ele>
        <time>2025-05-10T10:21:54Z</time>
      </trkpt>
      <trkpt lat="44.90425" lon="0.79374">
        <ele>160.4</ele>
        <time>2025-05-10T10:21:55Z</time>
      </trkpt>
      <trkpt lat="44.90424" lon="0.79374">
        <ele>160.8</ele>
        <time>2025-05-10T10:21:56Z</time>
      </trkpt>
      <trkpt lat="44.90423" lon="0.79373">
        <ele>161</ele>
        <time>2025-05-10T10:21:57Z</time>
      </trkpt>
      <trkpt lat="44.90422" lon="0.79373">
        <ele>161.2</ele>
        <time>2025-05-10T10:21:58Z</time>
      </trkpt>
      <trkpt lat="44.90421" lon="0.79372">
        <ele>161.4</ele>
        <time>2025-05-10T10:21:59Z</time>
      </trkpt>
      <trkpt lat="44.9042" lon="0.79371">
        <ele>161.8</ele>
        <time>2025-05-10T10:22:00Z</time>
      </trkpt>
      <trkpt lat="44.90419" lon="0.7937">
        <ele>162</ele>
        <time>2025-05-10T10:22:01Z</time>
      </trkpt>
      <trkpt lat="44.90417" lon="0.7937">
        <ele>162.2</ele>
        <time>2025-05-10T10:22:02Z</time>
      </trkpt>
      <trkpt lat="44.90416" lon="0.79369">
        <ele>162.6</ele>
        <time>2025-05-10T10:22:03Z</time>
      </trkpt>
      <trkpt lat="44.90415" lon="0.79368">
        <ele>162.8</ele>
        <time>2025-05-10T10:22:04Z</time>
      </trkpt>
      <trkpt lat="44.90415" lon="0.79367">
        <ele>163</ele>
        <time>2025-05-10T10:22:05Z</time>
      </trkpt>
      <trkpt lat="44.90413" lon="0.79366">
        <ele>163.4</ele>
        <time>2025-05-10T10:22:06Z</time>
      </trkpt>
      <trkpt lat="44.90412" lon="0.79366">
        <ele>163.6</ele>
        <time>2025-05-10T10:22:07Z</time>
      </trkpt>
      <trkpt lat="44.90411" lon="0.79365">
        <ele>163.8</ele>
        <time>2025-05-10T10:22:08Z</time>
      </trkpt>
      <trkpt lat="44.9041" lon="0.79364">
        <ele>164</ele>
        <time>2025-05-10T10:22:09Z</time>
      </trkpt>
      <trkpt lat="44.90409" lon="0.79363">
        <ele>164.2</ele>
        <time>2025-05-10T10:22:10Z</time>
      </trkpt>
      <trkpt lat="44.90408" lon="0.79362">
        <ele>164.2</ele>
        <time>2025-05-10T10:22:11Z</time>
      </trkpt>
      <trkpt lat="44.90407" lon="0.79361">
        <ele>164.4</ele>
        <time>2025-05-10T10:22:12Z</time>
      </trkpt>
      <trkpt lat="44.90406" lon="0.7936">
        <ele>164.6</ele>
        <time>2025-05-10T10:22:13Z</time>
      </trkpt>
      <trkpt lat="44.90405" lon="0.7936">
        <ele>164.8</ele>
        <time>2025-05-10T10:22:14Z</time>
      </trkpt>
      <trkpt lat="44.90404" lon="0.79359">
        <ele>165</ele>
        <time>2025-05-10T10:22:15Z</time>
      </trkpt>
      <trkpt lat="44.90403" lon="0.79359">
        <ele>165.2</ele>
        <time>2025-05-10T10:22:16Z</time>
      </trkpt>
      <trkpt lat="44.90402" lon="0.79358">
        <ele>165.6</ele>
        <time>2025-05-10T10:22:17Z</time>
      </trkpt>
      <trkpt lat="44.904" lon="0.79357">
        <ele>165.8</ele>
        <time>2025-05-10T10:22:18Z</time>
      </trkpt>
      <trkpt lat="44.90399" lon="0.79356">
        <ele>166</ele>
        <time>2025-05-10T10:22:19Z</time>
      </trkpt>
      <trkpt lat="44.90398" lon="0.79355">
        <ele>166.2</ele>
        <time>2025-05-10T10:22:20Z</time>
      </trkpt>
      <trkpt lat="44.90397" lon="0.79355">
        <ele>166.4</ele>
        <time>2025-05-10T10:22:21Z</time>
      </trkpt>
      <trkpt lat="44.90396" lon="0.79354">
        <ele>166.6</ele>
        <time>2025-05-10T10:22:22Z</time>
      </trkpt>
      <trkpt lat="44.90395" lon="0.79353">
        <ele>166.8</ele>
        <time>2025-05-10T10:22:23Z</time>
      </trkpt>
      <trkpt lat="44.90394" lon="0.79351">
        <ele>167</ele>
        <time>2025-05-10T10:22:24Z</time>
      </trkpt>
      <trkpt lat="44.90393" lon="0.7935">
        <ele>167.2</ele>
        <time>2025-05-10T10:22:25Z</time>
      </trkpt>
      <trkpt lat="44.90392" lon="0.79349">
        <ele>167.2</ele>
        <time>2025-05-10T10:22:26Z</time>
      </trkpt>
      <trkpt lat="44.90391" lon="0.79349">
        <ele>167.4</ele>
        <time>2025-05-10T10:22:27Z</time>
      </trkpt>
      <trkpt lat="44.90389" lon="0.79348">
        <ele>167.6</ele>
        <time>2025-05-10T10:22:28Z</time>
      </trkpt>
      <trkpt lat="44.90388" lon="0.79346">
        <ele>167.8</ele>
        <time>2025-05-10T10:22:29Z</time>
      </trkpt>
      <trkpt lat="44.90387" lon="0.79345">
        <ele>168</ele>
        <time>2025-05-10T10:22:30Z</time>
      </trkpt>
      <trkpt lat="44.90386" lon="0.79343">
        <ele>168.2</ele>
        <time>2025-05-10T10:22:31Z</time>
      </trkpt>
      <trkpt lat="44.90384" lon="0.79342">
        <ele>168.4</ele>
        <time>2025-05-10T10:22:32Z</time>
      </trkpt>
      <trkpt lat="44.90383" lon="0.7934">
        <ele>168.4</ele>
        <time>2025-05-10T10:22:33Z</time>
      </trkpt>
      <trkpt lat="44.90381" lon="0.79338">
        <ele>168.4</ele>
        <time>2025-05-10T10:22:34Z</time>
      </trkpt>
      <trkpt lat="44.9038" lon="0.79336">
        <ele>168.8</ele>
        <time>2025-05-10T10:22:35Z</time>
      </trkpt>
      <trkpt lat="44.90378" lon="0.79335">
        <ele>169</ele>
        <time>2025-05-10T10:22:36Z</time>
      </trkpt>
      <trkpt lat="44.90377" lon="0.79333">
        <ele>169.4</ele>
        <time>2025-05-10T10:22:37Z</time>
      </trkpt>
      <trkpt lat="44.90376" lon="0.79332">
        <ele>169.4</ele>
        <time>2025-05-10T10:22:38Z</time>
      </trkpt>
      <trkpt lat="44.90375" lon="0.7933">
        <ele>169.6</ele>
        <time>2025-05-10T10:22:39Z</time>
      </trkpt>
      <trkpt lat="44.90374" lon="0.79328">
        <ele>169.6</ele>
        <time>2025-05-10T10:22:40Z</time>
      </trkpt>
      <trkpt lat="44.90373" lon="0.79327">
        <ele>169.8</ele>
        <time>2025-05-10T10:22:41Z</time>
      </trkpt>
      <trkpt lat="44.90372" lon="0.79325">
        <ele>169.8</ele>
        <time>2025-05-10T10:22:42Z</time>
      </trkpt>
      <trkpt lat="44.9037" lon="0.79324">
        <ele>170</ele>
        <time>2025-05-10T10:22:43Z</time>
      </trkpt>
      <trkpt lat="44.90369" lon="0.79322">
        <ele>170.2</ele>
        <time>2025-05-10T10:22:44Z</time>
      </trkpt>
      <trkpt lat="44.90368" lon="0.7932">
        <ele>170.4</ele>
        <time>2025-05-10T10:22:45Z</time>
      </trkpt>
      <trkpt lat="44.90367" lon="0.79318">
        <ele>170.4</ele>
        <time>2025-05-10T10:22:46Z</time>
      </trkpt>
      <trkpt lat="44.90366" lon="0.79316">
        <ele>170.4</ele>
        <time>2025-05-10T10:22:47Z</time>
      </trkpt>
      <trkpt lat="44.90365" lon="0.79314">
        <ele>170.6</ele>
        <time>2025-05-10T10:22:48Z</time>
      </trkpt>
      <trkpt lat="44.90364" lon="0.79312">
        <ele>170.6</ele>
        <time>2025-05-10T10:22:49Z</time>
      </trkpt>
      <trkpt lat="44.90363" lon="0.7931">
        <ele>170.8</ele>
        <time>2025-05-10T10:22:50Z</time>
      </trkpt>
      <trkpt lat="44.90362" lon="0.79308">
        <ele>171</ele>
        <time>2025-05-10T10:22:51Z</time>
      </trkpt>
      <trkpt lat="44.90361" lon="0.79306">
        <ele>171.2</ele>
        <time>2025-05-10T10:22:52Z</time>
      </trkpt>
      <trkpt lat="44.9036" lon="0.79304">
        <ele>171.2</ele>
        <time>2025-05-10T10:22:53Z</time>
      </trkpt>
      <trkpt lat="44.90359" lon="0.79302">
        <ele>171.4</ele>
        <time>2025-05-10T10:22:54Z</time>
      </trkpt>
      <trkpt lat="44.90358" lon="0.793">
        <ele>171.8</ele>
        <time>2025-05-10T10:22:55Z</time>
      </trkpt>
      <trkpt lat="44.90356" lon="0.79299">
        <ele>171.8</ele>
        <time>2025-05-10T10:22:56Z</time>
      </trkpt>
      <trkpt lat="44.90355" lon="0.79298">
        <ele>172</ele>
        <time>2025-05-10T10:22:57Z</time>
      </trkpt>
      <trkpt lat="44.90353" lon="0.79297">
        <ele>172.2</ele>
        <time>2025-05-10T10:22:58Z</time>
      </trkpt>
      <trkpt lat="44.90352" lon="0.79296">
        <ele>172.6</ele>
        <time>2025-05-10T10:22:59Z</time>
      </trkpt>
      <trkpt lat="44.9035" lon="0.79295">
        <ele>172.8</ele>
        <time>2025-05-10T10:23:00Z</time>
      </trkpt>
      <trkpt lat="44.90348" lon="0.79294">
        <ele>172.8</ele>
        <time>2025-05-10T10:23:01Z</time>
      </trkpt>
      <trkpt lat="44.90347" lon="0.79293">
        <ele>173.2</ele>
        <time>2025-05-10T10:23:02Z</time>
      </trkpt>
      <trkpt lat="44.90345" lon="0.79292">
        <ele>173.4</ele>
        <time>2025-05-10T10:23:03Z</time>
      </trkpt>
      <trkpt lat="44.90343" lon="0.79291">
        <ele>173.6</ele>
        <time>2025-05-10T10:23:04Z</time>
      </trkpt>
      <trkpt lat="44.90342" lon="0.7929">
        <ele>173.8</ele>
        <time>2025-05-10T10:23:05Z</time>
      </trkpt>
      <trkpt lat="44.9034" lon="0.79289">
        <ele>174</ele>
        <time>2025-05-10T10:23:06Z</time>
      </trkpt>
      <trkpt lat="44.90339" lon="0.79289">
        <ele>174</ele>
        <time>2025-05-10T10:23:07Z</time>
      </trkpt>
      <trkpt lat="44.90337" lon="0.79288">
        <ele>174.4</ele>
        <time>2025-05-10T10:23:08Z</time>
      </trkpt>
      <trkpt lat="44.90336" lon="0.79287">
        <ele>174.6</ele>
        <time>2025-05-10T10:23:09Z</time>
      </trkpt>
      <trkpt lat="44.90335" lon="0.79287">
        <ele>174.6</ele>
        <time>2025-05-10T10:23:10Z</time>
      </trkpt>
      <trkpt lat="44.90333" lon="0.79286">
        <ele>175</ele>
        <time>2025-05-10T10:23:11Z</time>
      </trkpt>
      <trkpt lat="44.90332" lon="0.79286">
        <ele>175.2</ele>
        <time>2025-05-10T10:23:12Z</time>
      </trkpt>
      <trkpt lat="44.9033" lon="0.79285">
        <ele>175.4</ele>
        <time>2025-05-10T10:23:13Z</time>
      </trkpt>
      <trkpt lat="44.90329" lon="0.79284">
        <ele>175.6</ele>
        <time>2025-05-10T10:23:14Z</time>
      </trkpt>
      <trkpt lat="44.90327" lon="0.79284">
        <ele>175.8</ele>
        <time>2025-05-10T10:23:15Z</time>
      </trkpt>
      <trkpt lat="44.90326" lon="0.79283">
        <ele>176</ele>
        <time>2025-05-10T10:23:16Z</time>
      </trkpt>
      <trkpt lat="44.90325" lon="0.79282">
        <ele>176.4</ele>
        <time>2025-05-10T10:23:17Z</time>
      </trkpt>
      <trkpt lat="44.90323" lon="0.79281">
        <ele>176.6</ele>
        <time>2025-05-10T10:23:18Z</time>
      </trkpt>
      <trkpt lat="44.90322" lon="0.79281">
        <ele>176.8</ele>
        <time>2025-05-10T10:23:19Z</time>
      </trkpt>
      <trkpt lat="44.90321" lon="0.7928">
        <ele>177</ele>
        <time>2025-05-10T10:23:20Z</time>
      </trkpt>
      <trkpt lat="44.9032" lon="0.7928">
        <ele>177.2</ele>
        <time>2025-05-10T10:23:21Z</time>
      </trkpt>
      <trkpt lat="44.90318" lon="0.79279">
        <ele>177.4</ele>
        <time>2025-05-10T10:23:22Z</time>
      </trkpt>
      <trkpt lat="44.90317" lon="0.79278">
        <ele>177.8</ele>
        <time>2025-05-10T10:23:23Z</time>
      </trkpt>
      <trkpt lat="44.90315" lon="0.79278">
        <ele>177.8</ele>
        <time>2025-05-10T10:23:24Z</time>
      </trkpt>
      <trkpt lat="44.90314" lon="0.79277">
        <ele>178.2</ele>
        <time>2025-05-10T10:23:25Z</time>
      </trkpt>
      <trkpt lat="44.90313" lon="0.79277">
        <ele>178.4</ele>
        <time>2025-05-10T10:23:26Z</time>
      </trkpt>
      <trkpt lat="44.90311" lon="0.79276">
        <ele>178.4</ele>
        <time>2025-05-10T10:23:27Z</time>
      </trkpt>
      <trkpt lat="44.9031" lon="0.79276">
        <ele>178.6</ele>
        <time>2025-05-10T10:23:28Z</time>
      </trkpt>
      <trkpt lat="44.90308" lon="0.79275">
        <ele>178.8</ele>
        <time>2025-05-10T10:23:29Z</time>
      </trkpt>
      <trkpt lat="44.90307" lon="0.79274">
        <ele>179</ele>
        <time>2025-05-10T10:23:30Z</time>
      </trkpt>
      <trkpt lat="44.90306" lon="0.79273">
        <ele>179.2</ele>
        <time>2025-05-10T10:23:31Z</time>
      </trkpt>
      <trkpt lat="44.90305" lon="0.79272">
        <ele>179.4</ele>
        <time>2025-05-10T10:23:32Z</time>
      </trkpt>
      <trkpt lat="44.90303" lon="0.79271">
        <ele>179.6</ele>
        <time>2025-05-10T10:23:33Z</time>
      </trkpt>
      <trkpt lat="44.90302" lon="0.79271">
        <ele>179.8</ele>
        <time>2025-05-10T10:23:34Z</time>
      </trkpt>
      <trkpt lat="44.90301" lon="0.7927">
        <ele>180</ele>
        <time>2025-05-10T10:23:35Z</time>
      </trkpt>
      <trkpt lat="44.903" lon="0.7927">
        <ele>180.4</ele>
        <time>2025-05-10T10:23:36Z</time>
      </trkpt>
      <trkpt lat="44.90298" lon="0.79269">
        <ele>180.6</ele>
        <time>2025-05-10T10:23:37Z</time>
      </trkpt>
      <trkpt lat="44.90297" lon="0.79269">
        <ele>180.6</ele>
        <time>2025-05-10T10:23:38Z</time>
      </trkpt>
      <trkpt lat="44.90296" lon="0.79268">
        <ele>180.8</ele>
        <time>2025-05-10T10:23:39Z</time>
      </trkpt>
      <trkpt lat="44.90294" lon="0.79267">
        <ele>181</ele>
        <time>2025-05-10T10:23:40Z</time>
      </trkpt>
      <trkpt lat="44.90293" lon="0.79267">
        <ele>181.2</ele>
        <time>2025-05-10T10:23:41Z</time>
      </trkpt>
      <trkpt lat="44.90291" lon="0.79266">
        <ele>181.6</ele>
        <time>2025-05-10T10:23:42Z</time>
      </trkpt>
      <trkpt lat="44.9029" lon="0.79265">
        <ele>181.6</ele>
        <time>2025-05-10T10:23:43Z</time>
      </trkpt>
      <trkpt lat="44.90288" lon="0.79265">
        <ele>181.8</ele>
        <time>2025-05-10T10:23:44Z</time>
      </trkpt>
      <trkpt lat="44.90286" lon="0.79264">
        <ele>182</ele>
        <time>2025-05-10T10:23:45Z</time>
      </trkpt>
      <trkpt lat="44.90285" lon="0.79263">
        <ele>182.2</ele>
        <time>2025-05-10T10:23:46Z</time>
      </trkpt>
      <trkpt lat="44.90283" lon="0.79263">
        <ele>182.4</ele>
        <time>2025-05-10T10:23:47Z</time>
      </trkpt>
      <trkpt lat="44.90282" lon="0.79262">
        <ele>182.4</ele>
        <time>2025-05-10T10:23:48Z</time>
      </trkpt>
      <trkpt lat="44.9028" lon="0.79261">
        <ele>182.6</ele>
        <time>2025-05-10T10:23:49Z</time>
      </trkpt>
      <trkpt lat="44.90278" lon="0.7926">
        <ele>182.6</ele>
        <time>2025-05-10T10:23:50Z</time>
      </trkpt>
      <trkpt lat="44.90276" lon="0.79259">
        <ele>182.6</ele>
        <time>2025-05-10T10:23:51Z</time>
      </trkpt>
      <trkpt lat="44.90273" lon="0.79258">
        <ele>182.8</ele>
        <time>2025-05-10T10:23:52Z</time>
      </trkpt>
      <trkpt lat="44.90271" lon="0.79257">
        <ele>182.8</ele>
        <time>2025-05-10T10:23:53Z</time>
      </trkpt>
      <trkpt lat="44.90269" lon="0.79256">
        <ele>182.8</ele>
        <time>2025-05-10T10:23:54Z</time>
      </trkpt>
      <trkpt lat="44.90268" lon="0.79255">
        <ele>182.8</ele>
        <time>2025-05-10T10:23:55Z</time>
      </trkpt>
      <trkpt lat="44.90266" lon="0.79254">
        <ele>182.8</ele>
        <time>2025-05-10T10:23:56Z</time>
      </trkpt>
      <trkpt lat="44.90264" lon="0.79253">
        <ele>182.8</ele>
        <time>2025-05-10T10:23:57Z</time>
      </trkpt>
      <trkpt lat="44.90262" lon="0.79252">
        <ele>183</ele>
        <time>2025-05-10T10:23:58Z</time>
      </trkpt>
      <trkpt lat="44.9026" lon="0.79251">
        <ele>183</ele>
        <time>2025-05-10T10:23:59Z</time>
      </trkpt>
      <trkpt lat="44.90258" lon="0.7925">
        <ele>183</ele>
        <time>2025-05-10T10:24:00Z</time>
      </trkpt>
      <trkpt lat="44.90256" lon="0.79249">
        <ele>183</ele>
        <time>2025-05-10T10:24:01Z</time>
      </trkpt>
      <trkpt lat="44.90254" lon="0.79248">
        <ele>183.4</ele>
        <time>2025-05-10T10:24:02Z</time>
      </trkpt>
      <trkpt lat="44.90252" lon="0.79247">
        <ele>183.6</ele>
        <time>2025-05-10T10:24:03Z</time>
      </trkpt>
      <trkpt lat="44.9025" lon="0.79246">
        <ele>183.6</ele>
        <time>2025-05-10T10:24:04Z</time>
      </trkpt>
      <trkpt lat="44.90248" lon="0.79244">
        <ele>183.8</ele>
        <time>2025-05-10T10:24:05Z</time>
      </trkpt>
      <trkpt lat="44.90246" lon="0.79242">
        <ele>183.8</ele>
        <time>2025-05-10T10:24:06Z</time>
      </trkpt>
      <trkpt lat="44.90244" lon="0.7924">
        <ele>183.8</ele>
        <time>2025-05-10T10:24:07Z</time>
      </trkpt>
      <trkpt lat="44.90242" lon="0.79238">
        <ele>183.8</ele>
        <time>2025-05-10T10:24:08Z</time>
      </trkpt>
      <trkpt lat="44.90239" lon="0.79236">
        <ele>183.6</ele>
        <time>2025-05-10T10:24:09Z</time>
      </trkpt>
      <trkpt lat="44.90237" lon="0.79233">
        <ele>183.6</ele>
        <time>2025-05-10T10:24:10Z</time>
      </trkpt>
      <trkpt lat="44.90235" lon="0.7923">
        <ele>183.6</ele>
        <time>2025-05-10T10:24:11Z</time>
      </trkpt>
      <trkpt lat="44.90232" lon="0.79227">
        <ele>183.6</ele>
        <time>2025-05-10T10:24:12Z</time>
      </trkpt>
      <trkpt lat="44.90229" lon="0.79223">
        <ele>183.4</ele>
        <time>2025-05-10T10:24:13Z</time>
      </trkpt>
      <trkpt lat="44.90226" lon="0.7922">
        <ele>183.4</ele>
        <time>2025-05-10T10:24:14Z</time>
      </trkpt>
      <trkpt lat="44.90223" lon="0.79216">
        <ele>183.4</ele>
        <time>2025-05-10T10:24:15Z</time>
      </trkpt>
      <trkpt lat="44.9022" lon="0.79213">
        <ele>183.4</ele>
        <time>2025-05-10T10:24:16Z</time>
      </trkpt>
      <trkpt lat="44.90217" lon="0.79209">
        <ele>183</ele>
        <time>2025-05-10T10:24:17Z</time>
      </trkpt>
      <trkpt lat="44.90214" lon="0.79206">
        <ele>182.6</ele>
        <time>2025-05-10T10:24:18Z</time>
      </trkpt>
      <trkpt lat="44.90211" lon="0.79203">
        <ele>182.4</ele>
        <time>2025-05-10T10:24:19Z</time>
      </trkpt>
      <trkpt lat="44.90207" lon="0.792">
        <ele>182</ele>
        <time>2025-05-10T10:24:20Z</time>
      </trkpt>
      <trkpt lat="44.90204" lon="0.79197">
        <ele>182</ele>
        <time>2025-05-10T10:24:21Z</time>
      </trkpt>
      <trkpt lat="44.90201" lon="0.79194">
        <ele>182</ele>
        <time>2025-05-10T10:24:22Z</time>
      </trkpt>
      <trkpt lat="44.90197" lon="0.7919">
        <ele>182</ele>
        <time>2025-05-10T10:24:23Z</time>
      </trkpt>
      <trkpt lat="44.90195" lon="0.79187">
        <ele>182</ele>
        <time>2025-05-10T10:24:24Z</time>
      </trkpt>
      <trkpt lat="44.90195" lon="0.79182">
        <ele>182.2</ele>
        <time>2025-05-10T10:24:25Z</time>
      </trkpt>
      <trkpt lat="44.90196" lon="0.79178">
        <ele>182.2</ele>
        <time>2025-05-10T10:24:26Z</time>
      </trkpt>
      <trkpt lat="44.90197" lon="0.79174">
        <ele>182.2</ele>
        <time>2025-05-10T10:24:27Z</time>
      </trkpt>
      <trkpt lat="44.90199" lon="0.79169">
        <ele>182.2</ele>
        <time>2025-05-10T10:24:28Z</time>
      </trkpt>
      <trkpt lat="44.90201" lon="0.79165">
        <ele>182.2</ele>
        <time>2025-05-10T10:24:29Z</time>
      </trkpt>
      <trkpt lat="44.90203" lon="0.79161">
        <ele>182.2</ele>
        <time>2025-05-10T10:24:30Z</time>
      </trkpt>
      <trkpt lat="44.90204" lon="0.79157">
        <ele>182.2</ele>
        <time>2025-05-10T10:24:31Z</time>
      </trkpt>
      <trkpt lat="44.90206" lon="0.79151">
        <ele>182.2</ele>
        <time>2025-05-10T10:24:32Z</time>
      </trkpt>
      <trkpt lat="44.90208" lon="0.79146">
        <ele>182.2</ele>
        <time>2025-05-10T10:24:33Z</time>
      </trkpt>
      <trkpt lat="44.9021" lon="0.79141">
        <ele>182.2</ele>
        <time>2025-05-10T10:24:34Z</time>
      </trkpt>
      <trkpt lat="44.90212" lon="0.79136">
        <ele>182.2</ele>
        <time>2025-05-10T10:24:35Z</time>
      </trkpt>
      <trkpt lat="44.90214" lon="0.7913">
        <ele>182</ele>
        <time>2025-05-10T10:24:36Z</time>
      </trkpt>
      <trkpt lat="44.90216" lon="0.79124">
        <ele>182</ele>
        <time>2025-05-10T10:24:37Z</time>
      </trkpt>
      <trkpt lat="44.90218" lon="0.79118">
        <ele>182</ele>
        <time>2025-05-10T10:24:38Z</time>
      </trkpt>
      <trkpt lat="44.90221" lon="0.79112">
        <ele>181.8</ele>
        <time>2025-05-10T10:24:39Z</time>
      </trkpt>
      <trkpt lat="44.90223" lon="0.79106">
        <ele>181.8</ele>
        <time>2025-05-10T10:24:40Z</time>
      </trkpt>
      <trkpt lat="44.90224" lon="0.79099">
        <ele>181.8</ele>
        <time>2025-05-10T10:24:41Z</time>
      </trkpt>
      <trkpt lat="44.90223" lon="0.79093">
        <ele>181.6</ele>
        <time>2025-05-10T10:24:42Z</time>
      </trkpt>
      <trkpt lat="44.90221" lon="0.79088">
        <ele>181.6</ele>
        <time>2025-05-10T10:24:43Z</time>
      </trkpt>
      <trkpt lat="44.90219" lon="0.79084">
        <ele>181.6</ele>
        <time>2025-05-10T10:24:44Z</time>
      </trkpt>
      <trkpt lat="44.90216" lon="0.7908">
        <ele>181.6</ele>
        <time>2025-05-10T10:24:45Z</time>
      </trkpt>
      <trkpt lat="44.90213" lon="0.79076">
        <ele>181.6</ele>
        <time>2025-05-10T10:24:46Z</time>
      </trkpt>
      <trkpt lat="44.9021" lon="0.79072">
        <ele>181.8</ele>
        <time>2025-05-10T10:24:47Z</time>
      </trkpt>
      <trkpt lat="44.90207" lon="0.7907">
        <ele>181.8</ele>
        <time>2025-05-10T10:24:48Z</time>
      </trkpt>
      <trkpt lat="44.90204" lon="0.79068">
        <ele>181.8</ele>
        <time>2025-05-10T10:24:49Z</time>
      </trkpt>
      <trkpt lat="44.90201" lon="0.79065">
        <ele>182</ele>
        <time>2025-05-10T10:24:50Z</time>
      </trkpt>
      <trkpt lat="44.90198" lon="0.79062">
        <ele>182.2</ele>
        <time>2025-05-10T10:24:51Z</time>
      </trkpt>
      <trkpt lat="44.90195" lon="0.79059">
        <ele>182.6</ele>
        <time>2025-05-10T10:24:52Z</time>
      </trkpt>
      <trkpt lat="44.90193" lon="0.79055">
        <ele>183.2</ele>
        <time>2025-05-10T10:24:53Z</time>
      </trkpt>
      <trkpt lat="44.9019" lon="0.79051">
        <ele>183.6</ele>
        <time>2025-05-10T10:24:54Z</time>
      </trkpt>
      <trkpt lat="44.90187" lon="0.79048">
        <ele>183.8</ele>
        <time>2025-05-10T10:24:55Z</time>
      </trkpt>
      <trkpt lat="44.90185" lon="0.79044">
        <ele>184.2</ele>
        <time>2025-05-10T10:24:56Z</time>
      </trkpt>
      <trkpt lat="44.90182" lon="0.7904">
        <ele>184.2</ele>
        <time>2025-05-10T10:24:57Z</time>
      </trkpt>
      <trkpt lat="44.90178" lon="0.79037">
        <ele>184.2</ele>
        <time>2025-05-10T10:24:58Z</time>
      </trkpt>
      <trkpt lat="44.90174" lon="0.79036">
        <ele>184.2</ele>
        <time>2025-05-10T10:24:59Z</time>
      </trkpt>
      <trkpt lat="44.9017" lon="0.79036">
        <ele>184.2</ele>
        <time>2025-05-10T10:25:00Z</time>
      </trkpt>
      <trkpt lat="44.90166" lon="0.79039">
        <ele>184</ele>
        <time>2025-05-10T10:25:01Z</time>
      </trkpt>
      <trkpt lat="44.90163" lon="0.79044">
        <ele>184</ele>
        <time>2025-05-10T10:25:02Z</time>
      </trkpt>
      <trkpt lat="44.9016" lon="0.7905">
        <ele>184</ele>
        <time>2025-05-10T10:25:03Z</time>
      </trkpt>
      <trkpt lat="44.90157" lon="0.79055">
        <ele>183.8</ele>
        <time>2025-05-10T10:25:04Z</time>
      </trkpt>
      <trkpt lat="44.90154" lon="0.79062">
        <ele>183.8</ele>
        <time>2025-05-10T10:25:05Z</time>
      </trkpt>
      <trkpt lat="44.90151" lon="0.79068">
        <ele>183.6</ele>
        <time>2025-05-10T10:25:06Z</time>
      </trkpt>
      <trkpt lat="44.90147" lon="0.79074">
        <ele>183.2</ele>
        <time>2025-05-10T10:25:07Z</time>
      </trkpt>
      <trkpt lat="44.90144" lon="0.79081">
        <ele>182.8</ele>
        <time>2025-05-10T10:25:08Z</time>
      </trkpt>
      <trkpt lat="44.90141" lon="0.79089">
        <ele>182.6</ele>
        <time>2025-05-10T10:25:09Z</time>
      </trkpt>
      <trkpt lat="44.90137" lon="0.79096">
        <ele>182.6</ele>
        <time>2025-05-10T10:25:10Z</time>
      </trkpt>
      <trkpt lat="44.90132" lon="0.79101">
        <ele>182.4</ele>
        <time>2025-05-10T10:25:11Z</time>
      </trkpt>
      <trkpt lat="44.90126" lon="0.79102">
        <ele>182.2</ele>
        <time>2025-05-10T10:25:12Z</time>
      </trkpt>
      <trkpt lat="44.90121" lon="0.791">
        <ele>181.6</ele>
        <time>2025-05-10T10:25:13Z</time>
      </trkpt>
      <trkpt lat="44.90115" lon="0.79096">
        <ele>181</ele>
        <time>2025-05-10T10:25:14Z</time>
      </trkpt>
      <trkpt lat="44.9011" lon="0.79092">
        <ele>180.8</ele>
        <time>2025-05-10T10:25:15Z</time>
      </trkpt>
      <trkpt lat="44.90104" lon="0.79089">
        <ele>180.8</ele>
        <time>2025-05-10T10:25:16Z</time>
      </trkpt>
      <trkpt lat="44.90098" lon="0.79086">
        <ele>180.8</ele>
        <time>2025-05-10T10:25:17Z</time>
      </trkpt>
      <trkpt lat="44.90092" lon="0.79083">
        <ele>180.8</ele>
        <time>2025-05-10T10:25:18Z</time>
      </trkpt>
      <trkpt lat="44.90086" lon="0.7908">
        <ele>180.8</ele>
        <time>2025-05-10T10:25:19Z</time>
      </trkpt>
      <trkpt lat="44.9008" lon="0.79077">
        <ele>180.8</ele>
        <time>2025-05-10T10:25:20Z</time>
      </trkpt>
      <trkpt lat="44.90073" lon="0.79075">
        <ele>180.6</ele>
        <time>2025-05-10T10:25:21Z</time>
      </trkpt>
      <trkpt lat="44.90067" lon="0.79074">
        <ele>180.4</ele>
        <time>2025-05-10T10:25:22Z</time>
      </trkpt>
      <trkpt lat="44.90061" lon="0.79074">
        <ele>180.2</ele>
        <time>2025-05-10T10:25:23Z</time>
      </trkpt>
      <trkpt lat="44.90056" lon="0.79076">
        <ele>180</ele>
        <time>2025-05-10T10:25:24Z</time>
      </trkpt>
      <trkpt lat="44.9005" lon="0.79077">
        <ele>180</ele>
        <time>2025-05-10T10:25:25Z</time>
      </trkpt>
      <trkpt lat="44.90045" lon="0.7908">
        <ele>180</ele>
        <time>2025-05-10T10:25:26Z</time>
      </trkpt>
      <trkpt lat="44.90039" lon="0.79083">
        <ele>180</ele>
        <time>2025-05-10T10:25:27Z</time>
      </trkpt>
      <trkpt lat="44.90033" lon="0.79087">
        <ele>180</ele>
        <time>2025-05-10T10:25:28Z</time>
      </trkpt>
      <trkpt lat="44.90028" lon="0.7909">
        <ele>179.6</ele>
        <time>2025-05-10T10:25:29Z</time>
      </trkpt>
      <trkpt lat="44.90022" lon="0.79092">
        <ele>179.6</ele>
        <time>2025-05-10T10:25:30Z</time>
      </trkpt>
      <trkpt lat="44.90016" lon="0.79096">
        <ele>179</ele>
        <time>2025-05-10T10:25:31Z</time>
      </trkpt>
      <trkpt lat="44.9001" lon="0.79099">
        <ele>178.6</ele>
        <time>2025-05-10T10:25:32Z</time>
      </trkpt>
      <trkpt lat="44.90004" lon="0.79102">
        <ele>178.4</ele>
        <time>2025-05-10T10:25:33Z</time>
      </trkpt>
      <trkpt lat="44.89998" lon="0.79104">
        <ele>178</ele>
        <time>2025-05-10T10:25:34Z</time>
      </trkpt>
      <trkpt lat="44.89992" lon="0.79107">
        <ele>177.8</ele>
        <time>2025-05-10T10:25:35Z</time>
      </trkpt>
      <trkpt lat="44.89986" lon="0.7911">
        <ele>177.6</ele>
        <time>2025-05-10T10:25:36Z</time>
      </trkpt>
      <trkpt lat="44.89981" lon="0.79113">
        <ele>177.2</ele>
        <time>2025-05-10T10:25:37Z</time>
      </trkpt>
      <trkpt lat="44.89974" lon="0.79116">
        <ele>176.8</ele>
        <time>2025-05-10T10:25:38Z</time>
      </trkpt>
      <trkpt lat="44.89968" lon="0.79118">
        <ele>176.6</ele>
        <time>2025-05-10T10:25:39Z</time>
      </trkpt>
      <trkpt lat="44.89962" lon="0.7912">
        <ele>176.6</ele>
        <time>2025-05-10T10:25:40Z</time>
      </trkpt>
      <trkpt lat="44.89956" lon="0.79122">
        <ele>176.4</ele>
        <time>2025-05-10T10:25:41Z</time>
      </trkpt>
      <trkpt lat="44.8995" lon="0.79123">
        <ele>176.2</ele>
        <time>2025-05-10T10:25:42Z</time>
      </trkpt>
      <trkpt lat="44.89944" lon="0.79127">
        <ele>176</ele>
        <time>2025-05-10T10:25:43Z</time>
      </trkpt>
      <trkpt lat="44.89939" lon="0.79132">
        <ele>176</ele>
        <time>2025-05-10T10:25:44Z</time>
      </trkpt>
      <trkpt lat="44.89933" lon="0.79136">
        <ele>175</ele>
        <time>2025-05-10T10:25:45Z</time>
      </trkpt>
      <trkpt lat="44.89927" lon="0.7914">
        <ele>174.8</ele>
        <time>2025-05-10T10:25:46Z</time>
      </trkpt>
      <trkpt lat="44.8992" lon="0.79144">
        <ele>174.2</ele>
        <time>2025-05-10T10:25:47Z</time>
      </trkpt>
      <trkpt lat="44.89913" lon="0.79149">
        <ele>173.2</ele>
        <time>2025-05-10T10:25:48Z</time>
      </trkpt>
      <trkpt lat="44.89906" lon="0.79153">
        <ele>172.2</ele>
        <time>2025-05-10T10:25:49Z</time>
      </trkpt>
      <trkpt lat="44.89899" lon="0.79156">
        <ele>171.2</ele>
        <time>2025-05-10T10:25:50Z</time>
      </trkpt>
      <trkpt lat="44.89891" lon="0.79161">
        <ele>170.2</ele>
        <time>2025-05-10T10:25:51Z</time>
      </trkpt>
      <trkpt lat="44.89884" lon="0.79167">
        <ele>169</ele>
        <time>2025-05-10T10:25:52Z</time>
      </trkpt>
      <trkpt lat="44.89876" lon="0.79172">
        <ele>168</ele>
        <time>2025-05-10T10:25:53Z</time>
      </trkpt>
      <trkpt lat="44.89868" lon="0.79174">
        <ele>165.8</ele>
        <time>2025-05-10T10:25:54Z</time>
      </trkpt>
      <trkpt lat="44.89861" lon="0.79176">
        <ele>164.6</ele>
        <time>2025-05-10T10:25:55Z</time>
      </trkpt>
      <trkpt lat="44.89853" lon="0.7918">
        <ele>162.8</ele>
        <time>2025-05-10T10:25:56Z</time>
      </trkpt>
      <trkpt lat="44.89848" lon="0.79186">
        <ele>160.2</ele>
        <time>2025-05-10T10:25:57Z</time>
      </trkpt>
      <trkpt lat="44.89842" lon="0.79194">
        <ele>159.4</ele>
        <time>2025-05-10T10:25:58Z</time>
      </trkpt>
      <trkpt lat="44.89838" lon="0.79203">
        <ele>157.6</ele>
        <time>2025-05-10T10:25:59Z</time>
      </trkpt>
      <trkpt lat="44.89835" lon="0.79213">
        <ele>156.4</ele>
        <time>2025-05-10T10:26:00Z</time>
      </trkpt>
      <trkpt lat="44.89834" lon="0.79223">
        <ele>155</ele>
        <time>2025-05-10T10:26:01Z</time>
      </trkpt>
      <trkpt lat="44.89831" lon="0.79233">
        <ele>152.4</ele>
        <time>2025-05-10T10:26:02Z</time>
      </trkpt>
      <trkpt lat="44.89826" lon="0.7924">
        <ele>151.8</ele>
        <time>2025-05-10T10:26:03Z</time>
      </trkpt>
      <trkpt lat="44.89821" lon="0.79246">
        <ele>151.2</ele>
        <time>2025-05-10T10:26:04Z</time>
      </trkpt>
      <trkpt lat="44.89818" lon="0.79255">
        <ele>150</ele>
        <time>2025-05-10T10:26:05Z</time>
      </trkpt>
      <trkpt lat="44.89815" lon="0.79262">
        <ele>148.8</ele>
        <time>2025-05-10T10:26:06Z</time>
      </trkpt>
      <trkpt lat="44.8981" lon="0.79268">
        <ele>147.4</ele>
        <time>2025-05-10T10:26:07Z</time>
      </trkpt>
      <trkpt lat="44.89803" lon="0.7927">
        <ele>146.4</ele>
        <time>2025-05-10T10:26:08Z</time>
      </trkpt>
      <trkpt lat="44.89796" lon="0.79274">
        <ele>145.2</ele>
        <time>2025-05-10T10:26:09Z</time>
      </trkpt>
      <trkpt lat="44.89788" lon="0.79279">
        <ele>143.6</ele>
        <time>2025-05-10T10:26:10Z</time>
      </trkpt>
      <trkpt lat="44.89779" lon="0.79285">
        <ele>141.6</ele>
        <time>2025-05-10T10:26:11Z</time>
      </trkpt>
      <trkpt lat="44.8977" lon="0.79291">
        <ele>140.8</ele>
        <time>2025-05-10T10:26:12Z</time>
      </trkpt>
      <trkpt lat="44.89761" lon="0.79295">
        <ele>139.8</ele>
        <time>2025-05-10T10:26:13Z</time>
      </trkpt>
      <trkpt lat="44.89751" lon="0.79301">
        <ele>137.6</ele>
        <time>2025-05-10T10:26:14Z</time>
      </trkpt>
      <trkpt lat="44.89741" lon="0.79306">
        <ele>135.6</ele>
        <time>2025-05-10T10:26:15Z</time>
      </trkpt>
      <trkpt lat="44.8973" lon="0.79311">
        <ele>133.6</ele>
        <time>2025-05-10T10:26:16Z</time>
      </trkpt>
      <trkpt lat="44.89719" lon="0.79315">
        <ele>131.4</ele>
        <time>2025-05-10T10:26:17Z</time>
      </trkpt>
      <trkpt lat="44.89709" lon="0.79319">
        <ele>128.4</ele>
        <time>2025-05-10T10:26:18Z</time>
      </trkpt>
      <trkpt lat="44.89698" lon="0.79325">
        <ele>126.4</ele>
        <time>2025-05-10T10:26:19Z</time>
      </trkpt>
      <trkpt lat="44.89688" lon="0.79331">
        <ele>124.8</ele>
        <time>2025-05-10T10:26:20Z</time>
      </trkpt>
      <trkpt lat="44.89677" lon="0.79339">
        <ele>123.2</ele>
        <time>2025-05-10T10:26:21Z</time>
      </trkpt>
      <trkpt lat="44.89667" lon="0.79345">
        <ele>121.2</ele>
        <time>2025-05-10T10:26:22Z</time>
      </trkpt>
      <trkpt lat="44.89658" lon="0.79349">
        <ele>119.4</ele>
        <time>2025-05-10T10:26:23Z</time>
      </trkpt>
      <trkpt lat="44.89649" lon="0.79355">
        <ele>118.6</ele>
        <time>2025-05-10T10:26:24Z</time>
      </trkpt>
      <trkpt lat="44.89642" lon="0.79361">
        <ele>117.8</ele>
        <time>2025-05-10T10:26:25Z</time>
      </trkpt>
      <trkpt lat="44.89635" lon="0.79367">
        <ele>117.8</ele>
        <time>2025-05-10T10:26:26Z</time>
      </trkpt>
      <trkpt lat="44.89628" lon="0.79372">
        <ele>117.8</ele>
        <time>2025-05-10T10:26:27Z</time>
      </trkpt>
      <trkpt lat="44.89622" lon="0.79378">
        <ele>117.8</ele>
        <time>2025-05-10T10:26:28Z</time>
      </trkpt>
      <trkpt lat="44.89616" lon="0.79383">
        <ele>118.2</ele>
        <time>2025-05-10T10:26:29Z</time>
      </trkpt>
      <trkpt lat="44.89611" lon="0.79388">
        <ele>118.4</ele>
        <time>2025-05-10T10:26:30Z</time>
      </trkpt>
      <trkpt lat="44.89607" lon="0.79392">
        <ele>118.8</ele>
        <time>2025-05-10T10:26:31Z</time>
      </trkpt>
      <trkpt lat="44.89602" lon="0.79395">
        <ele>119</ele>
        <time>2025-05-10T10:26:32Z</time>
      </trkpt>
      <trkpt lat="44.89599" lon="0.79398">
        <ele>119.4</ele>
        <time>2025-05-10T10:26:33Z</time>
      </trkpt>
      <trkpt lat="44.89595" lon="0.794">
        <ele>119.6</ele>
        <time>2025-05-10T10:26:34Z</time>
      </trkpt>
      <trkpt lat="44.89593" lon="0.79402">
        <ele>119.8</ele>
        <time>2025-05-10T10:26:35Z</time>
      </trkpt>
      <trkpt lat="44.89592" lon="0.79405">
        <ele>119.8</ele>
        <time>2025-05-10T10:26:36Z</time>
      </trkpt>
      <trkpt lat="44.89591" lon="0.79407">
        <ele>119.8</ele>
        <time>2025-05-10T10:26:37Z</time>
      </trkpt>
      <trkpt lat="44.89591" lon="0.79407">
        <ele>119.8</ele>
        <time>2025-05-10T10:26:38Z</time>
      </trkpt>
      <trkpt lat="44.89592" lon="0.79407">
        <ele>120</ele>
        <time>2025-05-10T10:26:39Z</time>
      </trkpt>
      <trkpt lat="44.896" lon="0.79411">
        <ele>121.2</ele>
        <time>2025-05-10T10:26:58Z</time>
      </trkpt>
      <trkpt lat="44.89602" lon="0.79411">
        <ele>121.4</ele>
        <time>2025-05-10T10:26:59Z</time>
      </trkpt>
      <trkpt lat="44.89603" lon="0.79412">
        <ele>121.4</ele>
        <time>2025-05-10T10:27:00Z</time>
      </trkpt>
      <trkpt lat="44.89604" lon="0.79413">
        <ele>121.6</ele>
        <time>2025-05-10T10:27:01Z</time>
      </trkpt>
      <trkpt lat="44.89605" lon="0.79414">
        <ele>121.8</ele>
        <time>2025-05-10T10:27:02Z</time>
      </trkpt>
      <trkpt lat="44.89606" lon="0.79415">
        <ele>122.2</ele>
        <time>2025-05-10T10:27:03Z</time>
      </trkpt>
      <trkpt lat="44.89607" lon="0.79415">
        <ele>122.2</ele>
        <time>2025-05-10T10:27:04Z</time>
      </trkpt>
      <trkpt lat="44.89609" lon="0.79415">
        <ele>122.4</ele>
        <time>2025-05-10T10:27:05Z</time>
      </trkpt>
      <trkpt lat="44.8961" lon="0.79416">
        <ele>122.6</ele>
        <time>2025-05-10T10:27:06Z</time>
      </trkpt>
      <trkpt lat="44.89612" lon="0.79417">
        <ele>122.8</ele>
        <time>2025-05-10T10:27:07Z</time>
      </trkpt>
      <trkpt lat="44.89613" lon="0.79418">
        <ele>123</ele>
        <time>2025-05-10T10:27:08Z</time>
      </trkpt>
      <trkpt lat="44.89614" lon="0.79419">
        <ele>123.2</ele>
        <time>2025-05-10T10:27:09Z</time>
      </trkpt>
      <trkpt lat="44.89615" lon="0.7942">
        <ele>123.4</ele>
        <time>2025-05-10T10:27:10Z</time>
      </trkpt>
      <trkpt lat="44.89616" lon="0.79421">
        <ele>123.8</ele>
        <time>2025-05-10T10:27:11Z</time>
      </trkpt>
      <trkpt lat="44.89617" lon="0.79422">
        <ele>124</ele>
        <time>2025-05-10T10:27:12Z</time>
      </trkpt>
      <trkpt lat="44.89618" lon="0.79423">
        <ele>124</ele>
        <time>2025-05-10T10:27:13Z</time>
      </trkpt>
      <trkpt lat="44.89619" lon="0.79425">
        <ele>124.4</ele>
        <time>2025-05-10T10:27:14Z</time>
      </trkpt>
      <trkpt lat="44.89619" lon="0.79427">
        <ele>124.6</ele>
        <time>2025-05-10T10:27:15Z</time>
      </trkpt>
      <trkpt lat="44.8962" lon="0.79429">
        <ele>124.8</ele>
        <time>2025-05-10T10:27:16Z</time>
      </trkpt>
      <trkpt lat="44.89621" lon="0.7943">
        <ele>125</ele>
        <time>2025-05-10T10:27:17Z</time>
      </trkpt>
      <trkpt lat="44.89621" lon="0.79431">
        <ele>125.2</ele>
        <time>2025-05-10T10:27:18Z</time>
      </trkpt>
      <trkpt lat="44.89622" lon="0.79433">
        <ele>125.2</ele>
        <time>2025-05-10T10:27:19Z</time>
      </trkpt>
      <trkpt lat="44.89624" lon="0.79434">
        <ele>125.6</ele>
        <time>2025-05-10T10:27:20Z</time>
      </trkpt>
      <trkpt lat="44.89625" lon="0.79435">
        <ele>125.8</ele>
        <time>2025-05-10T10:27:21Z</time>
      </trkpt>
      <trkpt lat="44.89625" lon="0.79436">
        <ele>125.8</ele>
        <time>2025-05-10T10:27:22Z</time>
      </trkpt>
      <trkpt lat="44.89626" lon="0.79437">
        <ele>126.2</ele>
        <time>2025-05-10T10:27:23Z</time>
      </trkpt>
      <trkpt lat="44.89627" lon="0.79438">
        <ele>126.4</ele>
        <time>2025-05-10T10:27:24Z</time>
      </trkpt>
      <trkpt lat="44.89629" lon="0.79438">
        <ele>126.8</ele>
        <time>2025-05-10T10:27:25Z</time>
      </trkpt>
      <trkpt lat="44.8963" lon="0.79439">
        <ele>126.8</ele>
        <time>2025-05-10T10:27:26Z</time>
      </trkpt>
      <trkpt lat="44.89631" lon="0.79441">
        <ele>127.2</ele>
        <time>2025-05-10T10:27:27Z</time>
      </trkpt>
      <trkpt lat="44.89632" lon="0.79442">
        <ele>127.2</ele>
        <time>2025-05-10T10:27:28Z</time>
      </trkpt>
      <trkpt lat="44.89632" lon="0.79444">
        <ele>127.6</ele>
        <time>2025-05-10T10:27:29Z</time>
      </trkpt>
      <trkpt lat="44.89633" lon="0.79445">
        <ele>127.8</ele>
        <time>2025-05-10T10:27:30Z</time>
      </trkpt>
      <trkpt lat="44.89634" lon="0.79447">
        <ele>128</ele>
        <time>2025-05-10T10:27:31Z</time>
      </trkpt>
      <trkpt lat="44.89635" lon="0.79449">
        <ele>128.2</ele>
        <time>2025-05-10T10:27:32Z</time>
      </trkpt>
      <trkpt lat="44.89637" lon="0.7945">
        <ele>128.4</ele>
        <time>2025-05-10T10:27:33Z</time>
      </trkpt>
      <trkpt lat="44.89638" lon="0.79451">
        <ele>128.8</ele>
        <time>2025-05-10T10:27:34Z</time>
      </trkpt>
      <trkpt lat="44.89639" lon="0.79452">
        <ele>128.8</ele>
        <time>2025-05-10T10:27:35Z</time>
      </trkpt>
      <trkpt lat="44.8964" lon="0.79453">
        <ele>129</ele>
        <time>2025-05-10T10:27:36Z</time>
      </trkpt>
      <trkpt lat="44.89641" lon="0.79454">
        <ele>129.4</ele>
        <time>2025-05-10T10:27:37Z</time>
      </trkpt>
      <trkpt lat="44.89642" lon="0.79455">
        <ele>129.6</ele>
        <time>2025-05-10T10:27:38Z</time>
      </trkpt>
      <trkpt lat="44.89643" lon="0.79456">
        <ele>129.8</ele>
        <time>2025-05-10T10:27:39Z</time>
      </trkpt>
      <trkpt lat="44.89645" lon="0.79457">
        <ele>129.8</ele>
        <time>2025-05-10T10:27:40Z</time>
      </trkpt>
      <trkpt lat="44.89646" lon="0.79458">
        <ele>130</ele>
        <time>2025-05-10T10:27:41Z</time>
      </trkpt>
      <trkpt lat="44.89647" lon="0.79459">
        <ele>130.2</ele>
        <time>2025-05-10T10:27:42Z</time>
      </trkpt>
      <trkpt lat="44.89648" lon="0.79459">
        <ele>130.4</ele>
        <time>2025-05-10T10:27:43Z</time>
      </trkpt>
      <trkpt lat="44.89649" lon="0.7946">
        <ele>130.6</ele>
        <time>2025-05-10T10:27:44Z</time>
      </trkpt>
      <trkpt lat="44.89651" lon="0.79461">
        <ele>130.8</ele>
        <time>2025-05-10T10:27:45Z</time>
      </trkpt>
      <trkpt lat="44.89652" lon="0.79462">
        <ele>131</ele>
        <time>2025-05-10T10:27:46Z</time>
      </trkpt>
      <trkpt lat="44.89653" lon="0.79462">
        <ele>131.2</ele>
        <time>2025-05-10T10:27:47Z</time>
      </trkpt>
      <trkpt lat="44.89654" lon="0.79463">
        <ele>131.4</ele>
        <time>2025-05-10T10:27:48Z</time>
      </trkpt>
      <trkpt lat="44.89655" lon="0.79464">
        <ele>131.4</ele>
        <time>2025-05-10T10:27:49Z</time>
      </trkpt>
      <trkpt lat="44.89656" lon="0.79465">
        <ele>131.8</ele>
        <time>2025-05-10T10:27:50Z</time>
      </trkpt>
      <trkpt lat="44.89657" lon="0.79466">
        <ele>132</ele>
        <time>2025-05-10T10:27:51Z</time>
      </trkpt>
      <trkpt lat="44.89658" lon="0.79467">
        <ele>132.2</ele>
        <time>2025-05-10T10:27:52Z</time>
      </trkpt>
      <trkpt lat="44.89659" lon="0.79468">
        <ele>132.2</ele>
        <time>2025-05-10T10:27:53Z</time>
      </trkpt>
      <trkpt lat="44.89661" lon="0.79468">
        <ele>132.4</ele>
        <time>2025-05-10T10:27:54Z</time>
      </trkpt>
      <trkpt lat="44.89662" lon="0.79469">
        <ele>132.6</ele>
        <time>2025-05-10T10:27:55Z</time>
      </trkpt>
      <trkpt lat="44.89663" lon="0.7947">
        <ele>132.8</ele>
        <time>2025-05-10T10:27:56Z</time>
      </trkpt>
      <trkpt lat="44.89664" lon="0.7947">
        <ele>133</ele>
        <time>2025-05-10T10:27:57Z</time>
      </trkpt>
      <trkpt lat="44.89665" lon="0.7947">
        <ele>133</ele>
        <time>2025-05-10T10:27:58Z</time>
      </trkpt>
      <trkpt lat="44.89667" lon="0.79471">
        <ele>133.4</ele>
        <time>2025-05-10T10:27:59Z</time>
      </trkpt>
      <trkpt lat="44.89668" lon="0.79472">
        <ele>133.4</ele>
        <time>2025-05-10T10:28:00Z</time>
      </trkpt>
      <trkpt lat="44.89669" lon="0.79473">
        <ele>133.8</ele>
        <time>2025-05-10T10:28:01Z</time>
      </trkpt>
      <trkpt lat="44.8967" lon="0.79473">
        <ele>134</ele>
        <time>2025-05-10T10:28:02Z</time>
      </trkpt>
      <trkpt lat="44.89671" lon="0.79475">
        <ele>134.2</ele>
        <time>2025-05-10T10:28:03Z</time>
      </trkpt>
      <trkpt lat="44.89672" lon="0.79476">
        <ele>134.2</ele>
        <time>2025-05-10T10:28:04Z</time>
      </trkpt>
      <trkpt lat="44.89672" lon="0.79477">
        <ele>134.4</ele>
        <time>2025-05-10T10:28:05Z</time>
      </trkpt>
      <trkpt lat="44.89673" lon="0.79479">
        <ele>134.6</ele>
        <time>2025-05-10T10:28:06Z</time>
      </trkpt>
      <trkpt lat="44.89674" lon="0.79481">
        <ele>134.8</ele>
        <time>2025-05-10T10:28:07Z</time>
      </trkpt>
      <trkpt lat="44.89675" lon="0.79482">
        <ele>135</ele>
        <time>2025-05-10T10:28:08Z</time>
      </trkpt>
      <trkpt lat="44.89676" lon="0.79483">
        <ele>135.2</ele>
        <time>2025-05-10T10:28:09Z</time>
      </trkpt>
      <trkpt lat="44.89677" lon="0.79484">
        <ele>135.4</ele>
        <time>2025-05-10T10:28:10Z</time>
      </trkpt>
      <trkpt lat="44.89678" lon="0.79485">
        <ele>135.4</ele>
        <time>2025-05-10T10:28:11Z</time>
      </trkpt>
      <trkpt lat="44.89679" lon="0.79486">
        <ele>135.6</ele>
        <time>2025-05-10T10:28:12Z</time>
      </trkpt>
      <trkpt lat="44.8968" lon="0.79487">
        <ele>135.8</ele>
        <time>2025-05-10T10:28:13Z</time>
      </trkpt>
      <trkpt lat="44.89681" lon="0.79488">
        <ele>136</ele>
        <time>2025-05-10T10:28:14Z</time>
      </trkpt>
      <trkpt lat="44.89682" lon="0.79489">
        <ele>136.2</ele>
        <time>2025-05-10T10:28:15Z</time>
      </trkpt>
      <trkpt lat="44.89683" lon="0.7949">
        <ele>136.4</ele>
        <time>2025-05-10T10:28:16Z</time>
      </trkpt>
      <trkpt lat="44.89684" lon="0.79491">
        <ele>136.6</ele>
        <time>2025-05-10T10:28:17Z</time>
      </trkpt>
      <trkpt lat="44.89685" lon="0.79492">
        <ele>136.8</ele>
        <time>2025-05-10T10:28:18Z</time>
      </trkpt>
      <trkpt lat="44.89686" lon="0.79493">
        <ele>137</ele>
        <time>2025-05-10T10:28:19Z</time>
      </trkpt>
      <trkpt lat="44.89687" lon="0.79495">
        <ele>137.2</ele>
        <time>2025-05-10T10:28:20Z</time>
      </trkpt>
      <trkpt lat="44.89688" lon="0.79496">
        <ele>137.2</ele>
        <time>2025-05-10T10:28:21Z</time>
      </trkpt>
      <trkpt lat="44.89689" lon="0.79497">
        <ele>137.4</ele>
        <time>2025-05-10T10:28:22Z</time>
      </trkpt>
      <trkpt lat="44.89691" lon="0.79498">
        <ele>137.6</ele>
        <time>2025-05-10T10:28:23Z</time>
      </trkpt>
      <trkpt lat="44.89692" lon="0.795">
        <ele>137.8</ele>
        <time>2025-05-10T10:28:24Z</time>
      </trkpt>
      <trkpt lat="44.89693" lon="0.795">
        <ele>138</ele>
        <time>2025-05-10T10:28:25Z</time>
      </trkpt>
      <trkpt lat="44.89694" lon="0.79501">
        <ele>138.2</ele>
        <time>2025-05-10T10:28:26Z</time>
      </trkpt>
      <trkpt lat="44.89696" lon="0.79502">
        <ele>138.4</ele>
        <time>2025-05-10T10:28:27Z</time>
      </trkpt>
      <trkpt lat="44.89697" lon="0.79504">
        <ele>138.4</ele>
        <time>2025-05-10T10:28:28Z</time>
      </trkpt>
      <trkpt lat="44.89698" lon="0.79505">
        <ele>138.6</ele>
        <time>2025-05-10T10:28:29Z</time>
      </trkpt>
      <trkpt lat="44.89699" lon="0.79506">
        <ele>138.8</ele>
        <time>2025-05-10T10:28:30Z</time>
      </trkpt>
      <trkpt lat="44.897" lon="0.79507">
        <ele>139</ele>
        <time>2025-05-10T10:28:31Z</time>
      </trkpt>
      <trkpt lat="44.89701" lon="0.79508">
        <ele>139.2</ele>
        <time>2025-05-10T10:28:32Z</time>
      </trkpt>
      <trkpt lat="44.89702" lon="0.79509">
        <ele>139.4</ele>
        <time>2025-05-10T10:28:33Z</time>
      </trkpt>
      <trkpt lat="44.89703" lon="0.7951">
        <ele>139.6</ele>
        <time>2025-05-10T10:28:34Z</time>
      </trkpt>
      <trkpt lat="44.89704" lon="0.79511">
        <ele>139.8</ele>
        <time>2025-05-10T10:28:35Z</time>
      </trkpt>
      <trkpt lat="44.89705" lon="0.79513">
        <ele>140</ele>
        <time>2025-05-10T10:28:36Z</time>
      </trkpt>
      <trkpt lat="44.89706" lon="0.79514">
        <ele>140</ele>
        <time>2025-05-10T10:28:37Z</time>
      </trkpt>
      <trkpt lat="44.89707" lon="0.79515">
        <ele>140.2</ele>
        <time>2025-05-10T10:28:38Z</time>
      </trkpt>
      <trkpt lat="44.89709" lon="0.79516">
        <ele>140.6</ele>
        <time>2025-05-10T10:28:39Z</time>
      </trkpt>
      <trkpt lat="44.8971" lon="0.79517">
        <ele>140.8</ele>
        <time>2025-05-10T10:28:40Z</time>
      </trkpt>
      <trkpt lat="44.89711" lon="0.79518">
        <ele>141</ele>
        <time>2025-05-10T10:28:41Z</time>
      </trkpt>
      <trkpt lat="44.89712" lon="0.79519">
        <ele>141</ele>
        <time>2025-05-10T10:28:42Z</time>
      </trkpt>
      <trkpt lat="44.89714" lon="0.7952">
        <ele>141</ele>
        <time>2025-05-10T10:28:43Z</time>
      </trkpt>
      <trkpt lat="44.89715" lon="0.79521">
        <ele>141.4</ele>
        <time>2025-05-10T10:28:44Z</time>
      </trkpt>
      <trkpt lat="44.89717" lon="0.79521">
        <ele>141.6</ele>
        <time>2025-05-10T10:28:45Z</time>
      </trkpt>
      <trkpt lat="44.89718" lon="0.79522">
        <ele>141.6</ele>
        <time>2025-05-10T10:28:46Z</time>
      </trkpt>
      <trkpt lat="44.89719" lon="0.79523">
        <ele>141.8</ele>
        <time>2025-05-10T10:28:47Z</time>
      </trkpt>
      <trkpt lat="44.8972" lon="0.79524">
        <ele>142</ele>
        <time>2025-05-10T10:28:48Z</time>
      </trkpt>
      <trkpt lat="44.89721" lon="0.79525">
        <ele>142.2</ele>
        <time>2025-05-10T10:28:49Z</time>
      </trkpt>
      <trkpt lat="44.89722" lon="0.79526">
        <ele>142.4</ele>
        <time>2025-05-10T10:28:50Z</time>
      </trkpt>
      <trkpt lat="44.89723" lon="0.79527">
        <ele>142.6</ele>
        <time>2025-05-10T10:28:51Z</time>
      </trkpt>
      <trkpt lat="44.89725" lon="0.79528">
        <ele>142.8</ele>
        <time>2025-05-10T10:28:52Z</time>
      </trkpt>
      <trkpt lat="44.89726" lon="0.79529">
        <ele>142.8</ele>
        <time>2025-05-10T10:28:53Z</time>
      </trkpt>
      <trkpt lat="44.89727" lon="0.79531">
        <ele>143</ele>
        <time>2025-05-10T10:28:54Z</time>
      </trkpt>
      <trkpt lat="44.89729" lon="0.79532">
        <ele>143</ele>
        <time>2025-05-10T10:28:55Z</time>
      </trkpt>
      <trkpt lat="44.8973" lon="0.79533">
        <ele>143.2</ele>
        <time>2025-05-10T10:28:56Z</time>
      </trkpt>
      <trkpt lat="44.89731" lon="0.79534">
        <ele>143.2</ele>
        <time>2025-05-10T10:28:57Z</time>
      </trkpt>
      <trkpt lat="44.89732" lon="0.79535">
        <ele>143.4</ele>
        <time>2025-05-10T10:28:58Z</time>
      </trkpt>
      <trkpt lat="44.89733" lon="0.79536">
        <ele>143.4</ele>
        <time>2025-05-10T10:28:59Z</time>
      </trkpt>
      <trkpt lat="44.89735" lon="0.79537">
        <ele>143.6</ele>
        <time>2025-05-10T10:29:00Z</time>
      </trkpt>
      <trkpt lat="44.89736" lon="0.79539">
        <ele>143.8</ele>
        <time>2025-05-10T10:29:01Z</time>
      </trkpt>
      <trkpt lat="44.89737" lon="0.7954">
        <ele>144</ele>
        <time>2025-05-10T10:29:02Z</time>
      </trkpt>
      <trkpt lat="44.89738" lon="0.79541">
        <ele>144.2</ele>
        <time>2025-05-10T10:29:03Z</time>
      </trkpt>
      <trkpt lat="44.8974" lon="0.79543">
        <ele>144.4</ele>
        <time>2025-05-10T10:29:04Z</time>
      </trkpt>
      <trkpt lat="44.89741" lon="0.79544">
        <ele>144.6</ele>
        <time>2025-05-10T10:29:05Z</time>
      </trkpt>
      <trkpt lat="44.89742" lon="0.79545">
        <ele>144.8</ele>
        <time>2025-05-10T10:29:06Z</time>
      </trkpt>
      <trkpt lat="44.89743" lon="0.79546">
        <ele>145</ele>
        <time>2025-05-10T10:29:07Z</time>
      </trkpt>
      <trkpt lat="44.89744" lon="0.79548">
        <ele>145.2</ele>
        <time>2025-05-10T10:29:08Z</time>
      </trkpt>
      <trkpt lat="44.89746" lon="0.79549">
        <ele>145.4</ele>
        <time>2025-05-10T10:29:09Z</time>
      </trkpt>
      <trkpt lat="44.89747" lon="0.7955">
        <ele>145.6</ele>
        <time>2025-05-10T10:29:10Z</time>
      </trkpt>
      <trkpt lat="44.89748" lon="0.79552">
        <ele>146</ele>
        <time>2025-05-10T10:29:11Z</time>
      </trkpt>
      <trkpt lat="44.89749" lon="0.79553">
        <ele>146.2</ele>
        <time>2025-05-10T10:29:12Z</time>
      </trkpt>
      <trkpt lat="44.8975" lon="0.79554">
        <ele>146.4</ele>
        <time>2025-05-10T10:29:13Z</time>
      </trkpt>
      <trkpt lat="44.89751" lon="0.79555">
        <ele>146.6</ele>
        <time>2025-05-10T10:29:14Z</time>
      </trkpt>
      <trkpt lat="44.89752" lon="0.79557">
        <ele>146.8</ele>
        <time>2025-05-10T10:29:15Z</time>
      </trkpt>
      <trkpt lat="44.89754" lon="0.79558">
        <ele>147</ele>
        <time>2025-05-10T10:29:16Z</time>
      </trkpt>
      <trkpt lat="44.89755" lon="0.79559">
        <ele>147.2</ele>
        <time>2025-05-10T10:29:17Z</time>
      </trkpt>
      <trkpt lat="44.89756" lon="0.79561">
        <ele>147.4</ele>
        <time>2025-05-10T10:29:18Z</time>
      </trkpt>
      <trkpt lat="44.89757" lon="0.79562">
        <ele>147.6</ele>
        <time>2025-05-10T10:29:19Z</time>
      </trkpt>
      <trkpt lat="44.89758" lon="0.79564">
        <ele>147.6</ele>
        <time>2025-05-10T10:29:20Z</time>
      </trkpt>
      <trkpt lat="44.89759" lon="0.79566">
        <ele>148</ele>
        <time>2025-05-10T10:29:21Z</time>
      </trkpt>
      <trkpt lat="44.8976" lon="0.79567">
        <ele>148.2</ele>
        <time>2025-05-10T10:29:22Z</time>
      </trkpt>
      <trkpt lat="44.89761" lon="0.79569">
        <ele>148.2</ele>
        <time>2025-05-10T10:29:23Z</time>
      </trkpt>
      <trkpt lat="44.89762" lon="0.7957">
        <ele>148.4</ele>
        <time>2025-05-10T10:29:24Z</time>
      </trkpt>
      <trkpt lat="44.89764" lon="0.79571">
        <ele>148.6</ele>
        <time>2025-05-10T10:29:25Z</time>
      </trkpt>
      <trkpt lat="44.89764" lon="0.79573">
        <ele>148.6</ele>
        <time>2025-05-10T10:29:26Z</time>
      </trkpt>
      <trkpt lat="44.89765" lon="0.79574">
        <ele>148.8</ele>
        <time>2025-05-10T10:29:27Z</time>
      </trkpt>
      <trkpt lat="44.89766" lon="0.79575">
        <ele>149</ele>
        <time>2025-05-10T10:29:28Z</time>
      </trkpt>
      <trkpt lat="44.89767" lon="0.79577">
        <ele>149</ele>
        <time>2025-05-10T10:29:29Z</time>
      </trkpt>
      <trkpt lat="44.89768" lon="0.79578">
        <ele>149.4</ele>
        <time>2025-05-10T10:29:30Z</time>
      </trkpt>
      <trkpt lat="44.89769" lon="0.7958">
        <ele>149.4</ele>
        <time>2025-05-10T10:29:31Z</time>
      </trkpt>
      <trkpt lat="44.8977" lon="0.79581">
        <ele>149.8</ele>
        <time>2025-05-10T10:29:32Z</time>
      </trkpt>
      <trkpt lat="44.89771" lon="0.79583">
        <ele>149.8</ele>
        <time>2025-05-10T10:29:33Z</time>
      </trkpt>
      <trkpt lat="44.89772" lon="0.79584">
        <ele>150</ele>
        <time>2025-05-10T10:29:34Z</time>
      </trkpt>
      <trkpt lat="44.89773" lon="0.79586">
        <ele>150.2</ele>
        <time>2025-05-10T10:29:35Z</time>
      </trkpt>
      <trkpt lat="44.89774" lon="0.79587">
        <ele>150.4</ele>
        <time>2025-05-10T10:29:36Z</time>
      </trkpt>
      <trkpt lat="44.89775" lon="0.79589">
        <ele>150.6</ele>
        <time>2025-05-10T10:29:37Z</time>
      </trkpt>
      <trkpt lat="44.89776" lon="0.7959">
        <ele>151</ele>
        <time>2025-05-10T10:29:38Z</time>
      </trkpt>
      <trkpt lat="44.89777" lon="0.79592">
        <ele>151</ele>
        <time>2025-05-10T10:29:39Z</time>
      </trkpt>
      <trkpt lat="44.89778" lon="0.79593">
        <ele>151.4</ele>
        <time>2025-05-10T10:29:40Z</time>
      </trkpt>
      <trkpt lat="44.89779" lon="0.79595">
        <ele>151.6</ele>
        <time>2025-05-10T10:29:41Z</time>
      </trkpt>
      <trkpt lat="44.8978" lon="0.79596">
        <ele>151.8</ele>
        <time>2025-05-10T10:29:42Z</time>
      </trkpt>
      <trkpt lat="44.89781" lon="0.79598">
        <ele>152</ele>
        <time>2025-05-10T10:29:43Z</time>
      </trkpt>
      <trkpt lat="44.89781" lon="0.796">
        <ele>152.2</ele>
        <time>2025-05-10T10:29:44Z</time>
      </trkpt>
      <trkpt lat="44.89782" lon="0.79601">
        <ele>152.2</ele>
        <time>2025-05-10T10:29:45Z</time>
      </trkpt>
      <trkpt lat="44.89784" lon="0.79603">
        <ele>152.6</ele>
        <time>2025-05-10T10:29:46Z</time>
      </trkpt>
      <trkpt lat="44.89785" lon="0.79604">
        <ele>152.6</ele>
        <time>2025-05-10T10:29:47Z</time>
      </trkpt>
      <trkpt lat="44.89786" lon="0.79606">
        <ele>153</ele>
        <time>2025-05-10T10:29:48Z</time>
      </trkpt>
      <trkpt lat="44.89787" lon="0.79607">
        <ele>153.2</ele>
        <time>2025-05-10T10:29:49Z</time>
      </trkpt>
      <trkpt lat="44.89787" lon="0.79609">
        <ele>153.4</ele>
        <time>2025-05-10T10:29:50Z</time>
      </trkpt>
      <trkpt lat="44.89788" lon="0.7961">
        <ele>153.6</ele>
        <time>2025-05-10T10:29:51Z</time>
      </trkpt>
      <trkpt lat="44.89789" lon="0.79612">
        <ele>153.8</ele>
        <time>2025-05-10T10:29:52Z</time>
      </trkpt>
      <trkpt lat="44.8979" lon="0.79613">
        <ele>153.8</ele>
        <time>2025-05-10T10:29:53Z</time>
      </trkpt>
      <trkpt lat="44.89791" lon="0.79615">
        <ele>154</ele>
        <time>2025-05-10T10:29:54Z</time>
      </trkpt>
      <trkpt lat="44.89792" lon="0.79616">
        <ele>154.4</ele>
        <time>2025-05-10T10:29:55Z</time>
      </trkpt>
      <trkpt lat="44.89793" lon="0.79618">
        <ele>154.4</ele>
        <time>2025-05-10T10:29:56Z</time>
      </trkpt>
      <trkpt lat="44.89795" lon="0.79619">
        <ele>154.8</ele>
        <time>2025-05-10T10:29:57Z</time>
      </trkpt>
      <trkpt lat="44.89796" lon="0.79621">
        <ele>155</ele>
        <time>2025-05-10T10:29:58Z</time>
      </trkpt>
      <trkpt lat="44.89797" lon="0.79622">
        <ele>155.2</ele>
        <time>2025-05-10T10:29:59Z</time>
      </trkpt>
      <trkpt lat="44.89797" lon="0.79624">
        <ele>155.4</ele>
        <time>2025-05-10T10:30:00Z</time>
      </trkpt>
      <trkpt lat="44.89798" lon="0.79626">
        <ele>155.6</ele>
        <time>2025-05-10T10:30:01Z</time>
      </trkpt>
      <trkpt lat="44.89799" lon="0.79627">
        <ele>155.8</ele>
        <time>2025-05-10T10:30:02Z</time>
      </trkpt>
      <trkpt lat="44.89799" lon="0.79629">
        <ele>156</ele>
        <time>2025-05-10T10:30:03Z</time>
      </trkpt>
      <trkpt lat="44.898" lon="0.7963">
        <ele>156.2</ele>
        <time>2025-05-10T10:30:04Z</time>
      </trkpt>
      <trkpt lat="44.89801" lon="0.79631">
        <ele>156.4</ele>
        <time>2025-05-10T10:30:05Z</time>
      </trkpt>
      <trkpt lat="44.89802" lon="0.79633">
        <ele>156.4</ele>
        <time>2025-05-10T10:30:06Z</time>
      </trkpt>
      <trkpt lat="44.89803" lon="0.79634">
        <ele>156.6</ele>
        <time>2025-05-10T10:30:07Z</time>
      </trkpt>
      <trkpt lat="44.89804" lon="0.79636">
        <ele>156.8</ele>
        <time>2025-05-10T10:30:08Z</time>
      </trkpt>
      <trkpt lat="44.89805" lon="0.79637">
        <ele>157.2</ele>
        <time>2025-05-10T10:30:09Z</time>
      </trkpt>
      <trkpt lat="44.89806" lon="0.79639">
        <ele>157.6</ele>
        <time>2025-05-10T10:30:10Z</time>
      </trkpt>
      <trkpt lat="44.89807" lon="0.79641">
        <ele>157.6</ele>
        <time>2025-05-10T10:30:11Z</time>
      </trkpt>
      <trkpt lat="44.89808" lon="0.79642">
        <ele>157.8</ele>
        <time>2025-05-10T10:30:12Z</time>
      </trkpt>
      <trkpt lat="44.89809" lon="0.79644">
        <ele>158</ele>
        <time>2025-05-10T10:30:13Z</time>
      </trkpt>
      <trkpt lat="44.89811" lon="0.79646">
        <ele>158</ele>
        <time>2025-05-10T10:30:14Z</time>
      </trkpt>
      <trkpt lat="44.89811" lon="0.79649">
        <ele>158.2</ele>
        <time>2025-05-10T10:30:15Z</time>
      </trkpt>
      <trkpt lat="44.89812" lon="0.7965">
        <ele>158.4</ele>
        <time>2025-05-10T10:30:16Z</time>
      </trkpt>
      <trkpt lat="44.89813" lon="0.79652">
        <ele>158.6</ele>
        <time>2025-05-10T10:30:17Z</time>
      </trkpt>
      <trkpt lat="44.89814" lon="0.79653">
        <ele>158.8</ele>
        <time>2025-05-10T10:30:18Z</time>
      </trkpt>
      <trkpt lat="44.89815" lon="0.79655">
        <ele>159</ele>
        <time>2025-05-10T10:30:19Z</time>
      </trkpt>
      <trkpt lat="44.89816" lon="0.79656">
        <ele>159</ele>
        <time>2025-05-10T10:30:20Z</time>
      </trkpt>
      <trkpt lat="44.89817" lon="0.79658">
        <ele>159.2</ele>
        <time>2025-05-10T10:30:21Z</time>
      </trkpt>
      <trkpt lat="44.89818" lon="0.79659">
        <ele>159.4</ele>
        <time>2025-05-10T10:30:22Z</time>
      </trkpt>
      <trkpt lat="44.89819" lon="0.79661">
        <ele>159.6</ele>
        <time>2025-05-10T10:30:23Z</time>
      </trkpt>
      <trkpt lat="44.8982" lon="0.79662">
        <ele>159.6</ele>
        <time>2025-05-10T10:30:24Z</time>
      </trkpt>
      <trkpt lat="44.89821" lon="0.79663">
        <ele>159.8</ele>
        <time>2025-05-10T10:30:25Z</time>
      </trkpt>
      <trkpt lat="44.89822" lon="0.79665">
        <ele>159.8</ele>
        <time>2025-05-10T10:30:26Z</time>
      </trkpt>
      <trkpt lat="44.89822" lon="0.79666">
        <ele>160.2</ele>
        <time>2025-05-10T10:30:27Z</time>
      </trkpt>
      <trkpt lat="44.89823" lon="0.79667">
        <ele>160.4</ele>
        <time>2025-05-10T10:30:28Z</time>
      </trkpt>
      <trkpt lat="44.89824" lon="0.79669">
        <ele>160.6</ele>
        <time>2025-05-10T10:30:29Z</time>
      </trkpt>
      <trkpt lat="44.89826" lon="0.7967">
        <ele>160.8</ele>
        <time>2025-05-10T10:30:30Z</time>
      </trkpt>
      <trkpt lat="44.89826" lon="0.79672">
        <ele>161</ele>
        <time>2025-05-10T10:30:31Z</time>
      </trkpt>
      <trkpt lat="44.89827" lon="0.79673">
        <ele>161.2</ele>
        <time>2025-05-10T10:30:32Z</time>
      </trkpt>
      <trkpt lat="44.89828" lon="0.79675">
        <ele>161.4</ele>
        <time>2025-05-10T10:30:33Z</time>
      </trkpt>
      <trkpt lat="44.89829" lon="0.79677">
        <ele>161.6</ele>
        <time>2025-05-10T10:30:34Z</time>
      </trkpt>
      <trkpt lat="44.89831" lon="0.79678">
        <ele>161.8</ele>
        <time>2025-05-10T10:30:35Z</time>
      </trkpt>
      <trkpt lat="44.89832" lon="0.79679">
        <ele>162</ele>
        <time>2025-05-10T10:30:36Z</time>
      </trkpt>
      <trkpt lat="44.89833" lon="0.7968">
        <ele>162</ele>
        <time>2025-05-10T10:30:37Z</time>
      </trkpt>
      <trkpt lat="44.89833" lon="0.79681">
        <ele>162.2</ele>
        <time>2025-05-10T10:30:38Z</time>
      </trkpt>
      <trkpt lat="44.89834" lon="0.79682">
        <ele>162.4</ele>
        <time>2025-05-10T10:30:39Z</time>
      </trkpt>
      <trkpt lat="44.89835" lon="0.79683">
        <ele>162.4</ele>
        <time>2025-05-10T10:30:40Z</time>
      </trkpt>
      <trkpt lat="44.89836" lon="0.79685">
        <ele>162.4</ele>
        <time>2025-05-10T10:30:41Z</time>
      </trkpt>
      <trkpt lat="44.89837" lon="0.79686">
        <ele>162.6</ele>
        <time>2025-05-10T10:30:42Z</time>
      </trkpt>
      <trkpt lat="44.89838" lon="0.79687">
        <ele>163</ele>
        <time>2025-05-10T10:30:43Z</time>
      </trkpt>
      <trkpt lat="44.89839" lon="0.79688">
        <ele>163.2</ele>
        <time>2025-05-10T10:30:44Z</time>
      </trkpt>
      <trkpt lat="44.8984" lon="0.79689">
        <ele>163.6</ele>
        <time>2025-05-10T10:30:45Z</time>
      </trkpt>
      <trkpt lat="44.89841" lon="0.7969">
        <ele>163.8</ele>
        <time>2025-05-10T10:30:46Z</time>
      </trkpt>
      <trkpt lat="44.89842" lon="0.79691">
        <ele>164.2</ele>
        <time>2025-05-10T10:30:47Z</time>
      </trkpt>
      <trkpt lat="44.89843" lon="0.79692">
        <ele>164.6</ele>
        <time>2025-05-10T10:30:48Z</time>
      </trkpt>
      <trkpt lat="44.89844" lon="0.79693">
        <ele>164.8</ele>
        <time>2025-05-10T10:30:49Z</time>
      </trkpt>
      <trkpt lat="44.89844" lon="0.79694">
        <ele>165</ele>
        <time>2025-05-10T10:30:50Z</time>
      </trkpt>
      <trkpt lat="44.89845" lon="0.79696">
        <ele>165.2</ele>
        <time>2025-05-10T10:30:51Z</time>
      </trkpt>
      <trkpt lat="44.89846" lon="0.79697">
        <ele>165.4</ele>
        <time>2025-05-10T10:30:52Z</time>
      </trkpt>
      <trkpt lat="44.89847" lon="0.79698">
        <ele>165.6</ele>
        <time>2025-05-10T10:30:53Z</time>
      </trkpt>
      <trkpt lat="44.89848" lon="0.79699">
        <ele>165.8</ele>
        <time>2025-05-10T10:30:54Z</time>
      </trkpt>
      <trkpt lat="44.89849" lon="0.797">
        <ele>166</ele>
        <time>2025-05-10T10:30:55Z</time>
      </trkpt>
      <trkpt lat="44.8985" lon="0.79701">
        <ele>166.2</ele>
        <time>2025-05-10T10:30:56Z</time>
      </trkpt>
      <trkpt lat="44.89851" lon="0.79703">
        <ele>166.4</ele>
        <time>2025-05-10T10:30:57Z</time>
      </trkpt>
      <trkpt lat="44.89852" lon="0.79704">
        <ele>166.6</ele>
        <time>2025-05-10T10:30:58Z</time>
      </trkpt>
      <trkpt lat="44.89853" lon="0.79706">
        <ele>166.8</ele>
        <time>2025-05-10T10:30:59Z</time>
      </trkpt>
      <trkpt lat="44.89854" lon="0.79707">
        <ele>166.8</ele>
        <time>2025-05-10T10:31:00Z</time>
      </trkpt>
      <trkpt lat="44.89855" lon="0.79708">
        <ele>167</ele>
        <time>2025-05-10T10:31:01Z</time>
      </trkpt>
      <trkpt lat="44.89856" lon="0.79709">
        <ele>167</ele>
        <time>2025-05-10T10:31:02Z</time>
      </trkpt>
      <trkpt lat="44.89857" lon="0.7971">
        <ele>167.2</ele>
        <time>2025-05-10T10:31:03Z</time>
      </trkpt>
      <trkpt lat="44.89858" lon="0.79711">
        <ele>167.4</ele>
        <time>2025-05-10T10:31:04Z</time>
      </trkpt>
      <trkpt lat="44.89859" lon="0.79713">
        <ele>167.6</ele>
        <time>2025-05-10T10:31:05Z</time>
      </trkpt>
      <trkpt lat="44.89859" lon="0.79714">
        <ele>167.8</ele>
        <time>2025-05-10T10:31:06Z</time>
      </trkpt>
      <trkpt lat="44.8986" lon="0.79715">
        <ele>168</ele>
        <time>2025-05-10T10:31:07Z</time>
      </trkpt>
      <trkpt lat="44.89861" lon="0.79717">
        <ele>168.2</ele>
        <time>2025-05-10T10:31:08Z</time>
      </trkpt>
      <trkpt lat="44.89862" lon="0.79718">
        <ele>168.2</ele>
        <time>2025-05-10T10:31:09Z</time>
      </trkpt>
      <trkpt lat="44.89863" lon="0.79719">
        <ele>168.6</ele>
        <time>2025-05-10T10:31:10Z</time>
      </trkpt>
      <trkpt lat="44.89864" lon="0.7972">
        <ele>168.8</ele>
        <time>2025-05-10T10:31:11Z</time>
      </trkpt>
      <trkpt lat="44.89865" lon="0.79722">
        <ele>169</ele>
        <time>2025-05-10T10:31:12Z</time>
      </trkpt>
      <trkpt lat="44.89866" lon="0.79723">
        <ele>169</ele>
        <time>2025-05-10T10:31:13Z</time>
      </trkpt>
      <trkpt lat="44.89866" lon="0.79724">
        <ele>169.2</ele>
        <time>2025-05-10T10:31:14Z</time>
      </trkpt>
      <trkpt lat="44.89867" lon="0.79725">
        <ele>169.6</ele>
        <time>2025-05-10T10:31:15Z</time>
      </trkpt>
      <trkpt lat="44.89868" lon="0.79727">
        <ele>169.8</ele>
        <time>2025-05-10T10:31:16Z</time>
      </trkpt>
      <trkpt lat="44.89868" lon="0.79729">
        <ele>170</ele>
        <time>2025-05-10T10:31:17Z</time>
      </trkpt>
      <trkpt lat="44.89869" lon="0.7973">
        <ele>170</ele>
        <time>2025-05-10T10:31:18Z</time>
      </trkpt>
      <trkpt lat="44.8987" lon="0.79731">
        <ele>170.2</ele>
        <time>2025-05-10T10:31:19Z</time>
      </trkpt>
      <trkpt lat="44.89871" lon="0.79732">
        <ele>170.4</ele>
        <time>2025-05-10T10:31:20Z</time>
      </trkpt>
      <trkpt lat="44.89872" lon="0.79734">
        <ele>170.6</ele>
        <time>2025-05-10T10:31:21Z</time>
      </trkpt>
      <trkpt lat="44.89873" lon="0.79735">
        <ele>170.8</ele>
        <time>2025-05-10T10:31:22Z</time>
      </trkpt>
      <trkpt lat="44.89874" lon="0.79736">
        <ele>170.8</ele>
        <time>2025-05-10T10:31:23Z</time>
      </trkpt>
      <trkpt lat="44.89875" lon="0.79738">
        <ele>171</ele>
        <time>2025-05-10T10:31:24Z</time>
      </trkpt>
      <trkpt lat="44.89876" lon="0.79739">
        <ele>171</ele>
        <time>2025-05-10T10:31:25Z</time>
      </trkpt>
      <trkpt lat="44.89877" lon="0.7974">
        <ele>171.4</ele>
        <time>2025-05-10T10:31:26Z</time>
      </trkpt>
      <trkpt lat="44.89878" lon="0.79742">
        <ele>171.6</ele>
        <time>2025-05-10T10:31:27Z</time>
      </trkpt>
      <trkpt lat="44.89879" lon="0.79743">
        <ele>171.8</ele>
        <time>2025-05-10T10:31:28Z</time>
      </trkpt>
      <trkpt lat="44.8988" lon="0.79744">
        <ele>172</ele>
        <time>2025-05-10T10:31:29Z</time>
      </trkpt>
      <trkpt lat="44.89881" lon="0.79745">
        <ele>172.2</ele>
        <time>2025-05-10T10:31:30Z</time>
      </trkpt>
      <trkpt lat="44.89882" lon="0.79746">
        <ele>172.6</ele>
        <time>2025-05-10T10:31:31Z</time>
      </trkpt>
      <trkpt lat="44.89883" lon="0.79747">
        <ele>172.8</ele>
        <time>2025-05-10T10:31:32Z</time>
      </trkpt>
      <trkpt lat="44.89884" lon="0.79748">
        <ele>173</ele>
        <time>2025-05-10T10:31:33Z</time>
      </trkpt>
      <trkpt lat="44.89885" lon="0.79749">
        <ele>173.2</ele>
        <time>2025-05-10T10:31:34Z</time>
      </trkpt>
      <trkpt lat="44.89886" lon="0.7975">
        <ele>173.2</ele>
        <time>2025-05-10T10:31:35Z</time>
      </trkpt>
      <trkpt lat="44.89887" lon="0.79751">
        <ele>173.4</ele>
        <time>2025-05-10T10:31:36Z</time>
      </trkpt>
      <trkpt lat="44.89887" lon="0.79752">
        <ele>173.6</ele>
        <time>2025-05-10T10:31:37Z</time>
      </trkpt>
      <trkpt lat="44.89888" lon="0.79754">
        <ele>173.8</ele>
        <time>2025-05-10T10:31:38Z</time>
      </trkpt>
      <trkpt lat="44.89889" lon="0.79755">
        <ele>173.8</ele>
        <time>2025-05-10T10:31:39Z</time>
      </trkpt>
      <trkpt lat="44.8989" lon="0.79756">
        <ele>174</ele>
        <time>2025-05-10T10:31:40Z</time>
      </trkpt>
      <trkpt lat="44.89891" lon="0.79757">
        <ele>174.2</ele>
        <time>2025-05-10T10:31:41Z</time>
      </trkpt>
      <trkpt lat="44.89892" lon="0.79759">
        <ele>174.4</ele>
        <time>2025-05-10T10:31:42Z</time>
      </trkpt>
      <trkpt lat="44.89893" lon="0.7976">
        <ele>174.6</ele>
        <time>2025-05-10T10:31:43Z</time>
      </trkpt>
      <trkpt lat="44.89894" lon="0.79761">
        <ele>174.6</ele>
        <time>2025-05-10T10:31:44Z</time>
      </trkpt>
      <trkpt lat="44.89895" lon="0.79762">
        <ele>174.6</ele>
        <time>2025-05-10T10:31:45Z</time>
      </trkpt>
      <trkpt lat="44.89896" lon="0.79764">
        <ele>174.6</ele>
        <time>2025-05-10T10:31:46Z</time>
      </trkpt>
      <trkpt lat="44.89897" lon="0.79765">
        <ele>174.8</ele>
        <time>2025-05-10T10:31:47Z</time>
      </trkpt>
      <trkpt lat="44.89898" lon="0.79767">
        <ele>175.2</ele>
        <time>2025-05-10T10:31:48Z</time>
      </trkpt>
      <trkpt lat="44.89899" lon="0.79768">
        <ele>175.4</ele>
        <time>2025-05-10T10:31:49Z</time>
      </trkpt>
      <trkpt lat="44.899" lon="0.79769">
        <ele>175.6</ele>
        <time>2025-05-10T10:31:50Z</time>
      </trkpt>
      <trkpt lat="44.89901" lon="0.7977">
        <ele>175.8</ele>
        <time>2025-05-10T10:31:51Z</time>
      </trkpt>
      <trkpt lat="44.89902" lon="0.79772">
        <ele>175.8</ele>
        <time>2025-05-10T10:31:52Z</time>
      </trkpt>
      <trkpt lat="44.89903" lon="0.79773">
        <ele>176</ele>
        <time>2025-05-10T10:31:53Z</time>
      </trkpt>
      <trkpt lat="44.89904" lon="0.79774">
        <ele>176</ele>
        <time>2025-05-10T10:31:54Z</time>
      </trkpt>
      <trkpt lat="44.89905" lon="0.79776">
        <ele>176</ele>
        <time>2025-05-10T10:31:55Z</time>
      </trkpt>
      <trkpt lat="44.89906" lon="0.79778">
        <ele>176.2</ele>
        <time>2025-05-10T10:31:56Z</time>
      </trkpt>
      <trkpt lat="44.89907" lon="0.79779">
        <ele>176.4</ele>
        <time>2025-05-10T10:31:57Z</time>
      </trkpt>
      <trkpt lat="44.89908" lon="0.7978">
        <ele>176.6</ele>
        <time>2025-05-10T10:31:58Z</time>
      </trkpt>
      <trkpt lat="44.89909" lon="0.79782">
        <ele>177</ele>
        <time>2025-05-10T10:31:59Z</time>
      </trkpt>
      <trkpt lat="44.8991" lon="0.79783">
        <ele>177.2</ele>
        <time>2025-05-10T10:32:00Z</time>
      </trkpt>
      <trkpt lat="44.89911" lon="0.79785">
        <ele>177.6</ele>
        <time>2025-05-10T10:32:01Z</time>
      </trkpt>
      <trkpt lat="44.89911" lon="0.79787">
        <ele>177.8</ele>
        <time>2025-05-10T10:32:02Z</time>
      </trkpt>
      <trkpt lat="44.89912" lon="0.79788">
        <ele>178</ele>
        <time>2025-05-10T10:32:03Z</time>
      </trkpt>
      <trkpt lat="44.89912" lon="0.7979">
        <ele>178</ele>
        <time>2025-05-10T10:32:04Z</time>
      </trkpt>
      <trkpt lat="44.89913" lon="0.79791">
        <ele>178</ele>
        <time>2025-05-10T10:32:05Z</time>
      </trkpt>
      <trkpt lat="44.89914" lon="0.79793">
        <ele>178.2</ele>
        <time>2025-05-10T10:32:06Z</time>
      </trkpt>
      <trkpt lat="44.89914" lon="0.79795">
        <ele>178.4</ele>
        <time>2025-05-10T10:32:07Z</time>
      </trkpt>
      <trkpt lat="44.89915" lon="0.79796">
        <ele>178.6</ele>
        <time>2025-05-10T10:32:08Z</time>
      </trkpt>
      <trkpt lat="44.89916" lon="0.79799">
        <ele>178.8</ele>
        <time>2025-05-10T10:32:09Z</time>
      </trkpt>
      <trkpt lat="44.89916" lon="0.798">
        <ele>179</ele>
        <time>2025-05-10T10:32:10Z</time>
      </trkpt>
      <trkpt lat="44.89917" lon="0.79802">
        <ele>179.2</ele>
        <time>2025-05-10T10:32:11Z</time>
      </trkpt>
      <trkpt lat="44.89918" lon="0.79804">
        <ele>179.6</ele>
        <time>2025-05-10T10:32:12Z</time>
      </trkpt>
      <trkpt lat="44.89918" lon="0.79805">
        <ele>179.8</ele>
        <time>2025-05-10T10:32:13Z</time>
      </trkpt>
      <trkpt lat="44.89919" lon="0.79807">
        <ele>180.2</ele>
        <time>2025-05-10T10:32:14Z</time>
      </trkpt>
      <trkpt lat="44.89919" lon="0.79809">
        <ele>180.6</ele>
        <time>2025-05-10T10:32:15Z</time>
      </trkpt>
      <trkpt lat="44.8992" lon="0.79811">
        <ele>180.6</ele>
        <time>2025-05-10T10:32:16Z</time>
      </trkpt>
      <trkpt lat="44.89921" lon="0.79813">
        <ele>180.8</ele>
        <time>2025-05-10T10:32:17Z</time>
      </trkpt>
      <trkpt lat="44.89922" lon="0.79815">
        <ele>180.8</ele>
        <time>2025-05-10T10:32:18Z</time>
      </trkpt>
      <trkpt lat="44.89923" lon="0.79817">
        <ele>181</ele>
        <time>2025-05-10T10:32:19Z</time>
      </trkpt>
      <trkpt lat="44.89924" lon="0.79819">
        <ele>181</ele>
        <time>2025-05-10T10:32:20Z</time>
      </trkpt>
      <trkpt lat="44.89926" lon="0.79821">
        <ele>181.2</ele>
        <time>2025-05-10T10:32:21Z</time>
      </trkpt>
      <trkpt lat="44.89928" lon="0.79821">
        <ele>181.2</ele>
        <time>2025-05-10T10:32:22Z</time>
      </trkpt>
      <trkpt lat="44.89929" lon="0.79822">
        <ele>181.4</ele>
        <time>2025-05-10T10:32:23Z</time>
      </trkpt>
      <trkpt lat="44.89931" lon="0.79823">
        <ele>181.6</ele>
        <time>2025-05-10T10:32:24Z</time>
      </trkpt>
      <trkpt lat="44.89933" lon="0.79825">
        <ele>181.8</ele>
        <time>2025-05-10T10:32:25Z</time>
      </trkpt>
      <trkpt lat="44.89934" lon="0.79826">
        <ele>181.8</ele>
        <time>2025-05-10T10:32:26Z</time>
      </trkpt>
      <trkpt lat="44.89935" lon="0.79828">
        <ele>182</ele>
        <time>2025-05-10T10:32:27Z</time>
      </trkpt>
      <trkpt lat="44.89936" lon="0.79829">
        <ele>182.2</ele>
        <time>2025-05-10T10:32:28Z</time>
      </trkpt>
      <trkpt lat="44.89937" lon="0.7983">
        <ele>182.2</ele>
        <time>2025-05-10T10:32:29Z</time>
      </trkpt>
      <trkpt lat="44.89939" lon="0.79832">
        <ele>182.4</ele>
        <time>2025-05-10T10:32:30Z</time>
      </trkpt>
      <trkpt lat="44.8994" lon="0.79833">
        <ele>182.4</ele>
        <time>2025-05-10T10:32:31Z</time>
      </trkpt>
      <trkpt lat="44.89942" lon="0.79835">
        <ele>182.4</ele>
        <time>2025-05-10T10:32:32Z</time>
      </trkpt>
      <trkpt lat="44.89943" lon="0.79835">
        <ele>182.6</ele>
        <time>2025-05-10T10:32:33Z</time>
      </trkpt>
      <trkpt lat="44.89945" lon="0.79837">
        <ele>182.6</ele>
        <time>2025-05-10T10:32:34Z</time>
      </trkpt>
      <trkpt lat="44.89947" lon="0.79838">
        <ele>182.8</ele>
        <time>2025-05-10T10:32:35Z</time>
      </trkpt>
      <trkpt lat="44.89948" lon="0.79839">
        <ele>183</ele>
        <time>2025-05-10T10:32:36Z</time>
      </trkpt>
      <trkpt lat="44.8995" lon="0.7984">
        <ele>183</ele>
        <time>2025-05-10T10:32:37Z</time>
      </trkpt>
      <trkpt lat="44.89952" lon="0.79842">
        <ele>183.2</ele>
        <time>2025-05-10T10:32:38Z</time>
      </trkpt>
      <trkpt lat="44.89954" lon="0.79844">
        <ele>183.4</ele>
        <time>2025-05-10T10:32:39Z</time>
      </trkpt>
      <trkpt lat="44.89956" lon="0.79845">
        <ele>183.4</ele>
        <time>2025-05-10T10:32:40Z</time>
      </trkpt>
      <trkpt lat="44.89957" lon="0.79846">
        <ele>183.6</ele>
        <time>2025-05-10T10:32:41Z</time>
      </trkpt>
      <trkpt lat="44.89959" lon="0.79847">
        <ele>183.6</ele>
        <time>2025-05-10T10:32:42Z</time>
      </trkpt>
      <trkpt lat="44.89961" lon="0.79849">
        <ele>184</ele>
        <time>2025-05-10T10:32:43Z</time>
      </trkpt>
      <trkpt lat="44.89962" lon="0.79851">
        <ele>184</ele>
        <time>2025-05-10T10:32:44Z</time>
      </trkpt>
      <trkpt lat="44.89964" lon="0.79852">
        <ele>184.2</ele>
        <time>2025-05-10T10:32:45Z</time>
      </trkpt>
      <trkpt lat="44.89966" lon="0.79853">
        <ele>184.4</ele>
        <time>2025-05-10T10:32:46Z</time>
      </trkpt>
      <trkpt lat="44.89968" lon="0.79855">
        <ele>184.6</ele>
        <time>2025-05-10T10:32:47Z</time>
      </trkpt>
      <trkpt lat="44.8997" lon="0.79856">
        <ele>184.6</ele>
        <time>2025-05-10T10:32:48Z</time>
      </trkpt>
      <trkpt lat="44.89972" lon="0.79857">
        <ele>184.8</ele>
        <time>2025-05-10T10:32:49Z</time>
      </trkpt>
      <trkpt lat="44.89974" lon="0.79859">
        <ele>184.8</ele>
        <time>2025-05-10T10:32:50Z</time>
      </trkpt>
      <trkpt lat="44.89975" lon="0.79861">
        <ele>185</ele>
        <time>2025-05-10T10:32:51Z</time>
      </trkpt>
      <trkpt lat="44.89977" lon="0.79862">
        <ele>185</ele>
        <time>2025-05-10T10:32:52Z</time>
      </trkpt>
      <trkpt lat="44.89979" lon="0.79864">
        <ele>185.2</ele>
        <time>2025-05-10T10:32:53Z</time>
      </trkpt>
      <trkpt lat="44.89981" lon="0.79866">
        <ele>185.2</ele>
        <time>2025-05-10T10:32:54Z</time>
      </trkpt>
      <trkpt lat="44.89982" lon="0.79868">
        <ele>185.4</ele>
        <time>2025-05-10T10:32:55Z</time>
      </trkpt>
      <trkpt lat="44.89983" lon="0.79871">
        <ele>185.4</ele>
        <time>2025-05-10T10:32:56Z</time>
      </trkpt>
      <trkpt lat="44.89983" lon="0.79874">
        <ele>185.6</ele>
        <time>2025-05-10T10:32:57Z</time>
      </trkpt>
      <trkpt lat="44.89982" lon="0.79877">
        <ele>185.6</ele>
        <time>2025-05-10T10:32:58Z</time>
      </trkpt>
      <trkpt lat="44.89981" lon="0.79879">
        <ele>185.6</ele>
        <time>2025-05-10T10:32:59Z</time>
      </trkpt>
      <trkpt lat="44.89979" lon="0.79882">
        <ele>185.6</ele>
        <time>2025-05-10T10:33:00Z</time>
      </trkpt>
      <trkpt lat="44.89979" lon="0.79886">
        <ele>185.6</ele>
        <time>2025-05-10T10:33:01Z</time>
      </trkpt>
      <trkpt lat="44.89977" lon="0.79889">
        <ele>185.6</ele>
        <time>2025-05-10T10:33:02Z</time>
      </trkpt>
      <trkpt lat="44.89976" lon="0.79892">
        <ele>185.6</ele>
        <time>2025-05-10T10:33:03Z</time>
      </trkpt>
      <trkpt lat="44.89974" lon="0.79894">
        <ele>185.6</ele>
        <time>2025-05-10T10:33:04Z</time>
      </trkpt>
      <trkpt lat="44.89973" lon="0.79898">
        <ele>185.6</ele>
        <time>2025-05-10T10:33:05Z</time>
      </trkpt>
      <trkpt lat="44.89971" lon="0.79901">
        <ele>185.4</ele>
        <time>2025-05-10T10:33:06Z</time>
      </trkpt>
      <trkpt lat="44.89968" lon="0.79904">
        <ele>185.4</ele>
        <time>2025-05-10T10:33:07Z</time>
      </trkpt>
      <trkpt lat="44.89966" lon="0.79908">
        <ele>185.2</ele>
        <time>2025-05-10T10:33:08Z</time>
      </trkpt>
      <trkpt lat="44.89964" lon="0.79913">
        <ele>184.6</ele>
        <time>2025-05-10T10:33:09Z</time>
      </trkpt>
      <trkpt lat="44.89962" lon="0.79917">
        <ele>184.4</ele>
        <time>2025-05-10T10:33:10Z</time>
      </trkpt>
      <trkpt lat="44.89959" lon="0.79922">
        <ele>184.2</ele>
        <time>2025-05-10T10:33:11Z</time>
      </trkpt>
      <trkpt lat="44.89957" lon="0.79927">
        <ele>184.2</ele>
        <time>2025-05-10T10:33:12Z</time>
      </trkpt>
      <trkpt lat="44.89954" lon="0.79932">
        <ele>184.2</ele>
        <time>2025-05-10T10:33:13Z</time>
      </trkpt>
      <trkpt lat="44.89951" lon="0.79937">
        <ele>184.2</ele>
        <time>2025-05-10T10:33:14Z</time>
      </trkpt>
      <trkpt lat="44.89948" lon="0.79943">
        <ele>184.2</ele>
        <time>2025-05-10T10:33:15Z</time>
      </trkpt>
      <trkpt lat="44.89945" lon="0.79948">
        <ele>184.2</ele>
        <time>2025-05-10T10:33:16Z</time>
      </trkpt>
      <trkpt lat="44.89942" lon="0.79954">
        <ele>184.2</ele>
        <time>2025-05-10T10:33:17Z</time>
      </trkpt>
      <trkpt lat="44.89939" lon="0.7996">
        <ele>184</ele>
        <time>2025-05-10T10:33:18Z</time>
      </trkpt>
      <trkpt lat="44.89936" lon="0.79967">
        <ele>183.4</ele>
        <time>2025-05-10T10:33:19Z</time>
      </trkpt>
      <trkpt lat="44.89932" lon="0.79973">
        <ele>183.4</ele>
        <time>2025-05-10T10:33:20Z</time>
      </trkpt>
      <trkpt lat="44.89929" lon="0.79979">
        <ele>183.4</ele>
        <time>2025-05-10T10:33:21Z</time>
      </trkpt>
      <trkpt lat="44.89925" lon="0.79986">
        <ele>183.2</ele>
        <time>2025-05-10T10:33:22Z</time>
      </trkpt>
      <trkpt lat="44.89921" lon="0.79992">
        <ele>183</ele>
        <time>2025-05-10T10:33:23Z</time>
      </trkpt>
      <trkpt lat="44.89917" lon="0.79998">
        <ele>182.6</ele>
        <time>2025-05-10T10:33:24Z</time>
      </trkpt>
      <trkpt lat="44.89913" lon="0.80004">
        <ele>182.4</ele>
        <time>2025-05-10T10:33:25Z</time>
      </trkpt>
      <trkpt lat="44.89908" lon="0.80011">
        <ele>181.8</ele>
        <time>2025-05-10T10:33:26Z</time>
      </trkpt>
      <trkpt lat="44.89904" lon="0.80017">
        <ele>181.6</ele>
        <time>2025-05-10T10:33:27Z</time>
      </trkpt>
      <trkpt lat="44.899" lon="0.80023">
        <ele>181.4</ele>
        <time>2025-05-10T10:33:28Z</time>
      </trkpt>
      <trkpt lat="44.89896" lon="0.8003">
        <ele>181</ele>
        <time>2025-05-10T10:33:29Z</time>
      </trkpt>
      <trkpt lat="44.89892" lon="0.80036">
        <ele>180.8</ele>
        <time>2025-05-10T10:33:30Z</time>
      </trkpt>
      <trkpt lat="44.89888" lon="0.80043">
        <ele>180.8</ele>
        <time>2025-05-10T10:33:31Z</time>
      </trkpt>
      <trkpt lat="44.89884" lon="0.8005">
        <ele>180.6</ele>
        <time>2025-05-10T10:33:32Z</time>
      </trkpt>
      <trkpt lat="44.89879" lon="0.80057">
        <ele>180.2</ele>
        <time>2025-05-10T10:33:33Z</time>
      </trkpt>
      <trkpt lat="44.89874" lon="0.80064">
        <ele>179.8</ele>
        <time>2025-05-10T10:33:34Z</time>
      </trkpt>
      <trkpt lat="44.8987" lon="0.80071">
        <ele>179.6</ele>
        <time>2025-05-10T10:33:35Z</time>
      </trkpt>
      <trkpt lat="44.89865" lon="0.80079">
        <ele>179.4</ele>
        <time>2025-05-10T10:33:36Z</time>
      </trkpt>
      <trkpt lat="44.89861" lon="0.80087">
        <ele>179</ele>
        <time>2025-05-10T10:33:37Z</time>
      </trkpt>
      <trkpt lat="44.89856" lon="0.80095">
        <ele>178.6</ele>
        <time>2025-05-10T10:33:38Z</time>
      </trkpt>
      <trkpt lat="44.89851" lon="0.80102">
        <ele>178.4</ele>
        <time>2025-05-10T10:33:39Z</time>
      </trkpt>
      <trkpt lat="44.89847" lon="0.8011">
        <ele>178</ele>
        <time>2025-05-10T10:33:40Z</time>
      </trkpt>
      <trkpt lat="44.89842" lon="0.80118">
        <ele>177.4</ele>
        <time>2025-05-10T10:33:41Z</time>
      </trkpt>
      <trkpt lat="44.89837" lon="0.80126">
        <ele>176.8</ele>
        <time>2025-05-10T10:33:42Z</time>
      </trkpt>
      <trkpt lat="44.89833" lon="0.80133">
        <ele>176.8</ele>
        <time>2025-05-10T10:33:43Z</time>
      </trkpt>
      <trkpt lat="44.89828" lon="0.80141">
        <ele>176.6</ele>
        <time>2025-05-10T10:33:44Z</time>
      </trkpt>
      <trkpt lat="44.89824" lon="0.80147">
        <ele>176.6</ele>
        <time>2025-05-10T10:33:45Z</time>
      </trkpt>
      <trkpt lat="44.89819" lon="0.80154">
        <ele>176.4</ele>
        <time>2025-05-10T10:33:46Z</time>
      </trkpt>
      <trkpt lat="44.89815" lon="0.8016">
        <ele>176.4</ele>
        <time>2025-05-10T10:33:47Z</time>
      </trkpt>
      <trkpt lat="44.89812" lon="0.80167">
        <ele>176.6</ele>
        <time>2025-05-10T10:33:48Z</time>
      </trkpt>
      <trkpt lat="44.89808" lon="0.80175">
        <ele>176.4</ele>
        <time>2025-05-10T10:33:49Z</time>
      </trkpt>
      <trkpt lat="44.89805" lon="0.80182">
        <ele>176.2</ele>
        <time>2025-05-10T10:33:50Z</time>
      </trkpt>
      <trkpt lat="44.89802" lon="0.80191">
        <ele>176</ele>
        <time>2025-05-10T10:33:51Z</time>
      </trkpt>
      <trkpt lat="44.89799" lon="0.80199">
        <ele>175.8</ele>
        <time>2025-05-10T10:33:52Z</time>
      </trkpt>
      <trkpt lat="44.89797" lon="0.80208">
        <ele>175.6</ele>
        <time>2025-05-10T10:33:53Z</time>
      </trkpt>
      <trkpt lat="44.89795" lon="0.80217">
        <ele>175.6</ele>
        <time>2025-05-10T10:33:54Z</time>
      </trkpt>
      <trkpt lat="44.89793" lon="0.80227">
        <ele>175.4</ele>
        <time>2025-05-10T10:33:55Z</time>
      </trkpt>
      <trkpt lat="44.89792" lon="0.80237">
        <ele>175</ele>
        <time>2025-05-10T10:33:56Z</time>
      </trkpt>
      <trkpt lat="44.8979" lon="0.80248">
        <ele>174.6</ele>
        <time>2025-05-10T10:33:57Z</time>
      </trkpt>
      <trkpt lat="44.89788" lon="0.80259">
        <ele>174.6</ele>
        <time>2025-05-10T10:33:58Z</time>
      </trkpt>
      <trkpt lat="44.89787" lon="0.8027">
        <ele>174</ele>
        <time>2025-05-10T10:33:59Z</time>
      </trkpt>
      <trkpt lat="44.89787" lon="0.80281">
        <ele>173.2</ele>
        <time>2025-05-10T10:34:00Z</time>
      </trkpt>
      <trkpt lat="44.89787" lon="0.80292">
        <ele>172.6</ele>
        <time>2025-05-10T10:34:01Z</time>
      </trkpt>
      <trkpt lat="44.89788" lon="0.80304">
        <ele>172.2</ele>
        <time>2025-05-10T10:34:02Z</time>
      </trkpt>
      <trkpt lat="44.89788" lon="0.80316">
        <ele>172</ele>
        <time>2025-05-10T10:34:03Z</time>
      </trkpt>
      <trkpt lat="44.89789" lon="0.80327">
        <ele>171.8</ele>
        <time>2025-05-10T10:34:04Z</time>
      </trkpt>
      <trkpt lat="44.89789" lon="0.80338">
        <ele>171.6</ele>
        <time>2025-05-10T10:34:05Z</time>
      </trkpt>
      <trkpt lat="44.89789" lon="0.80349">
        <ele>171.4</ele>
        <time>2025-05-10T10:34:06Z</time>
      </trkpt>
      <trkpt lat="44.89789" lon="0.8036">
        <ele>171</ele>
        <time>2025-05-10T10:34:07Z</time>
      </trkpt>
      <trkpt lat="44.89788" lon="0.80372">
        <ele>171</ele>
        <time>2025-05-10T10:34:08Z</time>
      </trkpt>
      <trkpt lat="44.89787" lon="0.80383">
        <ele>171</ele>
        <time>2025-05-10T10:34:09Z</time>
      </trkpt>
      <trkpt lat="44.89785" lon="0.80393">
        <ele>171</ele>
        <time>2025-05-10T10:34:10Z</time>
      </trkpt>
      <trkpt lat="44.89784" lon="0.80404">
        <ele>171</ele>
        <time>2025-05-10T10:34:11Z</time>
      </trkpt>
      <trkpt lat="44.89782" lon="0.80414">
        <ele>171</ele>
        <time>2025-05-10T10:34:12Z</time>
      </trkpt>
      <trkpt lat="44.89781" lon="0.80424">
        <ele>171</ele>
        <time>2025-05-10T10:34:13Z</time>
      </trkpt>
      <trkpt lat="44.89779" lon="0.80434">
        <ele>171</ele>
        <time>2025-05-10T10:34:14Z</time>
      </trkpt>
      <trkpt lat="44.89778" lon="0.80445">
        <ele>170.8</ele>
        <time>2025-05-10T10:34:15Z</time>
      </trkpt>
      <trkpt lat="44.89776" lon="0.80454">
        <ele>170.4</ele>
        <time>2025-05-10T10:34:16Z</time>
      </trkpt>
      <trkpt lat="44.89775" lon="0.80464">
        <ele>170.4</ele>
        <time>2025-05-10T10:34:17Z</time>
      </trkpt>
      <trkpt lat="44.89774" lon="0.80474">
        <ele>170.4</ele>
        <time>2025-05-10T10:34:18Z</time>
      </trkpt>
      <trkpt lat="44.89773" lon="0.80484">
        <ele>170.4</ele>
        <time>2025-05-10T10:34:19Z</time>
      </trkpt>
      <trkpt lat="44.89772" lon="0.80493">
        <ele>170.6</ele>
        <time>2025-05-10T10:34:20Z</time>
      </trkpt>
      <trkpt lat="44.8977" lon="0.80503">
        <ele>170.6</ele>
        <time>2025-05-10T10:34:21Z</time>
      </trkpt>
      <trkpt lat="44.89769" lon="0.80512">
        <ele>170.4</ele>
        <time>2025-05-10T10:34:22Z</time>
      </trkpt>
      <trkpt lat="44.89766" lon="0.80522">
        <ele>170.4</ele>
        <time>2025-05-10T10:34:23Z</time>
      </trkpt>
      <trkpt lat="44.89763" lon="0.80529">
        <ele>170.4</ele>
        <time>2025-05-10T10:34:24Z</time>
      </trkpt>
      <trkpt lat="44.89759" lon="0.80537">
        <ele>170</ele>
        <time>2025-05-10T10:34:25Z</time>
      </trkpt>
      <trkpt lat="44.89755" lon="0.80544">
        <ele>169.8</ele>
        <time>2025-05-10T10:34:26Z</time>
      </trkpt>
      <trkpt lat="44.8975" lon="0.80551">
        <ele>169.8</ele>
        <time>2025-05-10T10:34:27Z</time>
      </trkpt>
      <trkpt lat="44.89745" lon="0.80557">
        <ele>169.8</ele>
        <time>2025-05-10T10:34:28Z</time>
      </trkpt>
      <trkpt lat="44.8974" lon="0.80563">
        <ele>169.8</ele>
        <time>2025-05-10T10:34:29Z</time>
      </trkpt>
      <trkpt lat="44.89736" lon="0.8057">
        <ele>170</ele>
        <time>2025-05-10T10:34:30Z</time>
      </trkpt>
      <trkpt lat="44.89731" lon="0.80577">
        <ele>170</ele>
        <time>2025-05-10T10:34:31Z</time>
      </trkpt>
      <trkpt lat="44.89726" lon="0.80583">
        <ele>170</ele>
        <time>2025-05-10T10:34:32Z</time>
      </trkpt>
      <trkpt lat="44.89722" lon="0.80589">
        <ele>170</ele>
        <time>2025-05-10T10:34:33Z</time>
      </trkpt>
      <trkpt lat="44.89717" lon="0.80595">
        <ele>169.8</ele>
        <time>2025-05-10T10:34:34Z</time>
      </trkpt>
      <trkpt lat="44.89713" lon="0.806">
        <ele>169.6</ele>
        <time>2025-05-10T10:34:35Z</time>
      </trkpt>
      <trkpt lat="44.89709" lon="0.80606">
        <ele>169.6</ele>
        <time>2025-05-10T10:34:36Z</time>
      </trkpt>
      <trkpt lat="44.89707" lon="0.80611">
        <ele>169.6</ele>
        <time>2025-05-10T10:34:37Z</time>
      </trkpt>
      <trkpt lat="44.89706" lon="0.80618">
        <ele>169.6</ele>
        <time>2025-05-10T10:34:38Z</time>
      </trkpt>
      <trkpt lat="44.89707" lon="0.80625">
        <ele>169.6</ele>
        <time>2025-05-10T10:34:39Z</time>
      </trkpt>
      <trkpt lat="44.89708" lon="0.80631">
        <ele>169.8</ele>
        <time>2025-05-10T10:34:40Z</time>
      </trkpt>
      <trkpt lat="44.8971" lon="0.80637">
        <ele>169.8</ele>
        <time>2025-05-10T10:34:41Z</time>
      </trkpt>
      <trkpt lat="44.89712" lon="0.80643">
        <ele>170</ele>
        <time>2025-05-10T10:34:42Z</time>
      </trkpt>
      <trkpt lat="44.89714" lon="0.80648">
        <ele>170.4</ele>
        <time>2025-05-10T10:34:43Z</time>
      </trkpt>
      <trkpt lat="44.89716" lon="0.80653">
        <ele>170.6</ele>
        <time>2025-05-10T10:34:44Z</time>
      </trkpt>
      <trkpt lat="44.89718" lon="0.80658">
        <ele>170.6</ele>
        <time>2025-05-10T10:34:45Z</time>
      </trkpt>
      <trkpt lat="44.8972" lon="0.80663">
        <ele>170.8</ele>
        <time>2025-05-10T10:34:46Z</time>
      </trkpt>
      <trkpt lat="44.89722" lon="0.80669">
        <ele>171</ele>
        <time>2025-05-10T10:34:47Z</time>
      </trkpt>
      <trkpt lat="44.89724" lon="0.80673">
        <ele>171</ele>
        <time>2025-05-10T10:34:48Z</time>
      </trkpt>
      <trkpt lat="44.89725" lon="0.80678">
        <ele>171</ele>
        <time>2025-05-10T10:34:49Z</time>
      </trkpt>
      <trkpt lat="44.89727" lon="0.80682">
        <ele>171</ele>
        <time>2025-05-10T10:34:50Z</time>
      </trkpt>
      <trkpt lat="44.89728" lon="0.80687">
        <ele>171.2</ele>
        <time>2025-05-10T10:34:51Z</time>
      </trkpt>
      <trkpt lat="44.89729" lon="0.8069">
        <ele>171.2</ele>
        <time>2025-05-10T10:34:52Z</time>
      </trkpt>
      <trkpt lat="44.8973" lon="0.80694">
        <ele>171.2</ele>
        <time>2025-05-10T10:34:53Z</time>
      </trkpt>
      <trkpt lat="44.89731" lon="0.80698">
        <ele>171.2</ele>
        <time>2025-05-10T10:34:54Z</time>
      </trkpt>
      <trkpt lat="44.89732" lon="0.80701">
        <ele>171.2</ele>
        <time>2025-05-10T10:34:55Z</time>
      </trkpt>
      <trkpt lat="44.89733" lon="0.80705">
        <ele>171.2</ele>
        <time>2025-05-10T10:34:56Z</time>
      </trkpt>
      <trkpt lat="44.89735" lon="0.80708">
        <ele>171.2</ele>
        <time>2025-05-10T10:34:57Z</time>
      </trkpt>
      <trkpt lat="44.89736" lon="0.80712">
        <ele>171.2</ele>
        <time>2025-05-10T10:34:58Z</time>
      </trkpt>
      <trkpt lat="44.89738" lon="0.80716">
        <ele>171.2</ele>
        <time>2025-05-10T10:34:59Z</time>
      </trkpt>
      <trkpt lat="44.8974" lon="0.80721">
        <ele>171.2</ele>
        <time>2025-05-10T10:35:00Z</time>
      </trkpt>
      <trkpt lat="44.89741" lon="0.80727">
        <ele>171.2</ele>
        <time>2025-05-10T10:35:01Z</time>
      </trkpt>
      <trkpt lat="44.89744" lon="0.80733">
        <ele>171.2</ele>
        <time>2025-05-10T10:35:02Z</time>
      </trkpt>
      <trkpt lat="44.89746" lon="0.80738">
        <ele>171.2</ele>
        <time>2025-05-10T10:35:03Z</time>
      </trkpt>
      <trkpt lat="44.89749" lon="0.80744">
        <ele>171</ele>
        <time>2025-05-10T10:35:04Z</time>
      </trkpt>
      <trkpt lat="44.89751" lon="0.8075">
        <ele>171</ele>
        <time>2025-05-10T10:35:05Z</time>
      </trkpt>
      <trkpt lat="44.89754" lon="0.80756">
        <ele>171</ele>
        <time>2025-05-10T10:35:06Z</time>
      </trkpt>
      <trkpt lat="44.89756" lon="0.80761">
        <ele>170.8</ele>
        <time>2025-05-10T10:35:07Z</time>
      </trkpt>
      <trkpt lat="44.89759" lon="0.80768">
        <ele>170.8</ele>
        <time>2025-05-10T10:35:08Z</time>
      </trkpt>
      <trkpt lat="44.89762" lon="0.80774">
        <ele>170.8</ele>
        <time>2025-05-10T10:35:09Z</time>
      </trkpt>
      <trkpt lat="44.89765" lon="0.8078">
        <ele>170.6</ele>
        <time>2025-05-10T10:35:10Z</time>
      </trkpt>
      <trkpt lat="44.89768" lon="0.80786">
        <ele>170.6</ele>
        <time>2025-05-10T10:35:11Z</time>
      </trkpt>
      <trkpt lat="44.89772" lon="0.80793">
        <ele>170.4</ele>
        <time>2025-05-10T10:35:12Z</time>
      </trkpt>
      <trkpt lat="44.89775" lon="0.80801">
        <ele>170.4</ele>
        <time>2025-05-10T10:35:13Z</time>
      </trkpt>
      <trkpt lat="44.89779" lon="0.80808">
        <ele>170</ele>
        <time>2025-05-10T10:35:14Z</time>
      </trkpt>
      <trkpt lat="44.89783" lon="0.80817">
        <ele>169.6</ele>
        <time>2025-05-10T10:35:15Z</time>
      </trkpt>
      <trkpt lat="44.89786" lon="0.80827">
        <ele>169.4</ele>
        <time>2025-05-10T10:35:16Z</time>
      </trkpt>
      <trkpt lat="44.89789" lon="0.80839">
        <ele>169.2</ele>
        <time>2025-05-10T10:35:17Z</time>
      </trkpt>
      <trkpt lat="44.89793" lon="0.80849">
        <ele>168.6</ele>
        <time>2025-05-10T10:35:18Z</time>
      </trkpt>
      <trkpt lat="44.89796" lon="0.80856">
        <ele>167.4</ele>
        <time>2025-05-10T10:35:19Z</time>
      </trkpt>
      <trkpt lat="44.89797" lon="0.80862">
        <ele>166.6</ele>
        <time>2025-05-10T10:35:20Z</time>
      </trkpt>
      <trkpt lat="44.89795" lon="0.80866">
        <ele>165.8</ele>
        <time>2025-05-10T10:35:21Z</time>
      </trkpt>
      <trkpt lat="44.89793" lon="0.8087">
        <ele>165.6</ele>
        <time>2025-05-10T10:35:22Z</time>
      </trkpt>
      <trkpt lat="44.89791" lon="0.80876">
        <ele>165.4</ele>
        <time>2025-05-10T10:35:23Z</time>
      </trkpt>
      <trkpt lat="44.89791" lon="0.80884">
        <ele>165.4</ele>
        <time>2025-05-10T10:35:24Z</time>
      </trkpt>
      <trkpt lat="44.89793" lon="0.80892">
        <ele>165</ele>
        <time>2025-05-10T10:35:25Z</time>
      </trkpt>
      <trkpt lat="44.89797" lon="0.80901">
        <ele>164.4</ele>
        <time>2025-05-10T10:35:26Z</time>
      </trkpt>
      <trkpt lat="44.89798" lon="0.80911">
        <ele>163</ele>
        <time>2025-05-10T10:35:27Z</time>
      </trkpt>
      <trkpt lat="44.89798" lon="0.80921">
        <ele>162</ele>
        <time>2025-05-10T10:35:28Z</time>
      </trkpt>
      <trkpt lat="44.89794" lon="0.80926">
        <ele>161.2</ele>
        <time>2025-05-10T10:35:29Z</time>
      </trkpt>
      <trkpt lat="44.89789" lon="0.80929">
        <ele>159.8</ele>
        <time>2025-05-10T10:35:30Z</time>
      </trkpt>
      <trkpt lat="44.89783" lon="0.80934">
        <ele>159</ele>
        <time>2025-05-10T10:35:31Z</time>
      </trkpt>
      <trkpt lat="44.89778" lon="0.80941">
        <ele>158.8</ele>
        <time>2025-05-10T10:35:32Z</time>
      </trkpt>
      <trkpt lat="44.89775" lon="0.80949">
        <ele>158.4</ele>
        <time>2025-05-10T10:35:33Z</time>
      </trkpt>
      <trkpt lat="44.89772" lon="0.80957">
        <ele>158</ele>
        <time>2025-05-10T10:35:34Z</time>
      </trkpt>
      <trkpt lat="44.89768" lon="0.80964">
        <ele>157.6</ele>
        <time>2025-05-10T10:35:35Z</time>
      </trkpt>
      <trkpt lat="44.89763" lon="0.8097">
        <ele>157.4</ele>
        <time>2025-05-10T10:35:36Z</time>
      </trkpt>
      <trkpt lat="44.8976" lon="0.80979">
        <ele>156.4</ele>
        <time>2025-05-10T10:35:37Z</time>
      </trkpt>
      <trkpt lat="44.89756" lon="0.80988">
        <ele>156.2</ele>
        <time>2025-05-10T10:35:38Z</time>
      </trkpt>
      <trkpt lat="44.89751" lon="0.80996">
        <ele>155.4</ele>
        <time>2025-05-10T10:35:39Z</time>
      </trkpt>
      <trkpt lat="44.89746" lon="0.81004">
        <ele>154.2</ele>
        <time>2025-05-10T10:35:40Z</time>
      </trkpt>
      <trkpt lat="44.8974" lon="0.81012">
        <ele>153.4</ele>
        <time>2025-05-10T10:35:41Z</time>
      </trkpt>
      <trkpt lat="44.89734" lon="0.81019">
        <ele>152.8</ele>
        <time>2025-05-10T10:35:42Z</time>
      </trkpt>
      <trkpt lat="44.89727" lon="0.81026">
        <ele>152.2</ele>
        <time>2025-05-10T10:35:43Z</time>
      </trkpt>
      <trkpt lat="44.8972" lon="0.81031">
        <ele>151.2</ele>
        <time>2025-05-10T10:35:44Z</time>
      </trkpt>
      <trkpt lat="44.89714" lon="0.81038">
        <ele>151</ele>
        <time>2025-05-10T10:35:45Z</time>
      </trkpt>
      <trkpt lat="44.89711" lon="0.81045">
        <ele>150.8</ele>
        <time>2025-05-10T10:35:46Z</time>
      </trkpt>
      <trkpt lat="44.89708" lon="0.81053">
        <ele>149.8</ele>
        <time>2025-05-10T10:35:47Z</time>
      </trkpt>
      <trkpt lat="44.89706" lon="0.81062">
        <ele>149</ele>
        <time>2025-05-10T10:35:48Z</time>
      </trkpt>
      <trkpt lat="44.89705" lon="0.81071">
        <ele>148.8</ele>
        <time>2025-05-10T10:35:49Z</time>
      </trkpt>
      <trkpt lat="44.89705" lon="0.8108">
        <ele>148.6</ele>
        <time>2025-05-10T10:35:50Z</time>
      </trkpt>
      <trkpt lat="44.89706" lon="0.81089">
        <ele>148.4</ele>
        <time>2025-05-10T10:35:51Z</time>
      </trkpt>
      <trkpt lat="44.89706" lon="0.81097">
        <ele>148.4</ele>
        <time>2025-05-10T10:35:52Z</time>
      </trkpt>
      <trkpt lat="44.89707" lon="0.81104">
        <ele>148.4</ele>
        <time>2025-05-10T10:35:53Z</time>
      </trkpt>
      <trkpt lat="44.89709" lon="0.81111">
        <ele>148.2</ele>
        <time>2025-05-10T10:35:54Z</time>
      </trkpt>
      <trkpt lat="44.89711" lon="0.81118">
        <ele>148.2</ele>
        <time>2025-05-10T10:35:55Z</time>
      </trkpt>
      <trkpt lat="44.89712" lon="0.81125">
        <ele>148.2</ele>
        <time>2025-05-10T10:35:56Z</time>
      </trkpt>
      <trkpt lat="44.89713" lon="0.81132">
        <ele>148</ele>
        <time>2025-05-10T10:35:57Z</time>
      </trkpt>
      <trkpt lat="44.89712" lon="0.8114">
        <ele>147.8</ele>
        <time>2025-05-10T10:35:58Z</time>
      </trkpt>
      <trkpt lat="44.89711" lon="0.81149">
        <ele>147.6</ele>
        <time>2025-05-10T10:35:59Z</time>
      </trkpt>
      <trkpt lat="44.8971" lon="0.81159">
        <ele>147.4</ele>
        <time>2025-05-10T10:36:00Z</time>
      </trkpt>
      <trkpt lat="44.89712" lon="0.81169">
        <ele>147.2</ele>
        <time>2025-05-10T10:36:01Z</time>
      </trkpt>
      <trkpt lat="44.89713" lon="0.81179">
        <ele>146.6</ele>
        <time>2025-05-10T10:36:02Z</time>
      </trkpt>
      <trkpt lat="44.89716" lon="0.8119">
        <ele>145.6</ele>
        <time>2025-05-10T10:36:03Z</time>
      </trkpt>
      <trkpt lat="44.89719" lon="0.81201">
        <ele>144.8</ele>
        <time>2025-05-10T10:36:04Z</time>
      </trkpt>
      <trkpt lat="44.89721" lon="0.81213">
        <ele>144.4</ele>
        <time>2025-05-10T10:36:05Z</time>
      </trkpt>
      <trkpt lat="44.89724" lon="0.81224">
        <ele>142</ele>
        <time>2025-05-10T10:36:06Z</time>
      </trkpt>
      <trkpt lat="44.89727" lon="0.81234">
        <ele>141.2</ele>
        <time>2025-05-10T10:36:07Z</time>
      </trkpt>
      <trkpt lat="44.89728" lon="0.81245">
        <ele>139.6</ele>
        <time>2025-05-10T10:36:08Z</time>
      </trkpt>
      <trkpt lat="44.8973" lon="0.81256">
        <ele>138.8</ele>
        <time>2025-05-10T10:36:09Z</time>
      </trkpt>
      <trkpt lat="44.89732" lon="0.81268">
        <ele>138.8</ele>
        <time>2025-05-10T10:36:10Z</time>
      </trkpt>
      <trkpt lat="44.89734" lon="0.8128">
        <ele>138</ele>
        <time>2025-05-10T10:36:11Z</time>
      </trkpt>
      <trkpt lat="44.89737" lon="0.81292">
        <ele>136.2</ele>
        <time>2025-05-10T10:36:12Z</time>
      </trkpt>
      <trkpt lat="44.89737" lon="0.81303">
        <ele>134.8</ele>
        <time>2025-05-10T10:36:13Z</time>
      </trkpt>
      <trkpt lat="44.89735" lon="0.81314">
        <ele>133.2</ele>
        <time>2025-05-10T10:36:14Z</time>
      </trkpt>
      <trkpt lat="44.89731" lon="0.81323">
        <ele>132</ele>
        <time>2025-05-10T10:36:15Z</time>
      </trkpt>
      <trkpt lat="44.89728" lon="0.81334">
        <ele>130.4</ele>
        <time>2025-05-10T10:36:16Z</time>
      </trkpt>
      <trkpt lat="44.89725" lon="0.81345">
        <ele>129.4</ele>
        <time>2025-05-10T10:36:17Z</time>
      </trkpt>
      <trkpt lat="44.89721" lon="0.81356">
        <ele>128.8</ele>
        <time>2025-05-10T10:36:18Z</time>
      </trkpt>
      <trkpt lat="44.89716" lon="0.81366">
        <ele>128.4</ele>
        <time>2025-05-10T10:36:19Z</time>
      </trkpt>
      <trkpt lat="44.89711" lon="0.81374">
        <ele>127.6</ele>
        <time>2025-05-10T10:36:20Z</time>
      </trkpt>
      <trkpt lat="44.89704" lon="0.81382">
        <ele>126.4</ele>
        <time>2025-05-10T10:36:21Z</time>
      </trkpt>
      <trkpt lat="44.89698" lon="0.81389">
        <ele>125</ele>
        <time>2025-05-10T10:36:22Z</time>
      </trkpt>
      <trkpt lat="44.89693" lon="0.81395">
        <ele>124</ele>
        <time>2025-05-10T10:36:23Z</time>
      </trkpt>
      <trkpt lat="44.8969" lon="0.81401">
        <ele>123</ele>
        <time>2025-05-10T10:36:24Z</time>
      </trkpt>
      <trkpt lat="44.89691" lon="0.81408">
        <ele>122.4</ele>
        <time>2025-05-10T10:36:25Z</time>
      </trkpt>
      <trkpt lat="44.89694" lon="0.81416">
        <ele>121.8</ele>
        <time>2025-05-10T10:36:26Z</time>
      </trkpt>
      <trkpt lat="44.89697" lon="0.81423">
        <ele>121.2</ele>
        <time>2025-05-10T10:36:27Z</time>
      </trkpt>
      <trkpt lat="44.897" lon="0.81431">
        <ele>121</ele>
        <time>2025-05-10T10:36:28Z</time>
      </trkpt>
      <trkpt lat="44.89703" lon="0.8144">
        <ele>120.4</ele>
        <time>2025-05-10T10:36:29Z</time>
      </trkpt>
      <trkpt lat="44.89703" lon="0.81448">
        <ele>119.6</ele>
        <time>2025-05-10T10:36:30Z</time>
      </trkpt>
      <trkpt lat="44.897" lon="0.81455">
        <ele>118.8</ele>
        <time>2025-05-10T10:36:31Z</time>
      </trkpt>
      <trkpt lat="44.89695" lon="0.81459">
        <ele>118.2</ele>
        <time>2025-05-10T10:36:32Z</time>
      </trkpt>
      <trkpt lat="44.89689" lon="0.81465">
        <ele>117.6</ele>
        <time>2025-05-10T10:36:33Z</time>
      </trkpt>
      <trkpt lat="44.89684" lon="0.81473">
        <ele>117</ele>
        <time>2025-05-10T10:36:34Z</time>
      </trkpt>
      <trkpt lat="44.89679" lon="0.8148">
        <ele>116.2</ele>
        <time>2025-05-10T10:36:35Z</time>
      </trkpt>
      <trkpt lat="44.89673" lon="0.81486">
        <ele>114.8</ele>
        <time>2025-05-10T10:36:36Z</time>
      </trkpt>
      <trkpt lat="44.89667" lon="0.81494">
        <ele>114.2</ele>
        <time>2025-05-10T10:36:37Z</time>
      </trkpt>
      <trkpt lat="44.89664" lon="0.81503">
        <ele>113.4</ele>
        <time>2025-05-10T10:36:38Z</time>
      </trkpt>
      <trkpt lat="44.89661" lon="0.81511">
        <ele>113.2</ele>
        <time>2025-05-10T10:36:39Z</time>
      </trkpt>
      <trkpt lat="44.89659" lon="0.81517">
        <ele>113.2</ele>
        <time>2025-05-10T10:36:40Z</time>
      </trkpt>
      <trkpt lat="44.89656" lon="0.81522">
        <ele>113.2</ele>
        <time>2025-05-10T10:36:41Z</time>
      </trkpt>
      <trkpt lat="44.89655" lon="0.81525">
        <ele>113.4</ele>
        <time>2025-05-10T10:36:42Z</time>
      </trkpt>
      <trkpt lat="44.89654" lon="0.81528">
        <ele>114</ele>
        <time>2025-05-10T10:36:43Z</time>
      </trkpt>
      <trkpt lat="44.89653" lon="0.8153">
        <ele>115.4</ele>
        <time>2025-05-10T10:36:44Z</time>
      </trkpt>
      <trkpt lat="44.89652" lon="0.81532">
        <ele>116</ele>
        <time>2025-05-10T10:36:45Z</time>
      </trkpt>
      <trkpt lat="44.89652" lon="0.81534">
        <ele>116.6</ele>
        <time>2025-05-10T10:36:46Z</time>
      </trkpt>
      <trkpt lat="44.89651" lon="0.81536">
        <ele>117</ele>
        <time>2025-05-10T10:36:47Z</time>
      </trkpt>
      <trkpt lat="44.89651" lon="0.81538">
        <ele>117.4</ele>
        <time>2025-05-10T10:36:48Z</time>
      </trkpt>
      <trkpt lat="44.8965" lon="0.81541">
        <ele>117.8</ele>
        <time>2025-05-10T10:36:49Z</time>
      </trkpt>
      <trkpt lat="44.89649" lon="0.81543">
        <ele>118</ele>
        <time>2025-05-10T10:36:50Z</time>
      </trkpt>
      <trkpt lat="44.89648" lon="0.81546">
        <ele>118.2</ele>
        <time>2025-05-10T10:36:51Z</time>
      </trkpt>
      <trkpt lat="44.89648" lon="0.81548">
        <ele>118.6</ele>
        <time>2025-05-10T10:36:52Z</time>
      </trkpt>
      <trkpt lat="44.89647" lon="0.8155">
        <ele>118.8</ele>
        <time>2025-05-10T10:36:53Z</time>
      </trkpt>
      <trkpt lat="44.89646" lon="0.81551">
        <ele>119</ele>
        <time>2025-05-10T10:36:54Z</time>
      </trkpt>
      <trkpt lat="44.89644" lon="0.81553">
        <ele>119.2</ele>
        <time>2025-05-10T10:36:55Z</time>
      </trkpt>
      <trkpt lat="44.89643" lon="0.81556">
        <ele>119.4</ele>
        <time>2025-05-10T10:36:56Z</time>
      </trkpt>
      <trkpt lat="44.89643" lon="0.81558">
        <ele>119.6</ele>
        <time>2025-05-10T10:36:57Z</time>
      </trkpt>
      <trkpt lat="44.89641" lon="0.8156">
        <ele>119.8</ele>
        <time>2025-05-10T10:36:58Z</time>
      </trkpt>
      <trkpt lat="44.8964" lon="0.81562">
        <ele>120</ele>
        <time>2025-05-10T10:36:59Z</time>
      </trkpt>
      <trkpt lat="44.89639" lon="0.81564">
        <ele>120.4</ele>
        <time>2025-05-10T10:37:00Z</time>
      </trkpt>
      <trkpt lat="44.89639" lon="0.81566">
        <ele>120.6</ele>
        <time>2025-05-10T10:37:01Z</time>
      </trkpt>
      <trkpt lat="44.89638" lon="0.81567">
        <ele>120.6</ele>
        <time>2025-05-10T10:37:02Z</time>
      </trkpt>
      <trkpt lat="44.89636" lon="0.81569">
        <ele>120.8</ele>
        <time>2025-05-10T10:37:03Z</time>
      </trkpt>
      <trkpt lat="44.89635" lon="0.8157">
        <ele>121.2</ele>
        <time>2025-05-10T10:37:04Z</time>
      </trkpt>
      <trkpt lat="44.89634" lon="0.81572">
        <ele>121.2</ele>
        <time>2025-05-10T10:37:05Z</time>
      </trkpt>
      <trkpt lat="44.89632" lon="0.81574">
        <ele>121.4</ele>
        <time>2025-05-10T10:37:06Z</time>
      </trkpt>
      <trkpt lat="44.89631" lon="0.81575">
        <ele>121.6</ele>
        <time>2025-05-10T10:37:07Z</time>
      </trkpt>
      <trkpt lat="44.8963" lon="0.81577">
        <ele>121.8</ele>
        <time>2025-05-10T10:37:08Z</time>
      </trkpt>
      <trkpt lat="44.89629" lon="0.81578">
        <ele>122</ele>
        <time>2025-05-10T10:37:09Z</time>
      </trkpt>
      <trkpt lat="44.89628" lon="0.8158">
        <ele>122.2</ele>
        <time>2025-05-10T10:37:10Z</time>
      </trkpt>
      <trkpt lat="44.89627" lon="0.81582">
        <ele>122.6</ele>
        <time>2025-05-10T10:37:11Z</time>
      </trkpt>
      <trkpt lat="44.89626" lon="0.81583">
        <ele>122.6</ele>
        <time>2025-05-10T10:37:12Z</time>
      </trkpt>
      <trkpt lat="44.89625" lon="0.81585">
        <ele>122.8</ele>
        <time>2025-05-10T10:37:13Z</time>
      </trkpt>
      <trkpt lat="44.89624" lon="0.81587">
        <ele>122.8</ele>
        <time>2025-05-10T10:37:14Z</time>
      </trkpt>
      <trkpt lat="44.89623" lon="0.81588">
        <ele>123.2</ele>
        <time>2025-05-10T10:37:15Z</time>
      </trkpt>
      <trkpt lat="44.89622" lon="0.8159">
        <ele>123.2</ele>
        <time>2025-05-10T10:37:16Z</time>
      </trkpt>
      <trkpt lat="44.89621" lon="0.81591">
        <ele>123.4</ele>
        <time>2025-05-10T10:37:17Z</time>
      </trkpt>
      <trkpt lat="44.8962" lon="0.81593">
        <ele>123.6</ele>
        <time>2025-05-10T10:37:18Z</time>
      </trkpt>
      <trkpt lat="44.89618" lon="0.81595">
        <ele>123.8</ele>
        <time>2025-05-10T10:37:19Z</time>
      </trkpt>
      <trkpt lat="44.89617" lon="0.81597">
        <ele>124</ele>
        <time>2025-05-10T10:37:20Z</time>
      </trkpt>
      <trkpt lat="44.89616" lon="0.81598">
        <ele>124.2</ele>
        <time>2025-05-10T10:37:21Z</time>
      </trkpt>
      <trkpt lat="44.89615" lon="0.816">
        <ele>124.4</ele>
        <time>2025-05-10T10:37:22Z</time>
      </trkpt>
      <trkpt lat="44.89614" lon="0.81602">
        <ele>124.6</ele>
        <time>2025-05-10T10:37:23Z</time>
      </trkpt>
      <trkpt lat="44.89613" lon="0.81603">
        <ele>124.8</ele>
        <time>2025-05-10T10:37:24Z</time>
      </trkpt>
      <trkpt lat="44.89612" lon="0.81605">
        <ele>124.8</ele>
        <time>2025-05-10T10:37:25Z</time>
      </trkpt>
      <trkpt lat="44.89612" lon="0.81606">
        <ele>125.2</ele>
        <time>2025-05-10T10:37:26Z</time>
      </trkpt>
      <trkpt lat="44.89611" lon="0.81607">
        <ele>125.2</ele>
        <time>2025-05-10T10:37:27Z</time>
      </trkpt>
      <trkpt lat="44.8961" lon="0.81609">
        <ele>125.4</ele>
        <time>2025-05-10T10:37:28Z</time>
      </trkpt>
      <trkpt lat="44.89609" lon="0.8161">
        <ele>125.6</ele>
        <time>2025-05-10T10:37:29Z</time>
      </trkpt>
      <trkpt lat="44.89607" lon="0.81612">
        <ele>125.8</ele>
        <time>2025-05-10T10:37:30Z</time>
      </trkpt>
      <trkpt lat="44.89606" lon="0.81613">
        <ele>126</ele>
        <time>2025-05-10T10:37:31Z</time>
      </trkpt>
      <trkpt lat="44.89605" lon="0.81614">
        <ele>126.2</ele>
        <time>2025-05-10T10:37:32Z</time>
      </trkpt>
      <trkpt lat="44.89605" lon="0.81616">
        <ele>126.4</ele>
        <time>2025-05-10T10:37:33Z</time>
      </trkpt>
      <trkpt lat="44.89604" lon="0.81617">
        <ele>126.6</ele>
        <time>2025-05-10T10:37:34Z</time>
      </trkpt>
      <trkpt lat="44.89603" lon="0.81618">
        <ele>126.6</ele>
        <time>2025-05-10T10:37:35Z</time>
      </trkpt>
      <trkpt lat="44.89602" lon="0.8162">
        <ele>127</ele>
        <time>2025-05-10T10:37:36Z</time>
      </trkpt>
      <trkpt lat="44.89601" lon="0.81621">
        <ele>127.2</ele>
        <time>2025-05-10T10:37:37Z</time>
      </trkpt>
      <trkpt lat="44.896" lon="0.81623">
        <ele>127.4</ele>
        <time>2025-05-10T10:37:38Z</time>
      </trkpt>
      <trkpt lat="44.89599" lon="0.81624">
        <ele>127.4</ele>
        <time>2025-05-10T10:37:39Z</time>
      </trkpt>
      <trkpt lat="44.89598" lon="0.81626">
        <ele>127.6</ele>
        <time>2025-05-10T10:37:40Z</time>
      </trkpt>
      <trkpt lat="44.89597" lon="0.81627">
        <ele>127.6</ele>
        <time>2025-05-10T10:37:41Z</time>
      </trkpt>
      <trkpt lat="44.89596" lon="0.81629">
        <ele>128</ele>
        <time>2025-05-10T10:37:42Z</time>
      </trkpt>
      <trkpt lat="44.89595" lon="0.8163">
        <ele>128</ele>
        <time>2025-05-10T10:37:43Z</time>
      </trkpt>
      <trkpt lat="44.89594" lon="0.81631">
        <ele>128.2</ele>
        <time>2025-05-10T10:37:44Z</time>
      </trkpt>
      <trkpt lat="44.89593" lon="0.81633">
        <ele>128.4</ele>
        <time>2025-05-10T10:37:45Z</time>
      </trkpt>
      <trkpt lat="44.89592" lon="0.81635">
        <ele>128.6</ele>
        <time>2025-05-10T10:37:46Z</time>
      </trkpt>
      <trkpt lat="44.89591" lon="0.81636">
        <ele>128.8</ele>
        <time>2025-05-10T10:37:47Z</time>
      </trkpt>
      <trkpt lat="44.8959" lon="0.81637">
        <ele>129.2</ele>
        <time>2025-05-10T10:37:48Z</time>
      </trkpt>
      <trkpt lat="44.89589" lon="0.81639">
        <ele>129.2</ele>
        <time>2025-05-10T10:37:49Z</time>
      </trkpt>
      <trkpt lat="44.89588" lon="0.8164">
        <ele>129.4</ele>
        <time>2025-05-10T10:37:50Z</time>
      </trkpt>
      <trkpt lat="44.89587" lon="0.81642">
        <ele>129.4</ele>
        <time>2025-05-10T10:37:51Z</time>
      </trkpt>
      <trkpt lat="44.89586" lon="0.81644">
        <ele>129.6</ele>
        <time>2025-05-10T10:37:52Z</time>
      </trkpt>
      <trkpt lat="44.89585" lon="0.81646">
        <ele>129.8</ele>
        <time>2025-05-10T10:37:53Z</time>
      </trkpt>
      <trkpt lat="44.89584" lon="0.81648">
        <ele>130</ele>
        <time>2025-05-10T10:37:54Z</time>
      </trkpt>
      <trkpt lat="44.89582" lon="0.81649">
        <ele>130</ele>
        <time>2025-05-10T10:37:55Z</time>
      </trkpt>
      <trkpt lat="44.89582" lon="0.81651">
        <ele>130.2</ele>
        <time>2025-05-10T10:37:56Z</time>
      </trkpt>
      <trkpt lat="44.89581" lon="0.81652">
        <ele>130.2</ele>
        <time>2025-05-10T10:37:57Z</time>
      </trkpt>
      <trkpt lat="44.89579" lon="0.81654">
        <ele>130.4</ele>
        <time>2025-05-10T10:37:58Z</time>
      </trkpt>
      <trkpt lat="44.89578" lon="0.81656">
        <ele>130.4</ele>
        <time>2025-05-10T10:37:59Z</time>
      </trkpt>
      <trkpt lat="44.89577" lon="0.81657">
        <ele>130.6</ele>
        <time>2025-05-10T10:38:00Z</time>
      </trkpt>
      <trkpt lat="44.89576" lon="0.81659">
        <ele>130.8</ele>
        <time>2025-05-10T10:38:01Z</time>
      </trkpt>
      <trkpt lat="44.89575" lon="0.8166">
        <ele>130.8</ele>
        <time>2025-05-10T10:38:02Z</time>
      </trkpt>
      <trkpt lat="44.89574" lon="0.81663">
        <ele>131</ele>
        <time>2025-05-10T10:38:03Z</time>
      </trkpt>
      <trkpt lat="44.89573" lon="0.81664">
        <ele>131.2</ele>
        <time>2025-05-10T10:38:04Z</time>
      </trkpt>
      <trkpt lat="44.89571" lon="0.81666">
        <ele>131.6</ele>
        <time>2025-05-10T10:38:05Z</time>
      </trkpt>
      <trkpt lat="44.8957" lon="0.81667">
        <ele>131.6</ele>
        <time>2025-05-10T10:38:06Z</time>
      </trkpt>
      <trkpt lat="44.89568" lon="0.81669">
        <ele>131.8</ele>
        <time>2025-05-10T10:38:07Z</time>
      </trkpt>
      <trkpt lat="44.89567" lon="0.81672">
        <ele>131.8</ele>
        <time>2025-05-10T10:38:08Z</time>
      </trkpt>
      <trkpt lat="44.89566" lon="0.81674">
        <ele>131.8</ele>
        <time>2025-05-10T10:38:09Z</time>
      </trkpt>
      <trkpt lat="44.89564" lon="0.81676">
        <ele>132</ele>
        <time>2025-05-10T10:38:10Z</time>
      </trkpt>
      <trkpt lat="44.89562" lon="0.81678">
        <ele>132</ele>
        <time>2025-05-10T10:38:11Z</time>
      </trkpt>
      <trkpt lat="44.8956" lon="0.81679">
        <ele>132.2</ele>
        <time>2025-05-10T10:38:12Z</time>
      </trkpt>
      <trkpt lat="44.89559" lon="0.81681">
        <ele>132.2</ele>
        <time>2025-05-10T10:38:13Z</time>
      </trkpt>
      <trkpt lat="44.89557" lon="0.81683">
        <ele>132.2</ele>
        <time>2025-05-10T10:38:14Z</time>
      </trkpt>
      <trkpt lat="44.89555" lon="0.81685">
        <ele>132.4</ele>
        <time>2025-05-10T10:38:15Z</time>
      </trkpt>
      <trkpt lat="44.89553" lon="0.81687">
        <ele>132.4</ele>
        <time>2025-05-10T10:38:16Z</time>
      </trkpt>
      <trkpt lat="44.89551" lon="0.81689">
        <ele>132.6</ele>
        <time>2025-05-10T10:38:17Z</time>
      </trkpt>
      <trkpt lat="44.89549" lon="0.81692">
        <ele>132.8</ele>
        <time>2025-05-10T10:38:18Z</time>
      </trkpt>
      <trkpt lat="44.89547" lon="0.81695">
        <ele>132.8</ele>
        <time>2025-05-10T10:38:19Z</time>
      </trkpt>
      <trkpt lat="44.89545" lon="0.81698">
        <ele>133</ele>
        <time>2025-05-10T10:38:20Z</time>
      </trkpt>
      <trkpt lat="44.89543" lon="0.817">
        <ele>133</ele>
        <time>2025-05-10T10:38:21Z</time>
      </trkpt>
      <trkpt lat="44.89541" lon="0.81703">
        <ele>133.2</ele>
        <time>2025-05-10T10:38:22Z</time>
      </trkpt>
      <trkpt lat="44.89539" lon="0.81706">
        <ele>133.2</ele>
        <time>2025-05-10T10:38:23Z</time>
      </trkpt>
      <trkpt lat="44.89536" lon="0.81709">
        <ele>133</ele>
        <time>2025-05-10T10:38:24Z</time>
      </trkpt>
      <trkpt lat="44.89534" lon="0.81713">
        <ele>133</ele>
        <time>2025-05-10T10:38:25Z</time>
      </trkpt>
      <trkpt lat="44.89532" lon="0.81717">
        <ele>133</ele>
        <time>2025-05-10T10:38:26Z</time>
      </trkpt>
      <trkpt lat="44.8953" lon="0.81721">
        <ele>132.8</ele>
        <time>2025-05-10T10:38:27Z</time>
      </trkpt>
      <trkpt lat="44.89528" lon="0.81727">
        <ele>132.6</ele>
        <time>2025-05-10T10:38:28Z</time>
      </trkpt>
      <trkpt lat="44.89525" lon="0.81732">
        <ele>132.4</ele>
        <time>2025-05-10T10:38:29Z</time>
      </trkpt>
      <trkpt lat="44.8952" lon="0.81736">
        <ele>132.2</ele>
        <time>2025-05-10T10:38:30Z</time>
      </trkpt>
      <trkpt lat="44.89515" lon="0.81739">
        <ele>132</ele>
        <time>2025-05-10T10:38:31Z</time>
      </trkpt>
      <trkpt lat="44.8951" lon="0.8174">
        <ele>131.4</ele>
        <time>2025-05-10T10:38:32Z</time>
      </trkpt>
      <trkpt lat="44.89504" lon="0.81743">
        <ele>131</ele>
        <time>2025-05-10T10:38:33Z</time>
      </trkpt>
      <trkpt lat="44.89498" lon="0.81748">
        <ele>130.2</ele>
        <time>2025-05-10T10:38:34Z</time>
      </trkpt>
      <trkpt lat="44.89493" lon="0.81753">
        <ele>129.4</ele>
        <time>2025-05-10T10:38:35Z</time>
      </trkpt>
      <trkpt lat="44.89486" lon="0.81758">
        <ele>128.8</ele>
        <time>2025-05-10T10:38:36Z</time>
      </trkpt>
      <trkpt lat="44.8948" lon="0.81764">
        <ele>127.6</ele>
        <time>2025-05-10T10:38:37Z</time>
      </trkpt>
      <trkpt lat="44.89473" lon="0.81769">
        <ele>126.6</ele>
        <time>2025-05-10T10:38:38Z</time>
      </trkpt>
      <trkpt lat="44.89467" lon="0.81773">
        <ele>125.4</ele>
        <time>2025-05-10T10:38:39Z</time>
      </trkpt>
      <trkpt lat="44.89461" lon="0.81779">
        <ele>124.8</ele>
        <time>2025-05-10T10:38:40Z</time>
      </trkpt>
      <trkpt lat="44.89455" lon="0.81784">
        <ele>124.6</ele>
        <time>2025-05-10T10:38:41Z</time>
      </trkpt>
      <trkpt lat="44.89449" lon="0.81789">
        <ele>124.4</ele>
        <time>2025-05-10T10:38:42Z</time>
      </trkpt>
      <trkpt lat="44.89443" lon="0.81794">
        <ele>124.2</ele>
        <time>2025-05-10T10:38:43Z</time>
      </trkpt>
      <trkpt lat="44.89438" lon="0.818">
        <ele>124.2</ele>
        <time>2025-05-10T10:38:44Z</time>
      </trkpt>
      <trkpt lat="44.89433" lon="0.81806">
        <ele>124</ele>
        <time>2025-05-10T10:38:45Z</time>
      </trkpt>
      <trkpt lat="44.89428" lon="0.81813">
        <ele>124</ele>
        <time>2025-05-10T10:38:46Z</time>
      </trkpt>
      <trkpt lat="44.89423" lon="0.81819">
        <ele>123.8</ele>
        <time>2025-05-10T10:38:47Z</time>
      </trkpt>
      <trkpt lat="44.89417" lon="0.81824">
        <ele>123.2</ele>
        <time>2025-05-10T10:38:48Z</time>
      </trkpt>
      <trkpt lat="44.89412" lon="0.81829">
        <ele>122.2</ele>
        <time>2025-05-10T10:38:49Z</time>
      </trkpt>
      <trkpt lat="44.89406" lon="0.81834">
        <ele>121.8</ele>
        <time>2025-05-10T10:38:50Z</time>
      </trkpt>
      <trkpt lat="44.89399" lon="0.81839">
        <ele>121.4</ele>
        <time>2025-05-10T10:38:51Z</time>
      </trkpt>
      <trkpt lat="44.89393" lon="0.81844">
        <ele>121</ele>
        <time>2025-05-10T10:38:52Z</time>
      </trkpt>
      <trkpt lat="44.89386" lon="0.81849">
        <ele>119.4</ele>
        <time>2025-05-10T10:38:53Z</time>
      </trkpt>
      <trkpt lat="44.89379" lon="0.81855">
        <ele>119.2</ele>
        <time>2025-05-10T10:38:54Z</time>
      </trkpt>
      <trkpt lat="44.89372" lon="0.8186">
        <ele>118.2</ele>
        <time>2025-05-10T10:38:55Z</time>
      </trkpt>
      <trkpt lat="44.89366" lon="0.81865">
        <ele>117.4</ele>
        <time>2025-05-10T10:38:56Z</time>
      </trkpt>
      <trkpt lat="44.89359" lon="0.8187">
        <ele>116.8</ele>
        <time>2025-05-10T10:38:57Z</time>
      </trkpt>
      <trkpt lat="44.89354" lon="0.81874">
        <ele>116.4</ele>
        <time>2025-05-10T10:38:58Z</time>
      </trkpt>
      <trkpt lat="44.89348" lon="0.81879">
        <ele>116.2</ele>
        <time>2025-05-10T10:38:59Z</time>
      </trkpt>
      <trkpt lat="44.89343" lon="0.81883">
        <ele>116</ele>
        <time>2025-05-10T10:39:00Z</time>
      </trkpt>
      <trkpt lat="44.89338" lon="0.81887">
        <ele>116</ele>
        <time>2025-05-10T10:39:01Z</time>
      </trkpt>
      <trkpt lat="44.89334" lon="0.81891">
        <ele>116</ele>
        <time>2025-05-10T10:39:02Z</time>
      </trkpt>
      <trkpt lat="44.8933" lon="0.81895">
        <ele>116</ele>
        <time>2025-05-10T10:39:03Z</time>
      </trkpt>
      <trkpt lat="44.89325" lon="0.81898">
        <ele>116.2</ele>
        <time>2025-05-10T10:39:04Z</time>
      </trkpt>
      <trkpt lat="44.89321" lon="0.81902">
        <ele>116.2</ele>
        <time>2025-05-10T10:39:05Z</time>
      </trkpt>
      <trkpt lat="44.89318" lon="0.81905">
        <ele>116.6</ele>
        <time>2025-05-10T10:39:06Z</time>
      </trkpt>
      <trkpt lat="44.89314" lon="0.81908">
        <ele>116.8</ele>
        <time>2025-05-10T10:39:07Z</time>
      </trkpt>
      <trkpt lat="44.89309" lon="0.81911">
        <ele>116.8</ele>
        <time>2025-05-10T10:39:08Z</time>
      </trkpt>
      <trkpt lat="44.89305" lon="0.81914">
        <ele>117</ele>
        <time>2025-05-10T10:39:09Z</time>
      </trkpt>
      <trkpt lat="44.89301" lon="0.81916">
        <ele>117</ele>
        <time>2025-05-10T10:39:10Z</time>
      </trkpt>
      <trkpt lat="44.89297" lon="0.81919">
        <ele>117.2</ele>
        <time>2025-05-10T10:39:11Z</time>
      </trkpt>
      <trkpt lat="44.89293" lon="0.81922">
        <ele>117.6</ele>
        <time>2025-05-10T10:39:12Z</time>
      </trkpt>
      <trkpt lat="44.89289" lon="0.81924">
        <ele>117.8</ele>
        <time>2025-05-10T10:39:13Z</time>
      </trkpt>
      <trkpt lat="44.89285" lon="0.81927">
        <ele>118.2</ele>
        <time>2025-05-10T10:39:14Z</time>
      </trkpt>
      <trkpt lat="44.89282" lon="0.81929">
        <ele>118.8</ele>
        <time>2025-05-10T10:39:15Z</time>
      </trkpt>
      <trkpt lat="44.89278" lon="0.81932">
        <ele>119</ele>
        <time>2025-05-10T10:39:16Z</time>
      </trkpt>
      <trkpt lat="44.89276" lon="0.81935">
        <ele>119.2</ele>
        <time>2025-05-10T10:39:17Z</time>
      </trkpt>
      <trkpt lat="44.89274" lon="0.81938">
        <ele>119.4</ele>
        <time>2025-05-10T10:39:18Z</time>
      </trkpt>
      <trkpt lat="44.89271" lon="0.81941">
        <ele>119.6</ele>
        <time>2025-05-10T10:39:19Z</time>
      </trkpt>
      <trkpt lat="44.89269" lon="0.81944">
        <ele>120</ele>
        <time>2025-05-10T10:39:20Z</time>
      </trkpt>
      <trkpt lat="44.89267" lon="0.81945">
        <ele>120</ele>
        <time>2025-05-10T10:39:21Z</time>
      </trkpt>
      <trkpt lat="44.89264" lon="0.81947">
        <ele>120.2</ele>
        <time>2025-05-10T10:39:22Z</time>
      </trkpt>
      <trkpt lat="44.89262" lon="0.81948">
        <ele>120.4</ele>
        <time>2025-05-10T10:39:23Z</time>
      </trkpt>
      <trkpt lat="44.89259" lon="0.81949">
        <ele>121</ele>
        <time>2025-05-10T10:39:24Z</time>
      </trkpt>
      <trkpt lat="44.89257" lon="0.81951">
        <ele>121.4</ele>
        <time>2025-05-10T10:39:25Z</time>
      </trkpt>
      <trkpt lat="44.89254" lon="0.81952">
        <ele>121.6</ele>
        <time>2025-05-10T10:39:26Z</time>
      </trkpt>
      <trkpt lat="44.89252" lon="0.81954">
        <ele>121.8</ele>
        <time>2025-05-10T10:39:27Z</time>
      </trkpt>
      <trkpt lat="44.89249" lon="0.81955">
        <ele>122</ele>
        <time>2025-05-10T10:39:28Z</time>
      </trkpt>
      <trkpt lat="44.89247" lon="0.81957">
        <ele>122.2</ele>
        <time>2025-05-10T10:39:29Z</time>
      </trkpt>
      <trkpt lat="44.89244" lon="0.81958">
        <ele>122.4</ele>
        <time>2025-05-10T10:39:30Z</time>
      </trkpt>
      <trkpt lat="44.89241" lon="0.8196">
        <ele>122.6</ele>
        <time>2025-05-10T10:39:31Z</time>
      </trkpt>
      <trkpt lat="44.89239" lon="0.81961">
        <ele>122.8</ele>
        <time>2025-05-10T10:39:32Z</time>
      </trkpt>
      <trkpt lat="44.89237" lon="0.81962">
        <ele>123</ele>
        <time>2025-05-10T10:39:33Z</time>
      </trkpt>
      <trkpt lat="44.89234" lon="0.81964">
        <ele>123.2</ele>
        <time>2025-05-10T10:39:34Z</time>
      </trkpt>
      <trkpt lat="44.89231" lon="0.81965">
        <ele>123.4</ele>
        <time>2025-05-10T10:39:35Z</time>
      </trkpt>
      <trkpt lat="44.89229" lon="0.81966">
        <ele>123.6</ele>
        <time>2025-05-10T10:39:36Z</time>
      </trkpt>
      <trkpt lat="44.89226" lon="0.81967">
        <ele>123.8</ele>
        <time>2025-05-10T10:39:37Z</time>
      </trkpt>
      <trkpt lat="44.89224" lon="0.81968">
        <ele>124</ele>
        <time>2025-05-10T10:39:38Z</time>
      </trkpt>
      <trkpt lat="44.89222" lon="0.81969">
        <ele>124.4</ele>
        <time>2025-05-10T10:39:39Z</time>
      </trkpt>
      <trkpt lat="44.8922" lon="0.8197">
        <ele>124.6</ele>
        <time>2025-05-10T10:39:40Z</time>
      </trkpt>
      <trkpt lat="44.89219" lon="0.8197">
        <ele>124.8</ele>
        <time>2025-05-10T10:39:41Z</time>
      </trkpt>
      <trkpt lat="44.89217" lon="0.81971">
        <ele>125</ele>
        <time>2025-05-10T10:39:42Z</time>
      </trkpt>
      <trkpt lat="44.89216" lon="0.81973">
        <ele>125.2</ele>
        <time>2025-05-10T10:39:43Z</time>
      </trkpt>
      <trkpt lat="44.89215" lon="0.81975">
        <ele>125.4</ele>
        <time>2025-05-10T10:39:44Z</time>
      </trkpt>
      <trkpt lat="44.89215" lon="0.81977">
        <ele>125.6</ele>
        <time>2025-05-10T10:39:45Z</time>
      </trkpt>
      <trkpt lat="44.89214" lon="0.81979">
        <ele>126</ele>
        <time>2025-05-10T10:39:46Z</time>
      </trkpt>
      <trkpt lat="44.89212" lon="0.81981">
        <ele>126.2</ele>
        <time>2025-05-10T10:39:47Z</time>
      </trkpt>
      <trkpt lat="44.89211" lon="0.81982">
        <ele>126.4</ele>
        <time>2025-05-10T10:39:48Z</time>
      </trkpt>
      <trkpt lat="44.89209" lon="0.81984">
        <ele>126.6</ele>
        <time>2025-05-10T10:39:49Z</time>
      </trkpt>
      <trkpt lat="44.89208" lon="0.81985">
        <ele>126.6</ele>
        <time>2025-05-10T10:39:50Z</time>
      </trkpt>
      <trkpt lat="44.89207" lon="0.81987">
        <ele>126.8</ele>
        <time>2025-05-10T10:39:51Z</time>
      </trkpt>
      <trkpt lat="44.89206" lon="0.81989">
        <ele>127</ele>
        <time>2025-05-10T10:39:52Z</time>
      </trkpt>
      <trkpt lat="44.89205" lon="0.81991">
        <ele>127</ele>
        <time>2025-05-10T10:39:53Z</time>
      </trkpt>
      <trkpt lat="44.89203" lon="0.81993">
        <ele>127.2</ele>
        <time>2025-05-10T10:39:54Z</time>
      </trkpt>
      <trkpt lat="44.89202" lon="0.81994">
        <ele>127.4</ele>
        <time>2025-05-10T10:39:55Z</time>
      </trkpt>
      <trkpt lat="44.89201" lon="0.81995">
        <ele>127.6</ele>
        <time>2025-05-10T10:39:56Z</time>
      </trkpt>
      <trkpt lat="44.892" lon="0.81997">
        <ele>127.6</ele>
        <time>2025-05-10T10:39:57Z</time>
      </trkpt>
      <trkpt lat="44.89198" lon="0.81998">
        <ele>128</ele>
        <time>2025-05-10T10:39:58Z</time>
      </trkpt>
      <trkpt lat="44.89197" lon="0.81999">
        <ele>128.2</ele>
        <time>2025-05-10T10:39:59Z</time>
      </trkpt>
      <trkpt lat="44.89196" lon="0.82">
        <ele>128.2</ele>
        <time>2025-05-10T10:40:00Z</time>
      </trkpt>
      <trkpt lat="44.89194" lon="0.82001">
        <ele>128.4</ele>
        <time>2025-05-10T10:40:01Z</time>
      </trkpt>
      <trkpt lat="44.89193" lon="0.82003">
        <ele>128.6</ele>
        <time>2025-05-10T10:40:02Z</time>
      </trkpt>
      <trkpt lat="44.89192" lon="0.82003">
        <ele>129</ele>
        <time>2025-05-10T10:40:03Z</time>
      </trkpt>
      <trkpt lat="44.89191" lon="0.82004">
        <ele>129.2</ele>
        <time>2025-05-10T10:40:04Z</time>
      </trkpt>
      <trkpt lat="44.89189" lon="0.82005">
        <ele>129.4</ele>
        <time>2025-05-10T10:40:05Z</time>
      </trkpt>
      <trkpt lat="44.89188" lon="0.82006">
        <ele>129.6</ele>
        <time>2025-05-10T10:40:06Z</time>
      </trkpt>
      <trkpt lat="44.89187" lon="0.82007">
        <ele>129.6</ele>
        <time>2025-05-10T10:40:07Z</time>
      </trkpt>
      <trkpt lat="44.89185" lon="0.82007">
        <ele>129.8</ele>
        <time>2025-05-10T10:40:08Z</time>
      </trkpt>
      <trkpt lat="44.89183" lon="0.82007">
        <ele>129.8</ele>
        <time>2025-05-10T10:40:09Z</time>
      </trkpt>
      <trkpt lat="44.89182" lon="0.82007">
        <ele>130</ele>
        <time>2025-05-10T10:40:10Z</time>
      </trkpt>
      <trkpt lat="44.8918" lon="0.82008">
        <ele>130.2</ele>
        <time>2025-05-10T10:40:11Z</time>
      </trkpt>
      <trkpt lat="44.89179" lon="0.82008">
        <ele>130.4</ele>
        <time>2025-05-10T10:40:12Z</time>
      </trkpt>
      <trkpt lat="44.89178" lon="0.82009">
        <ele>130.6</ele>
        <time>2025-05-10T10:40:13Z</time>
      </trkpt>
      <trkpt lat="44.89176" lon="0.8201">
        <ele>130.6</ele>
        <time>2025-05-10T10:40:14Z</time>
      </trkpt>
      <trkpt lat="44.89175" lon="0.8201">
        <ele>130.8</ele>
        <time>2025-05-10T10:40:15Z</time>
      </trkpt>
      <trkpt lat="44.89174" lon="0.82012">
        <ele>131</ele>
        <time>2025-05-10T10:40:16Z</time>
      </trkpt>
      <trkpt lat="44.89173" lon="0.82012">
        <ele>131.2</ele>
        <time>2025-05-10T10:40:17Z</time>
      </trkpt>
      <trkpt lat="44.89172" lon="0.82013">
        <ele>131.4</ele>
        <time>2025-05-10T10:40:18Z</time>
      </trkpt>
      <trkpt lat="44.8917" lon="0.82014">
        <ele>131.6</ele>
        <time>2025-05-10T10:40:19Z</time>
      </trkpt>
      <trkpt lat="44.89169" lon="0.82015">
        <ele>131.8</ele>
        <time>2025-05-10T10:40:20Z</time>
      </trkpt>
      <trkpt lat="44.89167" lon="0.82016">
        <ele>132</ele>
        <time>2025-05-10T10:40:21Z</time>
      </trkpt>
      <trkpt lat="44.89166" lon="0.82017">
        <ele>132.2</ele>
        <time>2025-05-10T10:40:22Z</time>
      </trkpt>
      <trkpt lat="44.89165" lon="0.82018">
        <ele>132.4</ele>
        <time>2025-05-10T10:40:23Z</time>
      </trkpt>
      <trkpt lat="44.89164" lon="0.82018">
        <ele>132.6</ele>
        <time>2025-05-10T10:40:24Z</time>
      </trkpt>
      <trkpt lat="44.89162" lon="0.82019">
        <ele>132.8</ele>
        <time>2025-05-10T10:40:25Z</time>
      </trkpt>
      <trkpt lat="44.89161" lon="0.8202">
        <ele>133</ele>
        <time>2025-05-10T10:40:26Z</time>
      </trkpt>
      <trkpt lat="44.89159" lon="0.82021">
        <ele>133.2</ele>
        <time>2025-05-10T10:40:27Z</time>
      </trkpt>
      <trkpt lat="44.89158" lon="0.82021">
        <ele>133.2</ele>
        <time>2025-05-10T10:40:28Z</time>
      </trkpt>
      <trkpt lat="44.89156" lon="0.82022">
        <ele>133.4</ele>
        <time>2025-05-10T10:40:29Z</time>
      </trkpt>
      <trkpt lat="44.89155" lon="0.82022">
        <ele>133.6</ele>
        <time>2025-05-10T10:40:30Z</time>
      </trkpt>
      <trkpt lat="44.89153" lon="0.82023">
        <ele>133.8</ele>
        <time>2025-05-10T10:40:31Z</time>
      </trkpt>
      <trkpt lat="44.89152" lon="0.82023">
        <ele>134</ele>
        <time>2025-05-10T10:40:32Z</time>
      </trkpt>
      <trkpt lat="44.89151" lon="0.82024">
        <ele>134</ele>
        <time>2025-05-10T10:40:33Z</time>
      </trkpt>
      <trkpt lat="44.89149" lon="0.82025">
        <ele>134.2</ele>
        <time>2025-05-10T10:40:34Z</time>
      </trkpt>
      <trkpt lat="44.89148" lon="0.82025">
        <ele>134.4</ele>
        <time>2025-05-10T10:40:35Z</time>
      </trkpt>
      <trkpt lat="44.89147" lon="0.82026">
        <ele>134.8</ele>
        <time>2025-05-10T10:40:36Z</time>
      </trkpt>
      <trkpt lat="44.89145" lon="0.82027">
        <ele>135</ele>
        <time>2025-05-10T10:40:37Z</time>
      </trkpt>
      <trkpt lat="44.89144" lon="0.82028">
        <ele>135</ele>
        <time>2025-05-10T10:40:38Z</time>
      </trkpt>
      <trkpt lat="44.89143" lon="0.82029">
        <ele>135.4</ele>
        <time>2025-05-10T10:40:39Z</time>
      </trkpt>
      <trkpt lat="44.89141" lon="0.82029">
        <ele>135.6</ele>
        <time>2025-05-10T10:40:40Z</time>
      </trkpt>
      <trkpt lat="44.8914" lon="0.8203">
        <ele>135.8</ele>
        <time>2025-05-10T10:40:41Z</time>
      </trkpt>
      <trkpt lat="44.89139" lon="0.82031">
        <ele>136</ele>
        <time>2025-05-10T10:40:42Z</time>
      </trkpt>
      <trkpt lat="44.89137" lon="0.82032">
        <ele>136</ele>
        <time>2025-05-10T10:40:43Z</time>
      </trkpt>
      <trkpt lat="44.89136" lon="0.82033">
        <ele>136.2</ele>
        <time>2025-05-10T10:40:44Z</time>
      </trkpt>
      <trkpt lat="44.89135" lon="0.82034">
        <ele>136.4</ele>
        <time>2025-05-10T10:40:45Z</time>
      </trkpt>
      <trkpt lat="44.89133" lon="0.82035">
        <ele>136.6</ele>
        <time>2025-05-10T10:40:46Z</time>
      </trkpt>
      <trkpt lat="44.89132" lon="0.82036">
        <ele>136.8</ele>
        <time>2025-05-10T10:40:47Z</time>
      </trkpt>
      <trkpt lat="44.8913" lon="0.82037">
        <ele>137</ele>
        <time>2025-05-10T10:40:48Z</time>
      </trkpt>
      <trkpt lat="44.89129" lon="0.82037">
        <ele>137</ele>
        <time>2025-05-10T10:40:49Z</time>
      </trkpt>
      <trkpt lat="44.89127" lon="0.82038">
        <ele>137.2</ele>
        <time>2025-05-10T10:40:50Z</time>
      </trkpt>
      <trkpt lat="44.89125" lon="0.82038">
        <ele>137.4</ele>
        <time>2025-05-10T10:40:51Z</time>
      </trkpt>
      <trkpt lat="44.89124" lon="0.82039">
        <ele>137.6</ele>
        <time>2025-05-10T10:40:52Z</time>
      </trkpt>
      <trkpt lat="44.89122" lon="0.8204">
        <ele>137.6</ele>
        <time>2025-05-10T10:40:53Z</time>
      </trkpt>
      <trkpt lat="44.8912" lon="0.82041">
        <ele>137.8</ele>
        <time>2025-05-10T10:40:54Z</time>
      </trkpt>
      <trkpt lat="44.89119" lon="0.82041">
        <ele>138</ele>
        <time>2025-05-10T10:40:55Z</time>
      </trkpt>
      <trkpt lat="44.89117" lon="0.82042">
        <ele>138</ele>
        <time>2025-05-10T10:40:56Z</time>
      </trkpt>
      <trkpt lat="44.89116" lon="0.82043">
        <ele>138.4</ele>
        <time>2025-05-10T10:40:57Z</time>
      </trkpt>
      <trkpt lat="44.89114" lon="0.82043">
        <ele>138.6</ele>
        <time>2025-05-10T10:40:58Z</time>
      </trkpt>
      <trkpt lat="44.89113" lon="0.82044">
        <ele>138.6</ele>
        <time>2025-05-10T10:40:59Z</time>
      </trkpt>
      <trkpt lat="44.89111" lon="0.82044">
        <ele>138.8</ele>
        <time>2025-05-10T10:41:00Z</time>
      </trkpt>
      <trkpt lat="44.89109" lon="0.82045">
        <ele>139.2</ele>
        <time>2025-05-10T10:41:01Z</time>
      </trkpt>
      <trkpt lat="44.89108" lon="0.82045">
        <ele>139.4</ele>
        <time>2025-05-10T10:41:02Z</time>
      </trkpt>
      <trkpt lat="44.89106" lon="0.82045">
        <ele>139.6</ele>
        <time>2025-05-10T10:41:03Z</time>
      </trkpt>
      <trkpt lat="44.89105" lon="0.82044">
        <ele>139.6</ele>
        <time>2025-05-10T10:41:04Z</time>
      </trkpt>
      <trkpt lat="44.89103" lon="0.82044">
        <ele>140</ele>
        <time>2025-05-10T10:41:05Z</time>
      </trkpt>
      <trkpt lat="44.89102" lon="0.82044">
        <ele>140.2</ele>
        <time>2025-05-10T10:41:06Z</time>
      </trkpt>
      <trkpt lat="44.891" lon="0.82044">
        <ele>140.4</ele>
        <time>2025-05-10T10:41:07Z</time>
      </trkpt>
      <trkpt lat="44.89098" lon="0.82044">
        <ele>140.4</ele>
        <time>2025-05-10T10:41:08Z</time>
      </trkpt>
      <trkpt lat="44.89096" lon="0.82045">
        <ele>140.6</ele>
        <time>2025-05-10T10:41:09Z</time>
      </trkpt>
      <trkpt lat="44.89094" lon="0.82044">
        <ele>140.8</ele>
        <time>2025-05-10T10:41:10Z</time>
      </trkpt>
      <trkpt lat="44.89093" lon="0.82043">
        <ele>140.8</ele>
        <time>2025-05-10T10:41:11Z</time>
      </trkpt>
      <trkpt lat="44.89091" lon="0.82041">
        <ele>141</ele>
        <time>2025-05-10T10:41:12Z</time>
      </trkpt>
      <trkpt lat="44.89089" lon="0.8204">
        <ele>141.2</ele>
        <time>2025-05-10T10:41:13Z</time>
      </trkpt>
      <trkpt lat="44.89087" lon="0.82039">
        <ele>141.4</ele>
        <time>2025-05-10T10:41:14Z</time>
      </trkpt>
      <trkpt lat="44.89085" lon="0.82037">
        <ele>141.4</ele>
        <time>2025-05-10T10:41:15Z</time>
      </trkpt>
      <trkpt lat="44.89083" lon="0.82037">
        <ele>141.6</ele>
        <time>2025-05-10T10:41:16Z</time>
      </trkpt>
      <trkpt lat="44.89081" lon="0.82036">
        <ele>141.8</ele>
        <time>2025-05-10T10:41:17Z</time>
      </trkpt>
      <trkpt lat="44.89079" lon="0.82036">
        <ele>142</ele>
        <time>2025-05-10T10:41:18Z</time>
      </trkpt>
      <trkpt lat="44.89078" lon="0.82037">
        <ele>142</ele>
        <time>2025-05-10T10:41:19Z</time>
      </trkpt>
      <trkpt lat="44.89076" lon="0.82039">
        <ele>142.2</ele>
        <time>2025-05-10T10:41:20Z</time>
      </trkpt>
      <trkpt lat="44.89074" lon="0.82041">
        <ele>142.4</ele>
        <time>2025-05-10T10:41:21Z</time>
      </trkpt>
      <trkpt lat="44.89072" lon="0.82042">
        <ele>142.4</ele>
        <time>2025-05-10T10:41:22Z</time>
      </trkpt>
      <trkpt lat="44.89071" lon="0.82043">
        <ele>142.4</ele>
        <time>2025-05-10T10:41:23Z</time>
      </trkpt>
      <trkpt lat="44.89069" lon="0.82044">
        <ele>142.6</ele>
        <time>2025-05-10T10:41:24Z</time>
      </trkpt>
      <trkpt lat="44.89067" lon="0.82045">
        <ele>142.6</ele>
        <time>2025-05-10T10:41:25Z</time>
      </trkpt>
      <trkpt lat="44.89065" lon="0.82046">
        <ele>142.8</ele>
        <time>2025-05-10T10:41:26Z</time>
      </trkpt>
      <trkpt lat="44.89063" lon="0.82047">
        <ele>143</ele>
        <time>2025-05-10T10:41:27Z</time>
      </trkpt>
      <trkpt lat="44.89061" lon="0.82048">
        <ele>143.2</ele>
        <time>2025-05-10T10:41:28Z</time>
      </trkpt>
      <trkpt lat="44.8906" lon="0.82048">
        <ele>143.4</ele>
        <time>2025-05-10T10:41:29Z</time>
      </trkpt>
      <trkpt lat="44.89058" lon="0.82048">
        <ele>143.6</ele>
        <time>2025-05-10T10:41:30Z</time>
      </trkpt>
      <trkpt lat="44.89056" lon="0.82049">
        <ele>144</ele>
        <time>2025-05-10T10:41:31Z</time>
      </trkpt>
      <trkpt lat="44.89054" lon="0.82049">
        <ele>144.2</ele>
        <time>2025-05-10T10:41:32Z</time>
      </trkpt>
      <trkpt lat="44.89052" lon="0.82049">
        <ele>144.4</ele>
        <time>2025-05-10T10:41:33Z</time>
      </trkpt>
      <trkpt lat="44.8905" lon="0.8205">
        <ele>144.6</ele>
        <time>2025-05-10T10:41:34Z</time>
      </trkpt>
      <trkpt lat="44.89048" lon="0.8205">
        <ele>144.8</ele>
        <time>2025-05-10T10:41:35Z</time>
      </trkpt>
      <trkpt lat="44.89046" lon="0.8205">
        <ele>145</ele>
        <time>2025-05-10T10:41:36Z</time>
      </trkpt>
      <trkpt lat="44.89044" lon="0.8205">
        <ele>145.2</ele>
        <time>2025-05-10T10:41:37Z</time>
      </trkpt>
      <trkpt lat="44.89042" lon="0.82051">
        <ele>145.2</ele>
        <time>2025-05-10T10:41:38Z</time>
      </trkpt>
      <trkpt lat="44.8904" lon="0.82051">
        <ele>145.4</ele>
        <time>2025-05-10T10:41:39Z</time>
      </trkpt>
      <trkpt lat="44.89038" lon="0.82051">
        <ele>145.6</ele>
        <time>2025-05-10T10:41:40Z</time>
      </trkpt>
      <trkpt lat="44.89036" lon="0.82052">
        <ele>145.8</ele>
        <time>2025-05-10T10:41:41Z</time>
      </trkpt>
      <trkpt lat="44.89035" lon="0.82053">
        <ele>146</ele>
        <time>2025-05-10T10:41:42Z</time>
      </trkpt>
      <trkpt lat="44.89033" lon="0.82053">
        <ele>146.2</ele>
        <time>2025-05-10T10:41:43Z</time>
      </trkpt>
      <trkpt lat="44.89031" lon="0.82054">
        <ele>146.2</ele>
        <time>2025-05-10T10:41:44Z</time>
      </trkpt>
      <trkpt lat="44.89029" lon="0.82055">
        <ele>146.6</ele>
        <time>2025-05-10T10:41:45Z</time>
      </trkpt>
      <trkpt lat="44.89027" lon="0.82056">
        <ele>146.6</ele>
        <time>2025-05-10T10:41:46Z</time>
      </trkpt>
      <trkpt lat="44.89026" lon="0.82056">
        <ele>146.8</ele>
        <time>2025-05-10T10:41:47Z</time>
      </trkpt>
      <trkpt lat="44.89023" lon="0.82056">
        <ele>147</ele>
        <time>2025-05-10T10:41:48Z</time>
      </trkpt>
      <trkpt lat="44.89021" lon="0.82056">
        <ele>147.2</ele>
        <time>2025-05-10T10:41:49Z</time>
      </trkpt>
      <trkpt lat="44.89019" lon="0.82056">
        <ele>147.2</ele>
        <time>2025-05-10T10:41:50Z</time>
      </trkpt>
      <trkpt lat="44.89017" lon="0.82057">
        <ele>147.4</ele>
        <time>2025-05-10T10:41:51Z</time>
      </trkpt>
      <trkpt lat="44.89015" lon="0.82057">
        <ele>147.4</ele>
        <time>2025-05-10T10:41:52Z</time>
      </trkpt>
      <trkpt lat="44.89014" lon="0.82058">
        <ele>147.4</ele>
        <time>2025-05-10T10:41:53Z</time>
      </trkpt>
      <trkpt lat="44.89012" lon="0.82059">
        <ele>147.6</ele>
        <time>2025-05-10T10:41:54Z</time>
      </trkpt>
      <trkpt lat="44.8901" lon="0.8206">
        <ele>147.6</ele>
        <time>2025-05-10T10:41:55Z</time>
      </trkpt>
      <trkpt lat="44.89008" lon="0.82061">
        <ele>147.8</ele>
        <time>2025-05-10T10:41:56Z</time>
      </trkpt>
      <trkpt lat="44.89006" lon="0.82062">
        <ele>148</ele>
        <time>2025-05-10T10:41:57Z</time>
      </trkpt>
      <trkpt lat="44.89004" lon="0.82062">
        <ele>148.4</ele>
        <time>2025-05-10T10:41:58Z</time>
      </trkpt>
      <trkpt lat="44.89002" lon="0.82064">
        <ele>148.4</ele>
        <time>2025-05-10T10:41:59Z</time>
      </trkpt>
      <trkpt lat="44.89" lon="0.82066">
        <ele>148.4</ele>
        <time>2025-05-10T10:42:00Z</time>
      </trkpt>
      <trkpt lat="44.88998" lon="0.82067">
        <ele>148.4</ele>
        <time>2025-05-10T10:42:01Z</time>
      </trkpt>
      <trkpt lat="44.88996" lon="0.82068">
        <ele>148.6</ele>
        <time>2025-05-10T10:42:02Z</time>
      </trkpt>
      <trkpt lat="44.88994" lon="0.8207">
        <ele>148.6</ele>
        <time>2025-05-10T10:42:03Z</time>
      </trkpt>
      <trkpt lat="44.88991" lon="0.8207">
        <ele>148.8</ele>
        <time>2025-05-10T10:42:04Z</time>
      </trkpt>
      <trkpt lat="44.88989" lon="0.82071">
        <ele>149</ele>
        <time>2025-05-10T10:42:05Z</time>
      </trkpt>
      <trkpt lat="44.88986" lon="0.82072">
        <ele>149</ele>
        <time>2025-05-10T10:42:06Z</time>
      </trkpt>
      <trkpt lat="44.88984" lon="0.82073">
        <ele>149</ele>
        <time>2025-05-10T10:42:07Z</time>
      </trkpt>
      <trkpt lat="44.88981" lon="0.82074">
        <ele>149</ele>
        <time>2025-05-10T10:42:08Z</time>
      </trkpt>
      <trkpt lat="44.88978" lon="0.82074">
        <ele>149</ele>
        <time>2025-05-10T10:42:09Z</time>
      </trkpt>
      <trkpt lat="44.88975" lon="0.82075">
        <ele>149</ele>
        <time>2025-05-10T10:42:10Z</time>
      </trkpt>
      <trkpt lat="44.88972" lon="0.82076">
        <ele>149</ele>
        <time>2025-05-10T10:42:11Z</time>
      </trkpt>
      <trkpt lat="44.88968" lon="0.82077">
        <ele>149</ele>
        <time>2025-05-10T10:42:12Z</time>
      </trkpt>
      <trkpt lat="44.88965" lon="0.82079">
        <ele>149</ele>
        <time>2025-05-10T10:42:13Z</time>
      </trkpt>
      <trkpt lat="44.88961" lon="0.8208">
        <ele>149</ele>
        <time>2025-05-10T10:42:14Z</time>
      </trkpt>
      <trkpt lat="44.88957" lon="0.82082">
        <ele>148.8</ele>
        <time>2025-05-10T10:42:15Z</time>
      </trkpt>
      <trkpt lat="44.88952" lon="0.82084">
        <ele>148.6</ele>
        <time>2025-05-10T10:42:16Z</time>
      </trkpt>
      <trkpt lat="44.88948" lon="0.82086">
        <ele>148.4</ele>
        <time>2025-05-10T10:42:17Z</time>
      </trkpt>
      <trkpt lat="44.88943" lon="0.82089">
        <ele>148.4</ele>
        <time>2025-05-10T10:42:18Z</time>
      </trkpt>
      <trkpt lat="44.88938" lon="0.82094">
        <ele>148</ele>
        <time>2025-05-10T10:42:19Z</time>
      </trkpt>
      <trkpt lat="44.88933" lon="0.82098">
        <ele>147.8</ele>
        <time>2025-05-10T10:42:20Z</time>
      </trkpt>
      <trkpt lat="44.88927" lon="0.82104">
        <ele>147.4</ele>
        <time>2025-05-10T10:42:21Z</time>
      </trkpt>
      <trkpt lat="44.88921" lon="0.8211">
        <ele>146.8</ele>
        <time>2025-05-10T10:42:22Z</time>
      </trkpt>
      <trkpt lat="44.88914" lon="0.82115">
        <ele>145.6</ele>
        <time>2025-05-10T10:42:23Z</time>
      </trkpt>
      <trkpt lat="44.88907" lon="0.8212">
        <ele>143.6</ele>
        <time>2025-05-10T10:42:24Z</time>
      </trkpt>
      <trkpt lat="44.889" lon="0.82126">
        <ele>142.6</ele>
        <time>2025-05-10T10:42:25Z</time>
      </trkpt>
      <trkpt lat="44.88895" lon="0.82134">
        <ele>142.4</ele>
        <time>2025-05-10T10:42:26Z</time>
      </trkpt>
      <trkpt lat="44.88889" lon="0.82142">
        <ele>141.6</ele>
        <time>2025-05-10T10:42:27Z</time>
      </trkpt>
      <trkpt lat="44.88882" lon="0.82148">
        <ele>141.2</ele>
        <time>2025-05-10T10:42:28Z</time>
      </trkpt>
      <trkpt lat="44.88875" lon="0.82154">
        <ele>140.6</ele>
        <time>2025-05-10T10:42:29Z</time>
      </trkpt>
      <trkpt lat="44.88868" lon="0.82159">
        <ele>140</ele>
        <time>2025-05-10T10:42:30Z</time>
      </trkpt>
      <trkpt lat="44.88861" lon="0.82164">
        <ele>139.4</ele>
        <time>2025-05-10T10:42:31Z</time>
      </trkpt>
      <trkpt lat="44.88855" lon="0.82171">
        <ele>139.2</ele>
        <time>2025-05-10T10:42:32Z</time>
      </trkpt>
      <trkpt lat="44.88849" lon="0.82178">
        <ele>139</ele>
        <time>2025-05-10T10:42:33Z</time>
      </trkpt>
      <trkpt lat="44.88844" lon="0.82185">
        <ele>138.6</ele>
        <time>2025-05-10T10:42:34Z</time>
      </trkpt>
      <trkpt lat="44.88838" lon="0.82193">
        <ele>138.2</ele>
        <time>2025-05-10T10:42:35Z</time>
      </trkpt>
      <trkpt lat="44.88832" lon="0.82201">
        <ele>138.2</ele>
        <time>2025-05-10T10:42:36Z</time>
      </trkpt>
      <trkpt lat="44.88826" lon="0.82208">
        <ele>137.8</ele>
        <time>2025-05-10T10:42:37Z</time>
      </trkpt>
      <trkpt lat="44.8882" lon="0.82216">
        <ele>136.8</ele>
        <time>2025-05-10T10:42:38Z</time>
      </trkpt>
      <trkpt lat="44.88813" lon="0.82225">
        <ele>136.6</ele>
        <time>2025-05-10T10:42:39Z</time>
      </trkpt>
      <trkpt lat="44.88807" lon="0.82233">
        <ele>135.6</ele>
        <time>2025-05-10T10:42:40Z</time>
      </trkpt>
      <trkpt lat="44.88802" lon="0.8224">
        <ele>135.2</ele>
        <time>2025-05-10T10:42:41Z</time>
      </trkpt>
      <trkpt lat="44.88796" lon="0.82248">
        <ele>135</ele>
        <time>2025-05-10T10:42:42Z</time>
      </trkpt>
      <trkpt lat="44.8879" lon="0.82255">
        <ele>134.8</ele>
        <time>2025-05-10T10:42:43Z</time>
      </trkpt>
      <trkpt lat="44.88785" lon="0.82263">
        <ele>134.6</ele>
        <time>2025-05-10T10:42:44Z</time>
      </trkpt>
      <trkpt lat="44.88779" lon="0.82271">
        <ele>134.4</ele>
        <time>2025-05-10T10:42:45Z</time>
      </trkpt>
      <trkpt lat="44.88774" lon="0.82279">
        <ele>134.2</ele>
        <time>2025-05-10T10:42:46Z</time>
      </trkpt>
      <trkpt lat="44.88768" lon="0.82286">
        <ele>134.2</ele>
        <time>2025-05-10T10:42:47Z</time>
      </trkpt>
      <trkpt lat="44.88762" lon="0.82293">
        <ele>134.2</ele>
        <time>2025-05-10T10:42:48Z</time>
      </trkpt>
      <trkpt lat="44.88757" lon="0.82299">
        <ele>134.2</ele>
        <time>2025-05-10T10:42:49Z</time>
      </trkpt>
      <trkpt lat="44.88752" lon="0.82306">
        <ele>134.4</ele>
        <time>2025-05-10T10:42:50Z</time>
      </trkpt>
      <trkpt lat="44.88747" lon="0.82313">
        <ele>134.4</ele>
        <time>2025-05-10T10:42:51Z</time>
      </trkpt>
      <trkpt lat="44.88743" lon="0.8232">
        <ele>134.4</ele>
        <time>2025-05-10T10:42:52Z</time>
      </trkpt>
      <trkpt lat="44.88739" lon="0.82327">
        <ele>134.6</ele>
        <time>2025-05-10T10:42:53Z</time>
      </trkpt>
      <trkpt lat="44.88737" lon="0.82336">
        <ele>134.6</ele>
        <time>2025-05-10T10:42:54Z</time>
      </trkpt>
      <trkpt lat="44.88734" lon="0.82345">
        <ele>134.6</ele>
        <time>2025-05-10T10:42:55Z</time>
      </trkpt>
      <trkpt lat="44.88732" lon="0.82353">
        <ele>134.6</ele>
        <time>2025-05-10T10:42:56Z</time>
      </trkpt>
      <trkpt lat="44.8873" lon="0.82363">
        <ele>134.4</ele>
        <time>2025-05-10T10:42:57Z</time>
      </trkpt>
      <trkpt lat="44.88728" lon="0.82371">
        <ele>134.2</ele>
        <time>2025-05-10T10:42:58Z</time>
      </trkpt>
      <trkpt lat="44.88726" lon="0.8238">
        <ele>133.8</ele>
        <time>2025-05-10T10:42:59Z</time>
      </trkpt>
      <trkpt lat="44.88724" lon="0.82388">
        <ele>133.6</ele>
        <time>2025-05-10T10:43:00Z</time>
      </trkpt>
      <trkpt lat="44.88722" lon="0.82395">
        <ele>133.4</ele>
        <time>2025-05-10T10:43:01Z</time>
      </trkpt>
      <trkpt lat="44.88721" lon="0.82401">
        <ele>133.4</ele>
        <time>2025-05-10T10:43:02Z</time>
      </trkpt>
      <trkpt lat="44.8872" lon="0.82407">
        <ele>133.4</ele>
        <time>2025-05-10T10:43:03Z</time>
      </trkpt>
      <trkpt lat="44.88719" lon="0.82412">
        <ele>133.6</ele>
        <time>2025-05-10T10:43:04Z</time>
      </trkpt>
      <trkpt lat="44.88717" lon="0.82417">
        <ele>134.6</ele>
        <time>2025-05-10T10:43:05Z</time>
      </trkpt>
      <trkpt lat="44.88716" lon="0.82421">
        <ele>135.4</ele>
        <time>2025-05-10T10:43:06Z</time>
      </trkpt>
      <trkpt lat="44.88715" lon="0.82425">
        <ele>135.8</ele>
        <time>2025-05-10T10:43:07Z</time>
      </trkpt>
      <trkpt lat="44.88714" lon="0.82428">
        <ele>136.4</ele>
        <time>2025-05-10T10:43:08Z</time>
      </trkpt>
      <trkpt lat="44.88713" lon="0.82431">
        <ele>137.2</ele>
        <time>2025-05-10T10:43:09Z</time>
      </trkpt>
      <trkpt lat="44.88712" lon="0.82434">
        <ele>137.8</ele>
        <time>2025-05-10T10:43:10Z</time>
      </trkpt>
      <trkpt lat="44.88711" lon="0.82437">
        <ele>138</ele>
        <time>2025-05-10T10:43:11Z</time>
      </trkpt>
      <trkpt lat="44.8871" lon="0.8244">
        <ele>138.2</ele>
        <time>2025-05-10T10:43:12Z</time>
      </trkpt>
      <trkpt lat="44.8871" lon="0.82444">
        <ele>138.6</ele>
        <time>2025-05-10T10:43:13Z</time>
      </trkpt>
      <trkpt lat="44.88709" lon="0.82446">
        <ele>138.8</ele>
        <time>2025-05-10T10:43:14Z</time>
      </trkpt>
      <trkpt lat="44.88708" lon="0.82449">
        <ele>139</ele>
        <time>2025-05-10T10:43:15Z</time>
      </trkpt>
      <trkpt lat="44.88708" lon="0.82452">
        <ele>139.4</ele>
        <time>2025-05-10T10:43:16Z</time>
      </trkpt>
      <trkpt lat="44.88707" lon="0.82454">
        <ele>139.8</ele>
        <time>2025-05-10T10:43:17Z</time>
      </trkpt>
      <trkpt lat="44.88707" lon="0.82457">
        <ele>140</ele>
        <time>2025-05-10T10:43:18Z</time>
      </trkpt>
      <trkpt lat="44.88706" lon="0.82459">
        <ele>140.2</ele>
        <time>2025-05-10T10:43:19Z</time>
      </trkpt>
      <trkpt lat="44.88705" lon="0.82462">
        <ele>140.4</ele>
        <time>2025-05-10T10:43:20Z</time>
      </trkpt>
      <trkpt lat="44.88704" lon="0.82465">
        <ele>140.8</ele>
        <time>2025-05-10T10:43:21Z</time>
      </trkpt>
      <trkpt lat="44.88704" lon="0.82468">
        <ele>141</ele>
        <time>2025-05-10T10:43:22Z</time>
      </trkpt>
      <trkpt lat="44.88703" lon="0.82471">
        <ele>141.2</ele>
        <time>2025-05-10T10:43:23Z</time>
      </trkpt>
      <trkpt lat="44.88702" lon="0.82474">
        <ele>141.2</ele>
        <time>2025-05-10T10:43:24Z</time>
      </trkpt>
      <trkpt lat="44.88702" lon="0.82477">
        <ele>141.6</ele>
        <time>2025-05-10T10:43:25Z</time>
      </trkpt>
      <trkpt lat="44.88701" lon="0.82479">
        <ele>141.8</ele>
        <time>2025-05-10T10:43:26Z</time>
      </trkpt>
      <trkpt lat="44.88701" lon="0.82482">
        <ele>142</ele>
        <time>2025-05-10T10:43:27Z</time>
      </trkpt>
      <trkpt lat="44.887" lon="0.82485">
        <ele>142.2</ele>
        <time>2025-05-10T10:43:28Z</time>
      </trkpt>
      <trkpt lat="44.88699" lon="0.82488">
        <ele>142.4</ele>
        <time>2025-05-10T10:43:29Z</time>
      </trkpt>
      <trkpt lat="44.88698" lon="0.82491">
        <ele>142.6</ele>
        <time>2025-05-10T10:43:30Z</time>
      </trkpt>
      <trkpt lat="44.88697" lon="0.82494">
        <ele>142.8</ele>
        <time>2025-05-10T10:43:31Z</time>
      </trkpt>
      <trkpt lat="44.88697" lon="0.82496">
        <ele>143</ele>
        <time>2025-05-10T10:43:32Z</time>
      </trkpt>
      <trkpt lat="44.88695" lon="0.82499">
        <ele>143.2</ele>
        <time>2025-05-10T10:43:33Z</time>
      </trkpt>
      <trkpt lat="44.88695" lon="0.82502">
        <ele>143.2</ele>
        <time>2025-05-10T10:43:34Z</time>
      </trkpt>
      <trkpt lat="44.88693" lon="0.82505">
        <ele>143.4</ele>
        <time>2025-05-10T10:43:35Z</time>
      </trkpt>
      <trkpt lat="44.88692" lon="0.82507">
        <ele>143.6</ele>
        <time>2025-05-10T10:43:36Z</time>
      </trkpt>
      <trkpt lat="44.8869" lon="0.82511">
        <ele>143.6</ele>
        <time>2025-05-10T10:43:37Z</time>
      </trkpt>
      <trkpt lat="44.88689" lon="0.82515">
        <ele>143.8</ele>
        <time>2025-05-10T10:43:38Z</time>
      </trkpt>
      <trkpt lat="44.88688" lon="0.82518">
        <ele>143.8</ele>
        <time>2025-05-10T10:43:39Z</time>
      </trkpt>
      <trkpt lat="44.88686" lon="0.82522">
        <ele>143.8</ele>
        <time>2025-05-10T10:43:40Z</time>
      </trkpt>
      <trkpt lat="44.88684" lon="0.82526">
        <ele>143.8</ele>
        <time>2025-05-10T10:43:41Z</time>
      </trkpt>
      <trkpt lat="44.88681" lon="0.82531">
        <ele>143.8</ele>
        <time>2025-05-10T10:43:42Z</time>
      </trkpt>
      <trkpt lat="44.8868" lon="0.82535">
        <ele>143.8</ele>
        <time>2025-05-10T10:43:43Z</time>
      </trkpt>
      <trkpt lat="44.88677" lon="0.8254">
        <ele>143.8</ele>
        <time>2025-05-10T10:43:44Z</time>
      </trkpt>
      <trkpt lat="44.88675" lon="0.82545">
        <ele>143.8</ele>
        <time>2025-05-10T10:43:45Z</time>
      </trkpt>
      <trkpt lat="44.88672" lon="0.82551">
        <ele>143.6</ele>
        <time>2025-05-10T10:43:46Z</time>
      </trkpt>
      <trkpt lat="44.88669" lon="0.82556">
        <ele>143.4</ele>
        <time>2025-05-10T10:43:47Z</time>
      </trkpt>
      <trkpt lat="44.88667" lon="0.82563">
        <ele>143.2</ele>
        <time>2025-05-10T10:43:48Z</time>
      </trkpt>
      <trkpt lat="44.88665" lon="0.82569">
        <ele>142.8</ele>
        <time>2025-05-10T10:43:49Z</time>
      </trkpt>
      <trkpt lat="44.88663" lon="0.82576">
        <ele>142</ele>
        <time>2025-05-10T10:43:50Z</time>
      </trkpt>
      <trkpt lat="44.88661" lon="0.82582">
        <ele>141.6</ele>
        <time>2025-05-10T10:43:51Z</time>
      </trkpt>
      <trkpt lat="44.88658" lon="0.82589">
        <ele>141.4</ele>
        <time>2025-05-10T10:43:52Z</time>
      </trkpt>
      <trkpt lat="44.88657" lon="0.82596">
        <ele>141.4</ele>
        <time>2025-05-10T10:43:53Z</time>
      </trkpt>
      <trkpt lat="44.88655" lon="0.82602">
        <ele>141.4</ele>
        <time>2025-05-10T10:43:54Z</time>
      </trkpt>
      <trkpt lat="44.88653" lon="0.82609">
        <ele>141.4</ele>
        <time>2025-05-10T10:43:55Z</time>
      </trkpt>
      <trkpt lat="44.88651" lon="0.82615">
        <ele>141.4</ele>
        <time>2025-05-10T10:43:56Z</time>
      </trkpt>
      <trkpt lat="44.88649" lon="0.82621">
        <ele>141.6</ele>
        <time>2025-05-10T10:43:57Z</time>
      </trkpt>
      <trkpt lat="44.88647" lon="0.82627">
        <ele>141.6</ele>
        <time>2025-05-10T10:43:58Z</time>
      </trkpt>
      <trkpt lat="44.88645" lon="0.82632">
        <ele>142</ele>
        <time>2025-05-10T10:43:59Z</time>
      </trkpt>
      <trkpt lat="44.88642" lon="0.82637">
        <ele>142.2</ele>
        <time>2025-05-10T10:44:00Z</time>
      </trkpt>
      <trkpt lat="44.8864" lon="0.82643">
        <ele>142.8</ele>
        <time>2025-05-10T10:44:01Z</time>
      </trkpt>
      <trkpt lat="44.88638" lon="0.82649">
        <ele>143</ele>
        <time>2025-05-10T10:44:02Z</time>
      </trkpt>
      <trkpt lat="44.88637" lon="0.82654">
        <ele>143.2</ele>
        <time>2025-05-10T10:44:03Z</time>
      </trkpt>
      <trkpt lat="44.88635" lon="0.82659">
        <ele>143.4</ele>
        <time>2025-05-10T10:44:04Z</time>
      </trkpt>
      <trkpt lat="44.88634" lon="0.82664">
        <ele>143.8</ele>
        <time>2025-05-10T10:44:05Z</time>
      </trkpt>
      <trkpt lat="44.88633" lon="0.82668">
        <ele>144.2</ele>
        <time>2025-05-10T10:44:06Z</time>
      </trkpt>
      <trkpt lat="44.88632" lon="0.82672">
        <ele>144.6</ele>
        <time>2025-05-10T10:44:07Z</time>
      </trkpt>
      <trkpt lat="44.8863" lon="0.82676">
        <ele>144.8</ele>
        <time>2025-05-10T10:44:08Z</time>
      </trkpt>
      <trkpt lat="44.88629" lon="0.8268">
        <ele>145.2</ele>
        <time>2025-05-10T10:44:09Z</time>
      </trkpt>
      <trkpt lat="44.88627" lon="0.82685">
        <ele>145.6</ele>
        <time>2025-05-10T10:44:10Z</time>
      </trkpt>
      <trkpt lat="44.88626" lon="0.82689">
        <ele>145.8</ele>
        <time>2025-05-10T10:44:11Z</time>
      </trkpt>
      <trkpt lat="44.88624" lon="0.82693">
        <ele>146</ele>
        <time>2025-05-10T10:44:12Z</time>
      </trkpt>
      <trkpt lat="44.88622" lon="0.82698">
        <ele>146.2</ele>
        <time>2025-05-10T10:44:13Z</time>
      </trkpt>
      <trkpt lat="44.88621" lon="0.82701">
        <ele>146.4</ele>
        <time>2025-05-10T10:44:14Z</time>
      </trkpt>
      <trkpt lat="44.88619" lon="0.82705">
        <ele>146.6</ele>
        <time>2025-05-10T10:44:15Z</time>
      </trkpt>
      <trkpt lat="44.88618" lon="0.82709">
        <ele>147</ele>
        <time>2025-05-10T10:44:16Z</time>
      </trkpt>
      <trkpt lat="44.88617" lon="0.82713">
        <ele>147.4</ele>
        <time>2025-05-10T10:44:17Z</time>
      </trkpt>
      <trkpt lat="44.88616" lon="0.82718">
        <ele>147.6</ele>
        <time>2025-05-10T10:44:18Z</time>
      </trkpt>
      <trkpt lat="44.88615" lon="0.82722">
        <ele>147.8</ele>
        <time>2025-05-10T10:44:19Z</time>
      </trkpt>
      <trkpt lat="44.88614" lon="0.82726">
        <ele>148.2</ele>
        <time>2025-05-10T10:44:20Z</time>
      </trkpt>
      <trkpt lat="44.88613" lon="0.82729">
        <ele>148.4</ele>
        <time>2025-05-10T10:44:21Z</time>
      </trkpt>
      <trkpt lat="44.88612" lon="0.82732">
        <ele>148.6</ele>
        <time>2025-05-10T10:44:22Z</time>
      </trkpt>
      <trkpt lat="44.88611" lon="0.82734">
        <ele>148.8</ele>
        <time>2025-05-10T10:44:23Z</time>
      </trkpt>
      <trkpt lat="44.8861" lon="0.82737">
        <ele>149</ele>
        <time>2025-05-10T10:44:24Z</time>
      </trkpt>
      <trkpt lat="44.88609" lon="0.82739">
        <ele>149.2</ele>
        <time>2025-05-10T10:44:25Z</time>
      </trkpt>
      <trkpt lat="44.88608" lon="0.82741">
        <ele>149.2</ele>
        <time>2025-05-10T10:44:26Z</time>
      </trkpt>
      <trkpt lat="44.88607" lon="0.82742">
        <ele>149.2</ele>
        <time>2025-05-10T10:44:27Z</time>
      </trkpt>
      <trkpt lat="44.88606" lon="0.82744">
        <ele>149.2</ele>
        <time>2025-05-10T10:44:28Z</time>
      </trkpt>
      <trkpt lat="44.88606" lon="0.82743">
        <ele>149.2</ele>
        <time>2025-05-10T10:44:29Z</time>
      </trkpt>
      <trkpt lat="44.88606" lon="0.82744">
        <ele>149.2</ele>
        <time>2025-05-10T10:44:30Z</time>
      </trkpt>
      <trkpt lat="44.88606" lon="0.82744">
        <ele>149.2</ele>
        <time>2025-05-10T10:44:31Z</time>
      </trkpt>
      <trkpt lat="44.88604" lon="0.82749">
        <ele>148.4</ele>
        <time>2025-05-10T10:47:27Z</time>
      </trkpt>
      <trkpt lat="44.88603" lon="0.82753">
        <ele>148.4</ele>
        <time>2025-05-10T10:47:28Z</time>
      </trkpt>
      <trkpt lat="44.88602" lon="0.82757">
        <ele>148.4</ele>
        <time>2025-05-10T10:47:29Z</time>
      </trkpt>
      <trkpt lat="44.88601" lon="0.82762">
        <ele>148.4</ele>
        <time>2025-05-10T10:47:30Z</time>
      </trkpt>
      <trkpt lat="44.88599" lon="0.82768">
        <ele>148.2</ele>
        <time>2025-05-10T10:47:31Z</time>
      </trkpt>
      <trkpt lat="44.88597" lon="0.82775">
        <ele>148</ele>
        <time>2025-05-10T10:47:32Z</time>
      </trkpt>
      <trkpt lat="44.88595" lon="0.82781">
        <ele>148</ele>
        <time>2025-05-10T10:47:33Z</time>
      </trkpt>
      <trkpt lat="44.88592" lon="0.82788">
        <ele>147.8</ele>
        <time>2025-05-10T10:47:34Z</time>
      </trkpt>
      <trkpt lat="44.88589" lon="0.82794">
        <ele>147.6</ele>
        <time>2025-05-10T10:47:35Z</time>
      </trkpt>
      <trkpt lat="44.88584" lon="0.82801">
        <ele>147.2</ele>
        <time>2025-05-10T10:47:36Z</time>
      </trkpt>
      <trkpt lat="44.88578" lon="0.82807">
        <ele>146.6</ele>
        <time>2025-05-10T10:47:37Z</time>
      </trkpt>
      <trkpt lat="44.88573" lon="0.82814">
        <ele>146</ele>
        <time>2025-05-10T10:47:38Z</time>
      </trkpt>
      <trkpt lat="44.88568" lon="0.82822">
        <ele>145.6</ele>
        <time>2025-05-10T10:47:39Z</time>
      </trkpt>
      <trkpt lat="44.88563" lon="0.82831">
        <ele>145.2</ele>
        <time>2025-05-10T10:47:40Z</time>
      </trkpt>
      <trkpt lat="44.88558" lon="0.8284">
        <ele>144.2</ele>
        <time>2025-05-10T10:47:41Z</time>
      </trkpt>
      <trkpt lat="44.88553" lon="0.82849">
        <ele>143.2</ele>
        <time>2025-05-10T10:47:42Z</time>
      </trkpt>
      <trkpt lat="44.8855" lon="0.82859">
        <ele>142</ele>
        <time>2025-05-10T10:47:43Z</time>
      </trkpt>
      <trkpt lat="44.88546" lon="0.82869">
        <ele>141.2</ele>
        <time>2025-05-10T10:47:44Z</time>
      </trkpt>
      <trkpt lat="44.88541" lon="0.82877">
        <ele>140.4</ele>
        <time>2025-05-10T10:47:45Z</time>
      </trkpt>
      <trkpt lat="44.88535" lon="0.82884">
        <ele>140.2</ele>
        <time>2025-05-10T10:47:46Z</time>
      </trkpt>
      <trkpt lat="44.8853" lon="0.82891">
        <ele>139.8</ele>
        <time>2025-05-10T10:47:47Z</time>
      </trkpt>
      <trkpt lat="44.88526" lon="0.82898">
        <ele>139.8</ele>
        <time>2025-05-10T10:47:48Z</time>
      </trkpt>
      <trkpt lat="44.88521" lon="0.82906">
        <ele>139.8</ele>
        <time>2025-05-10T10:47:49Z</time>
      </trkpt>
      <trkpt lat="44.88517" lon="0.82913">
        <ele>139.8</ele>
        <time>2025-05-10T10:47:50Z</time>
      </trkpt>
      <trkpt lat="44.88512" lon="0.82921">
        <ele>139.8</ele>
        <time>2025-05-10T10:47:51Z</time>
      </trkpt>
      <trkpt lat="44.88507" lon="0.82929">
        <ele>139.8</ele>
        <time>2025-05-10T10:47:52Z</time>
      </trkpt>
      <trkpt lat="44.88502" lon="0.82936">
        <ele>139.8</ele>
        <time>2025-05-10T10:47:53Z</time>
      </trkpt>
      <trkpt lat="44.88497" lon="0.82944">
        <ele>139.6</ele>
        <time>2025-05-10T10:47:54Z</time>
      </trkpt>
      <trkpt lat="44.88492" lon="0.82953">
        <ele>139.2</ele>
        <time>2025-05-10T10:47:55Z</time>
      </trkpt>
      <trkpt lat="44.88486" lon="0.82961">
        <ele>138.8</ele>
        <time>2025-05-10T10:47:56Z</time>
      </trkpt>
      <trkpt lat="44.8848" lon="0.82969">
        <ele>138.2</ele>
        <time>2025-05-10T10:47:57Z</time>
      </trkpt>
      <trkpt lat="44.88476" lon="0.82979">
        <ele>137.2</ele>
        <time>2025-05-10T10:47:58Z</time>
      </trkpt>
      <trkpt lat="44.88475" lon="0.82988">
        <ele>136</ele>
        <time>2025-05-10T10:47:59Z</time>
      </trkpt>
      <trkpt lat="44.88476" lon="0.82995">
        <ele>135.4</ele>
        <time>2025-05-10T10:48:00Z</time>
      </trkpt>
      <trkpt lat="44.8848" lon="0.83001">
        <ele>134.4</ele>
        <time>2025-05-10T10:48:01Z</time>
      </trkpt>
      <trkpt lat="44.88485" lon="0.83006">
        <ele>134.2</ele>
        <time>2025-05-10T10:48:02Z</time>
      </trkpt>
      <trkpt lat="44.8849" lon="0.83012">
        <ele>134</ele>
        <time>2025-05-10T10:48:03Z</time>
      </trkpt>
      <trkpt lat="44.88493" lon="0.8302">
        <ele>134</ele>
        <time>2025-05-10T10:48:04Z</time>
      </trkpt>
      <trkpt lat="44.88496" lon="0.83028">
        <ele>134.2</ele>
        <time>2025-05-10T10:48:05Z</time>
      </trkpt>
      <trkpt lat="44.885" lon="0.83037">
        <ele>134.2</ele>
        <time>2025-05-10T10:48:06Z</time>
      </trkpt>
      <trkpt lat="44.88503" lon="0.83047">
        <ele>134</ele>
        <time>2025-05-10T10:48:07Z</time>
      </trkpt>
      <trkpt lat="44.88505" lon="0.83057">
        <ele>134</ele>
        <time>2025-05-10T10:48:08Z</time>
      </trkpt>
      <trkpt lat="44.88507" lon="0.83068">
        <ele>133.6</ele>
        <time>2025-05-10T10:48:09Z</time>
      </trkpt>
      <trkpt lat="44.88508" lon="0.83078">
        <ele>133</ele>
        <time>2025-05-10T10:48:10Z</time>
      </trkpt>
      <trkpt lat="44.8851" lon="0.83088">
        <ele>132.4</ele>
        <time>2025-05-10T10:48:11Z</time>
      </trkpt>
      <trkpt lat="44.88512" lon="0.83099">
        <ele>131.8</ele>
        <time>2025-05-10T10:48:12Z</time>
      </trkpt>
      <trkpt lat="44.88514" lon="0.83109">
        <ele>131.2</ele>
        <time>2025-05-10T10:48:13Z</time>
      </trkpt>
      <trkpt lat="44.88516" lon="0.83119">
        <ele>131</ele>
        <time>2025-05-10T10:48:14Z</time>
      </trkpt>
      <trkpt lat="44.88518" lon="0.8313">
        <ele>130.8</ele>
        <time>2025-05-10T10:48:15Z</time>
      </trkpt>
      <trkpt lat="44.8852" lon="0.83141">
        <ele>130.6</ele>
        <time>2025-05-10T10:48:16Z</time>
      </trkpt>
      <trkpt lat="44.88523" lon="0.83152">
        <ele>130.6</ele>
        <time>2025-05-10T10:48:17Z</time>
      </trkpt>
      <trkpt lat="44.88526" lon="0.83163">
        <ele>130.6</ele>
        <time>2025-05-10T10:48:18Z</time>
      </trkpt>
      <trkpt lat="44.88528" lon="0.83172">
        <ele>130.4</ele>
        <time>2025-05-10T10:48:19Z</time>
      </trkpt>
      <trkpt lat="44.88529" lon="0.83183">
        <ele>129.8</ele>
        <time>2025-05-10T10:48:20Z</time>
      </trkpt>
      <trkpt lat="44.8853" lon="0.83195">
        <ele>129.2</ele>
        <time>2025-05-10T10:48:21Z</time>
      </trkpt>
      <trkpt lat="44.88532" lon="0.83206">
        <ele>128.2</ele>
        <time>2025-05-10T10:48:22Z</time>
      </trkpt>
      <trkpt lat="44.88535" lon="0.83215">
        <ele>127.8</ele>
        <time>2025-05-10T10:48:23Z</time>
      </trkpt>
      <trkpt lat="44.88537" lon="0.83225">
        <ele>127</ele>
        <time>2025-05-10T10:48:24Z</time>
      </trkpt>
      <trkpt lat="44.8854" lon="0.83234">
        <ele>126.2</ele>
        <time>2025-05-10T10:48:25Z</time>
      </trkpt>
      <trkpt lat="44.88542" lon="0.83244">
        <ele>125</ele>
        <time>2025-05-10T10:48:26Z</time>
      </trkpt>
      <trkpt lat="44.88542" lon="0.83252">
        <ele>124.2</ele>
        <time>2025-05-10T10:48:27Z</time>
      </trkpt>
      <trkpt lat="44.88541" lon="0.83261">
        <ele>123</ele>
        <time>2025-05-10T10:48:28Z</time>
      </trkpt>
      <trkpt lat="44.88539" lon="0.83268">
        <ele>122.6</ele>
        <time>2025-05-10T10:48:29Z</time>
      </trkpt>
      <trkpt lat="44.88535" lon="0.83272">
        <ele>121.8</ele>
        <time>2025-05-10T10:48:30Z</time>
      </trkpt>
      <trkpt lat="44.88531" lon="0.83276">
        <ele>120.6</ele>
        <time>2025-05-10T10:48:31Z</time>
      </trkpt>
      <trkpt lat="44.88526" lon="0.83278">
        <ele>120</ele>
        <time>2025-05-10T10:48:32Z</time>
      </trkpt>
      <trkpt lat="44.88522" lon="0.8328">
        <ele>119.8</ele>
        <time>2025-05-10T10:48:33Z</time>
      </trkpt>
      <trkpt lat="44.88518" lon="0.83283">
        <ele>119.8</ele>
        <time>2025-05-10T10:48:34Z</time>
      </trkpt>
      <trkpt lat="44.88516" lon="0.83286">
        <ele>119.8</ele>
        <time>2025-05-10T10:48:35Z</time>
      </trkpt>
      <trkpt lat="44.88513" lon="0.83289">
        <ele>119.8</ele>
        <time>2025-05-10T10:48:36Z</time>
      </trkpt>
      <trkpt lat="44.8851" lon="0.8329">
        <ele>120</ele>
        <time>2025-05-10T10:48:37Z</time>
      </trkpt>
      <trkpt lat="44.88508" lon="0.83291">
        <ele>120.6</ele>
        <time>2025-05-10T10:48:38Z</time>
      </trkpt>
      <trkpt lat="44.88506" lon="0.83291">
        <ele>121.2</ele>
        <time>2025-05-10T10:48:39Z</time>
      </trkpt>
      <trkpt lat="44.88504" lon="0.83292">
        <ele>121.6</ele>
        <time>2025-05-10T10:48:40Z</time>
      </trkpt>
      <trkpt lat="44.88502" lon="0.83293">
        <ele>122</ele>
        <time>2025-05-10T10:48:41Z</time>
      </trkpt>
      <trkpt lat="44.885" lon="0.83294">
        <ele>122.4</ele>
        <time>2025-05-10T10:48:42Z</time>
      </trkpt>
      <trkpt lat="44.88498" lon="0.83296">
        <ele>122.6</ele>
        <time>2025-05-10T10:48:43Z</time>
      </trkpt>
      <trkpt lat="44.88496" lon="0.83297">
        <ele>122.8</ele>
        <time>2025-05-10T10:48:44Z</time>
      </trkpt>
      <trkpt lat="44.88495" lon="0.83299">
        <ele>123</ele>
        <time>2025-05-10T10:48:45Z</time>
      </trkpt>
      <trkpt lat="44.88493" lon="0.833">
        <ele>123.2</ele>
        <time>2025-05-10T10:48:46Z</time>
      </trkpt>
      <trkpt lat="44.88491" lon="0.833">
        <ele>123.4</ele>
        <time>2025-05-10T10:48:47Z</time>
      </trkpt>
      <trkpt lat="44.88489" lon="0.833">
        <ele>123.4</ele>
        <time>2025-05-10T10:48:48Z</time>
      </trkpt>
      <trkpt lat="44.88487" lon="0.833">
        <ele>123.6</ele>
        <time>2025-05-10T10:48:49Z</time>
      </trkpt>
      <trkpt lat="44.88485" lon="0.83301">
        <ele>123.8</ele>
        <time>2025-05-10T10:48:50Z</time>
      </trkpt>
      <trkpt lat="44.88483" lon="0.83302">
        <ele>123.8</ele>
        <time>2025-05-10T10:48:51Z</time>
      </trkpt>
      <trkpt lat="44.88481" lon="0.83302">
        <ele>124</ele>
        <time>2025-05-10T10:48:52Z</time>
      </trkpt>
      <trkpt lat="44.88479" lon="0.83302">
        <ele>124.2</ele>
        <time>2025-05-10T10:48:53Z</time>
      </trkpt>
      <trkpt lat="44.88478" lon="0.83301">
        <ele>124.2</ele>
        <time>2025-05-10T10:48:54Z</time>
      </trkpt>
      <trkpt lat="44.88477" lon="0.83301">
        <ele>124.4</ele>
        <time>2025-05-10T10:48:55Z</time>
      </trkpt>
      <trkpt lat="44.88478" lon="0.83301">
        <ele>124.6</ele>
        <time>2025-05-10T10:48:56Z</time>
      </trkpt>
      <trkpt lat="44.88478" lon="0.83301">
        <ele>124.6</ele>
        <time>2025-05-10T10:48:57Z</time>
      </trkpt>
      <trkpt lat="44.88473" lon="0.833">
        <ele>125</ele>
        <time>2025-05-10T10:49:04Z</time>
      </trkpt>
      <trkpt lat="44.88471" lon="0.833">
        <ele>125</ele>
        <time>2025-05-10T10:49:05Z</time>
      </trkpt>
      <trkpt lat="44.88468" lon="0.83299">
        <ele>125</ele>
        <time>2025-05-10T10:49:06Z</time>
      </trkpt>
      <trkpt lat="44.88465" lon="0.83298">
        <ele>125</ele>
        <time>2025-05-10T10:49:07Z</time>
      </trkpt>
      <trkpt lat="44.88462" lon="0.83298">
        <ele>125</ele>
        <time>2025-05-10T10:49:08Z</time>
      </trkpt>
      <trkpt lat="44.88458" lon="0.83298">
        <ele>124.8</ele>
        <time>2025-05-10T10:49:09Z</time>
      </trkpt>
      <trkpt lat="44.88455" lon="0.833">
        <ele>124.8</ele>
        <time>2025-05-10T10:49:10Z</time>
      </trkpt>
      <trkpt lat="44.88452" lon="0.83304">
        <ele>124.4</ele>
        <time>2025-05-10T10:49:11Z</time>
      </trkpt>
      <trkpt lat="44.88449" lon="0.83309">
        <ele>124.4</ele>
        <time>2025-05-10T10:49:12Z</time>
      </trkpt>
      <trkpt lat="44.88447" lon="0.83316">
        <ele>124.4</ele>
        <time>2025-05-10T10:49:13Z</time>
      </trkpt>
      <trkpt lat="44.88446" lon="0.83322">
        <ele>124.2</ele>
        <time>2025-05-10T10:49:14Z</time>
      </trkpt>
      <trkpt lat="44.88443" lon="0.83327">
        <ele>124.2</ele>
        <time>2025-05-10T10:49:15Z</time>
      </trkpt>
      <trkpt lat="44.88441" lon="0.83332">
        <ele>124</ele>
        <time>2025-05-10T10:49:16Z</time>
      </trkpt>
      <trkpt lat="44.88439" lon="0.83338">
        <ele>123.8</ele>
        <time>2025-05-10T10:49:17Z</time>
      </trkpt>
      <trkpt lat="44.88437" lon="0.83343">
        <ele>123.8</ele>
        <time>2025-05-10T10:49:18Z</time>
      </trkpt>
      <trkpt lat="44.88436" lon="0.83349">
        <ele>123.8</ele>
        <time>2025-05-10T10:49:19Z</time>
      </trkpt>
      <trkpt lat="44.88433" lon="0.83353">
        <ele>123.8</ele>
        <time>2025-05-10T10:49:20Z</time>
      </trkpt>
      <trkpt lat="44.88431" lon="0.83359">
        <ele>123.8</ele>
        <time>2025-05-10T10:49:21Z</time>
      </trkpt>
      <trkpt lat="44.88428" lon="0.83364">
        <ele>123.8</ele>
        <time>2025-05-10T10:49:22Z</time>
      </trkpt>
      <trkpt lat="44.88426" lon="0.83369">
        <ele>124</ele>
        <time>2025-05-10T10:49:23Z</time>
      </trkpt>
      <trkpt lat="44.88424" lon="0.83375">
        <ele>124</ele>
        <time>2025-05-10T10:49:24Z</time>
      </trkpt>
      <trkpt lat="44.88422" lon="0.83381">
        <ele>124.2</ele>
        <time>2025-05-10T10:49:25Z</time>
      </trkpt>
      <trkpt lat="44.8842" lon="0.83385">
        <ele>124.4</ele>
        <time>2025-05-10T10:49:26Z</time>
      </trkpt>
      <trkpt lat="44.88418" lon="0.8339">
        <ele>124.6</ele>
        <time>2025-05-10T10:49:27Z</time>
      </trkpt>
      <trkpt lat="44.88416" lon="0.83395">
        <ele>124.8</ele>
        <time>2025-05-10T10:49:28Z</time>
      </trkpt>
      <trkpt lat="44.88414" lon="0.83399">
        <ele>125</ele>
        <time>2025-05-10T10:49:29Z</time>
      </trkpt>
      <trkpt lat="44.88411" lon="0.83404">
        <ele>125.2</ele>
        <time>2025-05-10T10:49:30Z</time>
      </trkpt>
      <trkpt lat="44.88409" lon="0.83409">
        <ele>125.2</ele>
        <time>2025-05-10T10:49:31Z</time>
      </trkpt>
      <trkpt lat="44.88407" lon="0.83414">
        <ele>125.6</ele>
        <time>2025-05-10T10:49:32Z</time>
      </trkpt>
      <trkpt lat="44.88405" lon="0.83419">
        <ele>126</ele>
        <time>2025-05-10T10:49:33Z</time>
      </trkpt>
      <trkpt lat="44.88402" lon="0.83424">
        <ele>126.2</ele>
        <time>2025-05-10T10:49:34Z</time>
      </trkpt>
      <trkpt lat="44.88399" lon="0.83428">
        <ele>126.4</ele>
        <time>2025-05-10T10:49:35Z</time>
      </trkpt>
      <trkpt lat="44.88396" lon="0.83432">
        <ele>126.6</ele>
        <time>2025-05-10T10:49:36Z</time>
      </trkpt>
      <trkpt lat="44.88393" lon="0.83437">
        <ele>126.6</ele>
        <time>2025-05-10T10:49:37Z</time>
      </trkpt>
      <trkpt lat="44.8839" lon="0.83442">
        <ele>126.8</ele>
        <time>2025-05-10T10:49:38Z</time>
      </trkpt>
      <trkpt lat="44.88386" lon="0.83446">
        <ele>127</ele>
        <time>2025-05-10T10:49:39Z</time>
      </trkpt>
      <trkpt lat="44.88383" lon="0.8345">
        <ele>127</ele>
        <time>2025-05-10T10:49:40Z</time>
      </trkpt>
      <trkpt lat="44.88379" lon="0.83453">
        <ele>127</ele>
        <time>2025-05-10T10:49:41Z</time>
      </trkpt>
      <trkpt lat="44.88375" lon="0.83456">
        <ele>127</ele>
        <time>2025-05-10T10:49:42Z</time>
      </trkpt>
      <trkpt lat="44.8837" lon="0.83459">
        <ele>127</ele>
        <time>2025-05-10T10:49:43Z</time>
      </trkpt>
      <trkpt lat="44.88367" lon="0.83462">
        <ele>127</ele>
        <time>2025-05-10T10:49:44Z</time>
      </trkpt>
      <trkpt lat="44.88363" lon="0.83465">
        <ele>127</ele>
        <time>2025-05-10T10:49:45Z</time>
      </trkpt>
      <trkpt lat="44.88359" lon="0.83469">
        <ele>127</ele>
        <time>2025-05-10T10:49:46Z</time>
      </trkpt>
      <trkpt lat="44.88355" lon="0.83472">
        <ele>127.2</ele>
        <time>2025-05-10T10:49:47Z</time>
      </trkpt>
      <trkpt lat="44.88352" lon="0.83474">
        <ele>127.4</ele>
        <time>2025-05-10T10:49:48Z</time>
      </trkpt>
      <trkpt lat="44.88348" lon="0.83477">
        <ele>127.4</ele>
        <time>2025-05-10T10:49:49Z</time>
      </trkpt>
      <trkpt lat="44.88345" lon="0.83479">
        <ele>127.6</ele>
        <time>2025-05-10T10:49:50Z</time>
      </trkpt>
      <trkpt lat="44.88341" lon="0.83482">
        <ele>127.8</ele>
        <time>2025-05-10T10:49:51Z</time>
      </trkpt>
      <trkpt lat="44.88337" lon="0.83484">
        <ele>128</ele>
        <time>2025-05-10T10:49:52Z</time>
      </trkpt>
      <trkpt lat="44.88334" lon="0.83487">
        <ele>128.2</ele>
        <time>2025-05-10T10:49:53Z</time>
      </trkpt>
      <trkpt lat="44.88331" lon="0.83489">
        <ele>128.2</ele>
        <time>2025-05-10T10:49:54Z</time>
      </trkpt>
      <trkpt lat="44.88329" lon="0.83491">
        <ele>128.6</ele>
        <time>2025-05-10T10:49:55Z</time>
      </trkpt>
      <trkpt lat="44.88326" lon="0.83492">
        <ele>128.8</ele>
        <time>2025-05-10T10:49:56Z</time>
      </trkpt>
      <trkpt lat="44.88323" lon="0.83494">
        <ele>129</ele>
        <time>2025-05-10T10:49:57Z</time>
      </trkpt>
      <trkpt lat="44.88321" lon="0.83495">
        <ele>129.4</ele>
        <time>2025-05-10T10:49:58Z</time>
      </trkpt>
      <trkpt lat="44.88318" lon="0.83498">
        <ele>129.6</ele>
        <time>2025-05-10T10:49:59Z</time>
      </trkpt>
      <trkpt lat="44.88315" lon="0.835">
        <ele>130</ele>
        <time>2025-05-10T10:50:00Z</time>
      </trkpt>
      <trkpt lat="44.88312" lon="0.83501">
        <ele>130</ele>
        <time>2025-05-10T10:50:01Z</time>
      </trkpt>
      <trkpt lat="44.8831" lon="0.83503">
        <ele>130.4</ele>
        <time>2025-05-10T10:50:02Z</time>
      </trkpt>
      <trkpt lat="44.88307" lon="0.83504">
        <ele>130.6</ele>
        <time>2025-05-10T10:50:03Z</time>
      </trkpt>
      <trkpt lat="44.88304" lon="0.83506">
        <ele>131</ele>
        <time>2025-05-10T10:50:04Z</time>
      </trkpt>
      <trkpt lat="44.88301" lon="0.83507">
        <ele>131</ele>
        <time>2025-05-10T10:50:05Z</time>
      </trkpt>
      <trkpt lat="44.88298" lon="0.83509">
        <ele>131.4</ele>
        <time>2025-05-10T10:50:06Z</time>
      </trkpt>
      <trkpt lat="44.88295" lon="0.83511">
        <ele>131.4</ele>
        <time>2025-05-10T10:50:07Z</time>
      </trkpt>
      <trkpt lat="44.88292" lon="0.83514">
        <ele>131.6</ele>
        <time>2025-05-10T10:50:08Z</time>
      </trkpt>
      <trkpt lat="44.88289" lon="0.83515">
        <ele>131.6</ele>
        <time>2025-05-10T10:50:09Z</time>
      </trkpt>
      <trkpt lat="44.88286" lon="0.83517">
        <ele>131.8</ele>
        <time>2025-05-10T10:50:10Z</time>
      </trkpt>
      <trkpt lat="44.88283" lon="0.83519">
        <ele>132</ele>
        <time>2025-05-10T10:50:11Z</time>
      </trkpt>
      <trkpt lat="44.8828" lon="0.8352">
        <ele>132.2</ele>
        <time>2025-05-10T10:50:12Z</time>
      </trkpt>
      <trkpt lat="44.88277" lon="0.83522">
        <ele>132.4</ele>
        <time>2025-05-10T10:50:13Z</time>
      </trkpt>
      <trkpt lat="44.88274" lon="0.83524">
        <ele>132.6</ele>
        <time>2025-05-10T10:50:14Z</time>
      </trkpt>
      <trkpt lat="44.88271" lon="0.83525">
        <ele>132.8</ele>
        <time>2025-05-10T10:50:15Z</time>
      </trkpt>
      <trkpt lat="44.88268" lon="0.83527">
        <ele>133</ele>
        <time>2025-05-10T10:50:16Z</time>
      </trkpt>
      <trkpt lat="44.88265" lon="0.83528">
        <ele>133</ele>
        <time>2025-05-10T10:50:17Z</time>
      </trkpt>
      <trkpt lat="44.88261" lon="0.8353">
        <ele>133.2</ele>
        <time>2025-05-10T10:50:18Z</time>
      </trkpt>
      <trkpt lat="44.88257" lon="0.83531">
        <ele>133.2</ele>
        <time>2025-05-10T10:50:19Z</time>
      </trkpt>
      <trkpt lat="44.88253" lon="0.83533">
        <ele>133.4</ele>
        <time>2025-05-10T10:50:20Z</time>
      </trkpt>
      <trkpt lat="44.88249" lon="0.83535">
        <ele>133.4</ele>
        <time>2025-05-10T10:50:21Z</time>
      </trkpt>
      <trkpt lat="44.88245" lon="0.83536">
        <ele>133.4</ele>
        <time>2025-05-10T10:50:22Z</time>
      </trkpt>
      <trkpt lat="44.88241" lon="0.83538">
        <ele>133.4</ele>
        <time>2025-05-10T10:50:23Z</time>
      </trkpt>
      <trkpt lat="44.88237" lon="0.8354">
        <ele>133.4</ele>
        <time>2025-05-10T10:50:24Z</time>
      </trkpt>
      <trkpt lat="44.88233" lon="0.83542">
        <ele>133.4</ele>
        <time>2025-05-10T10:50:25Z</time>
      </trkpt>
      <trkpt lat="44.88228" lon="0.83544">
        <ele>133.4</ele>
        <time>2025-05-10T10:50:26Z</time>
      </trkpt>
      <trkpt lat="44.88224" lon="0.83545">
        <ele>133.4</ele>
        <time>2025-05-10T10:50:27Z</time>
      </trkpt>
      <trkpt lat="44.88219" lon="0.83547">
        <ele>133.2</ele>
        <time>2025-05-10T10:50:28Z</time>
      </trkpt>
      <trkpt lat="44.88214" lon="0.83548">
        <ele>133.2</ele>
        <time>2025-05-10T10:50:29Z</time>
      </trkpt>
      <trkpt lat="44.88209" lon="0.8355">
        <ele>133.2</ele>
        <time>2025-05-10T10:50:30Z</time>
      </trkpt>
      <trkpt lat="44.88204" lon="0.83552">
        <ele>133</ele>
        <time>2025-05-10T10:50:31Z</time>
      </trkpt>
      <trkpt lat="44.88199" lon="0.83554">
        <ele>132.8</ele>
        <time>2025-05-10T10:50:32Z</time>
      </trkpt>
      <trkpt lat="44.88193" lon="0.83557">
        <ele>132.8</ele>
        <time>2025-05-10T10:50:33Z</time>
      </trkpt>
      <trkpt lat="44.88188" lon="0.8356">
        <ele>132.4</ele>
        <time>2025-05-10T10:50:34Z</time>
      </trkpt>
      <trkpt lat="44.88183" lon="0.83563">
        <ele>132</ele>
        <time>2025-05-10T10:50:35Z</time>
      </trkpt>
      <trkpt lat="44.88178" lon="0.83567">
        <ele>131.6</ele>
        <time>2025-05-10T10:50:36Z</time>
      </trkpt>
      <trkpt lat="44.88172" lon="0.83572">
        <ele>131.2</ele>
        <time>2025-05-10T10:50:37Z</time>
      </trkpt>
      <trkpt lat="44.88166" lon="0.83576">
        <ele>130.8</ele>
        <time>2025-05-10T10:50:38Z</time>
      </trkpt>
      <trkpt lat="44.88159" lon="0.8358">
        <ele>130.4</ele>
        <time>2025-05-10T10:50:39Z</time>
      </trkpt>
      <trkpt lat="44.88153" lon="0.83585">
        <ele>129.8</ele>
        <time>2025-05-10T10:50:40Z</time>
      </trkpt>
      <trkpt lat="44.88147" lon="0.83592">
        <ele>129.6</ele>
        <time>2025-05-10T10:50:41Z</time>
      </trkpt>
      <trkpt lat="44.88141" lon="0.83597">
        <ele>128.8</ele>
        <time>2025-05-10T10:50:42Z</time>
      </trkpt>
      <trkpt lat="44.88134" lon="0.83602">
        <ele>128.6</ele>
        <time>2025-05-10T10:50:43Z</time>
      </trkpt>
      <trkpt lat="44.88127" lon="0.83609">
        <ele>127.2</ele>
        <time>2025-05-10T10:50:44Z</time>
      </trkpt>
      <trkpt lat="44.8812" lon="0.83616">
        <ele>126.2</ele>
        <time>2025-05-10T10:50:45Z</time>
      </trkpt>
      <trkpt lat="44.88112" lon="0.83623">
        <ele>125.4</ele>
        <time>2025-05-10T10:50:46Z</time>
      </trkpt>
      <trkpt lat="44.88104" lon="0.8363">
        <ele>124.6</ele>
        <time>2025-05-10T10:50:47Z</time>
      </trkpt>
      <trkpt lat="44.88096" lon="0.83638">
        <ele>124.2</ele>
        <time>2025-05-10T10:50:48Z</time>
      </trkpt>
      <trkpt lat="44.88087" lon="0.83646">
        <ele>122.2</ele>
        <time>2025-05-10T10:50:49Z</time>
      </trkpt>
      <trkpt lat="44.88079" lon="0.83654">
        <ele>120.6</ele>
        <time>2025-05-10T10:50:50Z</time>
      </trkpt>
      <trkpt lat="44.8807" lon="0.83661">
        <ele>118.4</ele>
        <time>2025-05-10T10:50:51Z</time>
      </trkpt>
      <trkpt lat="44.88061" lon="0.83668">
        <ele>117.2</ele>
        <time>2025-05-10T10:50:52Z</time>
      </trkpt>
      <trkpt lat="44.88053" lon="0.83675">
        <ele>116.8</ele>
        <time>2025-05-10T10:50:53Z</time>
      </trkpt>
      <trkpt lat="44.88046" lon="0.83683">
        <ele>115.8</ele>
        <time>2025-05-10T10:50:54Z</time>
      </trkpt>
      <trkpt lat="44.88039" lon="0.83692">
        <ele>115</ele>
        <time>2025-05-10T10:50:55Z</time>
      </trkpt>
      <trkpt lat="44.88034" lon="0.837">
        <ele>114.2</ele>
        <time>2025-05-10T10:50:56Z</time>
      </trkpt>
      <trkpt lat="44.88029" lon="0.8371">
        <ele>113.2</ele>
        <time>2025-05-10T10:50:57Z</time>
      </trkpt>
      <trkpt lat="44.88026" lon="0.83719">
        <ele>112.4</ele>
        <time>2025-05-10T10:50:58Z</time>
      </trkpt>
      <trkpt lat="44.88023" lon="0.83728">
        <ele>112.2</ele>
        <time>2025-05-10T10:50:59Z</time>
      </trkpt>
      <trkpt lat="44.88019" lon="0.83735">
        <ele>111.6</ele>
        <time>2025-05-10T10:51:00Z</time>
      </trkpt>
      <trkpt lat="44.88013" lon="0.8374">
        <ele>110.8</ele>
        <time>2025-05-10T10:51:01Z</time>
      </trkpt>
      <trkpt lat="44.88007" lon="0.83743">
        <ele>110.4</ele>
        <time>2025-05-10T10:51:02Z</time>
      </trkpt>
      <trkpt lat="44.87999" lon="0.83744">
        <ele>109.8</ele>
        <time>2025-05-10T10:51:03Z</time>
      </trkpt>
      <trkpt lat="44.87992" lon="0.83745">
        <ele>109.8</ele>
        <time>2025-05-10T10:51:04Z</time>
      </trkpt>
      <trkpt lat="44.87984" lon="0.83743">
        <ele>109.2</ele>
        <time>2025-05-10T10:51:05Z</time>
      </trkpt>
      <trkpt lat="44.87977" lon="0.83742">
        <ele>108.2</ele>
        <time>2025-05-10T10:51:06Z</time>
      </trkpt>
      <trkpt lat="44.87969" lon="0.83739">
        <ele>107.8</ele>
        <time>2025-05-10T10:51:07Z</time>
      </trkpt>
      <trkpt lat="44.87962" lon="0.83736">
        <ele>107.4</ele>
        <time>2025-05-10T10:51:08Z</time>
      </trkpt>
      <trkpt lat="44.87954" lon="0.83731">
        <ele>106.8</ele>
        <time>2025-05-10T10:51:09Z</time>
      </trkpt>
      <trkpt lat="44.87947" lon="0.83726">
        <ele>106.4</ele>
        <time>2025-05-10T10:51:10Z</time>
      </trkpt>
      <trkpt lat="44.8794" lon="0.83721">
        <ele>105.6</ele>
        <time>2025-05-10T10:51:11Z</time>
      </trkpt>
      <trkpt lat="44.87933" lon="0.83715">
        <ele>105.4</ele>
        <time>2025-05-10T10:51:12Z</time>
      </trkpt>
      <trkpt lat="44.87927" lon="0.83709">
        <ele>105.4</ele>
        <time>2025-05-10T10:51:13Z</time>
      </trkpt>
      <trkpt lat="44.8792" lon="0.83704">
        <ele>105.2</ele>
        <time>2025-05-10T10:51:14Z</time>
      </trkpt>
      <trkpt lat="44.87913" lon="0.83699">
        <ele>105.2</ele>
        <time>2025-05-10T10:51:15Z</time>
      </trkpt>
      <trkpt lat="44.87906" lon="0.83693">
        <ele>105</ele>
        <time>2025-05-10T10:51:16Z</time>
      </trkpt>
      <trkpt lat="44.87899" lon="0.83688">
        <ele>104.8</ele>
        <time>2025-05-10T10:51:17Z</time>
      </trkpt>
      <trkpt lat="44.87892" lon="0.83681">
        <ele>104.6</ele>
        <time>2025-05-10T10:51:18Z</time>
      </trkpt>
      <trkpt lat="44.87885" lon="0.83674">
        <ele>104.4</ele>
        <time>2025-05-10T10:51:19Z</time>
      </trkpt>
      <trkpt lat="44.87879" lon="0.83667">
        <ele>104.2</ele>
        <time>2025-05-10T10:51:20Z</time>
      </trkpt>
      <trkpt lat="44.87872" lon="0.83659">
        <ele>103.6</ele>
        <time>2025-05-10T10:51:21Z</time>
      </trkpt>
      <trkpt lat="44.87865" lon="0.83651">
        <ele>102.6</ele>
        <time>2025-05-10T10:51:22Z</time>
      </trkpt>
      <trkpt lat="44.87858" lon="0.83642">
        <ele>102</ele>
        <time>2025-05-10T10:51:23Z</time>
      </trkpt>
      <trkpt lat="44.87851" lon="0.83633">
        <ele>101.2</ele>
        <time>2025-05-10T10:51:24Z</time>
      </trkpt>
      <trkpt lat="44.87844" lon="0.83624">
        <ele>100.6</ele>
        <time>2025-05-10T10:51:25Z</time>
      </trkpt>
      <trkpt lat="44.87837" lon="0.83615">
        <ele>99.4</ele>
        <time>2025-05-10T10:51:26Z</time>
      </trkpt>
      <trkpt lat="44.87829" lon="0.83609">
        <ele>98.6</ele>
        <time>2025-05-10T10:51:27Z</time>
      </trkpt>
      <trkpt lat="44.8782" lon="0.83604">
        <ele>96.6</ele>
        <time>2025-05-10T10:51:28Z</time>
      </trkpt>
      <trkpt lat="44.87811" lon="0.83599">
        <ele>95.2</ele>
        <time>2025-05-10T10:51:29Z</time>
      </trkpt>
      <trkpt lat="44.87801" lon="0.83591">
        <ele>94.2</ele>
        <time>2025-05-10T10:51:30Z</time>
      </trkpt>
      <trkpt lat="44.87792" lon="0.83584">
        <ele>92.8</ele>
        <time>2025-05-10T10:51:31Z</time>
      </trkpt>
      <trkpt lat="44.87782" lon="0.83577">
        <ele>91.4</ele>
        <time>2025-05-10T10:51:32Z</time>
      </trkpt>
      <trkpt lat="44.87773" lon="0.8357">
        <ele>88.6</ele>
        <time>2025-05-10T10:51:33Z</time>
      </trkpt>
      <trkpt lat="44.87765" lon="0.83565">
        <ele>86.4</ele>
        <time>2025-05-10T10:51:34Z</time>
      </trkpt>
      <trkpt lat="44.87757" lon="0.83563">
        <ele>84.4</ele>
        <time>2025-05-10T10:51:35Z</time>
      </trkpt>
      <trkpt lat="44.8775" lon="0.83563">
        <ele>82.8</ele>
        <time>2025-05-10T10:51:36Z</time>
      </trkpt>
      <trkpt lat="44.87744" lon="0.83567">
        <ele>81</ele>
        <time>2025-05-10T10:51:37Z</time>
      </trkpt>
      <trkpt lat="44.87738" lon="0.83575">
        <ele>79.8</ele>
        <time>2025-05-10T10:51:38Z</time>
      </trkpt>
      <trkpt lat="44.87734" lon="0.83584">
        <ele>78.6</ele>
        <time>2025-05-10T10:51:39Z</time>
      </trkpt>
      <trkpt lat="44.8773" lon="0.83595">
        <ele>77.6</ele>
        <time>2025-05-10T10:51:40Z</time>
      </trkpt>
      <trkpt lat="44.87729" lon="0.83606">
        <ele>76.2</ele>
        <time>2025-05-10T10:51:41Z</time>
      </trkpt>
      <trkpt lat="44.87728" lon="0.83617">
        <ele>75.2</ele>
        <time>2025-05-10T10:51:42Z</time>
      </trkpt>
      <trkpt lat="44.87729" lon="0.83626">
        <ele>74.4</ele>
        <time>2025-05-10T10:51:43Z</time>
      </trkpt>
      <trkpt lat="44.87731" lon="0.83634">
        <ele>74.4</ele>
        <time>2025-05-10T10:51:44Z</time>
      </trkpt>
      <trkpt lat="44.87733" lon="0.83642">
        <ele>74.4</ele>
        <time>2025-05-10T10:51:45Z</time>
      </trkpt>
      <trkpt lat="44.87736" lon="0.83649">
        <ele>74.4</ele>
        <time>2025-05-10T10:51:46Z</time>
      </trkpt>
      <trkpt lat="44.87738" lon="0.83656">
        <ele>74.6</ele>
        <time>2025-05-10T10:51:47Z</time>
      </trkpt>
      <trkpt lat="44.87741" lon="0.83663">
        <ele>75.4</ele>
        <time>2025-05-10T10:51:48Z</time>
      </trkpt>
      <trkpt lat="44.87743" lon="0.83669">
        <ele>75.8</ele>
        <time>2025-05-10T10:51:49Z</time>
      </trkpt>
      <trkpt lat="44.87745" lon="0.83675">
        <ele>76.2</ele>
        <time>2025-05-10T10:51:50Z</time>
      </trkpt>
      <trkpt lat="44.87747" lon="0.83681">
        <ele>76.2</ele>
        <time>2025-05-10T10:51:51Z</time>
      </trkpt>
      <trkpt lat="44.87749" lon="0.83687">
        <ele>76.2</ele>
        <time>2025-05-10T10:51:52Z</time>
      </trkpt>
      <trkpt lat="44.87751" lon="0.83692">
        <ele>76.4</ele>
        <time>2025-05-10T10:51:53Z</time>
      </trkpt>
      <trkpt lat="44.87753" lon="0.83698">
        <ele>76.2</ele>
        <time>2025-05-10T10:51:54Z</time>
      </trkpt>
      <trkpt lat="44.87755" lon="0.83703">
        <ele>76.2</ele>
        <time>2025-05-10T10:51:55Z</time>
      </trkpt>
      <trkpt lat="44.87758" lon="0.83708">
        <ele>76.2</ele>
        <time>2025-05-10T10:51:56Z</time>
      </trkpt>
      <trkpt lat="44.87761" lon="0.83714">
        <ele>76.2</ele>
        <time>2025-05-10T10:51:57Z</time>
      </trkpt>
      <trkpt lat="44.87764" lon="0.8372">
        <ele>76</ele>
        <time>2025-05-10T10:51:58Z</time>
      </trkpt>
      <trkpt lat="44.87764" lon="0.83726">
        <ele>75.6</ele>
        <time>2025-05-10T10:51:59Z</time>
      </trkpt>
      <trkpt lat="44.87762" lon="0.8373">
        <ele>75.4</ele>
        <time>2025-05-10T10:52:00Z</time>
      </trkpt>
      <trkpt lat="44.87757" lon="0.83731">
        <ele>75.4</ele>
        <time>2025-05-10T10:52:01Z</time>
      </trkpt>
      <trkpt lat="44.87752" lon="0.83728">
        <ele>75.4</ele>
        <time>2025-05-10T10:52:02Z</time>
      </trkpt>
      <trkpt lat="44.87748" lon="0.83722">
        <ele>75.2</ele>
        <time>2025-05-10T10:52:03Z</time>
      </trkpt>
      <trkpt lat="44.87742" lon="0.83714">
        <ele>75.2</ele>
        <time>2025-05-10T10:52:04Z</time>
      </trkpt>
      <trkpt lat="44.87736" lon="0.83706">
        <ele>74</ele>
        <time>2025-05-10T10:52:05Z</time>
      </trkpt>
      <trkpt lat="44.87729" lon="0.83696">
        <ele>72.8</ele>
        <time>2025-05-10T10:52:06Z</time>
      </trkpt>
      <trkpt lat="44.87721" lon="0.83685">
        <ele>71.2</ele>
        <time>2025-05-10T10:52:07Z</time>
      </trkpt>
      <trkpt lat="44.87714" lon="0.83674">
        <ele>69.4</ele>
        <time>2025-05-10T10:52:08Z</time>
      </trkpt>
      <trkpt lat="44.87709" lon="0.83663">
        <ele>67.8</ele>
        <time>2025-05-10T10:52:09Z</time>
      </trkpt>
      <trkpt lat="44.87705" lon="0.83655">
        <ele>65.6</ele>
        <time>2025-05-10T10:52:10Z</time>
      </trkpt>
      <trkpt lat="44.87701" lon="0.83647">
        <ele>63</ele>
        <time>2025-05-10T10:52:11Z</time>
      </trkpt>
      <trkpt lat="44.87699" lon="0.83642">
        <ele>61.8</ele>
        <time>2025-05-10T10:52:12Z</time>
      </trkpt>
      <trkpt lat="44.87697" lon="0.83638">
        <ele>61.4</ele>
        <time>2025-05-10T10:52:13Z</time>
      </trkpt>
      <trkpt lat="44.87695" lon="0.83636">
        <ele>61</ele>
        <time>2025-05-10T10:52:14Z</time>
      </trkpt>
      <trkpt lat="44.87692" lon="0.83634">
        <ele>60.8</ele>
        <time>2025-05-10T10:52:15Z</time>
      </trkpt>
      <trkpt lat="44.87689" lon="0.83636">
        <ele>60.6</ele>
        <time>2025-05-10T10:52:16Z</time>
      </trkpt>
      <trkpt lat="44.87689" lon="0.8364">
        <ele>60.6</ele>
        <time>2025-05-10T10:52:17Z</time>
      </trkpt>
      <trkpt lat="44.87689" lon="0.83644">
        <ele>60.2</ele>
        <time>2025-05-10T10:52:18Z</time>
      </trkpt>
      <trkpt lat="44.8769" lon="0.83647">
        <ele>59.8</ele>
        <time>2025-05-10T10:52:19Z</time>
      </trkpt>
      <trkpt lat="44.87691" lon="0.83651">
        <ele>59.6</ele>
        <time>2025-05-10T10:52:20Z</time>
      </trkpt>
      <trkpt lat="44.87692" lon="0.83654">
        <ele>59.6</ele>
        <time>2025-05-10T10:52:21Z</time>
      </trkpt>
      <trkpt lat="44.87693" lon="0.83658">
        <ele>59.4</ele>
        <time>2025-05-10T10:52:22Z</time>
      </trkpt>
      <trkpt lat="44.87695" lon="0.83662">
        <ele>59.4</ele>
        <time>2025-05-10T10:52:23Z</time>
      </trkpt>
      <trkpt lat="44.87696" lon="0.83666">
        <ele>59.4</ele>
        <time>2025-05-10T10:52:24Z</time>
      </trkpt>
      <trkpt lat="44.87698" lon="0.8367">
        <ele>59.4</ele>
        <time>2025-05-10T10:52:25Z</time>
      </trkpt>
      <trkpt lat="44.87699" lon="0.83674">
        <ele>59.4</ele>
        <time>2025-05-10T10:52:26Z</time>
      </trkpt>
      <trkpt lat="44.877" lon="0.83678">
        <ele>59.4</ele>
        <time>2025-05-10T10:52:27Z</time>
      </trkpt>
      <trkpt lat="44.87702" lon="0.83682">
        <ele>59.4</ele>
        <time>2025-05-10T10:52:28Z</time>
      </trkpt>
      <trkpt lat="44.87703" lon="0.83686">
        <ele>59.4</ele>
        <time>2025-05-10T10:52:29Z</time>
      </trkpt>
      <trkpt lat="44.87705" lon="0.8369">
        <ele>59.4</ele>
        <time>2025-05-10T10:52:30Z</time>
      </trkpt>
      <trkpt lat="44.87706" lon="0.83694">
        <ele>59.4</ele>
        <time>2025-05-10T10:52:31Z</time>
      </trkpt>
      <trkpt lat="44.87708" lon="0.83698">
        <ele>59.4</ele>
        <time>2025-05-10T10:52:32Z</time>
      </trkpt>
      <trkpt lat="44.87709" lon="0.83702">
        <ele>59.4</ele>
        <time>2025-05-10T10:52:33Z</time>
      </trkpt>
      <trkpt lat="44.87711" lon="0.83706">
        <ele>59.4</ele>
        <time>2025-05-10T10:52:34Z</time>
      </trkpt>
      <trkpt lat="44.87713" lon="0.8371">
        <ele>59.4</ele>
        <time>2025-05-10T10:52:35Z</time>
      </trkpt>
      <trkpt lat="44.87715" lon="0.83714">
        <ele>59.4</ele>
        <time>2025-05-10T10:52:36Z</time>
      </trkpt>
      <trkpt lat="44.87716" lon="0.83718">
        <ele>59.6</ele>
        <time>2025-05-10T10:52:37Z</time>
      </trkpt>
      <trkpt lat="44.87719" lon="0.83722">
        <ele>59.6</ele>
        <time>2025-05-10T10:52:38Z</time>
      </trkpt>
      <trkpt lat="44.87721" lon="0.83726">
        <ele>59.6</ele>
        <time>2025-05-10T10:52:39Z</time>
      </trkpt>
      <trkpt lat="44.87723" lon="0.8373">
        <ele>59.6</ele>
        <time>2025-05-10T10:52:40Z</time>
      </trkpt>
      <trkpt lat="44.87726" lon="0.83734">
        <ele>59.8</ele>
        <time>2025-05-10T10:52:41Z</time>
      </trkpt>
      <trkpt lat="44.87728" lon="0.83738">
        <ele>59.8</ele>
        <time>2025-05-10T10:52:42Z</time>
      </trkpt>
      <trkpt lat="44.87731" lon="0.83741">
        <ele>60.2</ele>
        <time>2025-05-10T10:52:43Z</time>
      </trkpt>
      <trkpt lat="44.87733" lon="0.83746">
        <ele>60.4</ele>
        <time>2025-05-10T10:52:44Z</time>
      </trkpt>
      <trkpt lat="44.87734" lon="0.83751">
        <ele>60.6</ele>
        <time>2025-05-10T10:52:45Z</time>
      </trkpt>
      <trkpt lat="44.87732" lon="0.83758">
        <ele>60.6</ele>
        <time>2025-05-10T10:52:46Z</time>
      </trkpt>
      <trkpt lat="44.87729" lon="0.83764">
        <ele>60.6</ele>
        <time>2025-05-10T10:52:47Z</time>
      </trkpt>
      <trkpt lat="44.87725" lon="0.8377">
        <ele>60.4</ele>
        <time>2025-05-10T10:52:48Z</time>
      </trkpt>
      <trkpt lat="44.87721" lon="0.83778">
        <ele>60.2</ele>
        <time>2025-05-10T10:52:49Z</time>
      </trkpt>
      <trkpt lat="44.87716" lon="0.83785">
        <ele>59.2</ele>
        <time>2025-05-10T10:52:50Z</time>
      </trkpt>
      <trkpt lat="44.87711" lon="0.83792">
        <ele>58.4</ele>
        <time>2025-05-10T10:52:51Z</time>
      </trkpt>
      <trkpt lat="44.87707" lon="0.83799">
        <ele>57.4</ele>
        <time>2025-05-10T10:52:52Z</time>
      </trkpt>
      <trkpt lat="44.87702" lon="0.83806">
        <ele>56.8</ele>
        <time>2025-05-10T10:52:53Z</time>
      </trkpt>
      <trkpt lat="44.87698" lon="0.83814">
        <ele>56.4</ele>
        <time>2025-05-10T10:52:54Z</time>
      </trkpt>
      <trkpt lat="44.87694" lon="0.8382">
        <ele>56.2</ele>
        <time>2025-05-10T10:52:55Z</time>
      </trkpt>
      <trkpt lat="44.87689" lon="0.83826">
        <ele>56.2</ele>
        <time>2025-05-10T10:52:56Z</time>
      </trkpt>
      <trkpt lat="44.87684" lon="0.83832">
        <ele>56</ele>
        <time>2025-05-10T10:52:57Z</time>
      </trkpt>
      <trkpt lat="44.87679" lon="0.83837">
        <ele>56</ele>
        <time>2025-05-10T10:52:58Z</time>
      </trkpt>
      <trkpt lat="44.87674" lon="0.83842">
        <ele>56</ele>
        <time>2025-05-10T10:52:59Z</time>
      </trkpt>
      <trkpt lat="44.8767" lon="0.83847">
        <ele>56</ele>
        <time>2025-05-10T10:53:00Z</time>
      </trkpt>
      <trkpt lat="44.87666" lon="0.83852">
        <ele>56.2</ele>
        <time>2025-05-10T10:53:01Z</time>
      </trkpt>
      <trkpt lat="44.87663" lon="0.83856">
        <ele>56.4</ele>
        <time>2025-05-10T10:53:02Z</time>
      </trkpt>
      <trkpt lat="44.87663" lon="0.83861">
        <ele>56.6</ele>
        <time>2025-05-10T10:53:03Z</time>
      </trkpt>
      <trkpt lat="44.87664" lon="0.83864">
        <ele>56.8</ele>
        <time>2025-05-10T10:53:04Z</time>
      </trkpt>
      <trkpt lat="44.87666" lon="0.83867">
        <ele>57.2</ele>
        <time>2025-05-10T10:53:05Z</time>
      </trkpt>
      <trkpt lat="44.87668" lon="0.83871">
        <ele>57.8</ele>
        <time>2025-05-10T10:53:06Z</time>
      </trkpt>
      <trkpt lat="44.8767" lon="0.83874">
        <ele>57.8</ele>
        <time>2025-05-10T10:53:07Z</time>
      </trkpt>
      <trkpt lat="44.87673" lon="0.83878">
        <ele>57.8</ele>
        <time>2025-05-10T10:53:08Z</time>
      </trkpt>
      <trkpt lat="44.87676" lon="0.83882">
        <ele>57.8</ele>
        <time>2025-05-10T10:53:09Z</time>
      </trkpt>
      <trkpt lat="44.87679" lon="0.83886">
        <ele>57.8</ele>
        <time>2025-05-10T10:53:10Z</time>
      </trkpt>
      <trkpt lat="44.87682" lon="0.8389">
        <ele>57.6</ele>
        <time>2025-05-10T10:53:11Z</time>
      </trkpt>
      <trkpt lat="44.87685" lon="0.83894">
        <ele>57.4</ele>
        <time>2025-05-10T10:53:12Z</time>
      </trkpt>
      <trkpt lat="44.87688" lon="0.83898">
        <ele>57.4</ele>
        <time>2025-05-10T10:53:13Z</time>
      </trkpt>
      <trkpt lat="44.87691" lon="0.83902">
        <ele>57.2</ele>
        <time>2025-05-10T10:53:14Z</time>
      </trkpt>
      <trkpt lat="44.87694" lon="0.83906">
        <ele>57.2</ele>
        <time>2025-05-10T10:53:15Z</time>
      </trkpt>
      <trkpt lat="44.87697" lon="0.8391">
        <ele>57.2</ele>
        <time>2025-05-10T10:53:16Z</time>
      </trkpt>
      <trkpt lat="44.877" lon="0.83914">
        <ele>57.4</ele>
        <time>2025-05-10T10:53:17Z</time>
      </trkpt>
      <trkpt lat="44.87704" lon="0.83918">
        <ele>57.4</ele>
        <time>2025-05-10T10:53:18Z</time>
      </trkpt>
      <trkpt lat="44.87707" lon="0.83922">
        <ele>57.4</ele>
        <time>2025-05-10T10:53:19Z</time>
      </trkpt>
      <trkpt lat="44.8771" lon="0.83926">
        <ele>57.4</ele>
        <time>2025-05-10T10:53:20Z</time>
      </trkpt>
      <trkpt lat="44.87713" lon="0.83931">
        <ele>57.4</ele>
        <time>2025-05-10T10:53:21Z</time>
      </trkpt>
      <trkpt lat="44.87716" lon="0.83934">
        <ele>57.4</ele>
        <time>2025-05-10T10:53:22Z</time>
      </trkpt>
      <trkpt lat="44.87719" lon="0.83938">
        <ele>57.4</ele>
        <time>2025-05-10T10:53:23Z</time>
      </trkpt>
      <trkpt lat="44.87723" lon="0.83942">
        <ele>57.4</ele>
        <time>2025-05-10T10:53:24Z</time>
      </trkpt>
      <trkpt lat="44.87726" lon="0.83946">
        <ele>57.4</ele>
        <time>2025-05-10T10:53:25Z</time>
      </trkpt>
      <trkpt lat="44.87729" lon="0.8395">
        <ele>57.6</ele>
        <time>2025-05-10T10:53:26Z</time>
      </trkpt>
      <trkpt lat="44.87732" lon="0.83955">
        <ele>57.6</ele>
        <time>2025-05-10T10:53:27Z</time>
      </trkpt>
      <trkpt lat="44.87736" lon="0.83958">
        <ele>57.8</ele>
        <time>2025-05-10T10:53:28Z</time>
      </trkpt>
      <trkpt lat="44.87739" lon="0.83962">
        <ele>57.8</ele>
        <time>2025-05-10T10:53:29Z</time>
      </trkpt>
      <trkpt lat="44.87741" lon="0.83966">
        <ele>57.8</ele>
        <time>2025-05-10T10:53:30Z</time>
      </trkpt>
      <trkpt lat="44.87744" lon="0.83971">
        <ele>58</ele>
        <time>2025-05-10T10:53:31Z</time>
      </trkpt>
      <trkpt lat="44.87746" lon="0.83975">
        <ele>58</ele>
        <time>2025-05-10T10:53:32Z</time>
      </trkpt>
      <trkpt lat="44.87749" lon="0.83979">
        <ele>58.2</ele>
        <time>2025-05-10T10:53:33Z</time>
      </trkpt>
      <trkpt lat="44.87751" lon="0.83984">
        <ele>58.2</ele>
        <time>2025-05-10T10:53:34Z</time>
      </trkpt>
      <trkpt lat="44.87753" lon="0.83988">
        <ele>58.2</ele>
        <time>2025-05-10T10:53:35Z</time>
      </trkpt>
      <trkpt lat="44.87756" lon="0.83991">
        <ele>58.4</ele>
        <time>2025-05-10T10:53:36Z</time>
      </trkpt>
      <trkpt lat="44.87758" lon="0.83995">
        <ele>58.6</ele>
        <time>2025-05-10T10:53:37Z</time>
      </trkpt>
      <trkpt lat="44.8776" lon="0.83998">
        <ele>59</ele>
        <time>2025-05-10T10:53:38Z</time>
      </trkpt>
      <trkpt lat="44.87762" lon="0.84001">
        <ele>59</ele>
        <time>2025-05-10T10:53:39Z</time>
      </trkpt>
      <trkpt lat="44.87764" lon="0.84004">
        <ele>59.2</ele>
        <time>2025-05-10T10:53:40Z</time>
      </trkpt>
      <trkpt lat="44.87766" lon="0.84007">
        <ele>59.2</ele>
        <time>2025-05-10T10:53:41Z</time>
      </trkpt>
      <trkpt lat="44.87768" lon="0.8401">
        <ele>59.4</ele>
        <time>2025-05-10T10:53:42Z</time>
      </trkpt>
      <trkpt lat="44.8777" lon="0.84012">
        <ele>59.4</ele>
        <time>2025-05-10T10:53:43Z</time>
      </trkpt>
      <trkpt lat="44.87772" lon="0.84015">
        <ele>59.6</ele>
        <time>2025-05-10T10:53:44Z</time>
      </trkpt>
      <trkpt lat="44.87775" lon="0.84018">
        <ele>59.8</ele>
        <time>2025-05-10T10:53:45Z</time>
      </trkpt>
      <trkpt lat="44.87778" lon="0.8402">
        <ele>60.2</ele>
        <time>2025-05-10T10:53:46Z</time>
      </trkpt>
      <trkpt lat="44.8778" lon="0.84023">
        <ele>60.4</ele>
        <time>2025-05-10T10:53:47Z</time>
      </trkpt>
      <trkpt lat="44.87783" lon="0.84025">
        <ele>60.4</ele>
        <time>2025-05-10T10:53:48Z</time>
      </trkpt>
      <trkpt lat="44.87786" lon="0.84027">
        <ele>60.4</ele>
        <time>2025-05-10T10:53:49Z</time>
      </trkpt>
      <trkpt lat="44.87789" lon="0.84029">
        <ele>60.4</ele>
        <time>2025-05-10T10:53:50Z</time>
      </trkpt>
      <trkpt lat="44.87792" lon="0.84031">
        <ele>60.4</ele>
        <time>2025-05-10T10:53:51Z</time>
      </trkpt>
      <trkpt lat="44.87794" lon="0.84033">
        <ele>60.4</ele>
        <time>2025-05-10T10:53:52Z</time>
      </trkpt>
      <trkpt lat="44.87797" lon="0.84035">
        <ele>60.4</ele>
        <time>2025-05-10T10:53:53Z</time>
      </trkpt>
      <trkpt lat="44.878" lon="0.84037">
        <ele>60.2</ele>
        <time>2025-05-10T10:53:54Z</time>
      </trkpt>
      <trkpt lat="44.87803" lon="0.84039">
        <ele>60.2</ele>
        <time>2025-05-10T10:53:55Z</time>
      </trkpt>
      <trkpt lat="44.87805" lon="0.84041">
        <ele>60.2</ele>
        <time>2025-05-10T10:53:56Z</time>
      </trkpt>
      <trkpt lat="44.87808" lon="0.84043">
        <ele>60.2</ele>
        <time>2025-05-10T10:53:57Z</time>
      </trkpt>
      <trkpt lat="44.87811" lon="0.84044">
        <ele>60.2</ele>
        <time>2025-05-10T10:53:58Z</time>
      </trkpt>
      <trkpt lat="44.87814" lon="0.84046">
        <ele>60.2</ele>
        <time>2025-05-10T10:53:59Z</time>
      </trkpt>
      <trkpt lat="44.87817" lon="0.84048">
        <ele>60.2</ele>
        <time>2025-05-10T10:54:00Z</time>
      </trkpt>
      <trkpt lat="44.87819" lon="0.84049">
        <ele>60.2</ele>
        <time>2025-05-10T10:54:01Z</time>
      </trkpt>
      <trkpt lat="44.87822" lon="0.84051">
        <ele>60.2</ele>
        <time>2025-05-10T10:54:02Z</time>
      </trkpt>
      <trkpt lat="44.87824" lon="0.84053">
        <ele>60.2</ele>
        <time>2025-05-10T10:54:03Z</time>
      </trkpt>
      <trkpt lat="44.87827" lon="0.84054">
        <ele>60.4</ele>
        <time>2025-05-10T10:54:04Z</time>
      </trkpt>
      <trkpt lat="44.87829" lon="0.84056">
        <ele>60.6</ele>
        <time>2025-05-10T10:54:05Z</time>
      </trkpt>
      <trkpt lat="44.87831" lon="0.84058">
        <ele>60.8</ele>
        <time>2025-05-10T10:54:06Z</time>
      </trkpt>
      <trkpt lat="44.87833" lon="0.84059">
        <ele>60.8</ele>
        <time>2025-05-10T10:54:07Z</time>
      </trkpt>
      <trkpt lat="44.87835" lon="0.8406">
        <ele>61.2</ele>
        <time>2025-05-10T10:54:08Z</time>
      </trkpt>
      <trkpt lat="44.87837" lon="0.84062">
        <ele>61.4</ele>
        <time>2025-05-10T10:54:09Z</time>
      </trkpt>
      <trkpt lat="44.8784" lon="0.84063">
        <ele>61.4</ele>
        <time>2025-05-10T10:54:10Z</time>
      </trkpt>
      <trkpt lat="44.87841" lon="0.84065">
        <ele>61.6</ele>
        <time>2025-05-10T10:54:11Z</time>
      </trkpt>
      <trkpt lat="44.87843" lon="0.84066">
        <ele>61.8</ele>
        <time>2025-05-10T10:54:12Z</time>
      </trkpt>
      <trkpt lat="44.87845" lon="0.84068">
        <ele>61.8</ele>
        <time>2025-05-10T10:54:13Z</time>
      </trkpt>
      <trkpt lat="44.87847" lon="0.84069">
        <ele>62</ele>
        <time>2025-05-10T10:54:14Z</time>
      </trkpt>
      <trkpt lat="44.87849" lon="0.84071">
        <ele>62</ele>
        <time>2025-05-10T10:54:15Z</time>
      </trkpt>
      <trkpt lat="44.87851" lon="0.84072">
        <ele>62.2</ele>
        <time>2025-05-10T10:54:16Z</time>
      </trkpt>
      <trkpt lat="44.87852" lon="0.84073">
        <ele>62.2</ele>
        <time>2025-05-10T10:54:17Z</time>
      </trkpt>
      <trkpt lat="44.87854" lon="0.84074">
        <ele>62.4</ele>
        <time>2025-05-10T10:54:18Z</time>
      </trkpt>
      <trkpt lat="44.87855" lon="0.84075">
        <ele>62.6</ele>
        <time>2025-05-10T10:54:19Z</time>
      </trkpt>
      <trkpt lat="44.87856" lon="0.84077">
        <ele>62.8</ele>
        <time>2025-05-10T10:54:20Z</time>
      </trkpt>
      <trkpt lat="44.87858" lon="0.84078">
        <ele>63</ele>
        <time>2025-05-10T10:54:21Z</time>
      </trkpt>
      <trkpt lat="44.87859" lon="0.84079">
        <ele>63.2</ele>
        <time>2025-05-10T10:54:22Z</time>
      </trkpt>
      <trkpt lat="44.87861" lon="0.8408">
        <ele>63.4</ele>
        <time>2025-05-10T10:54:23Z</time>
      </trkpt>
      <trkpt lat="44.87862" lon="0.84082">
        <ele>63.6</ele>
        <time>2025-05-10T10:54:24Z</time>
      </trkpt>
      <trkpt lat="44.87863" lon="0.84083">
        <ele>63.8</ele>
        <time>2025-05-10T10:54:25Z</time>
      </trkpt>
      <trkpt lat="44.87865" lon="0.84084">
        <ele>63.8</ele>
        <time>2025-05-10T10:54:26Z</time>
      </trkpt>
      <trkpt lat="44.87866" lon="0.84085">
        <ele>64</ele>
        <time>2025-05-10T10:54:27Z</time>
      </trkpt>
      <trkpt lat="44.87867" lon="0.84086">
        <ele>64</ele>
        <time>2025-05-10T10:54:28Z</time>
      </trkpt>
      <trkpt lat="44.87868" lon="0.84087">
        <ele>64.2</ele>
        <time>2025-05-10T10:54:29Z</time>
      </trkpt>
      <trkpt lat="44.87869" lon="0.84088">
        <ele>64.6</ele>
        <time>2025-05-10T10:54:30Z</time>
      </trkpt>
      <trkpt lat="44.8787" lon="0.84089">
        <ele>64.6</ele>
        <time>2025-05-10T10:54:31Z</time>
      </trkpt>
      <trkpt lat="44.87871" lon="0.84091">
        <ele>64.8</ele>
        <time>2025-05-10T10:54:32Z</time>
      </trkpt>
      <trkpt lat="44.87873" lon="0.84092">
        <ele>65</ele>
        <time>2025-05-10T10:54:33Z</time>
      </trkpt>
      <trkpt lat="44.87874" lon="0.84094">
        <ele>65.2</ele>
        <time>2025-05-10T10:54:34Z</time>
      </trkpt>
      <trkpt lat="44.87874" lon="0.84096">
        <ele>65.4</ele>
        <time>2025-05-10T10:54:35Z</time>
      </trkpt>
      <trkpt lat="44.87875" lon="0.84098">
        <ele>65.6</ele>
        <time>2025-05-10T10:54:36Z</time>
      </trkpt>
      <trkpt lat="44.87876" lon="0.84099">
        <ele>65.8</ele>
        <time>2025-05-10T10:54:37Z</time>
      </trkpt>
      <trkpt lat="44.87877" lon="0.84101">
        <ele>66</ele>
        <time>2025-05-10T10:54:38Z</time>
      </trkpt>
      <trkpt lat="44.87877" lon="0.84103">
        <ele>66.2</ele>
        <time>2025-05-10T10:54:39Z</time>
      </trkpt>
      <trkpt lat="44.87878" lon="0.84105">
        <ele>66.4</ele>
        <time>2025-05-10T10:54:40Z</time>
      </trkpt>
      <trkpt lat="44.87879" lon="0.84107">
        <ele>66.6</ele>
        <time>2025-05-10T10:54:41Z</time>
      </trkpt>
      <trkpt lat="44.87879" lon="0.84109">
        <ele>66.8</ele>
        <time>2025-05-10T10:54:42Z</time>
      </trkpt>
      <trkpt lat="44.8788" lon="0.8411">
        <ele>67</ele>
        <time>2025-05-10T10:54:43Z</time>
      </trkpt>
      <trkpt lat="44.8788" lon="0.84112">
        <ele>67.2</ele>
        <time>2025-05-10T10:54:44Z</time>
      </trkpt>
      <trkpt lat="44.87881" lon="0.84113">
        <ele>67.6</ele>
        <time>2025-05-10T10:54:45Z</time>
      </trkpt>
      <trkpt lat="44.87881" lon="0.84115">
        <ele>67.8</ele>
        <time>2025-05-10T10:54:46Z</time>
      </trkpt>
      <trkpt lat="44.87882" lon="0.84116">
        <ele>68</ele>
        <time>2025-05-10T10:54:47Z</time>
      </trkpt>
      <trkpt lat="44.87882" lon="0.84118">
        <ele>68.2</ele>
        <time>2025-05-10T10:54:48Z</time>
      </trkpt>
      <trkpt lat="44.87882" lon="0.8412">
        <ele>68.4</ele>
        <time>2025-05-10T10:54:49Z</time>
      </trkpt>
      <trkpt lat="44.87882" lon="0.84121">
        <ele>68.6</ele>
        <time>2025-05-10T10:54:50Z</time>
      </trkpt>
      <trkpt lat="44.87882" lon="0.84123">
        <ele>68.8</ele>
        <time>2025-05-10T10:54:51Z</time>
      </trkpt>
      <trkpt lat="44.87883" lon="0.84124">
        <ele>69</ele>
        <time>2025-05-10T10:54:52Z</time>
      </trkpt>
      <trkpt lat="44.87883" lon="0.84126">
        <ele>69.2</ele>
        <time>2025-05-10T10:54:53Z</time>
      </trkpt>
      <trkpt lat="44.87883" lon="0.84127">
        <ele>69.4</ele>
        <time>2025-05-10T10:54:54Z</time>
      </trkpt>
      <trkpt lat="44.87883" lon="0.84129">
        <ele>69.6</ele>
        <time>2025-05-10T10:54:55Z</time>
      </trkpt>
      <trkpt lat="44.87883" lon="0.8413">
        <ele>69.8</ele>
        <time>2025-05-10T10:54:56Z</time>
      </trkpt>
      <trkpt lat="44.87884" lon="0.84132">
        <ele>70</ele>
        <time>2025-05-10T10:54:57Z</time>
      </trkpt>
      <trkpt lat="44.87884" lon="0.84134">
        <ele>70.2</ele>
        <time>2025-05-10T10:54:58Z</time>
      </trkpt>
      <trkpt lat="44.87884" lon="0.84136">
        <ele>70.4</ele>
        <time>2025-05-10T10:54:59Z</time>
      </trkpt>
      <trkpt lat="44.87884" lon="0.84137">
        <ele>70.8</ele>
        <time>2025-05-10T10:55:00Z</time>
      </trkpt>
      <trkpt lat="44.87884" lon="0.84139">
        <ele>71</ele>
        <time>2025-05-10T10:55:01Z</time>
      </trkpt>
      <trkpt lat="44.87884" lon="0.84141">
        <ele>71.2</ele>
        <time>2025-05-10T10:55:02Z</time>
      </trkpt>
      <trkpt lat="44.87884" lon="0.84143">
        <ele>71.6</ele>
        <time>2025-05-10T10:55:03Z</time>
      </trkpt>
      <trkpt lat="44.87883" lon="0.84145">
        <ele>71.6</ele>
        <time>2025-05-10T10:55:04Z</time>
      </trkpt>
      <trkpt lat="44.87883" lon="0.84146">
        <ele>71.8</ele>
        <time>2025-05-10T10:55:05Z</time>
      </trkpt>
      <trkpt lat="44.87883" lon="0.84148">
        <ele>72</ele>
        <time>2025-05-10T10:55:06Z</time>
      </trkpt>
      <trkpt lat="44.87883" lon="0.84149">
        <ele>72.2</ele>
        <time>2025-05-10T10:55:07Z</time>
      </trkpt>
      <trkpt lat="44.87882" lon="0.8415">
        <ele>72.4</ele>
        <time>2025-05-10T10:55:08Z</time>
      </trkpt>
      <trkpt lat="44.87882" lon="0.84152">
        <ele>72.8</ele>
        <time>2025-05-10T10:55:09Z</time>
      </trkpt>
      <trkpt lat="44.87881" lon="0.84153">
        <ele>73</ele>
        <time>2025-05-10T10:55:10Z</time>
      </trkpt>
      <trkpt lat="44.8788" lon="0.84153">
        <ele>73.4</ele>
        <time>2025-05-10T10:55:11Z</time>
      </trkpt>
      <trkpt lat="44.87879" lon="0.84154">
        <ele>73.8</ele>
        <time>2025-05-10T10:55:12Z</time>
      </trkpt>
      <trkpt lat="44.87878" lon="0.84153">
        <ele>74</ele>
        <time>2025-05-10T10:55:13Z</time>
      </trkpt>
      <trkpt lat="44.87876" lon="0.84152">
        <ele>74.4</ele>
        <time>2025-05-10T10:55:14Z</time>
      </trkpt>
      <trkpt lat="44.87875" lon="0.84152">
        <ele>74.6</ele>
        <time>2025-05-10T10:55:15Z</time>
      </trkpt>
      <trkpt lat="44.87873" lon="0.84153">
        <ele>74.8</ele>
        <time>2025-05-10T10:55:16Z</time>
      </trkpt>
      <trkpt lat="44.87873" lon="0.84155">
        <ele>75</ele>
        <time>2025-05-10T10:55:17Z</time>
      </trkpt>
      <trkpt lat="44.87873" lon="0.84157">
        <ele>75.2</ele>
        <time>2025-05-10T10:55:18Z</time>
      </trkpt>
      <trkpt lat="44.87874" lon="0.84158">
        <ele>75.4</ele>
        <time>2025-05-10T10:55:19Z</time>
      </trkpt>
      <trkpt lat="44.87875" lon="0.8416">
        <ele>75.6</ele>
        <time>2025-05-10T10:55:20Z</time>
      </trkpt>
      <trkpt lat="44.87876" lon="0.84161">
        <ele>75.6</ele>
        <time>2025-05-10T10:55:21Z</time>
      </trkpt>
      <trkpt lat="44.87876" lon="0.84163">
        <ele>75.6</ele>
        <time>2025-05-10T10:55:22Z</time>
      </trkpt>
      <trkpt lat="44.87877" lon="0.84164">
        <ele>75.6</ele>
        <time>2025-05-10T10:55:23Z</time>
      </trkpt>
      <trkpt lat="44.87877" lon="0.84166">
        <ele>75.8</ele>
        <time>2025-05-10T10:55:24Z</time>
      </trkpt>
      <trkpt lat="44.87878" lon="0.84167">
        <ele>76</ele>
        <time>2025-05-10T10:55:25Z</time>
      </trkpt>
      <trkpt lat="44.87878" lon="0.84169">
        <ele>76.2</ele>
        <time>2025-05-10T10:55:26Z</time>
      </trkpt>
      <trkpt lat="44.87878" lon="0.8417">
        <ele>76.2</ele>
        <time>2025-05-10T10:55:27Z</time>
      </trkpt>
      <trkpt lat="44.87879" lon="0.84172">
        <ele>76.4</ele>
        <time>2025-05-10T10:55:28Z</time>
      </trkpt>
      <trkpt lat="44.87879" lon="0.84174">
        <ele>76.8</ele>
        <time>2025-05-10T10:55:29Z</time>
      </trkpt>
      <trkpt lat="44.87879" lon="0.84176">
        <ele>76.8</ele>
        <time>2025-05-10T10:55:30Z</time>
      </trkpt>
      <trkpt lat="44.87879" lon="0.84177">
        <ele>77.2</ele>
        <time>2025-05-10T10:55:31Z</time>
      </trkpt>
      <trkpt lat="44.8788" lon="0.84179">
        <ele>77.4</ele>
        <time>2025-05-10T10:55:32Z</time>
      </trkpt>
      <trkpt lat="44.8788" lon="0.84181">
        <ele>77.6</ele>
        <time>2025-05-10T10:55:33Z</time>
      </trkpt>
      <trkpt lat="44.8788" lon="0.84182">
        <ele>77.8</ele>
        <time>2025-05-10T10:55:34Z</time>
      </trkpt>
      <trkpt lat="44.8788" lon="0.84184">
        <ele>78</ele>
        <time>2025-05-10T10:55:35Z</time>
      </trkpt>
      <trkpt lat="44.8788" lon="0.84186">
        <ele>78.4</ele>
        <time>2025-05-10T10:55:36Z</time>
      </trkpt>
      <trkpt lat="44.8788" lon="0.84187">
        <ele>78.6</ele>
        <time>2025-05-10T10:55:37Z</time>
      </trkpt>
      <trkpt lat="44.87879" lon="0.84189">
        <ele>78.8</ele>
        <time>2025-05-10T10:55:38Z</time>
      </trkpt>
      <trkpt lat="44.87879" lon="0.8419">
        <ele>79.2</ele>
        <time>2025-05-10T10:55:39Z</time>
      </trkpt>
      <trkpt lat="44.87878" lon="0.84191">
        <ele>79.4</ele>
        <time>2025-05-10T10:55:40Z</time>
      </trkpt>
      <trkpt lat="44.87878" lon="0.84192">
        <ele>79.6</ele>
        <time>2025-05-10T10:55:41Z</time>
      </trkpt>
      <trkpt lat="44.87877" lon="0.84194">
        <ele>79.8</ele>
        <time>2025-05-10T10:55:42Z</time>
      </trkpt>
      <trkpt lat="44.87876" lon="0.84196">
        <ele>80</ele>
        <time>2025-05-10T10:55:43Z</time>
      </trkpt>
      <trkpt lat="44.87877" lon="0.84198">
        <ele>80.2</ele>
        <time>2025-05-10T10:55:44Z</time>
      </trkpt>
      <trkpt lat="44.87877" lon="0.842">
        <ele>80.4</ele>
        <time>2025-05-10T10:55:45Z</time>
      </trkpt>
      <trkpt lat="44.87878" lon="0.84202">
        <ele>80.6</ele>
        <time>2025-05-10T10:55:46Z</time>
      </trkpt>
      <trkpt lat="44.87879" lon="0.84204">
        <ele>80.6</ele>
        <time>2025-05-10T10:55:47Z</time>
      </trkpt>
      <trkpt lat="44.87879" lon="0.84205">
        <ele>80.6</ele>
        <time>2025-05-10T10:55:48Z</time>
      </trkpt>
      <trkpt lat="44.8788" lon="0.84207">
        <ele>80.8</ele>
        <time>2025-05-10T10:55:49Z</time>
      </trkpt>
      <trkpt lat="44.87881" lon="0.84209">
        <ele>81</ele>
        <time>2025-05-10T10:55:50Z</time>
      </trkpt>
      <trkpt lat="44.87883" lon="0.84211">
        <ele>81.2</ele>
        <time>2025-05-10T10:55:51Z</time>
      </trkpt>
      <trkpt lat="44.87884" lon="0.84213">
        <ele>81.2</ele>
        <time>2025-05-10T10:55:52Z</time>
      </trkpt>
      <trkpt lat="44.87886" lon="0.84216">
        <ele>81.2</ele>
        <time>2025-05-10T10:55:53Z</time>
      </trkpt>
      <trkpt lat="44.87887" lon="0.84218">
        <ele>81.2</ele>
        <time>2025-05-10T10:55:54Z</time>
      </trkpt>
      <trkpt lat="44.87888" lon="0.8422">
        <ele>81.2</ele>
        <time>2025-05-10T10:55:55Z</time>
      </trkpt>
      <trkpt lat="44.8789" lon="0.84222">
        <ele>81.2</ele>
        <time>2025-05-10T10:55:56Z</time>
      </trkpt>
      <trkpt lat="44.87891" lon="0.84224">
        <ele>81.2</ele>
        <time>2025-05-10T10:55:57Z</time>
      </trkpt>
      <trkpt lat="44.87892" lon="0.84226">
        <ele>81.2</ele>
        <time>2025-05-10T10:55:58Z</time>
      </trkpt>
      <trkpt lat="44.87894" lon="0.84228">
        <ele>81.4</ele>
        <time>2025-05-10T10:55:59Z</time>
      </trkpt>
      <trkpt lat="44.87895" lon="0.8423">
        <ele>81.4</ele>
        <time>2025-05-10T10:56:00Z</time>
      </trkpt>
      <trkpt lat="44.87896" lon="0.84232">
        <ele>81.4</ele>
        <time>2025-05-10T10:56:01Z</time>
      </trkpt>
      <trkpt lat="44.87896" lon="0.84234">
        <ele>81.4</ele>
        <time>2025-05-10T10:56:02Z</time>
      </trkpt>
      <trkpt lat="44.87897" lon="0.84236">
        <ele>81.4</ele>
        <time>2025-05-10T10:56:03Z</time>
      </trkpt>
      <trkpt lat="44.87897" lon="0.84237">
        <ele>81.6</ele>
        <time>2025-05-10T10:56:04Z</time>
      </trkpt>
      <trkpt lat="44.87898" lon="0.84239">
        <ele>81.8</ele>
        <time>2025-05-10T10:56:05Z</time>
      </trkpt>
      <trkpt lat="44.87898" lon="0.84241">
        <ele>82</ele>
        <time>2025-05-10T10:56:06Z</time>
      </trkpt>
      <trkpt lat="44.87899" lon="0.84242">
        <ele>82</ele>
        <time>2025-05-10T10:56:07Z</time>
      </trkpt>
      <trkpt lat="44.87899" lon="0.84244">
        <ele>82.2</ele>
        <time>2025-05-10T10:56:08Z</time>
      </trkpt>
      <trkpt lat="44.87899" lon="0.84246">
        <ele>82.4</ele>
        <time>2025-05-10T10:56:09Z</time>
      </trkpt>
      <trkpt lat="44.87899" lon="0.84247">
        <ele>82.6</ele>
        <time>2025-05-10T10:56:10Z</time>
      </trkpt>
      <trkpt lat="44.87899" lon="0.84249">
        <ele>82.8</ele>
        <time>2025-05-10T10:56:11Z</time>
      </trkpt>
      <trkpt lat="44.879" lon="0.8425">
        <ele>83.2</ele>
        <time>2025-05-10T10:56:12Z</time>
      </trkpt>
      <trkpt lat="44.879" lon="0.84252">
        <ele>83.4</ele>
        <time>2025-05-10T10:56:13Z</time>
      </trkpt>
      <trkpt lat="44.879" lon="0.84254">
        <ele>83.6</ele>
        <time>2025-05-10T10:56:14Z</time>
      </trkpt>
      <trkpt lat="44.879" lon="0.84255">
        <ele>84</ele>
        <time>2025-05-10T10:56:15Z</time>
      </trkpt>
      <trkpt lat="44.87901" lon="0.84257">
        <ele>84.2</ele>
        <time>2025-05-10T10:56:16Z</time>
      </trkpt>
      <trkpt lat="44.87901" lon="0.84258">
        <ele>84.4</ele>
        <time>2025-05-10T10:56:17Z</time>
      </trkpt>
      <trkpt lat="44.87902" lon="0.8426">
        <ele>84.6</ele>
        <time>2025-05-10T10:56:18Z</time>
      </trkpt>
      <trkpt lat="44.87903" lon="0.84262">
        <ele>84.8</ele>
        <time>2025-05-10T10:56:19Z</time>
      </trkpt>
      <trkpt lat="44.87903" lon="0.84263">
        <ele>84.8</ele>
        <time>2025-05-10T10:56:20Z</time>
      </trkpt>
      <trkpt lat="44.87904" lon="0.84265">
        <ele>85</ele>
        <time>2025-05-10T10:56:21Z</time>
      </trkpt>
      <trkpt lat="44.87906" lon="0.84266">
        <ele>85.2</ele>
        <time>2025-05-10T10:56:22Z</time>
      </trkpt>
      <trkpt lat="44.87907" lon="0.84267">
        <ele>85.2</ele>
        <time>2025-05-10T10:56:23Z</time>
      </trkpt>
      <trkpt lat="44.87908" lon="0.84268">
        <ele>85.4</ele>
        <time>2025-05-10T10:56:24Z</time>
      </trkpt>
      <trkpt lat="44.87909" lon="0.8427">
        <ele>85.4</ele>
        <time>2025-05-10T10:56:25Z</time>
      </trkpt>
      <trkpt lat="44.87911" lon="0.84271">
        <ele>85.4</ele>
        <time>2025-05-10T10:56:26Z</time>
      </trkpt>
      <trkpt lat="44.87913" lon="0.84271">
        <ele>85.4</ele>
        <time>2025-05-10T10:56:27Z</time>
      </trkpt>
      <trkpt lat="44.87915" lon="0.84272">
        <ele>85.2</ele>
        <time>2025-05-10T10:56:28Z</time>
      </trkpt>
      <trkpt lat="44.87917" lon="0.84272">
        <ele>85.2</ele>
        <time>2025-05-10T10:56:29Z</time>
      </trkpt>
      <trkpt lat="44.87918" lon="0.84273">
        <ele>85.2</ele>
        <time>2025-05-10T10:56:30Z</time>
      </trkpt>
      <trkpt lat="44.8792" lon="0.84274">
        <ele>85.2</ele>
        <time>2025-05-10T10:56:31Z</time>
      </trkpt>
      <trkpt lat="44.87922" lon="0.84275">
        <ele>85.2</ele>
        <time>2025-05-10T10:56:32Z</time>
      </trkpt>
      <trkpt lat="44.87924" lon="0.84275">
        <ele>85.2</ele>
        <time>2025-05-10T10:56:33Z</time>
      </trkpt>
      <trkpt lat="44.87926" lon="0.84276">
        <ele>85.2</ele>
        <time>2025-05-10T10:56:34Z</time>
      </trkpt>
      <trkpt lat="44.87928" lon="0.84277">
        <ele>85.2</ele>
        <time>2025-05-10T10:56:35Z</time>
      </trkpt>
      <trkpt lat="44.8793" lon="0.84278">
        <ele>85.2</ele>
        <time>2025-05-10T10:56:36Z</time>
      </trkpt>
      <trkpt lat="44.87931" lon="0.8428">
        <ele>85.2</ele>
        <time>2025-05-10T10:56:37Z</time>
      </trkpt>
      <trkpt lat="44.87931" lon="0.84282">
        <ele>85.2</ele>
        <time>2025-05-10T10:56:38Z</time>
      </trkpt>
      <trkpt lat="44.87932" lon="0.84284">
        <ele>85.2</ele>
        <time>2025-05-10T10:56:39Z</time>
      </trkpt>
      <trkpt lat="44.87932" lon="0.84286">
        <ele>85.2</ele>
        <time>2025-05-10T10:56:40Z</time>
      </trkpt>
      <trkpt lat="44.87931" lon="0.84287">
        <ele>85.2</ele>
        <time>2025-05-10T10:56:41Z</time>
      </trkpt>
      <trkpt lat="44.87931" lon="0.84288">
        <ele>85.6</ele>
        <time>2025-05-10T10:56:42Z</time>
      </trkpt>
      <trkpt lat="44.87931" lon="0.8429">
        <ele>86</ele>
        <time>2025-05-10T10:56:43Z</time>
      </trkpt>
      <trkpt lat="44.87931" lon="0.84292">
        <ele>86.2</ele>
        <time>2025-05-10T10:56:44Z</time>
      </trkpt>
      <trkpt lat="44.87931" lon="0.84294">
        <ele>86.6</ele>
        <time>2025-05-10T10:56:45Z</time>
      </trkpt>
      <trkpt lat="44.87931" lon="0.84297">
        <ele>87</ele>
        <time>2025-05-10T10:56:46Z</time>
      </trkpt>
      <trkpt lat="44.87931" lon="0.84298">
        <ele>87.4</ele>
        <time>2025-05-10T10:56:47Z</time>
      </trkpt>
      <trkpt lat="44.87931" lon="0.84299">
        <ele>87.8</ele>
        <time>2025-05-10T10:56:48Z</time>
      </trkpt>
      <trkpt lat="44.87932" lon="0.84301">
        <ele>88</ele>
        <time>2025-05-10T10:56:49Z</time>
      </trkpt>
      <trkpt lat="44.87931" lon="0.84303">
        <ele>88.4</ele>
        <time>2025-05-10T10:56:50Z</time>
      </trkpt>
      <trkpt lat="44.87931" lon="0.84305">
        <ele>88.6</ele>
        <time>2025-05-10T10:56:51Z</time>
      </trkpt>
      <trkpt lat="44.87931" lon="0.84307">
        <ele>88.8</ele>
        <time>2025-05-10T10:56:52Z</time>
      </trkpt>
      <trkpt lat="44.87931" lon="0.84309">
        <ele>89</ele>
        <time>2025-05-10T10:56:53Z</time>
      </trkpt>
      <trkpt lat="44.87931" lon="0.84311">
        <ele>89.4</ele>
        <time>2025-05-10T10:56:54Z</time>
      </trkpt>
      <trkpt lat="44.87931" lon="0.84313">
        <ele>89.8</ele>
        <time>2025-05-10T10:56:55Z</time>
      </trkpt>
      <trkpt lat="44.87931" lon="0.84315">
        <ele>90</ele>
        <time>2025-05-10T10:56:56Z</time>
      </trkpt>
      <trkpt lat="44.8793" lon="0.84317">
        <ele>90.2</ele>
        <time>2025-05-10T10:56:57Z</time>
      </trkpt>
      <trkpt lat="44.8793" lon="0.84319">
        <ele>90.4</ele>
        <time>2025-05-10T10:56:58Z</time>
      </trkpt>
      <trkpt lat="44.8793" lon="0.84321">
        <ele>90.8</ele>
        <time>2025-05-10T10:56:59Z</time>
      </trkpt>
      <trkpt lat="44.87929" lon="0.84323">
        <ele>90.8</ele>
        <time>2025-05-10T10:57:00Z</time>
      </trkpt>
      <trkpt lat="44.87929" lon="0.84324">
        <ele>91</ele>
        <time>2025-05-10T10:57:01Z</time>
      </trkpt>
      <trkpt lat="44.87928" lon="0.84326">
        <ele>91.2</ele>
        <time>2025-05-10T10:57:02Z</time>
      </trkpt>
      <trkpt lat="44.87927" lon="0.84328">
        <ele>91.4</ele>
        <time>2025-05-10T10:57:03Z</time>
      </trkpt>
      <trkpt lat="44.87926" lon="0.8433">
        <ele>91.4</ele>
        <time>2025-05-10T10:57:04Z</time>
      </trkpt>
      <trkpt lat="44.87925" lon="0.84331">
        <ele>91.6</ele>
        <time>2025-05-10T10:57:05Z</time>
      </trkpt>
      <trkpt lat="44.87924" lon="0.84333">
        <ele>91.8</ele>
        <time>2025-05-10T10:57:06Z</time>
      </trkpt>
      <trkpt lat="44.87924" lon="0.84334">
        <ele>92</ele>
        <time>2025-05-10T10:57:07Z</time>
      </trkpt>
      <trkpt lat="44.87923" lon="0.84336">
        <ele>92.2</ele>
        <time>2025-05-10T10:57:08Z</time>
      </trkpt>
      <trkpt lat="44.87922" lon="0.84338">
        <ele>92.4</ele>
        <time>2025-05-10T10:57:09Z</time>
      </trkpt>
      <trkpt lat="44.87922" lon="0.8434">
        <ele>92.4</ele>
        <time>2025-05-10T10:57:10Z</time>
      </trkpt>
      <trkpt lat="44.87921" lon="0.84341">
        <ele>92.6</ele>
        <time>2025-05-10T10:57:11Z</time>
      </trkpt>
      <trkpt lat="44.87919" lon="0.84343">
        <ele>92.8</ele>
        <time>2025-05-10T10:57:12Z</time>
      </trkpt>
      <trkpt lat="44.87918" lon="0.84344">
        <ele>93</ele>
        <time>2025-05-10T10:57:13Z</time>
      </trkpt>
      <trkpt lat="44.87918" lon="0.84345">
        <ele>93.2</ele>
        <time>2025-05-10T10:57:14Z</time>
      </trkpt>
      <trkpt lat="44.87917" lon="0.84346">
        <ele>93.4</ele>
        <time>2025-05-10T10:57:15Z</time>
      </trkpt>
      <trkpt lat="44.87917" lon="0.84348">
        <ele>93.8</ele>
        <time>2025-05-10T10:57:16Z</time>
      </trkpt>
      <trkpt lat="44.87916" lon="0.84349">
        <ele>94</ele>
        <time>2025-05-10T10:57:17Z</time>
      </trkpt>
      <trkpt lat="44.87915" lon="0.84351">
        <ele>94.4</ele>
        <time>2025-05-10T10:57:18Z</time>
      </trkpt>
      <trkpt lat="44.87914" lon="0.84352">
        <ele>94.4</ele>
        <time>2025-05-10T10:57:19Z</time>
      </trkpt>
      <trkpt lat="44.87913" lon="0.84354">
        <ele>94.6</ele>
        <time>2025-05-10T10:57:20Z</time>
      </trkpt>
      <trkpt lat="44.87912" lon="0.84356">
        <ele>94.8</ele>
        <time>2025-05-10T10:57:21Z</time>
      </trkpt>
      <trkpt lat="44.87911" lon="0.84357">
        <ele>95</ele>
        <time>2025-05-10T10:57:22Z</time>
      </trkpt>
      <trkpt lat="44.87911" lon="0.84358">
        <ele>95.2</ele>
        <time>2025-05-10T10:57:23Z</time>
      </trkpt>
      <trkpt lat="44.8791" lon="0.8436">
        <ele>95.4</ele>
        <time>2025-05-10T10:57:24Z</time>
      </trkpt>
      <trkpt lat="44.87909" lon="0.84361">
        <ele>95.6</ele>
        <time>2025-05-10T10:57:25Z</time>
      </trkpt>
      <trkpt lat="44.87909" lon="0.84363">
        <ele>96</ele>
        <time>2025-05-10T10:57:26Z</time>
      </trkpt>
      <trkpt lat="44.87908" lon="0.84364">
        <ele>96.2</ele>
        <time>2025-05-10T10:57:27Z</time>
      </trkpt>
      <trkpt lat="44.87907" lon="0.84366">
        <ele>96.4</ele>
        <time>2025-05-10T10:57:28Z</time>
      </trkpt>
      <trkpt lat="44.87907" lon="0.84368">
        <ele>96.6</ele>
        <time>2025-05-10T10:57:29Z</time>
      </trkpt>
      <trkpt lat="44.87906" lon="0.8437">
        <ele>96.8</ele>
        <time>2025-05-10T10:57:30Z</time>
      </trkpt>
      <trkpt lat="44.87905" lon="0.84371">
        <ele>97</ele>
        <time>2025-05-10T10:57:31Z</time>
      </trkpt>
      <trkpt lat="44.87905" lon="0.84373">
        <ele>97.2</ele>
        <time>2025-05-10T10:57:32Z</time>
      </trkpt>
      <trkpt lat="44.87904" lon="0.84375">
        <ele>97.4</ele>
        <time>2025-05-10T10:57:33Z</time>
      </trkpt>
      <trkpt lat="44.87903" lon="0.84377">
        <ele>97.6</ele>
        <time>2025-05-10T10:57:34Z</time>
      </trkpt>
      <trkpt lat="44.87903" lon="0.84379">
        <ele>97.6</ele>
        <time>2025-05-10T10:57:35Z</time>
      </trkpt>
      <trkpt lat="44.87903" lon="0.84381">
        <ele>97.8</ele>
        <time>2025-05-10T10:57:36Z</time>
      </trkpt>
      <trkpt lat="44.87903" lon="0.84383">
        <ele>98</ele>
        <time>2025-05-10T10:57:37Z</time>
      </trkpt>
      <trkpt lat="44.87903" lon="0.84385">
        <ele>98</ele>
        <time>2025-05-10T10:57:38Z</time>
      </trkpt>
      <trkpt lat="44.87902" lon="0.84388">
        <ele>98</ele>
        <time>2025-05-10T10:57:39Z</time>
      </trkpt>
      <trkpt lat="44.87902" lon="0.8439">
        <ele>98.2</ele>
        <time>2025-05-10T10:57:40Z</time>
      </trkpt>
      <trkpt lat="44.87903" lon="0.84392">
        <ele>98.2</ele>
        <time>2025-05-10T10:57:41Z</time>
      </trkpt>
      <trkpt lat="44.87903" lon="0.84394">
        <ele>98.4</ele>
        <time>2025-05-10T10:57:42Z</time>
      </trkpt>
      <trkpt lat="44.87903" lon="0.84397">
        <ele>98.6</ele>
        <time>2025-05-10T10:57:43Z</time>
      </trkpt>
      <trkpt lat="44.87904" lon="0.84399">
        <ele>98.6</ele>
        <time>2025-05-10T10:57:44Z</time>
      </trkpt>
      <trkpt lat="44.87904" lon="0.84401">
        <ele>98.8</ele>
        <time>2025-05-10T10:57:45Z</time>
      </trkpt>
      <trkpt lat="44.87904" lon="0.84404">
        <ele>98.8</ele>
        <time>2025-05-10T10:57:46Z</time>
      </trkpt>
      <trkpt lat="44.87905" lon="0.84406">
        <ele>99</ele>
        <time>2025-05-10T10:57:47Z</time>
      </trkpt>
      <trkpt lat="44.87905" lon="0.84409">
        <ele>99.2</ele>
        <time>2025-05-10T10:57:48Z</time>
      </trkpt>
      <trkpt lat="44.87905" lon="0.84411">
        <ele>99.4</ele>
        <time>2025-05-10T10:57:49Z</time>
      </trkpt>
      <trkpt lat="44.87905" lon="0.84414">
        <ele>99.6</ele>
        <time>2025-05-10T10:57:50Z</time>
      </trkpt>
      <trkpt lat="44.87904" lon="0.84417">
        <ele>99.6</ele>
        <time>2025-05-10T10:57:51Z</time>
      </trkpt>
      <trkpt lat="44.87904" lon="0.84419">
        <ele>99.8</ele>
        <time>2025-05-10T10:57:52Z</time>
      </trkpt>
      <trkpt lat="44.87904" lon="0.84422">
        <ele>100</ele>
        <time>2025-05-10T10:57:53Z</time>
      </trkpt>
      <trkpt lat="44.87903" lon="0.84424">
        <ele>100</ele>
        <time>2025-05-10T10:57:54Z</time>
      </trkpt>
      <trkpt lat="44.87903" lon="0.84426">
        <ele>100.2</ele>
        <time>2025-05-10T10:57:55Z</time>
      </trkpt>
      <trkpt lat="44.87902" lon="0.84428">
        <ele>100.4</ele>
        <time>2025-05-10T10:57:56Z</time>
      </trkpt>
      <trkpt lat="44.87901" lon="0.84429">
        <ele>100.6</ele>
        <time>2025-05-10T10:57:57Z</time>
      </trkpt>
      <trkpt lat="44.879" lon="0.84432">
        <ele>100.8</ele>
        <time>2025-05-10T10:57:58Z</time>
      </trkpt>
      <trkpt lat="44.879" lon="0.84434">
        <ele>101</ele>
        <time>2025-05-10T10:57:59Z</time>
      </trkpt>
      <trkpt lat="44.87899" lon="0.84436">
        <ele>101</ele>
        <time>2025-05-10T10:58:00Z</time>
      </trkpt>
      <trkpt lat="44.87899" lon="0.84439">
        <ele>101.2</ele>
        <time>2025-05-10T10:58:01Z</time>
      </trkpt>
      <trkpt lat="44.87898" lon="0.84441">
        <ele>101.4</ele>
        <time>2025-05-10T10:58:02Z</time>
      </trkpt>
      <trkpt lat="44.87897" lon="0.84444">
        <ele>101.6</ele>
        <time>2025-05-10T10:58:03Z</time>
      </trkpt>
      <trkpt lat="44.87897" lon="0.84446">
        <ele>101.8</ele>
        <time>2025-05-10T10:58:04Z</time>
      </trkpt>
      <trkpt lat="44.87897" lon="0.84448">
        <ele>102</ele>
        <time>2025-05-10T10:58:05Z</time>
      </trkpt>
      <trkpt lat="44.87896" lon="0.8445">
        <ele>102.2</ele>
        <time>2025-05-10T10:58:06Z</time>
      </trkpt>
      <trkpt lat="44.87895" lon="0.84452">
        <ele>102.2</ele>
        <time>2025-05-10T10:58:07Z</time>
      </trkpt>
      <trkpt lat="44.87894" lon="0.84455">
        <ele>102.4</ele>
        <time>2025-05-10T10:58:08Z</time>
      </trkpt>
      <trkpt lat="44.87893" lon="0.84457">
        <ele>102.6</ele>
        <time>2025-05-10T10:58:09Z</time>
      </trkpt>
      <trkpt lat="44.87893" lon="0.8446">
        <ele>102.8</ele>
        <time>2025-05-10T10:58:10Z</time>
      </trkpt>
      <trkpt lat="44.87892" lon="0.84462">
        <ele>102.8</ele>
        <time>2025-05-10T10:58:11Z</time>
      </trkpt>
      <trkpt lat="44.87891" lon="0.84465">
        <ele>103</ele>
        <time>2025-05-10T10:58:12Z</time>
      </trkpt>
      <trkpt lat="44.8789" lon="0.84467">
        <ele>103</ele>
        <time>2025-05-10T10:58:13Z</time>
      </trkpt>
      <trkpt lat="44.8789" lon="0.8447">
        <ele>103</ele>
        <time>2025-05-10T10:58:14Z</time>
      </trkpt>
      <trkpt lat="44.8789" lon="0.84473">
        <ele>103.2</ele>
        <time>2025-05-10T10:58:15Z</time>
      </trkpt>
      <trkpt lat="44.8789" lon="0.84476">
        <ele>103.4</ele>
        <time>2025-05-10T10:58:16Z</time>
      </trkpt>
      <trkpt lat="44.87891" lon="0.84479">
        <ele>103.4</ele>
        <time>2025-05-10T10:58:17Z</time>
      </trkpt>
      <trkpt lat="44.87891" lon="0.84482">
        <ele>103.4</ele>
        <time>2025-05-10T10:58:18Z</time>
      </trkpt>
      <trkpt lat="44.87893" lon="0.84485">
        <ele>103.6</ele>
        <time>2025-05-10T10:58:19Z</time>
      </trkpt>
      <trkpt lat="44.87895" lon="0.84489">
        <ele>103.6</ele>
        <time>2025-05-10T10:58:20Z</time>
      </trkpt>
      <trkpt lat="44.87897" lon="0.84492">
        <ele>103.6</ele>
        <time>2025-05-10T10:58:21Z</time>
      </trkpt>
      <trkpt lat="44.87899" lon="0.84495">
        <ele>103.4</ele>
        <time>2025-05-10T10:58:22Z</time>
      </trkpt>
      <trkpt lat="44.87902" lon="0.84498">
        <ele>103.4</ele>
        <time>2025-05-10T10:58:23Z</time>
      </trkpt>
      <trkpt lat="44.87905" lon="0.84501">
        <ele>102.8</ele>
        <time>2025-05-10T10:58:24Z</time>
      </trkpt>
      <trkpt lat="44.87909" lon="0.84504">
        <ele>102.6</ele>
        <time>2025-05-10T10:58:25Z</time>
      </trkpt>
      <trkpt lat="44.87913" lon="0.84507">
        <ele>102.6</ele>
        <time>2025-05-10T10:58:26Z</time>
      </trkpt>
      <trkpt lat="44.87917" lon="0.8451">
        <ele>102.2</ele>
        <time>2025-05-10T10:58:27Z</time>
      </trkpt>
      <trkpt lat="44.87921" lon="0.84513">
        <ele>102</ele>
        <time>2025-05-10T10:58:28Z</time>
      </trkpt>
      <trkpt lat="44.87925" lon="0.84514">
        <ele>101.8</ele>
        <time>2025-05-10T10:58:29Z</time>
      </trkpt>
      <trkpt lat="44.87929" lon="0.84515">
        <ele>101.6</ele>
        <time>2025-05-10T10:58:30Z</time>
      </trkpt>
      <trkpt lat="44.87932" lon="0.84516">
        <ele>101.6</ele>
        <time>2025-05-10T10:58:31Z</time>
      </trkpt>
      <trkpt lat="44.87936" lon="0.84517">
        <ele>101.6</ele>
        <time>2025-05-10T10:58:32Z</time>
      </trkpt>
      <trkpt lat="44.8794" lon="0.84517">
        <ele>101.6</ele>
        <time>2025-05-10T10:58:33Z</time>
      </trkpt>
      <trkpt lat="44.87944" lon="0.84518">
        <ele>101.6</ele>
        <time>2025-05-10T10:58:34Z</time>
      </trkpt>
      <trkpt lat="44.87948" lon="0.84518">
        <ele>101.6</ele>
        <time>2025-05-10T10:58:35Z</time>
      </trkpt>
      <trkpt lat="44.87952" lon="0.84519">
        <ele>101.6</ele>
        <time>2025-05-10T10:58:36Z</time>
      </trkpt>
      <trkpt lat="44.87956" lon="0.84519">
        <ele>101.6</ele>
        <time>2025-05-10T10:58:37Z</time>
      </trkpt>
      <trkpt lat="44.8796" lon="0.84519">
        <ele>101.6</ele>
        <time>2025-05-10T10:58:38Z</time>
      </trkpt>
      <trkpt lat="44.87964" lon="0.8452">
        <ele>101.8</ele>
        <time>2025-05-10T10:58:39Z</time>
      </trkpt>
      <trkpt lat="44.87968" lon="0.84521">
        <ele>102</ele>
        <time>2025-05-10T10:58:40Z</time>
      </trkpt>
      <trkpt lat="44.87971" lon="0.84521">
        <ele>102.2</ele>
        <time>2025-05-10T10:58:41Z</time>
      </trkpt>
      <trkpt lat="44.87975" lon="0.84522">
        <ele>102.2</ele>
        <time>2025-05-10T10:58:42Z</time>
      </trkpt>
      <trkpt lat="44.87978" lon="0.84523">
        <ele>102.4</ele>
        <time>2025-05-10T10:58:43Z</time>
      </trkpt>
      <trkpt lat="44.87981" lon="0.84524">
        <ele>102.6</ele>
        <time>2025-05-10T10:58:44Z</time>
      </trkpt>
      <trkpt lat="44.87984" lon="0.84525">
        <ele>103.2</ele>
        <time>2025-05-10T10:58:45Z</time>
      </trkpt>
      <trkpt lat="44.87986" lon="0.84527">
        <ele>103.4</ele>
        <time>2025-05-10T10:58:46Z</time>
      </trkpt>
      <trkpt lat="44.87989" lon="0.84529">
        <ele>103.8</ele>
        <time>2025-05-10T10:58:47Z</time>
      </trkpt>
      <trkpt lat="44.87991" lon="0.8453">
        <ele>104</ele>
        <time>2025-05-10T10:58:48Z</time>
      </trkpt>
      <trkpt lat="44.87994" lon="0.84532">
        <ele>104.4</ele>
        <time>2025-05-10T10:58:49Z</time>
      </trkpt>
      <trkpt lat="44.87997" lon="0.84534">
        <ele>104.6</ele>
        <time>2025-05-10T10:58:50Z</time>
      </trkpt>
      <trkpt lat="44.87999" lon="0.84535">
        <ele>104.8</ele>
        <time>2025-05-10T10:58:51Z</time>
      </trkpt>
      <trkpt lat="44.88001" lon="0.84538">
        <ele>105</ele>
        <time>2025-05-10T10:58:52Z</time>
      </trkpt>
      <trkpt lat="44.88003" lon="0.8454">
        <ele>105.4</ele>
        <time>2025-05-10T10:58:53Z</time>
      </trkpt>
      <trkpt lat="44.88006" lon="0.84541">
        <ele>105.8</ele>
        <time>2025-05-10T10:58:54Z</time>
      </trkpt>
      <trkpt lat="44.88009" lon="0.84543">
        <ele>106</ele>
        <time>2025-05-10T10:58:55Z</time>
      </trkpt>
      <trkpt lat="44.88011" lon="0.84545">
        <ele>106.4</ele>
        <time>2025-05-10T10:58:56Z</time>
      </trkpt>
      <trkpt lat="44.88013" lon="0.84546">
        <ele>106.6</ele>
        <time>2025-05-10T10:58:57Z</time>
      </trkpt>
      <trkpt lat="44.88016" lon="0.84547">
        <ele>107</ele>
        <time>2025-05-10T10:58:58Z</time>
      </trkpt>
      <trkpt lat="44.88018" lon="0.84548">
        <ele>107.2</ele>
        <time>2025-05-10T10:58:59Z</time>
      </trkpt>
      <trkpt lat="44.88021" lon="0.84549">
        <ele>107.4</ele>
        <time>2025-05-10T10:59:00Z</time>
      </trkpt>
      <trkpt lat="44.88024" lon="0.84549">
        <ele>107.8</ele>
        <time>2025-05-10T10:59:01Z</time>
      </trkpt>
      <trkpt lat="44.88027" lon="0.84549">
        <ele>108</ele>
        <time>2025-05-10T10:59:02Z</time>
      </trkpt>
      <trkpt lat="44.8803" lon="0.84547">
        <ele>108.2</ele>
        <time>2025-05-10T10:59:03Z</time>
      </trkpt>
      <trkpt lat="44.88033" lon="0.84546">
        <ele>108.4</ele>
        <time>2025-05-10T10:59:04Z</time>
      </trkpt>
      <trkpt lat="44.88035" lon="0.84543">
        <ele>108.6</ele>
        <time>2025-05-10T10:59:05Z</time>
      </trkpt>
      <trkpt lat="44.88038" lon="0.84542">
        <ele>108.8</ele>
        <time>2025-05-10T10:59:06Z</time>
      </trkpt>
      <trkpt lat="44.88041" lon="0.8454">
        <ele>109</ele>
        <time>2025-05-10T10:59:07Z</time>
      </trkpt>
      <trkpt lat="44.88044" lon="0.84538">
        <ele>109</ele>
        <time>2025-05-10T10:59:08Z</time>
      </trkpt>
      <trkpt lat="44.88048" lon="0.84535">
        <ele>109</ele>
        <time>2025-05-10T10:59:09Z</time>
      </trkpt>
      <trkpt lat="44.88051" lon="0.84533">
        <ele>109</ele>
        <time>2025-05-10T10:59:10Z</time>
      </trkpt>
      <trkpt lat="44.88054" lon="0.84531">
        <ele>109</ele>
        <time>2025-05-10T10:59:11Z</time>
      </trkpt>
      <trkpt lat="44.88057" lon="0.84529">
        <ele>109</ele>
        <time>2025-05-10T10:59:12Z</time>
      </trkpt>
      <trkpt lat="44.8806" lon="0.84526">
        <ele>109</ele>
        <time>2025-05-10T10:59:13Z</time>
      </trkpt>
      <trkpt lat="44.88062" lon="0.84522">
        <ele>109</ele>
        <time>2025-05-10T10:59:14Z</time>
      </trkpt>
      <trkpt lat="44.88065" lon="0.84518">
        <ele>109</ele>
        <time>2025-05-10T10:59:15Z</time>
      </trkpt>
      <trkpt lat="44.88066" lon="0.84512">
        <ele>109</ele>
        <time>2025-05-10T10:59:16Z</time>
      </trkpt>
      <trkpt lat="44.88068" lon="0.84506">
        <ele>108.8</ele>
        <time>2025-05-10T10:59:17Z</time>
      </trkpt>
      <trkpt lat="44.88069" lon="0.845">
        <ele>108.6</ele>
        <time>2025-05-10T10:59:18Z</time>
      </trkpt>
      <trkpt lat="44.88071" lon="0.84493">
        <ele>108.4</ele>
        <time>2025-05-10T10:59:19Z</time>
      </trkpt>
      <trkpt lat="44.88074" lon="0.84487">
        <ele>108</ele>
        <time>2025-05-10T10:59:20Z</time>
      </trkpt>
      <trkpt lat="44.88077" lon="0.84482">
        <ele>107.6</ele>
        <time>2025-05-10T10:59:21Z</time>
      </trkpt>
      <trkpt lat="44.88081" lon="0.84477">
        <ele>107.4</ele>
        <time>2025-05-10T10:59:22Z</time>
      </trkpt>
      <trkpt lat="44.88085" lon="0.84472">
        <ele>107.2</ele>
        <time>2025-05-10T10:59:23Z</time>
      </trkpt>
      <trkpt lat="44.8809" lon="0.84468">
        <ele>107</ele>
        <time>2025-05-10T10:59:24Z</time>
      </trkpt>
      <trkpt lat="44.88095" lon="0.84464">
        <ele>107</ele>
        <time>2025-05-10T10:59:25Z</time>
      </trkpt>
      <trkpt lat="44.88099" lon="0.8446">
        <ele>106.8</ele>
        <time>2025-05-10T10:59:26Z</time>
      </trkpt>
      <trkpt lat="44.88104" lon="0.84457">
        <ele>106.8</ele>
        <time>2025-05-10T10:59:27Z</time>
      </trkpt>
      <trkpt lat="44.88109" lon="0.84452">
        <ele>106.6</ele>
        <time>2025-05-10T10:59:28Z</time>
      </trkpt>
      <trkpt lat="44.88114" lon="0.84448">
        <ele>106.4</ele>
        <time>2025-05-10T10:59:29Z</time>
      </trkpt>
      <trkpt lat="44.88119" lon="0.84443">
        <ele>106.4</ele>
        <time>2025-05-10T10:59:30Z</time>
      </trkpt>
      <trkpt lat="44.88123" lon="0.84438">
        <ele>106.2</ele>
        <time>2025-05-10T10:59:31Z</time>
      </trkpt>
      <trkpt lat="44.88129" lon="0.84433">
        <ele>106</ele>
        <time>2025-05-10T10:59:32Z</time>
      </trkpt>
      <trkpt lat="44.88134" lon="0.84428">
        <ele>105.6</ele>
        <time>2025-05-10T10:59:33Z</time>
      </trkpt>
      <trkpt lat="44.8814" lon="0.84422">
        <ele>105.2</ele>
        <time>2025-05-10T10:59:34Z</time>
      </trkpt>
      <trkpt lat="44.88146" lon="0.84416">
        <ele>104.6</ele>
        <time>2025-05-10T10:59:35Z</time>
      </trkpt>
      <trkpt lat="44.88152" lon="0.8441">
        <ele>104.2</ele>
        <time>2025-05-10T10:59:36Z</time>
      </trkpt>
      <trkpt lat="44.88158" lon="0.84406">
        <ele>103.8</ele>
        <time>2025-05-10T10:59:37Z</time>
      </trkpt>
      <trkpt lat="44.88165" lon="0.84405">
        <ele>103</ele>
        <time>2025-05-10T10:59:38Z</time>
      </trkpt>
      <trkpt lat="44.88172" lon="0.84406">
        <ele>102.4</ele>
        <time>2025-05-10T10:59:39Z</time>
      </trkpt>
      <trkpt lat="44.88179" lon="0.84409">
        <ele>102</ele>
        <time>2025-05-10T10:59:40Z</time>
      </trkpt>
      <trkpt lat="44.88185" lon="0.84413">
        <ele>101.6</ele>
        <time>2025-05-10T10:59:41Z</time>
      </trkpt>
      <trkpt lat="44.88192" lon="0.84416">
        <ele>100.8</ele>
        <time>2025-05-10T10:59:42Z</time>
      </trkpt>
      <trkpt lat="44.88199" lon="0.84419">
        <ele>100.4</ele>
        <time>2025-05-10T10:59:43Z</time>
      </trkpt>
      <trkpt lat="44.88205" lon="0.84423">
        <ele>100</ele>
        <time>2025-05-10T10:59:44Z</time>
      </trkpt>
      <trkpt lat="44.8821" lon="0.84427">
        <ele>99.6</ele>
        <time>2025-05-10T10:59:45Z</time>
      </trkpt>
      <trkpt lat="44.88216" lon="0.8443">
        <ele>99.4</ele>
        <time>2025-05-10T10:59:46Z</time>
      </trkpt>
      <trkpt lat="44.88221" lon="0.84434">
        <ele>99.2</ele>
        <time>2025-05-10T10:59:47Z</time>
      </trkpt>
      <trkpt lat="44.88227" lon="0.84439">
        <ele>98.8</ele>
        <time>2025-05-10T10:59:48Z</time>
      </trkpt>
      <trkpt lat="44.88232" lon="0.84443">
        <ele>98.4</ele>
        <time>2025-05-10T10:59:49Z</time>
      </trkpt>
      <trkpt lat="44.88238" lon="0.84444">
        <ele>97.8</ele>
        <time>2025-05-10T10:59:50Z</time>
      </trkpt>
      <trkpt lat="44.88243" lon="0.84442">
        <ele>97.4</ele>
        <time>2025-05-10T10:59:51Z</time>
      </trkpt>
      <trkpt lat="44.88248" lon="0.84441">
        <ele>97</ele>
        <time>2025-05-10T10:59:52Z</time>
      </trkpt>
      <trkpt lat="44.88254" lon="0.84443">
        <ele>96.4</ele>
        <time>2025-05-10T10:59:53Z</time>
      </trkpt>
      <trkpt lat="44.88259" lon="0.84448">
        <ele>96.4</ele>
        <time>2025-05-10T10:59:54Z</time>
      </trkpt>
      <trkpt lat="44.88264" lon="0.84451">
        <ele>96</ele>
        <time>2025-05-10T10:59:55Z</time>
      </trkpt>
      <trkpt lat="44.88269" lon="0.84453">
        <ele>95.8</ele>
        <time>2025-05-10T10:59:56Z</time>
      </trkpt>
      <trkpt lat="44.88272" lon="0.84454">
        <ele>95.4</ele>
        <time>2025-05-10T10:59:57Z</time>
      </trkpt>
      <trkpt lat="44.88276" lon="0.84456">
        <ele>95</ele>
        <time>2025-05-10T10:59:58Z</time>
      </trkpt>
      <trkpt lat="44.88281" lon="0.84458">
        <ele>95</ele>
        <time>2025-05-10T10:59:59Z</time>
      </trkpt>
      <trkpt lat="44.88286" lon="0.84461">
        <ele>94.6</ele>
        <time>2025-05-10T11:00:00Z</time>
      </trkpt>
      <trkpt lat="44.88292" lon="0.84463">
        <ele>94.4</ele>
        <time>2025-05-10T11:00:01Z</time>
      </trkpt>
      <trkpt lat="44.88298" lon="0.84465">
        <ele>93.4</ele>
        <time>2025-05-10T11:00:02Z</time>
      </trkpt>
      <trkpt lat="44.88305" lon="0.84466">
        <ele>92.2</ele>
        <time>2025-05-10T11:00:03Z</time>
      </trkpt>
      <trkpt lat="44.8831" lon="0.84463">
        <ele>91.6</ele>
        <time>2025-05-10T11:00:04Z</time>
      </trkpt>
      <trkpt lat="44.88315" lon="0.84462">
        <ele>90</ele>
        <time>2025-05-10T11:00:05Z</time>
      </trkpt>
      <trkpt lat="44.88319" lon="0.84463">
        <ele>89.4</ele>
        <time>2025-05-10T11:00:06Z</time>
      </trkpt>
      <trkpt lat="44.88322" lon="0.84463">
        <ele>89.2</ele>
        <time>2025-05-10T11:00:07Z</time>
      </trkpt>
      <trkpt lat="44.88324" lon="0.84468">
        <ele>88.4</ele>
        <time>2025-05-10T11:00:08Z</time>
      </trkpt>
      <trkpt lat="44.88325" lon="0.84474">
        <ele>88.2</ele>
        <time>2025-05-10T11:00:09Z</time>
      </trkpt>
      <trkpt lat="44.88326" lon="0.84483">
        <ele>87.6</ele>
        <time>2025-05-10T11:00:10Z</time>
      </trkpt>
      <trkpt lat="44.88327" lon="0.84492">
        <ele>87</ele>
        <time>2025-05-10T11:00:11Z</time>
      </trkpt>
      <trkpt lat="44.88329" lon="0.84502">
        <ele>86</ele>
        <time>2025-05-10T11:00:12Z</time>
      </trkpt>
      <trkpt lat="44.88332" lon="0.84511">
        <ele>84.2</ele>
        <time>2025-05-10T11:00:13Z</time>
      </trkpt>
      <trkpt lat="44.88337" lon="0.84521">
        <ele>83.4</ele>
        <time>2025-05-10T11:00:14Z</time>
      </trkpt>
      <trkpt lat="44.88342" lon="0.84528">
        <ele>82.6</ele>
        <time>2025-05-10T11:00:15Z</time>
      </trkpt>
      <trkpt lat="44.88347" lon="0.84534">
        <ele>81.6</ele>
        <time>2025-05-10T11:00:16Z</time>
      </trkpt>
      <trkpt lat="44.88352" lon="0.84538">
        <ele>81.4</ele>
        <time>2025-05-10T11:00:17Z</time>
      </trkpt>
      <trkpt lat="44.88358" lon="0.84539">
        <ele>81.4</ele>
        <time>2025-05-10T11:00:18Z</time>
      </trkpt>
      <trkpt lat="44.88361" lon="0.84539">
        <ele>81.4</ele>
        <time>2025-05-10T11:00:19Z</time>
      </trkpt>
      <trkpt lat="44.88363" lon="0.84537">
        <ele>81.4</ele>
        <time>2025-05-10T11:00:20Z</time>
      </trkpt>
      <trkpt lat="44.88365" lon="0.84536">
        <ele>82.2</ele>
        <time>2025-05-10T11:00:21Z</time>
      </trkpt>
      <trkpt lat="44.88367" lon="0.84535">
        <ele>83</ele>
        <time>2025-05-10T11:00:22Z</time>
      </trkpt>
      <trkpt lat="44.88369" lon="0.84533">
        <ele>83.6</ele>
        <time>2025-05-10T11:00:23Z</time>
      </trkpt>
      <trkpt lat="44.88371" lon="0.84531">
        <ele>84</ele>
        <time>2025-05-10T11:00:24Z</time>
      </trkpt>
      <trkpt lat="44.88373" lon="0.84529">
        <ele>84.2</ele>
        <time>2025-05-10T11:00:25Z</time>
      </trkpt>
      <trkpt lat="44.88374" lon="0.84527">
        <ele>84.8</ele>
        <time>2025-05-10T11:00:26Z</time>
      </trkpt>
      <trkpt lat="44.88376" lon="0.84525">
        <ele>85</ele>
        <time>2025-05-10T11:00:27Z</time>
      </trkpt>
      <trkpt lat="44.88377" lon="0.84523">
        <ele>85.4</ele>
        <time>2025-05-10T11:00:28Z</time>
      </trkpt>
      <trkpt lat="44.88379" lon="0.84521">
        <ele>85.4</ele>
        <time>2025-05-10T11:00:29Z</time>
      </trkpt>
      <trkpt lat="44.8838" lon="0.84519">
        <ele>85.6</ele>
        <time>2025-05-10T11:00:30Z</time>
      </trkpt>
      <trkpt lat="44.88382" lon="0.84517">
        <ele>85.8</ele>
        <time>2025-05-10T11:00:31Z</time>
      </trkpt>
      <trkpt lat="44.88383" lon="0.84515">
        <ele>86.2</ele>
        <time>2025-05-10T11:00:32Z</time>
      </trkpt>
      <trkpt lat="44.88384" lon="0.84514">
        <ele>86.4</ele>
        <time>2025-05-10T11:00:33Z</time>
      </trkpt>
      <trkpt lat="44.88386" lon="0.84512">
        <ele>86.6</ele>
        <time>2025-05-10T11:00:34Z</time>
      </trkpt>
      <trkpt lat="44.88387" lon="0.8451">
        <ele>86.8</ele>
        <time>2025-05-10T11:00:35Z</time>
      </trkpt>
      <trkpt lat="44.88388" lon="0.84508">
        <ele>87</ele>
        <time>2025-05-10T11:00:36Z</time>
      </trkpt>
      <trkpt lat="44.88389" lon="0.84506">
        <ele>87.4</ele>
        <time>2025-05-10T11:00:37Z</time>
      </trkpt>
      <trkpt lat="44.8839" lon="0.84504">
        <ele>87.6</ele>
        <time>2025-05-10T11:00:38Z</time>
      </trkpt>
      <trkpt lat="44.88391" lon="0.84502">
        <ele>87.6</ele>
        <time>2025-05-10T11:00:39Z</time>
      </trkpt>
      <trkpt lat="44.88392" lon="0.84501">
        <ele>88</ele>
        <time>2025-05-10T11:00:40Z</time>
      </trkpt>
      <trkpt lat="44.88392" lon="0.84499">
        <ele>88.2</ele>
        <time>2025-05-10T11:00:41Z</time>
      </trkpt>
      <trkpt lat="44.88393" lon="0.84497">
        <ele>88.6</ele>
        <time>2025-05-10T11:00:42Z</time>
      </trkpt>
      <trkpt lat="44.88394" lon="0.84496">
        <ele>88.6</ele>
        <time>2025-05-10T11:00:43Z</time>
      </trkpt>
      <trkpt lat="44.88395" lon="0.84494">
        <ele>89</ele>
        <time>2025-05-10T11:00:44Z</time>
      </trkpt>
      <trkpt lat="44.88396" lon="0.84493">
        <ele>89.2</ele>
        <time>2025-05-10T11:00:45Z</time>
      </trkpt>
      <trkpt lat="44.88397" lon="0.84492">
        <ele>89.4</ele>
        <time>2025-05-10T11:00:46Z</time>
      </trkpt>
      <trkpt lat="44.88398" lon="0.84491">
        <ele>89.6</ele>
        <time>2025-05-10T11:00:47Z</time>
      </trkpt>
      <trkpt lat="44.88399" lon="0.84489">
        <ele>89.8</ele>
        <time>2025-05-10T11:00:48Z</time>
      </trkpt>
      <trkpt lat="44.884" lon="0.84488">
        <ele>90</ele>
        <time>2025-05-10T11:00:49Z</time>
      </trkpt>
      <trkpt lat="44.884" lon="0.84486">
        <ele>90.2</ele>
        <time>2025-05-10T11:00:50Z</time>
      </trkpt>
      <trkpt lat="44.88401" lon="0.84485">
        <ele>90.4</ele>
        <time>2025-05-10T11:00:51Z</time>
      </trkpt>
      <trkpt lat="44.88401" lon="0.84484">
        <ele>90.6</ele>
        <time>2025-05-10T11:00:52Z</time>
      </trkpt>
      <trkpt lat="44.88402" lon="0.84482">
        <ele>90.8</ele>
        <time>2025-05-10T11:00:53Z</time>
      </trkpt>
      <trkpt lat="44.88403" lon="0.84481">
        <ele>90.8</ele>
        <time>2025-05-10T11:00:54Z</time>
      </trkpt>
      <trkpt lat="44.88404" lon="0.8448">
        <ele>91</ele>
        <time>2025-05-10T11:00:55Z</time>
      </trkpt>
      <trkpt lat="44.88405" lon="0.84478">
        <ele>91.2</ele>
        <time>2025-05-10T11:00:56Z</time>
      </trkpt>
      <trkpt lat="44.88406" lon="0.84477">
        <ele>91.4</ele>
        <time>2025-05-10T11:00:57Z</time>
      </trkpt>
      <trkpt lat="44.88406" lon="0.84475">
        <ele>91.6</ele>
        <time>2025-05-10T11:00:58Z</time>
      </trkpt>
      <trkpt lat="44.88407" lon="0.84474">
        <ele>91.8</ele>
        <time>2025-05-10T11:00:59Z</time>
      </trkpt>
      <trkpt lat="44.88408" lon="0.84472">
        <ele>91.8</ele>
        <time>2025-05-10T11:01:00Z</time>
      </trkpt>
      <trkpt lat="44.88409" lon="0.84471">
        <ele>92.2</ele>
        <time>2025-05-10T11:01:01Z</time>
      </trkpt>
      <trkpt lat="44.8841" lon="0.8447">
        <ele>92.4</ele>
        <time>2025-05-10T11:01:02Z</time>
      </trkpt>
      <trkpt lat="44.88411" lon="0.84468">
        <ele>92.6</ele>
        <time>2025-05-10T11:01:03Z</time>
      </trkpt>
      <trkpt lat="44.88411" lon="0.84467">
        <ele>92.8</ele>
        <time>2025-05-10T11:01:04Z</time>
      </trkpt>
      <trkpt lat="44.88412" lon="0.84465">
        <ele>93</ele>
        <time>2025-05-10T11:01:05Z</time>
      </trkpt>
      <trkpt lat="44.88413" lon="0.84464">
        <ele>93.2</ele>
        <time>2025-05-10T11:01:06Z</time>
      </trkpt>
      <trkpt lat="44.88414" lon="0.84463">
        <ele>93.4</ele>
        <time>2025-05-10T11:01:07Z</time>
      </trkpt>
      <trkpt lat="44.88415" lon="0.84461">
        <ele>93.4</ele>
        <time>2025-05-10T11:01:08Z</time>
      </trkpt>
      <trkpt lat="44.88416" lon="0.8446">
        <ele>93.8</ele>
        <time>2025-05-10T11:01:09Z</time>
      </trkpt>
      <trkpt lat="44.88417" lon="0.84458">
        <ele>94</ele>
        <time>2025-05-10T11:01:10Z</time>
      </trkpt>
      <trkpt lat="44.88418" lon="0.84457">
        <ele>94.2</ele>
        <time>2025-05-10T11:01:11Z</time>
      </trkpt>
      <trkpt lat="44.88419" lon="0.84455">
        <ele>94.2</ele>
        <time>2025-05-10T11:01:12Z</time>
      </trkpt>
      <trkpt lat="44.8842" lon="0.84453">
        <ele>94.4</ele>
        <time>2025-05-10T11:01:13Z</time>
      </trkpt>
      <trkpt lat="44.88421" lon="0.84452">
        <ele>94.6</ele>
        <time>2025-05-10T11:01:14Z</time>
      </trkpt>
      <trkpt lat="44.88422" lon="0.84451">
        <ele>94.8</ele>
        <time>2025-05-10T11:01:15Z</time>
      </trkpt>
      <trkpt lat="44.88423" lon="0.8445">
        <ele>95</ele>
        <time>2025-05-10T11:01:16Z</time>
      </trkpt>
      <trkpt lat="44.88424" lon="0.84449">
        <ele>95.2</ele>
        <time>2025-05-10T11:01:17Z</time>
      </trkpt>
      <trkpt lat="44.88425" lon="0.84448">
        <ele>95.4</ele>
        <time>2025-05-10T11:01:18Z</time>
      </trkpt>
      <trkpt lat="44.88427" lon="0.84447">
        <ele>95.6</ele>
        <time>2025-05-10T11:01:19Z</time>
      </trkpt>
      <trkpt lat="44.88428" lon="0.84445">
        <ele>95.8</ele>
        <time>2025-05-10T11:01:20Z</time>
      </trkpt>
      <trkpt lat="44.88429" lon="0.84444">
        <ele>96</ele>
        <time>2025-05-10T11:01:21Z</time>
      </trkpt>
      <trkpt lat="44.8843" lon="0.84443">
        <ele>96.2</ele>
        <time>2025-05-10T11:01:22Z</time>
      </trkpt>
      <trkpt lat="44.88431" lon="0.84443">
        <ele>96.2</ele>
        <time>2025-05-10T11:01:23Z</time>
      </trkpt>
      <trkpt lat="44.88432" lon="0.84442">
        <ele>96.4</ele>
        <time>2025-05-10T11:01:24Z</time>
      </trkpt>
      <trkpt lat="44.88434" lon="0.84442">
        <ele>96.6</ele>
        <time>2025-05-10T11:01:25Z</time>
      </trkpt>
      <trkpt lat="44.88435" lon="0.84441">
        <ele>96.8</ele>
        <time>2025-05-10T11:01:26Z</time>
      </trkpt>
      <trkpt lat="44.88436" lon="0.8444">
        <ele>97</ele>
        <time>2025-05-10T11:01:27Z</time>
      </trkpt>
      <trkpt lat="44.88438" lon="0.84439">
        <ele>97.2</ele>
        <time>2025-05-10T11:01:28Z</time>
      </trkpt>
      <trkpt lat="44.88439" lon="0.84438">
        <ele>97.4</ele>
        <time>2025-05-10T11:01:29Z</time>
      </trkpt>
      <trkpt lat="44.88441" lon="0.84437">
        <ele>97.6</ele>
        <time>2025-05-10T11:01:30Z</time>
      </trkpt>
      <trkpt lat="44.88442" lon="0.84437">
        <ele>97.6</ele>
        <time>2025-05-10T11:01:31Z</time>
      </trkpt>
      <trkpt lat="44.88443" lon="0.84437">
        <ele>97.8</ele>
        <time>2025-05-10T11:01:32Z</time>
      </trkpt>
      <trkpt lat="44.88444" lon="0.84437">
        <ele>98</ele>
        <time>2025-05-10T11:01:33Z</time>
      </trkpt>
      <trkpt lat="44.88446" lon="0.84437">
        <ele>98.2</ele>
        <time>2025-05-10T11:01:34Z</time>
      </trkpt>
      <trkpt lat="44.88447" lon="0.84436">
        <ele>98.4</ele>
        <time>2025-05-10T11:01:35Z</time>
      </trkpt>
      <trkpt lat="44.88448" lon="0.84436">
        <ele>98.6</ele>
        <time>2025-05-10T11:01:36Z</time>
      </trkpt>
      <trkpt lat="44.88449" lon="0.84437">
        <ele>98.8</ele>
        <time>2025-05-10T11:01:37Z</time>
      </trkpt>
      <trkpt lat="44.8845" lon="0.84438">
        <ele>99.2</ele>
        <time>2025-05-10T11:01:38Z</time>
      </trkpt>
      <trkpt lat="44.88452" lon="0.84438">
        <ele>99.4</ele>
        <time>2025-05-10T11:01:39Z</time>
      </trkpt>
      <trkpt lat="44.88453" lon="0.84439">
        <ele>99.4</ele>
        <time>2025-05-10T11:01:40Z</time>
      </trkpt>
      <trkpt lat="44.88454" lon="0.84438">
        <ele>99.6</ele>
        <time>2025-05-10T11:01:41Z</time>
      </trkpt>
      <trkpt lat="44.88455" lon="0.84438">
        <ele>99.8</ele>
        <time>2025-05-10T11:01:42Z</time>
      </trkpt>
      <trkpt lat="44.88457" lon="0.84438">
        <ele>100</ele>
        <time>2025-05-10T11:01:43Z</time>
      </trkpt>
      <trkpt lat="44.88458" lon="0.84438">
        <ele>100</ele>
        <time>2025-05-10T11:01:44Z</time>
      </trkpt>
      <trkpt lat="44.88459" lon="0.84437">
        <ele>100.4</ele>
        <time>2025-05-10T11:01:45Z</time>
      </trkpt>
      <trkpt lat="44.88461" lon="0.84438">
        <ele>100.6</ele>
        <time>2025-05-10T11:01:46Z</time>
      </trkpt>
      <trkpt lat="44.88462" lon="0.84438">
        <ele>100.8</ele>
        <time>2025-05-10T11:01:47Z</time>
      </trkpt>
      <trkpt lat="44.88463" lon="0.84438">
        <ele>101</ele>
        <time>2025-05-10T11:01:48Z</time>
      </trkpt>
      <trkpt lat="44.88464" lon="0.84437">
        <ele>101.2</ele>
        <time>2025-05-10T11:01:49Z</time>
      </trkpt>
      <trkpt lat="44.88466" lon="0.84438">
        <ele>101.4</ele>
        <time>2025-05-10T11:01:50Z</time>
      </trkpt>
      <trkpt lat="44.88467" lon="0.84438">
        <ele>101.6</ele>
        <time>2025-05-10T11:01:51Z</time>
      </trkpt>
      <trkpt lat="44.88468" lon="0.84438">
        <ele>101.8</ele>
        <time>2025-05-10T11:01:52Z</time>
      </trkpt>
      <trkpt lat="44.8847" lon="0.84438">
        <ele>102</ele>
        <time>2025-05-10T11:01:53Z</time>
      </trkpt>
      <trkpt lat="44.88471" lon="0.84438">
        <ele>102.4</ele>
        <time>2025-05-10T11:01:54Z</time>
      </trkpt>
      <trkpt lat="44.88472" lon="0.84438">
        <ele>102.4</ele>
        <time>2025-05-10T11:01:55Z</time>
      </trkpt>
      <trkpt lat="44.88474" lon="0.84438">
        <ele>102.6</ele>
        <time>2025-05-10T11:01:56Z</time>
      </trkpt>
      <trkpt lat="44.88475" lon="0.84437">
        <ele>102.8</ele>
        <time>2025-05-10T11:01:57Z</time>
      </trkpt>
      <trkpt lat="44.88476" lon="0.84438">
        <ele>103</ele>
        <time>2025-05-10T11:01:58Z</time>
      </trkpt>
      <trkpt lat="44.88478" lon="0.84438">
        <ele>103.4</ele>
        <time>2025-05-10T11:01:59Z</time>
      </trkpt>
      <trkpt lat="44.8848" lon="0.84437">
        <ele>103.4</ele>
        <time>2025-05-10T11:02:00Z</time>
      </trkpt>
      <trkpt lat="44.88481" lon="0.84437">
        <ele>103.6</ele>
        <time>2025-05-10T11:02:01Z</time>
      </trkpt>
      <trkpt lat="44.88482" lon="0.84436">
        <ele>103.8</ele>
        <time>2025-05-10T11:02:02Z</time>
      </trkpt>
      <trkpt lat="44.88484" lon="0.84436">
        <ele>103.8</ele>
        <time>2025-05-10T11:02:03Z</time>
      </trkpt>
      <trkpt lat="44.88485" lon="0.84436">
        <ele>104</ele>
        <time>2025-05-10T11:02:04Z</time>
      </trkpt>
      <trkpt lat="44.88487" lon="0.84436">
        <ele>104.2</ele>
        <time>2025-05-10T11:02:05Z</time>
      </trkpt>
      <trkpt lat="44.88488" lon="0.84435">
        <ele>104.4</ele>
        <time>2025-05-10T11:02:06Z</time>
      </trkpt>
      <trkpt lat="44.88489" lon="0.84436">
        <ele>104.6</ele>
        <time>2025-05-10T11:02:07Z</time>
      </trkpt>
      <trkpt lat="44.8849" lon="0.84436">
        <ele>104.8</ele>
        <time>2025-05-10T11:02:08Z</time>
      </trkpt>
      <trkpt lat="44.88492" lon="0.84435">
        <ele>105</ele>
        <time>2025-05-10T11:02:09Z</time>
      </trkpt>
      <trkpt lat="44.88493" lon="0.84435">
        <ele>105.2</ele>
        <time>2025-05-10T11:02:10Z</time>
      </trkpt>
      <trkpt lat="44.88495" lon="0.84435">
        <ele>105.4</ele>
        <time>2025-05-10T11:02:11Z</time>
      </trkpt>
      <trkpt lat="44.88497" lon="0.84435">
        <ele>105.8</ele>
        <time>2025-05-10T11:02:12Z</time>
      </trkpt>
      <trkpt lat="44.88498" lon="0.84435">
        <ele>106</ele>
        <time>2025-05-10T11:02:13Z</time>
      </trkpt>
      <trkpt lat="44.88499" lon="0.84436">
        <ele>106</ele>
        <time>2025-05-10T11:02:14Z</time>
      </trkpt>
      <trkpt lat="44.88501" lon="0.84436">
        <ele>106.2</ele>
        <time>2025-05-10T11:02:15Z</time>
      </trkpt>
      <trkpt lat="44.88502" lon="0.84437">
        <ele>106.4</ele>
        <time>2025-05-10T11:02:16Z</time>
      </trkpt>
      <trkpt lat="44.88504" lon="0.84437">
        <ele>106.6</ele>
        <time>2025-05-10T11:02:17Z</time>
      </trkpt>
      <trkpt lat="44.88506" lon="0.84437">
        <ele>106.6</ele>
        <time>2025-05-10T11:02:18Z</time>
      </trkpt>
      <trkpt lat="44.88507" lon="0.84437">
        <ele>107</ele>
        <time>2025-05-10T11:02:19Z</time>
      </trkpt>
      <trkpt lat="44.88508" lon="0.84437">
        <ele>107</ele>
        <time>2025-05-10T11:02:20Z</time>
      </trkpt>
      <trkpt lat="44.88509" lon="0.84437">
        <ele>107.2</ele>
        <time>2025-05-10T11:02:21Z</time>
      </trkpt>
      <trkpt lat="44.8851" lon="0.84437">
        <ele>107.4</ele>
        <time>2025-05-10T11:02:22Z</time>
      </trkpt>
      <trkpt lat="44.88512" lon="0.84438">
        <ele>107.6</ele>
        <time>2025-05-10T11:02:23Z</time>
      </trkpt>
      <trkpt lat="44.88513" lon="0.84438">
        <ele>107.8</ele>
        <time>2025-05-10T11:02:24Z</time>
      </trkpt>
      <trkpt lat="44.88515" lon="0.84438">
        <ele>108</ele>
        <time>2025-05-10T11:02:25Z</time>
      </trkpt>
      <trkpt lat="44.88516" lon="0.84438">
        <ele>108.2</ele>
        <time>2025-05-10T11:02:26Z</time>
      </trkpt>
      <trkpt lat="44.88518" lon="0.84438">
        <ele>108.2</ele>
        <time>2025-05-10T11:02:27Z</time>
      </trkpt>
      <trkpt lat="44.88519" lon="0.84437">
        <ele>108.4</ele>
        <time>2025-05-10T11:02:28Z</time>
      </trkpt>
      <trkpt lat="44.8852" lon="0.84437">
        <ele>108.6</ele>
        <time>2025-05-10T11:02:29Z</time>
      </trkpt>
      <trkpt lat="44.88522" lon="0.84437">
        <ele>108.8</ele>
        <time>2025-05-10T11:02:30Z</time>
      </trkpt>
      <trkpt lat="44.88523" lon="0.84437">
        <ele>109</ele>
        <time>2025-05-10T11:02:31Z</time>
      </trkpt>
      <trkpt lat="44.88525" lon="0.84437">
        <ele>109.2</ele>
        <time>2025-05-10T11:02:32Z</time>
      </trkpt>
      <trkpt lat="44.88527" lon="0.84437">
        <ele>109.2</ele>
        <time>2025-05-10T11:02:33Z</time>
      </trkpt>
      <trkpt lat="44.88528" lon="0.84437">
        <ele>109.4</ele>
        <time>2025-05-10T11:02:34Z</time>
      </trkpt>
      <trkpt lat="44.8853" lon="0.84437">
        <ele>109.6</ele>
        <time>2025-05-10T11:02:35Z</time>
      </trkpt>
      <trkpt lat="44.88532" lon="0.84438">
        <ele>109.8</ele>
        <time>2025-05-10T11:02:36Z</time>
      </trkpt>
      <trkpt lat="44.88534" lon="0.84438">
        <ele>110</ele>
        <time>2025-05-10T11:02:37Z</time>
      </trkpt>
      <trkpt lat="44.88535" lon="0.84439">
        <ele>110.2</ele>
        <time>2025-05-10T11:02:38Z</time>
      </trkpt>
      <trkpt lat="44.88537" lon="0.84439">
        <ele>110.4</ele>
        <time>2025-05-10T11:02:39Z</time>
      </trkpt>
      <trkpt lat="44.88538" lon="0.84439">
        <ele>110.6</ele>
        <time>2025-05-10T11:02:40Z</time>
      </trkpt>
      <trkpt lat="44.8854" lon="0.8444">
        <ele>110.6</ele>
        <time>2025-05-10T11:02:41Z</time>
      </trkpt>
      <trkpt lat="44.88542" lon="0.84441">
        <ele>110.8</ele>
        <time>2025-05-10T11:02:42Z</time>
      </trkpt>
      <trkpt lat="44.88544" lon="0.84441">
        <ele>111</ele>
        <time>2025-05-10T11:02:43Z</time>
      </trkpt>
      <trkpt lat="44.88546" lon="0.84442">
        <ele>111.2</ele>
        <time>2025-05-10T11:02:44Z</time>
      </trkpt>
      <trkpt lat="44.88547" lon="0.84443">
        <ele>111.4</ele>
        <time>2025-05-10T11:02:45Z</time>
      </trkpt>
      <trkpt lat="44.88549" lon="0.84445">
        <ele>111.8</ele>
        <time>2025-05-10T11:02:46Z</time>
      </trkpt>
      <trkpt lat="44.8855" lon="0.84447">
        <ele>111.8</ele>
        <time>2025-05-10T11:02:47Z</time>
      </trkpt>
      <trkpt lat="44.88552" lon="0.84449">
        <ele>111.8</ele>
        <time>2025-05-10T11:02:48Z</time>
      </trkpt>
      <trkpt lat="44.88553" lon="0.8445">
        <ele>112</ele>
        <time>2025-05-10T11:02:49Z</time>
      </trkpt>
      <trkpt lat="44.88555" lon="0.84452">
        <ele>112.2</ele>
        <time>2025-05-10T11:02:50Z</time>
      </trkpt>
      <trkpt lat="44.88557" lon="0.84453">
        <ele>112.4</ele>
        <time>2025-05-10T11:02:51Z</time>
      </trkpt>
      <trkpt lat="44.88559" lon="0.84455">
        <ele>112.6</ele>
        <time>2025-05-10T11:02:52Z</time>
      </trkpt>
      <trkpt lat="44.88561" lon="0.84457">
        <ele>112.8</ele>
        <time>2025-05-10T11:02:53Z</time>
      </trkpt>
      <trkpt lat="44.88563" lon="0.84458">
        <ele>112.8</ele>
        <time>2025-05-10T11:02:54Z</time>
      </trkpt>
      <trkpt lat="44.88565" lon="0.8446">
        <ele>113</ele>
        <time>2025-05-10T11:02:55Z</time>
      </trkpt>
      <trkpt lat="44.88567" lon="0.84462">
        <ele>113.2</ele>
        <time>2025-05-10T11:02:56Z</time>
      </trkpt>
      <trkpt lat="44.88569" lon="0.84464">
        <ele>113.4</ele>
        <time>2025-05-10T11:02:57Z</time>
      </trkpt>
      <trkpt lat="44.88571" lon="0.84466">
        <ele>113.4</ele>
        <time>2025-05-10T11:02:58Z</time>
      </trkpt>
      <trkpt lat="44.88572" lon="0.84469">
        <ele>113.6</ele>
        <time>2025-05-10T11:02:59Z</time>
      </trkpt>
      <trkpt lat="44.88575" lon="0.84471">
        <ele>113.6</ele>
        <time>2025-05-10T11:03:00Z</time>
      </trkpt>
      <trkpt lat="44.88577" lon="0.84473">
        <ele>113.8</ele>
        <time>2025-05-10T11:03:01Z</time>
      </trkpt>
      <trkpt lat="44.8858" lon="0.84475">
        <ele>113.8</ele>
        <time>2025-05-10T11:03:02Z</time>
      </trkpt>
      <trkpt lat="44.88582" lon="0.84478">
        <ele>113.8</ele>
        <time>2025-05-10T11:03:03Z</time>
      </trkpt>
      <trkpt lat="44.88584" lon="0.84481">
        <ele>113.8</ele>
        <time>2025-05-10T11:03:04Z</time>
      </trkpt>
      <trkpt lat="44.88586" lon="0.84484">
        <ele>114</ele>
        <time>2025-05-10T11:03:05Z</time>
      </trkpt>
      <trkpt lat="44.88589" lon="0.84487">
        <ele>114.2</ele>
        <time>2025-05-10T11:03:06Z</time>
      </trkpt>
      <trkpt lat="44.88591" lon="0.84491">
        <ele>114.2</ele>
        <time>2025-05-10T11:03:07Z</time>
      </trkpt>
      <trkpt lat="44.88594" lon="0.84495">
        <ele>114.2</ele>
        <time>2025-05-10T11:03:08Z</time>
      </trkpt>
      <trkpt lat="44.88596" lon="0.84499">
        <ele>114.2</ele>
        <time>2025-05-10T11:03:09Z</time>
      </trkpt>
      <trkpt lat="44.88598" lon="0.84504">
        <ele>114.2</ele>
        <time>2025-05-10T11:03:10Z</time>
      </trkpt>
      <trkpt lat="44.886" lon="0.84509">
        <ele>114</ele>
        <time>2025-05-10T11:03:11Z</time>
      </trkpt>
      <trkpt lat="44.88602" lon="0.84514">
        <ele>114</ele>
        <time>2025-05-10T11:03:12Z</time>
      </trkpt>
      <trkpt lat="44.88603" lon="0.84519">
        <ele>113.8</ele>
        <time>2025-05-10T11:03:13Z</time>
      </trkpt>
      <trkpt lat="44.88604" lon="0.84524">
        <ele>113.8</ele>
        <time>2025-05-10T11:03:14Z</time>
      </trkpt>
      <trkpt lat="44.88606" lon="0.84529">
        <ele>113.8</ele>
        <time>2025-05-10T11:03:15Z</time>
      </trkpt>
      <trkpt lat="44.88607" lon="0.84534">
        <ele>113.8</ele>
        <time>2025-05-10T11:03:16Z</time>
      </trkpt>
      <trkpt lat="44.88607" lon="0.8454">
        <ele>113.8</ele>
        <time>2025-05-10T11:03:17Z</time>
      </trkpt>
      <trkpt lat="44.88608" lon="0.84547">
        <ele>113.8</ele>
        <time>2025-05-10T11:03:18Z</time>
      </trkpt>
      <trkpt lat="44.88608" lon="0.84553">
        <ele>113.8</ele>
        <time>2025-05-10T11:03:19Z</time>
      </trkpt>
      <trkpt lat="44.88608" lon="0.84559">
        <ele>113.8</ele>
        <time>2025-05-10T11:03:20Z</time>
      </trkpt>
      <trkpt lat="44.88608" lon="0.84565">
        <ele>113.8</ele>
        <time>2025-05-10T11:03:21Z</time>
      </trkpt>
      <trkpt lat="44.88608" lon="0.84571">
        <ele>113.8</ele>
        <time>2025-05-10T11:03:22Z</time>
      </trkpt>
      <trkpt lat="44.88608" lon="0.84576">
        <ele>113.8</ele>
        <time>2025-05-10T11:03:23Z</time>
      </trkpt>
      <trkpt lat="44.88609" lon="0.84581">
        <ele>113.8</ele>
        <time>2025-05-10T11:03:24Z</time>
      </trkpt>
      <trkpt lat="44.88609" lon="0.84587">
        <ele>113.8</ele>
        <time>2025-05-10T11:03:25Z</time>
      </trkpt>
      <trkpt lat="44.8861" lon="0.84593">
        <ele>114</ele>
        <time>2025-05-10T11:03:26Z</time>
      </trkpt>
      <trkpt lat="44.88611" lon="0.84598">
        <ele>114</ele>
        <time>2025-05-10T11:03:27Z</time>
      </trkpt>
      <trkpt lat="44.88612" lon="0.84604">
        <ele>114.2</ele>
        <time>2025-05-10T11:03:28Z</time>
      </trkpt>
      <trkpt lat="44.88612" lon="0.84609">
        <ele>114.2</ele>
        <time>2025-05-10T11:03:29Z</time>
      </trkpt>
      <trkpt lat="44.88613" lon="0.84614">
        <ele>114.4</ele>
        <time>2025-05-10T11:03:30Z</time>
      </trkpt>
      <trkpt lat="44.88614" lon="0.84619">
        <ele>114.4</ele>
        <time>2025-05-10T11:03:31Z</time>
      </trkpt>
      <trkpt lat="44.88614" lon="0.84624">
        <ele>114.6</ele>
        <time>2025-05-10T11:03:32Z</time>
      </trkpt>
      <trkpt lat="44.88615" lon="0.84629">
        <ele>114.6</ele>
        <time>2025-05-10T11:03:33Z</time>
      </trkpt>
      <trkpt lat="44.88616" lon="0.84634">
        <ele>114.8</ele>
        <time>2025-05-10T11:03:34Z</time>
      </trkpt>
      <trkpt lat="44.88616" lon="0.84639">
        <ele>114.8</ele>
        <time>2025-05-10T11:03:35Z</time>
      </trkpt>
      <trkpt lat="44.88616" lon="0.84645">
        <ele>115</ele>
        <time>2025-05-10T11:03:36Z</time>
      </trkpt>
      <trkpt lat="44.88617" lon="0.8465">
        <ele>115</ele>
        <time>2025-05-10T11:03:37Z</time>
      </trkpt>
      <trkpt lat="44.88617" lon="0.84656">
        <ele>115.2</ele>
        <time>2025-05-10T11:03:38Z</time>
      </trkpt>
      <trkpt lat="44.88618" lon="0.84661">
        <ele>115.2</ele>
        <time>2025-05-10T11:03:39Z</time>
      </trkpt>
      <trkpt lat="44.88619" lon="0.84666">
        <ele>115.4</ele>
        <time>2025-05-10T11:03:40Z</time>
      </trkpt>
      <trkpt lat="44.8862" lon="0.84671">
        <ele>115.6</ele>
        <time>2025-05-10T11:03:41Z</time>
      </trkpt>
      <trkpt lat="44.88621" lon="0.84676">
        <ele>115.6</ele>
        <time>2025-05-10T11:03:42Z</time>
      </trkpt>
      <trkpt lat="44.88622" lon="0.84681">
        <ele>115.6</ele>
        <time>2025-05-10T11:03:43Z</time>
      </trkpt>
      <trkpt lat="44.88623" lon="0.84686">
        <ele>115.8</ele>
        <time>2025-05-10T11:03:44Z</time>
      </trkpt>
      <trkpt lat="44.88625" lon="0.84691">
        <ele>115.8</ele>
        <time>2025-05-10T11:03:45Z</time>
      </trkpt>
      <trkpt lat="44.88626" lon="0.84696">
        <ele>116</ele>
        <time>2025-05-10T11:03:46Z</time>
      </trkpt>
      <trkpt lat="44.88628" lon="0.847">
        <ele>116</ele>
        <time>2025-05-10T11:03:47Z</time>
      </trkpt>
      <trkpt lat="44.88629" lon="0.84705">
        <ele>116.2</ele>
        <time>2025-05-10T11:03:48Z</time>
      </trkpt>
      <trkpt lat="44.88631" lon="0.8471">
        <ele>116.2</ele>
        <time>2025-05-10T11:03:49Z</time>
      </trkpt>
      <trkpt lat="44.88632" lon="0.84714">
        <ele>116.4</ele>
        <time>2025-05-10T11:03:50Z</time>
      </trkpt>
      <trkpt lat="44.88634" lon="0.84719">
        <ele>116.4</ele>
        <time>2025-05-10T11:03:51Z</time>
      </trkpt>
      <trkpt lat="44.88635" lon="0.84724">
        <ele>116.6</ele>
        <time>2025-05-10T11:03:52Z</time>
      </trkpt>
      <trkpt lat="44.88637" lon="0.84728">
        <ele>116.6</ele>
        <time>2025-05-10T11:03:53Z</time>
      </trkpt>
      <trkpt lat="44.88638" lon="0.84733">
        <ele>116.8</ele>
        <time>2025-05-10T11:03:54Z</time>
      </trkpt>
      <trkpt lat="44.8864" lon="0.84738">
        <ele>116.8</ele>
        <time>2025-05-10T11:03:55Z</time>
      </trkpt>
      <trkpt lat="44.88642" lon="0.84742">
        <ele>116.8</ele>
        <time>2025-05-10T11:03:56Z</time>
      </trkpt>
      <trkpt lat="44.88643" lon="0.84746">
        <ele>117</ele>
        <time>2025-05-10T11:03:57Z</time>
      </trkpt>
      <trkpt lat="44.88644" lon="0.84751">
        <ele>117</ele>
        <time>2025-05-10T11:03:58Z</time>
      </trkpt>
      <trkpt lat="44.88646" lon="0.84756">
        <ele>117.2</ele>
        <time>2025-05-10T11:03:59Z</time>
      </trkpt>
      <trkpt lat="44.88647" lon="0.8476">
        <ele>117.2</ele>
        <time>2025-05-10T11:04:00Z</time>
      </trkpt>
      <trkpt lat="44.88649" lon="0.84765">
        <ele>117.2</ele>
        <time>2025-05-10T11:04:01Z</time>
      </trkpt>
      <trkpt lat="44.8865" lon="0.8477">
        <ele>117.4</ele>
        <time>2025-05-10T11:04:02Z</time>
      </trkpt>
      <trkpt lat="44.88652" lon="0.84774">
        <ele>117.4</ele>
        <time>2025-05-10T11:04:03Z</time>
      </trkpt>
      <trkpt lat="44.88653" lon="0.84778">
        <ele>117.6</ele>
        <time>2025-05-10T11:04:04Z</time>
      </trkpt>
      <trkpt lat="44.88654" lon="0.84782">
        <ele>117.8</ele>
        <time>2025-05-10T11:04:05Z</time>
      </trkpt>
      <trkpt lat="44.88656" lon="0.84786">
        <ele>117.8</ele>
        <time>2025-05-10T11:04:06Z</time>
      </trkpt>
      <trkpt lat="44.88657" lon="0.8479">
        <ele>118</ele>
        <time>2025-05-10T11:04:07Z</time>
      </trkpt>
      <trkpt lat="44.88659" lon="0.84794">
        <ele>118.2</ele>
        <time>2025-05-10T11:04:08Z</time>
      </trkpt>
      <trkpt lat="44.8866" lon="0.84798">
        <ele>118.4</ele>
        <time>2025-05-10T11:04:09Z</time>
      </trkpt>
      <trkpt lat="44.88662" lon="0.84802">
        <ele>118.6</ele>
        <time>2025-05-10T11:04:10Z</time>
      </trkpt>
      <trkpt lat="44.88664" lon="0.84806">
        <ele>118.8</ele>
        <time>2025-05-10T11:04:11Z</time>
      </trkpt>
      <trkpt lat="44.88665" lon="0.8481">
        <ele>119</ele>
        <time>2025-05-10T11:04:12Z</time>
      </trkpt>
      <trkpt lat="44.88667" lon="0.84815">
        <ele>119.2</ele>
        <time>2025-05-10T11:04:13Z</time>
      </trkpt>
      <trkpt lat="44.88669" lon="0.84818">
        <ele>119.4</ele>
        <time>2025-05-10T11:04:14Z</time>
      </trkpt>
      <trkpt lat="44.88671" lon="0.84821">
        <ele>119.4</ele>
        <time>2025-05-10T11:04:15Z</time>
      </trkpt>
      <trkpt lat="44.88673" lon="0.84825">
        <ele>119.8</ele>
        <time>2025-05-10T11:04:16Z</time>
      </trkpt>
      <trkpt lat="44.88675" lon="0.84828">
        <ele>119.8</ele>
        <time>2025-05-10T11:04:17Z</time>
      </trkpt>
      <trkpt lat="44.88677" lon="0.84831">
        <ele>120</ele>
        <time>2025-05-10T11:04:18Z</time>
      </trkpt>
      <trkpt lat="44.8868" lon="0.84835">
        <ele>120.2</ele>
        <time>2025-05-10T11:04:19Z</time>
      </trkpt>
      <trkpt lat="44.88682" lon="0.84838">
        <ele>120.2</ele>
        <time>2025-05-10T11:04:20Z</time>
      </trkpt>
      <trkpt lat="44.88684" lon="0.8484">
        <ele>120.4</ele>
        <time>2025-05-10T11:04:21Z</time>
      </trkpt>
      <trkpt lat="44.88686" lon="0.84842">
        <ele>120.6</ele>
        <time>2025-05-10T11:04:22Z</time>
      </trkpt>
      <trkpt lat="44.88688" lon="0.84844">
        <ele>120.8</ele>
        <time>2025-05-10T11:04:23Z</time>
      </trkpt>
      <trkpt lat="44.8869" lon="0.84846">
        <ele>121</ele>
        <time>2025-05-10T11:04:24Z</time>
      </trkpt>
      <trkpt lat="44.88692" lon="0.84847">
        <ele>121.2</ele>
        <time>2025-05-10T11:04:25Z</time>
      </trkpt>
      <trkpt lat="44.88694" lon="0.84848">
        <ele>121.6</ele>
        <time>2025-05-10T11:04:26Z</time>
      </trkpt>
      <trkpt lat="44.88695" lon="0.84848">
        <ele>121.8</ele>
        <time>2025-05-10T11:04:27Z</time>
      </trkpt>
      <trkpt lat="44.88697" lon="0.84847">
        <ele>122</ele>
        <time>2025-05-10T11:04:28Z</time>
      </trkpt>
      <trkpt lat="44.88699" lon="0.84848">
        <ele>122.2</ele>
        <time>2025-05-10T11:04:29Z</time>
      </trkpt>
      <trkpt lat="44.88701" lon="0.84849">
        <ele>122.4</ele>
        <time>2025-05-10T11:04:30Z</time>
      </trkpt>
      <trkpt lat="44.88703" lon="0.8485">
        <ele>122.6</ele>
        <time>2025-05-10T11:04:31Z</time>
      </trkpt>
      <trkpt lat="44.88704" lon="0.8485">
        <ele>122.8</ele>
        <time>2025-05-10T11:04:32Z</time>
      </trkpt>
      <trkpt lat="44.88706" lon="0.84851">
        <ele>123</ele>
        <time>2025-05-10T11:04:33Z</time>
      </trkpt>
      <trkpt lat="44.88708" lon="0.84852">
        <ele>123.2</ele>
        <time>2025-05-10T11:04:34Z</time>
      </trkpt>
      <trkpt lat="44.8871" lon="0.84853">
        <ele>123.4</ele>
        <time>2025-05-10T11:04:35Z</time>
      </trkpt>
      <trkpt lat="44.88711" lon="0.84853">
        <ele>123.6</ele>
        <time>2025-05-10T11:04:36Z</time>
      </trkpt>
      <trkpt lat="44.88712" lon="0.84854">
        <ele>123.8</ele>
        <time>2025-05-10T11:04:37Z</time>
      </trkpt>
      <trkpt lat="44.88714" lon="0.84855">
        <ele>124</ele>
        <time>2025-05-10T11:04:38Z</time>
      </trkpt>
      <trkpt lat="44.88716" lon="0.84855">
        <ele>124</ele>
        <time>2025-05-10T11:04:39Z</time>
      </trkpt>
      <trkpt lat="44.88717" lon="0.84856">
        <ele>124.2</ele>
        <time>2025-05-10T11:04:40Z</time>
      </trkpt>
      <trkpt lat="44.88719" lon="0.84857">
        <ele>124.4</ele>
        <time>2025-05-10T11:04:41Z</time>
      </trkpt>
      <trkpt lat="44.8872" lon="0.84859">
        <ele>124.6</ele>
        <time>2025-05-10T11:04:42Z</time>
      </trkpt>
      <trkpt lat="44.88721" lon="0.8486">
        <ele>125</ele>
        <time>2025-05-10T11:04:43Z</time>
      </trkpt>
      <trkpt lat="44.88722" lon="0.84861">
        <ele>125.2</ele>
        <time>2025-05-10T11:04:44Z</time>
      </trkpt>
      <trkpt lat="44.88724" lon="0.84862">
        <ele>125.4</ele>
        <time>2025-05-10T11:04:45Z</time>
      </trkpt>
      <trkpt lat="44.88725" lon="0.84863">
        <ele>125.4</ele>
        <time>2025-05-10T11:04:46Z</time>
      </trkpt>
      <trkpt lat="44.88726" lon="0.84865">
        <ele>125.6</ele>
        <time>2025-05-10T11:04:47Z</time>
      </trkpt>
      <trkpt lat="44.88728" lon="0.84866">
        <ele>125.8</ele>
        <time>2025-05-10T11:04:48Z</time>
      </trkpt>
      <trkpt lat="44.88729" lon="0.84867">
        <ele>125.8</ele>
        <time>2025-05-10T11:04:49Z</time>
      </trkpt>
      <trkpt lat="44.8873" lon="0.84869">
        <ele>126.2</ele>
        <time>2025-05-10T11:04:50Z</time>
      </trkpt>
      <trkpt lat="44.88732" lon="0.8487">
        <ele>126.4</ele>
        <time>2025-05-10T11:04:51Z</time>
      </trkpt>
      <trkpt lat="44.88733" lon="0.84872">
        <ele>126.6</ele>
        <time>2025-05-10T11:04:52Z</time>
      </trkpt>
      <trkpt lat="44.88734" lon="0.84872">
        <ele>126.8</ele>
        <time>2025-05-10T11:04:53Z</time>
      </trkpt>
      <trkpt lat="44.88735" lon="0.84874">
        <ele>127</ele>
        <time>2025-05-10T11:04:54Z</time>
      </trkpt>
      <trkpt lat="44.88736" lon="0.84874">
        <ele>127.2</ele>
        <time>2025-05-10T11:04:55Z</time>
      </trkpt>
      <trkpt lat="44.88737" lon="0.84875">
        <ele>127.4</ele>
        <time>2025-05-10T11:04:56Z</time>
      </trkpt>
      <trkpt lat="44.88739" lon="0.84876">
        <ele>127.6</ele>
        <time>2025-05-10T11:04:57Z</time>
      </trkpt>
      <trkpt lat="44.8874" lon="0.84878">
        <ele>128</ele>
        <time>2025-05-10T11:04:58Z</time>
      </trkpt>
      <trkpt lat="44.88741" lon="0.8488">
        <ele>128</ele>
        <time>2025-05-10T11:04:59Z</time>
      </trkpt>
      <trkpt lat="44.88742" lon="0.84881">
        <ele>128.2</ele>
        <time>2025-05-10T11:05:00Z</time>
      </trkpt>
      <trkpt lat="44.88743" lon="0.84883">
        <ele>128.4</ele>
        <time>2025-05-10T11:05:01Z</time>
      </trkpt>
      <trkpt lat="44.88744" lon="0.84885">
        <ele>128.6</ele>
        <time>2025-05-10T11:05:02Z</time>
      </trkpt>
      <trkpt lat="44.88745" lon="0.84887">
        <ele>128.8</ele>
        <time>2025-05-10T11:05:03Z</time>
      </trkpt>
      <trkpt lat="44.88746" lon="0.84888">
        <ele>129</ele>
        <time>2025-05-10T11:05:04Z</time>
      </trkpt>
      <trkpt lat="44.88747" lon="0.8489">
        <ele>129.2</ele>
        <time>2025-05-10T11:05:05Z</time>
      </trkpt>
      <trkpt lat="44.88748" lon="0.84892">
        <ele>129.6</ele>
        <time>2025-05-10T11:05:06Z</time>
      </trkpt>
      <trkpt lat="44.88748" lon="0.84894">
        <ele>129.6</ele>
        <time>2025-05-10T11:05:07Z</time>
      </trkpt>
      <trkpt lat="44.88749" lon="0.84896">
        <ele>129.8</ele>
        <time>2025-05-10T11:05:08Z</time>
      </trkpt>
      <trkpt lat="44.8875" lon="0.84897">
        <ele>130</ele>
        <time>2025-05-10T11:05:09Z</time>
      </trkpt>
      <trkpt lat="44.88751" lon="0.84899">
        <ele>130.2</ele>
        <time>2025-05-10T11:05:10Z</time>
      </trkpt>
      <trkpt lat="44.88752" lon="0.84901">
        <ele>130.4</ele>
        <time>2025-05-10T11:05:11Z</time>
      </trkpt>
      <trkpt lat="44.88753" lon="0.84902">
        <ele>130.4</ele>
        <time>2025-05-10T11:05:12Z</time>
      </trkpt>
      <trkpt lat="44.88754" lon="0.84904">
        <ele>130.6</ele>
        <time>2025-05-10T11:05:13Z</time>
      </trkpt>
      <trkpt lat="44.88755" lon="0.84905">
        <ele>130.8</ele>
        <time>2025-05-10T11:05:14Z</time>
      </trkpt>
      <trkpt lat="44.88756" lon="0.84907">
        <ele>131</ele>
        <time>2025-05-10T11:05:15Z</time>
      </trkpt>
      <trkpt lat="44.88757" lon="0.84908">
        <ele>131.2</ele>
        <time>2025-05-10T11:05:16Z</time>
      </trkpt>
      <trkpt lat="44.88758" lon="0.84909">
        <ele>131.4</ele>
        <time>2025-05-10T11:05:17Z</time>
      </trkpt>
      <trkpt lat="44.8876" lon="0.84911">
        <ele>131.4</ele>
        <time>2025-05-10T11:05:18Z</time>
      </trkpt>
      <trkpt lat="44.88761" lon="0.84912">
        <ele>131.6</ele>
        <time>2025-05-10T11:05:19Z</time>
      </trkpt>
      <trkpt lat="44.88762" lon="0.84913">
        <ele>131.8</ele>
        <time>2025-05-10T11:05:20Z</time>
      </trkpt>
      <trkpt lat="44.88763" lon="0.84915">
        <ele>132</ele>
        <time>2025-05-10T11:05:21Z</time>
      </trkpt>
      <trkpt lat="44.88765" lon="0.84916">
        <ele>132.2</ele>
        <time>2025-05-10T11:05:22Z</time>
      </trkpt>
      <trkpt lat="44.88766" lon="0.84917">
        <ele>132.2</ele>
        <time>2025-05-10T11:05:23Z</time>
      </trkpt>
      <trkpt lat="44.88767" lon="0.84919">
        <ele>132.4</ele>
        <time>2025-05-10T11:05:24Z</time>
      </trkpt>
      <trkpt lat="44.88768" lon="0.8492">
        <ele>132.6</ele>
        <time>2025-05-10T11:05:25Z</time>
      </trkpt>
      <trkpt lat="44.88769" lon="0.84921">
        <ele>132.6</ele>
        <time>2025-05-10T11:05:26Z</time>
      </trkpt>
      <trkpt lat="44.8877" lon="0.84922">
        <ele>132.8</ele>
        <time>2025-05-10T11:05:27Z</time>
      </trkpt>
      <trkpt lat="44.88772" lon="0.84924">
        <ele>133</ele>
        <time>2025-05-10T11:05:28Z</time>
      </trkpt>
      <trkpt lat="44.88773" lon="0.84926">
        <ele>133.2</ele>
        <time>2025-05-10T11:05:29Z</time>
      </trkpt>
      <trkpt lat="44.88775" lon="0.84927">
        <ele>133.4</ele>
        <time>2025-05-10T11:05:30Z</time>
      </trkpt>
      <trkpt lat="44.88777" lon="0.84929">
        <ele>133.6</ele>
        <time>2025-05-10T11:05:31Z</time>
      </trkpt>
      <trkpt lat="44.88778" lon="0.84931">
        <ele>133.8</ele>
        <time>2025-05-10T11:05:32Z</time>
      </trkpt>
      <trkpt lat="44.88779" lon="0.84933">
        <ele>134</ele>
        <time>2025-05-10T11:05:33Z</time>
      </trkpt>
      <trkpt lat="44.88781" lon="0.84934">
        <ele>134</ele>
        <time>2025-05-10T11:05:34Z</time>
      </trkpt>
      <trkpt lat="44.88782" lon="0.84936">
        <ele>134.2</ele>
        <time>2025-05-10T11:05:35Z</time>
      </trkpt>
      <trkpt lat="44.88784" lon="0.84938">
        <ele>134.4</ele>
        <time>2025-05-10T11:05:36Z</time>
      </trkpt>
      <trkpt lat="44.88785" lon="0.8494">
        <ele>134.6</ele>
        <time>2025-05-10T11:05:37Z</time>
      </trkpt>
      <trkpt lat="44.88786" lon="0.84942">
        <ele>134.8</ele>
        <time>2025-05-10T11:05:38Z</time>
      </trkpt>
      <trkpt lat="44.88788" lon="0.84944">
        <ele>135</ele>
        <time>2025-05-10T11:05:39Z</time>
      </trkpt>
      <trkpt lat="44.88789" lon="0.84945">
        <ele>135.2</ele>
        <time>2025-05-10T11:05:40Z</time>
      </trkpt>
      <trkpt lat="44.8879" lon="0.84947">
        <ele>135.4</ele>
        <time>2025-05-10T11:05:41Z</time>
      </trkpt>
      <trkpt lat="44.88792" lon="0.84949">
        <ele>135.4</ele>
        <time>2025-05-10T11:05:42Z</time>
      </trkpt>
      <trkpt lat="44.88793" lon="0.8495">
        <ele>135.4</ele>
        <time>2025-05-10T11:05:43Z</time>
      </trkpt>
      <trkpt lat="44.88795" lon="0.84951">
        <ele>135.8</ele>
        <time>2025-05-10T11:05:44Z</time>
      </trkpt>
      <trkpt lat="44.88796" lon="0.84953">
        <ele>135.8</ele>
        <time>2025-05-10T11:05:45Z</time>
      </trkpt>
      <trkpt lat="44.88797" lon="0.84955">
        <ele>136.2</ele>
        <time>2025-05-10T11:05:46Z</time>
      </trkpt>
      <trkpt lat="44.88799" lon="0.84957">
        <ele>136.4</ele>
        <time>2025-05-10T11:05:47Z</time>
      </trkpt>
      <trkpt lat="44.888" lon="0.84958">
        <ele>136.6</ele>
        <time>2025-05-10T11:05:48Z</time>
      </trkpt>
      <trkpt lat="44.88802" lon="0.8496">
        <ele>136.8</ele>
        <time>2025-05-10T11:05:49Z</time>
      </trkpt>
      <trkpt lat="44.88804" lon="0.84962">
        <ele>136.8</ele>
        <time>2025-05-10T11:05:50Z</time>
      </trkpt>
      <trkpt lat="44.88805" lon="0.84963">
        <ele>137.2</ele>
        <time>2025-05-10T11:05:51Z</time>
      </trkpt>
      <trkpt lat="44.88807" lon="0.84964">
        <ele>137.4</ele>
        <time>2025-05-10T11:05:52Z</time>
      </trkpt>
      <trkpt lat="44.88808" lon="0.84964">
        <ele>137.6</ele>
        <time>2025-05-10T11:05:53Z</time>
      </trkpt>
      <trkpt lat="44.88809" lon="0.84965">
        <ele>137.8</ele>
        <time>2025-05-10T11:05:54Z</time>
      </trkpt>
      <trkpt lat="44.88811" lon="0.84966">
        <ele>138</ele>
        <time>2025-05-10T11:05:55Z</time>
      </trkpt>
      <trkpt lat="44.88813" lon="0.84967">
        <ele>138</ele>
        <time>2025-05-10T11:05:56Z</time>
      </trkpt>
      <trkpt lat="44.88814" lon="0.84968">
        <ele>138.2</ele>
        <time>2025-05-10T11:05:57Z</time>
      </trkpt>
      <trkpt lat="44.88816" lon="0.84969">
        <ele>138.4</ele>
        <time>2025-05-10T11:05:58Z</time>
      </trkpt>
      <trkpt lat="44.88817" lon="0.84969">
        <ele>138.4</ele>
        <time>2025-05-10T11:05:59Z</time>
      </trkpt>
      <trkpt lat="44.88818" lon="0.8497">
        <ele>138.6</ele>
        <time>2025-05-10T11:06:00Z</time>
      </trkpt>
      <trkpt lat="44.8882" lon="0.8497">
        <ele>139</ele>
        <time>2025-05-10T11:06:01Z</time>
      </trkpt>
      <trkpt lat="44.88821" lon="0.84971">
        <ele>139.2</ele>
        <time>2025-05-10T11:06:02Z</time>
      </trkpt>
      <trkpt lat="44.88823" lon="0.84971">
        <ele>139.4</ele>
        <time>2025-05-10T11:06:03Z</time>
      </trkpt>
      <trkpt lat="44.88824" lon="0.84971">
        <ele>139.6</ele>
        <time>2025-05-10T11:06:04Z</time>
      </trkpt>
      <trkpt lat="44.88825" lon="0.84971">
        <ele>139.8</ele>
        <time>2025-05-10T11:06:05Z</time>
      </trkpt>
      <trkpt lat="44.88826" lon="0.8497">
        <ele>139.8</ele>
        <time>2025-05-10T11:06:06Z</time>
      </trkpt>
      <trkpt lat="44.88828" lon="0.84969">
        <ele>140</ele>
        <time>2025-05-10T11:06:07Z</time>
      </trkpt>
      <trkpt lat="44.88829" lon="0.84969">
        <ele>140.2</ele>
        <time>2025-05-10T11:06:08Z</time>
      </trkpt>
      <trkpt lat="44.88831" lon="0.84968">
        <ele>140.4</ele>
        <time>2025-05-10T11:06:09Z</time>
      </trkpt>
      <trkpt lat="44.88833" lon="0.84968">
        <ele>140.6</ele>
        <time>2025-05-10T11:06:10Z</time>
      </trkpt>
      <trkpt lat="44.88834" lon="0.84969">
        <ele>140.6</ele>
        <time>2025-05-10T11:06:11Z</time>
      </trkpt>
      <trkpt lat="44.88835" lon="0.84969">
        <ele>140.8</ele>
        <time>2025-05-10T11:06:12Z</time>
      </trkpt>
      <trkpt lat="44.88837" lon="0.84969">
        <ele>141</ele>
        <time>2025-05-10T11:06:13Z</time>
      </trkpt>
      <trkpt lat="44.88839" lon="0.84968">
        <ele>141.2</ele>
        <time>2025-05-10T11:06:14Z</time>
      </trkpt>
      <trkpt lat="44.88841" lon="0.84969">
        <ele>141.4</ele>
        <time>2025-05-10T11:06:15Z</time>
      </trkpt>
      <trkpt lat="44.88843" lon="0.84969">
        <ele>141.4</ele>
        <time>2025-05-10T11:06:16Z</time>
      </trkpt>
      <trkpt lat="44.88845" lon="0.84969">
        <ele>141.6</ele>
        <time>2025-05-10T11:06:17Z</time>
      </trkpt>
      <trkpt lat="44.88847" lon="0.84969">
        <ele>141.6</ele>
        <time>2025-05-10T11:06:18Z</time>
      </trkpt>
      <trkpt lat="44.88849" lon="0.84969">
        <ele>141.8</ele>
        <time>2025-05-10T11:06:19Z</time>
      </trkpt>
      <trkpt lat="44.8885" lon="0.84969">
        <ele>141.8</ele>
        <time>2025-05-10T11:06:20Z</time>
      </trkpt>
      <trkpt lat="44.88852" lon="0.84969">
        <ele>142</ele>
        <time>2025-05-10T11:06:21Z</time>
      </trkpt>
      <trkpt lat="44.88854" lon="0.84969">
        <ele>142.2</ele>
        <time>2025-05-10T11:06:22Z</time>
      </trkpt>
      <trkpt lat="44.88855" lon="0.84969">
        <ele>142.4</ele>
        <time>2025-05-10T11:06:23Z</time>
      </trkpt>
      <trkpt lat="44.88857" lon="0.84969">
        <ele>142.6</ele>
        <time>2025-05-10T11:06:24Z</time>
      </trkpt>
      <trkpt lat="44.88859" lon="0.84969">
        <ele>142.8</ele>
        <time>2025-05-10T11:06:25Z</time>
      </trkpt>
      <trkpt lat="44.88861" lon="0.8497">
        <ele>142.8</ele>
        <time>2025-05-10T11:06:26Z</time>
      </trkpt>
      <trkpt lat="44.88863" lon="0.8497">
        <ele>143.2</ele>
        <time>2025-05-10T11:06:27Z</time>
      </trkpt>
      <trkpt lat="44.88864" lon="0.8497">
        <ele>143.2</ele>
        <time>2025-05-10T11:06:28Z</time>
      </trkpt>
      <trkpt lat="44.88866" lon="0.84971">
        <ele>143.4</ele>
        <time>2025-05-10T11:06:29Z</time>
      </trkpt>
      <trkpt lat="44.88868" lon="0.84971">
        <ele>143.6</ele>
        <time>2025-05-10T11:06:30Z</time>
      </trkpt>
      <trkpt lat="44.8887" lon="0.84971">
        <ele>143.8</ele>
        <time>2025-05-10T11:06:31Z</time>
      </trkpt>
      <trkpt lat="44.88872" lon="0.84972">
        <ele>144</ele>
        <time>2025-05-10T11:06:32Z</time>
      </trkpt>
      <trkpt lat="44.88874" lon="0.84973">
        <ele>144</ele>
        <time>2025-05-10T11:06:33Z</time>
      </trkpt>
      <trkpt lat="44.88876" lon="0.84974">
        <ele>144.4</ele>
        <time>2025-05-10T11:06:34Z</time>
      </trkpt>
      <trkpt lat="44.88878" lon="0.84975">
        <ele>144.4</ele>
        <time>2025-05-10T11:06:35Z</time>
      </trkpt>
      <trkpt lat="44.88881" lon="0.84976">
        <ele>144.6</ele>
        <time>2025-05-10T11:06:36Z</time>
      </trkpt>
      <trkpt lat="44.88883" lon="0.84976">
        <ele>144.6</ele>
        <time>2025-05-10T11:06:37Z</time>
      </trkpt>
      <trkpt lat="44.88884" lon="0.84977">
        <ele>144.8</ele>
        <time>2025-05-10T11:06:38Z</time>
      </trkpt>
      <trkpt lat="44.88887" lon="0.84978">
        <ele>144.8</ele>
        <time>2025-05-10T11:06:39Z</time>
      </trkpt>
      <trkpt lat="44.88888" lon="0.84979">
        <ele>145</ele>
        <time>2025-05-10T11:06:40Z</time>
      </trkpt>
      <trkpt lat="44.8889" lon="0.84979">
        <ele>145</ele>
        <time>2025-05-10T11:06:41Z</time>
      </trkpt>
      <trkpt lat="44.88892" lon="0.8498">
        <ele>145</ele>
        <time>2025-05-10T11:06:42Z</time>
      </trkpt>
      <trkpt lat="44.88894" lon="0.8498">
        <ele>145</ele>
        <time>2025-05-10T11:06:43Z</time>
      </trkpt>
      <trkpt lat="44.88896" lon="0.8498">
        <ele>145.2</ele>
        <time>2025-05-10T11:06:44Z</time>
      </trkpt>
      <trkpt lat="44.88898" lon="0.8498">
        <ele>145.2</ele>
        <time>2025-05-10T11:06:45Z</time>
      </trkpt>
      <trkpt lat="44.889" lon="0.8498">
        <ele>145.4</ele>
        <time>2025-05-10T11:06:46Z</time>
      </trkpt>
      <trkpt lat="44.88903" lon="0.8498">
        <ele>145.4</ele>
        <time>2025-05-10T11:06:47Z</time>
      </trkpt>
      <trkpt lat="44.88905" lon="0.84979">
        <ele>145.4</ele>
        <time>2025-05-10T11:06:48Z</time>
      </trkpt>
      <trkpt lat="44.88908" lon="0.84979">
        <ele>145.4</ele>
        <time>2025-05-10T11:06:49Z</time>
      </trkpt>
      <trkpt lat="44.88911" lon="0.84979">
        <ele>145.6</ele>
        <time>2025-05-10T11:06:50Z</time>
      </trkpt>
      <trkpt lat="44.88914" lon="0.84978">
        <ele>145.6</ele>
        <time>2025-05-10T11:06:51Z</time>
      </trkpt>
      <trkpt lat="44.88917" lon="0.84978">
        <ele>145.6</ele>
        <time>2025-05-10T11:06:52Z</time>
      </trkpt>
      <trkpt lat="44.8892" lon="0.84979">
        <ele>145.6</ele>
        <time>2025-05-10T11:06:53Z</time>
      </trkpt>
      <trkpt lat="44.88924" lon="0.84979">
        <ele>145.6</ele>
        <time>2025-05-10T11:06:54Z</time>
      </trkpt>
      <trkpt lat="44.88927" lon="0.84979">
        <ele>145.6</ele>
        <time>2025-05-10T11:06:55Z</time>
      </trkpt>
      <trkpt lat="44.88931" lon="0.84979">
        <ele>145.6</ele>
        <time>2025-05-10T11:06:56Z</time>
      </trkpt>
      <trkpt lat="44.88935" lon="0.84979">
        <ele>145.6</ele>
        <time>2025-05-10T11:06:57Z</time>
      </trkpt>
      <trkpt lat="44.88939" lon="0.84979">
        <ele>145.6</ele>
        <time>2025-05-10T11:06:58Z</time>
      </trkpt>
      <trkpt lat="44.88943" lon="0.84979">
        <ele>145.6</ele>
        <time>2025-05-10T11:06:59Z</time>
      </trkpt>
      <trkpt lat="44.88948" lon="0.84979">
        <ele>145.6</ele>
        <time>2025-05-10T11:07:00Z</time>
      </trkpt>
      <trkpt lat="44.88952" lon="0.8498">
        <ele>145.6</ele>
        <time>2025-05-10T11:07:01Z</time>
      </trkpt>
      <trkpt lat="44.88956" lon="0.8498">
        <ele>145.4</ele>
        <time>2025-05-10T11:07:02Z</time>
      </trkpt>
      <trkpt lat="44.88961" lon="0.84981">
        <ele>145.2</ele>
        <time>2025-05-10T11:07:03Z</time>
      </trkpt>
      <trkpt lat="44.88966" lon="0.84982">
        <ele>145</ele>
        <time>2025-05-10T11:07:04Z</time>
      </trkpt>
      <trkpt lat="44.88971" lon="0.84983">
        <ele>144.8</ele>
        <time>2025-05-10T11:07:05Z</time>
      </trkpt>
      <trkpt lat="44.88976" lon="0.84984">
        <ele>144.6</ele>
        <time>2025-05-10T11:07:06Z</time>
      </trkpt>
      <trkpt lat="44.88981" lon="0.84985">
        <ele>144.2</ele>
        <time>2025-05-10T11:07:07Z</time>
      </trkpt>
      <trkpt lat="44.88987" lon="0.84986">
        <ele>144</ele>
        <time>2025-05-10T11:07:08Z</time>
      </trkpt>
      <trkpt lat="44.88992" lon="0.84987">
        <ele>144</ele>
        <time>2025-05-10T11:07:09Z</time>
      </trkpt>
      <trkpt lat="44.88997" lon="0.84988">
        <ele>143.8</ele>
        <time>2025-05-10T11:07:10Z</time>
      </trkpt>
      <trkpt lat="44.89002" lon="0.84989">
        <ele>143.8</ele>
        <time>2025-05-10T11:07:11Z</time>
      </trkpt>
      <trkpt lat="44.89006" lon="0.84991">
        <ele>143.6</ele>
        <time>2025-05-10T11:07:12Z</time>
      </trkpt>
      <trkpt lat="44.89011" lon="0.84994">
        <ele>143.6</ele>
        <time>2025-05-10T11:07:13Z</time>
      </trkpt>
      <trkpt lat="44.89017" lon="0.84997">
        <ele>143.6</ele>
        <time>2025-05-10T11:07:14Z</time>
      </trkpt>
      <trkpt lat="44.89021" lon="0.85001">
        <ele>143.6</ele>
        <time>2025-05-10T11:07:15Z</time>
      </trkpt>
      <trkpt lat="44.89026" lon="0.85006">
        <ele>143.6</ele>
        <time>2025-05-10T11:07:16Z</time>
      </trkpt>
      <trkpt lat="44.8903" lon="0.8501">
        <ele>143.6</ele>
        <time>2025-05-10T11:07:17Z</time>
      </trkpt>
      <trkpt lat="44.89035" lon="0.85015">
        <ele>143.6</ele>
        <time>2025-05-10T11:07:18Z</time>
      </trkpt>
      <trkpt lat="44.89039" lon="0.85019">
        <ele>143.6</ele>
        <time>2025-05-10T11:07:19Z</time>
      </trkpt>
      <trkpt lat="44.89043" lon="0.85023">
        <ele>143.8</ele>
        <time>2025-05-10T11:07:20Z</time>
      </trkpt>
      <trkpt lat="44.89047" lon="0.85028">
        <ele>144</ele>
        <time>2025-05-10T11:07:21Z</time>
      </trkpt>
      <trkpt lat="44.89051" lon="0.85033">
        <ele>144.2</ele>
        <time>2025-05-10T11:07:22Z</time>
      </trkpt>
      <trkpt lat="44.89054" lon="0.85039">
        <ele>144.2</ele>
        <time>2025-05-10T11:07:23Z</time>
      </trkpt>
      <trkpt lat="44.89058" lon="0.85045">
        <ele>144.2</ele>
        <time>2025-05-10T11:07:24Z</time>
      </trkpt>
      <trkpt lat="44.89061" lon="0.85053">
        <ele>144.2</ele>
        <time>2025-05-10T11:07:25Z</time>
      </trkpt>
      <trkpt lat="44.89065" lon="0.85061">
        <ele>144.2</ele>
        <time>2025-05-10T11:07:26Z</time>
      </trkpt>
      <trkpt lat="44.89068" lon="0.8507">
        <ele>143.8</ele>
        <time>2025-05-10T11:07:27Z</time>
      </trkpt>
      <trkpt lat="44.89072" lon="0.85079">
        <ele>143</ele>
        <time>2025-05-10T11:07:28Z</time>
      </trkpt>
      <trkpt lat="44.89076" lon="0.85089">
        <ele>141.8</ele>
        <time>2025-05-10T11:07:29Z</time>
      </trkpt>
      <trkpt lat="44.8908" lon="0.85099">
        <ele>141.2</ele>
        <time>2025-05-10T11:07:30Z</time>
      </trkpt>
      <trkpt lat="44.89084" lon="0.85109">
        <ele>140.6</ele>
        <time>2025-05-10T11:07:31Z</time>
      </trkpt>
      <trkpt lat="44.89089" lon="0.85121">
        <ele>139.8</ele>
        <time>2025-05-10T11:07:32Z</time>
      </trkpt>
      <trkpt lat="44.89093" lon="0.85132">
        <ele>139.2</ele>
        <time>2025-05-10T11:07:33Z</time>
      </trkpt>
      <trkpt lat="44.89097" lon="0.85143">
        <ele>138.6</ele>
        <time>2025-05-10T11:07:34Z</time>
      </trkpt>
      <trkpt lat="44.89101" lon="0.85155">
        <ele>137</ele>
        <time>2025-05-10T11:07:35Z</time>
      </trkpt>
      <trkpt lat="44.89106" lon="0.85166">
        <ele>136.2</ele>
        <time>2025-05-10T11:07:36Z</time>
      </trkpt>
      <trkpt lat="44.89112" lon="0.85174">
        <ele>135.6</ele>
        <time>2025-05-10T11:07:37Z</time>
      </trkpt>
      <trkpt lat="44.89119" lon="0.8518">
        <ele>133.4</ele>
        <time>2025-05-10T11:07:38Z</time>
      </trkpt>
      <trkpt lat="44.89126" lon="0.85187">
        <ele>132.8</ele>
        <time>2025-05-10T11:07:39Z</time>
      </trkpt>
      <trkpt lat="44.89135" lon="0.85193">
        <ele>131.6</ele>
        <time>2025-05-10T11:07:40Z</time>
      </trkpt>
      <trkpt lat="44.89143" lon="0.85199">
        <ele>131</ele>
        <time>2025-05-10T11:07:41Z</time>
      </trkpt>
      <trkpt lat="44.89151" lon="0.85207">
        <ele>130.2</ele>
        <time>2025-05-10T11:07:42Z</time>
      </trkpt>
      <trkpt lat="44.89158" lon="0.85217">
        <ele>129.4</ele>
        <time>2025-05-10T11:07:43Z</time>
      </trkpt>
      <trkpt lat="44.89163" lon="0.85227">
        <ele>129</ele>
        <time>2025-05-10T11:07:44Z</time>
      </trkpt>
      <trkpt lat="44.89168" lon="0.85236">
        <ele>128</ele>
        <time>2025-05-10T11:07:45Z</time>
      </trkpt>
      <trkpt lat="44.89174" lon="0.85245">
        <ele>127.8</ele>
        <time>2025-05-10T11:07:46Z</time>
      </trkpt>
      <trkpt lat="44.8918" lon="0.85256">
        <ele>127.6</ele>
        <time>2025-05-10T11:07:47Z</time>
      </trkpt>
      <trkpt lat="44.89185" lon="0.85267">
        <ele>127.2</ele>
        <time>2025-05-10T11:07:48Z</time>
      </trkpt>
      <trkpt lat="44.89189" lon="0.85279">
        <ele>127</ele>
        <time>2025-05-10T11:07:49Z</time>
      </trkpt>
      <trkpt lat="44.89194" lon="0.8529">
        <ele>126.2</ele>
        <time>2025-05-10T11:07:50Z</time>
      </trkpt>
      <trkpt lat="44.89198" lon="0.85301">
        <ele>125.2</ele>
        <time>2025-05-10T11:07:51Z</time>
      </trkpt>
      <trkpt lat="44.89204" lon="0.85312">
        <ele>124.4</ele>
        <time>2025-05-10T11:07:52Z</time>
      </trkpt>
      <trkpt lat="44.89209" lon="0.85324">
        <ele>124.2</ele>
        <time>2025-05-10T11:07:53Z</time>
      </trkpt>
      <trkpt lat="44.89214" lon="0.85336">
        <ele>123.2</ele>
        <time>2025-05-10T11:07:54Z</time>
      </trkpt>
      <trkpt lat="44.89221" lon="0.85346">
        <ele>122.2</ele>
        <time>2025-05-10T11:07:55Z</time>
      </trkpt>
      <trkpt lat="44.89229" lon="0.85352">
        <ele>120</ele>
        <time>2025-05-10T11:07:56Z</time>
      </trkpt>
      <trkpt lat="44.89236" lon="0.85359">
        <ele>119.2</ele>
        <time>2025-05-10T11:07:57Z</time>
      </trkpt>
      <trkpt lat="44.89245" lon="0.85365">
        <ele>118.2</ele>
        <time>2025-05-10T11:07:58Z</time>
      </trkpt>
      <trkpt lat="44.89254" lon="0.85372">
        <ele>116.6</ele>
        <time>2025-05-10T11:07:59Z</time>
      </trkpt>
      <trkpt lat="44.8926" lon="0.85381">
        <ele>115</ele>
        <time>2025-05-10T11:08:00Z</time>
      </trkpt>
      <trkpt lat="44.89267" lon="0.85392">
        <ele>114</ele>
        <time>2025-05-10T11:08:01Z</time>
      </trkpt>
      <trkpt lat="44.89274" lon="0.85404">
        <ele>113</ele>
        <time>2025-05-10T11:08:02Z</time>
      </trkpt>
      <trkpt lat="44.89281" lon="0.85414">
        <ele>112.8</ele>
        <time>2025-05-10T11:08:03Z</time>
      </trkpt>
      <trkpt lat="44.8929" lon="0.85422">
        <ele>111.4</ele>
        <time>2025-05-10T11:08:04Z</time>
      </trkpt>
      <trkpt lat="44.89298" lon="0.85429">
        <ele>110.2</ele>
        <time>2025-05-10T11:08:05Z</time>
      </trkpt>
      <trkpt lat="44.89306" lon="0.85437">
        <ele>109</ele>
        <time>2025-05-10T11:08:06Z</time>
      </trkpt>
      <trkpt lat="44.89313" lon="0.8544">
        <ele>107.6</ele>
        <time>2025-05-10T11:08:07Z</time>
      </trkpt>
      <trkpt lat="44.8932" lon="0.8544">
        <ele>106.8</ele>
        <time>2025-05-10T11:08:08Z</time>
      </trkpt>
      <trkpt lat="44.89327" lon="0.85437">
        <ele>105.8</ele>
        <time>2025-05-10T11:08:09Z</time>
      </trkpt>
      <trkpt lat="44.89334" lon="0.85433">
        <ele>105.4</ele>
        <time>2025-05-10T11:08:10Z</time>
      </trkpt>
      <trkpt lat="44.89341" lon="0.85429">
        <ele>105.2</ele>
        <time>2025-05-10T11:08:11Z</time>
      </trkpt>
      <trkpt lat="44.89348" lon="0.85425">
        <ele>104.6</ele>
        <time>2025-05-10T11:08:12Z</time>
      </trkpt>
      <trkpt lat="44.89354" lon="0.85419">
        <ele>104.4</ele>
        <time>2025-05-10T11:08:13Z</time>
      </trkpt>
      <trkpt lat="44.8936" lon="0.85412">
        <ele>104.2</ele>
        <time>2025-05-10T11:08:14Z</time>
      </trkpt>
      <trkpt lat="44.89366" lon="0.85404">
        <ele>104</ele>
        <time>2025-05-10T11:08:15Z</time>
      </trkpt>
      <trkpt lat="44.89372" lon="0.85396">
        <ele>103.2</ele>
        <time>2025-05-10T11:08:16Z</time>
      </trkpt>
      <trkpt lat="44.89379" lon="0.85387">
        <ele>102.8</ele>
        <time>2025-05-10T11:08:17Z</time>
      </trkpt>
      <trkpt lat="44.89385" lon="0.85378">
        <ele>102.4</ele>
        <time>2025-05-10T11:08:18Z</time>
      </trkpt>
      <trkpt lat="44.89391" lon="0.8537">
        <ele>102</ele>
        <time>2025-05-10T11:08:19Z</time>
      </trkpt>
      <trkpt lat="44.89397" lon="0.85364">
        <ele>102</ele>
        <time>2025-05-10T11:08:20Z</time>
      </trkpt>
      <trkpt lat="44.894" lon="0.85364">
        <ele>102</ele>
        <time>2025-05-10T11:08:21Z</time>
      </trkpt>
      <trkpt lat="44.89402" lon="0.85366">
        <ele>102.2</ele>
        <time>2025-05-10T11:08:22Z</time>
      </trkpt>
      <trkpt lat="44.89402" lon="0.85369">
        <ele>102.4</ele>
        <time>2025-05-10T11:08:23Z</time>
      </trkpt>
      <trkpt lat="44.89402" lon="0.85372">
        <ele>102.6</ele>
        <time>2025-05-10T11:08:24Z</time>
      </trkpt>
      <trkpt lat="44.89402" lon="0.85375">
        <ele>102.6</ele>
        <time>2025-05-10T11:08:25Z</time>
      </trkpt>
      <trkpt lat="44.89401" lon="0.85381">
        <ele>102.6</ele>
        <time>2025-05-10T11:08:26Z</time>
      </trkpt>
      <trkpt lat="44.89399" lon="0.8539">
        <ele>102.6</ele>
        <time>2025-05-10T11:08:27Z</time>
      </trkpt>
      <trkpt lat="44.89396" lon="0.85399">
        <ele>101.8</ele>
        <time>2025-05-10T11:08:28Z</time>
      </trkpt>
      <trkpt lat="44.89393" lon="0.85408">
        <ele>101</ele>
        <time>2025-05-10T11:08:29Z</time>
      </trkpt>
      <trkpt lat="44.89388" lon="0.85417">
        <ele>100</ele>
        <time>2025-05-10T11:08:30Z</time>
      </trkpt>
      <trkpt lat="44.89383" lon="0.85426">
        <ele>99</ele>
        <time>2025-05-10T11:08:31Z</time>
      </trkpt>
      <trkpt lat="44.89378" lon="0.85437">
        <ele>97.8</ele>
        <time>2025-05-10T11:08:32Z</time>
      </trkpt>
      <trkpt lat="44.89375" lon="0.85448">
        <ele>97.2</ele>
        <time>2025-05-10T11:08:33Z</time>
      </trkpt>
      <trkpt lat="44.89372" lon="0.85457">
        <ele>95.4</ele>
        <time>2025-05-10T11:08:34Z</time>
      </trkpt>
      <trkpt lat="44.89369" lon="0.85465">
        <ele>94.8</ele>
        <time>2025-05-10T11:08:35Z</time>
      </trkpt>
      <trkpt lat="44.89368" lon="0.8547">
        <ele>93</ele>
        <time>2025-05-10T11:08:36Z</time>
      </trkpt>
      <trkpt lat="44.89369" lon="0.85475">
        <ele>92.2</ele>
        <time>2025-05-10T11:08:37Z</time>
      </trkpt>
      <trkpt lat="44.89373" lon="0.85478">
        <ele>91.6</ele>
        <time>2025-05-10T11:08:38Z</time>
      </trkpt>
      <trkpt lat="44.89377" lon="0.8548">
        <ele>91.2</ele>
        <time>2025-05-10T11:08:39Z</time>
      </trkpt>
      <trkpt lat="44.89382" lon="0.85484">
        <ele>91</ele>
        <time>2025-05-10T11:08:40Z</time>
      </trkpt>
      <trkpt lat="44.89387" lon="0.85491">
        <ele>90.2</ele>
        <time>2025-05-10T11:08:41Z</time>
      </trkpt>
      <trkpt lat="44.8939" lon="0.85499">
        <ele>89.2</ele>
        <time>2025-05-10T11:08:42Z</time>
      </trkpt>
      <trkpt lat="44.89394" lon="0.85507">
        <ele>88.6</ele>
        <time>2025-05-10T11:08:43Z</time>
      </trkpt>
      <trkpt lat="44.89397" lon="0.85517">
        <ele>87.6</ele>
        <time>2025-05-10T11:08:44Z</time>
      </trkpt>
      <trkpt lat="44.89402" lon="0.85526">
        <ele>85.8</ele>
        <time>2025-05-10T11:08:45Z</time>
      </trkpt>
      <trkpt lat="44.89408" lon="0.85535">
        <ele>85.4</ele>
        <time>2025-05-10T11:08:46Z</time>
      </trkpt>
      <trkpt lat="44.89414" lon="0.85541">
        <ele>84.6</ele>
        <time>2025-05-10T11:08:47Z</time>
      </trkpt>
      <trkpt lat="44.8942" lon="0.85547">
        <ele>82</ele>
        <time>2025-05-10T11:08:48Z</time>
      </trkpt>
      <trkpt lat="44.89427" lon="0.85549">
        <ele>80.8</ele>
        <time>2025-05-10T11:08:49Z</time>
      </trkpt>
      <trkpt lat="44.89433" lon="0.85549">
        <ele>79.2</ele>
        <time>2025-05-10T11:08:50Z</time>
      </trkpt>
      <trkpt lat="44.89441" lon="0.85549">
        <ele>78.2</ele>
        <time>2025-05-10T11:08:51Z</time>
      </trkpt>
      <trkpt lat="44.89449" lon="0.85548">
        <ele>77.8</ele>
        <time>2025-05-10T11:08:52Z</time>
      </trkpt>
      <trkpt lat="44.89454" lon="0.85547">
        <ele>76.2</ele>
        <time>2025-05-10T11:08:53Z</time>
      </trkpt>
      <trkpt lat="44.89458" lon="0.85547">
        <ele>75.6</ele>
        <time>2025-05-10T11:08:54Z</time>
      </trkpt>
      <trkpt lat="44.89459" lon="0.8555">
        <ele>74.2</ele>
        <time>2025-05-10T11:08:55Z</time>
      </trkpt>
      <trkpt lat="44.89458" lon="0.85552">
        <ele>74</ele>
        <time>2025-05-10T11:08:56Z</time>
      </trkpt>
      <trkpt lat="44.89457" lon="0.85553">
        <ele>74</ele>
        <time>2025-05-10T11:08:57Z</time>
      </trkpt>
      <trkpt lat="44.89456" lon="0.85555">
        <ele>74</ele>
        <time>2025-05-10T11:08:58Z</time>
      </trkpt>
      <trkpt lat="44.89454" lon="0.85557">
        <ele>74</ele>
        <time>2025-05-10T11:08:59Z</time>
      </trkpt>
      <trkpt lat="44.89451" lon="0.85558">
        <ele>74</ele>
        <time>2025-05-10T11:09:00Z</time>
      </trkpt>
      <trkpt lat="44.89447" lon="0.8556">
        <ele>74</ele>
        <time>2025-05-10T11:09:01Z</time>
      </trkpt>
      <trkpt lat="44.89442" lon="0.85563">
        <ele>73.8</ele>
        <time>2025-05-10T11:09:02Z</time>
      </trkpt>
      <trkpt lat="44.89438" lon="0.85565">
        <ele>73.4</ele>
        <time>2025-05-10T11:09:03Z</time>
      </trkpt>
      <trkpt lat="44.89434" lon="0.85567">
        <ele>72.8</ele>
        <time>2025-05-10T11:09:04Z</time>
      </trkpt>
      <trkpt lat="44.8943" lon="0.85569">
        <ele>72.6</ele>
        <time>2025-05-10T11:09:05Z</time>
      </trkpt>
      <trkpt lat="44.89426" lon="0.8557">
        <ele>72.4</ele>
        <time>2025-05-10T11:09:06Z</time>
      </trkpt>
      <trkpt lat="44.89423" lon="0.85571">
        <ele>72.4</ele>
        <time>2025-05-10T11:09:07Z</time>
      </trkpt>
      <trkpt lat="44.89419" lon="0.85572">
        <ele>72.4</ele>
        <time>2025-05-10T11:09:08Z</time>
      </trkpt>
      <trkpt lat="44.89415" lon="0.85573">
        <ele>72.4</ele>
        <time>2025-05-10T11:09:09Z</time>
      </trkpt>
      <trkpt lat="44.89411" lon="0.85575">
        <ele>72.6</ele>
        <time>2025-05-10T11:09:10Z</time>
      </trkpt>
      <trkpt lat="44.89407" lon="0.85577">
        <ele>72.6</ele>
        <time>2025-05-10T11:09:11Z</time>
      </trkpt>
      <trkpt lat="44.89403" lon="0.85578">
        <ele>72.8</ele>
        <time>2025-05-10T11:09:12Z</time>
      </trkpt>
      <trkpt lat="44.894" lon="0.8558">
        <ele>73</ele>
        <time>2025-05-10T11:09:13Z</time>
      </trkpt>
      <trkpt lat="44.89396" lon="0.85581">
        <ele>73</ele>
        <time>2025-05-10T11:09:14Z</time>
      </trkpt>
      <trkpt lat="44.89393" lon="0.85583">
        <ele>73</ele>
        <time>2025-05-10T11:09:15Z</time>
      </trkpt>
      <trkpt lat="44.89389" lon="0.85585">
        <ele>73.2</ele>
        <time>2025-05-10T11:09:16Z</time>
      </trkpt>
      <trkpt lat="44.89386" lon="0.85587">
        <ele>73.2</ele>
        <time>2025-05-10T11:09:17Z</time>
      </trkpt>
      <trkpt lat="44.89382" lon="0.85589">
        <ele>73.4</ele>
        <time>2025-05-10T11:09:18Z</time>
      </trkpt>
      <trkpt lat="44.8938" lon="0.85591">
        <ele>73.4</ele>
        <time>2025-05-10T11:09:19Z</time>
      </trkpt>
      <trkpt lat="44.89376" lon="0.85594">
        <ele>73.6</ele>
        <time>2025-05-10T11:09:20Z</time>
      </trkpt>
      <trkpt lat="44.89373" lon="0.85595">
        <ele>73.6</ele>
        <time>2025-05-10T11:09:21Z</time>
      </trkpt>
      <trkpt lat="44.89371" lon="0.85597">
        <ele>73.8</ele>
        <time>2025-05-10T11:09:22Z</time>
      </trkpt>
      <trkpt lat="44.89368" lon="0.856">
        <ele>74</ele>
        <time>2025-05-10T11:09:23Z</time>
      </trkpt>
      <trkpt lat="44.89366" lon="0.85602">
        <ele>74.2</ele>
        <time>2025-05-10T11:09:24Z</time>
      </trkpt>
      <trkpt lat="44.89364" lon="0.85605">
        <ele>74.4</ele>
        <time>2025-05-10T11:09:25Z</time>
      </trkpt>
      <trkpt lat="44.89362" lon="0.85608">
        <ele>74.6</ele>
        <time>2025-05-10T11:09:26Z</time>
      </trkpt>
      <trkpt lat="44.89359" lon="0.85611">
        <ele>74.8</ele>
        <time>2025-05-10T11:09:27Z</time>
      </trkpt>
      <trkpt lat="44.89356" lon="0.85614">
        <ele>75</ele>
        <time>2025-05-10T11:09:28Z</time>
      </trkpt>
      <trkpt lat="44.89354" lon="0.85617">
        <ele>75</ele>
        <time>2025-05-10T11:09:29Z</time>
      </trkpt>
      <trkpt lat="44.89351" lon="0.8562">
        <ele>75</ele>
        <time>2025-05-10T11:09:30Z</time>
      </trkpt>
      <trkpt lat="44.89348" lon="0.85624">
        <ele>75</ele>
        <time>2025-05-10T11:09:31Z</time>
      </trkpt>
      <trkpt lat="44.89346" lon="0.85628">
        <ele>74.8</ele>
        <time>2025-05-10T11:09:32Z</time>
      </trkpt>
      <trkpt lat="44.89343" lon="0.85631">
        <ele>74.6</ele>
        <time>2025-05-10T11:09:33Z</time>
      </trkpt>
      <trkpt lat="44.89339" lon="0.85635">
        <ele>74.6</ele>
        <time>2025-05-10T11:09:34Z</time>
      </trkpt>
      <trkpt lat="44.89336" lon="0.85639">
        <ele>74.6</ele>
        <time>2025-05-10T11:09:35Z</time>
      </trkpt>
      <trkpt lat="44.89333" lon="0.85642">
        <ele>74.6</ele>
        <time>2025-05-10T11:09:36Z</time>
      </trkpt>
      <trkpt lat="44.89329" lon="0.85646">
        <ele>74.4</ele>
        <time>2025-05-10T11:09:37Z</time>
      </trkpt>
      <trkpt lat="44.89326" lon="0.85648">
        <ele>74.4</ele>
        <time>2025-05-10T11:09:38Z</time>
      </trkpt>
      <trkpt lat="44.89322" lon="0.85651">
        <ele>74.4</ele>
        <time>2025-05-10T11:09:39Z</time>
      </trkpt>
      <trkpt lat="44.89319" lon="0.85653">
        <ele>74.4</ele>
        <time>2025-05-10T11:09:40Z</time>
      </trkpt>
      <trkpt lat="44.89316" lon="0.85656">
        <ele>74.4</ele>
        <time>2025-05-10T11:09:41Z</time>
      </trkpt>
      <trkpt lat="44.89312" lon="0.85658">
        <ele>74.4</ele>
        <time>2025-05-10T11:09:42Z</time>
      </trkpt>
      <trkpt lat="44.89308" lon="0.8566">
        <ele>74.2</ele>
        <time>2025-05-10T11:09:43Z</time>
      </trkpt>
      <trkpt lat="44.89304" lon="0.85663">
        <ele>74.2</ele>
        <time>2025-05-10T11:09:44Z</time>
      </trkpt>
      <trkpt lat="44.89299" lon="0.85665">
        <ele>74.2</ele>
        <time>2025-05-10T11:09:45Z</time>
      </trkpt>
      <trkpt lat="44.89294" lon="0.85668">
        <ele>74.2</ele>
        <time>2025-05-10T11:09:46Z</time>
      </trkpt>
      <trkpt lat="44.89289" lon="0.85671">
        <ele>74</ele>
        <time>2025-05-10T11:09:47Z</time>
      </trkpt>
      <trkpt lat="44.89284" lon="0.85675">
        <ele>73.2</ele>
        <time>2025-05-10T11:09:48Z</time>
      </trkpt>
      <trkpt lat="44.89278" lon="0.85678">
        <ele>72.8</ele>
        <time>2025-05-10T11:09:49Z</time>
      </trkpt>
      <trkpt lat="44.89274" lon="0.8568">
        <ele>72.4</ele>
        <time>2025-05-10T11:09:50Z</time>
      </trkpt>
      <trkpt lat="44.89271" lon="0.85683">
        <ele>71.8</ele>
        <time>2025-05-10T11:09:51Z</time>
      </trkpt>
      <trkpt lat="44.8927" lon="0.85687">
        <ele>71.4</ele>
        <time>2025-05-10T11:09:52Z</time>
      </trkpt>
      <trkpt lat="44.89271" lon="0.85692">
        <ele>71.2</ele>
        <time>2025-05-10T11:09:53Z</time>
      </trkpt>
      <trkpt lat="44.89272" lon="0.85699">
        <ele>71.2</ele>
        <time>2025-05-10T11:09:54Z</time>
      </trkpt>
      <trkpt lat="44.89274" lon="0.85708">
        <ele>71</ele>
        <time>2025-05-10T11:09:55Z</time>
      </trkpt>
      <trkpt lat="44.89277" lon="0.85717">
        <ele>70.8</ele>
        <time>2025-05-10T11:09:56Z</time>
      </trkpt>
      <trkpt lat="44.89279" lon="0.85726">
        <ele>69</ele>
        <time>2025-05-10T11:09:57Z</time>
      </trkpt>
      <trkpt lat="44.89282" lon="0.85735">
        <ele>67.6</ele>
        <time>2025-05-10T11:09:58Z</time>
      </trkpt>
      <trkpt lat="44.89284" lon="0.85744">
        <ele>67.2</ele>
        <time>2025-05-10T11:09:59Z</time>
      </trkpt>
      <trkpt lat="44.89286" lon="0.85753">
        <ele>65.8</ele>
        <time>2025-05-10T11:10:00Z</time>
      </trkpt>
      <trkpt lat="44.89289" lon="0.85762">
        <ele>64.8</ele>
        <time>2025-05-10T11:10:01Z</time>
      </trkpt>
      <trkpt lat="44.89291" lon="0.85771">
        <ele>64.6</ele>
        <time>2025-05-10T11:10:02Z</time>
      </trkpt>
      <trkpt lat="44.89293" lon="0.8578">
        <ele>64.4</ele>
        <time>2025-05-10T11:10:03Z</time>
      </trkpt>
      <trkpt lat="44.89296" lon="0.85788">
        <ele>64.2</ele>
        <time>2025-05-10T11:10:04Z</time>
      </trkpt>
      <trkpt lat="44.89299" lon="0.85796">
        <ele>64</ele>
        <time>2025-05-10T11:10:05Z</time>
      </trkpt>
      <trkpt lat="44.89302" lon="0.85803">
        <ele>64</ele>
        <time>2025-05-10T11:10:06Z</time>
      </trkpt>
      <trkpt lat="44.89304" lon="0.85809">
        <ele>64</ele>
        <time>2025-05-10T11:10:07Z</time>
      </trkpt>
      <trkpt lat="44.89307" lon="0.85816">
        <ele>64</ele>
        <time>2025-05-10T11:10:08Z</time>
      </trkpt>
      <trkpt lat="44.8931" lon="0.85823">
        <ele>64.2</ele>
        <time>2025-05-10T11:10:09Z</time>
      </trkpt>
      <trkpt lat="44.89312" lon="0.85829">
        <ele>64.4</ele>
        <time>2025-05-10T11:10:10Z</time>
      </trkpt>
      <trkpt lat="44.89314" lon="0.85835">
        <ele>64.6</ele>
        <time>2025-05-10T11:10:11Z</time>
      </trkpt>
      <trkpt lat="44.89317" lon="0.8584">
        <ele>64.8</ele>
        <time>2025-05-10T11:10:12Z</time>
      </trkpt>
      <trkpt lat="44.89318" lon="0.85844">
        <ele>64.8</ele>
        <time>2025-05-10T11:10:13Z</time>
      </trkpt>
      <trkpt lat="44.89319" lon="0.85848">
        <ele>65</ele>
        <time>2025-05-10T11:10:14Z</time>
      </trkpt>
      <trkpt lat="44.89319" lon="0.85851">
        <ele>65.4</ele>
        <time>2025-05-10T11:10:15Z</time>
      </trkpt>
      <trkpt lat="44.8932" lon="0.85854">
        <ele>65.6</ele>
        <time>2025-05-10T11:10:16Z</time>
      </trkpt>
      <trkpt lat="44.89321" lon="0.85857">
        <ele>66</ele>
        <time>2025-05-10T11:10:17Z</time>
      </trkpt>
      <trkpt lat="44.89321" lon="0.85859">
        <ele>66.2</ele>
        <time>2025-05-10T11:10:18Z</time>
      </trkpt>
      <trkpt lat="44.89321" lon="0.85862">
        <ele>66.6</ele>
        <time>2025-05-10T11:10:19Z</time>
      </trkpt>
      <trkpt lat="44.89322" lon="0.85864">
        <ele>66.8</ele>
        <time>2025-05-10T11:10:20Z</time>
      </trkpt>
      <trkpt lat="44.89322" lon="0.85866">
        <ele>67</ele>
        <time>2025-05-10T11:10:21Z</time>
      </trkpt>
      <trkpt lat="44.89322" lon="0.85868">
        <ele>67.4</ele>
        <time>2025-05-10T11:10:22Z</time>
      </trkpt>
      <trkpt lat="44.89322" lon="0.8587">
        <ele>67.8</ele>
        <time>2025-05-10T11:10:23Z</time>
      </trkpt>
      <trkpt lat="44.89321" lon="0.85872">
        <ele>68</ele>
        <time>2025-05-10T11:10:24Z</time>
      </trkpt>
      <trkpt lat="44.8932" lon="0.85875">
        <ele>68</ele>
        <time>2025-05-10T11:10:25Z</time>
      </trkpt>
      <trkpt lat="44.89319" lon="0.85877">
        <ele>68.4</ele>
        <time>2025-05-10T11:10:26Z</time>
      </trkpt>
      <trkpt lat="44.89318" lon="0.85879">
        <ele>68.8</ele>
        <time>2025-05-10T11:10:27Z</time>
      </trkpt>
      <trkpt lat="44.89315" lon="0.85881">
        <ele>69</ele>
        <time>2025-05-10T11:10:28Z</time>
      </trkpt>
      <trkpt lat="44.89313" lon="0.85883">
        <ele>68.8</ele>
        <time>2025-05-10T11:10:29Z</time>
      </trkpt>
      <trkpt lat="44.89311" lon="0.85885">
        <ele>68.8</ele>
        <time>2025-05-10T11:10:30Z</time>
      </trkpt>
      <trkpt lat="44.89309" lon="0.85886">
        <ele>68.8</ele>
        <time>2025-05-10T11:10:31Z</time>
      </trkpt>
      <trkpt lat="44.89307" lon="0.85888">
        <ele>68.4</ele>
        <time>2025-05-10T11:10:32Z</time>
      </trkpt>
      <trkpt lat="44.89305" lon="0.8589">
        <ele>68</ele>
        <time>2025-05-10T11:10:33Z</time>
      </trkpt>
      <trkpt lat="44.89303" lon="0.85892">
        <ele>68</ele>
        <time>2025-05-10T11:10:34Z</time>
      </trkpt>
      <trkpt lat="44.89301" lon="0.85894">
        <ele>68</ele>
        <time>2025-05-10T11:10:35Z</time>
      </trkpt>
      <trkpt lat="44.89299" lon="0.85896">
        <ele>68</ele>
        <time>2025-05-10T11:10:36Z</time>
      </trkpt>
      <trkpt lat="44.89297" lon="0.85899">
        <ele>68</ele>
        <time>2025-05-10T11:10:37Z</time>
      </trkpt>
      <trkpt lat="44.89296" lon="0.85902">
        <ele>68</ele>
        <time>2025-05-10T11:10:38Z</time>
      </trkpt>
      <trkpt lat="44.89294" lon="0.85904">
        <ele>68.2</ele>
        <time>2025-05-10T11:10:39Z</time>
      </trkpt>
      <trkpt lat="44.89293" lon="0.85907">
        <ele>68.2</ele>
        <time>2025-05-10T11:10:40Z</time>
      </trkpt>
      <trkpt lat="44.89291" lon="0.85909">
        <ele>68.4</ele>
        <time>2025-05-10T11:10:41Z</time>
      </trkpt>
      <trkpt lat="44.89289" lon="0.85911">
        <ele>68.6</ele>
        <time>2025-05-10T11:10:42Z</time>
      </trkpt>
      <trkpt lat="44.89288" lon="0.85913">
        <ele>68.8</ele>
        <time>2025-05-10T11:10:43Z</time>
      </trkpt>
      <trkpt lat="44.89286" lon="0.85915">
        <ele>69</ele>
        <time>2025-05-10T11:10:44Z</time>
      </trkpt>
      <trkpt lat="44.89284" lon="0.85916">
        <ele>69.4</ele>
        <time>2025-05-10T11:10:45Z</time>
      </trkpt>
      <trkpt lat="44.89282" lon="0.85918">
        <ele>69.8</ele>
        <time>2025-05-10T11:10:46Z</time>
      </trkpt>
      <trkpt lat="44.89281" lon="0.8592">
        <ele>70.2</ele>
        <time>2025-05-10T11:10:47Z</time>
      </trkpt>
      <trkpt lat="44.8928" lon="0.85922">
        <ele>70.4</ele>
        <time>2025-05-10T11:10:48Z</time>
      </trkpt>
      <trkpt lat="44.89278" lon="0.85924">
        <ele>70.6</ele>
        <time>2025-05-10T11:10:49Z</time>
      </trkpt>
      <trkpt lat="44.89276" lon="0.85925">
        <ele>70.8</ele>
        <time>2025-05-10T11:10:50Z</time>
      </trkpt>
      <trkpt lat="44.89275" lon="0.85927">
        <ele>71.2</ele>
        <time>2025-05-10T11:10:51Z</time>
      </trkpt>
      <trkpt lat="44.89274" lon="0.85929">
        <ele>71.4</ele>
        <time>2025-05-10T11:10:52Z</time>
      </trkpt>
      <trkpt lat="44.89273" lon="0.8593">
        <ele>71.6</ele>
        <time>2025-05-10T11:10:53Z</time>
      </trkpt>
      <trkpt lat="44.89272" lon="0.85931">
        <ele>72</ele>
        <time>2025-05-10T11:10:54Z</time>
      </trkpt>
      <trkpt lat="44.8927" lon="0.85933">
        <ele>72.2</ele>
        <time>2025-05-10T11:10:55Z</time>
      </trkpt>
      <trkpt lat="44.89269" lon="0.85935">
        <ele>72.4</ele>
        <time>2025-05-10T11:10:56Z</time>
      </trkpt>
      <trkpt lat="44.89268" lon="0.85936">
        <ele>72.6</ele>
        <time>2025-05-10T11:10:57Z</time>
      </trkpt>
      <trkpt lat="44.89267" lon="0.85937">
        <ele>72.8</ele>
        <time>2025-05-10T11:10:58Z</time>
      </trkpt>
      <trkpt lat="44.89266" lon="0.85939">
        <ele>73.2</ele>
        <time>2025-05-10T11:10:59Z</time>
      </trkpt>
      <trkpt lat="44.89265" lon="0.8594">
        <ele>73.4</ele>
        <time>2025-05-10T11:11:00Z</time>
      </trkpt>
      <trkpt lat="44.89264" lon="0.85942">
        <ele>73.8</ele>
        <time>2025-05-10T11:11:01Z</time>
      </trkpt>
      <trkpt lat="44.89263" lon="0.85944">
        <ele>74</ele>
        <time>2025-05-10T11:11:02Z</time>
      </trkpt>
      <trkpt lat="44.89263" lon="0.85946">
        <ele>74.2</ele>
        <time>2025-05-10T11:11:03Z</time>
      </trkpt>
      <trkpt lat="44.89262" lon="0.85947">
        <ele>74.4</ele>
        <time>2025-05-10T11:11:04Z</time>
      </trkpt>
      <trkpt lat="44.8926" lon="0.85948">
        <ele>74.8</ele>
        <time>2025-05-10T11:11:05Z</time>
      </trkpt>
      <trkpt lat="44.8926" lon="0.85949">
        <ele>75</ele>
        <time>2025-05-10T11:11:06Z</time>
      </trkpt>
      <trkpt lat="44.89259" lon="0.85951">
        <ele>75.2</ele>
        <time>2025-05-10T11:11:07Z</time>
      </trkpt>
      <trkpt lat="44.89258" lon="0.85952">
        <ele>75.6</ele>
        <time>2025-05-10T11:11:08Z</time>
      </trkpt>
      <trkpt lat="44.89257" lon="0.85953">
        <ele>75.8</ele>
        <time>2025-05-10T11:11:09Z</time>
      </trkpt>
      <trkpt lat="44.89256" lon="0.85955">
        <ele>76</ele>
        <time>2025-05-10T11:11:10Z</time>
      </trkpt>
      <trkpt lat="44.89255" lon="0.85956">
        <ele>76.4</ele>
        <time>2025-05-10T11:11:11Z</time>
      </trkpt>
      <trkpt lat="44.89255" lon="0.85958">
        <ele>76.6</ele>
        <time>2025-05-10T11:11:12Z</time>
      </trkpt>
      <trkpt lat="44.89254" lon="0.85959">
        <ele>77</ele>
        <time>2025-05-10T11:11:13Z</time>
      </trkpt>
      <trkpt lat="44.89253" lon="0.8596">
        <ele>77.2</ele>
        <time>2025-05-10T11:11:14Z</time>
      </trkpt>
      <trkpt lat="44.89252" lon="0.85962">
        <ele>77.4</ele>
        <time>2025-05-10T11:11:15Z</time>
      </trkpt>
      <trkpt lat="44.89251" lon="0.85963">
        <ele>77.8</ele>
        <time>2025-05-10T11:11:16Z</time>
      </trkpt>
      <trkpt lat="44.8925" lon="0.85963">
        <ele>78</ele>
        <time>2025-05-10T11:11:17Z</time>
      </trkpt>
      <trkpt lat="44.89249" lon="0.85965">
        <ele>78.4</ele>
        <time>2025-05-10T11:11:18Z</time>
      </trkpt>
      <trkpt lat="44.89248" lon="0.85965">
        <ele>78.6</ele>
        <time>2025-05-10T11:11:19Z</time>
      </trkpt>
      <trkpt lat="44.89248" lon="0.85967">
        <ele>78.8</ele>
        <time>2025-05-10T11:11:20Z</time>
      </trkpt>
      <trkpt lat="44.89247" lon="0.85968">
        <ele>79</ele>
        <time>2025-05-10T11:11:21Z</time>
      </trkpt>
      <trkpt lat="44.89247" lon="0.85969">
        <ele>79.2</ele>
        <time>2025-05-10T11:11:22Z</time>
      </trkpt>
      <trkpt lat="44.89247" lon="0.8597">
        <ele>79.6</ele>
        <time>2025-05-10T11:11:23Z</time>
      </trkpt>
      <trkpt lat="44.89246" lon="0.85972">
        <ele>79.6</ele>
        <time>2025-05-10T11:11:24Z</time>
      </trkpt>
      <trkpt lat="44.89245" lon="0.85974">
        <ele>80</ele>
        <time>2025-05-10T11:11:25Z</time>
      </trkpt>
      <trkpt lat="44.89244" lon="0.85975">
        <ele>80.2</ele>
        <time>2025-05-10T11:11:26Z</time>
      </trkpt>
      <trkpt lat="44.89243" lon="0.85976">
        <ele>80.4</ele>
        <time>2025-05-10T11:11:27Z</time>
      </trkpt>
      <trkpt lat="44.89243" lon="0.85977">
        <ele>80.6</ele>
        <time>2025-05-10T11:11:28Z</time>
      </trkpt>
      <trkpt lat="44.89241" lon="0.85978">
        <ele>80.8</ele>
        <time>2025-05-10T11:11:29Z</time>
      </trkpt>
      <trkpt lat="44.8924" lon="0.85979">
        <ele>81</ele>
        <time>2025-05-10T11:11:30Z</time>
      </trkpt>
      <trkpt lat="44.89239" lon="0.8598">
        <ele>81.4</ele>
        <time>2025-05-10T11:11:31Z</time>
      </trkpt>
      <trkpt lat="44.89239" lon="0.85981">
        <ele>81.6</ele>
        <time>2025-05-10T11:11:32Z</time>
      </trkpt>
      <trkpt lat="44.89238" lon="0.85982">
        <ele>81.8</ele>
        <time>2025-05-10T11:11:33Z</time>
      </trkpt>
      <trkpt lat="44.89238" lon="0.85983">
        <ele>82</ele>
        <time>2025-05-10T11:11:34Z</time>
      </trkpt>
      <trkpt lat="44.89237" lon="0.85985">
        <ele>82.2</ele>
        <time>2025-05-10T11:11:35Z</time>
      </trkpt>
      <trkpt lat="44.89237" lon="0.85985">
        <ele>82.4</ele>
        <time>2025-05-10T11:11:36Z</time>
      </trkpt>
      <trkpt lat="44.89236" lon="0.85986">
        <ele>82.6</ele>
        <time>2025-05-10T11:11:37Z</time>
      </trkpt>
      <trkpt lat="44.89236" lon="0.85988">
        <ele>82.8</ele>
        <time>2025-05-10T11:11:38Z</time>
      </trkpt>
      <trkpt lat="44.89235" lon="0.85989">
        <ele>83</ele>
        <time>2025-05-10T11:11:39Z</time>
      </trkpt>
      <trkpt lat="44.89234" lon="0.8599">
        <ele>83.2</ele>
        <time>2025-05-10T11:11:40Z</time>
      </trkpt>
      <trkpt lat="44.89233" lon="0.85991">
        <ele>83.6</ele>
        <time>2025-05-10T11:11:41Z</time>
      </trkpt>
      <trkpt lat="44.89233" lon="0.85993">
        <ele>83.8</ele>
        <time>2025-05-10T11:11:42Z</time>
      </trkpt>
      <trkpt lat="44.89232" lon="0.85994">
        <ele>84</ele>
        <time>2025-05-10T11:11:43Z</time>
      </trkpt>
      <trkpt lat="44.89232" lon="0.85995">
        <ele>84.2</ele>
        <time>2025-05-10T11:11:44Z</time>
      </trkpt>
      <trkpt lat="44.89231" lon="0.85996">
        <ele>84.4</ele>
        <time>2025-05-10T11:11:45Z</time>
      </trkpt>
      <trkpt lat="44.8923" lon="0.85997">
        <ele>84.6</ele>
        <time>2025-05-10T11:11:46Z</time>
      </trkpt>
      <trkpt lat="44.89229" lon="0.85998">
        <ele>85</ele>
        <time>2025-05-10T11:11:47Z</time>
      </trkpt>
      <trkpt lat="44.89228" lon="0.85999">
        <ele>85.2</ele>
        <time>2025-05-10T11:11:48Z</time>
      </trkpt>
      <trkpt lat="44.89227" lon="0.86">
        <ele>85.4</ele>
        <time>2025-05-10T11:11:49Z</time>
      </trkpt>
      <trkpt lat="44.89226" lon="0.86">
        <ele>85.6</ele>
        <time>2025-05-10T11:11:50Z</time>
      </trkpt>
      <trkpt lat="44.89225" lon="0.86001">
        <ele>85.8</ele>
        <time>2025-05-10T11:11:51Z</time>
      </trkpt>
      <trkpt lat="44.89224" lon="0.86002">
        <ele>86</ele>
        <time>2025-05-10T11:11:52Z</time>
      </trkpt>
      <trkpt lat="44.89224" lon="0.86003">
        <ele>86.2</ele>
        <time>2025-05-10T11:11:53Z</time>
      </trkpt>
      <trkpt lat="44.89223" lon="0.86004">
        <ele>86.4</ele>
        <time>2025-05-10T11:11:54Z</time>
      </trkpt>
      <trkpt lat="44.89223" lon="0.86005">
        <ele>86.6</ele>
        <time>2025-05-10T11:11:55Z</time>
      </trkpt>
      <trkpt lat="44.89223" lon="0.86006">
        <ele>86.8</ele>
        <time>2025-05-10T11:11:56Z</time>
      </trkpt>
      <trkpt lat="44.89224" lon="0.86008">
        <ele>87</ele>
        <time>2025-05-10T11:11:57Z</time>
      </trkpt>
      <trkpt lat="44.89225" lon="0.86009">
        <ele>87.2</ele>
        <time>2025-05-10T11:11:58Z</time>
      </trkpt>
      <trkpt lat="44.89225" lon="0.8601">
        <ele>87.6</ele>
        <time>2025-05-10T11:11:59Z</time>
      </trkpt>
      <trkpt lat="44.89226" lon="0.86009">
        <ele>87.6</ele>
        <time>2025-05-10T11:12:00Z</time>
      </trkpt>
      <trkpt lat="44.89227" lon="0.86009">
        <ele>87.8</ele>
        <time>2025-05-10T11:12:01Z</time>
      </trkpt>
      <trkpt lat="44.89227" lon="0.86008">
        <ele>87.8</ele>
        <time>2025-05-10T11:12:02Z</time>
      </trkpt>
      <trkpt lat="44.89228" lon="0.86006">
        <ele>88</ele>
        <time>2025-05-10T11:12:03Z</time>
      </trkpt>
      <trkpt lat="44.89229" lon="0.86005">
        <ele>88.2</ele>
        <time>2025-05-10T11:12:04Z</time>
      </trkpt>
      <trkpt lat="44.8923" lon="0.86004">
        <ele>88.4</ele>
        <time>2025-05-10T11:12:05Z</time>
      </trkpt>
      <trkpt lat="44.89231" lon="0.86004">
        <ele>88.4</ele>
        <time>2025-05-10T11:12:06Z</time>
      </trkpt>
      <trkpt lat="44.89233" lon="0.86004">
        <ele>88.6</ele>
        <time>2025-05-10T11:12:07Z</time>
      </trkpt>
      <trkpt lat="44.89234" lon="0.86003">
        <ele>88.6</ele>
        <time>2025-05-10T11:12:08Z</time>
      </trkpt>
      <trkpt lat="44.89235" lon="0.86003">
        <ele>88.8</ele>
        <time>2025-05-10T11:12:09Z</time>
      </trkpt>
      <trkpt lat="44.89236" lon="0.86003">
        <ele>89</ele>
        <time>2025-05-10T11:12:10Z</time>
      </trkpt>
      <trkpt lat="44.89238" lon="0.86003">
        <ele>89</ele>
        <time>2025-05-10T11:12:11Z</time>
      </trkpt>
      <trkpt lat="44.89239" lon="0.86003">
        <ele>89.2</ele>
        <time>2025-05-10T11:12:12Z</time>
      </trkpt>
      <trkpt lat="44.8924" lon="0.86003">
        <ele>89.4</ele>
        <time>2025-05-10T11:12:13Z</time>
      </trkpt>
      <trkpt lat="44.89241" lon="0.86003">
        <ele>89.6</ele>
        <time>2025-05-10T11:12:14Z</time>
      </trkpt>
      <trkpt lat="44.89242" lon="0.86003">
        <ele>89.8</ele>
        <time>2025-05-10T11:12:15Z</time>
      </trkpt>
      <trkpt lat="44.89243" lon="0.86003">
        <ele>90</ele>
        <time>2025-05-10T11:12:16Z</time>
      </trkpt>
      <trkpt lat="44.89245" lon="0.86002">
        <ele>90.2</ele>
        <time>2025-05-10T11:12:17Z</time>
      </trkpt>
      <trkpt lat="44.89246" lon="0.86002">
        <ele>90.4</ele>
        <time>2025-05-10T11:12:18Z</time>
      </trkpt>
      <trkpt lat="44.89247" lon="0.86001">
        <ele>90.6</ele>
        <time>2025-05-10T11:12:19Z</time>
      </trkpt>
      <trkpt lat="44.89248" lon="0.86001">
        <ele>90.8</ele>
        <time>2025-05-10T11:12:20Z</time>
      </trkpt>
      <trkpt lat="44.89249" lon="0.86001">
        <ele>91.2</ele>
        <time>2025-05-10T11:12:21Z</time>
      </trkpt>
      <trkpt lat="44.8925" lon="0.86001">
        <ele>91.4</ele>
        <time>2025-05-10T11:12:22Z</time>
      </trkpt>
      <trkpt lat="44.89251" lon="0.86">
        <ele>91.4</ele>
        <time>2025-05-10T11:12:23Z</time>
      </trkpt>
      <trkpt lat="44.89252" lon="0.85999">
        <ele>91.6</ele>
        <time>2025-05-10T11:12:24Z</time>
      </trkpt>
      <trkpt lat="44.89254" lon="0.85999">
        <ele>91.8</ele>
        <time>2025-05-10T11:12:25Z</time>
      </trkpt>
      <trkpt lat="44.89255" lon="0.85999">
        <ele>92.2</ele>
        <time>2025-05-10T11:12:26Z</time>
      </trkpt>
      <trkpt lat="44.89256" lon="0.85998">
        <ele>92.2</ele>
        <time>2025-05-10T11:12:27Z</time>
      </trkpt>
      <trkpt lat="44.89258" lon="0.85998">
        <ele>92.4</ele>
        <time>2025-05-10T11:12:28Z</time>
      </trkpt>
      <trkpt lat="44.89259" lon="0.85997">
        <ele>92.6</ele>
        <time>2025-05-10T11:12:29Z</time>
      </trkpt>
      <trkpt lat="44.89261" lon="0.85998">
        <ele>92.8</ele>
        <time>2025-05-10T11:12:30Z</time>
      </trkpt>
      <trkpt lat="44.89262" lon="0.85998">
        <ele>93</ele>
        <time>2025-05-10T11:12:31Z</time>
      </trkpt>
      <trkpt lat="44.89264" lon="0.85998">
        <ele>93.2</ele>
        <time>2025-05-10T11:12:32Z</time>
      </trkpt>
      <trkpt lat="44.89265" lon="0.85997">
        <ele>93.4</ele>
        <time>2025-05-10T11:12:33Z</time>
      </trkpt>
      <trkpt lat="44.89266" lon="0.85997">
        <ele>93.6</ele>
        <time>2025-05-10T11:12:34Z</time>
      </trkpt>
      <trkpt lat="44.89267" lon="0.85996">
        <ele>93.8</ele>
        <time>2025-05-10T11:12:35Z</time>
      </trkpt>
      <trkpt lat="44.89268" lon="0.85997">
        <ele>94</ele>
        <time>2025-05-10T11:12:36Z</time>
      </trkpt>
      <trkpt lat="44.89269" lon="0.85997">
        <ele>94.2</ele>
        <time>2025-05-10T11:12:37Z</time>
      </trkpt>
      <trkpt lat="44.8927" lon="0.85997">
        <ele>94.4</ele>
        <time>2025-05-10T11:12:38Z</time>
      </trkpt>
      <trkpt lat="44.89272" lon="0.85997">
        <ele>94.6</ele>
        <time>2025-05-10T11:12:39Z</time>
      </trkpt>
      <trkpt lat="44.89273" lon="0.85996">
        <ele>94.8</ele>
        <time>2025-05-10T11:12:40Z</time>
      </trkpt>
      <trkpt lat="44.89274" lon="0.85996">
        <ele>94.8</ele>
        <time>2025-05-10T11:12:41Z</time>
      </trkpt>
      <trkpt lat="44.89275" lon="0.85995">
        <ele>95</ele>
        <time>2025-05-10T11:12:42Z</time>
      </trkpt>
      <trkpt lat="44.89277" lon="0.85995">
        <ele>95.2</ele>
        <time>2025-05-10T11:12:43Z</time>
      </trkpt>
      <trkpt lat="44.89278" lon="0.85994">
        <ele>95.4</ele>
        <time>2025-05-10T11:12:44Z</time>
      </trkpt>
      <trkpt lat="44.89279" lon="0.85993">
        <ele>95.4</ele>
        <time>2025-05-10T11:12:45Z</time>
      </trkpt>
      <trkpt lat="44.8928" lon="0.85992">
        <ele>95.6</ele>
        <time>2025-05-10T11:12:46Z</time>
      </trkpt>
      <trkpt lat="44.89281" lon="0.85992">
        <ele>95.8</ele>
        <time>2025-05-10T11:12:47Z</time>
      </trkpt>
      <trkpt lat="44.89283" lon="0.85992">
        <ele>96</ele>
        <time>2025-05-10T11:12:48Z</time>
      </trkpt>
      <trkpt lat="44.89285" lon="0.85991">
        <ele>96.4</ele>
        <time>2025-05-10T11:12:49Z</time>
      </trkpt>
      <trkpt lat="44.89286" lon="0.85991">
        <ele>96.4</ele>
        <time>2025-05-10T11:12:50Z</time>
      </trkpt>
      <trkpt lat="44.89287" lon="0.85991">
        <ele>96.6</ele>
        <time>2025-05-10T11:12:51Z</time>
      </trkpt>
      <trkpt lat="44.89288" lon="0.85991">
        <ele>96.8</ele>
        <time>2025-05-10T11:12:52Z</time>
      </trkpt>
      <trkpt lat="44.8929" lon="0.8599">
        <ele>97</ele>
        <time>2025-05-10T11:12:53Z</time>
      </trkpt>
      <trkpt lat="44.89291" lon="0.8599">
        <ele>97.2</ele>
        <time>2025-05-10T11:12:54Z</time>
      </trkpt>
      <trkpt lat="44.89293" lon="0.85989">
        <ele>97.4</ele>
        <time>2025-05-10T11:12:55Z</time>
      </trkpt>
      <trkpt lat="44.89294" lon="0.85989">
        <ele>97.6</ele>
        <time>2025-05-10T11:12:56Z</time>
      </trkpt>
      <trkpt lat="44.89296" lon="0.85988">
        <ele>97.6</ele>
        <time>2025-05-10T11:12:57Z</time>
      </trkpt>
      <trkpt lat="44.89297" lon="0.85987">
        <ele>97.8</ele>
        <time>2025-05-10T11:12:58Z</time>
      </trkpt>
      <trkpt lat="44.89299" lon="0.85986">
        <ele>98</ele>
        <time>2025-05-10T11:12:59Z</time>
      </trkpt>
      <trkpt lat="44.893" lon="0.85986">
        <ele>98.2</ele>
        <time>2025-05-10T11:13:00Z</time>
      </trkpt>
      <trkpt lat="44.89302" lon="0.85986">
        <ele>98.2</ele>
        <time>2025-05-10T11:13:01Z</time>
      </trkpt>
      <trkpt lat="44.89304" lon="0.85985">
        <ele>98.2</ele>
        <time>2025-05-10T11:13:02Z</time>
      </trkpt>
      <trkpt lat="44.89306" lon="0.85984">
        <ele>98.6</ele>
        <time>2025-05-10T11:13:03Z</time>
      </trkpt>
      <trkpt lat="44.89308" lon="0.85984">
        <ele>98.8</ele>
        <time>2025-05-10T11:13:04Z</time>
      </trkpt>
      <trkpt lat="44.8931" lon="0.85983">
        <ele>99</ele>
        <time>2025-05-10T11:13:05Z</time>
      </trkpt>
      <trkpt lat="44.89313" lon="0.85983">
        <ele>99</ele>
        <time>2025-05-10T11:13:06Z</time>
      </trkpt>
      <trkpt lat="44.89315" lon="0.85982">
        <ele>99</ele>
        <time>2025-05-10T11:13:07Z</time>
      </trkpt>
      <trkpt lat="44.89317" lon="0.85982">
        <ele>99.2</ele>
        <time>2025-05-10T11:13:08Z</time>
      </trkpt>
      <trkpt lat="44.89319" lon="0.85981">
        <ele>99.6</ele>
        <time>2025-05-10T11:13:09Z</time>
      </trkpt>
      <trkpt lat="44.89321" lon="0.8598">
        <ele>99.8</ele>
        <time>2025-05-10T11:13:10Z</time>
      </trkpt>
      <trkpt lat="44.89323" lon="0.85979">
        <ele>100</ele>
        <time>2025-05-10T11:13:11Z</time>
      </trkpt>
      <trkpt lat="44.89325" lon="0.85979">
        <ele>100</ele>
        <time>2025-05-10T11:13:12Z</time>
      </trkpt>
      <trkpt lat="44.89326" lon="0.85978">
        <ele>100.2</ele>
        <time>2025-05-10T11:13:13Z</time>
      </trkpt>
      <trkpt lat="44.89328" lon="0.85978">
        <ele>100.4</ele>
        <time>2025-05-10T11:13:14Z</time>
      </trkpt>
      <trkpt lat="44.8933" lon="0.85977">
        <ele>100.4</ele>
        <time>2025-05-10T11:13:15Z</time>
      </trkpt>
      <trkpt lat="44.89332" lon="0.85976">
        <ele>100.6</ele>
        <time>2025-05-10T11:13:16Z</time>
      </trkpt>
      <trkpt lat="44.89333" lon="0.85976">
        <ele>101</ele>
        <time>2025-05-10T11:13:17Z</time>
      </trkpt>
      <trkpt lat="44.89335" lon="0.85976">
        <ele>101</ele>
        <time>2025-05-10T11:13:18Z</time>
      </trkpt>
      <trkpt lat="44.89337" lon="0.85975">
        <ele>101.2</ele>
        <time>2025-05-10T11:13:19Z</time>
      </trkpt>
      <trkpt lat="44.89338" lon="0.85974">
        <ele>101.4</ele>
        <time>2025-05-10T11:13:20Z</time>
      </trkpt>
      <trkpt lat="44.8934" lon="0.85974">
        <ele>101.4</ele>
        <time>2025-05-10T11:13:21Z</time>
      </trkpt>
      <trkpt lat="44.89342" lon="0.85974">
        <ele>101.4</ele>
        <time>2025-05-10T11:13:22Z</time>
      </trkpt>
      <trkpt lat="44.89344" lon="0.85974">
        <ele>101.6</ele>
        <time>2025-05-10T11:13:23Z</time>
      </trkpt>
      <trkpt lat="44.89346" lon="0.85973">
        <ele>101.6</ele>
        <time>2025-05-10T11:13:24Z</time>
      </trkpt>
      <trkpt lat="44.89347" lon="0.85972">
        <ele>101.6</ele>
        <time>2025-05-10T11:13:25Z</time>
      </trkpt>
      <trkpt lat="44.89349" lon="0.85972">
        <ele>101.8</ele>
        <time>2025-05-10T11:13:26Z</time>
      </trkpt>
      <trkpt lat="44.89351" lon="0.85971">
        <ele>102</ele>
        <time>2025-05-10T11:13:27Z</time>
      </trkpt>
      <trkpt lat="44.89353" lon="0.85971">
        <ele>102</ele>
        <time>2025-05-10T11:13:28Z</time>
      </trkpt>
      <trkpt lat="44.89355" lon="0.85971">
        <ele>102</ele>
        <time>2025-05-10T11:13:29Z</time>
      </trkpt>
      <trkpt lat="44.89357" lon="0.8597">
        <ele>102.2</ele>
        <time>2025-05-10T11:13:30Z</time>
      </trkpt>
      <trkpt lat="44.89359" lon="0.8597">
        <ele>102.2</ele>
        <time>2025-05-10T11:13:31Z</time>
      </trkpt>
      <trkpt lat="44.89361" lon="0.8597">
        <ele>102.4</ele>
        <time>2025-05-10T11:13:32Z</time>
      </trkpt>
      <trkpt lat="44.89362" lon="0.8597">
        <ele>102.8</ele>
        <time>2025-05-10T11:13:33Z</time>
      </trkpt>
      <trkpt lat="44.89364" lon="0.8597">
        <ele>102.8</ele>
        <time>2025-05-10T11:13:34Z</time>
      </trkpt>
      <trkpt lat="44.89366" lon="0.8597">
        <ele>103</ele>
        <time>2025-05-10T11:13:35Z</time>
      </trkpt>
      <trkpt lat="44.89367" lon="0.85969">
        <ele>103.2</ele>
        <time>2025-05-10T11:13:36Z</time>
      </trkpt>
      <trkpt lat="44.89369" lon="0.85969">
        <ele>103.4</ele>
        <time>2025-05-10T11:13:37Z</time>
      </trkpt>
      <trkpt lat="44.8937" lon="0.85969">
        <ele>103.6</ele>
        <time>2025-05-10T11:13:38Z</time>
      </trkpt>
      <trkpt lat="44.89372" lon="0.85968">
        <ele>103.8</ele>
        <time>2025-05-10T11:13:39Z</time>
      </trkpt>
      <trkpt lat="44.89374" lon="0.85968">
        <ele>104</ele>
        <time>2025-05-10T11:13:40Z</time>
      </trkpt>
      <trkpt lat="44.89376" lon="0.85968">
        <ele>104.2</ele>
        <time>2025-05-10T11:13:41Z</time>
      </trkpt>
      <trkpt lat="44.89377" lon="0.85968">
        <ele>104.4</ele>
        <time>2025-05-10T11:13:42Z</time>
      </trkpt>
      <trkpt lat="44.89378" lon="0.85967">
        <ele>104.4</ele>
        <time>2025-05-10T11:13:43Z</time>
      </trkpt>
      <trkpt lat="44.8938" lon="0.85967">
        <ele>104.8</ele>
        <time>2025-05-10T11:13:44Z</time>
      </trkpt>
      <trkpt lat="44.89382" lon="0.85967">
        <ele>105</ele>
        <time>2025-05-10T11:13:45Z</time>
      </trkpt>
      <trkpt lat="44.89383" lon="0.85967">
        <ele>105.2</ele>
        <time>2025-05-10T11:13:46Z</time>
      </trkpt>
      <trkpt lat="44.89384" lon="0.85967">
        <ele>105.4</ele>
        <time>2025-05-10T11:13:47Z</time>
      </trkpt>
      <trkpt lat="44.89385" lon="0.85966">
        <ele>105.8</ele>
        <time>2025-05-10T11:13:48Z</time>
      </trkpt>
      <trkpt lat="44.89386" lon="0.85966">
        <ele>105.8</ele>
        <time>2025-05-10T11:13:49Z</time>
      </trkpt>
      <trkpt lat="44.89387" lon="0.85966">
        <ele>106.2</ele>
        <time>2025-05-10T11:13:50Z</time>
      </trkpt>
      <trkpt lat="44.89388" lon="0.85965">
        <ele>106.4</ele>
        <time>2025-05-10T11:13:51Z</time>
      </trkpt>
      <trkpt lat="44.89389" lon="0.85965">
        <ele>106.8</ele>
        <time>2025-05-10T11:13:52Z</time>
      </trkpt>
      <trkpt lat="44.8939" lon="0.85964">
        <ele>107</ele>
        <time>2025-05-10T11:13:53Z</time>
      </trkpt>
      <trkpt lat="44.89392" lon="0.85963">
        <ele>107.2</ele>
        <time>2025-05-10T11:13:54Z</time>
      </trkpt>
      <trkpt lat="44.89393" lon="0.85963">
        <ele>107.4</ele>
        <time>2025-05-10T11:13:55Z</time>
      </trkpt>
      <trkpt lat="44.89394" lon="0.85962">
        <ele>107.8</ele>
        <time>2025-05-10T11:13:56Z</time>
      </trkpt>
      <trkpt lat="44.89395" lon="0.85962">
        <ele>108</ele>
        <time>2025-05-10T11:13:57Z</time>
      </trkpt>
      <trkpt lat="44.89397" lon="0.85961">
        <ele>108.2</ele>
        <time>2025-05-10T11:13:58Z</time>
      </trkpt>
      <trkpt lat="44.89398" lon="0.8596">
        <ele>108.4</ele>
        <time>2025-05-10T11:13:59Z</time>
      </trkpt>
      <trkpt lat="44.89399" lon="0.8596">
        <ele>108.8</ele>
        <time>2025-05-10T11:14:00Z</time>
      </trkpt>
      <trkpt lat="44.894" lon="0.85959">
        <ele>109</ele>
        <time>2025-05-10T11:14:01Z</time>
      </trkpt>
      <trkpt lat="44.89401" lon="0.85958">
        <ele>109.2</ele>
        <time>2025-05-10T11:14:02Z</time>
      </trkpt>
      <trkpt lat="44.89403" lon="0.85957">
        <ele>109.4</ele>
        <time>2025-05-10T11:14:03Z</time>
      </trkpt>
      <trkpt lat="44.89403" lon="0.85956">
        <ele>109.6</ele>
        <time>2025-05-10T11:14:04Z</time>
      </trkpt>
      <trkpt lat="44.89405" lon="0.85956">
        <ele>109.8</ele>
        <time>2025-05-10T11:14:05Z</time>
      </trkpt>
      <trkpt lat="44.89406" lon="0.85955">
        <ele>110</ele>
        <time>2025-05-10T11:14:06Z</time>
      </trkpt>
      <trkpt lat="44.89407" lon="0.85954">
        <ele>110.2</ele>
        <time>2025-05-10T11:14:07Z</time>
      </trkpt>
      <trkpt lat="44.89408" lon="0.85954">
        <ele>110.4</ele>
        <time>2025-05-10T11:14:08Z</time>
      </trkpt>
      <trkpt lat="44.89409" lon="0.85953">
        <ele>110.6</ele>
        <time>2025-05-10T11:14:09Z</time>
      </trkpt>
      <trkpt lat="44.89411" lon="0.85951">
        <ele>111</ele>
        <time>2025-05-10T11:14:10Z</time>
      </trkpt>
      <trkpt lat="44.89412" lon="0.8595">
        <ele>111.2</ele>
        <time>2025-05-10T11:14:11Z</time>
      </trkpt>
      <trkpt lat="44.89414" lon="0.8595">
        <ele>111.4</ele>
        <time>2025-05-10T11:14:12Z</time>
      </trkpt>
      <trkpt lat="44.89415" lon="0.85949">
        <ele>111.4</ele>
        <time>2025-05-10T11:14:13Z</time>
      </trkpt>
      <trkpt lat="44.89416" lon="0.85948">
        <ele>111.6</ele>
        <time>2025-05-10T11:14:14Z</time>
      </trkpt>
      <trkpt lat="44.89417" lon="0.85947">
        <ele>111.8</ele>
        <time>2025-05-10T11:14:15Z</time>
      </trkpt>
      <trkpt lat="44.89419" lon="0.85945">
        <ele>111.8</ele>
        <time>2025-05-10T11:14:16Z</time>
      </trkpt>
      <trkpt lat="44.8942" lon="0.85944">
        <ele>112.2</ele>
        <time>2025-05-10T11:14:17Z</time>
      </trkpt>
      <trkpt lat="44.89421" lon="0.85943">
        <ele>112.2</ele>
        <time>2025-05-10T11:14:18Z</time>
      </trkpt>
      <trkpt lat="44.89422" lon="0.85942">
        <ele>112.4</ele>
        <time>2025-05-10T11:14:19Z</time>
      </trkpt>
      <trkpt lat="44.89424" lon="0.85942">
        <ele>112.6</ele>
        <time>2025-05-10T11:14:20Z</time>
      </trkpt>
      <trkpt lat="44.89425" lon="0.85941">
        <ele>112.8</ele>
        <time>2025-05-10T11:14:21Z</time>
      </trkpt>
      <trkpt lat="44.89426" lon="0.8594">
        <ele>112.8</ele>
        <time>2025-05-10T11:14:22Z</time>
      </trkpt>
      <trkpt lat="44.89427" lon="0.85939">
        <ele>113.2</ele>
        <time>2025-05-10T11:14:23Z</time>
      </trkpt>
      <trkpt lat="44.89428" lon="0.85939">
        <ele>113.4</ele>
        <time>2025-05-10T11:14:24Z</time>
      </trkpt>
      <trkpt lat="44.89429" lon="0.85938">
        <ele>113.6</ele>
        <time>2025-05-10T11:14:25Z</time>
      </trkpt>
      <trkpt lat="44.8943" lon="0.85937">
        <ele>113.8</ele>
        <time>2025-05-10T11:14:26Z</time>
      </trkpt>
      <trkpt lat="44.89432" lon="0.85937">
        <ele>113.8</ele>
        <time>2025-05-10T11:14:27Z</time>
      </trkpt>
      <trkpt lat="44.89433" lon="0.85936">
        <ele>114</ele>
        <time>2025-05-10T11:14:28Z</time>
      </trkpt>
      <trkpt lat="44.89435" lon="0.85935">
        <ele>114.2</ele>
        <time>2025-05-10T11:14:29Z</time>
      </trkpt>
      <trkpt lat="44.89436" lon="0.85935">
        <ele>114.4</ele>
        <time>2025-05-10T11:14:30Z</time>
      </trkpt>
      <trkpt lat="44.89437" lon="0.85934">
        <ele>114.6</ele>
        <time>2025-05-10T11:14:31Z</time>
      </trkpt>
      <trkpt lat="44.89438" lon="0.85934">
        <ele>114.8</ele>
        <time>2025-05-10T11:14:32Z</time>
      </trkpt>
      <trkpt lat="44.8944" lon="0.85934">
        <ele>115</ele>
        <time>2025-05-10T11:14:33Z</time>
      </trkpt>
      <trkpt lat="44.89441" lon="0.85934">
        <ele>115.2</ele>
        <time>2025-05-10T11:14:34Z</time>
      </trkpt>
      <trkpt lat="44.89443" lon="0.85933">
        <ele>115.4</ele>
        <time>2025-05-10T11:14:35Z</time>
      </trkpt>
      <trkpt lat="44.89444" lon="0.85932">
        <ele>115.6</ele>
        <time>2025-05-10T11:14:36Z</time>
      </trkpt>
      <trkpt lat="44.89446" lon="0.85932">
        <ele>115.6</ele>
        <time>2025-05-10T11:14:37Z</time>
      </trkpt>
      <trkpt lat="44.89447" lon="0.85932">
        <ele>115.8</ele>
        <time>2025-05-10T11:14:38Z</time>
      </trkpt>
      <trkpt lat="44.89448" lon="0.85931">
        <ele>116</ele>
        <time>2025-05-10T11:14:39Z</time>
      </trkpt>
      <trkpt lat="44.89449" lon="0.8593">
        <ele>116.2</ele>
        <time>2025-05-10T11:14:40Z</time>
      </trkpt>
      <trkpt lat="44.8945" lon="0.8593">
        <ele>116.4</ele>
        <time>2025-05-10T11:14:41Z</time>
      </trkpt>
      <trkpt lat="44.89452" lon="0.8593">
        <ele>116.6</ele>
        <time>2025-05-10T11:14:42Z</time>
      </trkpt>
      <trkpt lat="44.89454" lon="0.8593">
        <ele>116.8</ele>
        <time>2025-05-10T11:14:43Z</time>
      </trkpt>
      <trkpt lat="44.89455" lon="0.8593">
        <ele>116.8</ele>
        <time>2025-05-10T11:14:44Z</time>
      </trkpt>
      <trkpt lat="44.89457" lon="0.8593">
        <ele>117</ele>
        <time>2025-05-10T11:14:45Z</time>
      </trkpt>
      <trkpt lat="44.89458" lon="0.8593">
        <ele>117.2</ele>
        <time>2025-05-10T11:14:46Z</time>
      </trkpt>
      <trkpt lat="44.8946" lon="0.8593">
        <ele>117.4</ele>
        <time>2025-05-10T11:14:47Z</time>
      </trkpt>
      <trkpt lat="44.89461" lon="0.8593">
        <ele>117.6</ele>
        <time>2025-05-10T11:14:48Z</time>
      </trkpt>
      <trkpt lat="44.89462" lon="0.8593">
        <ele>117.8</ele>
        <time>2025-05-10T11:14:49Z</time>
      </trkpt>
      <trkpt lat="44.89464" lon="0.8593">
        <ele>118</ele>
        <time>2025-05-10T11:14:50Z</time>
      </trkpt>
      <trkpt lat="44.89465" lon="0.8593">
        <ele>118.4</ele>
        <time>2025-05-10T11:14:51Z</time>
      </trkpt>
      <trkpt lat="44.89467" lon="0.8593">
        <ele>118.4</ele>
        <time>2025-05-10T11:14:52Z</time>
      </trkpt>
      <trkpt lat="44.89468" lon="0.8593">
        <ele>118.8</ele>
        <time>2025-05-10T11:14:53Z</time>
      </trkpt>
      <trkpt lat="44.8947" lon="0.85929">
        <ele>119</ele>
        <time>2025-05-10T11:14:54Z</time>
      </trkpt>
      <trkpt lat="44.89471" lon="0.85929">
        <ele>119.2</ele>
        <time>2025-05-10T11:14:55Z</time>
      </trkpt>
      <trkpt lat="44.89472" lon="0.85929">
        <ele>119.4</ele>
        <time>2025-05-10T11:14:56Z</time>
      </trkpt>
      <trkpt lat="44.89474" lon="0.85929">
        <ele>119.6</ele>
        <time>2025-05-10T11:14:57Z</time>
      </trkpt>
      <trkpt lat="44.89475" lon="0.85929">
        <ele>119.6</ele>
        <time>2025-05-10T11:14:58Z</time>
      </trkpt>
      <trkpt lat="44.89477" lon="0.85928">
        <ele>119.8</ele>
        <time>2025-05-10T11:14:59Z</time>
      </trkpt>
      <trkpt lat="44.89478" lon="0.85929">
        <ele>120</ele>
        <time>2025-05-10T11:15:00Z</time>
      </trkpt>
      <trkpt lat="44.8948" lon="0.85929">
        <ele>120.2</ele>
        <time>2025-05-10T11:15:01Z</time>
      </trkpt>
      <trkpt lat="44.89482" lon="0.85928">
        <ele>120.4</ele>
        <time>2025-05-10T11:15:02Z</time>
      </trkpt>
      <trkpt lat="44.89484" lon="0.85929">
        <ele>120.4</ele>
        <time>2025-05-10T11:15:03Z</time>
      </trkpt>
      <trkpt lat="44.89486" lon="0.85929">
        <ele>120.6</ele>
        <time>2025-05-10T11:15:04Z</time>
      </trkpt>
      <trkpt lat="44.89487" lon="0.85928">
        <ele>120.8</ele>
        <time>2025-05-10T11:15:05Z</time>
      </trkpt>
      <trkpt lat="44.89489" lon="0.85928">
        <ele>121</ele>
        <time>2025-05-10T11:15:06Z</time>
      </trkpt>
      <trkpt lat="44.89491" lon="0.85928">
        <ele>121</ele>
        <time>2025-05-10T11:15:07Z</time>
      </trkpt>
      <trkpt lat="44.89493" lon="0.85928">
        <ele>121.2</ele>
        <time>2025-05-10T11:15:08Z</time>
      </trkpt>
      <trkpt lat="44.89495" lon="0.85928">
        <ele>121.4</ele>
        <time>2025-05-10T11:15:09Z</time>
      </trkpt>
      <trkpt lat="44.89497" lon="0.85927">
        <ele>121.4</ele>
        <time>2025-05-10T11:15:10Z</time>
      </trkpt>
      <trkpt lat="44.89499" lon="0.85927">
        <ele>121.8</ele>
        <time>2025-05-10T11:15:11Z</time>
      </trkpt>
      <trkpt lat="44.89502" lon="0.85926">
        <ele>121.8</ele>
        <time>2025-05-10T11:15:12Z</time>
      </trkpt>
      <trkpt lat="44.89504" lon="0.85924">
        <ele>122</ele>
        <time>2025-05-10T11:15:13Z</time>
      </trkpt>
      <trkpt lat="44.89505" lon="0.85923">
        <ele>122.2</ele>
        <time>2025-05-10T11:15:14Z</time>
      </trkpt>
      <trkpt lat="44.89507" lon="0.85921">
        <ele>122.2</ele>
        <time>2025-05-10T11:15:15Z</time>
      </trkpt>
      <trkpt lat="44.89509" lon="0.8592">
        <ele>122.4</ele>
        <time>2025-05-10T11:15:16Z</time>
      </trkpt>
      <trkpt lat="44.89511" lon="0.85918">
        <ele>122.4</ele>
        <time>2025-05-10T11:15:17Z</time>
      </trkpt>
      <trkpt lat="44.89513" lon="0.85916">
        <ele>122.4</ele>
        <time>2025-05-10T11:15:18Z</time>
      </trkpt>
      <trkpt lat="44.89515" lon="0.85913">
        <ele>122.4</ele>
        <time>2025-05-10T11:15:19Z</time>
      </trkpt>
      <trkpt lat="44.89517" lon="0.85911">
        <ele>122.4</ele>
        <time>2025-05-10T11:15:20Z</time>
      </trkpt>
      <trkpt lat="44.89519" lon="0.85908">
        <ele>122.6</ele>
        <time>2025-05-10T11:15:21Z</time>
      </trkpt>
      <trkpt lat="44.89521" lon="0.85906">
        <ele>122.6</ele>
        <time>2025-05-10T11:15:22Z</time>
      </trkpt>
      <trkpt lat="44.89523" lon="0.85903">
        <ele>122.6</ele>
        <time>2025-05-10T11:15:23Z</time>
      </trkpt>
      <trkpt lat="44.89526" lon="0.859">
        <ele>122.6</ele>
        <time>2025-05-10T11:15:24Z</time>
      </trkpt>
      <trkpt lat="44.89529" lon="0.85898">
        <ele>122.6</ele>
        <time>2025-05-10T11:15:25Z</time>
      </trkpt>
      <trkpt lat="44.89532" lon="0.85895">
        <ele>122.6</ele>
        <time>2025-05-10T11:15:26Z</time>
      </trkpt>
      <trkpt lat="44.89535" lon="0.85893">
        <ele>122.4</ele>
        <time>2025-05-10T11:15:27Z</time>
      </trkpt>
      <trkpt lat="44.89538" lon="0.85891">
        <ele>122.4</ele>
        <time>2025-05-10T11:15:28Z</time>
      </trkpt>
      <trkpt lat="44.89542" lon="0.85888">
        <ele>122.4</ele>
        <time>2025-05-10T11:15:29Z</time>
      </trkpt>
      <trkpt lat="44.89545" lon="0.85886">
        <ele>122.4</ele>
        <time>2025-05-10T11:15:30Z</time>
      </trkpt>
      <trkpt lat="44.89548" lon="0.85883">
        <ele>122.6</ele>
        <time>2025-05-10T11:15:31Z</time>
      </trkpt>
      <trkpt lat="44.89551" lon="0.85881">
        <ele>122.6</ele>
        <time>2025-05-10T11:15:32Z</time>
      </trkpt>
      <trkpt lat="44.89554" lon="0.85879">
        <ele>122.6</ele>
        <time>2025-05-10T11:15:33Z</time>
      </trkpt>
      <trkpt lat="44.89558" lon="0.85877">
        <ele>122.6</ele>
        <time>2025-05-10T11:15:34Z</time>
      </trkpt>
      <trkpt lat="44.89561" lon="0.85874">
        <ele>122.4</ele>
        <time>2025-05-10T11:15:35Z</time>
      </trkpt>
      <trkpt lat="44.89564" lon="0.85872">
        <ele>122.4</ele>
        <time>2025-05-10T11:15:36Z</time>
      </trkpt>
      <trkpt lat="44.89568" lon="0.85869">
        <ele>122.4</ele>
        <time>2025-05-10T11:15:37Z</time>
      </trkpt>
      <trkpt lat="44.89571" lon="0.85867">
        <ele>122.4</ele>
        <time>2025-05-10T11:15:38Z</time>
      </trkpt>
      <trkpt lat="44.89575" lon="0.85865">
        <ele>122.4</ele>
        <time>2025-05-10T11:15:39Z</time>
      </trkpt>
      <trkpt lat="44.89579" lon="0.85863">
        <ele>122.4</ele>
        <time>2025-05-10T11:15:40Z</time>
      </trkpt>
      <trkpt lat="44.89582" lon="0.85861">
        <ele>122.4</ele>
        <time>2025-05-10T11:15:41Z</time>
      </trkpt>
      <trkpt lat="44.89585" lon="0.85859">
        <ele>122.4</ele>
        <time>2025-05-10T11:15:42Z</time>
      </trkpt>
      <trkpt lat="44.89588" lon="0.85857">
        <ele>122.4</ele>
        <time>2025-05-10T11:15:43Z</time>
      </trkpt>
      <trkpt lat="44.89592" lon="0.85854">
        <ele>122.6</ele>
        <time>2025-05-10T11:15:44Z</time>
      </trkpt>
      <trkpt lat="44.89596" lon="0.85852">
        <ele>122.6</ele>
        <time>2025-05-10T11:15:45Z</time>
      </trkpt>
      <trkpt lat="44.89599" lon="0.8585">
        <ele>122.6</ele>
        <time>2025-05-10T11:15:46Z</time>
      </trkpt>
      <trkpt lat="44.89602" lon="0.85848">
        <ele>122.6</ele>
        <time>2025-05-10T11:15:47Z</time>
      </trkpt>
      <trkpt lat="44.89606" lon="0.85846">
        <ele>122.6</ele>
        <time>2025-05-10T11:15:48Z</time>
      </trkpt>
      <trkpt lat="44.8961" lon="0.85844">
        <ele>122.6</ele>
        <time>2025-05-10T11:15:49Z</time>
      </trkpt>
      <trkpt lat="44.89613" lon="0.85842">
        <ele>122.8</ele>
        <time>2025-05-10T11:15:50Z</time>
      </trkpt>
      <trkpt lat="44.89617" lon="0.85841">
        <ele>122.8</ele>
        <time>2025-05-10T11:15:51Z</time>
      </trkpt>
      <trkpt lat="44.8962" lon="0.85839">
        <ele>122.8</ele>
        <time>2025-05-10T11:15:52Z</time>
      </trkpt>
      <trkpt lat="44.89624" lon="0.85836">
        <ele>123</ele>
        <time>2025-05-10T11:15:53Z</time>
      </trkpt>
      <trkpt lat="44.89627" lon="0.85834">
        <ele>123</ele>
        <time>2025-05-10T11:15:54Z</time>
      </trkpt>
      <trkpt lat="44.89631" lon="0.85832">
        <ele>123</ele>
        <time>2025-05-10T11:15:55Z</time>
      </trkpt>
      <trkpt lat="44.89636" lon="0.8583">
        <ele>123</ele>
        <time>2025-05-10T11:15:56Z</time>
      </trkpt>
      <trkpt lat="44.8964" lon="0.85828">
        <ele>123.2</ele>
        <time>2025-05-10T11:15:57Z</time>
      </trkpt>
      <trkpt lat="44.89644" lon="0.85825">
        <ele>123.2</ele>
        <time>2025-05-10T11:15:58Z</time>
      </trkpt>
      <trkpt lat="44.89648" lon="0.85823">
        <ele>123.2</ele>
        <time>2025-05-10T11:15:59Z</time>
      </trkpt>
      <trkpt lat="44.89653" lon="0.85821">
        <ele>123.4</ele>
        <time>2025-05-10T11:16:00Z</time>
      </trkpt>
      <trkpt lat="44.89657" lon="0.85819">
        <ele>123.6</ele>
        <time>2025-05-10T11:16:01Z</time>
      </trkpt>
      <trkpt lat="44.89661" lon="0.85817">
        <ele>123.6</ele>
        <time>2025-05-10T11:16:02Z</time>
      </trkpt>
      <trkpt lat="44.89665" lon="0.85814">
        <ele>123.6</ele>
        <time>2025-05-10T11:16:03Z</time>
      </trkpt>
      <trkpt lat="44.89669" lon="0.85812">
        <ele>123.6</ele>
        <time>2025-05-10T11:16:04Z</time>
      </trkpt>
      <trkpt lat="44.89673" lon="0.85809">
        <ele>123.6</ele>
        <time>2025-05-10T11:16:05Z</time>
      </trkpt>
      <trkpt lat="44.89678" lon="0.85806">
        <ele>123.8</ele>
        <time>2025-05-10T11:16:06Z</time>
      </trkpt>
      <trkpt lat="44.89682" lon="0.85803">
        <ele>123.8</ele>
        <time>2025-05-10T11:16:07Z</time>
      </trkpt>
      <trkpt lat="44.89686" lon="0.85801">
        <ele>124</ele>
        <time>2025-05-10T11:16:08Z</time>
      </trkpt>
      <trkpt lat="44.8969" lon="0.85798">
        <ele>124.2</ele>
        <time>2025-05-10T11:16:09Z</time>
      </trkpt>
      <trkpt lat="44.89695" lon="0.85795">
        <ele>124.2</ele>
        <time>2025-05-10T11:16:10Z</time>
      </trkpt>
      <trkpt lat="44.897" lon="0.85793">
        <ele>124.2</ele>
        <time>2025-05-10T11:16:11Z</time>
      </trkpt>
      <trkpt lat="44.89704" lon="0.85791">
        <ele>124.4</ele>
        <time>2025-05-10T11:16:12Z</time>
      </trkpt>
      <trkpt lat="44.89708" lon="0.85788">
        <ele>124.4</ele>
        <time>2025-05-10T11:16:13Z</time>
      </trkpt>
      <trkpt lat="44.89713" lon="0.85786">
        <ele>124.4</ele>
        <time>2025-05-10T11:16:14Z</time>
      </trkpt>
      <trkpt lat="44.89717" lon="0.85783">
        <ele>124.6</ele>
        <time>2025-05-10T11:16:15Z</time>
      </trkpt>
      <trkpt lat="44.89722" lon="0.85781">
        <ele>124.8</ele>
        <time>2025-05-10T11:16:16Z</time>
      </trkpt>
      <trkpt lat="44.89726" lon="0.85779">
        <ele>124.8</ele>
        <time>2025-05-10T11:16:17Z</time>
      </trkpt>
      <trkpt lat="44.89731" lon="0.85777">
        <ele>124.8</ele>
        <time>2025-05-10T11:16:18Z</time>
      </trkpt>
      <trkpt lat="44.89736" lon="0.85776">
        <ele>125</ele>
        <time>2025-05-10T11:16:19Z</time>
      </trkpt>
      <trkpt lat="44.8974" lon="0.85774">
        <ele>125</ele>
        <time>2025-05-10T11:16:20Z</time>
      </trkpt>
      <trkpt lat="44.89745" lon="0.85773">
        <ele>125</ele>
        <time>2025-05-10T11:16:21Z</time>
      </trkpt>
      <trkpt lat="44.8975" lon="0.85771">
        <ele>125</ele>
        <time>2025-05-10T11:16:22Z</time>
      </trkpt>
      <trkpt lat="44.89755" lon="0.8577">
        <ele>125</ele>
        <time>2025-05-10T11:16:23Z</time>
      </trkpt>
      <trkpt lat="44.8976" lon="0.85769">
        <ele>125.2</ele>
        <time>2025-05-10T11:16:24Z</time>
      </trkpt>
      <trkpt lat="44.89765" lon="0.85768">
        <ele>125.4</ele>
        <time>2025-05-10T11:16:25Z</time>
      </trkpt>
      <trkpt lat="44.89769" lon="0.85767">
        <ele>125.4</ele>
        <time>2025-05-10T11:16:26Z</time>
      </trkpt>
      <trkpt lat="44.89774" lon="0.85766">
        <ele>125.6</ele>
        <time>2025-05-10T11:16:27Z</time>
      </trkpt>
      <trkpt lat="44.89779" lon="0.85764">
        <ele>125.6</ele>
        <time>2025-05-10T11:16:28Z</time>
      </trkpt>
      <trkpt lat="44.89783" lon="0.85763">
        <ele>125.8</ele>
        <time>2025-05-10T11:16:29Z</time>
      </trkpt>
      <trkpt lat="44.89789" lon="0.85763">
        <ele>125.8</ele>
        <time>2025-05-10T11:16:30Z</time>
      </trkpt>
      <trkpt lat="44.89794" lon="0.85763">
        <ele>125.8</ele>
        <time>2025-05-10T11:16:31Z</time>
      </trkpt>
      <trkpt lat="44.89799" lon="0.85762">
        <ele>125.8</ele>
        <time>2025-05-10T11:16:32Z</time>
      </trkpt>
      <trkpt lat="44.89804" lon="0.85761">
        <ele>125.8</ele>
        <time>2025-05-10T11:16:33Z</time>
      </trkpt>
      <trkpt lat="44.89809" lon="0.8576">
        <ele>125.8</ele>
        <time>2025-05-10T11:16:34Z</time>
      </trkpt>
      <trkpt lat="44.89814" lon="0.85759">
        <ele>126</ele>
        <time>2025-05-10T11:16:35Z</time>
      </trkpt>
      <trkpt lat="44.89819" lon="0.85758">
        <ele>126</ele>
        <time>2025-05-10T11:16:36Z</time>
      </trkpt>
      <trkpt lat="44.89824" lon="0.85757">
        <ele>126</ele>
        <time>2025-05-10T11:16:37Z</time>
      </trkpt>
      <trkpt lat="44.89828" lon="0.85756">
        <ele>126</ele>
        <time>2025-05-10T11:16:38Z</time>
      </trkpt>
      <trkpt lat="44.89833" lon="0.85754">
        <ele>126.2</ele>
        <time>2025-05-10T11:16:39Z</time>
      </trkpt>
      <trkpt lat="44.89838" lon="0.85753">
        <ele>126.4</ele>
        <time>2025-05-10T11:16:40Z</time>
      </trkpt>
      <trkpt lat="44.89843" lon="0.85752">
        <ele>126.4</ele>
        <time>2025-05-10T11:16:41Z</time>
      </trkpt>
      <trkpt lat="44.89848" lon="0.8575">
        <ele>126.6</ele>
        <time>2025-05-10T11:16:42Z</time>
      </trkpt>
      <trkpt lat="44.89852" lon="0.85749">
        <ele>126.6</ele>
        <time>2025-05-10T11:16:43Z</time>
      </trkpt>
      <trkpt lat="44.89857" lon="0.85748">
        <ele>126.6</ele>
        <time>2025-05-10T11:16:44Z</time>
      </trkpt>
      <trkpt lat="44.89862" lon="0.85746">
        <ele>126.6</ele>
        <time>2025-05-10T11:16:45Z</time>
      </trkpt>
      <trkpt lat="44.89867" lon="0.85745">
        <ele>126.8</ele>
        <time>2025-05-10T11:16:46Z</time>
      </trkpt>
      <trkpt lat="44.89872" lon="0.85744">
        <ele>126.8</ele>
        <time>2025-05-10T11:16:47Z</time>
      </trkpt>
      <trkpt lat="44.89877" lon="0.85742">
        <ele>126.8</ele>
        <time>2025-05-10T11:16:48Z</time>
      </trkpt>
      <trkpt lat="44.89882" lon="0.85741">
        <ele>126.8</ele>
        <time>2025-05-10T11:16:49Z</time>
      </trkpt>
      <trkpt lat="44.89887" lon="0.85741">
        <ele>126.8</ele>
        <time>2025-05-10T11:16:50Z</time>
      </trkpt>
      <trkpt lat="44.89892" lon="0.8574">
        <ele>126.8</ele>
        <time>2025-05-10T11:16:51Z</time>
      </trkpt>
      <trkpt lat="44.89896" lon="0.85739">
        <ele>126.8</ele>
        <time>2025-05-10T11:16:52Z</time>
      </trkpt>
      <trkpt lat="44.89901" lon="0.85739">
        <ele>126.8</ele>
        <time>2025-05-10T11:16:53Z</time>
      </trkpt>
      <trkpt lat="44.89906" lon="0.85738">
        <ele>126.8</ele>
        <time>2025-05-10T11:16:54Z</time>
      </trkpt>
      <trkpt lat="44.89911" lon="0.85738">
        <ele>127</ele>
        <time>2025-05-10T11:16:55Z</time>
      </trkpt>
      <trkpt lat="44.89916" lon="0.85738">
        <ele>127</ele>
        <time>2025-05-10T11:16:56Z</time>
      </trkpt>
      <trkpt lat="44.89922" lon="0.85737">
        <ele>127.2</ele>
        <time>2025-05-10T11:16:57Z</time>
      </trkpt>
      <trkpt lat="44.89927" lon="0.85737">
        <ele>127.2</ele>
        <time>2025-05-10T11:16:58Z</time>
      </trkpt>
      <trkpt lat="44.89932" lon="0.85737">
        <ele>127.4</ele>
        <time>2025-05-10T11:16:59Z</time>
      </trkpt>
      <trkpt lat="44.89937" lon="0.85736">
        <ele>127.6</ele>
        <time>2025-05-10T11:17:00Z</time>
      </trkpt>
      <trkpt lat="44.89943" lon="0.85736">
        <ele>127.6</ele>
        <time>2025-05-10T11:17:01Z</time>
      </trkpt>
      <trkpt lat="44.89948" lon="0.85735">
        <ele>127.8</ele>
        <time>2025-05-10T11:17:02Z</time>
      </trkpt>
      <trkpt lat="44.89953" lon="0.85734">
        <ele>128</ele>
        <time>2025-05-10T11:17:03Z</time>
      </trkpt>
      <trkpt lat="44.89959" lon="0.85734">
        <ele>128</ele>
        <time>2025-05-10T11:17:04Z</time>
      </trkpt>
      <trkpt lat="44.89964" lon="0.85733">
        <ele>128</ele>
        <time>2025-05-10T11:17:05Z</time>
      </trkpt>
      <trkpt lat="44.8997" lon="0.85732">
        <ele>128</ele>
        <time>2025-05-10T11:17:06Z</time>
      </trkpt>
      <trkpt lat="44.89975" lon="0.85731">
        <ele>128</ele>
        <time>2025-05-10T11:17:07Z</time>
      </trkpt>
      <trkpt lat="44.8998" lon="0.8573">
        <ele>128</ele>
        <time>2025-05-10T11:17:08Z</time>
      </trkpt>
      <trkpt lat="44.89985" lon="0.85729">
        <ele>128.2</ele>
        <time>2025-05-10T11:17:09Z</time>
      </trkpt>
      <trkpt lat="44.8999" lon="0.85728">
        <ele>128.2</ele>
        <time>2025-05-10T11:17:10Z</time>
      </trkpt>
      <trkpt lat="44.89995" lon="0.85727">
        <ele>128.2</ele>
        <time>2025-05-10T11:17:11Z</time>
      </trkpt>
      <trkpt lat="44.9" lon="0.85726">
        <ele>128.4</ele>
        <time>2025-05-10T11:17:12Z</time>
      </trkpt>
      <trkpt lat="44.90005" lon="0.85724">
        <ele>128.4</ele>
        <time>2025-05-10T11:17:13Z</time>
      </trkpt>
      <trkpt lat="44.9001" lon="0.85724">
        <ele>128.8</ele>
        <time>2025-05-10T11:17:14Z</time>
      </trkpt>
      <trkpt lat="44.90015" lon="0.85723">
        <ele>128.8</ele>
        <time>2025-05-10T11:17:15Z</time>
      </trkpt>
      <trkpt lat="44.9002" lon="0.85722">
        <ele>129</ele>
        <time>2025-05-10T11:17:16Z</time>
      </trkpt>
      <trkpt lat="44.90025" lon="0.85721">
        <ele>129</ele>
        <time>2025-05-10T11:17:17Z</time>
      </trkpt>
      <trkpt lat="44.9003" lon="0.85721">
        <ele>129.2</ele>
        <time>2025-05-10T11:17:18Z</time>
      </trkpt>
      <trkpt lat="44.90035" lon="0.8572">
        <ele>129.2</ele>
        <time>2025-05-10T11:17:19Z</time>
      </trkpt>
      <trkpt lat="44.9004" lon="0.8572">
        <ele>129.4</ele>
        <time>2025-05-10T11:17:20Z</time>
      </trkpt>
      <trkpt lat="44.90045" lon="0.8572">
        <ele>129.6</ele>
        <time>2025-05-10T11:17:21Z</time>
      </trkpt>
      <trkpt lat="44.9005" lon="0.8572">
        <ele>129.6</ele>
        <time>2025-05-10T11:17:22Z</time>
      </trkpt>
      <trkpt lat="44.90055" lon="0.8572">
        <ele>129.8</ele>
        <time>2025-05-10T11:17:23Z</time>
      </trkpt>
      <trkpt lat="44.9006" lon="0.85721">
        <ele>129.8</ele>
        <time>2025-05-10T11:17:24Z</time>
      </trkpt>
      <trkpt lat="44.90065" lon="0.85721">
        <ele>130</ele>
        <time>2025-05-10T11:17:25Z</time>
      </trkpt>
      <trkpt lat="44.90069" lon="0.85721">
        <ele>130.2</ele>
        <time>2025-05-10T11:17:26Z</time>
      </trkpt>
      <trkpt lat="44.90074" lon="0.85722">
        <ele>130.2</ele>
        <time>2025-05-10T11:17:27Z</time>
      </trkpt>
      <trkpt lat="44.90078" lon="0.85721">
        <ele>130.4</ele>
        <time>2025-05-10T11:17:28Z</time>
      </trkpt>
      <trkpt lat="44.90082" lon="0.85717">
        <ele>130.6</ele>
        <time>2025-05-10T11:17:29Z</time>
      </trkpt>
      <trkpt lat="44.90083" lon="0.85712">
        <ele>130.6</ele>
        <time>2025-05-10T11:17:30Z</time>
      </trkpt>
      <trkpt lat="44.90083" lon="0.85706">
        <ele>130.8</ele>
        <time>2025-05-10T11:17:31Z</time>
      </trkpt>
      <trkpt lat="44.90082" lon="0.85701">
        <ele>131</ele>
        <time>2025-05-10T11:17:32Z</time>
      </trkpt>
      <trkpt lat="44.90082" lon="0.85697">
        <ele>131.2</ele>
        <time>2025-05-10T11:17:33Z</time>
      </trkpt>
      <trkpt lat="44.90081" lon="0.85692">
        <ele>131.2</ele>
        <time>2025-05-10T11:17:34Z</time>
      </trkpt>
      <trkpt lat="44.9008" lon="0.85687">
        <ele>131.2</ele>
        <time>2025-05-10T11:17:35Z</time>
      </trkpt>
      <trkpt lat="44.90079" lon="0.85682">
        <ele>131.4</ele>
        <time>2025-05-10T11:17:36Z</time>
      </trkpt>
      <trkpt lat="44.90078" lon="0.85677">
        <ele>131.4</ele>
        <time>2025-05-10T11:17:37Z</time>
      </trkpt>
      <trkpt lat="44.90076" lon="0.85672">
        <ele>131.4</ele>
        <time>2025-05-10T11:17:38Z</time>
      </trkpt>
      <trkpt lat="44.90074" lon="0.85668">
        <ele>131.4</ele>
        <time>2025-05-10T11:17:39Z</time>
      </trkpt>
      <trkpt lat="44.90072" lon="0.85664">
        <ele>131.2</ele>
        <time>2025-05-10T11:17:40Z</time>
      </trkpt>
      <trkpt lat="44.90071" lon="0.85661">
        <ele>131.2</ele>
        <time>2025-05-10T11:17:41Z</time>
      </trkpt>
      <trkpt lat="44.9007" lon="0.8566">
        <ele>131.2</ele>
        <time>2025-05-10T11:17:42Z</time>
      </trkpt>
      <trkpt lat="44.9007" lon="0.85661">
        <ele>131.2</ele>
        <time>2025-05-10T11:17:43Z</time>
      </trkpt>
    </trkseg>
  </trk>
</gpx>